<?xml version="1.0" encoding="UTF-8"?>
<gpx version="1.1" creator="https://www.youtrack.es" xsi:schemaLocation="http://www.topografix.com/GPX/1/1 http://www.topografix.com/GPX/1/1/gpx.xsd http://www.garmin.com/xmlschemas/GpxExtensions/v3 http://www.garmin.com/xmlschemas/GpxExtensionsv3.xsd http://www.garmin.com/xmlschemas/TrackPointExtension/v1 http://www.garmin.com/xmlschemas/TrackPointExtensionv1.xsd" xmlns:gpxtpx="http://www.garmin.com/xmlschemas/TrackPointExtension/v1" xmlns:gpxx="http://www.garmin.com/xmlschemas/GpxExtensions/v3" xmlns:xsi="http://www.w3.org/2001/XMLSchema-instance">
  <metadata>
    <link href="https://www.youtrack.es">
      <text>YouTrack.es</text>
    </link>
    <time>2026-05-09T01:31:51Z</time>
  </metadata>
  <trk>
    <src>https://www.youtrack.es</src>
    <link href="https://www.youtrack.es/ruta/23179-vuelta-a-mallorca">
      <text>YouTrack.es</text>
    </link>
    <trkseg>
      <trkpt lat="39.5684260" lon="2.6466910">
        <ele>11.5</ele>
        <time>2021-06-17T09:17:51Z</time>
      </trkpt>
      <trkpt lat="39.5684260" lon="2.6466910">
        <ele>11.5</ele>
        <time>2021-06-17T09:17:52Z</time>
      </trkpt>
      <trkpt lat="39.5684260" lon="2.6466910">
        <ele>11.5</ele>
        <time>2021-06-17T09:17:53Z</time>
      </trkpt>
      <trkpt lat="39.5684260" lon="2.6466910">
        <ele>11.5</ele>
        <time>2021-06-17T09:17:54Z</time>
      </trkpt>
      <trkpt lat="39.5684260" lon="2.6466910">
        <ele>11.5</ele>
        <time>2021-06-17T09:17:55Z</time>
      </trkpt>
      <trkpt lat="39.5684260" lon="2.6466910">
        <ele>11.5</ele>
        <time>2021-06-17T09:17:56Z</time>
      </trkpt>
      <trkpt lat="39.5684260" lon="2.6466910">
        <ele>11.5</ele>
        <time>2021-06-17T09:17:59Z</time>
      </trkpt>
      <trkpt lat="39.5684260" lon="2.6466910">
        <ele>11.5</ele>
        <time>2021-06-17T09:18:01Z</time>
      </trkpt>
      <trkpt lat="39.5684260" lon="2.6466910">
        <ele>11.5</ele>
        <time>2021-06-17T09:18:05Z</time>
      </trkpt>
      <trkpt lat="39.5684260" lon="2.6466910">
        <ele>11.5</ele>
        <time>2021-06-17T09:18:08Z</time>
      </trkpt>
      <trkpt lat="39.5684260" lon="2.6466910">
        <ele>11.5</ele>
        <time>2021-06-17T09:18:12Z</time>
      </trkpt>
      <trkpt lat="39.5684260" lon="2.6466910">
        <ele>11.5</ele>
        <time>2021-06-17T09:18:19Z</time>
      </trkpt>
      <trkpt lat="39.5684260" lon="2.6466910">
        <ele>11.5</ele>
        <time>2021-06-17T09:18:22Z</time>
      </trkpt>
      <trkpt lat="39.5684260" lon="2.6466910">
        <ele>11.5</ele>
        <time>2021-06-17T09:18:27Z</time>
      </trkpt>
      <trkpt lat="39.5684260" lon="2.6466910">
        <ele>11.5</ele>
        <time>2021-06-17T09:18:28Z</time>
      </trkpt>
      <trkpt lat="39.5684260" lon="2.6466910">
        <ele>11.5</ele>
        <time>2021-06-17T09:18:29Z</time>
      </trkpt>
      <trkpt lat="39.5684260" lon="2.6466910">
        <ele>11.5</ele>
        <time>2021-06-17T09:18:31Z</time>
      </trkpt>
      <trkpt lat="39.5684260" lon="2.6466910">
        <ele>11.5</ele>
        <time>2021-06-17T09:18:33Z</time>
      </trkpt>
      <trkpt lat="39.5684260" lon="2.6466910">
        <ele>11.5</ele>
        <time>2021-06-17T09:18:34Z</time>
      </trkpt>
      <trkpt lat="39.5684260" lon="2.6466910">
        <ele>11.5</ele>
        <time>2021-06-17T09:18:36Z</time>
      </trkpt>
      <trkpt lat="39.5684260" lon="2.6466910">
        <ele>11.5</ele>
        <time>2021-06-17T09:18:37Z</time>
      </trkpt>
      <trkpt lat="39.5684260" lon="2.6466910">
        <ele>11.5</ele>
        <time>2021-06-17T09:18:41Z</time>
      </trkpt>
      <trkpt lat="39.5684790" lon="2.6466410">
        <ele>11.5</ele>
        <time>2021-06-17T09:18:43Z</time>
      </trkpt>
      <trkpt lat="39.5685980" lon="2.6465860">
        <ele>9.3</ele>
        <time>2021-06-17T09:18:45Z</time>
      </trkpt>
      <trkpt lat="39.5686530" lon="2.6465860">
        <ele>9.4</ele>
        <time>2021-06-17T09:18:49Z</time>
      </trkpt>
      <trkpt lat="39.5686650" lon="2.6465620">
        <ele>9.4</ele>
        <time>2021-06-17T09:18:51Z</time>
      </trkpt>
      <trkpt lat="39.5687030" lon="2.6465370">
        <ele>9.4</ele>
        <time>2021-06-17T09:18:54Z</time>
      </trkpt>
      <trkpt lat="39.5687210" lon="2.6465360">
        <ele>9.4</ele>
        <time>2021-06-17T09:18:55Z</time>
      </trkpt>
      <trkpt lat="39.5688570" lon="2.6465670">
        <ele>9.5</ele>
        <time>2021-06-17T09:19:00Z</time>
      </trkpt>
      <trkpt lat="39.5689730" lon="2.6465880">
        <ele>9.4</ele>
        <time>2021-06-17T09:19:03Z</time>
      </trkpt>
      <trkpt lat="39.5689730" lon="2.6465880">
        <ele>9.4</ele>
        <time>2021-06-17T09:19:04Z</time>
      </trkpt>
      <trkpt lat="39.5690900" lon="2.6465480">
        <ele>9.4</ele>
        <time>2021-06-17T09:19:08Z</time>
      </trkpt>
      <trkpt lat="39.5692570" lon="2.6466030">
        <ele>9.9</ele>
        <time>2021-06-17T09:19:14Z</time>
      </trkpt>
      <trkpt lat="39.5694210" lon="2.6466460">
        <ele>10.0</ele>
        <time>2021-06-17T09:19:19Z</time>
      </trkpt>
      <trkpt lat="39.5695100" lon="2.6466590">
        <ele>10.1</ele>
        <time>2021-06-17T09:19:22Z</time>
      </trkpt>
      <trkpt lat="39.5695470" lon="2.6466570">
        <ele>10.1</ele>
        <time>2021-06-17T09:19:23Z</time>
      </trkpt>
      <trkpt lat="39.5696430" lon="2.6466800">
        <ele>10.2</ele>
        <time>2021-06-17T09:19:26Z</time>
      </trkpt>
      <trkpt lat="39.5696720" lon="2.6466800">
        <ele>10.3</ele>
        <time>2021-06-17T09:19:27Z</time>
      </trkpt>
      <trkpt lat="39.5697890" lon="2.6467130">
        <ele>10.4</ele>
        <time>2021-06-17T09:19:31Z</time>
      </trkpt>
      <trkpt lat="39.5698980" lon="2.6466990">
        <ele>10.5</ele>
        <time>2021-06-17T09:19:35Z</time>
      </trkpt>
      <trkpt lat="39.5699670" lon="2.6466900">
        <ele>10.5</ele>
        <time>2021-06-17T09:19:37Z</time>
      </trkpt>
      <trkpt lat="39.5700800" lon="2.6466740">
        <ele>10.6</ele>
        <time>2021-06-17T09:19:41Z</time>
      </trkpt>
      <trkpt lat="39.5701190" lon="2.6466570">
        <ele>10.6</ele>
        <time>2021-06-17T09:19:42Z</time>
      </trkpt>
      <trkpt lat="39.5702470" lon="2.6466760">
        <ele>10.7</ele>
        <time>2021-06-17T09:19:46Z</time>
      </trkpt>
      <trkpt lat="39.5702820" lon="2.6466990">
        <ele>10.7</ele>
        <time>2021-06-17T09:19:47Z</time>
      </trkpt>
      <trkpt lat="39.5704610" lon="2.6467840">
        <ele>10.8</ele>
        <time>2021-06-17T09:19:51Z</time>
      </trkpt>
      <trkpt lat="39.5706730" lon="2.6468830">
        <ele>11.0</ele>
        <time>2021-06-17T09:19:56Z</time>
      </trkpt>
      <trkpt lat="39.5709250" lon="2.6469410">
        <ele>11.2</ele>
        <time>2021-06-17T09:20:02Z</time>
      </trkpt>
      <trkpt lat="39.5711840" lon="2.6470080">
        <ele>11.7</ele>
        <time>2021-06-17T09:20:09Z</time>
      </trkpt>
      <trkpt lat="39.5713640" lon="2.6470430">
        <ele>12.2</ele>
        <time>2021-06-17T09:20:16Z</time>
      </trkpt>
      <trkpt lat="39.5714620" lon="2.6470570">
        <ele>12.5</ele>
        <time>2021-06-17T09:20:21Z</time>
      </trkpt>
      <trkpt lat="39.5714790" lon="2.6470880">
        <ele>12.5</ele>
        <time>2021-06-17T09:20:23Z</time>
      </trkpt>
      <trkpt lat="39.5714700" lon="2.6471240">
        <ele>12.5</ele>
        <time>2021-06-17T09:20:25Z</time>
      </trkpt>
      <trkpt lat="39.5714400" lon="2.6473300">
        <ele>12.3</ele>
        <time>2021-06-17T09:20:30Z</time>
      </trkpt>
      <trkpt lat="39.5714560" lon="2.6474170">
        <ele>12.3</ele>
        <time>2021-06-17T09:20:33Z</time>
      </trkpt>
      <trkpt lat="39.5714580" lon="2.6474200">
        <ele>12.3</ele>
        <time>2021-06-17T09:20:34Z</time>
      </trkpt>
      <trkpt lat="39.5714510" lon="2.6474240">
        <ele>12.3</ele>
        <time>2021-06-17T09:20:38Z</time>
      </trkpt>
      <trkpt lat="39.5714490" lon="2.6474370">
        <ele>12.3</ele>
        <time>2021-06-17T09:20:46Z</time>
      </trkpt>
      <trkpt lat="39.5714510" lon="2.6474510">
        <ele>12.3</ele>
        <time>2021-06-17T09:20:51Z</time>
      </trkpt>
      <trkpt lat="39.5714540" lon="2.6474620">
        <ele>12.3</ele>
        <time>2021-06-17T09:20:52Z</time>
      </trkpt>
      <trkpt lat="39.5714830" lon="2.6475390">
        <ele>12.3</ele>
        <time>2021-06-17T09:20:56Z</time>
      </trkpt>
      <trkpt lat="39.5715310" lon="2.6476810">
        <ele>12.3</ele>
        <time>2021-06-17T09:21:00Z</time>
      </trkpt>
      <trkpt lat="39.5715610" lon="2.6478840">
        <ele>12.3</ele>
        <time>2021-06-17T09:21:04Z</time>
      </trkpt>
      <trkpt lat="39.5715500" lon="2.6481540">
        <ele>12.3</ele>
        <time>2021-06-17T09:21:09Z</time>
      </trkpt>
      <trkpt lat="39.5714960" lon="2.6485350">
        <ele>12.2</ele>
        <time>2021-06-17T09:21:15Z</time>
      </trkpt>
      <trkpt lat="39.5714920" lon="2.6485910">
        <ele>12.2</ele>
        <time>2021-06-17T09:21:16Z</time>
      </trkpt>
      <trkpt lat="39.5714520" lon="2.6490570">
        <ele>12.5</ele>
        <time>2021-06-17T09:21:24Z</time>
      </trkpt>
      <trkpt lat="39.5714420" lon="2.6491350">
        <ele>12.6</ele>
        <time>2021-06-17T09:21:25Z</time>
      </trkpt>
      <trkpt lat="39.5714510" lon="2.6493380">
        <ele>12.9</ele>
        <time>2021-06-17T09:21:28Z</time>
      </trkpt>
      <trkpt lat="39.5714590" lon="2.6494670">
        <ele>13.0</ele>
        <time>2021-06-17T09:21:30Z</time>
      </trkpt>
      <trkpt lat="39.5714550" lon="2.6495270">
        <ele>13.1</ele>
        <time>2021-06-17T09:21:31Z</time>
      </trkpt>
      <trkpt lat="39.5714700" lon="2.6497070">
        <ele>13.3</ele>
        <time>2021-06-17T09:21:34Z</time>
      </trkpt>
      <trkpt lat="39.5714930" lon="2.6498240">
        <ele>13.4</ele>
        <time>2021-06-17T09:21:36Z</time>
      </trkpt>
      <trkpt lat="39.5715120" lon="2.6500560">
        <ele>13.7</ele>
        <time>2021-06-17T09:21:39Z</time>
      </trkpt>
      <trkpt lat="39.5715110" lon="2.6502620">
        <ele>14.0</ele>
        <time>2021-06-17T09:21:42Z</time>
      </trkpt>
      <trkpt lat="39.5715570" lon="2.6504600">
        <ele>14.3</ele>
        <time>2021-06-17T09:21:45Z</time>
      </trkpt>
      <trkpt lat="39.5715980" lon="2.6505520">
        <ele>14.5</ele>
        <time>2021-06-17T09:21:47Z</time>
      </trkpt>
      <trkpt lat="39.5716260" lon="2.6505960">
        <ele>14.6</ele>
        <time>2021-06-17T09:21:48Z</time>
      </trkpt>
      <trkpt lat="39.5716540" lon="2.6506330">
        <ele>14.7</ele>
        <time>2021-06-17T09:21:49Z</time>
      </trkpt>
      <trkpt lat="39.5717590" lon="2.6506960">
        <ele>14.9</ele>
        <time>2021-06-17T09:21:52Z</time>
      </trkpt>
      <trkpt lat="39.5719050" lon="2.6507750">
        <ele>15.2</ele>
        <time>2021-06-17T09:21:56Z</time>
      </trkpt>
      <trkpt lat="39.5719820" lon="2.6508100">
        <ele>15.3</ele>
        <time>2021-06-17T09:21:58Z</time>
      </trkpt>
      <trkpt lat="39.5720150" lon="2.6508500">
        <ele>15.5</ele>
        <time>2021-06-17T09:21:59Z</time>
      </trkpt>
      <trkpt lat="39.5720520" lon="2.6508800">
        <ele>15.6</ele>
        <time>2021-06-17T09:22:00Z</time>
      </trkpt>
      <trkpt lat="39.5721320" lon="2.6509200">
        <ele>15.8</ele>
        <time>2021-06-17T09:22:02Z</time>
      </trkpt>
      <trkpt lat="39.5723530" lon="2.6508670">
        <ele>16.0</ele>
        <time>2021-06-17T09:22:08Z</time>
      </trkpt>
      <trkpt lat="39.5724840" lon="2.6508020">
        <ele>15.8</ele>
        <time>2021-06-17T09:22:12Z</time>
      </trkpt>
      <trkpt lat="39.5726860" lon="2.6506070">
        <ele>15.5</ele>
        <time>2021-06-17T09:22:18Z</time>
      </trkpt>
      <trkpt lat="39.5727820" lon="2.6505220">
        <ele>15.4</ele>
        <time>2021-06-17T09:22:21Z</time>
      </trkpt>
      <trkpt lat="39.5728550" lon="2.6504350">
        <ele>15.3</ele>
        <time>2021-06-17T09:22:23Z</time>
      </trkpt>
      <trkpt lat="39.5731220" lon="2.6501600">
        <ele>15.3</ele>
        <time>2021-06-17T09:22:29Z</time>
      </trkpt>
      <trkpt lat="39.5732030" lon="2.6500650">
        <ele>15.3</ele>
        <time>2021-06-17T09:22:31Z</time>
      </trkpt>
      <trkpt lat="39.5733160" lon="2.6499270">
        <ele>15.4</ele>
        <time>2021-06-17T09:22:34Z</time>
      </trkpt>
      <trkpt lat="39.5736710" lon="2.6495740">
        <ele>15.7</ele>
        <time>2021-06-17T09:22:42Z</time>
      </trkpt>
      <trkpt lat="39.5737060" lon="2.6495370">
        <ele>15.7</ele>
        <time>2021-06-17T09:22:43Z</time>
      </trkpt>
      <trkpt lat="39.5737460" lon="2.6494900">
        <ele>15.7</ele>
        <time>2021-06-17T09:22:44Z</time>
      </trkpt>
      <trkpt lat="39.5739250" lon="2.6493230">
        <ele>15.8</ele>
        <time>2021-06-17T09:22:49Z</time>
      </trkpt>
      <trkpt lat="39.5740360" lon="2.6492210">
        <ele>15.9</ele>
        <time>2021-06-17T09:22:52Z</time>
      </trkpt>
      <trkpt lat="39.5741010" lon="2.6491410">
        <ele>16.0</ele>
        <time>2021-06-17T09:22:54Z</time>
      </trkpt>
      <trkpt lat="39.5744160" lon="2.6488220">
        <ele>16.7</ele>
        <time>2021-06-17T09:23:02Z</time>
      </trkpt>
      <trkpt lat="39.5745130" lon="2.6487260">
        <ele>17.1</ele>
        <time>2021-06-17T09:23:05Z</time>
      </trkpt>
      <trkpt lat="39.5746210" lon="2.6486020">
        <ele>17.6</ele>
        <time>2021-06-17T09:23:08Z</time>
      </trkpt>
      <trkpt lat="39.5747470" lon="2.6484880">
        <ele>18.0</ele>
        <time>2021-06-17T09:23:12Z</time>
      </trkpt>
      <trkpt lat="39.5748350" lon="2.6483260">
        <ele>18.4</ele>
        <time>2021-06-17T09:23:16Z</time>
      </trkpt>
      <trkpt lat="39.5748690" lon="2.6482990">
        <ele>18.5</ele>
        <time>2021-06-17T09:23:17Z</time>
      </trkpt>
      <trkpt lat="39.5750180" lon="2.6481910">
        <ele>18.4</ele>
        <time>2021-06-17T09:23:21Z</time>
      </trkpt>
      <trkpt lat="39.5750990" lon="2.6481560">
        <ele>18.3</ele>
        <time>2021-06-17T09:23:23Z</time>
      </trkpt>
      <trkpt lat="39.5753220" lon="2.6480810">
        <ele>18.3</ele>
        <time>2021-06-17T09:23:29Z</time>
      </trkpt>
      <trkpt lat="39.5754220" lon="2.6480280">
        <ele>18.6</ele>
        <time>2021-06-17T09:23:32Z</time>
      </trkpt>
      <trkpt lat="39.5754850" lon="2.6479900">
        <ele>18.7</ele>
        <time>2021-06-17T09:23:34Z</time>
      </trkpt>
      <trkpt lat="39.5755570" lon="2.6479590">
        <ele>19.0</ele>
        <time>2021-06-17T09:23:36Z</time>
      </trkpt>
      <trkpt lat="39.5757310" lon="2.6479190">
        <ele>19.7</ele>
        <time>2021-06-17T09:23:40Z</time>
      </trkpt>
      <trkpt lat="39.5757900" lon="2.6478890">
        <ele>20.0</ele>
        <time>2021-06-17T09:23:42Z</time>
      </trkpt>
      <trkpt lat="39.5759980" lon="2.6478150">
        <ele>20.7</ele>
        <time>2021-06-17T09:23:48Z</time>
      </trkpt>
      <trkpt lat="39.5762060" lon="2.6477130">
        <ele>21.3</ele>
        <time>2021-06-17T09:23:54Z</time>
      </trkpt>
      <trkpt lat="39.5763120" lon="2.6476590">
        <ele>21.6</ele>
        <time>2021-06-17T09:23:57Z</time>
      </trkpt>
      <trkpt lat="39.5764380" lon="2.6476100">
        <ele>22.0</ele>
        <time>2021-06-17T09:24:00Z</time>
      </trkpt>
      <trkpt lat="39.5764720" lon="2.6475920">
        <ele>22.1</ele>
        <time>2021-06-17T09:24:01Z</time>
      </trkpt>
      <trkpt lat="39.5766700" lon="2.6474870">
        <ele>22.8</ele>
        <time>2021-06-17T09:24:07Z</time>
      </trkpt>
      <trkpt lat="39.5766930" lon="2.6474830">
        <ele>22.8</ele>
        <time>2021-06-17T09:24:11Z</time>
      </trkpt>
      <trkpt lat="39.5766960" lon="2.6474880">
        <ele>22.9</ele>
        <time>2021-06-17T09:24:16Z</time>
      </trkpt>
      <trkpt lat="39.5766960" lon="2.6474880">
        <ele>22.9</ele>
        <time>2021-06-17T09:24:20Z</time>
      </trkpt>
      <trkpt lat="39.5766960" lon="2.6474880">
        <ele>22.9</ele>
        <time>2021-06-17T09:24:26Z</time>
      </trkpt>
      <trkpt lat="39.5766960" lon="2.6474880">
        <ele>22.9</ele>
        <time>2021-06-17T09:24:35Z</time>
      </trkpt>
      <trkpt lat="39.5766960" lon="2.6474880">
        <ele>22.9</ele>
        <time>2021-06-17T09:24:38Z</time>
      </trkpt>
      <trkpt lat="39.5766960" lon="2.6474880">
        <ele>22.9</ele>
        <time>2021-06-17T09:24:39Z</time>
      </trkpt>
      <trkpt lat="39.5766960" lon="2.6474880">
        <ele>22.9</ele>
        <time>2021-06-17T09:24:40Z</time>
      </trkpt>
      <trkpt lat="39.5766960" lon="2.6474880">
        <ele>22.9</ele>
        <time>2021-06-17T09:24:41Z</time>
      </trkpt>
      <trkpt lat="39.5766960" lon="2.6474880">
        <ele>22.9</ele>
        <time>2021-06-17T09:24:44Z</time>
      </trkpt>
      <trkpt lat="39.5766960" lon="2.6474880">
        <ele>22.9</ele>
        <time>2021-06-17T09:24:45Z</time>
      </trkpt>
      <trkpt lat="39.5766960" lon="2.6474880">
        <ele>22.9</ele>
        <time>2021-06-17T09:24:46Z</time>
      </trkpt>
      <trkpt lat="39.5766960" lon="2.6474880">
        <ele>22.9</ele>
        <time>2021-06-17T09:24:47Z</time>
      </trkpt>
      <trkpt lat="39.5766960" lon="2.6474880">
        <ele>22.9</ele>
        <time>2021-06-17T09:24:49Z</time>
      </trkpt>
      <trkpt lat="39.5766960" lon="2.6474880">
        <ele>22.9</ele>
        <time>2021-06-17T09:24:51Z</time>
      </trkpt>
      <trkpt lat="39.5767030" lon="2.6474880">
        <ele>22.9</ele>
        <time>2021-06-17T09:24:55Z</time>
      </trkpt>
      <trkpt lat="39.5767070" lon="2.6474910">
        <ele>22.9</ele>
        <time>2021-06-17T09:25:03Z</time>
      </trkpt>
      <trkpt lat="39.5767220" lon="2.6474840">
        <ele>22.9</ele>
        <time>2021-06-17T09:25:06Z</time>
      </trkpt>
      <trkpt lat="39.5767580" lon="2.6474620">
        <ele>23.1</ele>
        <time>2021-06-17T09:25:08Z</time>
      </trkpt>
      <trkpt lat="39.5768760" lon="2.6473970">
        <ele>23.4</ele>
        <time>2021-06-17T09:25:12Z</time>
      </trkpt>
      <trkpt lat="39.5769730" lon="2.6473660">
        <ele>23.7</ele>
        <time>2021-06-17T09:25:14Z</time>
      </trkpt>
      <trkpt lat="39.5770680" lon="2.6473660">
        <ele>23.8</ele>
        <time>2021-06-17T09:25:16Z</time>
      </trkpt>
      <trkpt lat="39.5771120" lon="2.6473540">
        <ele>23.8</ele>
        <time>2021-06-17T09:25:17Z</time>
      </trkpt>
      <trkpt lat="39.5773310" lon="2.6472900">
        <ele>23.9</ele>
        <time>2021-06-17T09:25:22Z</time>
      </trkpt>
      <trkpt lat="39.5774650" lon="2.6472290">
        <ele>24.0</ele>
        <time>2021-06-17T09:25:25Z</time>
      </trkpt>
      <trkpt lat="39.5775920" lon="2.6471750">
        <ele>24.0</ele>
        <time>2021-06-17T09:25:28Z</time>
      </trkpt>
      <trkpt lat="39.5777350" lon="2.6471150">
        <ele>24.1</ele>
        <time>2021-06-17T09:25:31Z</time>
      </trkpt>
      <trkpt lat="39.5777750" lon="2.6470890">
        <ele>24.2</ele>
        <time>2021-06-17T09:25:32Z</time>
      </trkpt>
      <trkpt lat="39.5778930" lon="2.6469970">
        <ele>24.2</ele>
        <time>2021-06-17T09:25:35Z</time>
      </trkpt>
      <trkpt lat="39.5779340" lon="2.6469660">
        <ele>24.3</ele>
        <time>2021-06-17T09:25:36Z</time>
      </trkpt>
      <trkpt lat="39.5780780" lon="2.6469280">
        <ele>24.4</ele>
        <time>2021-06-17T09:25:39Z</time>
      </trkpt>
      <trkpt lat="39.5782930" lon="2.6468980">
        <ele>24.5</ele>
        <time>2021-06-17T09:25:43Z</time>
      </trkpt>
      <trkpt lat="39.5783410" lon="2.6468810">
        <ele>24.6</ele>
        <time>2021-06-17T09:25:44Z</time>
      </trkpt>
      <trkpt lat="39.5785050" lon="2.6468260">
        <ele>24.7</ele>
        <time>2021-06-17T09:25:48Z</time>
      </trkpt>
      <trkpt lat="39.5786900" lon="2.6467720">
        <ele>24.8</ele>
        <time>2021-06-17T09:25:53Z</time>
      </trkpt>
      <trkpt lat="39.5788200" lon="2.6466920">
        <ele>24.9</ele>
        <time>2021-06-17T09:25:56Z</time>
      </trkpt>
      <trkpt lat="39.5788580" lon="2.6466780">
        <ele>24.9</ele>
        <time>2021-06-17T09:25:57Z</time>
      </trkpt>
      <trkpt lat="39.5790290" lon="2.6466060">
        <ele>25.0</ele>
        <time>2021-06-17T09:26:01Z</time>
      </trkpt>
      <trkpt lat="39.5790790" lon="2.6465710">
        <ele>25.0</ele>
        <time>2021-06-17T09:26:02Z</time>
      </trkpt>
      <trkpt lat="39.5791710" lon="2.6465180">
        <ele>25.1</ele>
        <time>2021-06-17T09:26:04Z</time>
      </trkpt>
      <trkpt lat="39.5794010" lon="2.6464740">
        <ele>25.2</ele>
        <time>2021-06-17T09:26:08Z</time>
      </trkpt>
      <trkpt lat="39.5796750" lon="2.6463050">
        <ele>25.2</ele>
        <time>2021-06-17T09:26:13Z</time>
      </trkpt>
      <trkpt lat="39.5797310" lon="2.6462830">
        <ele>25.3</ele>
        <time>2021-06-17T09:26:14Z</time>
      </trkpt>
      <trkpt lat="39.5799190" lon="2.6462480">
        <ele>25.3</ele>
        <time>2021-06-17T09:26:17Z</time>
      </trkpt>
      <trkpt lat="39.5800370" lon="2.6462120">
        <ele>25.3</ele>
        <time>2021-06-17T09:26:19Z</time>
      </trkpt>
      <trkpt lat="39.5802520" lon="2.6461270">
        <ele>25.5</ele>
        <time>2021-06-17T09:26:23Z</time>
      </trkpt>
      <trkpt lat="39.5803620" lon="2.6460740">
        <ele>25.6</ele>
        <time>2021-06-17T09:26:25Z</time>
      </trkpt>
      <trkpt lat="39.5807190" lon="2.6459030">
        <ele>25.9</ele>
        <time>2021-06-17T09:26:32Z</time>
      </trkpt>
      <trkpt lat="39.5807970" lon="2.6458270">
        <ele>25.9</ele>
        <time>2021-06-17T09:26:34Z</time>
      </trkpt>
      <trkpt lat="39.5808670" lon="2.6457250">
        <ele>26.0</ele>
        <time>2021-06-17T09:26:36Z</time>
      </trkpt>
      <trkpt lat="39.5811290" lon="2.6453490">
        <ele>26.3</ele>
        <time>2021-06-17T09:26:43Z</time>
      </trkpt>
      <trkpt lat="39.5811580" lon="2.6453020">
        <ele>26.3</ele>
        <time>2021-06-17T09:26:44Z</time>
      </trkpt>
      <trkpt lat="39.5812370" lon="2.6451960">
        <ele>26.5</ele>
        <time>2021-06-17T09:26:48Z</time>
      </trkpt>
      <trkpt lat="39.5812450" lon="2.6451910">
        <ele>26.5</ele>
        <time>2021-06-17T09:26:51Z</time>
      </trkpt>
      <trkpt lat="39.5812450" lon="2.6451910">
        <ele>26.5</ele>
        <time>2021-06-17T09:26:55Z</time>
      </trkpt>
      <trkpt lat="39.5812450" lon="2.6451910">
        <ele>26.5</ele>
        <time>2021-06-17T09:27:05Z</time>
      </trkpt>
      <trkpt lat="39.5812450" lon="2.6451910">
        <ele>26.5</ele>
        <time>2021-06-17T09:27:07Z</time>
      </trkpt>
      <trkpt lat="39.5812430" lon="2.6451910">
        <ele>26.5</ele>
        <time>2021-06-17T09:27:19Z</time>
      </trkpt>
      <trkpt lat="39.5812430" lon="2.6451910">
        <ele>26.5</ele>
        <time>2021-06-17T09:27:23Z</time>
      </trkpt>
      <trkpt lat="39.5812430" lon="2.6451910">
        <ele>26.5</ele>
        <time>2021-06-17T09:27:24Z</time>
      </trkpt>
      <trkpt lat="39.5812430" lon="2.6451910">
        <ele>26.5</ele>
        <time>2021-06-17T09:27:27Z</time>
      </trkpt>
      <trkpt lat="39.5812410" lon="2.6451970">
        <ele>26.5</ele>
        <time>2021-06-17T09:27:33Z</time>
      </trkpt>
      <trkpt lat="39.5812410" lon="2.6451970">
        <ele>26.5</ele>
        <time>2021-06-17T09:27:34Z</time>
      </trkpt>
      <trkpt lat="39.5812410" lon="2.6451970">
        <ele>26.5</ele>
        <time>2021-06-17T09:27:36Z</time>
      </trkpt>
      <trkpt lat="39.5812420" lon="2.6451940">
        <ele>26.5</ele>
        <time>2021-06-17T09:27:38Z</time>
      </trkpt>
      <trkpt lat="39.5812830" lon="2.6451230">
        <ele>26.6</ele>
        <time>2021-06-17T09:27:41Z</time>
      </trkpt>
      <trkpt lat="39.5813860" lon="2.6449730">
        <ele>26.7</ele>
        <time>2021-06-17T09:27:45Z</time>
      </trkpt>
      <trkpt lat="39.5815810" lon="2.6447290">
        <ele>26.7</ele>
        <time>2021-06-17T09:27:51Z</time>
      </trkpt>
      <trkpt lat="39.5817260" lon="2.6445190">
        <ele>26.7</ele>
        <time>2021-06-17T09:27:55Z</time>
      </trkpt>
      <trkpt lat="39.5818670" lon="2.6442980">
        <ele>26.7</ele>
        <time>2021-06-17T09:27:59Z</time>
      </trkpt>
      <trkpt lat="39.5821320" lon="2.6439120">
        <ele>26.6</ele>
        <time>2021-06-17T09:28:06Z</time>
      </trkpt>
      <trkpt lat="39.5822050" lon="2.6437940">
        <ele>26.7</ele>
        <time>2021-06-17T09:28:08Z</time>
      </trkpt>
      <trkpt lat="39.5822840" lon="2.6436850">
        <ele>26.8</ele>
        <time>2021-06-17T09:28:10Z</time>
      </trkpt>
      <trkpt lat="39.5823640" lon="2.6435730">
        <ele>26.9</ele>
        <time>2021-06-17T09:28:12Z</time>
      </trkpt>
      <trkpt lat="39.5826050" lon="2.6432530">
        <ele>27.2</ele>
        <time>2021-06-17T09:28:18Z</time>
      </trkpt>
      <trkpt lat="39.5826530" lon="2.6432150">
        <ele>27.3</ele>
        <time>2021-06-17T09:28:19Z</time>
      </trkpt>
      <trkpt lat="39.5829760" lon="2.6429500">
        <ele>27.7</ele>
        <time>2021-06-17T09:28:26Z</time>
      </trkpt>
      <trkpt lat="39.5833240" lon="2.6426360">
        <ele>28.6</ele>
        <time>2021-06-17T09:28:34Z</time>
      </trkpt>
      <trkpt lat="39.5835460" lon="2.6423580">
        <ele>29.2</ele>
        <time>2021-06-17T09:28:40Z</time>
      </trkpt>
      <trkpt lat="39.5836250" lon="2.6422650">
        <ele>29.4</ele>
        <time>2021-06-17T09:28:42Z</time>
      </trkpt>
      <trkpt lat="39.5840630" lon="2.6417440">
        <ele>30.2</ele>
        <time>2021-06-17T09:28:53Z</time>
      </trkpt>
      <trkpt lat="39.5844510" lon="2.6413440">
        <ele>30.7</ele>
        <time>2021-06-17T09:29:02Z</time>
      </trkpt>
      <trkpt lat="39.5848980" lon="2.6409720">
        <ele>31.5</ele>
        <time>2021-06-17T09:29:12Z</time>
      </trkpt>
      <trkpt lat="39.5849930" lon="2.6408950">
        <ele>31.7</ele>
        <time>2021-06-17T09:29:15Z</time>
      </trkpt>
      <trkpt lat="39.5850380" lon="2.6408520">
        <ele>31.8</ele>
        <time>2021-06-17T09:29:17Z</time>
      </trkpt>
      <trkpt lat="39.5851120" lon="2.6407870">
        <ele>32.0</ele>
        <time>2021-06-17T09:29:20Z</time>
      </trkpt>
      <trkpt lat="39.5851800" lon="2.6407400">
        <ele>32.1</ele>
        <time>2021-06-17T09:29:22Z</time>
      </trkpt>
      <trkpt lat="39.5852170" lon="2.6407170">
        <ele>32.2</ele>
        <time>2021-06-17T09:29:23Z</time>
      </trkpt>
      <trkpt lat="39.5853890" lon="2.6406750">
        <ele>32.2</ele>
        <time>2021-06-17T09:29:28Z</time>
      </trkpt>
      <trkpt lat="39.5856880" lon="2.6406600">
        <ele>32.5</ele>
        <time>2021-06-17T09:29:35Z</time>
      </trkpt>
      <trkpt lat="39.5857360" lon="2.6406660">
        <ele>32.6</ele>
        <time>2021-06-17T09:29:36Z</time>
      </trkpt>
      <trkpt lat="39.5858270" lon="2.6407030">
        <ele>32.8</ele>
        <time>2021-06-17T09:29:38Z</time>
      </trkpt>
      <trkpt lat="39.5858670" lon="2.6407330">
        <ele>32.9</ele>
        <time>2021-06-17T09:29:39Z</time>
      </trkpt>
      <trkpt lat="39.5859070" lon="2.6407700">
        <ele>33.0</ele>
        <time>2021-06-17T09:29:40Z</time>
      </trkpt>
      <trkpt lat="39.5860450" lon="2.6409410">
        <ele>33.6</ele>
        <time>2021-06-17T09:29:44Z</time>
      </trkpt>
      <trkpt lat="39.5863340" lon="2.6413040">
        <ele>35.1</ele>
        <time>2021-06-17T09:29:53Z</time>
      </trkpt>
      <trkpt lat="39.5865290" lon="2.6415650">
        <ele>36.2</ele>
        <time>2021-06-17T09:30:00Z</time>
      </trkpt>
      <trkpt lat="39.5865830" lon="2.6416390">
        <ele>36.5</ele>
        <time>2021-06-17T09:30:02Z</time>
      </trkpt>
      <trkpt lat="39.5867960" lon="2.6419450">
        <ele>37.8</ele>
        <time>2021-06-17T09:30:10Z</time>
      </trkpt>
      <trkpt lat="39.5869840" lon="2.6422890">
        <ele>38.5</ele>
        <time>2021-06-17T09:30:18Z</time>
      </trkpt>
      <trkpt lat="39.5870490" lon="2.6424500">
        <ele>38.7</ele>
        <time>2021-06-17T09:30:21Z</time>
      </trkpt>
      <trkpt lat="39.5871460" lon="2.6427520">
        <ele>39.0</ele>
        <time>2021-06-17T09:30:26Z</time>
      </trkpt>
      <trkpt lat="39.5872140" lon="2.6430330">
        <ele>39.1</ele>
        <time>2021-06-17T09:30:32Z</time>
      </trkpt>
      <trkpt lat="39.5872130" lon="2.6430350">
        <ele>39.1</ele>
        <time>2021-06-17T09:30:36Z</time>
      </trkpt>
      <trkpt lat="39.5872130" lon="2.6430350">
        <ele>39.1</ele>
        <time>2021-06-17T09:30:38Z</time>
      </trkpt>
      <trkpt lat="39.5872130" lon="2.6430350">
        <ele>39.1</ele>
        <time>2021-06-17T09:30:50Z</time>
      </trkpt>
      <trkpt lat="39.5872130" lon="2.6430350">
        <ele>39.1</ele>
        <time>2021-06-17T09:30:51Z</time>
      </trkpt>
      <trkpt lat="39.5872140" lon="2.6430370">
        <ele>39.1</ele>
        <time>2021-06-17T09:30:54Z</time>
      </trkpt>
      <trkpt lat="39.5872310" lon="2.6431270">
        <ele>39.1</ele>
        <time>2021-06-17T09:30:57Z</time>
      </trkpt>
      <trkpt lat="39.5872640" lon="2.6433730">
        <ele>39.1</ele>
        <time>2021-06-17T09:31:02Z</time>
      </trkpt>
      <trkpt lat="39.5872700" lon="2.6434320">
        <ele>39.1</ele>
        <time>2021-06-17T09:31:03Z</time>
      </trkpt>
      <trkpt lat="39.5872720" lon="2.6434780">
        <ele>39.1</ele>
        <time>2021-06-17T09:31:04Z</time>
      </trkpt>
      <trkpt lat="39.5872770" lon="2.6437360">
        <ele>39.2</ele>
        <time>2021-06-17T09:31:08Z</time>
      </trkpt>
      <trkpt lat="39.5872720" lon="2.6438510">
        <ele>39.2</ele>
        <time>2021-06-17T09:31:10Z</time>
      </trkpt>
      <trkpt lat="39.5872480" lon="2.6440490">
        <ele>39.2</ele>
        <time>2021-06-17T09:31:13Z</time>
      </trkpt>
      <trkpt lat="39.5872270" lon="2.6442100">
        <ele>39.2</ele>
        <time>2021-06-17T09:31:15Z</time>
      </trkpt>
      <trkpt lat="39.5871520" lon="2.6445590">
        <ele>39.2</ele>
        <time>2021-06-17T09:31:20Z</time>
      </trkpt>
      <trkpt lat="39.5871230" lon="2.6446840">
        <ele>39.2</ele>
        <time>2021-06-17T09:31:22Z</time>
      </trkpt>
      <trkpt lat="39.5870690" lon="2.6451120">
        <ele>39.1</ele>
        <time>2021-06-17T09:31:28Z</time>
      </trkpt>
      <trkpt lat="39.5870680" lon="2.6451770">
        <ele>39.1</ele>
        <time>2021-06-17T09:31:29Z</time>
      </trkpt>
      <trkpt lat="39.5870920" lon="2.6453390">
        <ele>39.1</ele>
        <time>2021-06-17T09:31:32Z</time>
      </trkpt>
      <trkpt lat="39.5871240" lon="2.6454420">
        <ele>39.1</ele>
        <time>2021-06-17T09:31:36Z</time>
      </trkpt>
      <trkpt lat="39.5871270" lon="2.6454560">
        <ele>39.1</ele>
        <time>2021-06-17T09:31:40Z</time>
      </trkpt>
      <trkpt lat="39.5871270" lon="2.6454560">
        <ele>39.1</ele>
        <time>2021-06-17T09:31:51Z</time>
      </trkpt>
      <trkpt lat="39.5871270" lon="2.6454560">
        <ele>39.1</ele>
        <time>2021-06-17T09:32:04Z</time>
      </trkpt>
      <trkpt lat="39.5871270" lon="2.6454560">
        <ele>39.1</ele>
        <time>2021-06-17T09:32:08Z</time>
      </trkpt>
      <trkpt lat="39.5871270" lon="2.6454560">
        <ele>39.1</ele>
        <time>2021-06-17T09:32:11Z</time>
      </trkpt>
      <trkpt lat="39.5871270" lon="2.6454560">
        <ele>39.1</ele>
        <time>2021-06-17T09:32:15Z</time>
      </trkpt>
      <trkpt lat="39.5871270" lon="2.6454560">
        <ele>39.1</ele>
        <time>2021-06-17T09:32:23Z</time>
      </trkpt>
      <trkpt lat="39.5871270" lon="2.6454560">
        <ele>39.1</ele>
        <time>2021-06-17T09:32:26Z</time>
      </trkpt>
      <trkpt lat="39.5871270" lon="2.6454580">
        <ele>39.1</ele>
        <time>2021-06-17T09:32:33Z</time>
      </trkpt>
      <trkpt lat="39.5871310" lon="2.6455610">
        <ele>39.1</ele>
        <time>2021-06-17T09:32:36Z</time>
      </trkpt>
      <trkpt lat="39.5871500" lon="2.6457080">
        <ele>39.2</ele>
        <time>2021-06-17T09:32:39Z</time>
      </trkpt>
      <trkpt lat="39.5871890" lon="2.6458200">
        <ele>39.2</ele>
        <time>2021-06-17T09:32:40Z</time>
      </trkpt>
      <trkpt lat="39.5872230" lon="2.6458560">
        <ele>39.3</ele>
        <time>2021-06-17T09:32:42Z</time>
      </trkpt>
      <trkpt lat="39.5873070" lon="2.6458860">
        <ele>39.4</ele>
        <time>2021-06-17T09:32:44Z</time>
      </trkpt>
      <trkpt lat="39.5874210" lon="2.6458840">
        <ele>39.4</ele>
        <time>2021-06-17T09:32:46Z</time>
      </trkpt>
      <trkpt lat="39.5875660" lon="2.6458720">
        <ele>39.6</ele>
        <time>2021-06-17T09:32:49Z</time>
      </trkpt>
      <trkpt lat="39.5876670" lon="2.6458570">
        <ele>39.7</ele>
        <time>2021-06-17T09:32:51Z</time>
      </trkpt>
      <trkpt lat="39.5877810" lon="2.6458660">
        <ele>39.8</ele>
        <time>2021-06-17T09:32:53Z</time>
      </trkpt>
      <trkpt lat="39.5878900" lon="2.6458610">
        <ele>40.0</ele>
        <time>2021-06-17T09:32:55Z</time>
      </trkpt>
      <trkpt lat="39.5880540" lon="2.6458600">
        <ele>40.3</ele>
        <time>2021-06-17T09:32:58Z</time>
      </trkpt>
      <trkpt lat="39.5882650" lon="2.6458420">
        <ele>40.6</ele>
        <time>2021-06-17T09:33:02Z</time>
      </trkpt>
      <trkpt lat="39.5883590" lon="2.6458360">
        <ele>40.8</ele>
        <time>2021-06-17T09:33:04Z</time>
      </trkpt>
      <trkpt lat="39.5884960" lon="2.6458360">
        <ele>41.0</ele>
        <time>2021-06-17T09:33:08Z</time>
      </trkpt>
      <trkpt lat="39.5885510" lon="2.6458210">
        <ele>41.0</ele>
        <time>2021-06-17T09:33:13Z</time>
      </trkpt>
      <trkpt lat="39.5885870" lon="2.6458200">
        <ele>41.1</ele>
        <time>2021-06-17T09:33:19Z</time>
      </trkpt>
      <trkpt lat="39.5886080" lon="2.6458220">
        <ele>41.1</ele>
        <time>2021-06-17T09:33:20Z</time>
      </trkpt>
      <trkpt lat="39.5887530" lon="2.6458180">
        <ele>41.3</ele>
        <time>2021-06-17T09:33:24Z</time>
      </trkpt>
      <trkpt lat="39.5890190" lon="2.6457980">
        <ele>41.6</ele>
        <time>2021-06-17T09:33:30Z</time>
      </trkpt>
      <trkpt lat="39.5894120" lon="2.6457760">
        <ele>42.1</ele>
        <time>2021-06-17T09:33:38Z</time>
      </trkpt>
      <trkpt lat="39.5898310" lon="2.6457100">
        <ele>42.8</ele>
        <time>2021-06-17T09:33:46Z</time>
      </trkpt>
      <trkpt lat="39.5900850" lon="2.6456390">
        <ele>43.3</ele>
        <time>2021-06-17T09:33:51Z</time>
      </trkpt>
      <trkpt lat="39.5901810" lon="2.6455970">
        <ele>43.4</ele>
        <time>2021-06-17T09:33:53Z</time>
      </trkpt>
      <trkpt lat="39.5905220" lon="2.6454310">
        <ele>44.0</ele>
        <time>2021-06-17T09:34:00Z</time>
      </trkpt>
      <trkpt lat="39.5905680" lon="2.6454000">
        <ele>44.1</ele>
        <time>2021-06-17T09:34:01Z</time>
      </trkpt>
      <trkpt lat="39.5907130" lon="2.6453170">
        <ele>44.4</ele>
        <time>2021-06-17T09:34:04Z</time>
      </trkpt>
      <trkpt lat="39.5909020" lon="2.6451980">
        <ele>44.8</ele>
        <time>2021-06-17T09:34:08Z</time>
      </trkpt>
      <trkpt lat="39.5909490" lon="2.6451640">
        <ele>44.9</ele>
        <time>2021-06-17T09:34:09Z</time>
      </trkpt>
      <trkpt lat="39.5913040" lon="2.6448910">
        <ele>45.9</ele>
        <time>2021-06-17T09:34:17Z</time>
      </trkpt>
      <trkpt lat="39.5917250" lon="2.6446230">
        <ele>46.8</ele>
        <time>2021-06-17T09:34:26Z</time>
      </trkpt>
      <trkpt lat="39.5919720" lon="2.6445060">
        <ele>47.4</ele>
        <time>2021-06-17T09:34:31Z</time>
      </trkpt>
      <trkpt lat="39.5921240" lon="2.6444440">
        <ele>47.9</ele>
        <time>2021-06-17T09:34:34Z</time>
      </trkpt>
      <trkpt lat="39.5923590" lon="2.6443810">
        <ele>48.8</ele>
        <time>2021-06-17T09:34:40Z</time>
      </trkpt>
      <trkpt lat="39.5923770" lon="2.6443680">
        <ele>48.9</ele>
        <time>2021-06-17T09:34:41Z</time>
      </trkpt>
      <trkpt lat="39.5923870" lon="2.6443530">
        <ele>49.0</ele>
        <time>2021-06-17T09:34:43Z</time>
      </trkpt>
      <trkpt lat="39.5923870" lon="2.6443530">
        <ele>49.0</ele>
        <time>2021-06-17T09:34:49Z</time>
      </trkpt>
      <trkpt lat="39.5923870" lon="2.6443530">
        <ele>49.0</ele>
        <time>2021-06-17T09:34:50Z</time>
      </trkpt>
      <trkpt lat="39.5923950" lon="2.6443570">
        <ele>49.0</ele>
        <time>2021-06-17T09:34:57Z</time>
      </trkpt>
      <trkpt lat="39.5923950" lon="2.6443560">
        <ele>49.0</ele>
        <time>2021-06-17T09:34:59Z</time>
      </trkpt>
      <trkpt lat="39.5923950" lon="2.6443560">
        <ele>49.0</ele>
        <time>2021-06-17T09:35:05Z</time>
      </trkpt>
      <trkpt lat="39.5923950" lon="2.6443560">
        <ele>49.0</ele>
        <time>2021-06-17T09:35:07Z</time>
      </trkpt>
      <trkpt lat="39.5923990" lon="2.6443450">
        <ele>49.0</ele>
        <time>2021-06-17T09:35:28Z</time>
      </trkpt>
      <trkpt lat="39.5923990" lon="2.6443450">
        <ele>49.0</ele>
        <time>2021-06-17T09:35:31Z</time>
      </trkpt>
      <trkpt lat="39.5923990" lon="2.6443450">
        <ele>49.0</ele>
        <time>2021-06-17T09:35:33Z</time>
      </trkpt>
      <trkpt lat="39.5924120" lon="2.6443390">
        <ele>49.1</ele>
        <time>2021-06-17T09:35:36Z</time>
      </trkpt>
      <trkpt lat="39.5924580" lon="2.6443250">
        <ele>49.2</ele>
        <time>2021-06-17T09:35:38Z</time>
      </trkpt>
      <trkpt lat="39.5926240" lon="2.6442460">
        <ele>49.6</ele>
        <time>2021-06-17T09:35:43Z</time>
      </trkpt>
      <trkpt lat="39.5928560" lon="2.6441080">
        <ele>50.2</ele>
        <time>2021-06-17T09:35:49Z</time>
      </trkpt>
      <trkpt lat="39.5928970" lon="2.6440800">
        <ele>50.3</ele>
        <time>2021-06-17T09:35:50Z</time>
      </trkpt>
      <trkpt lat="39.5929390" lon="2.6440590">
        <ele>50.4</ele>
        <time>2021-06-17T09:35:51Z</time>
      </trkpt>
      <trkpt lat="39.5930220" lon="2.6440040">
        <ele>50.6</ele>
        <time>2021-06-17T09:35:53Z</time>
      </trkpt>
      <trkpt lat="39.5930610" lon="2.6439680">
        <ele>50.7</ele>
        <time>2021-06-17T09:35:54Z</time>
      </trkpt>
      <trkpt lat="39.5931050" lon="2.6439280">
        <ele>50.8</ele>
        <time>2021-06-17T09:35:55Z</time>
      </trkpt>
      <trkpt lat="39.5932900" lon="2.6438060">
        <ele>51.2</ele>
        <time>2021-06-17T09:35:59Z</time>
      </trkpt>
      <trkpt lat="39.5933380" lon="2.6437840">
        <ele>51.3</ele>
        <time>2021-06-17T09:36:00Z</time>
      </trkpt>
      <trkpt lat="39.5934390" lon="2.6437240">
        <ele>51.5</ele>
        <time>2021-06-17T09:36:02Z</time>
      </trkpt>
      <trkpt lat="39.5935890" lon="2.6436300">
        <ele>51.7</ele>
        <time>2021-06-17T09:36:05Z</time>
      </trkpt>
      <trkpt lat="39.5937340" lon="2.6435360">
        <ele>51.9</ele>
        <time>2021-06-17T09:36:08Z</time>
      </trkpt>
      <trkpt lat="39.5939380" lon="2.6434230">
        <ele>52.1</ele>
        <time>2021-06-17T09:36:12Z</time>
      </trkpt>
      <trkpt lat="39.5942400" lon="2.6432470">
        <ele>52.5</ele>
        <time>2021-06-17T09:36:18Z</time>
      </trkpt>
      <trkpt lat="39.5947440" lon="2.6429530">
        <ele>53.2</ele>
        <time>2021-06-17T09:36:28Z</time>
      </trkpt>
      <trkpt lat="39.5949310" lon="2.6428210">
        <ele>53.4</ele>
        <time>2021-06-17T09:36:32Z</time>
      </trkpt>
      <trkpt lat="39.5950220" lon="2.6427380">
        <ele>53.6</ele>
        <time>2021-06-17T09:36:34Z</time>
      </trkpt>
      <trkpt lat="39.5953170" lon="2.6425160">
        <ele>54.0</ele>
        <time>2021-06-17T09:36:40Z</time>
      </trkpt>
      <trkpt lat="39.5956190" lon="2.6422930">
        <ele>54.4</ele>
        <time>2021-06-17T09:36:46Z</time>
      </trkpt>
      <trkpt lat="39.5957200" lon="2.6422050">
        <ele>54.5</ele>
        <time>2021-06-17T09:36:48Z</time>
      </trkpt>
      <trkpt lat="39.5961840" lon="2.6417270">
        <ele>55.0</ele>
        <time>2021-06-17T09:36:58Z</time>
      </trkpt>
      <trkpt lat="39.5964690" lon="2.6414590">
        <ele>55.2</ele>
        <time>2021-06-17T09:37:04Z</time>
      </trkpt>
      <trkpt lat="39.5965640" lon="2.6413770">
        <ele>55.3</ele>
        <time>2021-06-17T09:37:06Z</time>
      </trkpt>
      <trkpt lat="39.5968760" lon="2.6410820">
        <ele>55.6</ele>
        <time>2021-06-17T09:37:13Z</time>
      </trkpt>
      <trkpt lat="39.5969970" lon="2.6409680">
        <ele>55.7</ele>
        <time>2021-06-17T09:37:16Z</time>
      </trkpt>
      <trkpt lat="39.5970730" lon="2.6409030">
        <ele>55.7</ele>
        <time>2021-06-17T09:37:18Z</time>
      </trkpt>
      <trkpt lat="39.5971090" lon="2.6408740">
        <ele>55.7</ele>
        <time>2021-06-17T09:37:19Z</time>
      </trkpt>
      <trkpt lat="39.5972980" lon="2.6406980">
        <ele>56.0</ele>
        <time>2021-06-17T09:37:24Z</time>
      </trkpt>
      <trkpt lat="39.5973760" lon="2.6406230">
        <ele>56.1</ele>
        <time>2021-06-17T09:37:26Z</time>
      </trkpt>
      <trkpt lat="39.5975800" lon="2.6404030">
        <ele>56.3</ele>
        <time>2021-06-17T09:37:32Z</time>
      </trkpt>
      <trkpt lat="39.5976440" lon="2.6403380">
        <ele>56.4</ele>
        <time>2021-06-17T09:37:34Z</time>
      </trkpt>
      <trkpt lat="39.5978200" lon="2.6401510">
        <ele>56.7</ele>
        <time>2021-06-17T09:37:40Z</time>
      </trkpt>
      <trkpt lat="39.5978480" lon="2.6401240">
        <ele>56.8</ele>
        <time>2021-06-17T09:37:41Z</time>
      </trkpt>
      <trkpt lat="39.5979720" lon="2.6400470">
        <ele>56.8</ele>
        <time>2021-06-17T09:37:46Z</time>
      </trkpt>
      <trkpt lat="39.5980420" lon="2.6400670">
        <ele>56.9</ele>
        <time>2021-06-17T09:37:48Z</time>
      </trkpt>
      <trkpt lat="39.5981720" lon="2.6400640">
        <ele>56.8</ele>
        <time>2021-06-17T09:37:51Z</time>
      </trkpt>
      <trkpt lat="39.5982640" lon="2.6400210">
        <ele>56.7</ele>
        <time>2021-06-17T09:37:53Z</time>
      </trkpt>
      <trkpt lat="39.5983350" lon="2.6399420">
        <ele>56.7</ele>
        <time>2021-06-17T09:37:55Z</time>
      </trkpt>
      <trkpt lat="39.5983790" lon="2.6398300">
        <ele>56.8</ele>
        <time>2021-06-17T09:37:57Z</time>
      </trkpt>
      <trkpt lat="39.5983990" lon="2.6397060">
        <ele>57.0</ele>
        <time>2021-06-17T09:37:59Z</time>
      </trkpt>
      <trkpt lat="39.5984170" lon="2.6395890">
        <ele>57.3</ele>
        <time>2021-06-17T09:38:01Z</time>
      </trkpt>
      <trkpt lat="39.5984320" lon="2.6395350">
        <ele>57.5</ele>
        <time>2021-06-17T09:38:02Z</time>
      </trkpt>
      <trkpt lat="39.5984500" lon="2.6394840">
        <ele>57.6</ele>
        <time>2021-06-17T09:38:03Z</time>
      </trkpt>
      <trkpt lat="39.5984720" lon="2.6394400">
        <ele>57.8</ele>
        <time>2021-06-17T09:38:04Z</time>
      </trkpt>
      <trkpt lat="39.5985620" lon="2.6393180">
        <ele>58.0</ele>
        <time>2021-06-17T09:38:07Z</time>
      </trkpt>
      <trkpt lat="39.5986660" lon="2.6392000">
        <ele>58.2</ele>
        <time>2021-06-17T09:38:10Z</time>
      </trkpt>
      <trkpt lat="39.5990080" lon="2.6388240">
        <ele>59.2</ele>
        <time>2021-06-17T09:38:19Z</time>
      </trkpt>
      <trkpt lat="39.5994230" lon="2.6384340">
        <ele>61.0</ele>
        <time>2021-06-17T09:38:30Z</time>
      </trkpt>
      <trkpt lat="39.5996080" lon="2.6382660">
        <ele>61.9</ele>
        <time>2021-06-17T09:38:35Z</time>
      </trkpt>
      <trkpt lat="39.5996950" lon="2.6381920">
        <ele>62.2</ele>
        <time>2021-06-17T09:38:37Z</time>
      </trkpt>
      <trkpt lat="39.5999000" lon="2.6380070">
        <ele>62.8</ele>
        <time>2021-06-17T09:38:42Z</time>
      </trkpt>
      <trkpt lat="39.6001510" lon="2.6377900">
        <ele>63.3</ele>
        <time>2021-06-17T09:38:48Z</time>
      </trkpt>
      <trkpt lat="39.6005520" lon="2.6374210">
        <ele>64.2</ele>
        <time>2021-06-17T09:38:57Z</time>
      </trkpt>
      <trkpt lat="39.6009590" lon="2.6370850">
        <ele>65.0</ele>
        <time>2021-06-17T09:39:06Z</time>
      </trkpt>
      <trkpt lat="39.6015010" lon="2.6367650">
        <ele>66.4</ele>
        <time>2021-06-17T09:39:17Z</time>
      </trkpt>
      <trkpt lat="39.6020050" lon="2.6365100">
        <ele>67.5</ele>
        <time>2021-06-17T09:39:27Z</time>
      </trkpt>
      <trkpt lat="39.6020540" lon="2.6364840">
        <ele>67.6</ele>
        <time>2021-06-17T09:39:28Z</time>
      </trkpt>
      <trkpt lat="39.6025570" lon="2.6362160">
        <ele>68.5</ele>
        <time>2021-06-17T09:39:38Z</time>
      </trkpt>
      <trkpt lat="39.6028160" lon="2.6360740">
        <ele>68.9</ele>
        <time>2021-06-17T09:39:43Z</time>
      </trkpt>
      <trkpt lat="39.6033560" lon="2.6357760">
        <ele>70.2</ele>
        <time>2021-06-17T09:39:53Z</time>
      </trkpt>
      <trkpt lat="39.6034110" lon="2.6357470">
        <ele>70.4</ele>
        <time>2021-06-17T09:39:54Z</time>
      </trkpt>
      <trkpt lat="39.6037490" lon="2.6355710">
        <ele>71.1</ele>
        <time>2021-06-17T09:40:01Z</time>
      </trkpt>
      <trkpt lat="39.6041750" lon="2.6353300">
        <ele>72.1</ele>
        <time>2021-06-17T09:40:10Z</time>
      </trkpt>
      <trkpt lat="39.6045200" lon="2.6351460">
        <ele>72.9</ele>
        <time>2021-06-17T09:40:17Z</time>
      </trkpt>
      <trkpt lat="39.6050220" lon="2.6348610">
        <ele>74.0</ele>
        <time>2021-06-17T09:40:27Z</time>
      </trkpt>
      <trkpt lat="39.6055050" lon="2.6346000">
        <ele>74.6</ele>
        <time>2021-06-17T09:40:37Z</time>
      </trkpt>
      <trkpt lat="39.6060140" lon="2.6343240">
        <ele>75.4</ele>
        <time>2021-06-17T09:40:46Z</time>
      </trkpt>
      <trkpt lat="39.6060780" lon="2.6342900">
        <ele>75.5</ele>
        <time>2021-06-17T09:40:48Z</time>
      </trkpt>
      <trkpt lat="39.6065520" lon="2.6340170">
        <ele>76.7</ele>
        <time>2021-06-17T09:40:58Z</time>
      </trkpt>
      <trkpt lat="39.6066670" lon="2.6339550">
        <ele>77.0</ele>
        <time>2021-06-17T09:41:03Z</time>
      </trkpt>
      <trkpt lat="39.6066870" lon="2.6339450">
        <ele>77.1</ele>
        <time>2021-06-17T09:41:05Z</time>
      </trkpt>
      <trkpt lat="39.6067430" lon="2.6339120">
        <ele>77.2</ele>
        <time>2021-06-17T09:41:08Z</time>
      </trkpt>
      <trkpt lat="39.6067650" lon="2.6338960">
        <ele>77.3</ele>
        <time>2021-06-17T09:41:09Z</time>
      </trkpt>
      <trkpt lat="39.6069420" lon="2.6338130">
        <ele>77.7</ele>
        <time>2021-06-17T09:41:14Z</time>
      </trkpt>
      <trkpt lat="39.6071090" lon="2.6337180">
        <ele>78.0</ele>
        <time>2021-06-17T09:41:18Z</time>
      </trkpt>
      <trkpt lat="39.6073380" lon="2.6335890">
        <ele>78.3</ele>
        <time>2021-06-17T09:41:23Z</time>
      </trkpt>
      <trkpt lat="39.6077330" lon="2.6333580">
        <ele>78.8</ele>
        <time>2021-06-17T09:41:31Z</time>
      </trkpt>
      <trkpt lat="39.6080960" lon="2.6331590">
        <ele>79.2</ele>
        <time>2021-06-17T09:41:38Z</time>
      </trkpt>
      <trkpt lat="39.6082050" lon="2.6331000">
        <ele>79.3</ele>
        <time>2021-06-17T09:41:40Z</time>
      </trkpt>
      <trkpt lat="39.6086550" lon="2.6328540">
        <ele>79.9</ele>
        <time>2021-06-17T09:41:48Z</time>
      </trkpt>
      <trkpt lat="39.6091660" lon="2.6325750">
        <ele>80.5</ele>
        <time>2021-06-17T09:41:57Z</time>
      </trkpt>
      <trkpt lat="39.6095490" lon="2.6323550">
        <ele>81.1</ele>
        <time>2021-06-17T09:42:04Z</time>
      </trkpt>
      <trkpt lat="39.6100670" lon="2.6320650">
        <ele>82.1</ele>
        <time>2021-06-17T09:42:13Z</time>
      </trkpt>
      <trkpt lat="39.6101880" lon="2.6319990">
        <ele>82.2</ele>
        <time>2021-06-17T09:42:15Z</time>
      </trkpt>
      <trkpt lat="39.6106470" lon="2.6317590">
        <ele>82.7</ele>
        <time>2021-06-17T09:42:23Z</time>
      </trkpt>
      <trkpt lat="39.6109430" lon="2.6316440">
        <ele>83.0</ele>
        <time>2021-06-17T09:42:27Z</time>
      </trkpt>
      <trkpt lat="39.6110660" lon="2.6316190">
        <ele>83.0</ele>
        <time>2021-06-17T09:42:30Z</time>
      </trkpt>
      <trkpt lat="39.6116350" lon="2.6315250">
        <ele>83.0</ele>
        <time>2021-06-17T09:42:39Z</time>
      </trkpt>
      <trkpt lat="39.6117040" lon="2.6315130">
        <ele>83.0</ele>
        <time>2021-06-17T09:42:40Z</time>
      </trkpt>
      <trkpt lat="39.6122880" lon="2.6314220">
        <ele>83.1</ele>
        <time>2021-06-17T09:42:48Z</time>
      </trkpt>
      <trkpt lat="39.6123450" lon="2.6314180">
        <ele>83.2</ele>
        <time>2021-06-17T09:42:49Z</time>
      </trkpt>
      <trkpt lat="39.6128300" lon="2.6312880">
        <ele>83.8</ele>
        <time>2021-06-17T09:42:56Z</time>
      </trkpt>
      <trkpt lat="39.6132870" lon="2.6310770">
        <ele>85.0</ele>
        <time>2021-06-17T09:43:04Z</time>
      </trkpt>
      <trkpt lat="39.6137010" lon="2.6308740">
        <ele>86.1</ele>
        <time>2021-06-17T09:43:12Z</time>
      </trkpt>
      <trkpt lat="39.6141380" lon="2.6306790">
        <ele>86.6</ele>
        <time>2021-06-17T09:43:20Z</time>
      </trkpt>
      <trkpt lat="39.6145810" lon="2.6304650">
        <ele>87.1</ele>
        <time>2021-06-17T09:43:28Z</time>
      </trkpt>
      <trkpt lat="39.6146960" lon="2.6304130">
        <ele>87.2</ele>
        <time>2021-06-17T09:43:30Z</time>
      </trkpt>
      <trkpt lat="39.6151410" lon="2.6302220">
        <ele>87.7</ele>
        <time>2021-06-17T09:43:38Z</time>
      </trkpt>
      <trkpt lat="39.6151980" lon="2.6301920">
        <ele>87.8</ele>
        <time>2021-06-17T09:43:39Z</time>
      </trkpt>
      <trkpt lat="39.6153820" lon="2.6301170">
        <ele>87.9</ele>
        <time>2021-06-17T09:43:42Z</time>
      </trkpt>
      <trkpt lat="39.6155460" lon="2.6300120">
        <ele>88.0</ele>
        <time>2021-06-17T09:43:45Z</time>
      </trkpt>
      <trkpt lat="39.6160380" lon="2.6296600">
        <ele>88.3</ele>
        <time>2021-06-17T09:43:54Z</time>
      </trkpt>
      <trkpt lat="39.6161590" lon="2.6295820">
        <ele>88.4</ele>
        <time>2021-06-17T09:43:56Z</time>
      </trkpt>
      <trkpt lat="39.6165930" lon="2.6292850">
        <ele>89.0</ele>
        <time>2021-06-17T09:44:04Z</time>
      </trkpt>
      <trkpt lat="39.6170380" lon="2.6289330">
        <ele>89.6</ele>
        <time>2021-06-17T09:44:13Z</time>
      </trkpt>
      <trkpt lat="39.6173870" lon="2.6286260">
        <ele>90.2</ele>
        <time>2021-06-17T09:44:20Z</time>
      </trkpt>
      <trkpt lat="39.6176600" lon="2.6283800">
        <ele>90.7</ele>
        <time>2021-06-17T09:44:27Z</time>
      </trkpt>
      <trkpt lat="39.6177170" lon="2.6283280">
        <ele>90.8</ele>
        <time>2021-06-17T09:44:30Z</time>
      </trkpt>
      <trkpt lat="39.6177280" lon="2.6283140">
        <ele>90.8</ele>
        <time>2021-06-17T09:44:31Z</time>
      </trkpt>
      <trkpt lat="39.6177480" lon="2.6282850">
        <ele>90.7</ele>
        <time>2021-06-17T09:44:34Z</time>
      </trkpt>
      <trkpt lat="39.6177440" lon="2.6282570">
        <ele>90.7</ele>
        <time>2021-06-17T09:44:36Z</time>
      </trkpt>
      <trkpt lat="39.6176320" lon="2.6281340">
        <ele>90.5</ele>
        <time>2021-06-17T09:44:41Z</time>
      </trkpt>
      <trkpt lat="39.6175110" lon="2.6279730">
        <ele>90.2</ele>
        <time>2021-06-17T09:44:45Z</time>
      </trkpt>
      <trkpt lat="39.6174760" lon="2.6279290">
        <ele>90.2</ele>
        <time>2021-06-17T09:44:46Z</time>
      </trkpt>
      <trkpt lat="39.6174050" lon="2.6278430">
        <ele>90.2</ele>
        <time>2021-06-17T09:44:48Z</time>
      </trkpt>
      <trkpt lat="39.6173300" lon="2.6277500">
        <ele>90.2</ele>
        <time>2021-06-17T09:44:50Z</time>
      </trkpt>
      <trkpt lat="39.6171530" lon="2.6275410">
        <ele>90.3</ele>
        <time>2021-06-17T09:44:55Z</time>
      </trkpt>
      <trkpt lat="39.6170260" lon="2.6273780">
        <ele>90.9</ele>
        <time>2021-06-17T09:44:59Z</time>
      </trkpt>
      <trkpt lat="39.6170210" lon="2.6273380">
        <ele>90.9</ele>
        <time>2021-06-17T09:45:00Z</time>
      </trkpt>
      <trkpt lat="39.6170410" lon="2.6272730">
        <ele>91.0</ele>
        <time>2021-06-17T09:45:02Z</time>
      </trkpt>
      <trkpt lat="39.6170910" lon="2.6271940">
        <ele>91.1</ele>
        <time>2021-06-17T09:45:06Z</time>
      </trkpt>
      <trkpt lat="39.6171000" lon="2.6271860">
        <ele>91.1</ele>
        <time>2021-06-17T09:45:07Z</time>
      </trkpt>
      <trkpt lat="39.6171530" lon="2.6270720">
        <ele>91.2</ele>
        <time>2021-06-17T09:45:12Z</time>
      </trkpt>
      <trkpt lat="39.6173000" lon="2.6268720">
        <ele>91.3</ele>
        <time>2021-06-17T09:45:17Z</time>
      </trkpt>
      <trkpt lat="39.6173260" lon="2.6268380">
        <ele>91.3</ele>
        <time>2021-06-17T09:45:18Z</time>
      </trkpt>
      <trkpt lat="39.6175240" lon="2.6265570">
        <ele>91.5</ele>
        <time>2021-06-17T09:45:24Z</time>
      </trkpt>
      <trkpt lat="39.6178020" lon="2.6262310">
        <ele>91.9</ele>
        <time>2021-06-17T09:45:31Z</time>
      </trkpt>
      <trkpt lat="39.6178440" lon="2.6261910">
        <ele>91.9</ele>
        <time>2021-06-17T09:45:32Z</time>
      </trkpt>
      <trkpt lat="39.6179750" lon="2.6260580">
        <ele>92.0</ele>
        <time>2021-06-17T09:45:35Z</time>
      </trkpt>
      <trkpt lat="39.6181680" lon="2.6258800">
        <ele>92.1</ele>
        <time>2021-06-17T09:45:39Z</time>
      </trkpt>
      <trkpt lat="39.6184990" lon="2.6255340">
        <ele>92.2</ele>
        <time>2021-06-17T09:45:46Z</time>
      </trkpt>
      <trkpt lat="39.6185390" lon="2.6254690">
        <ele>92.1</ele>
        <time>2021-06-17T09:45:47Z</time>
      </trkpt>
      <trkpt lat="39.6185680" lon="2.6253970">
        <ele>92.1</ele>
        <time>2021-06-17T09:45:48Z</time>
      </trkpt>
      <trkpt lat="39.6186240" lon="2.6251650">
        <ele>92.2</ele>
        <time>2021-06-17T09:45:51Z</time>
      </trkpt>
      <trkpt lat="39.6187200" lon="2.6246910">
        <ele>92.5</ele>
        <time>2021-06-17T09:45:56Z</time>
      </trkpt>
      <trkpt lat="39.6187420" lon="2.6245970">
        <ele>92.5</ele>
        <time>2021-06-17T09:45:58Z</time>
      </trkpt>
      <trkpt lat="39.6188830" lon="2.6239860">
        <ele>91.6</ele>
        <time>2021-06-17T09:46:06Z</time>
      </trkpt>
      <trkpt lat="39.6190040" lon="2.6236520">
        <ele>90.5</ele>
        <time>2021-06-17T09:46:10Z</time>
      </trkpt>
      <trkpt lat="39.6190540" lon="2.6235530">
        <ele>90.1</ele>
        <time>2021-06-17T09:46:11Z</time>
      </trkpt>
      <trkpt lat="39.6192410" lon="2.6232340">
        <ele>88.5</ele>
        <time>2021-06-17T09:46:15Z</time>
      </trkpt>
      <trkpt lat="39.6192880" lon="2.6231710">
        <ele>88.1</ele>
        <time>2021-06-17T09:46:16Z</time>
      </trkpt>
      <trkpt lat="39.6193580" lon="2.6230500">
        <ele>87.5</ele>
        <time>2021-06-17T09:46:18Z</time>
      </trkpt>
      <trkpt lat="39.6193760" lon="2.6229590">
        <ele>87.1</ele>
        <time>2021-06-17T09:46:19Z</time>
      </trkpt>
      <trkpt lat="39.6193720" lon="2.6228990">
        <ele>86.8</ele>
        <time>2021-06-17T09:46:20Z</time>
      </trkpt>
      <trkpt lat="39.6193120" lon="2.6227540">
        <ele>85.9</ele>
        <time>2021-06-17T09:46:22Z</time>
      </trkpt>
      <trkpt lat="39.6191600" lon="2.6225410">
        <ele>83.9</ele>
        <time>2021-06-17T09:46:25Z</time>
      </trkpt>
      <trkpt lat="39.6191260" lon="2.6224620">
        <ele>83.3</ele>
        <time>2021-06-17T09:46:26Z</time>
      </trkpt>
      <trkpt lat="39.6191170" lon="2.6223960">
        <ele>82.8</ele>
        <time>2021-06-17T09:46:27Z</time>
      </trkpt>
      <trkpt lat="39.6191280" lon="2.6222850">
        <ele>82.1</ele>
        <time>2021-06-17T09:46:28Z</time>
      </trkpt>
      <trkpt lat="39.6191640" lon="2.6221920">
        <ele>81.5</ele>
        <time>2021-06-17T09:46:29Z</time>
      </trkpt>
      <trkpt lat="39.6192080" lon="2.6221040">
        <ele>81.0</ele>
        <time>2021-06-17T09:46:30Z</time>
      </trkpt>
      <trkpt lat="39.6192490" lon="2.6220320">
        <ele>80.6</ele>
        <time>2021-06-17T09:46:31Z</time>
      </trkpt>
      <trkpt lat="39.6193020" lon="2.6219360">
        <ele>80.0</ele>
        <time>2021-06-17T09:46:32Z</time>
      </trkpt>
      <trkpt lat="39.6194110" lon="2.6217380">
        <ele>79.1</ele>
        <time>2021-06-17T09:46:34Z</time>
      </trkpt>
      <trkpt lat="39.6195170" lon="2.6215300">
        <ele>78.4</ele>
        <time>2021-06-17T09:46:36Z</time>
      </trkpt>
      <trkpt lat="39.6195800" lon="2.6212890">
        <ele>77.9</ele>
        <time>2021-06-17T09:46:38Z</time>
      </trkpt>
      <trkpt lat="39.6195940" lon="2.6211630">
        <ele>77.8</ele>
        <time>2021-06-17T09:46:39Z</time>
      </trkpt>
      <trkpt lat="39.6196280" lon="2.6204660">
        <ele>77.7</ele>
        <time>2021-06-17T09:46:45Z</time>
      </trkpt>
      <trkpt lat="39.6196560" lon="2.6198330">
        <ele>78.1</ele>
        <time>2021-06-17T09:46:51Z</time>
      </trkpt>
      <trkpt lat="39.6196930" lon="2.6190550">
        <ele>78.7</ele>
        <time>2021-06-17T09:46:59Z</time>
      </trkpt>
      <trkpt lat="39.6197110" lon="2.6186080">
        <ele>79.1</ele>
        <time>2021-06-17T09:47:04Z</time>
      </trkpt>
      <trkpt lat="39.6197170" lon="2.6184550">
        <ele>79.2</ele>
        <time>2021-06-17T09:47:06Z</time>
      </trkpt>
      <trkpt lat="39.6197190" lon="2.6183660">
        <ele>79.3</ele>
        <time>2021-06-17T09:47:07Z</time>
      </trkpt>
      <trkpt lat="39.6197320" lon="2.6179360">
        <ele>79.4</ele>
        <time>2021-06-17T09:47:12Z</time>
      </trkpt>
      <trkpt lat="39.6197430" lon="2.6177650">
        <ele>79.6</ele>
        <time>2021-06-17T09:47:14Z</time>
      </trkpt>
      <trkpt lat="39.6197560" lon="2.6175970">
        <ele>79.7</ele>
        <time>2021-06-17T09:47:16Z</time>
      </trkpt>
      <trkpt lat="39.6197770" lon="2.6173460">
        <ele>79.9</ele>
        <time>2021-06-17T09:47:19Z</time>
      </trkpt>
      <trkpt lat="39.6197910" lon="2.6171770">
        <ele>80.0</ele>
        <time>2021-06-17T09:47:21Z</time>
      </trkpt>
      <trkpt lat="39.6197980" lon="2.6170960">
        <ele>80.1</ele>
        <time>2021-06-17T09:47:22Z</time>
      </trkpt>
      <trkpt lat="39.6198170" lon="2.6168460">
        <ele>80.1</ele>
        <time>2021-06-17T09:47:24Z</time>
      </trkpt>
      <trkpt lat="39.6198670" lon="2.6165180">
        <ele>80.2</ele>
        <time>2021-06-17T09:47:29Z</time>
      </trkpt>
      <trkpt lat="39.6199370" lon="2.6162110">
        <ele>80.4</ele>
        <time>2021-06-17T09:47:33Z</time>
      </trkpt>
      <trkpt lat="39.6199950" lon="2.6160740">
        <ele>80.5</ele>
        <time>2021-06-17T09:47:35Z</time>
      </trkpt>
      <trkpt lat="39.6200860" lon="2.6158710">
        <ele>80.7</ele>
        <time>2021-06-17T09:47:38Z</time>
      </trkpt>
      <trkpt lat="39.6203590" lon="2.6153430">
        <ele>81.3</ele>
        <time>2021-06-17T09:47:46Z</time>
      </trkpt>
      <trkpt lat="39.6207580" lon="2.6147770">
        <ele>82.6</ele>
        <time>2021-06-17T09:47:56Z</time>
      </trkpt>
      <trkpt lat="39.6208760" lon="2.6146320">
        <ele>83.0</ele>
        <time>2021-06-17T09:47:59Z</time>
      </trkpt>
      <trkpt lat="39.6209600" lon="2.6145460">
        <ele>83.2</ele>
        <time>2021-06-17T09:48:01Z</time>
      </trkpt>
      <trkpt lat="39.6210600" lon="2.6143820">
        <ele>83.4</ele>
        <time>2021-06-17T09:48:04Z</time>
      </trkpt>
      <trkpt lat="39.6211150" lon="2.6142550">
        <ele>83.6</ele>
        <time>2021-06-17T09:48:06Z</time>
      </trkpt>
      <trkpt lat="39.6211370" lon="2.6141890">
        <ele>83.7</ele>
        <time>2021-06-17T09:48:07Z</time>
      </trkpt>
      <trkpt lat="39.6212330" lon="2.6136740">
        <ele>84.3</ele>
        <time>2021-06-17T09:48:14Z</time>
      </trkpt>
      <trkpt lat="39.6213750" lon="2.6129400">
        <ele>84.9</ele>
        <time>2021-06-17T09:48:24Z</time>
      </trkpt>
      <trkpt lat="39.6214850" lon="2.6124980">
        <ele>85.2</ele>
        <time>2021-06-17T09:48:30Z</time>
      </trkpt>
      <trkpt lat="39.6214960" lon="2.6124200">
        <ele>85.3</ele>
        <time>2021-06-17T09:48:31Z</time>
      </trkpt>
      <trkpt lat="39.6215050" lon="2.6122630">
        <ele>85.3</ele>
        <time>2021-06-17T09:48:33Z</time>
      </trkpt>
      <trkpt lat="39.6214840" lon="2.6120190">
        <ele>85.2</ele>
        <time>2021-06-17T09:48:36Z</time>
      </trkpt>
      <trkpt lat="39.6213470" lon="2.6115270">
        <ele>85.0</ele>
        <time>2021-06-17T09:48:42Z</time>
      </trkpt>
      <trkpt lat="39.6211400" lon="2.6108410">
        <ele>84.9</ele>
        <time>2021-06-17T09:48:51Z</time>
      </trkpt>
      <trkpt lat="39.6210160" lon="2.6103970">
        <ele>84.9</ele>
        <time>2021-06-17T09:48:57Z</time>
      </trkpt>
      <trkpt lat="39.6209980" lon="2.6103250">
        <ele>85.0</ele>
        <time>2021-06-17T09:48:58Z</time>
      </trkpt>
      <trkpt lat="39.6209060" lon="2.6098910">
        <ele>85.1</ele>
        <time>2021-06-17T09:49:04Z</time>
      </trkpt>
      <trkpt lat="39.6208670" lon="2.6096560">
        <ele>85.2</ele>
        <time>2021-06-17T09:49:07Z</time>
      </trkpt>
      <trkpt lat="39.6208470" lon="2.6094130">
        <ele>85.2</ele>
        <time>2021-06-17T09:49:10Z</time>
      </trkpt>
      <trkpt lat="39.6208390" lon="2.6093290">
        <ele>85.2</ele>
        <time>2021-06-17T09:49:11Z</time>
      </trkpt>
      <trkpt lat="39.6208040" lon="2.6086470">
        <ele>85.2</ele>
        <time>2021-06-17T09:49:19Z</time>
      </trkpt>
      <trkpt lat="39.6207740" lon="2.6079750">
        <ele>85.3</ele>
        <time>2021-06-17T09:49:27Z</time>
      </trkpt>
      <trkpt lat="39.6207580" lon="2.6077260">
        <ele>85.2</ele>
        <time>2021-06-17T09:49:30Z</time>
      </trkpt>
      <trkpt lat="39.6207460" lon="2.6076420">
        <ele>85.2</ele>
        <time>2021-06-17T09:49:31Z</time>
      </trkpt>
      <trkpt lat="39.6206940" lon="2.6075040">
        <ele>85.2</ele>
        <time>2021-06-17T09:49:33Z</time>
      </trkpt>
      <trkpt lat="39.6205520" lon="2.6073320">
        <ele>85.0</ele>
        <time>2021-06-17T09:49:36Z</time>
      </trkpt>
      <trkpt lat="39.6205090" lon="2.6072620">
        <ele>85.0</ele>
        <time>2021-06-17T09:49:37Z</time>
      </trkpt>
      <trkpt lat="39.6204750" lon="2.6071780">
        <ele>85.0</ele>
        <time>2021-06-17T09:49:38Z</time>
      </trkpt>
      <trkpt lat="39.6204520" lon="2.6069930">
        <ele>85.1</ele>
        <time>2021-06-17T09:49:40Z</time>
      </trkpt>
      <trkpt lat="39.6204770" lon="2.6066720">
        <ele>85.5</ele>
        <time>2021-06-17T09:49:44Z</time>
      </trkpt>
      <trkpt lat="39.6204950" lon="2.6064560">
        <ele>85.9</ele>
        <time>2021-06-17T09:49:47Z</time>
      </trkpt>
      <trkpt lat="39.6205020" lon="2.6063120">
        <ele>86.2</ele>
        <time>2021-06-17T09:49:49Z</time>
      </trkpt>
      <trkpt lat="39.6205090" lon="2.6062420">
        <ele>86.4</ele>
        <time>2021-06-17T09:49:50Z</time>
      </trkpt>
      <trkpt lat="39.6205510" lon="2.6057720">
        <ele>87.6</ele>
        <time>2021-06-17T09:49:57Z</time>
      </trkpt>
      <trkpt lat="39.6205740" lon="2.6055190">
        <ele>88.0</ele>
        <time>2021-06-17T09:50:01Z</time>
      </trkpt>
      <trkpt lat="39.6205880" lon="2.6052670">
        <ele>88.5</ele>
        <time>2021-06-17T09:50:05Z</time>
      </trkpt>
      <trkpt lat="39.6205840" lon="2.6051430">
        <ele>88.9</ele>
        <time>2021-06-17T09:50:07Z</time>
      </trkpt>
      <trkpt lat="39.6206180" lon="2.6048330">
        <ele>89.4</ele>
        <time>2021-06-17T09:50:12Z</time>
      </trkpt>
      <trkpt lat="39.6206490" lon="2.6045510">
        <ele>89.6</ele>
        <time>2021-06-17T09:50:16Z</time>
      </trkpt>
      <trkpt lat="39.6206600" lon="2.6043270">
        <ele>89.7</ele>
        <time>2021-06-17T09:50:19Z</time>
      </trkpt>
      <trkpt lat="39.6206860" lon="2.6039360">
        <ele>89.9</ele>
        <time>2021-06-17T09:50:24Z</time>
      </trkpt>
      <trkpt lat="39.6206880" lon="2.6037060">
        <ele>90.0</ele>
        <time>2021-06-17T09:50:27Z</time>
      </trkpt>
      <trkpt lat="39.6206440" lon="2.6030970">
        <ele>90.5</ele>
        <time>2021-06-17T09:50:35Z</time>
      </trkpt>
      <trkpt lat="39.6205480" lon="2.6023450">
        <ele>91.8</ele>
        <time>2021-06-17T09:50:45Z</time>
      </trkpt>
      <trkpt lat="39.6205300" lon="2.6022000">
        <ele>92.1</ele>
        <time>2021-06-17T09:50:47Z</time>
      </trkpt>
      <trkpt lat="39.6204510" lon="2.6016220">
        <ele>93.4</ele>
        <time>2021-06-17T09:50:55Z</time>
      </trkpt>
      <trkpt lat="39.6204330" lon="2.6015570">
        <ele>93.6</ele>
        <time>2021-06-17T09:50:56Z</time>
      </trkpt>
      <trkpt lat="39.6203630" lon="2.6013660">
        <ele>93.9</ele>
        <time>2021-06-17T09:50:59Z</time>
      </trkpt>
      <trkpt lat="39.6203000" lon="2.6012490">
        <ele>94.2</ele>
        <time>2021-06-17T09:51:01Z</time>
      </trkpt>
      <trkpt lat="39.6200710" lon="2.6009780">
        <ele>95.1</ele>
        <time>2021-06-17T09:51:07Z</time>
      </trkpt>
      <trkpt lat="39.6199170" lon="2.6008540">
        <ele>95.8</ele>
        <time>2021-06-17T09:51:11Z</time>
      </trkpt>
      <trkpt lat="39.6198740" lon="2.6008390">
        <ele>96.0</ele>
        <time>2021-06-17T09:51:12Z</time>
      </trkpt>
      <trkpt lat="39.6198290" lon="2.6008240">
        <ele>96.3</ele>
        <time>2021-06-17T09:51:13Z</time>
      </trkpt>
      <trkpt lat="39.6196160" lon="2.6007770">
        <ele>97.4</ele>
        <time>2021-06-17T09:51:18Z</time>
      </trkpt>
      <trkpt lat="39.6192950" lon="2.6006410">
        <ele>99.0</ele>
        <time>2021-06-17T09:51:26Z</time>
      </trkpt>
      <trkpt lat="39.6192170" lon="2.6005810">
        <ele>99.3</ele>
        <time>2021-06-17T09:51:28Z</time>
      </trkpt>
      <trkpt lat="39.6191490" lon="2.6005050">
        <ele>99.4</ele>
        <time>2021-06-17T09:51:30Z</time>
      </trkpt>
      <trkpt lat="39.6191170" lon="2.6004530">
        <ele>99.4</ele>
        <time>2021-06-17T09:51:31Z</time>
      </trkpt>
      <trkpt lat="39.6190970" lon="2.6004130">
        <ele>99.4</ele>
        <time>2021-06-17T09:51:32Z</time>
      </trkpt>
      <trkpt lat="39.6189920" lon="2.6001660">
        <ele>98.9</ele>
        <time>2021-06-17T09:51:36Z</time>
      </trkpt>
      <trkpt lat="39.6188260" lon="2.5996780">
        <ele>97.9</ele>
        <time>2021-06-17T09:51:42Z</time>
      </trkpt>
      <trkpt lat="39.6187050" lon="2.5991140">
        <ele>97.1</ele>
        <time>2021-06-17T09:51:48Z</time>
      </trkpt>
      <trkpt lat="39.6185800" lon="2.5984000">
        <ele>97.4</ele>
        <time>2021-06-17T09:51:56Z</time>
      </trkpt>
      <trkpt lat="39.6185690" lon="2.5983170">
        <ele>97.5</ele>
        <time>2021-06-17T09:51:57Z</time>
      </trkpt>
      <trkpt lat="39.6184680" lon="2.5977560">
        <ele>98.2</ele>
        <time>2021-06-17T09:52:04Z</time>
      </trkpt>
      <trkpt lat="39.6184410" lon="2.5975970">
        <ele>98.4</ele>
        <time>2021-06-17T09:52:06Z</time>
      </trkpt>
      <trkpt lat="39.6183290" lon="2.5968830">
        <ele>99.4</ele>
        <time>2021-06-17T09:52:15Z</time>
      </trkpt>
      <trkpt lat="39.6183160" lon="2.5968110">
        <ele>99.5</ele>
        <time>2021-06-17T09:52:16Z</time>
      </trkpt>
      <trkpt lat="39.6182010" lon="2.5961240">
        <ele>100.3</ele>
        <time>2021-06-17T09:52:25Z</time>
      </trkpt>
      <trkpt lat="39.6181220" lon="2.5955260">
        <ele>101.1</ele>
        <time>2021-06-17T09:52:33Z</time>
      </trkpt>
      <trkpt lat="39.6180870" lon="2.5947950">
        <ele>102.0</ele>
        <time>2021-06-17T09:52:43Z</time>
      </trkpt>
      <trkpt lat="39.6180520" lon="2.5940910">
        <ele>103.0</ele>
        <time>2021-06-17T09:52:53Z</time>
      </trkpt>
      <trkpt lat="39.6179450" lon="2.5935080">
        <ele>103.7</ele>
        <time>2021-06-17T09:53:01Z</time>
      </trkpt>
      <trkpt lat="39.6178530" lon="2.5932430">
        <ele>104.1</ele>
        <time>2021-06-17T09:53:04Z</time>
      </trkpt>
      <trkpt lat="39.6178210" lon="2.5931860">
        <ele>104.2</ele>
        <time>2021-06-17T09:53:06Z</time>
      </trkpt>
      <trkpt lat="39.6177830" lon="2.5931300">
        <ele>104.3</ele>
        <time>2021-06-17T09:53:07Z</time>
      </trkpt>
      <trkpt lat="39.6177400" lon="2.5930810">
        <ele>104.4</ele>
        <time>2021-06-17T09:53:08Z</time>
      </trkpt>
      <trkpt lat="39.6176430" lon="2.5930040">
        <ele>104.6</ele>
        <time>2021-06-17T09:53:10Z</time>
      </trkpt>
      <trkpt lat="39.6175910" lon="2.5929750">
        <ele>104.7</ele>
        <time>2021-06-17T09:53:11Z</time>
      </trkpt>
      <trkpt lat="39.6174820" lon="2.5929290">
        <ele>104.9</ele>
        <time>2021-06-17T09:53:13Z</time>
      </trkpt>
      <trkpt lat="39.6173100" lon="2.5929030">
        <ele>105.1</ele>
        <time>2021-06-17T09:53:16Z</time>
      </trkpt>
      <trkpt lat="39.6169040" lon="2.5927720">
        <ele>105.8</ele>
        <time>2021-06-17T09:53:23Z</time>
      </trkpt>
      <trkpt lat="39.6168550" lon="2.5927300">
        <ele>105.9</ele>
        <time>2021-06-17T09:53:24Z</time>
      </trkpt>
      <trkpt lat="39.6167720" lon="2.5926200">
        <ele>106.1</ele>
        <time>2021-06-17T09:53:26Z</time>
      </trkpt>
      <trkpt lat="39.6167420" lon="2.5925530">
        <ele>106.2</ele>
        <time>2021-06-17T09:53:27Z</time>
      </trkpt>
      <trkpt lat="39.6167210" lon="2.5924810">
        <ele>106.3</ele>
        <time>2021-06-17T09:53:28Z</time>
      </trkpt>
      <trkpt lat="39.6166760" lon="2.5921710">
        <ele>106.6</ele>
        <time>2021-06-17T09:53:32Z</time>
      </trkpt>
      <trkpt lat="39.6166730" lon="2.5917250">
        <ele>107.2</ele>
        <time>2021-06-17T09:53:38Z</time>
      </trkpt>
      <trkpt lat="39.6166960" lon="2.5909710">
        <ele>108.7</ele>
        <time>2021-06-17T09:53:49Z</time>
      </trkpt>
      <trkpt lat="39.6166890" lon="2.5907020">
        <ele>109.3</ele>
        <time>2021-06-17T09:53:53Z</time>
      </trkpt>
      <trkpt lat="39.6166510" lon="2.5905100">
        <ele>109.8</ele>
        <time>2021-06-17T09:53:56Z</time>
      </trkpt>
      <trkpt lat="39.6164790" lon="2.5900450">
        <ele>111.3</ele>
        <time>2021-06-17T09:54:04Z</time>
      </trkpt>
      <trkpt lat="39.6164040" lon="2.5898920">
        <ele>111.7</ele>
        <time>2021-06-17T09:54:07Z</time>
      </trkpt>
      <trkpt lat="39.6161710" lon="2.5894710">
        <ele>112.5</ele>
        <time>2021-06-17T09:54:15Z</time>
      </trkpt>
      <trkpt lat="39.6158690" lon="2.5890730">
        <ele>113.1</ele>
        <time>2021-06-17T09:54:23Z</time>
      </trkpt>
      <trkpt lat="39.6155040" lon="2.5886740">
        <ele>113.6</ele>
        <time>2021-06-17T09:54:31Z</time>
      </trkpt>
      <trkpt lat="39.6150950" lon="2.5883530">
        <ele>114.0</ele>
        <time>2021-06-17T09:54:39Z</time>
      </trkpt>
      <trkpt lat="39.6146190" lon="2.5880030">
        <ele>114.6</ele>
        <time>2021-06-17T09:54:48Z</time>
      </trkpt>
      <trkpt lat="39.6145670" lon="2.5879660">
        <ele>114.6</ele>
        <time>2021-06-17T09:54:49Z</time>
      </trkpt>
      <trkpt lat="39.6140790" lon="2.5876500">
        <ele>115.3</ele>
        <time>2021-06-17T09:54:58Z</time>
      </trkpt>
      <trkpt lat="39.6135850" lon="2.5873390">
        <ele>116.1</ele>
        <time>2021-06-17T09:55:07Z</time>
      </trkpt>
      <trkpt lat="39.6134810" lon="2.5872610">
        <ele>116.3</ele>
        <time>2021-06-17T09:55:09Z</time>
      </trkpt>
      <trkpt lat="39.6132920" lon="2.5870740">
        <ele>116.8</ele>
        <time>2021-06-17T09:55:13Z</time>
      </trkpt>
      <trkpt lat="39.6132550" lon="2.5870150">
        <ele>116.9</ele>
        <time>2021-06-17T09:55:14Z</time>
      </trkpt>
      <trkpt lat="39.6131920" lon="2.5868890">
        <ele>117.2</ele>
        <time>2021-06-17T09:55:16Z</time>
      </trkpt>
      <trkpt lat="39.6131270" lon="2.5866910">
        <ele>117.5</ele>
        <time>2021-06-17T09:55:19Z</time>
      </trkpt>
      <trkpt lat="39.6131060" lon="2.5866320">
        <ele>117.7</ele>
        <time>2021-06-17T09:55:20Z</time>
      </trkpt>
      <trkpt lat="39.6130470" lon="2.5865300">
        <ele>117.9</ele>
        <time>2021-06-17T09:55:22Z</time>
      </trkpt>
      <trkpt lat="39.6130120" lon="2.5865030">
        <ele>118.0</ele>
        <time>2021-06-17T09:55:23Z</time>
      </trkpt>
      <trkpt lat="39.6129740" lon="2.5864790">
        <ele>118.1</ele>
        <time>2021-06-17T09:55:24Z</time>
      </trkpt>
      <trkpt lat="39.6129120" lon="2.5864070">
        <ele>118.4</ele>
        <time>2021-06-17T09:55:26Z</time>
      </trkpt>
      <trkpt lat="39.6128960" lon="2.5863630">
        <ele>118.6</ele>
        <time>2021-06-17T09:55:27Z</time>
      </trkpt>
      <trkpt lat="39.6128640" lon="2.5861720">
        <ele>119.2</ele>
        <time>2021-06-17T09:55:32Z</time>
      </trkpt>
      <trkpt lat="39.6128270" lon="2.5860630">
        <ele>119.5</ele>
        <time>2021-06-17T09:55:35Z</time>
      </trkpt>
      <trkpt lat="39.6128120" lon="2.5859820">
        <ele>119.8</ele>
        <time>2021-06-17T09:55:37Z</time>
      </trkpt>
      <trkpt lat="39.6127560" lon="2.5857280">
        <ele>120.7</ele>
        <time>2021-06-17T09:55:44Z</time>
      </trkpt>
      <trkpt lat="39.6126930" lon="2.5854620">
        <ele>121.7</ele>
        <time>2021-06-17T09:55:50Z</time>
      </trkpt>
      <trkpt lat="39.6126530" lon="2.5852290">
        <ele>122.5</ele>
        <time>2021-06-17T09:55:55Z</time>
      </trkpt>
      <trkpt lat="39.6126200" lon="2.5850370">
        <ele>123.2</ele>
        <time>2021-06-17T09:55:59Z</time>
      </trkpt>
      <trkpt lat="39.6125640" lon="2.5847460">
        <ele>124.4</ele>
        <time>2021-06-17T09:56:05Z</time>
      </trkpt>
      <trkpt lat="39.6125330" lon="2.5845950">
        <ele>124.9</ele>
        <time>2021-06-17T09:56:08Z</time>
      </trkpt>
      <trkpt lat="39.6124820" lon="2.5842620">
        <ele>126.2</ele>
        <time>2021-06-17T09:56:15Z</time>
      </trkpt>
      <trkpt lat="39.6124170" lon="2.5839430">
        <ele>127.6</ele>
        <time>2021-06-17T09:56:22Z</time>
      </trkpt>
      <trkpt lat="39.6123770" lon="2.5837750">
        <ele>128.5</ele>
        <time>2021-06-17T09:56:26Z</time>
      </trkpt>
      <trkpt lat="39.6122520" lon="2.5834630">
        <ele>130.2</ele>
        <time>2021-06-17T09:56:34Z</time>
      </trkpt>
      <trkpt lat="39.6121100" lon="2.5832850">
        <ele>131.5</ele>
        <time>2021-06-17T09:56:40Z</time>
      </trkpt>
      <trkpt lat="39.6118670" lon="2.5831070">
        <ele>133.1</ele>
        <time>2021-06-17T09:56:48Z</time>
      </trkpt>
      <trkpt lat="39.6116160" lon="2.5829430">
        <ele>134.8</ele>
        <time>2021-06-17T09:56:56Z</time>
      </trkpt>
      <trkpt lat="39.6113970" lon="2.5828020">
        <ele>136.1</ele>
        <time>2021-06-17T09:57:03Z</time>
      </trkpt>
      <trkpt lat="39.6111490" lon="2.5826660">
        <ele>137.4</ele>
        <time>2021-06-17T09:57:10Z</time>
      </trkpt>
      <trkpt lat="39.6108820" lon="2.5825380">
        <ele>138.7</ele>
        <time>2021-06-17T09:57:18Z</time>
      </trkpt>
      <trkpt lat="39.6106480" lon="2.5824210">
        <ele>139.9</ele>
        <time>2021-06-17T09:57:25Z</time>
      </trkpt>
      <trkpt lat="39.6103900" lon="2.5822460">
        <ele>141.1</ele>
        <time>2021-06-17T09:57:33Z</time>
      </trkpt>
      <trkpt lat="39.6103210" lon="2.5820170">
        <ele>141.8</ele>
        <time>2021-06-17T09:57:38Z</time>
      </trkpt>
      <trkpt lat="39.6103220" lon="2.5816760">
        <ele>142.8</ele>
        <time>2021-06-17T09:57:45Z</time>
      </trkpt>
      <trkpt lat="39.6103000" lon="2.5813730">
        <ele>143.7</ele>
        <time>2021-06-17T09:57:52Z</time>
      </trkpt>
      <trkpt lat="39.6101600" lon="2.5811020">
        <ele>144.6</ele>
        <time>2021-06-17T09:57:59Z</time>
      </trkpt>
      <trkpt lat="39.6101040" lon="2.5810380">
        <ele>144.9</ele>
        <time>2021-06-17T09:58:01Z</time>
      </trkpt>
      <trkpt lat="39.6099070" lon="2.5807940">
        <ele>145.8</ele>
        <time>2021-06-17T09:58:08Z</time>
      </trkpt>
      <trkpt lat="39.6097570" lon="2.5804250">
        <ele>147.0</ele>
        <time>2021-06-17T09:58:16Z</time>
      </trkpt>
      <trkpt lat="39.6097300" lon="2.5801360">
        <ele>147.6</ele>
        <time>2021-06-17T09:58:22Z</time>
      </trkpt>
      <trkpt lat="39.6096320" lon="2.5798400">
        <ele>148.2</ele>
        <time>2021-06-17T09:58:28Z</time>
      </trkpt>
      <trkpt lat="39.6094550" lon="2.5795580">
        <ele>148.8</ele>
        <time>2021-06-17T09:58:34Z</time>
      </trkpt>
      <trkpt lat="39.6094100" lon="2.5794810">
        <ele>149.1</ele>
        <time>2021-06-17T09:58:36Z</time>
      </trkpt>
      <trkpt lat="39.6092040" lon="2.5791470">
        <ele>150.2</ele>
        <time>2021-06-17T09:58:44Z</time>
      </trkpt>
      <trkpt lat="39.6090790" lon="2.5789400">
        <ele>151.0</ele>
        <time>2021-06-17T09:58:49Z</time>
      </trkpt>
      <trkpt lat="39.6089980" lon="2.5788130">
        <ele>151.5</ele>
        <time>2021-06-17T09:58:52Z</time>
      </trkpt>
      <trkpt lat="39.6088130" lon="2.5785450">
        <ele>152.4</ele>
        <time>2021-06-17T09:58:59Z</time>
      </trkpt>
      <trkpt lat="39.6086850" lon="2.5784000">
        <ele>153.1</ele>
        <time>2021-06-17T09:59:02Z</time>
      </trkpt>
      <trkpt lat="39.6085440" lon="2.5782860">
        <ele>153.7</ele>
        <time>2021-06-17T09:59:07Z</time>
      </trkpt>
      <trkpt lat="39.6081400" lon="2.5780090">
        <ele>155.5</ele>
        <time>2021-06-17T09:59:18Z</time>
      </trkpt>
      <trkpt lat="39.6079750" lon="2.5779240">
        <ele>156.2</ele>
        <time>2021-06-17T09:59:22Z</time>
      </trkpt>
      <trkpt lat="39.6078420" lon="2.5778890">
        <ele>156.7</ele>
        <time>2021-06-17T09:59:25Z</time>
      </trkpt>
      <trkpt lat="39.6077200" lon="2.5779020">
        <ele>157.1</ele>
        <time>2021-06-17T09:59:28Z</time>
      </trkpt>
      <trkpt lat="39.6076440" lon="2.5779430">
        <ele>157.3</ele>
        <time>2021-06-17T09:59:30Z</time>
      </trkpt>
      <trkpt lat="39.6073900" lon="2.5781930">
        <ele>158.6</ele>
        <time>2021-06-17T09:59:38Z</time>
      </trkpt>
      <trkpt lat="39.6071210" lon="2.5784450">
        <ele>160.5</ele>
        <time>2021-06-17T09:59:47Z</time>
      </trkpt>
      <trkpt lat="39.6069810" lon="2.5784660">
        <ele>161.5</ele>
        <time>2021-06-17T09:59:51Z</time>
      </trkpt>
      <trkpt lat="39.6069300" lon="2.5783530">
        <ele>162.1</ele>
        <time>2021-06-17T09:59:54Z</time>
      </trkpt>
      <trkpt lat="39.6069740" lon="2.5781740">
        <ele>162.7</ele>
        <time>2021-06-17T09:59:58Z</time>
      </trkpt>
      <trkpt lat="39.6070760" lon="2.5778770">
        <ele>163.8</ele>
        <time>2021-06-17T10:00:05Z</time>
      </trkpt>
      <trkpt lat="39.6071590" lon="2.5775000">
        <ele>165.4</ele>
        <time>2021-06-17T10:00:13Z</time>
      </trkpt>
      <trkpt lat="39.6071410" lon="2.5772640">
        <ele>166.3</ele>
        <time>2021-06-17T10:00:18Z</time>
      </trkpt>
      <trkpt lat="39.6069760" lon="2.5770690">
        <ele>167.3</ele>
        <time>2021-06-17T10:00:24Z</time>
      </trkpt>
      <trkpt lat="39.6068070" lon="2.5769210">
        <ele>168.2</ele>
        <time>2021-06-17T10:00:30Z</time>
      </trkpt>
      <trkpt lat="39.6067180" lon="2.5767860">
        <ele>168.8</ele>
        <time>2021-06-17T10:00:34Z</time>
      </trkpt>
      <trkpt lat="39.6066880" lon="2.5767180">
        <ele>169.1</ele>
        <time>2021-06-17T10:00:36Z</time>
      </trkpt>
      <trkpt lat="39.6066260" lon="2.5765670">
        <ele>169.8</ele>
        <time>2021-06-17T10:00:40Z</time>
      </trkpt>
      <trkpt lat="39.6065650" lon="2.5764240">
        <ele>170.4</ele>
        <time>2021-06-17T10:00:44Z</time>
      </trkpt>
      <trkpt lat="39.6064630" lon="2.5761660">
        <ele>171.5</ele>
        <time>2021-06-17T10:00:51Z</time>
      </trkpt>
      <trkpt lat="39.6063880" lon="2.5760110">
        <ele>172.3</ele>
        <time>2021-06-17T10:00:55Z</time>
      </trkpt>
      <trkpt lat="39.6063490" lon="2.5758860">
        <ele>172.8</ele>
        <time>2021-06-17T10:00:58Z</time>
      </trkpt>
      <trkpt lat="39.6062480" lon="2.5756330">
        <ele>173.9</ele>
        <time>2021-06-17T10:01:05Z</time>
      </trkpt>
      <trkpt lat="39.6060720" lon="2.5753000">
        <ele>175.3</ele>
        <time>2021-06-17T10:01:14Z</time>
      </trkpt>
      <trkpt lat="39.6059680" lon="2.5751350">
        <ele>176.0</ele>
        <time>2021-06-17T10:01:19Z</time>
      </trkpt>
      <trkpt lat="39.6058390" lon="2.5749480">
        <ele>176.9</ele>
        <time>2021-06-17T10:01:25Z</time>
      </trkpt>
      <trkpt lat="39.6056670" lon="2.5747050">
        <ele>178.1</ele>
        <time>2021-06-17T10:01:32Z</time>
      </trkpt>
      <trkpt lat="39.6054740" lon="2.5744780">
        <ele>179.1</ele>
        <time>2021-06-17T10:01:39Z</time>
      </trkpt>
      <trkpt lat="39.6052750" lon="2.5742450">
        <ele>179.9</ele>
        <time>2021-06-17T10:01:46Z</time>
      </trkpt>
      <trkpt lat="39.6050860" lon="2.5739360">
        <ele>180.7</ele>
        <time>2021-06-17T10:01:53Z</time>
      </trkpt>
      <trkpt lat="39.6049730" lon="2.5737590">
        <ele>181.2</ele>
        <time>2021-06-17T10:01:57Z</time>
      </trkpt>
      <trkpt lat="39.6049060" lon="2.5736960">
        <ele>181.4</ele>
        <time>2021-06-17T10:01:59Z</time>
      </trkpt>
      <trkpt lat="39.6048240" lon="2.5736270">
        <ele>181.7</ele>
        <time>2021-06-17T10:02:01Z</time>
      </trkpt>
      <trkpt lat="39.6047510" lon="2.5735850">
        <ele>182.0</ele>
        <time>2021-06-17T10:02:03Z</time>
      </trkpt>
      <trkpt lat="39.6046530" lon="2.5735590">
        <ele>182.3</ele>
        <time>2021-06-17T10:02:05Z</time>
      </trkpt>
      <trkpt lat="39.6044960" lon="2.5735190">
        <ele>182.8</ele>
        <time>2021-06-17T10:02:09Z</time>
      </trkpt>
      <trkpt lat="39.6044180" lon="2.5734610">
        <ele>183.0</ele>
        <time>2021-06-17T10:02:11Z</time>
      </trkpt>
      <trkpt lat="39.6043910" lon="2.5734160">
        <ele>183.2</ele>
        <time>2021-06-17T10:02:12Z</time>
      </trkpt>
      <trkpt lat="39.6043720" lon="2.5733710">
        <ele>183.3</ele>
        <time>2021-06-17T10:02:13Z</time>
      </trkpt>
      <trkpt lat="39.6043420" lon="2.5732470">
        <ele>183.6</ele>
        <time>2021-06-17T10:02:15Z</time>
      </trkpt>
      <trkpt lat="39.6043150" lon="2.5731410">
        <ele>183.9</ele>
        <time>2021-06-17T10:02:17Z</time>
      </trkpt>
      <trkpt lat="39.6042810" lon="2.5730010">
        <ele>184.3</ele>
        <time>2021-06-17T10:02:20Z</time>
      </trkpt>
      <trkpt lat="39.6042100" lon="2.5728710">
        <ele>184.8</ele>
        <time>2021-06-17T10:02:23Z</time>
      </trkpt>
      <trkpt lat="39.6041260" lon="2.5727580">
        <ele>185.2</ele>
        <time>2021-06-17T10:02:26Z</time>
      </trkpt>
      <trkpt lat="39.6039870" lon="2.5725750">
        <ele>185.9</ele>
        <time>2021-06-17T10:02:31Z</time>
      </trkpt>
      <trkpt lat="39.6037550" lon="2.5723610">
        <ele>186.9</ele>
        <time>2021-06-17T10:02:38Z</time>
      </trkpt>
      <trkpt lat="39.6037200" lon="2.5723210">
        <ele>187.0</ele>
        <time>2021-06-17T10:02:39Z</time>
      </trkpt>
      <trkpt lat="39.6036310" lon="2.5722020">
        <ele>187.4</ele>
        <time>2021-06-17T10:02:42Z</time>
      </trkpt>
      <trkpt lat="39.6035860" lon="2.5721110">
        <ele>187.7</ele>
        <time>2021-06-17T10:02:44Z</time>
      </trkpt>
      <trkpt lat="39.6035330" lon="2.5720220">
        <ele>187.9</ele>
        <time>2021-06-17T10:02:46Z</time>
      </trkpt>
      <trkpt lat="39.6034700" lon="2.5719500">
        <ele>188.2</ele>
        <time>2021-06-17T10:02:48Z</time>
      </trkpt>
      <trkpt lat="39.6034370" lon="2.5719220">
        <ele>188.3</ele>
        <time>2021-06-17T10:02:49Z</time>
      </trkpt>
      <trkpt lat="39.6034050" lon="2.5719010">
        <ele>188.4</ele>
        <time>2021-06-17T10:02:50Z</time>
      </trkpt>
      <trkpt lat="39.6032080" lon="2.5718320">
        <ele>189.0</ele>
        <time>2021-06-17T10:02:55Z</time>
      </trkpt>
      <trkpt lat="39.6031750" lon="2.5718140">
        <ele>189.1</ele>
        <time>2021-06-17T10:02:56Z</time>
      </trkpt>
      <trkpt lat="39.6030980" lon="2.5717380">
        <ele>189.3</ele>
        <time>2021-06-17T10:02:58Z</time>
      </trkpt>
      <trkpt lat="39.6030700" lon="2.5716930">
        <ele>189.3</ele>
        <time>2021-06-17T10:02:59Z</time>
      </trkpt>
      <trkpt lat="39.6030480" lon="2.5716600">
        <ele>189.4</ele>
        <time>2021-06-17T10:03:00Z</time>
      </trkpt>
      <trkpt lat="39.6028490" lon="2.5713910">
        <ele>189.6</ele>
        <time>2021-06-17T10:03:06Z</time>
      </trkpt>
      <trkpt lat="39.6028000" lon="2.5713440">
        <ele>189.6</ele>
        <time>2021-06-17T10:03:07Z</time>
      </trkpt>
      <trkpt lat="39.6026470" lon="2.5712150">
        <ele>189.8</ele>
        <time>2021-06-17T10:03:11Z</time>
      </trkpt>
      <trkpt lat="39.6026040" lon="2.5711870">
        <ele>189.8</ele>
        <time>2021-06-17T10:03:12Z</time>
      </trkpt>
      <trkpt lat="39.6025210" lon="2.5711220">
        <ele>190.1</ele>
        <time>2021-06-17T10:03:14Z</time>
      </trkpt>
      <trkpt lat="39.6024510" lon="2.5710190">
        <ele>190.4</ele>
        <time>2021-06-17T10:03:16Z</time>
      </trkpt>
      <trkpt lat="39.6023910" lon="2.5708650">
        <ele>190.9</ele>
        <time>2021-06-17T10:03:19Z</time>
      </trkpt>
      <trkpt lat="39.6023510" lon="2.5707160">
        <ele>191.3</ele>
        <time>2021-06-17T10:03:22Z</time>
      </trkpt>
      <trkpt lat="39.6023390" lon="2.5706680">
        <ele>191.5</ele>
        <time>2021-06-17T10:03:23Z</time>
      </trkpt>
      <trkpt lat="39.6022600" lon="2.5704430">
        <ele>192.5</ele>
        <time>2021-06-17T10:03:28Z</time>
      </trkpt>
      <trkpt lat="39.6021370" lon="2.5700770">
        <ele>194.0</ele>
        <time>2021-06-17T10:03:36Z</time>
      </trkpt>
      <trkpt lat="39.6020480" lon="2.5697520">
        <ele>195.5</ele>
        <time>2021-06-17T10:03:43Z</time>
      </trkpt>
      <trkpt lat="39.6020110" lon="2.5696500">
        <ele>196.0</ele>
        <time>2021-06-17T10:03:45Z</time>
      </trkpt>
      <trkpt lat="39.6018730" lon="2.5692950">
        <ele>197.6</ele>
        <time>2021-06-17T10:03:53Z</time>
      </trkpt>
      <trkpt lat="39.6017350" lon="2.5689970">
        <ele>199.0</ele>
        <time>2021-06-17T10:04:00Z</time>
      </trkpt>
      <trkpt lat="39.6015500" lon="2.5686610">
        <ele>200.8</ele>
        <time>2021-06-17T10:04:08Z</time>
      </trkpt>
      <trkpt lat="39.6014140" lon="2.5684550">
        <ele>201.9</ele>
        <time>2021-06-17T10:04:14Z</time>
      </trkpt>
      <trkpt lat="39.6012460" lon="2.5682600">
        <ele>203.2</ele>
        <time>2021-06-17T10:04:20Z</time>
      </trkpt>
      <trkpt lat="39.6009390" lon="2.5680460">
        <ele>205.1</ele>
        <time>2021-06-17T10:04:29Z</time>
      </trkpt>
      <trkpt lat="39.6006880" lon="2.5679700">
        <ele>206.4</ele>
        <time>2021-06-17T10:04:36Z</time>
      </trkpt>
      <trkpt lat="39.6004350" lon="2.5679790">
        <ele>207.9</ele>
        <time>2021-06-17T10:04:43Z</time>
      </trkpt>
      <trkpt lat="39.6002120" lon="2.5680070">
        <ele>209.4</ele>
        <time>2021-06-17T10:04:50Z</time>
      </trkpt>
      <trkpt lat="39.5999750" lon="2.5680150">
        <ele>211.1</ele>
        <time>2021-06-17T10:04:57Z</time>
      </trkpt>
      <trkpt lat="39.5998040" lon="2.5679520">
        <ele>212.3</ele>
        <time>2021-06-17T10:05:03Z</time>
      </trkpt>
      <trkpt lat="39.5996960" lon="2.5677550">
        <ele>213.3</ele>
        <time>2021-06-17T10:05:09Z</time>
      </trkpt>
      <trkpt lat="39.5996030" lon="2.5676000">
        <ele>214.0</ele>
        <time>2021-06-17T10:05:14Z</time>
      </trkpt>
      <trkpt lat="39.5994330" lon="2.5674580">
        <ele>214.9</ele>
        <time>2021-06-17T10:05:20Z</time>
      </trkpt>
      <trkpt lat="39.5992620" lon="2.5672050">
        <ele>216.2</ele>
        <time>2021-06-17T10:05:27Z</time>
      </trkpt>
      <trkpt lat="39.5991850" lon="2.5669500">
        <ele>217.1</ele>
        <time>2021-06-17T10:05:33Z</time>
      </trkpt>
      <trkpt lat="39.5992020" lon="2.5667060">
        <ele>218.1</ele>
        <time>2021-06-17T10:05:38Z</time>
      </trkpt>
      <trkpt lat="39.5991180" lon="2.5664220">
        <ele>219.2</ele>
        <time>2021-06-17T10:05:44Z</time>
      </trkpt>
      <trkpt lat="39.5989170" lon="2.5662590">
        <ele>220.2</ele>
        <time>2021-06-17T10:05:50Z</time>
      </trkpt>
      <trkpt lat="39.5986940" lon="2.5661090">
        <ele>221.4</ele>
        <time>2021-06-17T10:05:57Z</time>
      </trkpt>
      <trkpt lat="39.5984410" lon="2.5658760">
        <ele>223.4</ele>
        <time>2021-06-17T10:06:06Z</time>
      </trkpt>
      <trkpt lat="39.5983400" lon="2.5657720">
        <ele>224.3</ele>
        <time>2021-06-17T10:06:10Z</time>
      </trkpt>
      <trkpt lat="39.5982330" lon="2.5656650">
        <ele>225.3</ele>
        <time>2021-06-17T10:06:14Z</time>
      </trkpt>
      <trkpt lat="39.5981130" lon="2.5654180">
        <ele>227.1</ele>
        <time>2021-06-17T10:06:21Z</time>
      </trkpt>
      <trkpt lat="39.5980740" lon="2.5653060">
        <ele>227.8</ele>
        <time>2021-06-17T10:06:24Z</time>
      </trkpt>
      <trkpt lat="39.5980430" lon="2.5651800">
        <ele>228.5</ele>
        <time>2021-06-17T10:06:27Z</time>
      </trkpt>
      <trkpt lat="39.5979390" lon="2.5648170">
        <ele>230.5</ele>
        <time>2021-06-17T10:06:36Z</time>
      </trkpt>
      <trkpt lat="39.5978550" lon="2.5644860">
        <ele>232.2</ele>
        <time>2021-06-17T10:06:44Z</time>
      </trkpt>
      <trkpt lat="39.5977720" lon="2.5641950">
        <ele>233.8</ele>
        <time>2021-06-17T10:06:51Z</time>
      </trkpt>
      <trkpt lat="39.5976800" lon="2.5640550">
        <ele>235.0</ele>
        <time>2021-06-17T10:06:55Z</time>
      </trkpt>
      <trkpt lat="39.5976490" lon="2.5640500">
        <ele>235.3</ele>
        <time>2021-06-17T10:06:56Z</time>
      </trkpt>
      <trkpt lat="39.5976190" lon="2.5640630">
        <ele>235.5</ele>
        <time>2021-06-17T10:06:57Z</time>
      </trkpt>
      <trkpt lat="39.5975820" lon="2.5641150">
        <ele>235.9</ele>
        <time>2021-06-17T10:06:59Z</time>
      </trkpt>
      <trkpt lat="39.5975210" lon="2.5643830">
        <ele>237.2</ele>
        <time>2021-06-17T10:07:06Z</time>
      </trkpt>
      <trkpt lat="39.5974690" lon="2.5647140">
        <ele>238.8</ele>
        <time>2021-06-17T10:07:14Z</time>
      </trkpt>
      <trkpt lat="39.5974200" lon="2.5648940">
        <ele>239.8</ele>
        <time>2021-06-17T10:07:19Z</time>
      </trkpt>
      <trkpt lat="39.5973900" lon="2.5649060">
        <ele>240.0</ele>
        <time>2021-06-17T10:07:20Z</time>
      </trkpt>
      <trkpt lat="39.5973090" lon="2.5648570">
        <ele>240.6</ele>
        <time>2021-06-17T10:07:23Z</time>
      </trkpt>
      <trkpt lat="39.5972920" lon="2.5648240">
        <ele>240.7</ele>
        <time>2021-06-17T10:07:24Z</time>
      </trkpt>
      <trkpt lat="39.5971450" lon="2.5645130">
        <ele>242.2</ele>
        <time>2021-06-17T10:07:33Z</time>
      </trkpt>
      <trkpt lat="39.5969910" lon="2.5641930">
        <ele>243.7</ele>
        <time>2021-06-17T10:07:42Z</time>
      </trkpt>
      <trkpt lat="39.5968410" lon="2.5639410">
        <ele>245.0</ele>
        <time>2021-06-17T10:07:50Z</time>
      </trkpt>
      <trkpt lat="39.5966560" lon="2.5636280">
        <ele>246.5</ele>
        <time>2021-06-17T10:07:59Z</time>
      </trkpt>
      <trkpt lat="39.5964480" lon="2.5632720">
        <ele>248.0</ele>
        <time>2021-06-17T10:08:09Z</time>
      </trkpt>
      <trkpt lat="39.5962990" lon="2.5630070">
        <ele>249.2</ele>
        <time>2021-06-17T10:08:17Z</time>
      </trkpt>
      <trkpt lat="39.5961240" lon="2.5626670">
        <ele>250.7</ele>
        <time>2021-06-17T10:08:26Z</time>
      </trkpt>
      <trkpt lat="39.5959370" lon="2.5622780">
        <ele>252.3</ele>
        <time>2021-06-17T10:08:36Z</time>
      </trkpt>
      <trkpt lat="39.5958600" lon="2.5619520">
        <ele>253.4</ele>
        <time>2021-06-17T10:08:43Z</time>
      </trkpt>
      <trkpt lat="39.5957890" lon="2.5614380">
        <ele>255.3</ele>
        <time>2021-06-17T10:08:54Z</time>
      </trkpt>
      <trkpt lat="39.5957230" lon="2.5610990">
        <ele>256.5</ele>
        <time>2021-06-17T10:09:02Z</time>
      </trkpt>
      <trkpt lat="39.5955820" lon="2.5609090">
        <ele>257.4</ele>
        <time>2021-06-17T10:09:08Z</time>
      </trkpt>
      <trkpt lat="39.5953720" lon="2.5608290">
        <ele>258.3</ele>
        <time>2021-06-17T10:09:14Z</time>
      </trkpt>
      <trkpt lat="39.5950570" lon="2.5607120">
        <ele>259.3</ele>
        <time>2021-06-17T10:09:22Z</time>
      </trkpt>
      <trkpt lat="39.5948180" lon="2.5606390">
        <ele>260.1</ele>
        <time>2021-06-17T10:09:28Z</time>
      </trkpt>
      <trkpt lat="39.5945590" lon="2.5605900">
        <ele>261.2</ele>
        <time>2021-06-17T10:09:35Z</time>
      </trkpt>
      <trkpt lat="39.5942870" lon="2.5605960">
        <ele>262.7</ele>
        <time>2021-06-17T10:09:42Z</time>
      </trkpt>
      <trkpt lat="39.5942170" lon="2.5605660">
        <ele>263.1</ele>
        <time>2021-06-17T10:09:44Z</time>
      </trkpt>
      <trkpt lat="39.5940880" lon="2.5603920">
        <ele>264.1</ele>
        <time>2021-06-17T10:09:49Z</time>
      </trkpt>
      <trkpt lat="39.5940560" lon="2.5601580">
        <ele>265.1</ele>
        <time>2021-06-17T10:09:54Z</time>
      </trkpt>
      <trkpt lat="39.5941370" lon="2.5599010">
        <ele>266.3</ele>
        <time>2021-06-17T10:10:00Z</time>
      </trkpt>
      <trkpt lat="39.5941540" lon="2.5596750">
        <ele>267.0</ele>
        <time>2021-06-17T10:10:05Z</time>
      </trkpt>
      <trkpt lat="39.5940510" lon="2.5593840">
        <ele>268.0</ele>
        <time>2021-06-17T10:10:12Z</time>
      </trkpt>
      <trkpt lat="39.5938270" lon="2.5590890">
        <ele>269.4</ele>
        <time>2021-06-17T10:10:20Z</time>
      </trkpt>
      <trkpt lat="39.5935680" lon="2.5587690">
        <ele>270.9</ele>
        <time>2021-06-17T10:10:29Z</time>
      </trkpt>
      <trkpt lat="39.5933140" lon="2.5584280">
        <ele>272.2</ele>
        <time>2021-06-17T10:10:38Z</time>
      </trkpt>
      <trkpt lat="39.5932970" lon="2.5583760">
        <ele>272.3</ele>
        <time>2021-06-17T10:10:39Z</time>
      </trkpt>
      <trkpt lat="39.5932420" lon="2.5581130">
        <ele>272.6</ele>
        <time>2021-06-17T10:10:44Z</time>
      </trkpt>
      <trkpt lat="39.5931350" lon="2.5575950">
        <ele>273.2</ele>
        <time>2021-06-17T10:10:53Z</time>
      </trkpt>
      <trkpt lat="39.5930780" lon="2.5572600">
        <ele>273.1</ele>
        <time>2021-06-17T10:10:59Z</time>
      </trkpt>
      <trkpt lat="39.5930610" lon="2.5572050">
        <ele>273.0</ele>
        <time>2021-06-17T10:11:00Z</time>
      </trkpt>
      <trkpt lat="39.5930190" lon="2.5571090">
        <ele>272.8</ele>
        <time>2021-06-17T10:11:02Z</time>
      </trkpt>
      <trkpt lat="39.5929500" lon="2.5570090">
        <ele>272.5</ele>
        <time>2021-06-17T10:11:04Z</time>
      </trkpt>
      <trkpt lat="39.5929160" lon="2.5569780">
        <ele>272.3</ele>
        <time>2021-06-17T10:11:05Z</time>
      </trkpt>
      <trkpt lat="39.5928710" lon="2.5569450">
        <ele>272.1</ele>
        <time>2021-06-17T10:11:06Z</time>
      </trkpt>
      <trkpt lat="39.5927690" lon="2.5568840">
        <ele>271.6</ele>
        <time>2021-06-17T10:11:08Z</time>
      </trkpt>
      <trkpt lat="39.5926990" lon="2.5568590">
        <ele>271.2</ele>
        <time>2021-06-17T10:11:09Z</time>
      </trkpt>
      <trkpt lat="39.5923640" lon="2.5567890">
        <ele>269.5</ele>
        <time>2021-06-17T10:11:14Z</time>
      </trkpt>
      <trkpt lat="39.5922370" lon="2.5567380">
        <ele>268.7</ele>
        <time>2021-06-17T10:11:16Z</time>
      </trkpt>
      <trkpt lat="39.5920040" lon="2.5566540">
        <ele>267.4</ele>
        <time>2021-06-17T10:11:19Z</time>
      </trkpt>
      <trkpt lat="39.5919200" lon="2.5566240">
        <ele>266.9</ele>
        <time>2021-06-17T10:11:20Z</time>
      </trkpt>
      <trkpt lat="39.5917390" lon="2.5565430">
        <ele>265.8</ele>
        <time>2021-06-17T10:11:22Z</time>
      </trkpt>
      <trkpt lat="39.5915720" lon="2.5564660">
        <ele>264.8</ele>
        <time>2021-06-17T10:11:24Z</time>
      </trkpt>
      <trkpt lat="39.5914060" lon="2.5563760">
        <ele>263.7</ele>
        <time>2021-06-17T10:11:26Z</time>
      </trkpt>
      <trkpt lat="39.5913160" lon="2.5563310">
        <ele>263.1</ele>
        <time>2021-06-17T10:11:27Z</time>
      </trkpt>
      <trkpt lat="39.5910610" lon="2.5562330">
        <ele>261.5</ele>
        <time>2021-06-17T10:11:30Z</time>
      </trkpt>
      <trkpt lat="39.5908710" lon="2.5562030">
        <ele>260.5</ele>
        <time>2021-06-17T10:11:32Z</time>
      </trkpt>
      <trkpt lat="39.5903000" lon="2.5561300">
        <ele>257.4</ele>
        <time>2021-06-17T10:11:38Z</time>
      </trkpt>
      <trkpt lat="39.5900050" lon="2.5560600">
        <ele>255.9</ele>
        <time>2021-06-17T10:11:41Z</time>
      </trkpt>
      <trkpt lat="39.5899310" lon="2.5559860">
        <ele>255.2</ele>
        <time>2021-06-17T10:11:42Z</time>
      </trkpt>
      <trkpt lat="39.5898770" lon="2.5558790">
        <ele>254.4</ele>
        <time>2021-06-17T10:11:43Z</time>
      </trkpt>
      <trkpt lat="39.5898460" lon="2.5557490">
        <ele>253.6</ele>
        <time>2021-06-17T10:11:44Z</time>
      </trkpt>
      <trkpt lat="39.5898500" lon="2.5556390">
        <ele>253.1</ele>
        <time>2021-06-17T10:11:45Z</time>
      </trkpt>
      <trkpt lat="39.5898750" lon="2.5554820">
        <ele>252.4</ele>
        <time>2021-06-17T10:11:46Z</time>
      </trkpt>
      <trkpt lat="39.5900570" lon="2.5548960">
        <ele>250.3</ele>
        <time>2021-06-17T10:11:51Z</time>
      </trkpt>
      <trkpt lat="39.5900870" lon="2.5547750">
        <ele>249.8</ele>
        <time>2021-06-17T10:11:52Z</time>
      </trkpt>
      <trkpt lat="39.5901130" lon="2.5545380">
        <ele>248.9</ele>
        <time>2021-06-17T10:11:54Z</time>
      </trkpt>
      <trkpt lat="39.5900870" lon="2.5541590">
        <ele>247.3</ele>
        <time>2021-06-17T10:11:57Z</time>
      </trkpt>
      <trkpt lat="39.5900700" lon="2.5540600">
        <ele>246.9</ele>
        <time>2021-06-17T10:11:58Z</time>
      </trkpt>
      <trkpt lat="39.5898850" lon="2.5534700">
        <ele>244.2</ele>
        <time>2021-06-17T10:12:03Z</time>
      </trkpt>
      <trkpt lat="39.5896180" lon="2.5527750">
        <ele>241.3</ele>
        <time>2021-06-17T10:12:09Z</time>
      </trkpt>
      <trkpt lat="39.5895790" lon="2.5526830">
        <ele>240.9</ele>
        <time>2021-06-17T10:12:10Z</time>
      </trkpt>
      <trkpt lat="39.5894490" lon="2.5525590">
        <ele>239.7</ele>
        <time>2021-06-17T10:12:12Z</time>
      </trkpt>
      <trkpt lat="39.5892710" lon="2.5525470">
        <ele>238.2</ele>
        <time>2021-06-17T10:12:14Z</time>
      </trkpt>
      <trkpt lat="39.5891740" lon="2.5525690">
        <ele>237.5</ele>
        <time>2021-06-17T10:12:15Z</time>
      </trkpt>
      <trkpt lat="39.5886890" lon="2.5527480">
        <ele>234.0</ele>
        <time>2021-06-17T10:12:20Z</time>
      </trkpt>
      <trkpt lat="39.5885920" lon="2.5528150">
        <ele>233.3</ele>
        <time>2021-06-17T10:12:21Z</time>
      </trkpt>
      <trkpt lat="39.5881270" lon="2.5531330">
        <ele>230.3</ele>
        <time>2021-06-17T10:12:26Z</time>
      </trkpt>
      <trkpt lat="39.5879880" lon="2.5533150">
        <ele>229.2</ele>
        <time>2021-06-17T10:12:28Z</time>
      </trkpt>
      <trkpt lat="39.5879400" lon="2.5534230">
        <ele>228.7</ele>
        <time>2021-06-17T10:12:29Z</time>
      </trkpt>
      <trkpt lat="39.5879140" lon="2.5535360">
        <ele>228.3</ele>
        <time>2021-06-17T10:12:30Z</time>
      </trkpt>
      <trkpt lat="39.5878900" lon="2.5537730">
        <ele>227.4</ele>
        <time>2021-06-17T10:12:32Z</time>
      </trkpt>
      <trkpt lat="39.5878420" lon="2.5541350">
        <ele>226.2</ele>
        <time>2021-06-17T10:12:35Z</time>
      </trkpt>
      <trkpt lat="39.5877950" lon="2.5542330">
        <ele>225.8</ele>
        <time>2021-06-17T10:12:36Z</time>
      </trkpt>
      <trkpt lat="39.5877290" lon="2.5543180">
        <ele>225.5</ele>
        <time>2021-06-17T10:12:37Z</time>
      </trkpt>
      <trkpt lat="39.5875590" lon="2.5544140">
        <ele>224.8</ele>
        <time>2021-06-17T10:12:39Z</time>
      </trkpt>
      <trkpt lat="39.5873830" lon="2.5544140">
        <ele>224.2</ele>
        <time>2021-06-17T10:12:41Z</time>
      </trkpt>
      <trkpt lat="39.5872960" lon="2.5543850">
        <ele>223.9</ele>
        <time>2021-06-17T10:12:42Z</time>
      </trkpt>
      <trkpt lat="39.5872260" lon="2.5543220">
        <ele>223.6</ele>
        <time>2021-06-17T10:12:43Z</time>
      </trkpt>
      <trkpt lat="39.5871740" lon="2.5542330">
        <ele>223.3</ele>
        <time>2021-06-17T10:12:44Z</time>
      </trkpt>
      <trkpt lat="39.5871450" lon="2.5541240">
        <ele>223.0</ele>
        <time>2021-06-17T10:12:45Z</time>
      </trkpt>
      <trkpt lat="39.5871010" lon="2.5539110">
        <ele>222.3</ele>
        <time>2021-06-17T10:12:47Z</time>
      </trkpt>
      <trkpt lat="39.5870280" lon="2.5535770">
        <ele>221.4</ele>
        <time>2021-06-17T10:12:49Z</time>
      </trkpt>
      <trkpt lat="39.5870090" lon="2.5534650">
        <ele>221.1</ele>
        <time>2021-06-17T10:12:51Z</time>
      </trkpt>
      <trkpt lat="39.5870150" lon="2.5532360">
        <ele>220.5</ele>
        <time>2021-06-17T10:12:53Z</time>
      </trkpt>
      <trkpt lat="39.5870880" lon="2.5527780">
        <ele>219.6</ele>
        <time>2021-06-17T10:12:57Z</time>
      </trkpt>
      <trkpt lat="39.5871430" lon="2.5524210">
        <ele>219.1</ele>
        <time>2021-06-17T10:13:00Z</time>
      </trkpt>
      <trkpt lat="39.5871640" lon="2.5523150">
        <ele>219.0</ele>
        <time>2021-06-17T10:13:01Z</time>
      </trkpt>
      <trkpt lat="39.5871780" lon="2.5522140">
        <ele>218.8</ele>
        <time>2021-06-17T10:13:02Z</time>
      </trkpt>
      <trkpt lat="39.5871520" lon="2.5520170">
        <ele>218.3</ele>
        <time>2021-06-17T10:13:04Z</time>
      </trkpt>
      <trkpt lat="39.5869830" lon="2.5517700">
        <ele>217.1</ele>
        <time>2021-06-17T10:13:07Z</time>
      </trkpt>
      <trkpt lat="39.5866680" lon="2.5513800">
        <ele>216.5</ele>
        <time>2021-06-17T10:13:12Z</time>
      </trkpt>
      <trkpt lat="39.5866250" lon="2.5512960">
        <ele>216.3</ele>
        <time>2021-06-17T10:13:13Z</time>
      </trkpt>
      <trkpt lat="39.5866260" lon="2.5512060">
        <ele>216.0</ele>
        <time>2021-06-17T10:13:14Z</time>
      </trkpt>
      <trkpt lat="39.5866630" lon="2.5511300">
        <ele>215.5</ele>
        <time>2021-06-17T10:13:15Z</time>
      </trkpt>
      <trkpt lat="39.5867290" lon="2.5510940">
        <ele>214.9</ele>
        <time>2021-06-17T10:13:16Z</time>
      </trkpt>
      <trkpt lat="39.5868110" lon="2.5510850">
        <ele>214.2</ele>
        <time>2021-06-17T10:13:17Z</time>
      </trkpt>
      <trkpt lat="39.5868890" lon="2.5511160">
        <ele>213.5</ele>
        <time>2021-06-17T10:13:18Z</time>
      </trkpt>
      <trkpt lat="39.5869630" lon="2.5511630">
        <ele>212.9</ele>
        <time>2021-06-17T10:13:19Z</time>
      </trkpt>
      <trkpt lat="39.5871770" lon="2.5513120">
        <ele>211.5</ele>
        <time>2021-06-17T10:13:22Z</time>
      </trkpt>
      <trkpt lat="39.5872500" lon="2.5513490">
        <ele>211.0</ele>
        <time>2021-06-17T10:13:23Z</time>
      </trkpt>
      <trkpt lat="39.5873220" lon="2.5513660">
        <ele>210.7</ele>
        <time>2021-06-17T10:13:24Z</time>
      </trkpt>
      <trkpt lat="39.5874610" lon="2.5513280">
        <ele>209.9</ele>
        <time>2021-06-17T10:13:26Z</time>
      </trkpt>
      <trkpt lat="39.5875130" lon="2.5512590">
        <ele>209.5</ele>
        <time>2021-06-17T10:13:27Z</time>
      </trkpt>
      <trkpt lat="39.5875510" lon="2.5511670">
        <ele>209.0</ele>
        <time>2021-06-17T10:13:28Z</time>
      </trkpt>
      <trkpt lat="39.5875750" lon="2.5510660">
        <ele>208.5</ele>
        <time>2021-06-17T10:13:29Z</time>
      </trkpt>
      <trkpt lat="39.5875930" lon="2.5509590">
        <ele>208.0</ele>
        <time>2021-06-17T10:13:30Z</time>
      </trkpt>
      <trkpt lat="39.5876220" lon="2.5507390">
        <ele>207.0</ele>
        <time>2021-06-17T10:13:32Z</time>
      </trkpt>
      <trkpt lat="39.5876170" lon="2.5505080">
        <ele>206.2</ele>
        <time>2021-06-17T10:13:34Z</time>
      </trkpt>
      <trkpt lat="39.5875440" lon="2.5501690">
        <ele>205.3</ele>
        <time>2021-06-17T10:13:37Z</time>
      </trkpt>
      <trkpt lat="39.5875050" lon="2.5500640">
        <ele>205.0</ele>
        <time>2021-06-17T10:13:38Z</time>
      </trkpt>
      <trkpt lat="39.5874600" lon="2.5499650">
        <ele>204.8</ele>
        <time>2021-06-17T10:13:39Z</time>
      </trkpt>
      <trkpt lat="39.5873470" lon="2.5497890">
        <ele>204.3</ele>
        <time>2021-06-17T10:13:41Z</time>
      </trkpt>
      <trkpt lat="39.5872840" lon="2.5497150">
        <ele>204.1</ele>
        <time>2021-06-17T10:13:42Z</time>
      </trkpt>
      <trkpt lat="39.5868080" lon="2.5492240">
        <ele>202.1</ele>
        <time>2021-06-17T10:13:49Z</time>
      </trkpt>
      <trkpt lat="39.5867330" lon="2.5491650">
        <ele>201.7</ele>
        <time>2021-06-17T10:13:50Z</time>
      </trkpt>
      <trkpt lat="39.5861710" lon="2.5488140">
        <ele>199.4</ele>
        <time>2021-06-17T10:13:57Z</time>
      </trkpt>
      <trkpt lat="39.5860900" lon="2.5487640">
        <ele>199.2</ele>
        <time>2021-06-17T10:13:58Z</time>
      </trkpt>
      <trkpt lat="39.5860130" lon="2.5487070">
        <ele>198.9</ele>
        <time>2021-06-17T10:13:59Z</time>
      </trkpt>
      <trkpt lat="39.5859150" lon="2.5485300">
        <ele>198.3</ele>
        <time>2021-06-17T10:14:01Z</time>
      </trkpt>
      <trkpt lat="39.5858780" lon="2.5481970">
        <ele>197.4</ele>
        <time>2021-06-17T10:14:04Z</time>
      </trkpt>
      <trkpt lat="39.5858670" lon="2.5480860">
        <ele>197.1</ele>
        <time>2021-06-17T10:14:05Z</time>
      </trkpt>
      <trkpt lat="39.5857840" lon="2.5473870">
        <ele>195.3</ele>
        <time>2021-06-17T10:14:11Z</time>
      </trkpt>
      <trkpt lat="39.5857150" lon="2.5469120">
        <ele>194.7</ele>
        <time>2021-06-17T10:14:15Z</time>
      </trkpt>
      <trkpt lat="39.5855990" lon="2.5463530">
        <ele>193.9</ele>
        <time>2021-06-17T10:14:20Z</time>
      </trkpt>
      <trkpt lat="39.5855180" lon="2.5460370">
        <ele>193.4</ele>
        <time>2021-06-17T10:14:23Z</time>
      </trkpt>
      <trkpt lat="39.5854730" lon="2.5459460">
        <ele>193.3</ele>
        <time>2021-06-17T10:14:24Z</time>
      </trkpt>
      <trkpt lat="39.5854160" lon="2.5458630">
        <ele>193.1</ele>
        <time>2021-06-17T10:14:25Z</time>
      </trkpt>
      <trkpt lat="39.5853530" lon="2.5457860">
        <ele>193.0</ele>
        <time>2021-06-17T10:14:26Z</time>
      </trkpt>
      <trkpt lat="39.5850750" lon="2.5455040">
        <ele>192.1</ele>
        <time>2021-06-17T10:14:30Z</time>
      </trkpt>
      <trkpt lat="39.5847850" lon="2.5452260">
        <ele>190.7</ele>
        <time>2021-06-17T10:14:34Z</time>
      </trkpt>
      <trkpt lat="39.5845630" lon="2.5450020">
        <ele>189.3</ele>
        <time>2021-06-17T10:14:37Z</time>
      </trkpt>
      <trkpt lat="39.5842620" lon="2.5447380">
        <ele>187.8</ele>
        <time>2021-06-17T10:14:41Z</time>
      </trkpt>
      <trkpt lat="39.5841010" lon="2.5447310">
        <ele>187.1</ele>
        <time>2021-06-17T10:14:43Z</time>
      </trkpt>
      <trkpt lat="39.5840260" lon="2.5447800">
        <ele>186.6</ele>
        <time>2021-06-17T10:14:44Z</time>
      </trkpt>
      <trkpt lat="39.5839610" lon="2.5448560">
        <ele>186.1</ele>
        <time>2021-06-17T10:14:45Z</time>
      </trkpt>
      <trkpt lat="39.5839050" lon="2.5449450">
        <ele>185.7</ele>
        <time>2021-06-17T10:14:46Z</time>
      </trkpt>
      <trkpt lat="39.5837380" lon="2.5452450">
        <ele>184.2</ele>
        <time>2021-06-17T10:14:49Z</time>
      </trkpt>
      <trkpt lat="39.5836180" lon="2.5454250">
        <ele>183.1</ele>
        <time>2021-06-17T10:14:51Z</time>
      </trkpt>
      <trkpt lat="39.5835460" lon="2.5455010">
        <ele>182.3</ele>
        <time>2021-06-17T10:14:52Z</time>
      </trkpt>
      <trkpt lat="39.5834660" lon="2.5455630">
        <ele>181.6</ele>
        <time>2021-06-17T10:14:53Z</time>
      </trkpt>
      <trkpt lat="39.5832260" lon="2.5457090">
        <ele>179.9</ele>
        <time>2021-06-17T10:14:56Z</time>
      </trkpt>
      <trkpt lat="39.5831400" lon="2.5457080">
        <ele>179.3</ele>
        <time>2021-06-17T10:14:57Z</time>
      </trkpt>
      <trkpt lat="39.5830520" lon="2.5456580">
        <ele>178.6</ele>
        <time>2021-06-17T10:14:58Z</time>
      </trkpt>
      <trkpt lat="39.5829740" lon="2.5455800">
        <ele>178.0</ele>
        <time>2021-06-17T10:14:59Z</time>
      </trkpt>
      <trkpt lat="39.5825750" lon="2.5450140">
        <ele>175.3</ele>
        <time>2021-06-17T10:15:05Z</time>
      </trkpt>
      <trkpt lat="39.5822480" lon="2.5443930">
        <ele>173.5</ele>
        <time>2021-06-17T10:15:11Z</time>
      </trkpt>
      <trkpt lat="39.5820960" lon="2.5441000">
        <ele>172.8</ele>
        <time>2021-06-17T10:15:14Z</time>
      </trkpt>
      <trkpt lat="39.5819230" lon="2.5438280">
        <ele>172.1</ele>
        <time>2021-06-17T10:15:17Z</time>
      </trkpt>
      <trkpt lat="39.5815590" lon="2.5432990">
        <ele>170.7</ele>
        <time>2021-06-17T10:15:23Z</time>
      </trkpt>
      <trkpt lat="39.5814420" lon="2.5431400">
        <ele>170.4</ele>
        <time>2021-06-17T10:15:25Z</time>
      </trkpt>
      <trkpt lat="39.5812860" lon="2.5431170">
        <ele>169.9</ele>
        <time>2021-06-17T10:15:27Z</time>
      </trkpt>
      <trkpt lat="39.5811680" lon="2.5432370">
        <ele>169.3</ele>
        <time>2021-06-17T10:15:29Z</time>
      </trkpt>
      <trkpt lat="39.5810390" lon="2.5436440">
        <ele>168.1</ele>
        <time>2021-06-17T10:15:33Z</time>
      </trkpt>
      <trkpt lat="39.5809990" lon="2.5437470">
        <ele>167.8</ele>
        <time>2021-06-17T10:15:34Z</time>
      </trkpt>
      <trkpt lat="39.5808770" lon="2.5438980">
        <ele>167.4</ele>
        <time>2021-06-17T10:15:36Z</time>
      </trkpt>
      <trkpt lat="39.5807110" lon="2.5439310">
        <ele>166.9</ele>
        <time>2021-06-17T10:15:38Z</time>
      </trkpt>
      <trkpt lat="39.5805560" lon="2.5438470">
        <ele>166.3</ele>
        <time>2021-06-17T10:15:40Z</time>
      </trkpt>
      <trkpt lat="39.5803310" lon="2.5436810">
        <ele>165.3</ele>
        <time>2021-06-17T10:15:43Z</time>
      </trkpt>
      <trkpt lat="39.5799330" lon="2.5433790">
        <ele>164.0</ele>
        <time>2021-06-17T10:15:48Z</time>
      </trkpt>
      <trkpt lat="39.5797640" lon="2.5433310">
        <ele>163.5</ele>
        <time>2021-06-17T10:15:50Z</time>
      </trkpt>
      <trkpt lat="39.5796850" lon="2.5433460">
        <ele>163.3</ele>
        <time>2021-06-17T10:15:51Z</time>
      </trkpt>
      <trkpt lat="39.5796270" lon="2.5433980">
        <ele>162.9</ele>
        <time>2021-06-17T10:15:52Z</time>
      </trkpt>
      <trkpt lat="39.5795940" lon="2.5434960">
        <ele>162.5</ele>
        <time>2021-06-17T10:15:53Z</time>
      </trkpt>
      <trkpt lat="39.5795860" lon="2.5436090">
        <ele>162.0</ele>
        <time>2021-06-17T10:15:54Z</time>
      </trkpt>
      <trkpt lat="39.5795910" lon="2.5438570">
        <ele>160.8</ele>
        <time>2021-06-17T10:15:56Z</time>
      </trkpt>
      <trkpt lat="39.5795970" lon="2.5441010">
        <ele>160.0</ele>
        <time>2021-06-17T10:15:58Z</time>
      </trkpt>
      <trkpt lat="39.5795370" lon="2.5443330">
        <ele>159.3</ele>
        <time>2021-06-17T10:16:00Z</time>
      </trkpt>
      <trkpt lat="39.5793960" lon="2.5444910">
        <ele>158.5</ele>
        <time>2021-06-17T10:16:02Z</time>
      </trkpt>
      <trkpt lat="39.5792210" lon="2.5445180">
        <ele>157.6</ele>
        <time>2021-06-17T10:16:04Z</time>
      </trkpt>
      <trkpt lat="39.5791390" lon="2.5445140">
        <ele>157.2</ele>
        <time>2021-06-17T10:16:05Z</time>
      </trkpt>
      <trkpt lat="39.5790590" lon="2.5444940">
        <ele>156.7</ele>
        <time>2021-06-17T10:16:06Z</time>
      </trkpt>
      <trkpt lat="39.5789270" lon="2.5443940">
        <ele>155.9</ele>
        <time>2021-06-17T10:16:08Z</time>
      </trkpt>
      <trkpt lat="39.5788680" lon="2.5443360">
        <ele>155.6</ele>
        <time>2021-06-17T10:16:09Z</time>
      </trkpt>
      <trkpt lat="39.5787470" lon="2.5442750">
        <ele>155.0</ele>
        <time>2021-06-17T10:16:11Z</time>
      </trkpt>
      <trkpt lat="39.5785880" lon="2.5442660">
        <ele>154.3</ele>
        <time>2021-06-17T10:16:13Z</time>
      </trkpt>
      <trkpt lat="39.5785080" lon="2.5442960">
        <ele>153.9</ele>
        <time>2021-06-17T10:16:14Z</time>
      </trkpt>
      <trkpt lat="39.5784240" lon="2.5443360">
        <ele>153.6</ele>
        <time>2021-06-17T10:16:15Z</time>
      </trkpt>
      <trkpt lat="39.5782010" lon="2.5444520">
        <ele>153.3</ele>
        <time>2021-06-17T10:16:18Z</time>
      </trkpt>
      <trkpt lat="39.5781330" lon="2.5445000">
        <ele>153.3</ele>
        <time>2021-06-17T10:16:19Z</time>
      </trkpt>
      <trkpt lat="39.5777370" lon="2.5446670">
        <ele>154.4</ele>
        <time>2021-06-17T10:16:25Z</time>
      </trkpt>
      <trkpt lat="39.5776830" lon="2.5446880">
        <ele>154.7</ele>
        <time>2021-06-17T10:16:26Z</time>
      </trkpt>
      <trkpt lat="39.5775380" lon="2.5447340">
        <ele>155.6</ele>
        <time>2021-06-17T10:16:29Z</time>
      </trkpt>
      <trkpt lat="39.5773410" lon="2.5447590">
        <ele>156.8</ele>
        <time>2021-06-17T10:16:34Z</time>
      </trkpt>
      <trkpt lat="39.5773000" lon="2.5447490">
        <ele>157.0</ele>
        <time>2021-06-17T10:16:35Z</time>
      </trkpt>
      <trkpt lat="39.5772290" lon="2.5447060">
        <ele>157.2</ele>
        <time>2021-06-17T10:16:37Z</time>
      </trkpt>
      <trkpt lat="39.5771990" lon="2.5446800">
        <ele>157.3</ele>
        <time>2021-06-17T10:16:38Z</time>
      </trkpt>
      <trkpt lat="39.5770590" lon="2.5444800">
        <ele>158.3</ele>
        <time>2021-06-17T10:16:43Z</time>
      </trkpt>
      <trkpt lat="39.5770250" lon="2.5443600">
        <ele>158.8</ele>
        <time>2021-06-17T10:16:45Z</time>
      </trkpt>
      <trkpt lat="39.5770110" lon="2.5442510">
        <ele>159.3</ele>
        <time>2021-06-17T10:16:47Z</time>
      </trkpt>
      <trkpt lat="39.5769960" lon="2.5441440">
        <ele>159.8</ele>
        <time>2021-06-17T10:16:49Z</time>
      </trkpt>
      <trkpt lat="39.5769740" lon="2.5438950">
        <ele>160.9</ele>
        <time>2021-06-17T10:16:54Z</time>
      </trkpt>
      <trkpt lat="39.5769610" lon="2.5437440">
        <ele>161.5</ele>
        <time>2021-06-17T10:16:57Z</time>
      </trkpt>
      <trkpt lat="39.5769540" lon="2.5436470">
        <ele>161.9</ele>
        <time>2021-06-17T10:16:59Z</time>
      </trkpt>
      <trkpt lat="39.5769130" lon="2.5434480">
        <ele>162.1</ele>
        <time>2021-06-17T10:17:03Z</time>
      </trkpt>
      <trkpt lat="39.5768740" lon="2.5433430">
        <ele>162.1</ele>
        <time>2021-06-17T10:17:05Z</time>
      </trkpt>
      <trkpt lat="39.5768530" lon="2.5432850">
        <ele>162.0</ele>
        <time>2021-06-17T10:17:06Z</time>
      </trkpt>
      <trkpt lat="39.5768120" lon="2.5431580">
        <ele>161.8</ele>
        <time>2021-06-17T10:17:08Z</time>
      </trkpt>
      <trkpt lat="39.5767890" lon="2.5430920">
        <ele>161.7</ele>
        <time>2021-06-17T10:17:09Z</time>
      </trkpt>
      <trkpt lat="39.5767660" lon="2.5430230">
        <ele>161.5</ele>
        <time>2021-06-17T10:17:10Z</time>
      </trkpt>
      <trkpt lat="39.5767150" lon="2.5428760">
        <ele>161.2</ele>
        <time>2021-06-17T10:17:12Z</time>
      </trkpt>
      <trkpt lat="39.5766560" lon="2.5427150">
        <ele>160.8</ele>
        <time>2021-06-17T10:17:14Z</time>
      </trkpt>
      <trkpt lat="39.5764840" lon="2.5423060">
        <ele>159.6</ele>
        <time>2021-06-17T10:17:19Z</time>
      </trkpt>
      <trkpt lat="39.5764280" lon="2.5422200">
        <ele>159.3</ele>
        <time>2021-06-17T10:17:20Z</time>
      </trkpt>
      <trkpt lat="39.5763350" lon="2.5420930">
        <ele>158.8</ele>
        <time>2021-06-17T10:17:22Z</time>
      </trkpt>
      <trkpt lat="39.5762130" lon="2.5419460">
        <ele>158.2</ele>
        <time>2021-06-17T10:17:24Z</time>
      </trkpt>
      <trkpt lat="39.5758330" lon="2.5415550">
        <ele>156.1</ele>
        <time>2021-06-17T10:17:30Z</time>
      </trkpt>
      <trkpt lat="39.5756180" lon="2.5412230">
        <ele>154.9</ele>
        <time>2021-06-17T10:17:34Z</time>
      </trkpt>
      <trkpt lat="39.5755810" lon="2.5411500">
        <ele>154.7</ele>
        <time>2021-06-17T10:17:35Z</time>
      </trkpt>
      <trkpt lat="39.5753850" lon="2.5408110">
        <ele>153.6</ele>
        <time>2021-06-17T10:17:39Z</time>
      </trkpt>
      <trkpt lat="39.5753420" lon="2.5407570">
        <ele>153.4</ele>
        <time>2021-06-17T10:17:40Z</time>
      </trkpt>
      <trkpt lat="39.5752850" lon="2.5406910">
        <ele>153.2</ele>
        <time>2021-06-17T10:17:41Z</time>
      </trkpt>
      <trkpt lat="39.5751690" lon="2.5405610">
        <ele>152.7</ele>
        <time>2021-06-17T10:17:43Z</time>
      </trkpt>
      <trkpt lat="39.5749950" lon="2.5403810">
        <ele>152.0</ele>
        <time>2021-06-17T10:17:46Z</time>
      </trkpt>
      <trkpt lat="39.5749360" lon="2.5403170">
        <ele>151.8</ele>
        <time>2021-06-17T10:17:47Z</time>
      </trkpt>
      <trkpt lat="39.5746990" lon="2.5400270">
        <ele>150.7</ele>
        <time>2021-06-17T10:17:51Z</time>
      </trkpt>
      <trkpt lat="39.5746010" lon="2.5398530">
        <ele>150.1</ele>
        <time>2021-06-17T10:17:53Z</time>
      </trkpt>
      <trkpt lat="39.5745190" lon="2.5396570">
        <ele>149.4</ele>
        <time>2021-06-17T10:17:55Z</time>
      </trkpt>
      <trkpt lat="39.5743700" lon="2.5393430">
        <ele>148.3</ele>
        <time>2021-06-17T10:17:58Z</time>
      </trkpt>
      <trkpt lat="39.5743290" lon="2.5392630">
        <ele>148.0</ele>
        <time>2021-06-17T10:17:59Z</time>
      </trkpt>
      <trkpt lat="39.5740200" lon="2.5386650">
        <ele>145.9</ele>
        <time>2021-06-17T10:18:05Z</time>
      </trkpt>
      <trkpt lat="39.5739130" lon="2.5384620">
        <ele>145.2</ele>
        <time>2021-06-17T10:18:07Z</time>
      </trkpt>
      <trkpt lat="39.5737460" lon="2.5381530">
        <ele>144.1</ele>
        <time>2021-06-17T10:18:10Z</time>
      </trkpt>
      <trkpt lat="39.5736110" lon="2.5379720">
        <ele>143.5</ele>
        <time>2021-06-17T10:18:12Z</time>
      </trkpt>
      <trkpt lat="39.5731430" lon="2.5375210">
        <ele>141.8</ele>
        <time>2021-06-17T10:18:18Z</time>
      </trkpt>
      <trkpt lat="39.5729690" lon="2.5374010">
        <ele>141.3</ele>
        <time>2021-06-17T10:18:20Z</time>
      </trkpt>
      <trkpt lat="39.5725340" lon="2.5371370">
        <ele>140.8</ele>
        <time>2021-06-17T10:18:25Z</time>
      </trkpt>
      <trkpt lat="39.5720440" lon="2.5368020">
        <ele>140.4</ele>
        <time>2021-06-17T10:18:31Z</time>
      </trkpt>
      <trkpt lat="39.5719120" lon="2.5366970">
        <ele>140.2</ele>
        <time>2021-06-17T10:18:33Z</time>
      </trkpt>
      <trkpt lat="39.5714250" lon="2.5362410">
        <ele>138.7</ele>
        <time>2021-06-17T10:18:40Z</time>
      </trkpt>
      <trkpt lat="39.5711300" lon="2.5358060">
        <ele>137.7</ele>
        <time>2021-06-17T10:18:45Z</time>
      </trkpt>
      <trkpt lat="39.5709820" lon="2.5357020">
        <ele>137.4</ele>
        <time>2021-06-17T10:18:47Z</time>
      </trkpt>
      <trkpt lat="39.5708980" lon="2.5356850">
        <ele>137.2</ele>
        <time>2021-06-17T10:18:48Z</time>
      </trkpt>
      <trkpt lat="39.5708180" lon="2.5356900">
        <ele>137.0</ele>
        <time>2021-06-17T10:18:49Z</time>
      </trkpt>
      <trkpt lat="39.5706530" lon="2.5357340">
        <ele>136.5</ele>
        <time>2021-06-17T10:18:51Z</time>
      </trkpt>
      <trkpt lat="39.5702430" lon="2.5358580">
        <ele>135.5</ele>
        <time>2021-06-17T10:18:56Z</time>
      </trkpt>
      <trkpt lat="39.5699740" lon="2.5358610">
        <ele>134.5</ele>
        <time>2021-06-17T10:18:59Z</time>
      </trkpt>
      <trkpt lat="39.5698880" lon="2.5358410">
        <ele>134.1</ele>
        <time>2021-06-17T10:19:00Z</time>
      </trkpt>
      <trkpt lat="39.5698170" lon="2.5358170">
        <ele>133.8</ele>
        <time>2021-06-17T10:19:01Z</time>
      </trkpt>
      <trkpt lat="39.5697190" lon="2.5357620">
        <ele>133.4</ele>
        <time>2021-06-17T10:19:02Z</time>
      </trkpt>
      <trkpt lat="39.5696540" lon="2.5357160">
        <ele>133.1</ele>
        <time>2021-06-17T10:19:03Z</time>
      </trkpt>
      <trkpt lat="39.5694910" lon="2.5355950">
        <ele>132.5</ele>
        <time>2021-06-17T10:19:05Z</time>
      </trkpt>
      <trkpt lat="39.5694060" lon="2.5355350">
        <ele>132.2</ele>
        <time>2021-06-17T10:19:06Z</time>
      </trkpt>
      <trkpt lat="39.5692260" lon="2.5354030">
        <ele>131.6</ele>
        <time>2021-06-17T10:19:08Z</time>
      </trkpt>
      <trkpt lat="39.5691460" lon="2.5353410">
        <ele>131.3</ele>
        <time>2021-06-17T10:19:09Z</time>
      </trkpt>
      <trkpt lat="39.5686730" lon="2.5349820">
        <ele>130.0</ele>
        <time>2021-06-17T10:19:15Z</time>
      </trkpt>
      <trkpt lat="39.5686010" lon="2.5348860">
        <ele>129.7</ele>
        <time>2021-06-17T10:19:16Z</time>
      </trkpt>
      <trkpt lat="39.5685720" lon="2.5348080">
        <ele>129.5</ele>
        <time>2021-06-17T10:19:17Z</time>
      </trkpt>
      <trkpt lat="39.5685630" lon="2.5346840">
        <ele>129.1</ele>
        <time>2021-06-17T10:19:18Z</time>
      </trkpt>
      <trkpt lat="39.5685880" lon="2.5346020">
        <ele>128.8</ele>
        <time>2021-06-17T10:19:19Z</time>
      </trkpt>
      <trkpt lat="39.5687010" lon="2.5344080">
        <ele>127.9</ele>
        <time>2021-06-17T10:19:21Z</time>
      </trkpt>
      <trkpt lat="39.5688100" lon="2.5342660">
        <ele>127.3</ele>
        <time>2021-06-17T10:19:23Z</time>
      </trkpt>
      <trkpt lat="39.5689340" lon="2.5340740">
        <ele>126.8</ele>
        <time>2021-06-17T10:19:25Z</time>
      </trkpt>
      <trkpt lat="39.5689730" lon="2.5339760">
        <ele>126.7</ele>
        <time>2021-06-17T10:19:26Z</time>
      </trkpt>
      <trkpt lat="39.5689950" lon="2.5338920">
        <ele>126.6</ele>
        <time>2021-06-17T10:19:27Z</time>
      </trkpt>
      <trkpt lat="39.5690490" lon="2.5335710">
        <ele>126.3</ele>
        <time>2021-06-17T10:19:30Z</time>
      </trkpt>
      <trkpt lat="39.5691180" lon="2.5330160">
        <ele>125.9</ele>
        <time>2021-06-17T10:19:35Z</time>
      </trkpt>
      <trkpt lat="39.5690710" lon="2.5328010">
        <ele>125.9</ele>
        <time>2021-06-17T10:19:37Z</time>
      </trkpt>
      <trkpt lat="39.5690390" lon="2.5327270">
        <ele>126.0</ele>
        <time>2021-06-17T10:19:38Z</time>
      </trkpt>
      <trkpt lat="39.5688220" lon="2.5323160">
        <ele>126.7</ele>
        <time>2021-06-17T10:19:43Z</time>
      </trkpt>
      <trkpt lat="39.5687660" lon="2.5321470">
        <ele>127.1</ele>
        <time>2021-06-17T10:19:45Z</time>
      </trkpt>
      <trkpt lat="39.5687370" lon="2.5320010">
        <ele>127.2</ele>
        <time>2021-06-17T10:19:47Z</time>
      </trkpt>
      <trkpt lat="39.5686860" lon="2.5317270">
        <ele>127.4</ele>
        <time>2021-06-17T10:19:50Z</time>
      </trkpt>
      <trkpt lat="39.5686010" lon="2.5313080">
        <ele>127.2</ele>
        <time>2021-06-17T10:19:55Z</time>
      </trkpt>
      <trkpt lat="39.5685370" lon="2.5309720">
        <ele>126.8</ele>
        <time>2021-06-17T10:19:59Z</time>
      </trkpt>
      <trkpt lat="39.5684870" lon="2.5307250">
        <ele>126.4</ele>
        <time>2021-06-17T10:20:02Z</time>
      </trkpt>
      <trkpt lat="39.5683700" lon="2.5302480">
        <ele>125.5</ele>
        <time>2021-06-17T10:20:07Z</time>
      </trkpt>
      <trkpt lat="39.5683470" lon="2.5301510">
        <ele>125.3</ele>
        <time>2021-06-17T10:20:08Z</time>
      </trkpt>
      <trkpt lat="39.5681600" lon="2.5294410">
        <ele>124.8</ele>
        <time>2021-06-17T10:20:15Z</time>
      </trkpt>
      <trkpt lat="39.5681350" lon="2.5293450">
        <ele>124.8</ele>
        <time>2021-06-17T10:20:16Z</time>
      </trkpt>
      <trkpt lat="39.5679410" lon="2.5286290">
        <ele>124.9</ele>
        <time>2021-06-17T10:20:24Z</time>
      </trkpt>
      <trkpt lat="39.5679100" lon="2.5285450">
        <ele>124.9</ele>
        <time>2021-06-17T10:20:25Z</time>
      </trkpt>
      <trkpt lat="39.5676430" lon="2.5279980">
        <ele>125.3</ele>
        <time>2021-06-17T10:20:32Z</time>
      </trkpt>
      <trkpt lat="39.5673270" lon="2.5273780">
        <ele>126.1</ele>
        <time>2021-06-17T10:20:40Z</time>
      </trkpt>
      <trkpt lat="39.5672860" lon="2.5273010">
        <ele>126.2</ele>
        <time>2021-06-17T10:20:41Z</time>
      </trkpt>
      <trkpt lat="39.5669740" lon="2.5266860">
        <ele>126.2</ele>
        <time>2021-06-17T10:20:49Z</time>
      </trkpt>
      <trkpt lat="39.5668440" lon="2.5263460">
        <ele>125.8</ele>
        <time>2021-06-17T10:20:53Z</time>
      </trkpt>
      <trkpt lat="39.5668320" lon="2.5262470">
        <ele>125.6</ele>
        <time>2021-06-17T10:20:54Z</time>
      </trkpt>
      <trkpt lat="39.5668010" lon="2.5255280">
        <ele>124.5</ele>
        <time>2021-06-17T10:21:01Z</time>
      </trkpt>
      <trkpt lat="39.5667940" lon="2.5253230">
        <ele>124.2</ele>
        <time>2021-06-17T10:21:03Z</time>
      </trkpt>
      <trkpt lat="39.5667830" lon="2.5250070">
        <ele>123.7</ele>
        <time>2021-06-17T10:21:06Z</time>
      </trkpt>
      <trkpt lat="39.5667950" lon="2.5246800">
        <ele>123.3</ele>
        <time>2021-06-17T10:21:09Z</time>
      </trkpt>
      <trkpt lat="39.5668120" lon="2.5245750">
        <ele>123.1</ele>
        <time>2021-06-17T10:21:10Z</time>
      </trkpt>
      <trkpt lat="39.5669730" lon="2.5239700">
        <ele>122.7</ele>
        <time>2021-06-17T10:21:16Z</time>
      </trkpt>
      <trkpt lat="39.5670860" lon="2.5234880">
        <ele>122.8</ele>
        <time>2021-06-17T10:21:21Z</time>
      </trkpt>
      <trkpt lat="39.5670930" lon="2.5233770">
        <ele>122.8</ele>
        <time>2021-06-17T10:21:22Z</time>
      </trkpt>
      <trkpt lat="39.5670870" lon="2.5233040">
        <ele>122.9</ele>
        <time>2021-06-17T10:21:23Z</time>
      </trkpt>
      <trkpt lat="39.5670300" lon="2.5230350">
        <ele>123.2</ele>
        <time>2021-06-17T10:21:26Z</time>
      </trkpt>
      <trkpt lat="39.5668770" lon="2.5226490">
        <ele>123.6</ele>
        <time>2021-06-17T10:21:31Z</time>
      </trkpt>
      <trkpt lat="39.5666630" lon="2.5223510">
        <ele>124.4</ele>
        <time>2021-06-17T10:21:36Z</time>
      </trkpt>
      <trkpt lat="39.5665310" lon="2.5221750">
        <ele>125.0</ele>
        <time>2021-06-17T10:21:39Z</time>
      </trkpt>
      <trkpt lat="39.5664720" lon="2.5220340">
        <ele>125.3</ele>
        <time>2021-06-17T10:21:41Z</time>
      </trkpt>
      <trkpt lat="39.5664110" lon="2.5218020">
        <ele>125.7</ele>
        <time>2021-06-17T10:21:44Z</time>
      </trkpt>
      <trkpt lat="39.5663610" lon="2.5215550">
        <ele>126.1</ele>
        <time>2021-06-17T10:21:47Z</time>
      </trkpt>
      <trkpt lat="39.5663430" lon="2.5214720">
        <ele>126.2</ele>
        <time>2021-06-17T10:21:48Z</time>
      </trkpt>
      <trkpt lat="39.5663140" lon="2.5213080">
        <ele>126.4</ele>
        <time>2021-06-17T10:21:50Z</time>
      </trkpt>
      <trkpt lat="39.5662500" lon="2.5209710">
        <ele>126.8</ele>
        <time>2021-06-17T10:21:54Z</time>
      </trkpt>
      <trkpt lat="39.5661150" lon="2.5203700">
        <ele>126.2</ele>
        <time>2021-06-17T10:22:01Z</time>
      </trkpt>
      <trkpt lat="39.5660660" lon="2.5201790">
        <ele>125.5</ele>
        <time>2021-06-17T10:22:03Z</time>
      </trkpt>
      <trkpt lat="39.5660490" lon="2.5199520">
        <ele>124.5</ele>
        <time>2021-06-17T10:22:05Z</time>
      </trkpt>
      <trkpt lat="39.5660850" lon="2.5194150">
        <ele>122.0</ele>
        <time>2021-06-17T10:22:10Z</time>
      </trkpt>
      <trkpt lat="39.5661170" lon="2.5190550">
        <ele>120.2</ele>
        <time>2021-06-17T10:22:13Z</time>
      </trkpt>
      <trkpt lat="39.5661500" lon="2.5186830">
        <ele>118.6</ele>
        <time>2021-06-17T10:22:16Z</time>
      </trkpt>
      <trkpt lat="39.5661600" lon="2.5185550">
        <ele>118.1</ele>
        <time>2021-06-17T10:22:17Z</time>
      </trkpt>
      <trkpt lat="39.5662030" lon="2.5180610">
        <ele>117.3</ele>
        <time>2021-06-17T10:22:21Z</time>
      </trkpt>
      <trkpt lat="39.5662260" lon="2.5177090">
        <ele>117.5</ele>
        <time>2021-06-17T10:22:24Z</time>
      </trkpt>
      <trkpt lat="39.5662430" lon="2.5174890">
        <ele>118.0</ele>
        <time>2021-06-17T10:22:26Z</time>
      </trkpt>
      <trkpt lat="39.5662630" lon="2.5172870">
        <ele>118.8</ele>
        <time>2021-06-17T10:22:28Z</time>
      </trkpt>
      <trkpt lat="39.5662880" lon="2.5171030">
        <ele>119.6</ele>
        <time>2021-06-17T10:22:30Z</time>
      </trkpt>
      <trkpt lat="39.5663030" lon="2.5170160">
        <ele>120.1</ele>
        <time>2021-06-17T10:22:31Z</time>
      </trkpt>
      <trkpt lat="39.5664120" lon="2.5165350">
        <ele>121.9</ele>
        <time>2021-06-17T10:22:37Z</time>
      </trkpt>
      <trkpt lat="39.5665020" lon="2.5161130">
        <ele>123.5</ele>
        <time>2021-06-17T10:22:43Z</time>
      </trkpt>
      <trkpt lat="39.5665410" lon="2.5156960">
        <ele>125.2</ele>
        <time>2021-06-17T10:22:49Z</time>
      </trkpt>
      <trkpt lat="39.5665260" lon="2.5152390">
        <ele>126.1</ele>
        <time>2021-06-17T10:22:56Z</time>
      </trkpt>
      <trkpt lat="39.5665220" lon="2.5151030">
        <ele>125.8</ele>
        <time>2021-06-17T10:22:58Z</time>
      </trkpt>
      <trkpt lat="39.5665070" lon="2.5148660">
        <ele>125.0</ele>
        <time>2021-06-17T10:23:01Z</time>
      </trkpt>
      <trkpt lat="39.5665000" lon="2.5146860">
        <ele>124.2</ele>
        <time>2021-06-17T10:23:03Z</time>
      </trkpt>
      <trkpt lat="39.5664720" lon="2.5142790">
        <ele>122.6</ele>
        <time>2021-06-17T10:23:07Z</time>
      </trkpt>
      <trkpt lat="39.5664560" lon="2.5139420">
        <ele>121.3</ele>
        <time>2021-06-17T10:23:10Z</time>
      </trkpt>
      <trkpt lat="39.5664440" lon="2.5137010">
        <ele>120.4</ele>
        <time>2021-06-17T10:23:12Z</time>
      </trkpt>
      <trkpt lat="39.5664270" lon="2.5134580">
        <ele>119.8</ele>
        <time>2021-06-17T10:23:14Z</time>
      </trkpt>
      <trkpt lat="39.5663850" lon="2.5128100">
        <ele>120.2</ele>
        <time>2021-06-17T10:23:20Z</time>
      </trkpt>
      <trkpt lat="39.5663500" lon="2.5123870">
        <ele>121.5</ele>
        <time>2021-06-17T10:23:25Z</time>
      </trkpt>
      <trkpt lat="39.5663270" lon="2.5121260">
        <ele>122.4</ele>
        <time>2021-06-17T10:23:29Z</time>
      </trkpt>
      <trkpt lat="39.5663170" lon="2.5120020">
        <ele>122.8</ele>
        <time>2021-06-17T10:23:31Z</time>
      </trkpt>
      <trkpt lat="39.5662790" lon="2.5114370">
        <ele>124.5</ele>
        <time>2021-06-17T10:23:40Z</time>
      </trkpt>
      <trkpt lat="39.5662440" lon="2.5110680">
        <ele>125.7</ele>
        <time>2021-06-17T10:23:46Z</time>
      </trkpt>
      <trkpt lat="39.5662360" lon="2.5109620">
        <ele>126.2</ele>
        <time>2021-06-17T10:23:48Z</time>
      </trkpt>
      <trkpt lat="39.5662150" lon="2.5106960">
        <ele>127.7</ele>
        <time>2021-06-17T10:23:53Z</time>
      </trkpt>
      <trkpt lat="39.5662130" lon="2.5105920">
        <ele>128.3</ele>
        <time>2021-06-17T10:23:55Z</time>
      </trkpt>
      <trkpt lat="39.5662050" lon="2.5104370">
        <ele>129.1</ele>
        <time>2021-06-17T10:23:58Z</time>
      </trkpt>
      <trkpt lat="39.5662000" lon="2.5102330">
        <ele>130.7</ele>
        <time>2021-06-17T10:24:02Z</time>
      </trkpt>
      <trkpt lat="39.5662080" lon="2.5101920">
        <ele>131.0</ele>
        <time>2021-06-17T10:24:03Z</time>
      </trkpt>
      <trkpt lat="39.5662500" lon="2.5101550">
        <ele>131.4</ele>
        <time>2021-06-17T10:24:05Z</time>
      </trkpt>
      <trkpt lat="39.5663960" lon="2.5101550">
        <ele>132.4</ele>
        <time>2021-06-17T10:24:10Z</time>
      </trkpt>
      <trkpt lat="39.5665720" lon="2.5101730">
        <ele>133.5</ele>
        <time>2021-06-17T10:24:16Z</time>
      </trkpt>
      <trkpt lat="39.5667770" lon="2.5101430">
        <ele>134.8</ele>
        <time>2021-06-17T10:24:23Z</time>
      </trkpt>
      <trkpt lat="39.5670530" lon="2.5101260">
        <ele>136.2</ele>
        <time>2021-06-17T10:24:32Z</time>
      </trkpt>
      <trkpt lat="39.5673790" lon="2.5100720">
        <ele>137.8</ele>
        <time>2021-06-17T10:24:41Z</time>
      </trkpt>
      <trkpt lat="39.5675740" lon="2.5100540">
        <ele>138.9</ele>
        <time>2021-06-17T10:24:46Z</time>
      </trkpt>
      <trkpt lat="39.5678840" lon="2.5100270">
        <ele>140.6</ele>
        <time>2021-06-17T10:24:54Z</time>
      </trkpt>
      <trkpt lat="39.5680180" lon="2.5099650">
        <ele>141.0</ele>
        <time>2021-06-17T10:24:58Z</time>
      </trkpt>
      <trkpt lat="39.5680350" lon="2.5098840">
        <ele>141.1</ele>
        <time>2021-06-17T10:25:00Z</time>
      </trkpt>
      <trkpt lat="39.5680280" lon="2.5098370">
        <ele>141.1</ele>
        <time>2021-06-17T10:25:01Z</time>
      </trkpt>
      <trkpt lat="39.5679290" lon="2.5096770">
        <ele>141.0</ele>
        <time>2021-06-17T10:25:05Z</time>
      </trkpt>
      <trkpt lat="39.5677730" lon="2.5094500">
        <ele>140.3</ele>
        <time>2021-06-17T10:25:10Z</time>
      </trkpt>
      <trkpt lat="39.5676210" lon="2.5092310">
        <ele>139.3</ele>
        <time>2021-06-17T10:25:14Z</time>
      </trkpt>
      <trkpt lat="39.5675900" lon="2.5091870">
        <ele>139.1</ele>
        <time>2021-06-17T10:25:15Z</time>
      </trkpt>
      <trkpt lat="39.5675080" lon="2.5090540">
        <ele>138.5</ele>
        <time>2021-06-17T10:25:17Z</time>
      </trkpt>
      <trkpt lat="39.5673020" lon="2.5086850">
        <ele>136.5</ele>
        <time>2021-06-17T10:25:23Z</time>
      </trkpt>
      <trkpt lat="39.5672710" lon="2.5086360">
        <ele>136.3</ele>
        <time>2021-06-17T10:25:24Z</time>
      </trkpt>
      <trkpt lat="39.5670510" lon="2.5083360">
        <ele>135.1</ele>
        <time>2021-06-17T10:25:29Z</time>
      </trkpt>
      <trkpt lat="39.5670140" lon="2.5082850">
        <ele>134.9</ele>
        <time>2021-06-17T10:25:30Z</time>
      </trkpt>
      <trkpt lat="39.5669840" lon="2.5082450">
        <ele>134.9</ele>
        <time>2021-06-17T10:25:31Z</time>
      </trkpt>
      <trkpt lat="39.5669430" lon="2.5081510">
        <ele>134.7</ele>
        <time>2021-06-17T10:25:34Z</time>
      </trkpt>
      <trkpt lat="39.5669790" lon="2.5081070">
        <ele>134.3</ele>
        <time>2021-06-17T10:25:36Z</time>
      </trkpt>
      <trkpt lat="39.5670150" lon="2.5081030">
        <ele>134.1</ele>
        <time>2021-06-17T10:25:37Z</time>
      </trkpt>
      <trkpt lat="39.5671020" lon="2.5081060">
        <ele>133.6</ele>
        <time>2021-06-17T10:25:39Z</time>
      </trkpt>
      <trkpt lat="39.5672770" lon="2.5081030">
        <ele>132.5</ele>
        <time>2021-06-17T10:25:42Z</time>
      </trkpt>
      <trkpt lat="39.5675820" lon="2.5080390">
        <ele>130.8</ele>
        <time>2021-06-17T10:25:46Z</time>
      </trkpt>
      <trkpt lat="39.5677370" lon="2.5080170">
        <ele>130.1</ele>
        <time>2021-06-17T10:25:48Z</time>
      </trkpt>
      <trkpt lat="39.5679380" lon="2.5079700">
        <ele>129.6</ele>
        <time>2021-06-17T10:25:51Z</time>
      </trkpt>
      <trkpt lat="39.5679870" lon="2.5079480">
        <ele>129.6</ele>
        <time>2021-06-17T10:25:52Z</time>
      </trkpt>
      <trkpt lat="39.5680220" lon="2.5079260">
        <ele>129.8</ele>
        <time>2021-06-17T10:25:53Z</time>
      </trkpt>
      <trkpt lat="39.5680640" lon="2.5078720">
        <ele>129.6</ele>
        <time>2021-06-17T10:25:55Z</time>
      </trkpt>
      <trkpt lat="39.5680730" lon="2.5078440">
        <ele>129.6</ele>
        <time>2021-06-17T10:25:56Z</time>
      </trkpt>
      <trkpt lat="39.5680580" lon="2.5077680">
        <ele>129.4</ele>
        <time>2021-06-17T10:25:58Z</time>
      </trkpt>
      <trkpt lat="39.5680230" lon="2.5074630">
        <ele>128.8</ele>
        <time>2021-06-17T10:26:03Z</time>
      </trkpt>
      <trkpt lat="39.5679750" lon="2.5070000">
        <ele>128.5</ele>
        <time>2021-06-17T10:26:09Z</time>
      </trkpt>
      <trkpt lat="39.5679690" lon="2.5068630">
        <ele>128.5</ele>
        <time>2021-06-17T10:26:11Z</time>
      </trkpt>
      <trkpt lat="39.5679480" lon="2.5066350">
        <ele>128.4</ele>
        <time>2021-06-17T10:26:14Z</time>
      </trkpt>
      <trkpt lat="39.5679330" lon="2.5064760">
        <ele>128.2</ele>
        <time>2021-06-17T10:26:16Z</time>
      </trkpt>
      <trkpt lat="39.5678760" lon="2.5060810">
        <ele>127.8</ele>
        <time>2021-06-17T10:26:21Z</time>
      </trkpt>
      <trkpt lat="39.5678310" lon="2.5057700">
        <ele>127.7</ele>
        <time>2021-06-17T10:26:25Z</time>
      </trkpt>
      <trkpt lat="39.5678020" lon="2.5053210">
        <ele>127.9</ele>
        <time>2021-06-17T10:26:31Z</time>
      </trkpt>
      <trkpt lat="39.5677960" lon="2.5051240">
        <ele>128.0</ele>
        <time>2021-06-17T10:26:34Z</time>
      </trkpt>
      <trkpt lat="39.5678150" lon="2.5050650">
        <ele>128.0</ele>
        <time>2021-06-17T10:26:35Z</time>
      </trkpt>
      <trkpt lat="39.5678440" lon="2.5050110">
        <ele>128.0</ele>
        <time>2021-06-17T10:26:36Z</time>
      </trkpt>
      <trkpt lat="39.5679250" lon="2.5049320">
        <ele>128.0</ele>
        <time>2021-06-17T10:26:38Z</time>
      </trkpt>
      <trkpt lat="39.5681860" lon="2.5046570">
        <ele>128.7</ele>
        <time>2021-06-17T10:26:45Z</time>
      </trkpt>
      <trkpt lat="39.5682460" lon="2.5045650">
        <ele>129.0</ele>
        <time>2021-06-17T10:26:47Z</time>
      </trkpt>
      <trkpt lat="39.5682630" lon="2.5044660">
        <ele>129.3</ele>
        <time>2021-06-17T10:26:49Z</time>
      </trkpt>
      <trkpt lat="39.5682490" lon="2.5042760">
        <ele>129.7</ele>
        <time>2021-06-17T10:26:53Z</time>
      </trkpt>
      <trkpt lat="39.5682330" lon="2.5041510">
        <ele>130.1</ele>
        <time>2021-06-17T10:26:55Z</time>
      </trkpt>
      <trkpt lat="39.5681950" lon="2.5039390">
        <ele>130.9</ele>
        <time>2021-06-17T10:26:59Z</time>
      </trkpt>
      <trkpt lat="39.5681300" lon="2.5037350">
        <ele>131.9</ele>
        <time>2021-06-17T10:27:03Z</time>
      </trkpt>
      <trkpt lat="39.5680680" lon="2.5035330">
        <ele>132.9</ele>
        <time>2021-06-17T10:27:07Z</time>
      </trkpt>
      <trkpt lat="39.5680520" lon="2.5034810">
        <ele>133.2</ele>
        <time>2021-06-17T10:27:08Z</time>
      </trkpt>
      <trkpt lat="39.5680370" lon="2.5034290">
        <ele>133.4</ele>
        <time>2021-06-17T10:27:09Z</time>
      </trkpt>
      <trkpt lat="39.5680110" lon="2.5033480">
        <ele>133.7</ele>
        <time>2021-06-17T10:27:11Z</time>
      </trkpt>
      <trkpt lat="39.5679950" lon="2.5032960">
        <ele>133.9</ele>
        <time>2021-06-17T10:27:12Z</time>
      </trkpt>
      <trkpt lat="39.5679740" lon="2.5032100">
        <ele>134.2</ele>
        <time>2021-06-17T10:27:14Z</time>
      </trkpt>
      <trkpt lat="39.5679610" lon="2.5031640">
        <ele>134.3</ele>
        <time>2021-06-17T10:27:15Z</time>
      </trkpt>
      <trkpt lat="39.5679380" lon="2.5030680">
        <ele>134.6</ele>
        <time>2021-06-17T10:27:17Z</time>
      </trkpt>
      <trkpt lat="39.5679080" lon="2.5029690">
        <ele>134.9</ele>
        <time>2021-06-17T10:27:19Z</time>
      </trkpt>
      <trkpt lat="39.5677990" lon="2.5026140">
        <ele>136.0</ele>
        <time>2021-06-17T10:27:26Z</time>
      </trkpt>
      <trkpt lat="39.5676840" lon="2.5022360">
        <ele>136.3</ele>
        <time>2021-06-17T10:27:33Z</time>
      </trkpt>
      <trkpt lat="39.5676030" lon="2.5018490">
        <ele>135.4</ele>
        <time>2021-06-17T10:27:38Z</time>
      </trkpt>
      <trkpt lat="39.5675930" lon="2.5015780">
        <ele>134.7</ele>
        <time>2021-06-17T10:27:41Z</time>
      </trkpt>
      <trkpt lat="39.5675850" lon="2.5013800">
        <ele>134.4</ele>
        <time>2021-06-17T10:27:43Z</time>
      </trkpt>
      <trkpt lat="39.5675740" lon="2.5011000">
        <ele>134.2</ele>
        <time>2021-06-17T10:27:46Z</time>
      </trkpt>
      <trkpt lat="39.5675690" lon="2.5009330">
        <ele>134.1</ele>
        <time>2021-06-17T10:27:48Z</time>
      </trkpt>
      <trkpt lat="39.5675690" lon="2.5008530">
        <ele>134.1</ele>
        <time>2021-06-17T10:27:49Z</time>
      </trkpt>
      <trkpt lat="39.5675630" lon="2.5007020">
        <ele>134.1</ele>
        <time>2021-06-17T10:27:51Z</time>
      </trkpt>
      <trkpt lat="39.5675590" lon="2.5004810">
        <ele>134.1</ele>
        <time>2021-06-17T10:27:54Z</time>
      </trkpt>
      <trkpt lat="39.5675570" lon="2.5002550">
        <ele>133.9</ele>
        <time>2021-06-17T10:27:57Z</time>
      </trkpt>
      <trkpt lat="39.5675470" lon="2.4998480">
        <ele>132.9</ele>
        <time>2021-06-17T10:28:02Z</time>
      </trkpt>
      <trkpt lat="39.5675390" lon="2.4997570">
        <ele>132.4</ele>
        <time>2021-06-17T10:28:03Z</time>
      </trkpt>
      <trkpt lat="39.5674300" lon="2.4991900">
        <ele>129.1</ele>
        <time>2021-06-17T10:28:09Z</time>
      </trkpt>
      <trkpt lat="39.5673780" lon="2.4990490">
        <ele>127.6</ele>
        <time>2021-06-17T10:28:11Z</time>
      </trkpt>
      <trkpt lat="39.5673320" lon="2.4989900">
        <ele>126.7</ele>
        <time>2021-06-17T10:28:12Z</time>
      </trkpt>
      <trkpt lat="39.5672790" lon="2.4989520">
        <ele>125.8</ele>
        <time>2021-06-17T10:28:13Z</time>
      </trkpt>
      <trkpt lat="39.5671660" lon="2.4989210">
        <ele>124.2</ele>
        <time>2021-06-17T10:28:15Z</time>
      </trkpt>
      <trkpt lat="39.5670310" lon="2.4989130">
        <ele>122.3</ele>
        <time>2021-06-17T10:28:18Z</time>
      </trkpt>
      <trkpt lat="39.5669770" lon="2.4989120">
        <ele>121.5</ele>
        <time>2021-06-17T10:28:19Z</time>
      </trkpt>
      <trkpt lat="39.5668860" lon="2.4989050">
        <ele>120.1</ele>
        <time>2021-06-17T10:28:21Z</time>
      </trkpt>
      <trkpt lat="39.5667150" lon="2.4988870">
        <ele>117.5</ele>
        <time>2021-06-17T10:28:24Z</time>
      </trkpt>
      <trkpt lat="39.5665260" lon="2.4988490">
        <ele>114.4</ele>
        <time>2021-06-17T10:28:27Z</time>
      </trkpt>
      <trkpt lat="39.5663370" lon="2.4988050">
        <ele>111.1</ele>
        <time>2021-06-17T10:28:30Z</time>
      </trkpt>
      <trkpt lat="39.5660980" lon="2.4987290">
        <ele>105.1</ele>
        <time>2021-06-17T10:28:35Z</time>
      </trkpt>
      <trkpt lat="39.5660630" lon="2.4986840">
        <ele>104.8</ele>
        <time>2021-06-17T10:28:37Z</time>
      </trkpt>
      <trkpt lat="39.5660630" lon="2.4986460">
        <ele>104.6</ele>
        <time>2021-06-17T10:28:38Z</time>
      </trkpt>
      <trkpt lat="39.5661240" lon="2.4983780">
        <ele>103.5</ele>
        <time>2021-06-17T10:28:43Z</time>
      </trkpt>
      <trkpt lat="39.5661630" lon="2.4981200">
        <ele>102.6</ele>
        <time>2021-06-17T10:28:47Z</time>
      </trkpt>
      <trkpt lat="39.5661730" lon="2.4980610">
        <ele>102.4</ele>
        <time>2021-06-17T10:28:48Z</time>
      </trkpt>
      <trkpt lat="39.5661820" lon="2.4979960">
        <ele>102.1</ele>
        <time>2021-06-17T10:28:49Z</time>
      </trkpt>
      <trkpt lat="39.5662310" lon="2.4977250">
        <ele>101.2</ele>
        <time>2021-06-17T10:28:53Z</time>
      </trkpt>
      <trkpt lat="39.5663010" lon="2.4973240">
        <ele>99.9</ele>
        <time>2021-06-17T10:28:58Z</time>
      </trkpt>
      <trkpt lat="39.5663810" lon="2.4967650">
        <ele>98.5</ele>
        <time>2021-06-17T10:29:04Z</time>
      </trkpt>
      <trkpt lat="39.5663970" lon="2.4966680">
        <ele>98.1</ele>
        <time>2021-06-17T10:29:05Z</time>
      </trkpt>
      <trkpt lat="39.5664280" lon="2.4964660">
        <ele>97.5</ele>
        <time>2021-06-17T10:29:07Z</time>
      </trkpt>
      <trkpt lat="39.5664810" lon="2.4961460">
        <ele>96.5</ele>
        <time>2021-06-17T10:29:10Z</time>
      </trkpt>
      <trkpt lat="39.5665410" lon="2.4958180">
        <ele>95.4</ele>
        <time>2021-06-17T10:29:13Z</time>
      </trkpt>
      <trkpt lat="39.5666010" lon="2.4954790">
        <ele>94.4</ele>
        <time>2021-06-17T10:29:16Z</time>
      </trkpt>
      <trkpt lat="39.5666230" lon="2.4953660">
        <ele>94.0</ele>
        <time>2021-06-17T10:29:17Z</time>
      </trkpt>
      <trkpt lat="39.5667660" lon="2.4947730">
        <ele>92.2</ele>
        <time>2021-06-17T10:29:22Z</time>
      </trkpt>
      <trkpt lat="39.5668980" lon="2.4944250">
        <ele>91.2</ele>
        <time>2021-06-17T10:29:25Z</time>
      </trkpt>
      <trkpt lat="39.5670410" lon="2.4940970">
        <ele>90.5</ele>
        <time>2021-06-17T10:29:28Z</time>
      </trkpt>
      <trkpt lat="39.5672420" lon="2.4936770">
        <ele>89.9</ele>
        <time>2021-06-17T10:29:32Z</time>
      </trkpt>
      <trkpt lat="39.5672930" lon="2.4935710">
        <ele>89.8</ele>
        <time>2021-06-17T10:29:33Z</time>
      </trkpt>
      <trkpt lat="39.5673870" lon="2.4933590">
        <ele>89.6</ele>
        <time>2021-06-17T10:29:35Z</time>
      </trkpt>
      <trkpt lat="39.5675790" lon="2.4929370">
        <ele>89.3</ele>
        <time>2021-06-17T10:29:39Z</time>
      </trkpt>
      <trkpt lat="39.5678660" lon="2.4923180">
        <ele>88.7</ele>
        <time>2021-06-17T10:29:45Z</time>
      </trkpt>
      <trkpt lat="39.5679570" lon="2.4921140">
        <ele>88.5</ele>
        <time>2021-06-17T10:29:47Z</time>
      </trkpt>
      <trkpt lat="39.5681490" lon="2.4917010">
        <ele>87.4</ele>
        <time>2021-06-17T10:29:51Z</time>
      </trkpt>
      <trkpt lat="39.5684680" lon="2.4909970">
        <ele>85.6</ele>
        <time>2021-06-17T10:29:57Z</time>
      </trkpt>
      <trkpt lat="39.5686780" lon="2.4904060">
        <ele>85.1</ele>
        <time>2021-06-17T10:30:02Z</time>
      </trkpt>
      <trkpt lat="39.5687070" lon="2.4903160">
        <ele>85.2</ele>
        <time>2021-06-17T10:30:03Z</time>
      </trkpt>
      <trkpt lat="39.5688410" lon="2.4897700">
        <ele>86.7</ele>
        <time>2021-06-17T10:30:08Z</time>
      </trkpt>
      <trkpt lat="39.5689290" lon="2.4892660">
        <ele>89.1</ele>
        <time>2021-06-17T10:30:14Z</time>
      </trkpt>
      <trkpt lat="39.5690010" lon="2.4888050">
        <ele>91.6</ele>
        <time>2021-06-17T10:30:21Z</time>
      </trkpt>
      <trkpt lat="39.5690360" lon="2.4886190">
        <ele>92.7</ele>
        <time>2021-06-17T10:30:24Z</time>
      </trkpt>
      <trkpt lat="39.5690750" lon="2.4883560">
        <ele>94.3</ele>
        <time>2021-06-17T10:30:28Z</time>
      </trkpt>
      <trkpt lat="39.5691080" lon="2.4881760">
        <ele>95.4</ele>
        <time>2021-06-17T10:30:31Z</time>
      </trkpt>
      <trkpt lat="39.5691550" lon="2.4879100">
        <ele>96.8</ele>
        <time>2021-06-17T10:30:36Z</time>
      </trkpt>
      <trkpt lat="39.5691820" lon="2.4877470">
        <ele>97.6</ele>
        <time>2021-06-17T10:30:39Z</time>
      </trkpt>
      <trkpt lat="39.5692090" lon="2.4875760">
        <ele>98.2</ele>
        <time>2021-06-17T10:30:42Z</time>
      </trkpt>
      <trkpt lat="39.5692620" lon="2.4872760">
        <ele>99.1</ele>
        <time>2021-06-17T10:30:47Z</time>
      </trkpt>
      <trkpt lat="39.5692920" lon="2.4871090">
        <ele>99.4</ele>
        <time>2021-06-17T10:30:50Z</time>
      </trkpt>
      <trkpt lat="39.5693190" lon="2.4869860">
        <ele>99.4</ele>
        <time>2021-06-17T10:30:52Z</time>
      </trkpt>
      <trkpt lat="39.5693880" lon="2.4867110">
        <ele>99.3</ele>
        <time>2021-06-17T10:30:56Z</time>
      </trkpt>
      <trkpt lat="39.5695650" lon="2.4862370">
        <ele>99.0</ele>
        <time>2021-06-17T10:31:02Z</time>
      </trkpt>
      <trkpt lat="39.5698270" lon="2.4857350">
        <ele>98.4</ele>
        <time>2021-06-17T10:31:09Z</time>
      </trkpt>
      <trkpt lat="39.5701700" lon="2.4851320">
        <ele>97.9</ele>
        <time>2021-06-17T10:31:17Z</time>
      </trkpt>
      <trkpt lat="39.5703060" lon="2.4849050">
        <ele>97.7</ele>
        <time>2021-06-17T10:31:20Z</time>
      </trkpt>
      <trkpt lat="39.5704900" lon="2.4845790">
        <ele>97.0</ele>
        <time>2021-06-17T10:31:24Z</time>
      </trkpt>
      <trkpt lat="39.5706380" lon="2.4843250">
        <ele>96.3</ele>
        <time>2021-06-17T10:31:27Z</time>
      </trkpt>
      <trkpt lat="39.5706920" lon="2.4842360">
        <ele>96.0</ele>
        <time>2021-06-17T10:31:28Z</time>
      </trkpt>
      <trkpt lat="39.5709710" lon="2.4837650">
        <ele>94.0</ele>
        <time>2021-06-17T10:31:33Z</time>
      </trkpt>
      <trkpt lat="39.5710920" lon="2.4835570">
        <ele>92.7</ele>
        <time>2021-06-17T10:31:35Z</time>
      </trkpt>
      <trkpt lat="39.5714340" lon="2.4829830">
        <ele>89.1</ele>
        <time>2021-06-17T10:31:40Z</time>
      </trkpt>
      <trkpt lat="39.5715040" lon="2.4828600">
        <ele>88.5</ele>
        <time>2021-06-17T10:31:41Z</time>
      </trkpt>
      <trkpt lat="39.5718540" lon="2.4822420">
        <ele>87.1</ele>
        <time>2021-06-17T10:31:46Z</time>
      </trkpt>
      <trkpt lat="39.5720570" lon="2.4818970">
        <ele>87.4</ele>
        <time>2021-06-17T10:31:49Z</time>
      </trkpt>
      <trkpt lat="39.5723350" lon="2.4814210">
        <ele>88.7</ele>
        <time>2021-06-17T10:31:54Z</time>
      </trkpt>
      <trkpt lat="39.5724670" lon="2.4811880">
        <ele>89.4</ele>
        <time>2021-06-17T10:31:57Z</time>
      </trkpt>
      <trkpt lat="39.5725460" lon="2.4810460">
        <ele>90.0</ele>
        <time>2021-06-17T10:31:59Z</time>
      </trkpt>
      <trkpt lat="39.5727220" lon="2.4807440">
        <ele>91.4</ele>
        <time>2021-06-17T10:32:04Z</time>
      </trkpt>
      <trkpt lat="39.5727590" lon="2.4806750">
        <ele>91.7</ele>
        <time>2021-06-17T10:32:05Z</time>
      </trkpt>
      <trkpt lat="39.5728710" lon="2.4804700">
        <ele>92.5</ele>
        <time>2021-06-17T10:32:09Z</time>
      </trkpt>
      <trkpt lat="39.5729000" lon="2.4804170">
        <ele>92.7</ele>
        <time>2021-06-17T10:32:10Z</time>
      </trkpt>
      <trkpt lat="39.5730820" lon="2.4801000">
        <ele>94.0</ele>
        <time>2021-06-17T10:32:16Z</time>
      </trkpt>
      <trkpt lat="39.5731410" lon="2.4799940">
        <ele>94.4</ele>
        <time>2021-06-17T10:32:18Z</time>
      </trkpt>
      <trkpt lat="39.5732610" lon="2.4797970">
        <ele>95.1</ele>
        <time>2021-06-17T10:32:22Z</time>
      </trkpt>
      <trkpt lat="39.5733560" lon="2.4796390">
        <ele>95.7</ele>
        <time>2021-06-17T10:32:25Z</time>
      </trkpt>
      <trkpt lat="39.5736110" lon="2.4791930">
        <ele>97.3</ele>
        <time>2021-06-17T10:32:33Z</time>
      </trkpt>
      <trkpt lat="39.5736430" lon="2.4791380">
        <ele>97.5</ele>
        <time>2021-06-17T10:32:34Z</time>
      </trkpt>
      <trkpt lat="39.5737090" lon="2.4790340">
        <ele>97.9</ele>
        <time>2021-06-17T10:32:36Z</time>
      </trkpt>
      <trkpt lat="39.5740120" lon="2.4785540">
        <ele>99.6</ele>
        <time>2021-06-17T10:32:45Z</time>
      </trkpt>
      <trkpt lat="39.5742770" lon="2.4782950">
        <ele>100.6</ele>
        <time>2021-06-17T10:32:51Z</time>
      </trkpt>
      <trkpt lat="39.5746180" lon="2.4781320">
        <ele>101.6</ele>
        <time>2021-06-17T10:32:58Z</time>
      </trkpt>
      <trkpt lat="39.5749720" lon="2.4780810">
        <ele>102.8</ele>
        <time>2021-06-17T10:33:05Z</time>
      </trkpt>
      <trkpt lat="39.5754660" lon="2.4780470">
        <ele>104.7</ele>
        <time>2021-06-17T10:33:15Z</time>
      </trkpt>
      <trkpt lat="39.5755620" lon="2.4780330">
        <ele>105.1</ele>
        <time>2021-06-17T10:33:17Z</time>
      </trkpt>
      <trkpt lat="39.5759280" lon="2.4778670">
        <ele>106.6</ele>
        <time>2021-06-17T10:33:25Z</time>
      </trkpt>
      <trkpt lat="39.5761980" lon="2.4775960">
        <ele>107.8</ele>
        <time>2021-06-17T10:33:32Z</time>
      </trkpt>
      <trkpt lat="39.5764010" lon="2.4772340">
        <ele>109.0</ele>
        <time>2021-06-17T10:33:39Z</time>
      </trkpt>
      <trkpt lat="39.5765190" lon="2.4768190">
        <ele>110.2</ele>
        <time>2021-06-17T10:33:46Z</time>
      </trkpt>
      <trkpt lat="39.5765690" lon="2.4766410">
        <ele>110.7</ele>
        <time>2021-06-17T10:33:49Z</time>
      </trkpt>
      <trkpt lat="39.5767310" lon="2.4760480">
        <ele>112.3</ele>
        <time>2021-06-17T10:33:59Z</time>
      </trkpt>
      <trkpt lat="39.5768820" lon="2.4754480">
        <ele>114.1</ele>
        <time>2021-06-17T10:34:09Z</time>
      </trkpt>
      <trkpt lat="39.5770450" lon="2.4748780">
        <ele>115.9</ele>
        <time>2021-06-17T10:34:19Z</time>
      </trkpt>
      <trkpt lat="39.5771860" lon="2.4743730">
        <ele>117.1</ele>
        <time>2021-06-17T10:34:28Z</time>
      </trkpt>
      <trkpt lat="39.5773050" lon="2.4739690">
        <ele>117.7</ele>
        <time>2021-06-17T10:34:35Z</time>
      </trkpt>
      <trkpt lat="39.5773360" lon="2.4738520">
        <ele>117.9</ele>
        <time>2021-06-17T10:34:37Z</time>
      </trkpt>
      <trkpt lat="39.5775110" lon="2.4732320">
        <ele>119.5</ele>
        <time>2021-06-17T10:34:48Z</time>
      </trkpt>
      <trkpt lat="39.5776640" lon="2.4727030">
        <ele>121.5</ele>
        <time>2021-06-17T10:34:58Z</time>
      </trkpt>
      <trkpt lat="39.5778030" lon="2.4722070">
        <ele>123.7</ele>
        <time>2021-06-17T10:35:08Z</time>
      </trkpt>
      <trkpt lat="39.5778870" lon="2.4718690">
        <ele>125.2</ele>
        <time>2021-06-17T10:35:15Z</time>
      </trkpt>
      <trkpt lat="39.5780050" lon="2.4714220">
        <ele>126.7</ele>
        <time>2021-06-17T10:35:24Z</time>
      </trkpt>
      <trkpt lat="39.5781520" lon="2.4709710">
        <ele>127.5</ele>
        <time>2021-06-17T10:35:33Z</time>
      </trkpt>
      <trkpt lat="39.5782220" lon="2.4708110">
        <ele>127.5</ele>
        <time>2021-06-17T10:35:36Z</time>
      </trkpt>
      <trkpt lat="39.5783320" lon="2.4706100">
        <ele>127.5</ele>
        <time>2021-06-17T10:35:40Z</time>
      </trkpt>
      <trkpt lat="39.5784690" lon="2.4703750">
        <ele>127.5</ele>
        <time>2021-06-17T10:35:45Z</time>
      </trkpt>
      <trkpt lat="39.5785000" lon="2.4703260">
        <ele>127.5</ele>
        <time>2021-06-17T10:35:46Z</time>
      </trkpt>
      <trkpt lat="39.5785550" lon="2.4702460">
        <ele>127.5</ele>
        <time>2021-06-17T10:35:48Z</time>
      </trkpt>
      <trkpt lat="39.5786750" lon="2.4701130">
        <ele>127.5</ele>
        <time>2021-06-17T10:35:51Z</time>
      </trkpt>
      <trkpt lat="39.5787180" lon="2.4700650">
        <ele>127.5</ele>
        <time>2021-06-17T10:35:52Z</time>
      </trkpt>
      <trkpt lat="39.5788050" lon="2.4699770">
        <ele>127.4</ele>
        <time>2021-06-17T10:35:54Z</time>
      </trkpt>
      <trkpt lat="39.5789330" lon="2.4698290">
        <ele>127.3</ele>
        <time>2021-06-17T10:35:57Z</time>
      </trkpt>
      <trkpt lat="39.5791140" lon="2.4695930">
        <ele>127.6</ele>
        <time>2021-06-17T10:36:02Z</time>
      </trkpt>
      <trkpt lat="39.5792750" lon="2.4693650">
        <ele>128.1</ele>
        <time>2021-06-17T10:36:07Z</time>
      </trkpt>
      <trkpt lat="39.5794090" lon="2.4691080">
        <ele>128.7</ele>
        <time>2021-06-17T10:36:13Z</time>
      </trkpt>
      <trkpt lat="39.5794360" lon="2.4689840">
        <ele>128.9</ele>
        <time>2021-06-17T10:36:17Z</time>
      </trkpt>
      <trkpt lat="39.5794910" lon="2.4688100">
        <ele>129.3</ele>
        <time>2021-06-17T10:36:22Z</time>
      </trkpt>
      <trkpt lat="39.5796240" lon="2.4685290">
        <ele>130.2</ele>
        <time>2021-06-17T10:36:29Z</time>
      </trkpt>
      <trkpt lat="39.5796770" lon="2.4684070">
        <ele>130.7</ele>
        <time>2021-06-17T10:36:32Z</time>
      </trkpt>
      <trkpt lat="39.5797620" lon="2.4682170">
        <ele>131.6</ele>
        <time>2021-06-17T10:36:37Z</time>
      </trkpt>
      <trkpt lat="39.5798760" lon="2.4679740">
        <ele>132.7</ele>
        <time>2021-06-17T10:36:43Z</time>
      </trkpt>
      <trkpt lat="39.5799140" lon="2.4678960">
        <ele>133.1</ele>
        <time>2021-06-17T10:36:45Z</time>
      </trkpt>
      <trkpt lat="39.5800620" lon="2.4675860">
        <ele>134.7</ele>
        <time>2021-06-17T10:36:53Z</time>
      </trkpt>
      <trkpt lat="39.5802220" lon="2.4672880">
        <ele>136.2</ele>
        <time>2021-06-17T10:37:01Z</time>
      </trkpt>
      <trkpt lat="39.5804130" lon="2.4670000">
        <ele>137.4</ele>
        <time>2021-06-17T10:37:09Z</time>
      </trkpt>
      <trkpt lat="39.5805970" lon="2.4667100">
        <ele>138.7</ele>
        <time>2021-06-17T10:37:17Z</time>
      </trkpt>
      <trkpt lat="39.5808170" lon="2.4663410">
        <ele>140.9</ele>
        <time>2021-06-17T10:37:28Z</time>
      </trkpt>
      <trkpt lat="39.5809910" lon="2.4660630">
        <ele>143.1</ele>
        <time>2021-06-17T10:37:37Z</time>
      </trkpt>
      <trkpt lat="39.5811240" lon="2.4658160">
        <ele>145.2</ele>
        <time>2021-06-17T10:37:45Z</time>
      </trkpt>
      <trkpt lat="39.5811090" lon="2.4656100">
        <ele>146.5</ele>
        <time>2021-06-17T10:37:51Z</time>
      </trkpt>
      <trkpt lat="39.5810030" lon="2.4654570">
        <ele>147.6</ele>
        <time>2021-06-17T10:37:56Z</time>
      </trkpt>
      <trkpt lat="39.5809770" lon="2.4654290">
        <ele>147.8</ele>
        <time>2021-06-17T10:37:57Z</time>
      </trkpt>
      <trkpt lat="39.5807660" lon="2.4651900">
        <ele>149.6</ele>
        <time>2021-06-17T10:38:06Z</time>
      </trkpt>
      <trkpt lat="39.5807480" lon="2.4651580">
        <ele>149.8</ele>
        <time>2021-06-17T10:38:07Z</time>
      </trkpt>
      <trkpt lat="39.5807190" lon="2.4649910">
        <ele>150.9</ele>
        <time>2021-06-17T10:38:12Z</time>
      </trkpt>
      <trkpt lat="39.5807240" lon="2.4649600">
        <ele>151.2</ele>
        <time>2021-06-17T10:38:13Z</time>
      </trkpt>
      <trkpt lat="39.5807800" lon="2.4648890">
        <ele>152.0</ele>
        <time>2021-06-17T10:38:16Z</time>
      </trkpt>
      <trkpt lat="39.5808030" lon="2.4648860">
        <ele>152.2</ele>
        <time>2021-06-17T10:38:17Z</time>
      </trkpt>
      <trkpt lat="39.5808690" lon="2.4649280">
        <ele>152.9</ele>
        <time>2021-06-17T10:38:20Z</time>
      </trkpt>
      <trkpt lat="39.5810560" lon="2.4650890">
        <ele>155.2</ele>
        <time>2021-06-17T10:38:28Z</time>
      </trkpt>
      <trkpt lat="39.5812090" lon="2.4650710">
        <ele>156.8</ele>
        <time>2021-06-17T10:38:34Z</time>
      </trkpt>
      <trkpt lat="39.5812280" lon="2.4650470">
        <ele>157.0</ele>
        <time>2021-06-17T10:38:35Z</time>
      </trkpt>
      <trkpt lat="39.5812340" lon="2.4649840">
        <ele>157.5</ele>
        <time>2021-06-17T10:38:37Z</time>
      </trkpt>
      <trkpt lat="39.5811780" lon="2.4647730">
        <ele>158.8</ele>
        <time>2021-06-17T10:38:43Z</time>
      </trkpt>
      <trkpt lat="39.5811860" lon="2.4645150">
        <ele>160.4</ele>
        <time>2021-06-17T10:38:50Z</time>
      </trkpt>
      <trkpt lat="39.5812890" lon="2.4642900">
        <ele>162.0</ele>
        <time>2021-06-17T10:38:57Z</time>
      </trkpt>
      <trkpt lat="39.5814580" lon="2.4639840">
        <ele>164.0</ele>
        <time>2021-06-17T10:39:07Z</time>
      </trkpt>
      <trkpt lat="39.5816120" lon="2.4637260">
        <ele>165.3</ele>
        <time>2021-06-17T10:39:15Z</time>
      </trkpt>
      <trkpt lat="39.5817930" lon="2.4635550">
        <ele>166.4</ele>
        <time>2021-06-17T10:39:22Z</time>
      </trkpt>
      <trkpt lat="39.5820060" lon="2.4635140">
        <ele>167.5</ele>
        <time>2021-06-17T10:39:29Z</time>
      </trkpt>
      <trkpt lat="39.5822020" lon="2.4635060">
        <ele>168.6</ele>
        <time>2021-06-17T10:39:35Z</time>
      </trkpt>
      <trkpt lat="39.5822680" lon="2.4635210">
        <ele>168.8</ele>
        <time>2021-06-17T10:39:37Z</time>
      </trkpt>
      <trkpt lat="39.5824730" lon="2.4635760">
        <ele>168.8</ele>
        <time>2021-06-17T10:39:43Z</time>
      </trkpt>
      <trkpt lat="39.5825280" lon="2.4634840">
        <ele>168.3</ele>
        <time>2021-06-17T10:39:45Z</time>
      </trkpt>
      <trkpt lat="39.5825320" lon="2.4633970">
        <ele>167.9</ele>
        <time>2021-06-17T10:39:46Z</time>
      </trkpt>
      <trkpt lat="39.5824990" lon="2.4632530">
        <ele>167.2</ele>
        <time>2021-06-17T10:39:48Z</time>
      </trkpt>
      <trkpt lat="39.5824850" lon="2.4631650">
        <ele>166.8</ele>
        <time>2021-06-17T10:39:49Z</time>
      </trkpt>
      <trkpt lat="39.5825040" lon="2.4629890">
        <ele>166.0</ele>
        <time>2021-06-17T10:39:51Z</time>
      </trkpt>
      <trkpt lat="39.5826150" lon="2.4628580">
        <ele>165.3</ele>
        <time>2021-06-17T10:39:53Z</time>
      </trkpt>
      <trkpt lat="39.5828330" lon="2.4627090">
        <ele>164.7</ele>
        <time>2021-06-17T10:39:56Z</time>
      </trkpt>
      <trkpt lat="39.5830100" lon="2.4625990">
        <ele>164.8</ele>
        <time>2021-06-17T10:39:59Z</time>
      </trkpt>
      <trkpt lat="39.5831960" lon="2.4624690">
        <ele>165.5</ele>
        <time>2021-06-17T10:40:03Z</time>
      </trkpt>
      <trkpt lat="39.5832360" lon="2.4624450">
        <ele>165.7</ele>
        <time>2021-06-17T10:40:04Z</time>
      </trkpt>
      <trkpt lat="39.5832770" lon="2.4624250">
        <ele>166.0</ele>
        <time>2021-06-17T10:40:05Z</time>
      </trkpt>
      <trkpt lat="39.5833860" lon="2.4623630">
        <ele>166.7</ele>
        <time>2021-06-17T10:40:08Z</time>
      </trkpt>
      <trkpt lat="39.5834190" lon="2.4623370">
        <ele>166.9</ele>
        <time>2021-06-17T10:40:09Z</time>
      </trkpt>
      <trkpt lat="39.5835460" lon="2.4622620">
        <ele>167.9</ele>
        <time>2021-06-17T10:40:13Z</time>
      </trkpt>
      <trkpt lat="39.5835760" lon="2.4622420">
        <ele>168.2</ele>
        <time>2021-06-17T10:40:14Z</time>
      </trkpt>
      <trkpt lat="39.5837700" lon="2.4620750">
        <ele>170.1</ele>
        <time>2021-06-17T10:40:21Z</time>
      </trkpt>
      <trkpt lat="39.5838000" lon="2.4618980">
        <ele>171.0</ele>
        <time>2021-06-17T10:40:25Z</time>
      </trkpt>
      <trkpt lat="39.5837920" lon="2.4618480">
        <ele>171.2</ele>
        <time>2021-06-17T10:40:26Z</time>
      </trkpt>
      <trkpt lat="39.5837650" lon="2.4617420">
        <ele>171.5</ele>
        <time>2021-06-17T10:40:28Z</time>
      </trkpt>
      <trkpt lat="39.5837120" lon="2.4615930">
        <ele>171.9</ele>
        <time>2021-06-17T10:40:31Z</time>
      </trkpt>
      <trkpt lat="39.5836710" lon="2.4614980">
        <ele>172.1</ele>
        <time>2021-06-17T10:40:33Z</time>
      </trkpt>
      <trkpt lat="39.5836020" lon="2.4612550">
        <ele>172.9</ele>
        <time>2021-06-17T10:40:38Z</time>
      </trkpt>
      <trkpt lat="39.5835950" lon="2.4611640">
        <ele>173.2</ele>
        <time>2021-06-17T10:40:40Z</time>
      </trkpt>
      <trkpt lat="39.5835640" lon="2.4608520">
        <ele>175.0</ele>
        <time>2021-06-17T10:40:47Z</time>
      </trkpt>
      <trkpt lat="39.5834640" lon="2.4606250">
        <ele>176.6</ele>
        <time>2021-06-17T10:40:53Z</time>
      </trkpt>
      <trkpt lat="39.5834520" lon="2.4605910">
        <ele>176.9</ele>
        <time>2021-06-17T10:40:54Z</time>
      </trkpt>
      <trkpt lat="39.5833570" lon="2.4602900">
        <ele>178.5</ele>
        <time>2021-06-17T10:41:02Z</time>
      </trkpt>
      <trkpt lat="39.5832640" lon="2.4600670">
        <ele>179.4</ele>
        <time>2021-06-17T10:41:08Z</time>
      </trkpt>
      <trkpt lat="39.5831020" lon="2.4597830">
        <ele>180.8</ele>
        <time>2021-06-17T10:41:15Z</time>
      </trkpt>
      <trkpt lat="39.5829100" lon="2.4595170">
        <ele>182.3</ele>
        <time>2021-06-17T10:41:22Z</time>
      </trkpt>
      <trkpt lat="39.5828540" lon="2.4593400">
        <ele>183.1</ele>
        <time>2021-06-17T10:41:26Z</time>
      </trkpt>
      <trkpt lat="39.5828050" lon="2.4590600">
        <ele>184.3</ele>
        <time>2021-06-17T10:41:32Z</time>
      </trkpt>
      <trkpt lat="39.5826400" lon="2.4587700">
        <ele>185.7</ele>
        <time>2021-06-17T10:41:40Z</time>
      </trkpt>
      <trkpt lat="39.5824650" lon="2.4585060">
        <ele>187.2</ele>
        <time>2021-06-17T10:41:47Z</time>
      </trkpt>
      <trkpt lat="39.5824190" lon="2.4584340">
        <ele>187.6</ele>
        <time>2021-06-17T10:41:49Z</time>
      </trkpt>
      <trkpt lat="39.5822870" lon="2.4581750">
        <ele>189.0</ele>
        <time>2021-06-17T10:41:56Z</time>
      </trkpt>
      <trkpt lat="39.5821420" lon="2.4578960">
        <ele>190.6</ele>
        <time>2021-06-17T10:42:03Z</time>
      </trkpt>
      <trkpt lat="39.5819330" lon="2.4577870">
        <ele>191.7</ele>
        <time>2021-06-17T10:42:09Z</time>
      </trkpt>
      <trkpt lat="39.5816830" lon="2.4576190">
        <ele>193.1</ele>
        <time>2021-06-17T10:42:16Z</time>
      </trkpt>
      <trkpt lat="39.5814750" lon="2.4575470">
        <ele>194.1</ele>
        <time>2021-06-17T10:42:22Z</time>
      </trkpt>
      <trkpt lat="39.5812610" lon="2.4574840">
        <ele>195.2</ele>
        <time>2021-06-17T10:42:28Z</time>
      </trkpt>
      <trkpt lat="39.5810740" lon="2.4573510">
        <ele>196.3</ele>
        <time>2021-06-17T10:42:34Z</time>
      </trkpt>
      <trkpt lat="39.5808950" lon="2.4573400">
        <ele>197.2</ele>
        <time>2021-06-17T10:42:39Z</time>
      </trkpt>
      <trkpt lat="39.5807440" lon="2.4573480">
        <ele>197.9</ele>
        <time>2021-06-17T10:42:43Z</time>
      </trkpt>
      <trkpt lat="39.5806830" lon="2.4573070">
        <ele>198.2</ele>
        <time>2021-06-17T10:42:45Z</time>
      </trkpt>
      <trkpt lat="39.5805430" lon="2.4571570">
        <ele>199.2</ele>
        <time>2021-06-17T10:42:50Z</time>
      </trkpt>
      <trkpt lat="39.5803340" lon="2.4570330">
        <ele>200.4</ele>
        <time>2021-06-17T10:42:56Z</time>
      </trkpt>
      <trkpt lat="39.5801180" lon="2.4569570">
        <ele>201.5</ele>
        <time>2021-06-17T10:43:02Z</time>
      </trkpt>
      <trkpt lat="39.5799590" lon="2.4567820">
        <ele>202.5</ele>
        <time>2021-06-17T10:43:08Z</time>
      </trkpt>
      <trkpt lat="39.5798010" lon="2.4565920">
        <ele>203.6</ele>
        <time>2021-06-17T10:43:14Z</time>
      </trkpt>
      <trkpt lat="39.5796250" lon="2.4564650">
        <ele>204.8</ele>
        <time>2021-06-17T10:43:20Z</time>
      </trkpt>
      <trkpt lat="39.5795960" lon="2.4564420">
        <ele>205.0</ele>
        <time>2021-06-17T10:43:21Z</time>
      </trkpt>
      <trkpt lat="39.5793630" lon="2.4562340">
        <ele>206.8</ele>
        <time>2021-06-17T10:43:29Z</time>
      </trkpt>
      <trkpt lat="39.5791810" lon="2.4560790">
        <ele>208.3</ele>
        <time>2021-06-17T10:43:36Z</time>
      </trkpt>
      <trkpt lat="39.5790510" lon="2.4559690">
        <ele>209.4</ele>
        <time>2021-06-17T10:43:41Z</time>
      </trkpt>
      <trkpt lat="39.5788390" lon="2.4558040">
        <ele>211.2</ele>
        <time>2021-06-17T10:43:49Z</time>
      </trkpt>
      <trkpt lat="39.5785850" lon="2.4555890">
        <ele>213.6</ele>
        <time>2021-06-17T10:43:59Z</time>
      </trkpt>
      <trkpt lat="39.5783530" lon="2.4553800">
        <ele>215.6</ele>
        <time>2021-06-17T10:44:08Z</time>
      </trkpt>
      <trkpt lat="39.5781850" lon="2.4551900">
        <ele>217.4</ele>
        <time>2021-06-17T10:44:16Z</time>
      </trkpt>
      <trkpt lat="39.5782150" lon="2.4551180">
        <ele>218.1</ele>
        <time>2021-06-17T10:44:19Z</time>
      </trkpt>
      <trkpt lat="39.5782630" lon="2.4551230">
        <ele>218.6</ele>
        <time>2021-06-17T10:44:21Z</time>
      </trkpt>
      <trkpt lat="39.5782980" lon="2.4551610">
        <ele>219.1</ele>
        <time>2021-06-17T10:44:23Z</time>
      </trkpt>
      <trkpt lat="39.5784630" lon="2.4553260">
        <ele>221.3</ele>
        <time>2021-06-17T10:44:30Z</time>
      </trkpt>
      <trkpt lat="39.5786940" lon="2.4554600">
        <ele>223.6</ele>
        <time>2021-06-17T10:44:39Z</time>
      </trkpt>
      <trkpt lat="39.5789600" lon="2.4556130">
        <ele>226.3</ele>
        <time>2021-06-17T10:44:49Z</time>
      </trkpt>
      <trkpt lat="39.5791460" lon="2.4557360">
        <ele>228.1</ele>
        <time>2021-06-17T10:44:56Z</time>
      </trkpt>
      <trkpt lat="39.5793710" lon="2.4558610">
        <ele>230.2</ele>
        <time>2021-06-17T10:45:04Z</time>
      </trkpt>
      <trkpt lat="39.5795480" lon="2.4559440">
        <ele>231.8</ele>
        <time>2021-06-17T10:45:11Z</time>
      </trkpt>
      <trkpt lat="39.5797810" lon="2.4560240">
        <ele>234.2</ele>
        <time>2021-06-17T10:45:20Z</time>
      </trkpt>
      <trkpt lat="39.5798980" lon="2.4559490">
        <ele>235.7</ele>
        <time>2021-06-17T10:45:25Z</time>
      </trkpt>
      <trkpt lat="39.5799620" lon="2.4557830">
        <ele>236.7</ele>
        <time>2021-06-17T10:45:30Z</time>
      </trkpt>
      <trkpt lat="39.5799970" lon="2.4557410">
        <ele>236.8</ele>
        <time>2021-06-17T10:45:32Z</time>
      </trkpt>
      <trkpt lat="39.5800500" lon="2.4557110">
        <ele>236.7</ele>
        <time>2021-06-17T10:45:34Z</time>
      </trkpt>
      <trkpt lat="39.5800870" lon="2.4557080">
        <ele>236.5</ele>
        <time>2021-06-17T10:45:35Z</time>
      </trkpt>
      <trkpt lat="39.5801490" lon="2.4557180">
        <ele>236.1</ele>
        <time>2021-06-17T10:45:38Z</time>
      </trkpt>
      <trkpt lat="39.5803260" lon="2.4556920">
        <ele>234.5</ele>
        <time>2021-06-17T10:45:43Z</time>
      </trkpt>
      <trkpt lat="39.5805540" lon="2.4555880">
        <ele>232.3</ele>
        <time>2021-06-17T10:45:47Z</time>
      </trkpt>
      <trkpt lat="39.5809530" lon="2.4553840">
        <ele>228.5</ele>
        <time>2021-06-17T10:45:52Z</time>
      </trkpt>
      <trkpt lat="39.5810190" lon="2.4553530">
        <ele>227.8</ele>
        <time>2021-06-17T10:45:53Z</time>
      </trkpt>
      <trkpt lat="39.5812220" lon="2.4553310">
        <ele>226.0</ele>
        <time>2021-06-17T10:45:55Z</time>
      </trkpt>
      <trkpt lat="39.5816220" lon="2.4554100">
        <ele>223.1</ele>
        <time>2021-06-17T10:45:59Z</time>
      </trkpt>
      <trkpt lat="39.5822560" lon="2.4555680">
        <ele>220.1</ele>
        <time>2021-06-17T10:46:05Z</time>
      </trkpt>
      <trkpt lat="39.5824540" lon="2.4556530">
        <ele>219.0</ele>
        <time>2021-06-17T10:46:07Z</time>
      </trkpt>
      <trkpt lat="39.5826510" lon="2.4557950">
        <ele>217.8</ele>
        <time>2021-06-17T10:46:09Z</time>
      </trkpt>
      <trkpt lat="39.5829380" lon="2.4560070">
        <ele>216.3</ele>
        <time>2021-06-17T10:46:12Z</time>
      </trkpt>
      <trkpt lat="39.5831060" lon="2.4561670">
        <ele>215.5</ele>
        <time>2021-06-17T10:46:14Z</time>
      </trkpt>
      <trkpt lat="39.5831970" lon="2.4562280">
        <ele>215.1</ele>
        <time>2021-06-17T10:46:15Z</time>
      </trkpt>
      <trkpt lat="39.5832910" lon="2.4562750">
        <ele>214.9</ele>
        <time>2021-06-17T10:46:16Z</time>
      </trkpt>
      <trkpt lat="39.5833880" lon="2.4563060">
        <ele>214.7</ele>
        <time>2021-06-17T10:46:17Z</time>
      </trkpt>
      <trkpt lat="39.5835680" lon="2.4563680">
        <ele>214.9</ele>
        <time>2021-06-17T10:46:19Z</time>
      </trkpt>
      <trkpt lat="39.5837230" lon="2.4564790">
        <ele>215.3</ele>
        <time>2021-06-17T10:46:21Z</time>
      </trkpt>
      <trkpt lat="39.5838650" lon="2.4565860">
        <ele>216.0</ele>
        <time>2021-06-17T10:46:23Z</time>
      </trkpt>
      <trkpt lat="39.5840060" lon="2.4566510">
        <ele>216.7</ele>
        <time>2021-06-17T10:46:25Z</time>
      </trkpt>
      <trkpt lat="39.5842870" lon="2.4567780">
        <ele>218.3</ele>
        <time>2021-06-17T10:46:30Z</time>
      </trkpt>
      <trkpt lat="39.5844970" lon="2.4569030">
        <ele>219.0</ele>
        <time>2021-06-17T10:46:34Z</time>
      </trkpt>
      <trkpt lat="39.5845420" lon="2.4569470">
        <ele>219.2</ele>
        <time>2021-06-17T10:46:35Z</time>
      </trkpt>
      <trkpt lat="39.5849520" lon="2.4573010">
        <ele>220.2</ele>
        <time>2021-06-17T10:46:43Z</time>
      </trkpt>
      <trkpt lat="39.5850650" lon="2.4573330">
        <ele>220.5</ele>
        <time>2021-06-17T10:46:45Z</time>
      </trkpt>
      <trkpt lat="39.5851180" lon="2.4573160">
        <ele>220.6</ele>
        <time>2021-06-17T10:46:46Z</time>
      </trkpt>
      <trkpt lat="39.5851650" lon="2.4572800">
        <ele>220.7</ele>
        <time>2021-06-17T10:46:47Z</time>
      </trkpt>
      <trkpt lat="39.5852440" lon="2.4571720">
        <ele>220.9</ele>
        <time>2021-06-17T10:46:49Z</time>
      </trkpt>
      <trkpt lat="39.5853790" lon="2.4567640">
        <ele>221.8</ele>
        <time>2021-06-17T10:46:55Z</time>
      </trkpt>
      <trkpt lat="39.5854050" lon="2.4566990">
        <ele>222.0</ele>
        <time>2021-06-17T10:46:56Z</time>
      </trkpt>
      <trkpt lat="39.5854940" lon="2.4565310">
        <ele>222.5</ele>
        <time>2021-06-17T10:46:59Z</time>
      </trkpt>
      <trkpt lat="39.5855590" lon="2.4564270">
        <ele>222.8</ele>
        <time>2021-06-17T10:47:01Z</time>
      </trkpt>
      <trkpt lat="39.5855890" lon="2.4563680">
        <ele>223.0</ele>
        <time>2021-06-17T10:47:02Z</time>
      </trkpt>
      <trkpt lat="39.5857440" lon="2.4560920">
        <ele>223.6</ele>
        <time>2021-06-17T10:47:07Z</time>
      </trkpt>
      <trkpt lat="39.5858420" lon="2.4559070">
        <ele>223.7</ele>
        <time>2021-06-17T10:47:10Z</time>
      </trkpt>
      <trkpt lat="39.5859300" lon="2.4557110">
        <ele>223.8</ele>
        <time>2021-06-17T10:47:13Z</time>
      </trkpt>
      <trkpt lat="39.5859530" lon="2.4555680">
        <ele>223.6</ele>
        <time>2021-06-17T10:47:15Z</time>
      </trkpt>
      <trkpt lat="39.5859060" lon="2.4554190">
        <ele>223.3</ele>
        <time>2021-06-17T10:47:17Z</time>
      </trkpt>
      <trkpt lat="39.5858680" lon="2.4553420">
        <ele>223.0</ele>
        <time>2021-06-17T10:47:18Z</time>
      </trkpt>
      <trkpt lat="39.5856090" lon="2.4549060">
        <ele>221.0</ele>
        <time>2021-06-17T10:47:24Z</time>
      </trkpt>
      <trkpt lat="39.5855040" lon="2.4547610">
        <ele>220.2</ele>
        <time>2021-06-17T10:47:26Z</time>
      </trkpt>
      <trkpt lat="39.5852640" lon="2.4544930">
        <ele>218.4</ele>
        <time>2021-06-17T10:47:30Z</time>
      </trkpt>
      <trkpt lat="39.5851350" lon="2.4543530">
        <ele>217.5</ele>
        <time>2021-06-17T10:47:32Z</time>
      </trkpt>
      <trkpt lat="39.5850760" lon="2.4542750">
        <ele>217.1</ele>
        <time>2021-06-17T10:47:33Z</time>
      </trkpt>
      <trkpt lat="39.5849700" lon="2.4541000">
        <ele>216.4</ele>
        <time>2021-06-17T10:47:35Z</time>
      </trkpt>
      <trkpt lat="39.5848840" lon="2.4539260">
        <ele>215.7</ele>
        <time>2021-06-17T10:47:37Z</time>
      </trkpt>
      <trkpt lat="39.5847900" lon="2.4537090">
        <ele>215.1</ele>
        <time>2021-06-17T10:47:39Z</time>
      </trkpt>
      <trkpt lat="39.5847390" lon="2.4535210">
        <ele>214.7</ele>
        <time>2021-06-17T10:47:41Z</time>
      </trkpt>
      <trkpt lat="39.5847230" lon="2.4534160">
        <ele>214.6</ele>
        <time>2021-06-17T10:47:42Z</time>
      </trkpt>
      <trkpt lat="39.5847110" lon="2.4531960">
        <ele>214.4</ele>
        <time>2021-06-17T10:47:44Z</time>
      </trkpt>
      <trkpt lat="39.5847380" lon="2.4530720">
        <ele>214.2</ele>
        <time>2021-06-17T10:47:45Z</time>
      </trkpt>
      <trkpt lat="39.5847860" lon="2.4530080">
        <ele>214.0</ele>
        <time>2021-06-17T10:47:46Z</time>
      </trkpt>
      <trkpt lat="39.5848540" lon="2.4529460">
        <ele>213.7</ele>
        <time>2021-06-17T10:47:47Z</time>
      </trkpt>
      <trkpt lat="39.5849290" lon="2.4529150">
        <ele>213.2</ele>
        <time>2021-06-17T10:47:48Z</time>
      </trkpt>
      <trkpt lat="39.5851870" lon="2.4529240">
        <ele>211.8</ele>
        <time>2021-06-17T10:47:51Z</time>
      </trkpt>
      <trkpt lat="39.5852760" lon="2.4529410">
        <ele>211.4</ele>
        <time>2021-06-17T10:47:52Z</time>
      </trkpt>
      <trkpt lat="39.5856270" lon="2.4529820">
        <ele>209.8</ele>
        <time>2021-06-17T10:47:56Z</time>
      </trkpt>
      <trkpt lat="39.5857170" lon="2.4529710">
        <ele>209.4</ele>
        <time>2021-06-17T10:47:57Z</time>
      </trkpt>
      <trkpt lat="39.5858110" lon="2.4529500">
        <ele>209.0</ele>
        <time>2021-06-17T10:47:58Z</time>
      </trkpt>
      <trkpt lat="39.5859750" lon="2.4528490">
        <ele>208.2</ele>
        <time>2021-06-17T10:48:00Z</time>
      </trkpt>
      <trkpt lat="39.5861200" lon="2.4526910">
        <ele>207.3</ele>
        <time>2021-06-17T10:48:02Z</time>
      </trkpt>
      <trkpt lat="39.5861850" lon="2.4525770">
        <ele>206.7</ele>
        <time>2021-06-17T10:48:03Z</time>
      </trkpt>
      <trkpt lat="39.5862100" lon="2.4524710">
        <ele>206.2</ele>
        <time>2021-06-17T10:48:04Z</time>
      </trkpt>
      <trkpt lat="39.5862820" lon="2.4522620">
        <ele>205.1</ele>
        <time>2021-06-17T10:48:06Z</time>
      </trkpt>
      <trkpt lat="39.5863400" lon="2.4521720">
        <ele>204.5</ele>
        <time>2021-06-17T10:48:07Z</time>
      </trkpt>
      <trkpt lat="39.5864160" lon="2.4520950">
        <ele>203.8</ele>
        <time>2021-06-17T10:48:08Z</time>
      </trkpt>
      <trkpt lat="39.5865970" lon="2.4519860">
        <ele>202.6</ele>
        <time>2021-06-17T10:48:10Z</time>
      </trkpt>
      <trkpt lat="39.5867750" lon="2.4518790">
        <ele>202.3</ele>
        <time>2021-06-17T10:48:12Z</time>
      </trkpt>
      <trkpt lat="39.5869920" lon="2.4517070">
        <ele>202.1</ele>
        <time>2021-06-17T10:48:15Z</time>
      </trkpt>
      <trkpt lat="39.5872880" lon="2.4512750">
        <ele>202.0</ele>
        <time>2021-06-17T10:48:20Z</time>
      </trkpt>
      <trkpt lat="39.5873430" lon="2.4511930">
        <ele>202.0</ele>
        <time>2021-06-17T10:48:21Z</time>
      </trkpt>
      <trkpt lat="39.5874850" lon="2.4509390">
        <ele>201.9</ele>
        <time>2021-06-17T10:48:24Z</time>
      </trkpt>
      <trkpt lat="39.5875760" lon="2.4507650">
        <ele>201.8</ele>
        <time>2021-06-17T10:48:26Z</time>
      </trkpt>
      <trkpt lat="39.5878800" lon="2.4501690">
        <ele>201.0</ele>
        <time>2021-06-17T10:48:33Z</time>
      </trkpt>
      <trkpt lat="39.5879390" lon="2.4500950">
        <ele>200.8</ele>
        <time>2021-06-17T10:48:34Z</time>
      </trkpt>
      <trkpt lat="39.5882210" lon="2.4498560">
        <ele>199.6</ele>
        <time>2021-06-17T10:48:38Z</time>
      </trkpt>
      <trkpt lat="39.5882840" lon="2.4497820">
        <ele>199.4</ele>
        <time>2021-06-17T10:48:39Z</time>
      </trkpt>
      <trkpt lat="39.5883330" lon="2.4496920">
        <ele>199.3</ele>
        <time>2021-06-17T10:48:40Z</time>
      </trkpt>
      <trkpt lat="39.5884100" lon="2.4494990">
        <ele>199.2</ele>
        <time>2021-06-17T10:48:42Z</time>
      </trkpt>
      <trkpt lat="39.5884720" lon="2.4492990">
        <ele>199.2</ele>
        <time>2021-06-17T10:48:44Z</time>
      </trkpt>
      <trkpt lat="39.5885600" lon="2.4491180">
        <ele>199.2</ele>
        <time>2021-06-17T10:48:46Z</time>
      </trkpt>
      <trkpt lat="39.5888430" lon="2.4487780">
        <ele>199.5</ele>
        <time>2021-06-17T10:48:51Z</time>
      </trkpt>
      <trkpt lat="39.5890200" lon="2.4486050">
        <ele>199.7</ele>
        <time>2021-06-17T10:48:54Z</time>
      </trkpt>
      <trkpt lat="39.5892600" lon="2.4483780">
        <ele>199.7</ele>
        <time>2021-06-17T10:48:58Z</time>
      </trkpt>
      <trkpt lat="39.5896950" lon="2.4479730">
        <ele>199.8</ele>
        <time>2021-06-17T10:49:06Z</time>
      </trkpt>
      <trkpt lat="39.5901040" lon="2.4475700">
        <ele>200.0</ele>
        <time>2021-06-17T10:49:14Z</time>
      </trkpt>
      <trkpt lat="39.5902510" lon="2.4474350">
        <ele>200.2</ele>
        <time>2021-06-17T10:49:17Z</time>
      </trkpt>
      <trkpt lat="39.5904250" lon="2.4473310">
        <ele>200.5</ele>
        <time>2021-06-17T10:49:20Z</time>
      </trkpt>
      <trkpt lat="39.5907610" lon="2.4471320">
        <ele>201.1</ele>
        <time>2021-06-17T10:49:26Z</time>
      </trkpt>
      <trkpt lat="39.5908200" lon="2.4470770">
        <ele>201.2</ele>
        <time>2021-06-17T10:49:27Z</time>
      </trkpt>
      <trkpt lat="39.5910630" lon="2.4467740">
        <ele>201.9</ele>
        <time>2021-06-17T10:49:33Z</time>
      </trkpt>
      <trkpt lat="39.5913470" lon="2.4464230">
        <ele>203.2</ele>
        <time>2021-06-17T10:49:40Z</time>
      </trkpt>
      <trkpt lat="39.5915290" lon="2.4461960">
        <ele>204.1</ele>
        <time>2021-06-17T10:49:45Z</time>
      </trkpt>
      <trkpt lat="39.5916280" lon="2.4460660">
        <ele>204.6</ele>
        <time>2021-06-17T10:49:48Z</time>
      </trkpt>
      <trkpt lat="39.5917020" lon="2.4459770">
        <ele>205.0</ele>
        <time>2021-06-17T10:49:50Z</time>
      </trkpt>
      <trkpt lat="39.5917910" lon="2.4458520">
        <ele>205.5</ele>
        <time>2021-06-17T10:49:53Z</time>
      </trkpt>
      <trkpt lat="39.5918340" lon="2.4457500">
        <ele>205.9</ele>
        <time>2021-06-17T10:49:55Z</time>
      </trkpt>
      <trkpt lat="39.5918760" lon="2.4454390">
        <ele>206.5</ele>
        <time>2021-06-17T10:50:00Z</time>
      </trkpt>
      <trkpt lat="39.5918830" lon="2.4453740">
        <ele>206.7</ele>
        <time>2021-06-17T10:50:01Z</time>
      </trkpt>
      <trkpt lat="39.5919240" lon="2.4450050">
        <ele>207.3</ele>
        <time>2021-06-17T10:50:07Z</time>
      </trkpt>
      <trkpt lat="39.5919230" lon="2.4449460">
        <ele>207.4</ele>
        <time>2021-06-17T10:50:08Z</time>
      </trkpt>
      <trkpt lat="39.5919170" lon="2.4448860">
        <ele>207.5</ele>
        <time>2021-06-17T10:50:09Z</time>
      </trkpt>
      <trkpt lat="39.5919050" lon="2.4448150">
        <ele>207.5</ele>
        <time>2021-06-17T10:50:10Z</time>
      </trkpt>
      <trkpt lat="39.5918560" lon="2.4446580">
        <ele>207.7</ele>
        <time>2021-06-17T10:50:13Z</time>
      </trkpt>
      <trkpt lat="39.5918310" lon="2.4446040">
        <ele>207.8</ele>
        <time>2021-06-17T10:50:14Z</time>
      </trkpt>
      <trkpt lat="39.5916030" lon="2.4442220">
        <ele>208.7</ele>
        <time>2021-06-17T10:50:21Z</time>
      </trkpt>
      <trkpt lat="39.5913490" lon="2.4438130">
        <ele>210.3</ele>
        <time>2021-06-17T10:50:29Z</time>
      </trkpt>
      <trkpt lat="39.5911680" lon="2.4434930">
        <ele>212.2</ele>
        <time>2021-06-17T10:50:36Z</time>
      </trkpt>
      <trkpt lat="39.5911330" lon="2.4433930">
        <ele>212.9</ele>
        <time>2021-06-17T10:50:38Z</time>
      </trkpt>
      <trkpt lat="39.5910760" lon="2.4432120">
        <ele>214.0</ele>
        <time>2021-06-17T10:50:42Z</time>
      </trkpt>
      <trkpt lat="39.5910310" lon="2.4430860">
        <ele>214.7</ele>
        <time>2021-06-17T10:50:45Z</time>
      </trkpt>
      <trkpt lat="39.5909630" lon="2.4429750">
        <ele>215.4</ele>
        <time>2021-06-17T10:50:48Z</time>
      </trkpt>
      <trkpt lat="39.5907430" lon="2.4428440">
        <ele>216.8</ele>
        <time>2021-06-17T10:50:54Z</time>
      </trkpt>
      <trkpt lat="39.5903740" lon="2.4427160">
        <ele>218.6</ele>
        <time>2021-06-17T10:51:04Z</time>
      </trkpt>
      <trkpt lat="39.5900080" lon="2.4426030">
        <ele>220.3</ele>
        <time>2021-06-17T10:51:13Z</time>
      </trkpt>
      <trkpt lat="39.5898550" lon="2.4425520">
        <ele>221.0</ele>
        <time>2021-06-17T10:51:17Z</time>
      </trkpt>
      <trkpt lat="39.5896900" lon="2.4424910">
        <ele>221.6</ele>
        <time>2021-06-17T10:51:21Z</time>
      </trkpt>
      <trkpt lat="39.5894040" lon="2.4423150">
        <ele>222.6</ele>
        <time>2021-06-17T10:51:28Z</time>
      </trkpt>
      <trkpt lat="39.5891890" lon="2.4420200">
        <ele>223.3</ele>
        <time>2021-06-17T10:51:35Z</time>
      </trkpt>
      <trkpt lat="39.5891650" lon="2.4419650">
        <ele>223.4</ele>
        <time>2021-06-17T10:51:36Z</time>
      </trkpt>
      <trkpt lat="39.5891490" lon="2.4419110">
        <ele>223.5</ele>
        <time>2021-06-17T10:51:37Z</time>
      </trkpt>
      <trkpt lat="39.5890800" lon="2.4416130">
        <ele>224.0</ele>
        <time>2021-06-17T10:51:42Z</time>
      </trkpt>
      <trkpt lat="39.5889730" lon="2.4410640">
        <ele>223.8</ele>
        <time>2021-06-17T10:51:51Z</time>
      </trkpt>
      <trkpt lat="39.5889510" lon="2.4409940">
        <ele>223.6</ele>
        <time>2021-06-17T10:51:52Z</time>
      </trkpt>
      <trkpt lat="39.5888420" lon="2.4407830">
        <ele>222.8</ele>
        <time>2021-06-17T10:51:55Z</time>
      </trkpt>
      <trkpt lat="39.5887950" lon="2.4407160">
        <ele>222.5</ele>
        <time>2021-06-17T10:51:56Z</time>
      </trkpt>
      <trkpt lat="39.5885660" lon="2.4404620">
        <ele>221.0</ele>
        <time>2021-06-17T10:52:00Z</time>
      </trkpt>
      <trkpt lat="39.5882660" lon="2.4401230">
        <ele>219.0</ele>
        <time>2021-06-17T10:52:06Z</time>
      </trkpt>
      <trkpt lat="39.5880480" lon="2.4398670">
        <ele>217.4</ele>
        <time>2021-06-17T10:52:10Z</time>
      </trkpt>
      <trkpt lat="39.5879860" lon="2.4397970">
        <ele>217.0</ele>
        <time>2021-06-17T10:52:11Z</time>
      </trkpt>
      <trkpt lat="39.5879270" lon="2.4397220">
        <ele>216.6</ele>
        <time>2021-06-17T10:52:12Z</time>
      </trkpt>
      <trkpt lat="39.5878700" lon="2.4396450">
        <ele>216.1</ele>
        <time>2021-06-17T10:52:13Z</time>
      </trkpt>
      <trkpt lat="39.5877540" lon="2.4394820">
        <ele>215.0</ele>
        <time>2021-06-17T10:52:15Z</time>
      </trkpt>
      <trkpt lat="39.5876230" lon="2.4393110">
        <ele>214.0</ele>
        <time>2021-06-17T10:52:17Z</time>
      </trkpt>
      <trkpt lat="39.5875010" lon="2.4391470">
        <ele>213.0</ele>
        <time>2021-06-17T10:52:19Z</time>
      </trkpt>
      <trkpt lat="39.5872690" lon="2.4388450">
        <ele>211.1</ele>
        <time>2021-06-17T10:52:23Z</time>
      </trkpt>
      <trkpt lat="39.5872160" lon="2.4387870">
        <ele>210.7</ele>
        <time>2021-06-17T10:52:24Z</time>
      </trkpt>
      <trkpt lat="39.5871760" lon="2.4387310">
        <ele>210.4</ele>
        <time>2021-06-17T10:52:25Z</time>
      </trkpt>
      <trkpt lat="39.5871720" lon="2.4386680">
        <ele>210.0</ele>
        <time>2021-06-17T10:52:26Z</time>
      </trkpt>
      <trkpt lat="39.5872370" lon="2.4385960">
        <ele>209.4</ele>
        <time>2021-06-17T10:52:28Z</time>
      </trkpt>
      <trkpt lat="39.5873140" lon="2.4386700">
        <ele>208.6</ele>
        <time>2021-06-17T10:52:30Z</time>
      </trkpt>
      <trkpt lat="39.5873550" lon="2.4387310">
        <ele>208.1</ele>
        <time>2021-06-17T10:52:31Z</time>
      </trkpt>
      <trkpt lat="39.5874780" lon="2.4388240">
        <ele>207.0</ele>
        <time>2021-06-17T10:52:33Z</time>
      </trkpt>
      <trkpt lat="39.5876070" lon="2.4387680">
        <ele>205.8</ele>
        <time>2021-06-17T10:52:35Z</time>
      </trkpt>
      <trkpt lat="39.5876490" lon="2.4385890">
        <ele>204.5</ele>
        <time>2021-06-17T10:52:37Z</time>
      </trkpt>
      <trkpt lat="39.5876410" lon="2.4382490">
        <ele>202.1</ele>
        <time>2021-06-17T10:52:40Z</time>
      </trkpt>
      <trkpt lat="39.5876100" lon="2.4381350">
        <ele>201.4</ele>
        <time>2021-06-17T10:52:41Z</time>
      </trkpt>
      <trkpt lat="39.5875600" lon="2.4378960">
        <ele>199.9</ele>
        <time>2021-06-17T10:52:43Z</time>
      </trkpt>
      <trkpt lat="39.5875210" lon="2.4376470">
        <ele>198.6</ele>
        <time>2021-06-17T10:52:45Z</time>
      </trkpt>
      <trkpt lat="39.5874760" lon="2.4375340">
        <ele>198.0</ele>
        <time>2021-06-17T10:52:46Z</time>
      </trkpt>
      <trkpt lat="39.5874080" lon="2.4374260">
        <ele>197.5</ele>
        <time>2021-06-17T10:52:47Z</time>
      </trkpt>
      <trkpt lat="39.5873260" lon="2.4373230">
        <ele>196.9</ele>
        <time>2021-06-17T10:52:48Z</time>
      </trkpt>
      <trkpt lat="39.5872170" lon="2.4371390">
        <ele>195.8</ele>
        <time>2021-06-17T10:52:50Z</time>
      </trkpt>
      <trkpt lat="39.5871890" lon="2.4370390">
        <ele>195.2</ele>
        <time>2021-06-17T10:52:51Z</time>
      </trkpt>
      <trkpt lat="39.5871630" lon="2.4368110">
        <ele>194.0</ele>
        <time>2021-06-17T10:52:53Z</time>
      </trkpt>
      <trkpt lat="39.5871890" lon="2.4365870">
        <ele>193.1</ele>
        <time>2021-06-17T10:52:55Z</time>
      </trkpt>
      <trkpt lat="39.5872740" lon="2.4364340">
        <ele>192.3</ele>
        <time>2021-06-17T10:52:57Z</time>
      </trkpt>
      <trkpt lat="39.5874060" lon="2.4364250">
        <ele>191.3</ele>
        <time>2021-06-17T10:52:59Z</time>
      </trkpt>
      <trkpt lat="39.5875120" lon="2.4365710">
        <ele>190.1</ele>
        <time>2021-06-17T10:53:01Z</time>
      </trkpt>
      <trkpt lat="39.5876040" lon="2.4367410">
        <ele>188.9</ele>
        <time>2021-06-17T10:53:03Z</time>
      </trkpt>
      <trkpt lat="39.5876670" lon="2.4368170">
        <ele>188.3</ele>
        <time>2021-06-17T10:53:04Z</time>
      </trkpt>
      <trkpt lat="39.5877370" lon="2.4368810">
        <ele>187.9</ele>
        <time>2021-06-17T10:53:05Z</time>
      </trkpt>
      <trkpt lat="39.5879720" lon="2.4370510">
        <ele>186.5</ele>
        <time>2021-06-17T10:53:08Z</time>
      </trkpt>
      <trkpt lat="39.5881160" lon="2.4370920">
        <ele>185.5</ele>
        <time>2021-06-17T10:53:10Z</time>
      </trkpt>
      <trkpt lat="39.5881820" lon="2.4370650">
        <ele>184.9</ele>
        <time>2021-06-17T10:53:11Z</time>
      </trkpt>
      <trkpt lat="39.5882260" lon="2.4370020">
        <ele>184.4</ele>
        <time>2021-06-17T10:53:12Z</time>
      </trkpt>
      <trkpt lat="39.5882440" lon="2.4369120">
        <ele>183.8</ele>
        <time>2021-06-17T10:53:13Z</time>
      </trkpt>
      <trkpt lat="39.5882300" lon="2.4368140">
        <ele>183.2</ele>
        <time>2021-06-17T10:53:14Z</time>
      </trkpt>
      <trkpt lat="39.5881710" lon="2.4365970">
        <ele>181.8</ele>
        <time>2021-06-17T10:53:16Z</time>
      </trkpt>
      <trkpt lat="39.5881520" lon="2.4364790">
        <ele>181.2</ele>
        <time>2021-06-17T10:53:17Z</time>
      </trkpt>
      <trkpt lat="39.5881450" lon="2.4362260">
        <ele>180.0</ele>
        <time>2021-06-17T10:53:19Z</time>
      </trkpt>
      <trkpt lat="39.5881570" lon="2.4359800">
        <ele>178.9</ele>
        <time>2021-06-17T10:53:21Z</time>
      </trkpt>
      <trkpt lat="39.5881270" lon="2.4357460">
        <ele>178.0</ele>
        <time>2021-06-17T10:53:23Z</time>
      </trkpt>
      <trkpt lat="39.5880960" lon="2.4355020">
        <ele>177.3</ele>
        <time>2021-06-17T10:53:25Z</time>
      </trkpt>
      <trkpt lat="39.5881070" lon="2.4353790">
        <ele>177.0</ele>
        <time>2021-06-17T10:53:26Z</time>
      </trkpt>
      <trkpt lat="39.5881220" lon="2.4351640">
        <ele>176.7</ele>
        <time>2021-06-17T10:53:28Z</time>
      </trkpt>
      <trkpt lat="39.5881060" lon="2.4350500">
        <ele>176.6</ele>
        <time>2021-06-17T10:53:29Z</time>
      </trkpt>
      <trkpt lat="39.5880820" lon="2.4349520">
        <ele>176.4</ele>
        <time>2021-06-17T10:53:30Z</time>
      </trkpt>
      <trkpt lat="39.5881300" lon="2.4347940">
        <ele>176.0</ele>
        <time>2021-06-17T10:53:32Z</time>
      </trkpt>
      <trkpt lat="39.5882510" lon="2.4347340">
        <ele>175.5</ele>
        <time>2021-06-17T10:53:34Z</time>
      </trkpt>
      <trkpt lat="39.5883200" lon="2.4347350">
        <ele>175.2</ele>
        <time>2021-06-17T10:53:35Z</time>
      </trkpt>
      <trkpt lat="39.5884590" lon="2.4347230">
        <ele>174.7</ele>
        <time>2021-06-17T10:53:37Z</time>
      </trkpt>
      <trkpt lat="39.5885220" lon="2.4346820">
        <ele>174.4</ele>
        <time>2021-06-17T10:53:38Z</time>
      </trkpt>
      <trkpt lat="39.5885700" lon="2.4346170">
        <ele>174.1</ele>
        <time>2021-06-17T10:53:39Z</time>
      </trkpt>
      <trkpt lat="39.5886680" lon="2.4344690">
        <ele>173.5</ele>
        <time>2021-06-17T10:53:41Z</time>
      </trkpt>
      <trkpt lat="39.5887640" lon="2.4343260">
        <ele>172.7</ele>
        <time>2021-06-17T10:53:43Z</time>
      </trkpt>
      <trkpt lat="39.5887800" lon="2.4342400">
        <ele>172.3</ele>
        <time>2021-06-17T10:53:44Z</time>
      </trkpt>
      <trkpt lat="39.5887610" lon="2.4341320">
        <ele>171.6</ele>
        <time>2021-06-17T10:53:45Z</time>
      </trkpt>
      <trkpt lat="39.5886890" lon="2.4339390">
        <ele>170.4</ele>
        <time>2021-06-17T10:53:47Z</time>
      </trkpt>
      <trkpt lat="39.5886240" lon="2.4337120">
        <ele>169.3</ele>
        <time>2021-06-17T10:53:49Z</time>
      </trkpt>
      <trkpt lat="39.5886170" lon="2.4334740">
        <ele>168.4</ele>
        <time>2021-06-17T10:53:51Z</time>
      </trkpt>
      <trkpt lat="39.5886870" lon="2.4332750">
        <ele>167.7</ele>
        <time>2021-06-17T10:53:53Z</time>
      </trkpt>
      <trkpt lat="39.5888810" lon="2.4330580">
        <ele>166.4</ele>
        <time>2021-06-17T10:53:56Z</time>
      </trkpt>
      <trkpt lat="39.5889560" lon="2.4329880">
        <ele>166.0</ele>
        <time>2021-06-17T10:53:57Z</time>
      </trkpt>
      <trkpt lat="39.5891010" lon="2.4328900">
        <ele>165.4</ele>
        <time>2021-06-17T10:53:59Z</time>
      </trkpt>
      <trkpt lat="39.5891880" lon="2.4328230">
        <ele>165.1</ele>
        <time>2021-06-17T10:54:00Z</time>
      </trkpt>
      <trkpt lat="39.5892550" lon="2.4327850">
        <ele>164.9</ele>
        <time>2021-06-17T10:54:01Z</time>
      </trkpt>
      <trkpt lat="39.5893480" lon="2.4327600">
        <ele>164.6</ele>
        <time>2021-06-17T10:54:03Z</time>
      </trkpt>
      <trkpt lat="39.5894460" lon="2.4327560">
        <ele>164.2</ele>
        <time>2021-06-17T10:54:05Z</time>
      </trkpt>
      <trkpt lat="39.5895150" lon="2.4327100">
        <ele>163.8</ele>
        <time>2021-06-17T10:54:07Z</time>
      </trkpt>
      <trkpt lat="39.5895220" lon="2.4326720">
        <ele>163.7</ele>
        <time>2021-06-17T10:54:08Z</time>
      </trkpt>
      <trkpt lat="39.5894480" lon="2.4325730">
        <ele>162.8</ele>
        <time>2021-06-17T10:54:10Z</time>
      </trkpt>
      <trkpt lat="39.5894030" lon="2.4325540">
        <ele>162.4</ele>
        <time>2021-06-17T10:54:11Z</time>
      </trkpt>
      <trkpt lat="39.5893020" lon="2.4325770">
        <ele>161.5</ele>
        <time>2021-06-17T10:54:13Z</time>
      </trkpt>
      <trkpt lat="39.5890050" lon="2.4327600">
        <ele>159.0</ele>
        <time>2021-06-17T10:54:18Z</time>
      </trkpt>
      <trkpt lat="39.5886580" lon="2.4330110">
        <ele>156.3</ele>
        <time>2021-06-17T10:54:23Z</time>
      </trkpt>
      <trkpt lat="39.5885200" lon="2.4331260">
        <ele>155.3</ele>
        <time>2021-06-17T10:54:25Z</time>
      </trkpt>
      <trkpt lat="39.5884360" lon="2.4332670">
        <ele>154.4</ele>
        <time>2021-06-17T10:54:27Z</time>
      </trkpt>
      <trkpt lat="39.5884080" lon="2.4334890">
        <ele>153.4</ele>
        <time>2021-06-17T10:54:29Z</time>
      </trkpt>
      <trkpt lat="39.5884170" lon="2.4336010">
        <ele>153.0</ele>
        <time>2021-06-17T10:54:30Z</time>
      </trkpt>
      <trkpt lat="39.5884160" lon="2.4338260">
        <ele>152.1</ele>
        <time>2021-06-17T10:54:32Z</time>
      </trkpt>
      <trkpt lat="39.5883700" lon="2.4339220">
        <ele>151.5</ele>
        <time>2021-06-17T10:54:33Z</time>
      </trkpt>
      <trkpt lat="39.5882930" lon="2.4339820">
        <ele>150.9</ele>
        <time>2021-06-17T10:54:34Z</time>
      </trkpt>
      <trkpt lat="39.5882090" lon="2.4340000">
        <ele>150.4</ele>
        <time>2021-06-17T10:54:35Z</time>
      </trkpt>
      <trkpt lat="39.5881350" lon="2.4339840">
        <ele>149.9</ele>
        <time>2021-06-17T10:54:36Z</time>
      </trkpt>
      <trkpt lat="39.5880310" lon="2.4339480">
        <ele>149.3</ele>
        <time>2021-06-17T10:54:37Z</time>
      </trkpt>
      <trkpt lat="39.5878330" lon="2.4338750">
        <ele>148.4</ele>
        <time>2021-06-17T10:54:39Z</time>
      </trkpt>
      <trkpt lat="39.5876710" lon="2.4338290">
        <ele>147.9</ele>
        <time>2021-06-17T10:54:41Z</time>
      </trkpt>
      <trkpt lat="39.5875740" lon="2.4338290">
        <ele>147.6</ele>
        <time>2021-06-17T10:54:42Z</time>
      </trkpt>
      <trkpt lat="39.5875030" lon="2.4338510">
        <ele>147.3</ele>
        <time>2021-06-17T10:54:43Z</time>
      </trkpt>
      <trkpt lat="39.5874520" lon="2.4339040">
        <ele>146.9</ele>
        <time>2021-06-17T10:54:44Z</time>
      </trkpt>
      <trkpt lat="39.5874230" lon="2.4340530">
        <ele>146.1</ele>
        <time>2021-06-17T10:54:46Z</time>
      </trkpt>
      <trkpt lat="39.5875010" lon="2.4343540">
        <ele>144.6</ele>
        <time>2021-06-17T10:54:49Z</time>
      </trkpt>
      <trkpt lat="39.5875630" lon="2.4345620">
        <ele>143.8</ele>
        <time>2021-06-17T10:54:51Z</time>
      </trkpt>
      <trkpt lat="39.5875840" lon="2.4347870">
        <ele>143.1</ele>
        <time>2021-06-17T10:54:53Z</time>
      </trkpt>
      <trkpt lat="39.5874960" lon="2.4349060">
        <ele>142.4</ele>
        <time>2021-06-17T10:54:55Z</time>
      </trkpt>
      <trkpt lat="39.5874150" lon="2.4349030">
        <ele>141.8</ele>
        <time>2021-06-17T10:54:56Z</time>
      </trkpt>
      <trkpt lat="39.5873470" lon="2.4348490">
        <ele>141.2</ele>
        <time>2021-06-17T10:54:57Z</time>
      </trkpt>
      <trkpt lat="39.5871200" lon="2.4346830">
        <ele>139.4</ele>
        <time>2021-06-17T10:55:00Z</time>
      </trkpt>
      <trkpt lat="39.5870430" lon="2.4346380">
        <ele>138.8</ele>
        <time>2021-06-17T10:55:01Z</time>
      </trkpt>
      <trkpt lat="39.5868770" lon="2.4345710">
        <ele>137.8</ele>
        <time>2021-06-17T10:55:03Z</time>
      </trkpt>
      <trkpt lat="39.5867010" lon="2.4345380">
        <ele>136.9</ele>
        <time>2021-06-17T10:55:05Z</time>
      </trkpt>
      <trkpt lat="39.5863580" lon="2.4345110">
        <ele>135.9</ele>
        <time>2021-06-17T10:55:09Z</time>
      </trkpt>
      <trkpt lat="39.5862970" lon="2.4345380">
        <ele>135.7</ele>
        <time>2021-06-17T10:55:10Z</time>
      </trkpt>
      <trkpt lat="39.5862570" lon="2.4345940">
        <ele>135.6</ele>
        <time>2021-06-17T10:55:11Z</time>
      </trkpt>
      <trkpt lat="39.5862320" lon="2.4346730">
        <ele>135.4</ele>
        <time>2021-06-17T10:55:12Z</time>
      </trkpt>
      <trkpt lat="39.5861470" lon="2.4351300">
        <ele>134.2</ele>
        <time>2021-06-17T10:55:17Z</time>
      </trkpt>
      <trkpt lat="39.5860430" lon="2.4356010">
        <ele>133.4</ele>
        <time>2021-06-17T10:55:22Z</time>
      </trkpt>
      <trkpt lat="39.5860110" lon="2.4356620">
        <ele>133.3</ele>
        <time>2021-06-17T10:55:23Z</time>
      </trkpt>
      <trkpt lat="39.5859490" lon="2.4357250">
        <ele>133.1</ele>
        <time>2021-06-17T10:55:24Z</time>
      </trkpt>
      <trkpt lat="39.5858830" lon="2.4357390">
        <ele>132.8</ele>
        <time>2021-06-17T10:55:25Z</time>
      </trkpt>
      <trkpt lat="39.5858220" lon="2.4357240">
        <ele>132.5</ele>
        <time>2021-06-17T10:55:26Z</time>
      </trkpt>
      <trkpt lat="39.5857780" lon="2.4356770">
        <ele>132.2</ele>
        <time>2021-06-17T10:55:27Z</time>
      </trkpt>
      <trkpt lat="39.5857190" lon="2.4355880">
        <ele>131.7</ele>
        <time>2021-06-17T10:55:28Z</time>
      </trkpt>
      <trkpt lat="39.5856170" lon="2.4354280">
        <ele>130.9</ele>
        <time>2021-06-17T10:55:30Z</time>
      </trkpt>
      <trkpt lat="39.5855550" lon="2.4353500">
        <ele>130.4</ele>
        <time>2021-06-17T10:55:31Z</time>
      </trkpt>
      <trkpt lat="39.5854440" lon="2.4351910">
        <ele>129.7</ele>
        <time>2021-06-17T10:55:33Z</time>
      </trkpt>
      <trkpt lat="39.5854130" lon="2.4350850">
        <ele>129.3</ele>
        <time>2021-06-17T10:55:34Z</time>
      </trkpt>
      <trkpt lat="39.5854060" lon="2.4349650">
        <ele>129.0</ele>
        <time>2021-06-17T10:55:35Z</time>
      </trkpt>
      <trkpt lat="39.5854430" lon="2.4347400">
        <ele>128.3</ele>
        <time>2021-06-17T10:55:37Z</time>
      </trkpt>
      <trkpt lat="39.5854960" lon="2.4345240">
        <ele>127.6</ele>
        <time>2021-06-17T10:55:39Z</time>
      </trkpt>
      <trkpt lat="39.5854990" lon="2.4343440">
        <ele>127.0</ele>
        <time>2021-06-17T10:55:41Z</time>
      </trkpt>
      <trkpt lat="39.5854190" lon="2.4341770">
        <ele>126.2</ele>
        <time>2021-06-17T10:55:43Z</time>
      </trkpt>
      <trkpt lat="39.5852670" lon="2.4340790">
        <ele>125.2</ele>
        <time>2021-06-17T10:55:45Z</time>
      </trkpt>
      <trkpt lat="39.5852020" lon="2.4340580">
        <ele>124.8</ele>
        <time>2021-06-17T10:55:46Z</time>
      </trkpt>
      <trkpt lat="39.5850970" lon="2.4340450">
        <ele>124.3</ele>
        <time>2021-06-17T10:55:47Z</time>
      </trkpt>
      <trkpt lat="39.5848220" lon="2.4340460">
        <ele>123.1</ele>
        <time>2021-06-17T10:55:50Z</time>
      </trkpt>
      <trkpt lat="39.5846460" lon="2.4339790">
        <ele>122.0</ele>
        <time>2021-06-17T10:55:52Z</time>
      </trkpt>
      <trkpt lat="39.5845680" lon="2.4339210">
        <ele>121.3</ele>
        <time>2021-06-17T10:55:53Z</time>
      </trkpt>
      <trkpt lat="39.5840920" lon="2.4334790">
        <ele>117.2</ele>
        <time>2021-06-17T10:55:59Z</time>
      </trkpt>
      <trkpt lat="39.5839210" lon="2.4332160">
        <ele>115.4</ele>
        <time>2021-06-17T10:56:02Z</time>
      </trkpt>
      <trkpt lat="39.5838830" lon="2.4331150">
        <ele>114.8</ele>
        <time>2021-06-17T10:56:03Z</time>
      </trkpt>
      <trkpt lat="39.5837980" lon="2.4329220">
        <ele>113.9</ele>
        <time>2021-06-17T10:56:05Z</time>
      </trkpt>
      <trkpt lat="39.5836920" lon="2.4327590">
        <ele>113.1</ele>
        <time>2021-06-17T10:56:07Z</time>
      </trkpt>
      <trkpt lat="39.5835710" lon="2.4326020">
        <ele>112.5</ele>
        <time>2021-06-17T10:56:09Z</time>
      </trkpt>
      <trkpt lat="39.5834350" lon="2.4325190">
        <ele>111.8</ele>
        <time>2021-06-17T10:56:11Z</time>
      </trkpt>
      <trkpt lat="39.5833040" lon="2.4325260">
        <ele>111.1</ele>
        <time>2021-06-17T10:56:13Z</time>
      </trkpt>
      <trkpt lat="39.5832330" lon="2.4325500">
        <ele>110.6</ele>
        <time>2021-06-17T10:56:14Z</time>
      </trkpt>
      <trkpt lat="39.5829420" lon="2.4326380">
        <ele>108.8</ele>
        <time>2021-06-17T10:56:18Z</time>
      </trkpt>
      <trkpt lat="39.5828780" lon="2.4326380">
        <ele>108.5</ele>
        <time>2021-06-17T10:56:19Z</time>
      </trkpt>
      <trkpt lat="39.5827430" lon="2.4326150">
        <ele>107.6</ele>
        <time>2021-06-17T10:56:22Z</time>
      </trkpt>
      <trkpt lat="39.5825880" lon="2.4325770">
        <ele>106.5</ele>
        <time>2021-06-17T10:56:26Z</time>
      </trkpt>
      <trkpt lat="39.5825420" lon="2.4325560">
        <ele>106.2</ele>
        <time>2021-06-17T10:56:27Z</time>
      </trkpt>
      <trkpt lat="39.5823850" lon="2.4324730">
        <ele>105.0</ele>
        <time>2021-06-17T10:56:30Z</time>
      </trkpt>
      <trkpt lat="39.5821520" lon="2.4323470">
        <ele>103.1</ele>
        <time>2021-06-17T10:56:34Z</time>
      </trkpt>
      <trkpt lat="39.5820940" lon="2.4322980">
        <ele>102.5</ele>
        <time>2021-06-17T10:56:35Z</time>
      </trkpt>
      <trkpt lat="39.5818120" lon="2.4319990">
        <ele>99.7</ele>
        <time>2021-06-17T10:56:40Z</time>
      </trkpt>
      <trkpt lat="39.5814990" lon="2.4316690">
        <ele>97.1</ele>
        <time>2021-06-17T10:56:45Z</time>
      </trkpt>
      <trkpt lat="39.5812280" lon="2.4313900">
        <ele>95.4</ele>
        <time>2021-06-17T10:56:49Z</time>
      </trkpt>
      <trkpt lat="39.5810710" lon="2.4312770">
        <ele>95.1</ele>
        <time>2021-06-17T10:56:51Z</time>
      </trkpt>
      <trkpt lat="39.5806740" lon="2.4310950">
        <ele>94.3</ele>
        <time>2021-06-17T10:56:56Z</time>
      </trkpt>
      <trkpt lat="39.5801130" lon="2.4309450">
        <ele>94.2</ele>
        <time>2021-06-17T10:57:03Z</time>
      </trkpt>
      <trkpt lat="39.5797490" lon="2.4308280">
        <ele>94.9</ele>
        <time>2021-06-17T10:57:09Z</time>
      </trkpt>
      <trkpt lat="39.5794890" lon="2.4306400">
        <ele>95.4</ele>
        <time>2021-06-17T10:57:15Z</time>
      </trkpt>
      <trkpt lat="39.5792740" lon="2.4303690">
        <ele>96.0</ele>
        <time>2021-06-17T10:57:21Z</time>
      </trkpt>
      <trkpt lat="39.5791800" lon="2.4302350">
        <ele>96.3</ele>
        <time>2021-06-17T10:57:24Z</time>
      </trkpt>
      <trkpt lat="39.5790690" lon="2.4300570">
        <ele>96.5</ele>
        <time>2021-06-17T10:57:28Z</time>
      </trkpt>
      <trkpt lat="39.5790090" lon="2.4299700">
        <ele>96.6</ele>
        <time>2021-06-17T10:57:30Z</time>
      </trkpt>
      <trkpt lat="39.5789820" lon="2.4299250">
        <ele>96.6</ele>
        <time>2021-06-17T10:57:31Z</time>
      </trkpt>
      <trkpt lat="39.5789320" lon="2.4298390">
        <ele>96.6</ele>
        <time>2021-06-17T10:57:33Z</time>
      </trkpt>
      <trkpt lat="39.5789120" lon="2.4297920">
        <ele>96.6</ele>
        <time>2021-06-17T10:57:34Z</time>
      </trkpt>
      <trkpt lat="39.5788950" lon="2.4297410">
        <ele>96.5</ele>
        <time>2021-06-17T10:57:35Z</time>
      </trkpt>
      <trkpt lat="39.5788800" lon="2.4296850">
        <ele>96.5</ele>
        <time>2021-06-17T10:57:36Z</time>
      </trkpt>
      <trkpt lat="39.5788410" lon="2.4295000">
        <ele>96.5</ele>
        <time>2021-06-17T10:57:39Z</time>
      </trkpt>
      <trkpt lat="39.5788050" lon="2.4292900">
        <ele>96.6</ele>
        <time>2021-06-17T10:57:42Z</time>
      </trkpt>
      <trkpt lat="39.5787510" lon="2.4288160">
        <ele>96.7</ele>
        <time>2021-06-17T10:57:49Z</time>
      </trkpt>
      <trkpt lat="39.5787280" lon="2.4286810">
        <ele>96.8</ele>
        <time>2021-06-17T10:57:51Z</time>
      </trkpt>
      <trkpt lat="39.5786580" lon="2.4284350">
        <ele>97.0</ele>
        <time>2021-06-17T10:57:55Z</time>
      </trkpt>
      <trkpt lat="39.5785970" lon="2.4283520">
        <ele>97.1</ele>
        <time>2021-06-17T10:57:57Z</time>
      </trkpt>
      <trkpt lat="39.5784200" lon="2.4281560">
        <ele>97.4</ele>
        <time>2021-06-17T10:58:02Z</time>
      </trkpt>
      <trkpt lat="39.5783910" lon="2.4281160">
        <ele>97.5</ele>
        <time>2021-06-17T10:58:03Z</time>
      </trkpt>
      <trkpt lat="39.5783590" lon="2.4280730">
        <ele>97.6</ele>
        <time>2021-06-17T10:58:04Z</time>
      </trkpt>
      <trkpt lat="39.5781550" lon="2.4277930">
        <ele>98.3</ele>
        <time>2021-06-17T10:58:11Z</time>
      </trkpt>
      <trkpt lat="39.5780990" lon="2.4276870">
        <ele>98.6</ele>
        <time>2021-06-17T10:58:13Z</time>
      </trkpt>
      <trkpt lat="39.5780770" lon="2.4276380">
        <ele>98.7</ele>
        <time>2021-06-17T10:58:14Z</time>
      </trkpt>
      <trkpt lat="39.5780490" lon="2.4275430">
        <ele>98.9</ele>
        <time>2021-06-17T10:58:16Z</time>
      </trkpt>
      <trkpt lat="39.5780400" lon="2.4274900">
        <ele>98.9</ele>
        <time>2021-06-17T10:58:17Z</time>
      </trkpt>
      <trkpt lat="39.5780110" lon="2.4272680">
        <ele>99.1</ele>
        <time>2021-06-17T10:58:21Z</time>
      </trkpt>
      <trkpt lat="39.5779540" lon="2.4269080">
        <ele>98.9</ele>
        <time>2021-06-17T10:58:27Z</time>
      </trkpt>
      <trkpt lat="39.5779270" lon="2.4268500">
        <ele>98.8</ele>
        <time>2021-06-17T10:58:28Z</time>
      </trkpt>
      <trkpt lat="39.5778720" lon="2.4267520">
        <ele>98.8</ele>
        <time>2021-06-17T10:58:30Z</time>
      </trkpt>
      <trkpt lat="39.5777930" lon="2.4266340">
        <ele>98.7</ele>
        <time>2021-06-17T10:58:32Z</time>
      </trkpt>
      <trkpt lat="39.5777310" lon="2.4265350">
        <ele>98.7</ele>
        <time>2021-06-17T10:58:34Z</time>
      </trkpt>
      <trkpt lat="39.5774800" lon="2.4261410">
        <ele>98.6</ele>
        <time>2021-06-17T10:58:41Z</time>
      </trkpt>
      <trkpt lat="39.5774350" lon="2.4260040">
        <ele>98.5</ele>
        <time>2021-06-17T10:58:43Z</time>
      </trkpt>
      <trkpt lat="39.5774130" lon="2.4258340">
        <ele>98.5</ele>
        <time>2021-06-17T10:58:45Z</time>
      </trkpt>
      <trkpt lat="39.5773710" lon="2.4253580">
        <ele>98.2</ele>
        <time>2021-06-17T10:58:51Z</time>
      </trkpt>
      <trkpt lat="39.5773030" lon="2.4249180">
        <ele>97.6</ele>
        <time>2021-06-17T10:58:57Z</time>
      </trkpt>
      <trkpt lat="39.5772540" lon="2.4247370">
        <ele>97.5</ele>
        <time>2021-06-17T10:59:01Z</time>
      </trkpt>
      <trkpt lat="39.5771650" lon="2.4245410">
        <ele>97.2</ele>
        <time>2021-06-17T10:59:07Z</time>
      </trkpt>
      <trkpt lat="39.5771100" lon="2.4244760">
        <ele>96.8</ele>
        <time>2021-06-17T10:59:11Z</time>
      </trkpt>
      <trkpt lat="39.5770860" lon="2.4244730">
        <ele>96.6</ele>
        <time>2021-06-17T10:59:12Z</time>
      </trkpt>
      <trkpt lat="39.5770070" lon="2.4245050">
        <ele>96.2</ele>
        <time>2021-06-17T10:59:15Z</time>
      </trkpt>
      <trkpt lat="39.5769630" lon="2.4245650">
        <ele>96.1</ele>
        <time>2021-06-17T10:59:17Z</time>
      </trkpt>
      <trkpt lat="39.5769530" lon="2.4246070">
        <ele>96.1</ele>
        <time>2021-06-17T10:59:18Z</time>
      </trkpt>
      <trkpt lat="39.5769710" lon="2.4247430">
        <ele>96.2</ele>
        <time>2021-06-17T10:59:21Z</time>
      </trkpt>
      <trkpt lat="39.5770410" lon="2.4248130">
        <ele>96.6</ele>
        <time>2021-06-17T10:59:24Z</time>
      </trkpt>
      <trkpt lat="39.5770650" lon="2.4248210">
        <ele>96.7</ele>
        <time>2021-06-17T10:59:25Z</time>
      </trkpt>
      <trkpt lat="39.5772170" lon="2.4247770">
        <ele>97.4</ele>
        <time>2021-06-17T10:59:30Z</time>
      </trkpt>
      <trkpt lat="39.5773950" lon="2.4246110">
        <ele>97.6</ele>
        <time>2021-06-17T10:59:36Z</time>
      </trkpt>
      <trkpt lat="39.5774630" lon="2.4245950">
        <ele>97.8</ele>
        <time>2021-06-17T10:59:38Z</time>
      </trkpt>
      <trkpt lat="39.5775850" lon="2.4245730">
        <ele>98.2</ele>
        <time>2021-06-17T10:59:42Z</time>
      </trkpt>
      <trkpt lat="39.5777890" lon="2.4245250">
        <ele>99.1</ele>
        <time>2021-06-17T10:59:49Z</time>
      </trkpt>
      <trkpt lat="39.5778500" lon="2.4245060">
        <ele>99.4</ele>
        <time>2021-06-17T10:59:51Z</time>
      </trkpt>
      <trkpt lat="39.5778820" lon="2.4245040">
        <ele>99.6</ele>
        <time>2021-06-17T10:59:52Z</time>
      </trkpt>
      <trkpt lat="39.5779110" lon="2.4245000">
        <ele>99.8</ele>
        <time>2021-06-17T10:59:53Z</time>
      </trkpt>
      <trkpt lat="39.5779960" lon="2.4244910">
        <ele>100.5</ele>
        <time>2021-06-17T10:59:56Z</time>
      </trkpt>
      <trkpt lat="39.5780550" lon="2.4244900">
        <ele>100.9</ele>
        <time>2021-06-17T10:59:58Z</time>
      </trkpt>
      <trkpt lat="39.5781480" lon="2.4244850">
        <ele>101.7</ele>
        <time>2021-06-17T11:00:01Z</time>
      </trkpt>
      <trkpt lat="39.5782660" lon="2.4245160">
        <ele>102.6</ele>
        <time>2021-06-17T11:00:05Z</time>
      </trkpt>
      <trkpt lat="39.5783760" lon="2.4245920">
        <ele>103.6</ele>
        <time>2021-06-17T11:00:09Z</time>
      </trkpt>
      <trkpt lat="39.5784590" lon="2.4246610">
        <ele>104.5</ele>
        <time>2021-06-17T11:00:12Z</time>
      </trkpt>
      <trkpt lat="39.5786300" lon="2.4247810">
        <ele>106.2</ele>
        <time>2021-06-17T11:00:19Z</time>
      </trkpt>
      <trkpt lat="39.5786970" lon="2.4248230">
        <ele>106.8</ele>
        <time>2021-06-17T11:00:23Z</time>
      </trkpt>
      <trkpt lat="39.5786990" lon="2.4248270">
        <ele>106.8</ele>
        <time>2021-06-17T11:00:24Z</time>
      </trkpt>
      <trkpt lat="39.5786990" lon="2.4248300">
        <ele>106.8</ele>
        <time>2021-06-17T11:00:30Z</time>
      </trkpt>
      <trkpt lat="39.5787040" lon="2.4248290">
        <ele>106.9</ele>
        <time>2021-06-17T11:00:39Z</time>
      </trkpt>
      <trkpt lat="39.5787040" lon="2.4248290">
        <ele>106.9</ele>
        <time>2021-06-17T11:00:41Z</time>
      </trkpt>
      <trkpt lat="39.5819090" lon="2.4172120">
        <ele>154.7</ele>
        <time>2021-06-17T11:09:53Z</time>
      </trkpt>
      <trkpt lat="39.5819300" lon="2.4171820">
        <ele>154.8</ele>
        <time>2021-06-17T11:09:54Z</time>
      </trkpt>
      <trkpt lat="39.5821160" lon="2.4168610">
        <ele>156.3</ele>
        <time>2021-06-17T11:10:02Z</time>
      </trkpt>
      <trkpt lat="39.5821260" lon="2.4165730">
        <ele>157.2</ele>
        <time>2021-06-17T11:10:08Z</time>
      </trkpt>
      <trkpt lat="39.5820750" lon="2.4162320">
        <ele>158.3</ele>
        <time>2021-06-17T11:10:15Z</time>
      </trkpt>
      <trkpt lat="39.5820280" lon="2.4158120">
        <ele>159.8</ele>
        <time>2021-06-17T11:10:23Z</time>
      </trkpt>
      <trkpt lat="39.5820270" lon="2.4157020">
        <ele>160.2</ele>
        <time>2021-06-17T11:10:25Z</time>
      </trkpt>
      <trkpt lat="39.5820520" lon="2.4155420">
        <ele>160.9</ele>
        <time>2021-06-17T11:10:28Z</time>
      </trkpt>
      <trkpt lat="39.5820730" lon="2.4154970">
        <ele>161.1</ele>
        <time>2021-06-17T11:10:29Z</time>
      </trkpt>
      <trkpt lat="39.5821000" lon="2.4154580">
        <ele>161.3</ele>
        <time>2021-06-17T11:10:30Z</time>
      </trkpt>
      <trkpt lat="39.5822550" lon="2.4153100">
        <ele>162.4</ele>
        <time>2021-06-17T11:10:35Z</time>
      </trkpt>
      <trkpt lat="39.5824560" lon="2.4152500">
        <ele>163.7</ele>
        <time>2021-06-17T11:10:40Z</time>
      </trkpt>
      <trkpt lat="39.5825930" lon="2.4153550">
        <ele>164.6</ele>
        <time>2021-06-17T11:10:44Z</time>
      </trkpt>
      <trkpt lat="39.5827080" lon="2.4156240">
        <ele>165.7</ele>
        <time>2021-06-17T11:10:50Z</time>
      </trkpt>
      <trkpt lat="39.5828130" lon="2.4158950">
        <ele>166.7</ele>
        <time>2021-06-17T11:10:56Z</time>
      </trkpt>
      <trkpt lat="39.5829890" lon="2.4162000">
        <ele>168.4</ele>
        <time>2021-06-17T11:11:04Z</time>
      </trkpt>
      <trkpt lat="39.5831260" lon="2.4163140">
        <ele>169.5</ele>
        <time>2021-06-17T11:11:09Z</time>
      </trkpt>
      <trkpt lat="39.5833230" lon="2.4164550">
        <ele>171.0</ele>
        <time>2021-06-17T11:11:16Z</time>
      </trkpt>
      <trkpt lat="39.5836330" lon="2.4166830">
        <ele>173.6</ele>
        <time>2021-06-17T11:11:27Z</time>
      </trkpt>
      <trkpt lat="39.5839620" lon="2.4169140">
        <ele>176.3</ele>
        <time>2021-06-17T11:11:39Z</time>
      </trkpt>
      <trkpt lat="39.5842190" lon="2.4171000">
        <ele>178.4</ele>
        <time>2021-06-17T11:11:48Z</time>
      </trkpt>
      <trkpt lat="39.5845140" lon="2.4172790">
        <ele>180.5</ele>
        <time>2021-06-17T11:11:58Z</time>
      </trkpt>
      <trkpt lat="39.5846540" lon="2.4173630">
        <ele>181.5</ele>
        <time>2021-06-17T11:12:03Z</time>
      </trkpt>
      <trkpt lat="39.5848310" lon="2.4174740">
        <ele>182.8</ele>
        <time>2021-06-17T11:12:09Z</time>
      </trkpt>
      <trkpt lat="39.5851130" lon="2.4176230">
        <ele>184.7</ele>
        <time>2021-06-17T11:12:18Z</time>
      </trkpt>
      <trkpt lat="39.5854850" lon="2.4178180">
        <ele>186.7</ele>
        <time>2021-06-17T11:12:30Z</time>
      </trkpt>
      <trkpt lat="39.5858270" lon="2.4180310">
        <ele>188.7</ele>
        <time>2021-06-17T11:12:41Z</time>
      </trkpt>
      <trkpt lat="39.5860670" lon="2.4182620">
        <ele>190.5</ele>
        <time>2021-06-17T11:12:50Z</time>
      </trkpt>
      <trkpt lat="39.5862570" lon="2.4184680">
        <ele>192.1</ele>
        <time>2021-06-17T11:12:58Z</time>
      </trkpt>
      <trkpt lat="39.5864450" lon="2.4186960">
        <ele>193.8</ele>
        <time>2021-06-17T11:13:06Z</time>
      </trkpt>
      <trkpt lat="39.5866890" lon="2.4189340">
        <ele>195.7</ele>
        <time>2021-06-17T11:13:15Z</time>
      </trkpt>
      <trkpt lat="39.5869630" lon="2.4190200">
        <ele>197.1</ele>
        <time>2021-06-17T11:13:23Z</time>
      </trkpt>
      <trkpt lat="39.5873120" lon="2.4190560">
        <ele>198.8</ele>
        <time>2021-06-17T11:13:33Z</time>
      </trkpt>
      <trkpt lat="39.5875640" lon="2.4191220">
        <ele>200.1</ele>
        <time>2021-06-17T11:13:41Z</time>
      </trkpt>
      <trkpt lat="39.5878710" lon="2.4191490">
        <ele>201.6</ele>
        <time>2021-06-17T11:13:50Z</time>
      </trkpt>
      <trkpt lat="39.5881840" lon="2.4192050">
        <ele>203.1</ele>
        <time>2021-06-17T11:13:59Z</time>
      </trkpt>
      <trkpt lat="39.5885200" lon="2.4192350">
        <ele>204.7</ele>
        <time>2021-06-17T11:14:08Z</time>
      </trkpt>
      <trkpt lat="39.5888360" lon="2.4192490">
        <ele>206.2</ele>
        <time>2021-06-17T11:14:17Z</time>
      </trkpt>
      <trkpt lat="39.5892040" lon="2.4192560">
        <ele>208.1</ele>
        <time>2021-06-17T11:14:27Z</time>
      </trkpt>
      <trkpt lat="39.5894980" lon="2.4193770">
        <ele>210.0</ele>
        <time>2021-06-17T11:14:36Z</time>
      </trkpt>
      <trkpt lat="39.5898610" lon="2.4195650">
        <ele>212.4</ele>
        <time>2021-06-17T11:14:48Z</time>
      </trkpt>
      <trkpt lat="39.5901470" lon="2.4196970">
        <ele>214.3</ele>
        <time>2021-06-17T11:14:57Z</time>
      </trkpt>
      <trkpt lat="39.5905230" lon="2.4197960">
        <ele>216.5</ele>
        <time>2021-06-17T11:15:08Z</time>
      </trkpt>
      <trkpt lat="39.5909340" lon="2.4197530">
        <ele>218.9</ele>
        <time>2021-06-17T11:15:19Z</time>
      </trkpt>
      <trkpt lat="39.5911070" lon="2.4197570">
        <ele>220.0</ele>
        <time>2021-06-17T11:15:24Z</time>
      </trkpt>
      <trkpt lat="39.5912070" lon="2.4197930">
        <ele>220.6</ele>
        <time>2021-06-17T11:15:27Z</time>
      </trkpt>
      <trkpt lat="39.5913940" lon="2.4198790">
        <ele>221.9</ele>
        <time>2021-06-17T11:15:33Z</time>
      </trkpt>
      <trkpt lat="39.5916980" lon="2.4199800">
        <ele>223.9</ele>
        <time>2021-06-17T11:15:42Z</time>
      </trkpt>
      <trkpt lat="39.5919320" lon="2.4201170">
        <ele>225.6</ele>
        <time>2021-06-17T11:15:49Z</time>
      </trkpt>
      <trkpt lat="39.5920480" lon="2.4202050">
        <ele>226.4</ele>
        <time>2021-06-17T11:15:53Z</time>
      </trkpt>
      <trkpt lat="39.5922450" lon="2.4203460">
        <ele>227.9</ele>
        <time>2021-06-17T11:16:00Z</time>
      </trkpt>
      <trkpt lat="39.5924220" lon="2.4204410">
        <ele>229.2</ele>
        <time>2021-06-17T11:16:07Z</time>
      </trkpt>
      <trkpt lat="39.5925700" lon="2.4204480">
        <ele>230.1</ele>
        <time>2021-06-17T11:16:12Z</time>
      </trkpt>
      <trkpt lat="39.5928040" lon="2.4203160">
        <ele>231.5</ele>
        <time>2021-06-17T11:16:20Z</time>
      </trkpt>
      <trkpt lat="39.5930560" lon="2.4202240">
        <ele>232.8</ele>
        <time>2021-06-17T11:16:28Z</time>
      </trkpt>
      <trkpt lat="39.5932620" lon="2.4201650">
        <ele>233.9</ele>
        <time>2021-06-17T11:16:34Z</time>
      </trkpt>
      <trkpt lat="39.5935160" lon="2.4201570">
        <ele>235.2</ele>
        <time>2021-06-17T11:16:41Z</time>
      </trkpt>
      <trkpt lat="39.5937120" lon="2.4200710">
        <ele>236.3</ele>
        <time>2021-06-17T11:16:47Z</time>
      </trkpt>
      <trkpt lat="39.5938370" lon="2.4198390">
        <ele>237.3</ele>
        <time>2021-06-17T11:16:53Z</time>
      </trkpt>
      <trkpt lat="39.5940140" lon="2.4195350">
        <ele>238.5</ele>
        <time>2021-06-17T11:17:01Z</time>
      </trkpt>
      <trkpt lat="39.5941830" lon="2.4194590">
        <ele>239.3</ele>
        <time>2021-06-17T11:17:06Z</time>
      </trkpt>
      <trkpt lat="39.5944980" lon="2.4194440">
        <ele>241.0</ele>
        <time>2021-06-17T11:17:15Z</time>
      </trkpt>
      <trkpt lat="39.5946510" lon="2.4195770">
        <ele>242.0</ele>
        <time>2021-06-17T11:17:20Z</time>
      </trkpt>
      <trkpt lat="39.5948180" lon="2.4198840">
        <ele>243.5</ele>
        <time>2021-06-17T11:17:28Z</time>
      </trkpt>
      <trkpt lat="39.5949540" lon="2.4200880">
        <ele>244.7</ele>
        <time>2021-06-17T11:17:34Z</time>
      </trkpt>
      <trkpt lat="39.5951320" lon="2.4202070">
        <ele>245.7</ele>
        <time>2021-06-17T11:17:40Z</time>
      </trkpt>
      <trkpt lat="39.5955100" lon="2.4203460">
        <ele>248.0</ele>
        <time>2021-06-17T11:17:51Z</time>
      </trkpt>
      <trkpt lat="39.5957240" lon="2.4203360">
        <ele>249.3</ele>
        <time>2021-06-17T11:17:57Z</time>
      </trkpt>
      <trkpt lat="39.5958920" lon="2.4201820">
        <ele>250.3</ele>
        <time>2021-06-17T11:18:03Z</time>
      </trkpt>
      <trkpt lat="39.5960760" lon="2.4200940">
        <ele>251.2</ele>
        <time>2021-06-17T11:18:08Z</time>
      </trkpt>
      <trkpt lat="39.5962840" lon="2.4201510">
        <ele>252.2</ele>
        <time>2021-06-17T11:18:14Z</time>
      </trkpt>
      <trkpt lat="39.5964620" lon="2.4201230">
        <ele>253.1</ele>
        <time>2021-06-17T11:18:19Z</time>
      </trkpt>
      <trkpt lat="39.5967400" lon="2.4199620">
        <ele>254.4</ele>
        <time>2021-06-17T11:18:27Z</time>
      </trkpt>
      <trkpt lat="39.5970180" lon="2.4198020">
        <ele>255.8</ele>
        <time>2021-06-17T11:18:35Z</time>
      </trkpt>
      <trkpt lat="39.5972090" lon="2.4198100">
        <ele>256.8</ele>
        <time>2021-06-17T11:18:40Z</time>
      </trkpt>
      <trkpt lat="39.5974680" lon="2.4199150">
        <ele>258.5</ele>
        <time>2021-06-17T11:18:48Z</time>
      </trkpt>
      <trkpt lat="39.5977220" lon="2.4200450">
        <ele>260.4</ele>
        <time>2021-06-17T11:18:56Z</time>
      </trkpt>
      <trkpt lat="39.5980570" lon="2.4203040">
        <ele>263.0</ele>
        <time>2021-06-17T11:19:07Z</time>
      </trkpt>
      <trkpt lat="39.5982950" lon="2.4204690">
        <ele>264.7</ele>
        <time>2021-06-17T11:19:15Z</time>
      </trkpt>
      <trkpt lat="39.5984700" lon="2.4204870">
        <ele>265.8</ele>
        <time>2021-06-17T11:19:20Z</time>
      </trkpt>
      <trkpt lat="39.5987910" lon="2.4204140">
        <ele>267.8</ele>
        <time>2021-06-17T11:19:29Z</time>
      </trkpt>
      <trkpt lat="39.5991340" lon="2.4203640">
        <ele>269.8</ele>
        <time>2021-06-17T11:19:38Z</time>
      </trkpt>
      <trkpt lat="39.5993660" lon="2.4204340">
        <ele>271.0</ele>
        <time>2021-06-17T11:19:44Z</time>
      </trkpt>
      <trkpt lat="39.5996340" lon="2.4206490">
        <ele>272.4</ele>
        <time>2021-06-17T11:19:52Z</time>
      </trkpt>
      <trkpt lat="39.5998670" lon="2.4207980">
        <ele>273.7</ele>
        <time>2021-06-17T11:19:59Z</time>
      </trkpt>
      <trkpt lat="39.6001540" lon="2.4208150">
        <ele>274.9</ele>
        <time>2021-06-17T11:20:06Z</time>
      </trkpt>
      <trkpt lat="39.6002430" lon="2.4207670">
        <ele>275.1</ele>
        <time>2021-06-17T11:20:08Z</time>
      </trkpt>
      <trkpt lat="39.6003370" lon="2.4206630">
        <ele>275.4</ele>
        <time>2021-06-17T11:20:11Z</time>
      </trkpt>
      <trkpt lat="39.6003880" lon="2.4205810">
        <ele>275.6</ele>
        <time>2021-06-17T11:20:13Z</time>
      </trkpt>
      <trkpt lat="39.6004720" lon="2.4203800">
        <ele>276.0</ele>
        <time>2021-06-17T11:20:17Z</time>
      </trkpt>
      <trkpt lat="39.6005280" lon="2.4202340">
        <ele>276.4</ele>
        <time>2021-06-17T11:20:20Z</time>
      </trkpt>
      <trkpt lat="39.6005660" lon="2.4201400">
        <ele>276.6</ele>
        <time>2021-06-17T11:20:22Z</time>
      </trkpt>
      <trkpt lat="39.6005810" lon="2.4200880">
        <ele>276.7</ele>
        <time>2021-06-17T11:20:23Z</time>
      </trkpt>
      <trkpt lat="39.6007050" lon="2.4197860">
        <ele>277.4</ele>
        <time>2021-06-17T11:20:29Z</time>
      </trkpt>
      <trkpt lat="39.6007900" lon="2.4195960">
        <ele>278.1</ele>
        <time>2021-06-17T11:20:33Z</time>
      </trkpt>
      <trkpt lat="39.6008090" lon="2.4195500">
        <ele>278.2</ele>
        <time>2021-06-17T11:20:34Z</time>
      </trkpt>
      <trkpt lat="39.6009320" lon="2.4193580">
        <ele>279.3</ele>
        <time>2021-06-17T11:20:39Z</time>
      </trkpt>
      <trkpt lat="39.6011450" lon="2.4191520">
        <ele>281.0</ele>
        <time>2021-06-17T11:20:46Z</time>
      </trkpt>
      <trkpt lat="39.6013730" lon="2.4189680">
        <ele>282.8</ele>
        <time>2021-06-17T11:20:53Z</time>
      </trkpt>
      <trkpt lat="39.6014740" lon="2.4187670">
        <ele>283.7</ele>
        <time>2021-06-17T11:20:58Z</time>
      </trkpt>
      <trkpt lat="39.6014410" lon="2.4185180">
        <ele>284.6</ele>
        <time>2021-06-17T11:21:03Z</time>
      </trkpt>
      <trkpt lat="39.6014010" lon="2.4181770">
        <ele>286.3</ele>
        <time>2021-06-17T11:21:10Z</time>
      </trkpt>
      <trkpt lat="39.6014980" lon="2.4179600">
        <ele>287.6</ele>
        <time>2021-06-17T11:21:15Z</time>
      </trkpt>
      <trkpt lat="39.6017450" lon="2.4177850">
        <ele>289.6</ele>
        <time>2021-06-17T11:21:24Z</time>
      </trkpt>
      <trkpt lat="39.6017820" lon="2.4177620">
        <ele>289.9</ele>
        <time>2021-06-17T11:21:25Z</time>
      </trkpt>
      <trkpt lat="39.6020090" lon="2.4176590">
        <ele>291.5</ele>
        <time>2021-06-17T11:21:32Z</time>
      </trkpt>
      <trkpt lat="39.6022750" lon="2.4174960">
        <ele>293.4</ele>
        <time>2021-06-17T11:21:40Z</time>
      </trkpt>
      <trkpt lat="39.6023770" lon="2.4173070">
        <ele>294.5</ele>
        <time>2021-06-17T11:21:45Z</time>
      </trkpt>
      <trkpt lat="39.6024080" lon="2.4170390">
        <ele>295.8</ele>
        <time>2021-06-17T11:21:51Z</time>
      </trkpt>
      <trkpt lat="39.6023350" lon="2.4168140">
        <ele>296.9</ele>
        <time>2021-06-17T11:21:56Z</time>
      </trkpt>
      <trkpt lat="39.6021740" lon="2.4167040">
        <ele>297.9</ele>
        <time>2021-06-17T11:22:01Z</time>
      </trkpt>
      <trkpt lat="39.6019870" lon="2.4167370">
        <ele>298.8</ele>
        <time>2021-06-17T11:22:06Z</time>
      </trkpt>
      <trkpt lat="39.6018020" lon="2.4167690">
        <ele>299.7</ele>
        <time>2021-06-17T11:22:11Z</time>
      </trkpt>
      <trkpt lat="39.6015420" lon="2.4166860">
        <ele>301.4</ele>
        <time>2021-06-17T11:22:18Z</time>
      </trkpt>
      <trkpt lat="39.6013400" lon="2.4165720">
        <ele>303.0</ele>
        <time>2021-06-17T11:22:24Z</time>
      </trkpt>
      <trkpt lat="39.6011930" lon="2.4163370">
        <ele>304.6</ele>
        <time>2021-06-17T11:22:30Z</time>
      </trkpt>
      <trkpt lat="39.6011770" lon="2.4161090">
        <ele>305.6</ele>
        <time>2021-06-17T11:22:35Z</time>
      </trkpt>
      <trkpt lat="39.6012840" lon="2.4156900">
        <ele>307.5</ele>
        <time>2021-06-17T11:22:44Z</time>
      </trkpt>
      <trkpt lat="39.6013970" lon="2.4153040">
        <ele>309.2</ele>
        <time>2021-06-17T11:22:52Z</time>
      </trkpt>
      <trkpt lat="39.6015010" lon="2.4149540">
        <ele>310.8</ele>
        <time>2021-06-17T11:22:59Z</time>
      </trkpt>
      <trkpt lat="39.6015870" lon="2.4146200">
        <ele>312.6</ele>
        <time>2021-06-17T11:23:06Z</time>
      </trkpt>
      <trkpt lat="39.6015970" lon="2.4145820">
        <ele>312.8</ele>
        <time>2021-06-17T11:23:07Z</time>
      </trkpt>
      <trkpt lat="39.6016350" lon="2.4144310">
        <ele>313.5</ele>
        <time>2021-06-17T11:23:10Z</time>
      </trkpt>
      <trkpt lat="39.6016540" lon="2.4143390">
        <ele>314.0</ele>
        <time>2021-06-17T11:23:12Z</time>
      </trkpt>
      <trkpt lat="39.6016810" lon="2.4141830">
        <ele>314.7</ele>
        <time>2021-06-17T11:23:15Z</time>
      </trkpt>
      <trkpt lat="39.6017000" lon="2.4140490">
        <ele>315.2</ele>
        <time>2021-06-17T11:23:18Z</time>
      </trkpt>
      <trkpt lat="39.6017150" lon="2.4136590">
        <ele>316.9</ele>
        <time>2021-06-17T11:23:26Z</time>
      </trkpt>
      <trkpt lat="39.6016720" lon="2.4132740">
        <ele>318.7</ele>
        <time>2021-06-17T11:23:34Z</time>
      </trkpt>
      <trkpt lat="39.6015440" lon="2.4129050">
        <ele>320.5</ele>
        <time>2021-06-17T11:23:42Z</time>
      </trkpt>
      <trkpt lat="39.6015070" lon="2.4126100">
        <ele>321.7</ele>
        <time>2021-06-17T11:23:48Z</time>
      </trkpt>
      <trkpt lat="39.6016040" lon="2.4123510">
        <ele>323.0</ele>
        <time>2021-06-17T11:23:54Z</time>
      </trkpt>
      <trkpt lat="39.6018360" lon="2.4120770">
        <ele>324.9</ele>
        <time>2021-06-17T11:24:02Z</time>
      </trkpt>
      <trkpt lat="39.6020570" lon="2.4118090">
        <ele>326.7</ele>
        <time>2021-06-17T11:24:10Z</time>
      </trkpt>
      <trkpt lat="39.6023550" lon="2.4114480">
        <ele>329.2</ele>
        <time>2021-06-17T11:24:21Z</time>
      </trkpt>
      <trkpt lat="39.6026520" lon="2.4111140">
        <ele>331.5</ele>
        <time>2021-06-17T11:24:32Z</time>
      </trkpt>
      <trkpt lat="39.6029960" lon="2.4106920">
        <ele>334.1</ele>
        <time>2021-06-17T11:24:45Z</time>
      </trkpt>
      <trkpt lat="39.6031580" lon="2.4104890">
        <ele>335.5</ele>
        <time>2021-06-17T11:24:52Z</time>
      </trkpt>
      <trkpt lat="39.6033640" lon="2.4102250">
        <ele>337.3</ele>
        <time>2021-06-17T11:25:00Z</time>
      </trkpt>
      <trkpt lat="39.6035230" lon="2.4099890">
        <ele>338.7</ele>
        <time>2021-06-17T11:25:06Z</time>
      </trkpt>
      <trkpt lat="39.6037950" lon="2.4095880">
        <ele>341.3</ele>
        <time>2021-06-17T11:25:17Z</time>
      </trkpt>
      <trkpt lat="39.6040360" lon="2.4093320">
        <ele>343.3</ele>
        <time>2021-06-17T11:25:25Z</time>
      </trkpt>
      <trkpt lat="39.6044290" lon="2.4091880">
        <ele>345.8</ele>
        <time>2021-06-17T11:25:36Z</time>
      </trkpt>
      <trkpt lat="39.6047970" lon="2.4090620">
        <ele>348.4</ele>
        <time>2021-06-17T11:25:46Z</time>
      </trkpt>
      <trkpt lat="39.6049780" lon="2.4091000">
        <ele>349.1</ele>
        <time>2021-06-17T11:25:51Z</time>
      </trkpt>
      <trkpt lat="39.6051780" lon="2.4092380">
        <ele>350.5</ele>
        <time>2021-06-17T11:25:57Z</time>
      </trkpt>
      <trkpt lat="39.6053860" lon="2.4094230">
        <ele>352.1</ele>
        <time>2021-06-17T11:26:04Z</time>
      </trkpt>
      <trkpt lat="39.6055720" lon="2.4095020">
        <ele>353.3</ele>
        <time>2021-06-17T11:26:10Z</time>
      </trkpt>
      <trkpt lat="39.6060060" lon="2.4096430">
        <ele>355.7</ele>
        <time>2021-06-17T11:26:21Z</time>
      </trkpt>
      <trkpt lat="39.6063620" lon="2.4097470">
        <ele>357.1</ele>
        <time>2021-06-17T11:26:30Z</time>
      </trkpt>
      <trkpt lat="39.6065740" lon="2.4097150">
        <ele>357.3</ele>
        <time>2021-06-17T11:26:36Z</time>
      </trkpt>
      <trkpt lat="39.6068120" lon="2.4096190">
        <ele>356.6</ele>
        <time>2021-06-17T11:26:41Z</time>
      </trkpt>
      <trkpt lat="39.6068850" lon="2.4096050">
        <ele>356.3</ele>
        <time>2021-06-17T11:26:42Z</time>
      </trkpt>
      <trkpt lat="39.6070090" lon="2.4096200">
        <ele>355.6</ele>
        <time>2021-06-17T11:26:44Z</time>
      </trkpt>
      <trkpt lat="39.6072190" lon="2.4096960">
        <ele>354.4</ele>
        <time>2021-06-17T11:26:47Z</time>
      </trkpt>
      <trkpt lat="39.6072880" lon="2.4097450">
        <ele>353.9</ele>
        <time>2021-06-17T11:26:48Z</time>
      </trkpt>
      <trkpt lat="39.6073510" lon="2.4098030">
        <ele>353.5</ele>
        <time>2021-06-17T11:26:49Z</time>
      </trkpt>
      <trkpt lat="39.6075140" lon="2.4099810">
        <ele>352.3</ele>
        <time>2021-06-17T11:26:52Z</time>
      </trkpt>
      <trkpt lat="39.6076350" lon="2.4100560">
        <ele>351.6</ele>
        <time>2021-06-17T11:26:54Z</time>
      </trkpt>
      <trkpt lat="39.6076930" lon="2.4100760">
        <ele>351.2</ele>
        <time>2021-06-17T11:26:55Z</time>
      </trkpt>
      <trkpt lat="39.6077570" lon="2.4100860">
        <ele>350.8</ele>
        <time>2021-06-17T11:26:56Z</time>
      </trkpt>
      <trkpt lat="39.6079230" lon="2.4100700">
        <ele>349.6</ele>
        <time>2021-06-17T11:26:59Z</time>
      </trkpt>
      <trkpt lat="39.6080730" lon="2.4100510">
        <ele>348.7</ele>
        <time>2021-06-17T11:27:01Z</time>
      </trkpt>
      <trkpt lat="39.6082050" lon="2.4100790">
        <ele>347.8</ele>
        <time>2021-06-17T11:27:03Z</time>
      </trkpt>
      <trkpt lat="39.6083360" lon="2.4101920">
        <ele>346.9</ele>
        <time>2021-06-17T11:27:05Z</time>
      </trkpt>
      <trkpt lat="39.6083880" lon="2.4102740">
        <ele>346.4</ele>
        <time>2021-06-17T11:27:06Z</time>
      </trkpt>
      <trkpt lat="39.6085560" lon="2.4105320">
        <ele>345.0</ele>
        <time>2021-06-17T11:27:09Z</time>
      </trkpt>
      <trkpt lat="39.6086240" lon="2.4106050">
        <ele>344.5</ele>
        <time>2021-06-17T11:27:10Z</time>
      </trkpt>
      <trkpt lat="39.6087150" lon="2.4106740">
        <ele>344.0</ele>
        <time>2021-06-17T11:27:11Z</time>
      </trkpt>
      <trkpt lat="39.6087800" lon="2.4107120">
        <ele>343.6</ele>
        <time>2021-06-17T11:27:12Z</time>
      </trkpt>
      <trkpt lat="39.6089430" lon="2.4108010">
        <ele>342.6</ele>
        <time>2021-06-17T11:27:14Z</time>
      </trkpt>
      <trkpt lat="39.6093820" lon="2.4110730">
        <ele>340.1</ele>
        <time>2021-06-17T11:27:20Z</time>
      </trkpt>
      <trkpt lat="39.6094950" lon="2.4111690">
        <ele>339.6</ele>
        <time>2021-06-17T11:27:22Z</time>
      </trkpt>
      <trkpt lat="39.6095780" lon="2.4112870">
        <ele>339.1</ele>
        <time>2021-06-17T11:27:24Z</time>
      </trkpt>
      <trkpt lat="39.6097460" lon="2.4116530">
        <ele>337.7</ele>
        <time>2021-06-17T11:27:30Z</time>
      </trkpt>
      <trkpt lat="39.6099890" lon="2.4121520">
        <ele>335.9</ele>
        <time>2021-06-17T11:27:38Z</time>
      </trkpt>
      <trkpt lat="39.6100330" lon="2.4121960">
        <ele>335.7</ele>
        <time>2021-06-17T11:27:39Z</time>
      </trkpt>
      <trkpt lat="39.6102240" lon="2.4123290">
        <ele>334.5</ele>
        <time>2021-06-17T11:27:43Z</time>
      </trkpt>
      <trkpt lat="39.6103310" lon="2.4123710">
        <ele>334.0</ele>
        <time>2021-06-17T11:27:45Z</time>
      </trkpt>
      <trkpt lat="39.6104540" lon="2.4124120">
        <ele>333.3</ele>
        <time>2021-06-17T11:27:47Z</time>
      </trkpt>
      <trkpt lat="39.6108310" lon="2.4125480">
        <ele>331.4</ele>
        <time>2021-06-17T11:27:53Z</time>
      </trkpt>
      <trkpt lat="39.6109550" lon="2.4126190">
        <ele>330.6</ele>
        <time>2021-06-17T11:27:55Z</time>
      </trkpt>
      <trkpt lat="39.6110780" lon="2.4127390">
        <ele>329.7</ele>
        <time>2021-06-17T11:27:57Z</time>
      </trkpt>
      <trkpt lat="39.6111760" lon="2.4129100">
        <ele>328.8</ele>
        <time>2021-06-17T11:27:59Z</time>
      </trkpt>
      <trkpt lat="39.6112140" lon="2.4130090">
        <ele>328.3</ele>
        <time>2021-06-17T11:28:00Z</time>
      </trkpt>
      <trkpt lat="39.6114420" lon="2.4137500">
        <ele>324.3</ele>
        <time>2021-06-17T11:28:07Z</time>
      </trkpt>
      <trkpt lat="39.6115500" lon="2.4144480">
        <ele>320.8</ele>
        <time>2021-06-17T11:28:13Z</time>
      </trkpt>
      <trkpt lat="39.6116010" lon="2.4147900">
        <ele>319.3</ele>
        <time>2021-06-17T11:28:16Z</time>
      </trkpt>
      <trkpt lat="39.6117190" lon="2.4152230">
        <ele>317.8</ele>
        <time>2021-06-17T11:28:20Z</time>
      </trkpt>
      <trkpt lat="39.6117600" lon="2.4153340">
        <ele>317.4</ele>
        <time>2021-06-17T11:28:21Z</time>
      </trkpt>
      <trkpt lat="39.6118920" lon="2.4156670">
        <ele>316.2</ele>
        <time>2021-06-17T11:28:24Z</time>
      </trkpt>
      <trkpt lat="39.6119340" lon="2.4157740">
        <ele>315.8</ele>
        <time>2021-06-17T11:28:25Z</time>
      </trkpt>
      <trkpt lat="39.6119760" lon="2.4158810">
        <ele>315.4</ele>
        <time>2021-06-17T11:28:26Z</time>
      </trkpt>
      <trkpt lat="39.6120930" lon="2.4161960">
        <ele>314.3</ele>
        <time>2021-06-17T11:28:29Z</time>
      </trkpt>
      <trkpt lat="39.6122030" lon="2.4165070">
        <ele>313.2</ele>
        <time>2021-06-17T11:28:32Z</time>
      </trkpt>
      <trkpt lat="39.6123690" lon="2.4169250">
        <ele>311.9</ele>
        <time>2021-06-17T11:28:36Z</time>
      </trkpt>
      <trkpt lat="39.6126200" lon="2.4172570">
        <ele>310.4</ele>
        <time>2021-06-17T11:28:40Z</time>
      </trkpt>
      <trkpt lat="39.6130800" lon="2.4176260">
        <ele>308.0</ele>
        <time>2021-06-17T11:28:46Z</time>
      </trkpt>
      <trkpt lat="39.6135970" lon="2.4180550">
        <ele>305.7</ele>
        <time>2021-06-17T11:28:53Z</time>
      </trkpt>
      <trkpt lat="39.6138080" lon="2.4182250">
        <ele>304.7</ele>
        <time>2021-06-17T11:28:56Z</time>
      </trkpt>
      <trkpt lat="39.6142780" lon="2.4186100">
        <ele>302.6</ele>
        <time>2021-06-17T11:29:02Z</time>
      </trkpt>
      <trkpt lat="39.6144440" lon="2.4187410">
        <ele>302.0</ele>
        <time>2021-06-17T11:29:04Z</time>
      </trkpt>
      <trkpt lat="39.6149650" lon="2.4191420">
        <ele>300.6</ele>
        <time>2021-06-17T11:29:10Z</time>
      </trkpt>
      <trkpt lat="39.6151120" lon="2.4192590">
        <ele>300.3</ele>
        <time>2021-06-17T11:29:12Z</time>
      </trkpt>
      <trkpt lat="39.6155970" lon="2.4196680">
        <ele>299.3</ele>
        <time>2021-06-17T11:29:18Z</time>
      </trkpt>
      <trkpt lat="39.6156820" lon="2.4197360">
        <ele>299.1</ele>
        <time>2021-06-17T11:29:19Z</time>
      </trkpt>
      <trkpt lat="39.6158610" lon="2.4198590">
        <ele>298.7</ele>
        <time>2021-06-17T11:29:21Z</time>
      </trkpt>
      <trkpt lat="39.6159520" lon="2.4199090">
        <ele>298.5</ele>
        <time>2021-06-17T11:29:22Z</time>
      </trkpt>
      <trkpt lat="39.6160450" lon="2.4199450">
        <ele>298.4</ele>
        <time>2021-06-17T11:29:23Z</time>
      </trkpt>
      <trkpt lat="39.6161430" lon="2.4199620">
        <ele>298.1</ele>
        <time>2021-06-17T11:29:24Z</time>
      </trkpt>
      <trkpt lat="39.6163540" lon="2.4199670">
        <ele>297.5</ele>
        <time>2021-06-17T11:29:26Z</time>
      </trkpt>
      <trkpt lat="39.6168850" lon="2.4199560">
        <ele>294.9</ele>
        <time>2021-06-17T11:29:31Z</time>
      </trkpt>
      <trkpt lat="39.6171130" lon="2.4199520">
        <ele>293.3</ele>
        <time>2021-06-17T11:29:33Z</time>
      </trkpt>
      <trkpt lat="39.6175820" lon="2.4199590">
        <ele>290.3</ele>
        <time>2021-06-17T11:29:37Z</time>
      </trkpt>
      <trkpt lat="39.6177250" lon="2.4199940">
        <ele>289.2</ele>
        <time>2021-06-17T11:29:38Z</time>
      </trkpt>
      <trkpt lat="39.6178380" lon="2.4200640">
        <ele>288.2</ele>
        <time>2021-06-17T11:29:39Z</time>
      </trkpt>
      <trkpt lat="39.6179210" lon="2.4201430">
        <ele>287.5</ele>
        <time>2021-06-17T11:29:40Z</time>
      </trkpt>
      <trkpt lat="39.6180150" lon="2.4202560">
        <ele>286.5</ele>
        <time>2021-06-17T11:29:41Z</time>
      </trkpt>
      <trkpt lat="39.6183000" lon="2.4206560">
        <ele>283.2</ele>
        <time>2021-06-17T11:29:44Z</time>
      </trkpt>
      <trkpt lat="39.6185760" lon="2.4212270">
        <ele>279.2</ele>
        <time>2021-06-17T11:29:48Z</time>
      </trkpt>
      <trkpt lat="39.6187850" lon="2.4216360">
        <ele>276.6</ele>
        <time>2021-06-17T11:29:51Z</time>
      </trkpt>
      <trkpt lat="39.6189860" lon="2.4218740">
        <ele>274.3</ele>
        <time>2021-06-17T11:29:53Z</time>
      </trkpt>
      <trkpt lat="39.6190910" lon="2.4219570">
        <ele>273.1</ele>
        <time>2021-06-17T11:29:54Z</time>
      </trkpt>
      <trkpt lat="39.6191840" lon="2.4220090">
        <ele>272.1</ele>
        <time>2021-06-17T11:29:55Z</time>
      </trkpt>
      <trkpt lat="39.6194350" lon="2.4221030">
        <ele>269.8</ele>
        <time>2021-06-17T11:29:57Z</time>
      </trkpt>
      <trkpt lat="39.6199730" lon="2.4222970">
        <ele>265.8</ele>
        <time>2021-06-17T11:30:01Z</time>
      </trkpt>
      <trkpt lat="39.6201060" lon="2.4223450">
        <ele>265.0</ele>
        <time>2021-06-17T11:30:02Z</time>
      </trkpt>
      <trkpt lat="39.6204470" lon="2.4224520">
        <ele>263.7</ele>
        <time>2021-06-17T11:30:05Z</time>
      </trkpt>
      <trkpt lat="39.6205440" lon="2.4224490">
        <ele>263.5</ele>
        <time>2021-06-17T11:30:06Z</time>
      </trkpt>
      <trkpt lat="39.6207230" lon="2.4223970">
        <ele>263.4</ele>
        <time>2021-06-17T11:30:08Z</time>
      </trkpt>
      <trkpt lat="39.6208770" lon="2.4223340">
        <ele>263.3</ele>
        <time>2021-06-17T11:30:10Z</time>
      </trkpt>
      <trkpt lat="39.6209490" lon="2.4223240">
        <ele>263.3</ele>
        <time>2021-06-17T11:30:11Z</time>
      </trkpt>
      <trkpt lat="39.6210160" lon="2.4223320">
        <ele>263.1</ele>
        <time>2021-06-17T11:30:12Z</time>
      </trkpt>
      <trkpt lat="39.6211370" lon="2.4224270">
        <ele>262.5</ele>
        <time>2021-06-17T11:30:14Z</time>
      </trkpt>
      <trkpt lat="39.6211020" lon="2.4225750">
        <ele>261.6</ele>
        <time>2021-06-17T11:30:16Z</time>
      </trkpt>
      <trkpt lat="39.6210540" lon="2.4226340">
        <ele>261.0</ele>
        <time>2021-06-17T11:30:17Z</time>
      </trkpt>
      <trkpt lat="39.6209840" lon="2.4226870">
        <ele>260.2</ele>
        <time>2021-06-17T11:30:19Z</time>
      </trkpt>
      <trkpt lat="39.6209760" lon="2.4226910">
        <ele>260.1</ele>
        <time>2021-06-17T11:30:22Z</time>
      </trkpt>
      <trkpt lat="39.6209210" lon="2.4226820">
        <ele>259.7</ele>
        <time>2021-06-17T11:30:31Z</time>
      </trkpt>
      <trkpt lat="39.6208720" lon="2.4226740">
        <ele>259.2</ele>
        <time>2021-06-17T11:30:33Z</time>
      </trkpt>
      <trkpt lat="39.6206680" lon="2.4226910">
        <ele>257.7</ele>
        <time>2021-06-17T11:30:39Z</time>
      </trkpt>
      <trkpt lat="39.6205310" lon="2.4226990">
        <ele>256.8</ele>
        <time>2021-06-17T11:30:44Z</time>
      </trkpt>
      <trkpt lat="39.6205270" lon="2.4226960">
        <ele>256.8</ele>
        <time>2021-06-17T11:30:46Z</time>
      </trkpt>
      <trkpt lat="39.6205300" lon="2.4226910">
        <ele>256.8</ele>
        <time>2021-06-17T11:30:47Z</time>
      </trkpt>
      <trkpt lat="39.6205190" lon="2.4226890">
        <ele>256.7</ele>
        <time>2021-06-17T11:30:51Z</time>
      </trkpt>
      <trkpt lat="39.6204650" lon="2.4226760">
        <ele>256.4</ele>
        <time>2021-06-17T11:30:54Z</time>
      </trkpt>
      <trkpt lat="39.6204400" lon="2.4226760">
        <ele>256.2</ele>
        <time>2021-06-17T11:30:55Z</time>
      </trkpt>
      <trkpt lat="39.6202400" lon="2.4226710">
        <ele>255.2</ele>
        <time>2021-06-17T11:31:01Z</time>
      </trkpt>
      <trkpt lat="39.6199890" lon="2.4226760">
        <ele>254.4</ele>
        <time>2021-06-17T11:31:07Z</time>
      </trkpt>
      <trkpt lat="39.6199470" lon="2.4226910">
        <ele>254.3</ele>
        <time>2021-06-17T11:31:08Z</time>
      </trkpt>
      <trkpt lat="39.6199070" lon="2.4227140">
        <ele>254.2</ele>
        <time>2021-06-17T11:31:09Z</time>
      </trkpt>
      <trkpt lat="39.6198410" lon="2.4227770">
        <ele>253.9</ele>
        <time>2021-06-17T11:31:11Z</time>
      </trkpt>
      <trkpt lat="39.6198200" lon="2.4228170">
        <ele>253.7</ele>
        <time>2021-06-17T11:31:12Z</time>
      </trkpt>
      <trkpt lat="39.6197880" lon="2.4229470">
        <ele>253.0</ele>
        <time>2021-06-17T11:31:16Z</time>
      </trkpt>
      <trkpt lat="39.6197820" lon="2.4229930">
        <ele>252.8</ele>
        <time>2021-06-17T11:31:21Z</time>
      </trkpt>
      <trkpt lat="39.6197810" lon="2.4229870">
        <ele>252.8</ele>
        <time>2021-06-17T11:31:26Z</time>
      </trkpt>
      <trkpt lat="39.6197810" lon="2.4229870">
        <ele>252.8</ele>
        <time>2021-06-17T11:31:34Z</time>
      </trkpt>
      <trkpt lat="39.6197810" lon="2.4229870">
        <ele>252.8</ele>
        <time>2021-06-17T11:31:36Z</time>
      </trkpt>
      <trkpt lat="39.6197810" lon="2.4229870">
        <ele>252.8</ele>
        <time>2021-06-17T11:31:41Z</time>
      </trkpt>
      <trkpt lat="39.6197810" lon="2.4229870">
        <ele>252.8</ele>
        <time>2021-06-17T11:31:47Z</time>
      </trkpt>
      <trkpt lat="39.6197810" lon="2.4229870">
        <ele>252.8</ele>
        <time>2021-06-17T11:31:52Z</time>
      </trkpt>
      <trkpt lat="39.6197810" lon="2.4229870">
        <ele>252.8</ele>
        <time>2021-06-17T11:31:55Z</time>
      </trkpt>
      <trkpt lat="39.6197810" lon="2.4229870">
        <ele>252.8</ele>
        <time>2021-06-17T11:32:02Z</time>
      </trkpt>
      <trkpt lat="39.6197810" lon="2.4229870">
        <ele>252.8</ele>
        <time>2021-06-17T11:32:10Z</time>
      </trkpt>
      <trkpt lat="39.6197810" lon="2.4229870">
        <ele>252.8</ele>
        <time>2021-06-17T11:32:15Z</time>
      </trkpt>
      <trkpt lat="39.6197810" lon="2.4229870">
        <ele>252.8</ele>
        <time>2021-06-17T11:32:28Z</time>
      </trkpt>
      <trkpt lat="39.6197810" lon="2.4229870">
        <ele>252.8</ele>
        <time>2021-06-17T11:32:46Z</time>
      </trkpt>
      <trkpt lat="39.6197810" lon="2.4229870">
        <ele>252.8</ele>
        <time>2021-06-17T11:32:55Z</time>
      </trkpt>
      <trkpt lat="39.6197810" lon="2.4229870">
        <ele>252.8</ele>
        <time>2021-06-17T11:33:08Z</time>
      </trkpt>
      <trkpt lat="39.6197810" lon="2.4229870">
        <ele>252.8</ele>
        <time>2021-06-17T11:33:13Z</time>
      </trkpt>
      <trkpt lat="39.6197800" lon="2.4229870">
        <ele>252.7</ele>
        <time>2021-06-17T11:33:44Z</time>
      </trkpt>
      <trkpt lat="39.6197760" lon="2.4229870">
        <ele>252.7</ele>
        <time>2021-06-17T11:33:49Z</time>
      </trkpt>
      <trkpt lat="39.6197740" lon="2.4229910">
        <ele>252.7</ele>
        <time>2021-06-17T11:34:09Z</time>
      </trkpt>
      <trkpt lat="39.6197760" lon="2.4229870">
        <ele>252.7</ele>
        <time>2021-06-17T11:34:31Z</time>
      </trkpt>
      <trkpt lat="39.6197760" lon="2.4229870">
        <ele>252.7</ele>
        <time>2021-06-17T11:34:34Z</time>
      </trkpt>
      <trkpt lat="39.6197760" lon="2.4229870">
        <ele>252.7</ele>
        <time>2021-06-17T11:34:42Z</time>
      </trkpt>
      <trkpt lat="39.6197760" lon="2.4229890">
        <ele>252.7</ele>
        <time>2021-06-17T11:34:44Z</time>
      </trkpt>
      <trkpt lat="39.6198020" lon="2.4230580">
        <ele>252.2</ele>
        <time>2021-06-17T11:34:47Z</time>
      </trkpt>
      <trkpt lat="39.6199280" lon="2.4231930">
        <ele>250.9</ele>
        <time>2021-06-17T11:34:53Z</time>
      </trkpt>
      <trkpt lat="39.6200570" lon="2.4232510">
        <ele>249.8</ele>
        <time>2021-06-17T11:34:57Z</time>
      </trkpt>
      <trkpt lat="39.6201610" lon="2.4232710">
        <ele>249.0</ele>
        <time>2021-06-17T11:35:00Z</time>
      </trkpt>
      <trkpt lat="39.6203690" lon="2.4233330">
        <ele>247.6</ele>
        <time>2021-06-17T11:35:05Z</time>
      </trkpt>
      <trkpt lat="39.6204090" lon="2.4233430">
        <ele>247.3</ele>
        <time>2021-06-17T11:35:06Z</time>
      </trkpt>
      <trkpt lat="39.6205330" lon="2.4233620">
        <ele>246.6</ele>
        <time>2021-06-17T11:35:09Z</time>
      </trkpt>
      <trkpt lat="39.6205730" lon="2.4233710">
        <ele>246.3</ele>
        <time>2021-06-17T11:35:10Z</time>
      </trkpt>
      <trkpt lat="39.6206550" lon="2.4233850">
        <ele>245.9</ele>
        <time>2021-06-17T11:35:11Z</time>
      </trkpt>
      <trkpt lat="39.6208740" lon="2.4234860">
        <ele>244.4</ele>
        <time>2021-06-17T11:35:16Z</time>
      </trkpt>
      <trkpt lat="39.6210950" lon="2.4235580">
        <ele>242.7</ele>
        <time>2021-06-17T11:35:21Z</time>
      </trkpt>
      <trkpt lat="39.6211390" lon="2.4235590">
        <ele>242.4</ele>
        <time>2021-06-17T11:35:25Z</time>
      </trkpt>
      <trkpt lat="39.6211390" lon="2.4235590">
        <ele>242.4</ele>
        <time>2021-06-17T11:35:34Z</time>
      </trkpt>
      <trkpt lat="39.6211390" lon="2.4235590">
        <ele>242.4</ele>
        <time>2021-06-17T11:35:37Z</time>
      </trkpt>
      <trkpt lat="39.6211390" lon="2.4235590">
        <ele>242.4</ele>
        <time>2021-06-17T11:35:51Z</time>
      </trkpt>
      <trkpt lat="39.6211390" lon="2.4235590">
        <ele>242.4</ele>
        <time>2021-06-17T11:35:57Z</time>
      </trkpt>
      <trkpt lat="39.6211390" lon="2.4235590">
        <ele>242.4</ele>
        <time>2021-06-17T11:36:06Z</time>
      </trkpt>
      <trkpt lat="39.6211380" lon="2.4235620">
        <ele>242.4</ele>
        <time>2021-06-17T11:36:18Z</time>
      </trkpt>
      <trkpt lat="39.6211600" lon="2.4235480">
        <ele>242.2</ele>
        <time>2021-06-17T11:36:33Z</time>
      </trkpt>
      <trkpt lat="39.6212060" lon="2.4235270">
        <ele>241.8</ele>
        <time>2021-06-17T11:36:35Z</time>
      </trkpt>
      <trkpt lat="39.6213400" lon="2.4234940">
        <ele>240.8</ele>
        <time>2021-06-17T11:36:41Z</time>
      </trkpt>
      <trkpt lat="39.6214730" lon="2.4234530">
        <ele>239.9</ele>
        <time>2021-06-17T11:36:47Z</time>
      </trkpt>
      <trkpt lat="39.6215380" lon="2.4234300">
        <ele>239.4</ele>
        <time>2021-06-17T11:36:50Z</time>
      </trkpt>
      <trkpt lat="39.6216190" lon="2.4233990">
        <ele>238.8</ele>
        <time>2021-06-17T11:36:53Z</time>
      </trkpt>
      <trkpt lat="39.6216490" lon="2.4233900">
        <ele>238.6</ele>
        <time>2021-06-17T11:36:54Z</time>
      </trkpt>
      <trkpt lat="39.6217700" lon="2.4233800">
        <ele>237.7</ele>
        <time>2021-06-17T11:36:58Z</time>
      </trkpt>
      <trkpt lat="39.6219080" lon="2.4233890">
        <ele>236.7</ele>
        <time>2021-06-17T11:37:01Z</time>
      </trkpt>
      <trkpt lat="39.6219600" lon="2.4234060">
        <ele>236.2</ele>
        <time>2021-06-17T11:37:02Z</time>
      </trkpt>
      <trkpt lat="39.6223070" lon="2.4235240">
        <ele>233.4</ele>
        <time>2021-06-17T11:37:08Z</time>
      </trkpt>
      <trkpt lat="39.6225260" lon="2.4236010">
        <ele>231.9</ele>
        <time>2021-06-17T11:37:11Z</time>
      </trkpt>
      <trkpt lat="39.6227030" lon="2.4236650">
        <ele>231.0</ele>
        <time>2021-06-17T11:37:15Z</time>
      </trkpt>
      <trkpt lat="39.6230460" lon="2.4237630">
        <ele>229.5</ele>
        <time>2021-06-17T11:37:21Z</time>
      </trkpt>
      <trkpt lat="39.6231240" lon="2.4238170">
        <ele>229.1</ele>
        <time>2021-06-17T11:37:23Z</time>
      </trkpt>
      <trkpt lat="39.6232260" lon="2.4239460">
        <ele>228.3</ele>
        <time>2021-06-17T11:37:26Z</time>
      </trkpt>
      <trkpt lat="39.6232560" lon="2.4240020">
        <ele>227.9</ele>
        <time>2021-06-17T11:37:27Z</time>
      </trkpt>
      <trkpt lat="39.6232910" lon="2.4241140">
        <ele>227.4</ele>
        <time>2021-06-17T11:37:29Z</time>
      </trkpt>
      <trkpt lat="39.6233010" lon="2.4241640">
        <ele>227.2</ele>
        <time>2021-06-17T11:37:30Z</time>
      </trkpt>
      <trkpt lat="39.6233920" lon="2.4243900">
        <ele>226.4</ele>
        <time>2021-06-17T11:37:35Z</time>
      </trkpt>
      <trkpt lat="39.6234260" lon="2.4244230">
        <ele>226.2</ele>
        <time>2021-06-17T11:37:36Z</time>
      </trkpt>
      <trkpt lat="39.6234660" lon="2.4244490">
        <ele>226.1</ele>
        <time>2021-06-17T11:37:37Z</time>
      </trkpt>
      <trkpt lat="39.6235580" lon="2.4244560">
        <ele>225.7</ele>
        <time>2021-06-17T11:37:39Z</time>
      </trkpt>
      <trkpt lat="39.6236480" lon="2.4244280">
        <ele>225.2</ele>
        <time>2021-06-17T11:37:41Z</time>
      </trkpt>
      <trkpt lat="39.6236830" lon="2.4243900">
        <ele>224.9</ele>
        <time>2021-06-17T11:37:42Z</time>
      </trkpt>
      <trkpt lat="39.6237070" lon="2.4243440">
        <ele>224.6</ele>
        <time>2021-06-17T11:37:43Z</time>
      </trkpt>
      <trkpt lat="39.6237170" lon="2.4242410">
        <ele>224.1</ele>
        <time>2021-06-17T11:37:45Z</time>
      </trkpt>
      <trkpt lat="39.6236920" lon="2.4241180">
        <ele>223.5</ele>
        <time>2021-06-17T11:37:49Z</time>
      </trkpt>
      <trkpt lat="39.6236920" lon="2.4241180">
        <ele>223.5</ele>
        <time>2021-06-17T11:37:53Z</time>
      </trkpt>
      <trkpt lat="39.6236910" lon="2.4240920">
        <ele>223.3</ele>
        <time>2021-06-17T11:37:59Z</time>
      </trkpt>
      <trkpt lat="39.6237100" lon="2.4240820">
        <ele>223.2</ele>
        <time>2021-06-17T11:38:07Z</time>
      </trkpt>
      <trkpt lat="39.6237100" lon="2.4240820">
        <ele>223.2</ele>
        <time>2021-06-17T11:38:13Z</time>
      </trkpt>
      <trkpt lat="39.6237100" lon="2.4240820">
        <ele>223.2</ele>
        <time>2021-06-17T11:38:20Z</time>
      </trkpt>
      <trkpt lat="39.6237100" lon="2.4240820">
        <ele>223.2</ele>
        <time>2021-06-17T11:38:25Z</time>
      </trkpt>
      <trkpt lat="39.6237100" lon="2.4240820">
        <ele>223.2</ele>
        <time>2021-06-17T11:38:29Z</time>
      </trkpt>
      <trkpt lat="39.6237100" lon="2.4240820">
        <ele>223.2</ele>
        <time>2021-06-17T11:38:31Z</time>
      </trkpt>
      <trkpt lat="39.6237100" lon="2.4240820">
        <ele>223.2</ele>
        <time>2021-06-17T11:38:39Z</time>
      </trkpt>
      <trkpt lat="39.6237050" lon="2.4240720">
        <ele>223.1</ele>
        <time>2021-06-17T11:39:52Z</time>
      </trkpt>
      <trkpt lat="39.6237190" lon="2.4240850">
        <ele>223.0</ele>
        <time>2021-06-17T11:40:14Z</time>
      </trkpt>
      <trkpt lat="39.6237180" lon="2.4240860">
        <ele>223.0</ele>
        <time>2021-06-17T11:40:21Z</time>
      </trkpt>
      <trkpt lat="39.6237180" lon="2.4240910">
        <ele>223.0</ele>
        <time>2021-06-17T11:40:27Z</time>
      </trkpt>
      <trkpt lat="39.6237150" lon="2.4240920">
        <ele>223.0</ele>
        <time>2021-06-17T11:40:31Z</time>
      </trkpt>
      <trkpt lat="39.6236530" lon="2.4240560">
        <ele>222.5</ele>
        <time>2021-06-17T11:40:34Z</time>
      </trkpt>
      <trkpt lat="39.6235190" lon="2.4239240">
        <ele>221.6</ele>
        <time>2021-06-17T11:40:38Z</time>
      </trkpt>
      <trkpt lat="39.6233310" lon="2.4236960">
        <ele>220.5</ele>
        <time>2021-06-17T11:40:43Z</time>
      </trkpt>
      <trkpt lat="39.6232950" lon="2.4236510">
        <ele>220.4</ele>
        <time>2021-06-17T11:40:44Z</time>
      </trkpt>
      <trkpt lat="39.6232200" lon="2.4235720">
        <ele>220.0</ele>
        <time>2021-06-17T11:40:46Z</time>
      </trkpt>
      <trkpt lat="39.6230470" lon="2.4234490">
        <ele>219.6</ele>
        <time>2021-06-17T11:40:50Z</time>
      </trkpt>
      <trkpt lat="39.6229220" lon="2.4233610">
        <ele>219.5</ele>
        <time>2021-06-17T11:40:53Z</time>
      </trkpt>
      <trkpt lat="39.6228290" lon="2.4233180">
        <ele>219.4</ele>
        <time>2021-06-17T11:40:55Z</time>
      </trkpt>
      <trkpt lat="39.6227810" lon="2.4233110">
        <ele>219.3</ele>
        <time>2021-06-17T11:40:56Z</time>
      </trkpt>
      <trkpt lat="39.6227320" lon="2.4233100">
        <ele>219.2</ele>
        <time>2021-06-17T11:40:57Z</time>
      </trkpt>
      <trkpt lat="39.6225760" lon="2.4233280">
        <ele>219.0</ele>
        <time>2021-06-17T11:41:00Z</time>
      </trkpt>
      <trkpt lat="39.6225200" lon="2.4233320">
        <ele>218.9</ele>
        <time>2021-06-17T11:41:01Z</time>
      </trkpt>
      <trkpt lat="39.6224720" lon="2.4233190">
        <ele>218.7</ele>
        <time>2021-06-17T11:41:02Z</time>
      </trkpt>
      <trkpt lat="39.6224310" lon="2.4232080">
        <ele>218.4</ele>
        <time>2021-06-17T11:41:03Z</time>
      </trkpt>
      <trkpt lat="39.6224560" lon="2.4231480">
        <ele>218.2</ele>
        <time>2021-06-17T11:41:05Z</time>
      </trkpt>
      <trkpt lat="39.6225130" lon="2.4231250">
        <ele>217.8</ele>
        <time>2021-06-17T11:41:06Z</time>
      </trkpt>
      <trkpt lat="39.6226540" lon="2.4231660">
        <ele>216.9</ele>
        <time>2021-06-17T11:41:08Z</time>
      </trkpt>
      <trkpt lat="39.6227230" lon="2.4232030">
        <ele>216.4</ele>
        <time>2021-06-17T11:41:09Z</time>
      </trkpt>
      <trkpt lat="39.6231680" lon="2.4234280">
        <ele>213.0</ele>
        <time>2021-06-17T11:41:15Z</time>
      </trkpt>
      <trkpt lat="39.6235980" lon="2.4236760">
        <ele>209.0</ele>
        <time>2021-06-17T11:41:20Z</time>
      </trkpt>
      <trkpt lat="39.6239600" lon="2.4238950">
        <ele>205.9</ele>
        <time>2021-06-17T11:41:24Z</time>
      </trkpt>
      <trkpt lat="39.6240350" lon="2.4239530">
        <ele>205.1</ele>
        <time>2021-06-17T11:41:25Z</time>
      </trkpt>
      <trkpt lat="39.6241620" lon="2.4240870">
        <ele>203.6</ele>
        <time>2021-06-17T11:41:27Z</time>
      </trkpt>
      <trkpt lat="39.6242650" lon="2.4242420">
        <ele>202.1</ele>
        <time>2021-06-17T11:41:29Z</time>
      </trkpt>
      <trkpt lat="39.6243610" lon="2.4243940">
        <ele>200.6</ele>
        <time>2021-06-17T11:41:31Z</time>
      </trkpt>
      <trkpt lat="39.6244750" lon="2.4245160">
        <ele>199.4</ele>
        <time>2021-06-17T11:41:33Z</time>
      </trkpt>
      <trkpt lat="39.6247400" lon="2.4247160">
        <ele>197.2</ele>
        <time>2021-06-17T11:41:37Z</time>
      </trkpt>
      <trkpt lat="39.6248000" lon="2.4247650">
        <ele>196.6</ele>
        <time>2021-06-17T11:41:38Z</time>
      </trkpt>
      <trkpt lat="39.6249980" lon="2.4249450">
        <ele>194.5</ele>
        <time>2021-06-17T11:41:42Z</time>
      </trkpt>
      <trkpt lat="39.6250910" lon="2.4250150">
        <ele>193.7</ele>
        <time>2021-06-17T11:41:46Z</time>
      </trkpt>
      <trkpt lat="39.6250910" lon="2.4250150">
        <ele>193.7</ele>
        <time>2021-06-17T11:41:51Z</time>
      </trkpt>
      <trkpt lat="39.6250780" lon="2.4250160">
        <ele>193.6</ele>
        <time>2021-06-17T11:41:59Z</time>
      </trkpt>
      <trkpt lat="39.6250820" lon="2.4250220">
        <ele>193.6</ele>
        <time>2021-06-17T11:42:06Z</time>
      </trkpt>
      <trkpt lat="39.6250820" lon="2.4250300">
        <ele>193.5</ele>
        <time>2021-06-17T11:42:14Z</time>
      </trkpt>
      <trkpt lat="39.6250820" lon="2.4250320">
        <ele>193.5</ele>
        <time>2021-06-17T11:42:22Z</time>
      </trkpt>
      <trkpt lat="39.6251320" lon="2.4250980">
        <ele>193.0</ele>
        <time>2021-06-17T11:42:25Z</time>
      </trkpt>
      <trkpt lat="39.6252400" lon="2.4252490">
        <ele>191.9</ele>
        <time>2021-06-17T11:42:30Z</time>
      </trkpt>
      <trkpt lat="39.6253840" lon="2.4254050">
        <ele>190.5</ele>
        <time>2021-06-17T11:42:35Z</time>
      </trkpt>
      <trkpt lat="39.6255850" lon="2.4255850">
        <ele>188.7</ele>
        <time>2021-06-17T11:42:40Z</time>
      </trkpt>
      <trkpt lat="39.6256260" lon="2.4256380">
        <ele>188.2</ele>
        <time>2021-06-17T11:42:41Z</time>
      </trkpt>
      <trkpt lat="39.6257050" lon="2.4257540">
        <ele>187.3</ele>
        <time>2021-06-17T11:42:43Z</time>
      </trkpt>
      <trkpt lat="39.6258230" lon="2.4258280">
        <ele>186.1</ele>
        <time>2021-06-17T11:42:45Z</time>
      </trkpt>
      <trkpt lat="39.6260810" lon="2.4258470">
        <ele>184.0</ele>
        <time>2021-06-17T11:42:49Z</time>
      </trkpt>
      <trkpt lat="39.6265490" lon="2.4258840">
        <ele>181.1</ele>
        <time>2021-06-17T11:42:55Z</time>
      </trkpt>
      <trkpt lat="39.6267380" lon="2.4259470">
        <ele>180.2</ele>
        <time>2021-06-17T11:42:57Z</time>
      </trkpt>
      <trkpt lat="39.6268310" lon="2.4260090">
        <ele>179.9</ele>
        <time>2021-06-17T11:42:58Z</time>
      </trkpt>
      <trkpt lat="39.6271090" lon="2.4261970">
        <ele>179.8</ele>
        <time>2021-06-17T11:43:01Z</time>
      </trkpt>
      <trkpt lat="39.6271790" lon="2.4262490">
        <ele>180.0</ele>
        <time>2021-06-17T11:43:02Z</time>
      </trkpt>
      <trkpt lat="39.6272490" lon="2.4262860">
        <ele>180.1</ele>
        <time>2021-06-17T11:43:03Z</time>
      </trkpt>
      <trkpt lat="39.6273730" lon="2.4263120">
        <ele>180.4</ele>
        <time>2021-06-17T11:43:05Z</time>
      </trkpt>
      <trkpt lat="39.6275600" lon="2.4262670">
        <ele>181.1</ele>
        <time>2021-06-17T11:43:08Z</time>
      </trkpt>
      <trkpt lat="39.6276080" lon="2.4262270">
        <ele>181.3</ele>
        <time>2021-06-17T11:43:09Z</time>
      </trkpt>
      <trkpt lat="39.6276410" lon="2.4262230">
        <ele>181.4</ele>
        <time>2021-06-17T11:43:12Z</time>
      </trkpt>
      <trkpt lat="39.6276740" lon="2.4262200">
        <ele>181.6</ele>
        <time>2021-06-17T11:43:15Z</time>
      </trkpt>
      <trkpt lat="39.6277070" lon="2.4262160">
        <ele>181.7</ele>
        <time>2021-06-17T11:43:16Z</time>
      </trkpt>
      <trkpt lat="39.6277390" lon="2.4262120">
        <ele>181.8</ele>
        <time>2021-06-17T11:43:17Z</time>
      </trkpt>
      <trkpt lat="39.6277720" lon="2.4262090">
        <ele>181.9</ele>
        <time>2021-06-17T11:43:19Z</time>
      </trkpt>
      <trkpt lat="39.6278050" lon="2.4262050">
        <ele>182.1</ele>
        <time>2021-06-17T11:43:20Z</time>
      </trkpt>
      <trkpt lat="39.6278380" lon="2.4262010">
        <ele>182.2</ele>
        <time>2021-06-17T11:43:21Z</time>
      </trkpt>
      <trkpt lat="39.6278710" lon="2.4261980">
        <ele>182.3</ele>
        <time>2021-06-17T11:43:22Z</time>
      </trkpt>
      <trkpt lat="39.6279040" lon="2.4261940">
        <ele>182.5</ele>
        <time>2021-06-17T11:43:23Z</time>
      </trkpt>
      <trkpt lat="39.6279360" lon="2.4261900">
        <ele>182.6</ele>
        <time>2021-06-17T11:43:25Z</time>
      </trkpt>
      <trkpt lat="39.6279690" lon="2.4261870">
        <ele>182.7</ele>
        <time>2021-06-17T11:43:32Z</time>
      </trkpt>
      <trkpt lat="39.6280020" lon="2.4261830">
        <ele>182.8</ele>
        <time>2021-06-17T11:43:33Z</time>
      </trkpt>
      <trkpt lat="39.6287890" lon="2.4260960">
        <ele>186.6</ele>
        <time>2021-06-17T11:43:35Z</time>
      </trkpt>
      <trkpt lat="39.6290310" lon="2.4260360">
        <ele>188.4</ele>
        <time>2021-06-17T11:43:41Z</time>
      </trkpt>
      <trkpt lat="39.6291100" lon="2.4260180">
        <ele>189.0</ele>
        <time>2021-06-17T11:43:43Z</time>
      </trkpt>
      <trkpt lat="39.6292320" lon="2.4259750">
        <ele>190.1</ele>
        <time>2021-06-17T11:43:46Z</time>
      </trkpt>
      <trkpt lat="39.6293000" lon="2.4259500">
        <ele>190.6</ele>
        <time>2021-06-17T11:43:48Z</time>
      </trkpt>
      <trkpt lat="39.6293240" lon="2.4259380">
        <ele>190.8</ele>
        <time>2021-06-17T11:43:49Z</time>
      </trkpt>
      <trkpt lat="39.6294400" lon="2.4258530">
        <ele>191.8</ele>
        <time>2021-06-17T11:43:53Z</time>
      </trkpt>
      <trkpt lat="39.6295050" lon="2.4258650">
        <ele>192.3</ele>
        <time>2021-06-17T11:43:55Z</time>
      </trkpt>
      <trkpt lat="39.6295670" lon="2.4258760">
        <ele>192.7</ele>
        <time>2021-06-17T11:43:57Z</time>
      </trkpt>
      <trkpt lat="39.6296290" lon="2.4258960">
        <ele>193.0</ele>
        <time>2021-06-17T11:43:59Z</time>
      </trkpt>
      <trkpt lat="39.6297470" lon="2.4259430">
        <ele>193.7</ele>
        <time>2021-06-17T11:44:03Z</time>
      </trkpt>
      <trkpt lat="39.6299130" lon="2.4259390">
        <ele>194.5</ele>
        <time>2021-06-17T11:44:08Z</time>
      </trkpt>
      <trkpt lat="39.6300460" lon="2.4258760">
        <ele>195.2</ele>
        <time>2021-06-17T11:44:12Z</time>
      </trkpt>
      <trkpt lat="39.6301380" lon="2.4258110">
        <ele>195.9</ele>
        <time>2021-06-17T11:44:15Z</time>
      </trkpt>
      <trkpt lat="39.6304150" lon="2.4256540">
        <ele>198.1</ele>
        <time>2021-06-17T11:44:24Z</time>
      </trkpt>
      <trkpt lat="39.6305400" lon="2.4256320">
        <ele>199.2</ele>
        <time>2021-06-17T11:44:28Z</time>
      </trkpt>
      <trkpt lat="39.6306680" lon="2.4256520">
        <ele>200.3</ele>
        <time>2021-06-17T11:44:32Z</time>
      </trkpt>
      <trkpt lat="39.6308410" lon="2.4257740">
        <ele>201.9</ele>
        <time>2021-06-17T11:44:38Z</time>
      </trkpt>
      <trkpt lat="39.6310620" lon="2.4260810">
        <ele>204.2</ele>
        <time>2021-06-17T11:44:48Z</time>
      </trkpt>
      <trkpt lat="39.6312170" lon="2.4263590">
        <ele>206.1</ele>
        <time>2021-06-17T11:44:56Z</time>
      </trkpt>
      <trkpt lat="39.6312900" lon="2.4265880">
        <ele>207.5</ele>
        <time>2021-06-17T11:45:02Z</time>
      </trkpt>
      <trkpt lat="39.6313120" lon="2.4268430">
        <ele>208.9</ele>
        <time>2021-06-17T11:45:08Z</time>
      </trkpt>
      <trkpt lat="39.6313150" lon="2.4269270">
        <ele>209.3</ele>
        <time>2021-06-17T11:45:10Z</time>
      </trkpt>
      <trkpt lat="39.6313750" lon="2.4272690">
        <ele>211.4</ele>
        <time>2021-06-17T11:45:19Z</time>
      </trkpt>
      <trkpt lat="39.6314910" lon="2.4274690">
        <ele>212.7</ele>
        <time>2021-06-17T11:45:25Z</time>
      </trkpt>
      <trkpt lat="39.6317310" lon="2.4277410">
        <ele>214.7</ele>
        <time>2021-06-17T11:45:35Z</time>
      </trkpt>
      <trkpt lat="39.6318030" lon="2.4279770">
        <ele>216.1</ele>
        <time>2021-06-17T11:45:41Z</time>
      </trkpt>
      <trkpt lat="39.6318130" lon="2.4282560">
        <ele>217.7</ele>
        <time>2021-06-17T11:45:48Z</time>
      </trkpt>
      <trkpt lat="39.6318920" lon="2.4285600">
        <ele>219.6</ele>
        <time>2021-06-17T11:45:56Z</time>
      </trkpt>
      <trkpt lat="39.6320830" lon="2.4288160">
        <ele>221.5</ele>
        <time>2021-06-17T11:46:05Z</time>
      </trkpt>
      <trkpt lat="39.6323110" lon="2.4290870">
        <ele>223.8</ele>
        <time>2021-06-17T11:46:15Z</time>
      </trkpt>
      <trkpt lat="39.6324800" lon="2.4293050">
        <ele>225.9</ele>
        <time>2021-06-17T11:46:23Z</time>
      </trkpt>
      <trkpt lat="39.6326240" lon="2.4295550">
        <ele>227.8</ele>
        <time>2021-06-17T11:46:31Z</time>
      </trkpt>
      <trkpt lat="39.6327220" lon="2.4297760">
        <ele>229.3</ele>
        <time>2021-06-17T11:46:38Z</time>
      </trkpt>
      <trkpt lat="39.6327540" lon="2.4298400">
        <ele>229.7</ele>
        <time>2021-06-17T11:46:40Z</time>
      </trkpt>
      <trkpt lat="39.6328630" lon="2.4300670">
        <ele>231.3</ele>
        <time>2021-06-17T11:46:46Z</time>
      </trkpt>
      <trkpt lat="39.6330200" lon="2.4303880">
        <ele>233.7</ele>
        <time>2021-06-17T11:46:57Z</time>
      </trkpt>
      <trkpt lat="39.6331130" lon="2.4305910">
        <ele>235.2</ele>
        <time>2021-06-17T11:47:04Z</time>
      </trkpt>
      <trkpt lat="39.6332450" lon="2.4307650">
        <ele>236.6</ele>
        <time>2021-06-17T11:47:11Z</time>
      </trkpt>
      <trkpt lat="39.6333270" lon="2.4308680">
        <ele>237.5</ele>
        <time>2021-06-17T11:47:16Z</time>
      </trkpt>
      <trkpt lat="39.6335110" lon="2.4310470">
        <ele>239.2</ele>
        <time>2021-06-17T11:47:24Z</time>
      </trkpt>
      <trkpt lat="39.6336080" lon="2.4311300">
        <ele>240.1</ele>
        <time>2021-06-17T11:47:28Z</time>
      </trkpt>
      <trkpt lat="39.6336550" lon="2.4311710">
        <ele>240.5</ele>
        <time>2021-06-17T11:47:30Z</time>
      </trkpt>
      <trkpt lat="39.6338550" lon="2.4313550">
        <ele>242.3</ele>
        <time>2021-06-17T11:47:38Z</time>
      </trkpt>
      <trkpt lat="39.6340770" lon="2.4316250">
        <ele>244.6</ele>
        <time>2021-06-17T11:47:48Z</time>
      </trkpt>
      <trkpt lat="39.6341520" lon="2.4318430">
        <ele>246.2</ele>
        <time>2021-06-17T11:47:54Z</time>
      </trkpt>
      <trkpt lat="39.6341800" lon="2.4319200">
        <ele>246.8</ele>
        <time>2021-06-17T11:47:56Z</time>
      </trkpt>
      <trkpt lat="39.6342010" lon="2.4319900">
        <ele>247.3</ele>
        <time>2021-06-17T11:47:58Z</time>
      </trkpt>
      <trkpt lat="39.6342930" lon="2.4322860">
        <ele>249.3</ele>
        <time>2021-06-17T11:48:06Z</time>
      </trkpt>
      <trkpt lat="39.6343540" lon="2.4325730">
        <ele>251.2</ele>
        <time>2021-06-17T11:48:14Z</time>
      </trkpt>
      <trkpt lat="39.6343360" lon="2.4328310">
        <ele>252.9</ele>
        <time>2021-06-17T11:48:21Z</time>
      </trkpt>
      <trkpt lat="39.6343250" lon="2.4331440">
        <ele>254.9</ele>
        <time>2021-06-17T11:48:30Z</time>
      </trkpt>
      <trkpt lat="39.6343940" lon="2.4333370">
        <ele>256.3</ele>
        <time>2021-06-17T11:48:36Z</time>
      </trkpt>
      <trkpt lat="39.6345400" lon="2.4334970">
        <ele>257.9</ele>
        <time>2021-06-17T11:48:43Z</time>
      </trkpt>
      <trkpt lat="39.6347460" lon="2.4337010">
        <ele>260.0</ele>
        <time>2021-06-17T11:48:52Z</time>
      </trkpt>
      <trkpt lat="39.6348890" lon="2.4338760">
        <ele>261.6</ele>
        <time>2021-06-17T11:48:59Z</time>
      </trkpt>
      <trkpt lat="39.6349350" lon="2.4339540">
        <ele>262.2</ele>
        <time>2021-06-17T11:49:02Z</time>
      </trkpt>
      <trkpt lat="39.6349810" lon="2.4340370">
        <ele>262.9</ele>
        <time>2021-06-17T11:49:05Z</time>
      </trkpt>
      <trkpt lat="39.6350470" lon="2.4341800">
        <ele>264.0</ele>
        <time>2021-06-17T11:49:10Z</time>
      </trkpt>
      <trkpt lat="39.6351580" lon="2.4344630">
        <ele>265.9</ele>
        <time>2021-06-17T11:49:19Z</time>
      </trkpt>
      <trkpt lat="39.6352920" lon="2.4347780">
        <ele>267.9</ele>
        <time>2021-06-17T11:49:29Z</time>
      </trkpt>
      <trkpt lat="39.6353660" lon="2.4350090">
        <ele>269.4</ele>
        <time>2021-06-17T11:49:36Z</time>
      </trkpt>
      <trkpt lat="39.6353810" lon="2.4353500">
        <ele>271.6</ele>
        <time>2021-06-17T11:49:46Z</time>
      </trkpt>
      <trkpt lat="39.6353610" lon="2.4355860">
        <ele>273.0</ele>
        <time>2021-06-17T11:49:53Z</time>
      </trkpt>
      <trkpt lat="39.6353100" lon="2.4358590">
        <ele>274.5</ele>
        <time>2021-06-17T11:50:01Z</time>
      </trkpt>
      <trkpt lat="39.6352850" lon="2.4360630">
        <ele>275.7</ele>
        <time>2021-06-17T11:50:07Z</time>
      </trkpt>
      <trkpt lat="39.6352680" lon="2.4363080">
        <ele>277.0</ele>
        <time>2021-06-17T11:50:14Z</time>
      </trkpt>
      <trkpt lat="39.6352880" lon="2.4365600">
        <ele>277.7</ele>
        <time>2021-06-17T11:50:21Z</time>
      </trkpt>
      <trkpt lat="39.6353720" lon="2.4367620">
        <ele>277.9</ele>
        <time>2021-06-17T11:50:27Z</time>
      </trkpt>
      <trkpt lat="39.6355380" lon="2.4370810">
        <ele>278.2</ele>
        <time>2021-06-17T11:50:35Z</time>
      </trkpt>
      <trkpt lat="39.6356590" lon="2.4373820">
        <ele>278.5</ele>
        <time>2021-06-17T11:50:42Z</time>
      </trkpt>
      <trkpt lat="39.6357380" lon="2.4376060">
        <ele>278.8</ele>
        <time>2021-06-17T11:50:47Z</time>
      </trkpt>
      <trkpt lat="39.6358170" lon="2.4378300">
        <ele>279.5</ele>
        <time>2021-06-17T11:50:52Z</time>
      </trkpt>
      <trkpt lat="39.6358490" lon="2.4379140">
        <ele>279.8</ele>
        <time>2021-06-17T11:50:54Z</time>
      </trkpt>
      <trkpt lat="39.6358960" lon="2.4380860">
        <ele>280.5</ele>
        <time>2021-06-17T11:50:58Z</time>
      </trkpt>
      <trkpt lat="39.6359250" lon="2.4381680">
        <ele>280.9</ele>
        <time>2021-06-17T11:51:00Z</time>
      </trkpt>
      <trkpt lat="39.6360580" lon="2.4385050">
        <ele>282.7</ele>
        <time>2021-06-17T11:51:09Z</time>
      </trkpt>
      <trkpt lat="39.6361700" lon="2.4387640">
        <ele>284.7</ele>
        <time>2021-06-17T11:51:17Z</time>
      </trkpt>
      <trkpt lat="39.6362740" lon="2.4389600">
        <ele>286.3</ele>
        <time>2021-06-17T11:51:23Z</time>
      </trkpt>
      <trkpt lat="39.6363220" lon="2.4391030">
        <ele>287.4</ele>
        <time>2021-06-17T11:51:27Z</time>
      </trkpt>
      <trkpt lat="39.6363140" lon="2.4392970">
        <ele>288.8</ele>
        <time>2021-06-17T11:51:32Z</time>
      </trkpt>
      <trkpt lat="39.6362210" lon="2.4395120">
        <ele>290.5</ele>
        <time>2021-06-17T11:51:39Z</time>
      </trkpt>
      <trkpt lat="39.6361550" lon="2.4396760">
        <ele>291.8</ele>
        <time>2021-06-17T11:51:44Z</time>
      </trkpt>
      <trkpt lat="39.6361410" lon="2.4397730">
        <ele>292.5</ele>
        <time>2021-06-17T11:51:47Z</time>
      </trkpt>
      <trkpt lat="39.6361600" lon="2.4400480">
        <ele>294.1</ele>
        <time>2021-06-17T11:51:55Z</time>
      </trkpt>
      <trkpt lat="39.6362190" lon="2.4402940">
        <ele>295.5</ele>
        <time>2021-06-17T11:52:02Z</time>
      </trkpt>
      <trkpt lat="39.6362350" lon="2.4404930">
        <ele>296.5</ele>
        <time>2021-06-17T11:52:08Z</time>
      </trkpt>
      <trkpt lat="39.6362180" lon="2.4407460">
        <ele>297.9</ele>
        <time>2021-06-17T11:52:16Z</time>
      </trkpt>
      <trkpt lat="39.6362050" lon="2.4409890">
        <ele>299.0</ele>
        <time>2021-06-17T11:52:23Z</time>
      </trkpt>
      <trkpt lat="39.6361830" lon="2.4413270">
        <ele>299.8</ele>
        <time>2021-06-17T11:52:31Z</time>
      </trkpt>
      <trkpt lat="39.6361260" lon="2.4416620">
        <ele>300.2</ele>
        <time>2021-06-17T11:52:38Z</time>
      </trkpt>
      <trkpt lat="39.6359860" lon="2.4419610">
        <ele>300.4</ele>
        <time>2021-06-17T11:52:45Z</time>
      </trkpt>
      <trkpt lat="39.6357800" lon="2.4422520">
        <ele>300.1</ele>
        <time>2021-06-17T11:52:52Z</time>
      </trkpt>
      <trkpt lat="39.6357530" lon="2.4423710">
        <ele>300.0</ele>
        <time>2021-06-17T11:52:54Z</time>
      </trkpt>
      <trkpt lat="39.6357520" lon="2.4424310">
        <ele>300.0</ele>
        <time>2021-06-17T11:52:55Z</time>
      </trkpt>
      <trkpt lat="39.6357580" lon="2.4424900">
        <ele>300.0</ele>
        <time>2021-06-17T11:52:56Z</time>
      </trkpt>
      <trkpt lat="39.6357830" lon="2.4425970">
        <ele>300.0</ele>
        <time>2021-06-17T11:52:58Z</time>
      </trkpt>
      <trkpt lat="39.6358250" lon="2.4427080">
        <ele>300.0</ele>
        <time>2021-06-17T11:53:00Z</time>
      </trkpt>
      <trkpt lat="39.6359090" lon="2.4429120">
        <ele>300.0</ele>
        <time>2021-06-17T11:53:04Z</time>
      </trkpt>
      <trkpt lat="39.6359220" lon="2.4430360">
        <ele>300.0</ele>
        <time>2021-06-17T11:53:06Z</time>
      </trkpt>
      <trkpt lat="39.6358860" lon="2.4432170">
        <ele>300.0</ele>
        <time>2021-06-17T11:53:09Z</time>
      </trkpt>
      <trkpt lat="39.6358700" lon="2.4432770">
        <ele>300.0</ele>
        <time>2021-06-17T11:53:10Z</time>
      </trkpt>
      <trkpt lat="39.6357790" lon="2.4436370">
        <ele>300.2</ele>
        <time>2021-06-17T11:53:17Z</time>
      </trkpt>
      <trkpt lat="39.6357140" lon="2.4440650">
        <ele>300.4</ele>
        <time>2021-06-17T11:53:25Z</time>
      </trkpt>
      <trkpt lat="39.6357080" lon="2.4442360">
        <ele>300.4</ele>
        <time>2021-06-17T11:53:28Z</time>
      </trkpt>
      <trkpt lat="39.6357150" lon="2.4443330">
        <ele>300.4</ele>
        <time>2021-06-17T11:53:30Z</time>
      </trkpt>
      <trkpt lat="39.6357350" lon="2.4444330">
        <ele>300.4</ele>
        <time>2021-06-17T11:53:32Z</time>
      </trkpt>
      <trkpt lat="39.6357480" lon="2.4444810">
        <ele>300.4</ele>
        <time>2021-06-17T11:53:33Z</time>
      </trkpt>
      <trkpt lat="39.6358030" lon="2.4445880">
        <ele>300.3</ele>
        <time>2021-06-17T11:53:36Z</time>
      </trkpt>
      <trkpt lat="39.6358310" lon="2.4446050">
        <ele>300.3</ele>
        <time>2021-06-17T11:53:37Z</time>
      </trkpt>
      <trkpt lat="39.6359020" lon="2.4446100">
        <ele>300.2</ele>
        <time>2021-06-17T11:53:39Z</time>
      </trkpt>
      <trkpt lat="39.6360730" lon="2.4445840">
        <ele>299.6</ele>
        <time>2021-06-17T11:53:44Z</time>
      </trkpt>
      <trkpt lat="39.6362960" lon="2.4444720">
        <ele>298.1</ele>
        <time>2021-06-17T11:53:50Z</time>
      </trkpt>
      <trkpt lat="39.6364880" lon="2.4443960">
        <ele>296.6</ele>
        <time>2021-06-17T11:53:55Z</time>
      </trkpt>
      <trkpt lat="39.6365710" lon="2.4443570">
        <ele>295.9</ele>
        <time>2021-06-17T11:53:57Z</time>
      </trkpt>
      <trkpt lat="39.6367310" lon="2.4443220">
        <ele>294.6</ele>
        <time>2021-06-17T11:54:00Z</time>
      </trkpt>
      <trkpt lat="39.6369310" lon="2.4443220">
        <ele>292.8</ele>
        <time>2021-06-17T11:54:03Z</time>
      </trkpt>
      <trkpt lat="39.6370630" lon="2.4443360">
        <ele>291.5</ele>
        <time>2021-06-17T11:54:05Z</time>
      </trkpt>
      <trkpt lat="39.6374960" lon="2.4444060">
        <ele>287.3</ele>
        <time>2021-06-17T11:54:10Z</time>
      </trkpt>
      <trkpt lat="39.6376880" lon="2.4444380">
        <ele>285.9</ele>
        <time>2021-06-17T11:54:12Z</time>
      </trkpt>
      <trkpt lat="39.6379980" lon="2.4444410">
        <ele>284.5</ele>
        <time>2021-06-17T11:54:15Z</time>
      </trkpt>
      <trkpt lat="39.6382140" lon="2.4443730">
        <ele>283.9</ele>
        <time>2021-06-17T11:54:17Z</time>
      </trkpt>
      <trkpt lat="39.6383030" lon="2.4443160">
        <ele>283.8</ele>
        <time>2021-06-17T11:54:18Z</time>
      </trkpt>
      <trkpt lat="39.6386110" lon="2.4440840">
        <ele>283.9</ele>
        <time>2021-06-17T11:54:22Z</time>
      </trkpt>
      <trkpt lat="39.6386960" lon="2.4440440">
        <ele>283.8</ele>
        <time>2021-06-17T11:54:23Z</time>
      </trkpt>
      <trkpt lat="39.6387840" lon="2.4440240">
        <ele>283.8</ele>
        <time>2021-06-17T11:54:24Z</time>
      </trkpt>
      <trkpt lat="39.6389520" lon="2.4440040">
        <ele>283.8</ele>
        <time>2021-06-17T11:54:26Z</time>
      </trkpt>
      <trkpt lat="39.6394010" lon="2.4439310">
        <ele>285.2</ele>
        <time>2021-06-17T11:54:32Z</time>
      </trkpt>
      <trkpt lat="39.6395500" lon="2.4439020">
        <ele>286.3</ele>
        <time>2021-06-17T11:54:35Z</time>
      </trkpt>
      <trkpt lat="39.6395880" lon="2.4438940">
        <ele>286.6</ele>
        <time>2021-06-17T11:54:36Z</time>
      </trkpt>
      <trkpt lat="39.6397570" lon="2.4438480">
        <ele>288.1</ele>
        <time>2021-06-17T11:54:41Z</time>
      </trkpt>
      <trkpt lat="39.6398210" lon="2.4438280">
        <ele>288.6</ele>
        <time>2021-06-17T11:54:43Z</time>
      </trkpt>
      <trkpt lat="39.6399120" lon="2.4438120">
        <ele>289.5</ele>
        <time>2021-06-17T11:54:46Z</time>
      </trkpt>
      <trkpt lat="39.6399410" lon="2.4438030">
        <ele>289.8</ele>
        <time>2021-06-17T11:54:47Z</time>
      </trkpt>
      <trkpt lat="39.6400600" lon="2.4437730">
        <ele>290.9</ele>
        <time>2021-06-17T11:54:51Z</time>
      </trkpt>
      <trkpt lat="39.6402090" lon="2.4437410">
        <ele>292.1</ele>
        <time>2021-06-17T11:54:56Z</time>
      </trkpt>
      <trkpt lat="39.6402780" lon="2.4437280">
        <ele>292.7</ele>
        <time>2021-06-17T11:54:58Z</time>
      </trkpt>
      <trkpt lat="39.6403610" lon="2.4437150">
        <ele>293.4</ele>
        <time>2021-06-17T11:55:01Z</time>
      </trkpt>
      <trkpt lat="39.6404560" lon="2.4436980">
        <ele>294.2</ele>
        <time>2021-06-17T11:55:04Z</time>
      </trkpt>
      <trkpt lat="39.6405500" lon="2.4436790">
        <ele>295.0</ele>
        <time>2021-06-17T11:55:07Z</time>
      </trkpt>
      <trkpt lat="39.6407070" lon="2.4436470">
        <ele>296.4</ele>
        <time>2021-06-17T11:55:12Z</time>
      </trkpt>
      <trkpt lat="39.6408290" lon="2.4436100">
        <ele>297.5</ele>
        <time>2021-06-17T11:55:16Z</time>
      </trkpt>
      <trkpt lat="39.6409240" lon="2.4435910">
        <ele>298.4</ele>
        <time>2021-06-17T11:55:19Z</time>
      </trkpt>
      <trkpt lat="39.6410730" lon="2.4435830">
        <ele>299.8</ele>
        <time>2021-06-17T11:55:24Z</time>
      </trkpt>
      <trkpt lat="39.6413270" lon="2.4436620">
        <ele>302.2</ele>
        <time>2021-06-17T11:55:32Z</time>
      </trkpt>
      <trkpt lat="39.6414540" lon="2.4437080">
        <ele>303.3</ele>
        <time>2021-06-17T11:55:36Z</time>
      </trkpt>
      <trkpt lat="39.6416470" lon="2.4437810">
        <ele>305.0</ele>
        <time>2021-06-17T11:55:42Z</time>
      </trkpt>
      <trkpt lat="39.6417380" lon="2.4438180">
        <ele>305.8</ele>
        <time>2021-06-17T11:55:45Z</time>
      </trkpt>
      <trkpt lat="39.6418520" lon="2.4439030">
        <ele>306.9</ele>
        <time>2021-06-17T11:55:49Z</time>
      </trkpt>
      <trkpt lat="39.6419570" lon="2.4441150">
        <ele>308.3</ele>
        <time>2021-06-17T11:55:55Z</time>
      </trkpt>
      <trkpt lat="39.6420270" lon="2.4443830">
        <ele>309.8</ele>
        <time>2021-06-17T11:56:02Z</time>
      </trkpt>
      <trkpt lat="39.6421420" lon="2.4448360">
        <ele>311.1</ele>
        <time>2021-06-17T11:56:12Z</time>
      </trkpt>
      <trkpt lat="39.6422830" lon="2.4451340">
        <ele>311.5</ele>
        <time>2021-06-17T11:56:19Z</time>
      </trkpt>
      <trkpt lat="39.6424760" lon="2.4453260">
        <ele>311.7</ele>
        <time>2021-06-17T11:56:25Z</time>
      </trkpt>
      <trkpt lat="39.6426650" lon="2.4455600">
        <ele>312.3</ele>
        <time>2021-06-17T11:56:32Z</time>
      </trkpt>
      <trkpt lat="39.6426940" lon="2.4458450">
        <ele>312.5</ele>
        <time>2021-06-17T11:56:38Z</time>
      </trkpt>
      <trkpt lat="39.6426600" lon="2.4462690">
        <ele>312.6</ele>
        <time>2021-06-17T11:56:46Z</time>
      </trkpt>
      <trkpt lat="39.6426350" lon="2.4466220">
        <ele>313.2</ele>
        <time>2021-06-17T11:56:53Z</time>
      </trkpt>
      <trkpt lat="39.6425620" lon="2.4468920">
        <ele>313.5</ele>
        <time>2021-06-17T11:56:59Z</time>
      </trkpt>
      <trkpt lat="39.6424290" lon="2.4471390">
        <ele>313.7</ele>
        <time>2021-06-17T11:57:05Z</time>
      </trkpt>
      <trkpt lat="39.6422070" lon="2.4474930">
        <ele>314.5</ele>
        <time>2021-06-17T11:57:14Z</time>
      </trkpt>
      <trkpt lat="39.6420190" lon="2.4475520">
        <ele>314.8</ele>
        <time>2021-06-17T11:57:19Z</time>
      </trkpt>
      <trkpt lat="39.6417640" lon="2.4476080">
        <ele>315.2</ele>
        <time>2021-06-17T11:57:25Z</time>
      </trkpt>
      <trkpt lat="39.6413290" lon="2.4476960">
        <ele>316.3</ele>
        <time>2021-06-17T11:57:35Z</time>
      </trkpt>
      <trkpt lat="39.6412920" lon="2.4477130">
        <ele>316.4</ele>
        <time>2021-06-17T11:57:36Z</time>
      </trkpt>
      <trkpt lat="39.6412210" lon="2.4477660">
        <ele>316.5</ele>
        <time>2021-06-17T11:57:38Z</time>
      </trkpt>
      <trkpt lat="39.6411930" lon="2.4478070">
        <ele>316.5</ele>
        <time>2021-06-17T11:57:39Z</time>
      </trkpt>
      <trkpt lat="39.6411710" lon="2.4478590">
        <ele>316.6</ele>
        <time>2021-06-17T11:57:40Z</time>
      </trkpt>
      <trkpt lat="39.6411320" lon="2.4480320">
        <ele>316.8</ele>
        <time>2021-06-17T11:57:43Z</time>
      </trkpt>
      <trkpt lat="39.6411390" lon="2.4481510">
        <ele>316.9</ele>
        <time>2021-06-17T11:57:45Z</time>
      </trkpt>
      <trkpt lat="39.6411770" lon="2.4482640">
        <ele>317.0</ele>
        <time>2021-06-17T11:57:47Z</time>
      </trkpt>
      <trkpt lat="39.6414430" lon="2.4486670">
        <ele>317.8</ele>
        <time>2021-06-17T11:57:55Z</time>
      </trkpt>
      <trkpt lat="39.6415510" lon="2.4487840">
        <ele>318.0</ele>
        <time>2021-06-17T11:57:58Z</time>
      </trkpt>
      <trkpt lat="39.6416390" lon="2.4488250">
        <ele>318.2</ele>
        <time>2021-06-17T11:58:00Z</time>
      </trkpt>
      <trkpt lat="39.6417370" lon="2.4488430">
        <ele>318.3</ele>
        <time>2021-06-17T11:58:02Z</time>
      </trkpt>
      <trkpt lat="39.6419330" lon="2.4487950">
        <ele>318.5</ele>
        <time>2021-06-17T11:58:05Z</time>
      </trkpt>
      <trkpt lat="39.6420330" lon="2.4487490">
        <ele>318.5</ele>
        <time>2021-06-17T11:58:08Z</time>
      </trkpt>
      <trkpt lat="39.6422670" lon="2.4486160">
        <ele>318.9</ele>
        <time>2021-06-17T11:58:13Z</time>
      </trkpt>
      <trkpt lat="39.6424920" lon="2.4484890">
        <ele>319.6</ele>
        <time>2021-06-17T11:58:18Z</time>
      </trkpt>
      <trkpt lat="39.6425830" lon="2.4484470">
        <ele>319.9</ele>
        <time>2021-06-17T11:58:20Z</time>
      </trkpt>
      <trkpt lat="39.6426330" lon="2.4484340">
        <ele>320.1</ele>
        <time>2021-06-17T11:58:21Z</time>
      </trkpt>
      <trkpt lat="39.6428500" lon="2.4483990">
        <ele>320.9</ele>
        <time>2021-06-17T11:58:25Z</time>
      </trkpt>
      <trkpt lat="39.6430640" lon="2.4484140">
        <ele>321.7</ele>
        <time>2021-06-17T11:58:29Z</time>
      </trkpt>
      <trkpt lat="39.6433670" lon="2.4484610">
        <ele>322.9</ele>
        <time>2021-06-17T11:58:35Z</time>
      </trkpt>
      <trkpt lat="39.6434150" lon="2.4484900">
        <ele>323.2</ele>
        <time>2021-06-17T11:58:36Z</time>
      </trkpt>
      <trkpt lat="39.6434600" lon="2.4485230">
        <ele>323.4</ele>
        <time>2021-06-17T11:58:37Z</time>
      </trkpt>
      <trkpt lat="39.6435430" lon="2.4486220">
        <ele>323.9</ele>
        <time>2021-06-17T11:58:39Z</time>
      </trkpt>
      <trkpt lat="39.6435710" lon="2.4486750">
        <ele>324.1</ele>
        <time>2021-06-17T11:58:40Z</time>
      </trkpt>
      <trkpt lat="39.6436880" lon="2.4489420">
        <ele>325.0</ele>
        <time>2021-06-17T11:58:45Z</time>
      </trkpt>
      <trkpt lat="39.6437050" lon="2.4489990">
        <ele>325.1</ele>
        <time>2021-06-17T11:58:46Z</time>
      </trkpt>
      <trkpt lat="39.6437380" lon="2.4491200">
        <ele>325.6</ele>
        <time>2021-06-17T11:58:48Z</time>
      </trkpt>
      <trkpt lat="39.6437520" lon="2.4492420">
        <ele>326.0</ele>
        <time>2021-06-17T11:58:50Z</time>
      </trkpt>
      <trkpt lat="39.6437490" lon="2.4492990">
        <ele>326.2</ele>
        <time>2021-06-17T11:58:51Z</time>
      </trkpt>
      <trkpt lat="39.6437010" lon="2.4496040">
        <ele>327.0</ele>
        <time>2021-06-17T11:58:57Z</time>
      </trkpt>
      <trkpt lat="39.6436600" lon="2.4499210">
        <ele>327.1</ele>
        <time>2021-06-17T11:59:04Z</time>
      </trkpt>
      <trkpt lat="39.6436900" lon="2.4500730">
        <ele>326.7</ele>
        <time>2021-06-17T11:59:07Z</time>
      </trkpt>
      <trkpt lat="39.6437190" lon="2.4501260">
        <ele>326.4</ele>
        <time>2021-06-17T11:59:08Z</time>
      </trkpt>
      <trkpt lat="39.6437560" lon="2.4501720">
        <ele>326.1</ele>
        <time>2021-06-17T11:59:09Z</time>
      </trkpt>
      <trkpt lat="39.6439010" lon="2.4502800">
        <ele>325.2</ele>
        <time>2021-06-17T11:59:12Z</time>
      </trkpt>
      <trkpt lat="39.6442240" lon="2.4504000">
        <ele>323.2</ele>
        <time>2021-06-17T11:59:18Z</time>
      </trkpt>
      <trkpt lat="39.6444500" lon="2.4504710">
        <ele>321.9</ele>
        <time>2021-06-17T11:59:22Z</time>
      </trkpt>
      <trkpt lat="39.6445630" lon="2.4505010">
        <ele>321.2</ele>
        <time>2021-06-17T11:59:24Z</time>
      </trkpt>
      <trkpt lat="39.6446200" lon="2.4505110">
        <ele>320.9</ele>
        <time>2021-06-17T11:59:25Z</time>
      </trkpt>
      <trkpt lat="39.6447880" lon="2.4505330">
        <ele>320.0</ele>
        <time>2021-06-17T11:59:28Z</time>
      </trkpt>
      <trkpt lat="39.6448780" lon="2.4505620">
        <ele>319.4</ele>
        <time>2021-06-17T11:59:30Z</time>
      </trkpt>
      <trkpt lat="39.6449240" lon="2.4505730">
        <ele>319.1</ele>
        <time>2021-06-17T11:59:31Z</time>
      </trkpt>
      <trkpt lat="39.6450820" lon="2.4506180">
        <ele>318.0</ele>
        <time>2021-06-17T11:59:35Z</time>
      </trkpt>
      <trkpt lat="39.6451100" lon="2.4506410">
        <ele>317.8</ele>
        <time>2021-06-17T11:59:36Z</time>
      </trkpt>
      <trkpt lat="39.6451970" lon="2.4508590">
        <ele>316.5</ele>
        <time>2021-06-17T11:59:40Z</time>
      </trkpt>
      <trkpt lat="39.6452910" lon="2.4511430">
        <ele>315.1</ele>
        <time>2021-06-17T11:59:44Z</time>
      </trkpt>
      <trkpt lat="39.6453530" lon="2.4513890">
        <ele>314.1</ele>
        <time>2021-06-17T11:59:47Z</time>
      </trkpt>
      <trkpt lat="39.6454110" lon="2.4516490">
        <ele>313.1</ele>
        <time>2021-06-17T11:59:50Z</time>
      </trkpt>
      <trkpt lat="39.6454320" lon="2.4518030">
        <ele>312.4</ele>
        <time>2021-06-17T11:59:52Z</time>
      </trkpt>
      <trkpt lat="39.6454730" lon="2.4519670">
        <ele>311.5</ele>
        <time>2021-06-17T11:59:54Z</time>
      </trkpt>
      <trkpt lat="39.6454970" lon="2.4521560">
        <ele>310.8</ele>
        <time>2021-06-17T11:59:55Z</time>
      </trkpt>
      <trkpt lat="39.6455360" lon="2.4524920">
        <ele>309.7</ele>
        <time>2021-06-17T11:59:57Z</time>
      </trkpt>
      <trkpt lat="39.6455360" lon="2.4524920">
        <ele>309.7</ele>
        <time>2021-06-17T11:59:58Z</time>
      </trkpt>
      <trkpt lat="39.6454600" lon="2.4531560">
        <ele>307.3</ele>
        <time>2021-06-17T12:00:05Z</time>
      </trkpt>
      <trkpt lat="39.6454560" lon="2.4533370">
        <ele>306.6</ele>
        <time>2021-06-17T12:00:07Z</time>
      </trkpt>
      <trkpt lat="39.6454790" lon="2.4534940">
        <ele>306.0</ele>
        <time>2021-06-17T12:00:09Z</time>
      </trkpt>
      <trkpt lat="39.6455180" lon="2.4536140">
        <ele>305.5</ele>
        <time>2021-06-17T12:00:12Z</time>
      </trkpt>
      <trkpt lat="39.6455400" lon="2.4536950">
        <ele>305.2</ele>
        <time>2021-06-17T12:00:17Z</time>
      </trkpt>
      <trkpt lat="39.6455420" lon="2.4536970">
        <ele>305.2</ele>
        <time>2021-06-17T12:00:25Z</time>
      </trkpt>
      <trkpt lat="39.6455420" lon="2.4536970">
        <ele>305.2</ele>
        <time>2021-06-17T12:00:29Z</time>
      </trkpt>
      <trkpt lat="39.6455420" lon="2.4536970">
        <ele>305.2</ele>
        <time>2021-06-17T12:00:40Z</time>
      </trkpt>
      <trkpt lat="39.6455490" lon="2.4536930">
        <ele>305.1</ele>
        <time>2021-06-17T12:01:03Z</time>
      </trkpt>
      <trkpt lat="39.6455490" lon="2.4536930">
        <ele>305.1</ele>
        <time>2021-06-17T12:01:04Z</time>
      </trkpt>
      <trkpt lat="39.6455490" lon="2.4536930">
        <ele>305.1</ele>
        <time>2021-06-17T12:01:05Z</time>
      </trkpt>
      <trkpt lat="39.6455520" lon="2.4536980">
        <ele>305.1</ele>
        <time>2021-06-17T12:01:22Z</time>
      </trkpt>
      <trkpt lat="39.6455630" lon="2.4537270">
        <ele>305.0</ele>
        <time>2021-06-17T12:01:23Z</time>
      </trkpt>
      <trkpt lat="39.6456210" lon="2.4539520">
        <ele>304.1</ele>
        <time>2021-06-17T12:01:29Z</time>
      </trkpt>
      <trkpt lat="39.6456520" lon="2.4540220">
        <ele>303.8</ele>
        <time>2021-06-17T12:01:31Z</time>
      </trkpt>
      <trkpt lat="39.6456720" lon="2.4540250">
        <ele>303.9</ele>
        <time>2021-06-17T12:01:32Z</time>
      </trkpt>
      <trkpt lat="39.6456680" lon="2.4539530">
        <ele>304.2</ele>
        <time>2021-06-17T12:01:35Z</time>
      </trkpt>
      <trkpt lat="39.6455950" lon="2.4537360">
        <ele>305.0</ele>
        <time>2021-06-17T12:01:40Z</time>
      </trkpt>
      <trkpt lat="39.6455350" lon="2.4535520">
        <ele>305.7</ele>
        <time>2021-06-17T12:01:44Z</time>
      </trkpt>
      <trkpt lat="39.6455220" lon="2.4535070">
        <ele>305.9</ele>
        <time>2021-06-17T12:01:45Z</time>
      </trkpt>
      <trkpt lat="39.6454930" lon="2.4533190">
        <ele>306.5</ele>
        <time>2021-06-17T12:01:48Z</time>
      </trkpt>
      <trkpt lat="39.6454740" lon="2.4531770">
        <ele>307.0</ele>
        <time>2021-06-17T12:01:53Z</time>
      </trkpt>
      <trkpt lat="39.6454590" lon="2.4532740">
        <ele>306.7</ele>
        <time>2021-06-17T12:01:56Z</time>
      </trkpt>
      <trkpt lat="39.6455150" lon="2.4535520">
        <ele>305.6</ele>
        <time>2021-06-17T12:02:01Z</time>
      </trkpt>
      <trkpt lat="39.6455440" lon="2.4536860">
        <ele>305.1</ele>
        <time>2021-06-17T12:02:05Z</time>
      </trkpt>
      <trkpt lat="39.6455440" lon="2.4536930">
        <ele>305.1</ele>
        <time>2021-06-17T12:02:10Z</time>
      </trkpt>
      <trkpt lat="39.6455440" lon="2.4536930">
        <ele>305.1</ele>
        <time>2021-06-17T12:02:16Z</time>
      </trkpt>
      <trkpt lat="39.6455440" lon="2.4536920">
        <ele>305.1</ele>
        <time>2021-06-17T12:02:30Z</time>
      </trkpt>
      <trkpt lat="39.6455440" lon="2.4536920">
        <ele>305.1</ele>
        <time>2021-06-17T12:02:35Z</time>
      </trkpt>
      <trkpt lat="39.6455440" lon="2.4536920">
        <ele>305.1</ele>
        <time>2021-06-17T12:02:38Z</time>
      </trkpt>
      <trkpt lat="39.6455620" lon="2.4537280">
        <ele>304.9</ele>
        <time>2021-06-17T12:02:48Z</time>
      </trkpt>
      <trkpt lat="39.6455750" lon="2.4537560">
        <ele>304.8</ele>
        <time>2021-06-17T12:02:49Z</time>
      </trkpt>
      <trkpt lat="39.6456340" lon="2.4539470">
        <ele>304.0</ele>
        <time>2021-06-17T12:02:54Z</time>
      </trkpt>
      <trkpt lat="39.6456690" lon="2.4540960">
        <ele>303.5</ele>
        <time>2021-06-17T12:02:57Z</time>
      </trkpt>
      <trkpt lat="39.6456870" lon="2.4542170">
        <ele>303.0</ele>
        <time>2021-06-17T12:02:59Z</time>
      </trkpt>
      <trkpt lat="39.6457500" lon="2.4545480">
        <ele>301.9</ele>
        <time>2021-06-17T12:03:04Z</time>
      </trkpt>
      <trkpt lat="39.6457600" lon="2.4546210">
        <ele>301.7</ele>
        <time>2021-06-17T12:03:05Z</time>
      </trkpt>
      <trkpt lat="39.6458130" lon="2.4550090">
        <ele>300.8</ele>
        <time>2021-06-17T12:03:10Z</time>
      </trkpt>
      <trkpt lat="39.6458560" lon="2.4554910">
        <ele>299.9</ele>
        <time>2021-06-17T12:03:16Z</time>
      </trkpt>
      <trkpt lat="39.6458620" lon="2.4560870">
        <ele>298.7</ele>
        <time>2021-06-17T12:03:23Z</time>
      </trkpt>
      <trkpt lat="39.6458660" lon="2.4561520">
        <ele>298.6</ele>
        <time>2021-06-17T12:03:24Z</time>
      </trkpt>
      <trkpt lat="39.6459030" lon="2.4563100">
        <ele>298.4</ele>
        <time>2021-06-17T12:03:26Z</time>
      </trkpt>
      <trkpt lat="39.6459310" lon="2.4563860">
        <ele>298.3</ele>
        <time>2021-06-17T12:03:27Z</time>
      </trkpt>
      <trkpt lat="39.6460520" lon="2.4566950">
        <ele>298.1</ele>
        <time>2021-06-17T12:03:31Z</time>
      </trkpt>
      <trkpt lat="39.6460920" lon="2.4568570">
        <ele>298.0</ele>
        <time>2021-06-17T12:03:33Z</time>
      </trkpt>
      <trkpt lat="39.6462090" lon="2.4575090">
        <ele>298.3</ele>
        <time>2021-06-17T12:03:41Z</time>
      </trkpt>
      <trkpt lat="39.6463300" lon="2.4579410">
        <ele>299.6</ele>
        <time>2021-06-17T12:03:47Z</time>
      </trkpt>
      <trkpt lat="39.6463920" lon="2.4580400">
        <ele>300.0</ele>
        <time>2021-06-17T12:03:49Z</time>
      </trkpt>
      <trkpt lat="39.6464610" lon="2.4581260">
        <ele>300.4</ele>
        <time>2021-06-17T12:03:51Z</time>
      </trkpt>
      <trkpt lat="39.6465270" lon="2.4582240">
        <ele>300.8</ele>
        <time>2021-06-17T12:03:53Z</time>
      </trkpt>
      <trkpt lat="39.6466710" lon="2.4583990">
        <ele>301.6</ele>
        <time>2021-06-17T12:03:57Z</time>
      </trkpt>
      <trkpt lat="39.6467100" lon="2.4584990">
        <ele>302.0</ele>
        <time>2021-06-17T12:03:59Z</time>
      </trkpt>
      <trkpt lat="39.6467320" lon="2.4586030">
        <ele>302.4</ele>
        <time>2021-06-17T12:04:01Z</time>
      </trkpt>
      <trkpt lat="39.6467250" lon="2.4587050">
        <ele>302.6</ele>
        <time>2021-06-17T12:04:03Z</time>
      </trkpt>
      <trkpt lat="39.6466710" lon="2.4588560">
        <ele>303.0</ele>
        <time>2021-06-17T12:04:06Z</time>
      </trkpt>
      <trkpt lat="39.6465880" lon="2.4590650">
        <ele>303.4</ele>
        <time>2021-06-17T12:04:10Z</time>
      </trkpt>
      <trkpt lat="39.6464680" lon="2.4593370">
        <ele>303.8</ele>
        <time>2021-06-17T12:04:15Z</time>
      </trkpt>
      <trkpt lat="39.6463680" lon="2.4594930">
        <ele>303.4</ele>
        <time>2021-06-17T12:04:18Z</time>
      </trkpt>
      <trkpt lat="39.6462820" lon="2.4595950">
        <ele>302.9</ele>
        <time>2021-06-17T12:04:20Z</time>
      </trkpt>
      <trkpt lat="39.6462300" lon="2.4596450">
        <ele>302.5</ele>
        <time>2021-06-17T12:04:21Z</time>
      </trkpt>
      <trkpt lat="39.6460040" lon="2.4598700">
        <ele>300.5</ele>
        <time>2021-06-17T12:04:25Z</time>
      </trkpt>
      <trkpt lat="39.6459470" lon="2.4599410">
        <ele>299.8</ele>
        <time>2021-06-17T12:04:26Z</time>
      </trkpt>
      <trkpt lat="39.6458690" lon="2.4601290">
        <ele>298.6</ele>
        <time>2021-06-17T12:04:28Z</time>
      </trkpt>
      <trkpt lat="39.6457690" lon="2.4605800">
        <ele>296.6</ele>
        <time>2021-06-17T12:04:32Z</time>
      </trkpt>
      <trkpt lat="39.6456690" lon="2.4607860">
        <ele>295.5</ele>
        <time>2021-06-17T12:04:34Z</time>
      </trkpt>
      <trkpt lat="39.6456090" lon="2.4608830">
        <ele>294.9</ele>
        <time>2021-06-17T12:04:35Z</time>
      </trkpt>
      <trkpt lat="39.6454940" lon="2.4610750">
        <ele>293.9</ele>
        <time>2021-06-17T12:04:37Z</time>
      </trkpt>
      <trkpt lat="39.6454440" lon="2.4613110">
        <ele>292.7</ele>
        <time>2021-06-17T12:04:39Z</time>
      </trkpt>
      <trkpt lat="39.6454990" lon="2.4615450">
        <ele>291.2</ele>
        <time>2021-06-17T12:04:41Z</time>
      </trkpt>
      <trkpt lat="39.6456450" lon="2.4617350">
        <ele>289.7</ele>
        <time>2021-06-17T12:04:43Z</time>
      </trkpt>
      <trkpt lat="39.6457320" lon="2.4618200">
        <ele>289.0</ele>
        <time>2021-06-17T12:04:44Z</time>
      </trkpt>
      <trkpt lat="39.6458210" lon="2.4619040">
        <ele>288.2</ele>
        <time>2021-06-17T12:04:45Z</time>
      </trkpt>
      <trkpt lat="39.6459990" lon="2.4620800">
        <ele>286.8</ele>
        <time>2021-06-17T12:04:47Z</time>
      </trkpt>
      <trkpt lat="39.6463700" lon="2.4624460">
        <ele>283.0</ele>
        <time>2021-06-17T12:04:51Z</time>
      </trkpt>
      <trkpt lat="39.6468620" lon="2.4628960">
        <ele>278.5</ele>
        <time>2021-06-17T12:04:56Z</time>
      </trkpt>
      <trkpt lat="39.6469490" lon="2.4629980">
        <ele>277.7</ele>
        <time>2021-06-17T12:04:57Z</time>
      </trkpt>
      <trkpt lat="39.6470420" lon="2.4632570">
        <ele>276.1</ele>
        <time>2021-06-17T12:04:59Z</time>
      </trkpt>
      <trkpt lat="39.6470140" lon="2.4635340">
        <ele>274.4</ele>
        <time>2021-06-17T12:05:01Z</time>
      </trkpt>
      <trkpt lat="39.6469330" lon="2.4639600">
        <ele>271.8</ele>
        <time>2021-06-17T12:05:04Z</time>
      </trkpt>
      <trkpt lat="39.6469350" lon="2.4641090">
        <ele>270.9</ele>
        <time>2021-06-17T12:05:05Z</time>
      </trkpt>
      <trkpt lat="39.6469580" lon="2.4642600">
        <ele>270.0</ele>
        <time>2021-06-17T12:05:06Z</time>
      </trkpt>
      <trkpt lat="39.6470150" lon="2.4645620">
        <ele>268.1</ele>
        <time>2021-06-17T12:05:08Z</time>
      </trkpt>
      <trkpt lat="39.6471610" lon="2.4653530">
        <ele>263.7</ele>
        <time>2021-06-17T12:05:13Z</time>
      </trkpt>
      <trkpt lat="39.6472450" lon="2.4657720">
        <ele>262.3</ele>
        <time>2021-06-17T12:05:16Z</time>
      </trkpt>
      <trkpt lat="39.6472700" lon="2.4660770">
        <ele>261.4</ele>
        <time>2021-06-17T12:05:18Z</time>
      </trkpt>
      <trkpt lat="39.6472400" lon="2.4662060">
        <ele>260.9</ele>
        <time>2021-06-17T12:05:19Z</time>
      </trkpt>
      <trkpt lat="39.6471910" lon="2.4663240">
        <ele>260.4</ele>
        <time>2021-06-17T12:05:20Z</time>
      </trkpt>
      <trkpt lat="39.6470690" lon="2.4665500">
        <ele>259.4</ele>
        <time>2021-06-17T12:05:22Z</time>
      </trkpt>
      <trkpt lat="39.6468960" lon="2.4668870">
        <ele>258.1</ele>
        <time>2021-06-17T12:05:25Z</time>
      </trkpt>
      <trkpt lat="39.6468260" lon="2.4671440">
        <ele>257.4</ele>
        <time>2021-06-17T12:05:27Z</time>
      </trkpt>
      <trkpt lat="39.6468800" lon="2.4673450">
        <ele>256.8</ele>
        <time>2021-06-17T12:05:29Z</time>
      </trkpt>
      <trkpt lat="39.6469400" lon="2.4674240">
        <ele>256.4</ele>
        <time>2021-06-17T12:05:30Z</time>
      </trkpt>
      <trkpt lat="39.6470190" lon="2.4674740">
        <ele>256.0</ele>
        <time>2021-06-17T12:05:31Z</time>
      </trkpt>
      <trkpt lat="39.6472090" lon="2.4675110">
        <ele>255.2</ele>
        <time>2021-06-17T12:05:33Z</time>
      </trkpt>
      <trkpt lat="39.6473090" lon="2.4675160">
        <ele>254.7</ele>
        <time>2021-06-17T12:05:34Z</time>
      </trkpt>
      <trkpt lat="39.6475090" lon="2.4675350">
        <ele>253.8</ele>
        <time>2021-06-17T12:05:36Z</time>
      </trkpt>
      <trkpt lat="39.6476110" lon="2.4675560">
        <ele>253.3</ele>
        <time>2021-06-17T12:05:37Z</time>
      </trkpt>
      <trkpt lat="39.6478140" lon="2.4675980">
        <ele>252.2</ele>
        <time>2021-06-17T12:05:39Z</time>
      </trkpt>
      <trkpt lat="39.6479130" lon="2.4676350">
        <ele>251.6</ele>
        <time>2021-06-17T12:05:40Z</time>
      </trkpt>
      <trkpt lat="39.6484120" lon="2.4679140">
        <ele>248.9</ele>
        <time>2021-06-17T12:05:45Z</time>
      </trkpt>
      <trkpt lat="39.6488780" lon="2.4682020">
        <ele>246.8</ele>
        <time>2021-06-17T12:05:50Z</time>
      </trkpt>
      <trkpt lat="39.6490600" lon="2.4683190">
        <ele>245.9</ele>
        <time>2021-06-17T12:05:52Z</time>
      </trkpt>
      <trkpt lat="39.6492390" lon="2.4684470">
        <ele>244.9</ele>
        <time>2021-06-17T12:05:54Z</time>
      </trkpt>
      <trkpt lat="39.6493900" lon="2.4686200">
        <ele>244.0</ele>
        <time>2021-06-17T12:05:56Z</time>
      </trkpt>
      <trkpt lat="39.6495800" lon="2.4689190">
        <ele>243.0</ele>
        <time>2021-06-17T12:05:59Z</time>
      </trkpt>
      <trkpt lat="39.6496530" lon="2.4689990">
        <ele>242.7</ele>
        <time>2021-06-17T12:06:00Z</time>
      </trkpt>
      <trkpt lat="39.6497350" lon="2.4690570">
        <ele>242.5</ele>
        <time>2021-06-17T12:06:01Z</time>
      </trkpt>
      <trkpt lat="39.6499220" lon="2.4690680">
        <ele>242.1</ele>
        <time>2021-06-17T12:06:03Z</time>
      </trkpt>
      <trkpt lat="39.6501000" lon="2.4689790">
        <ele>241.7</ele>
        <time>2021-06-17T12:06:05Z</time>
      </trkpt>
      <trkpt lat="39.6501850" lon="2.4689170">
        <ele>241.6</ele>
        <time>2021-06-17T12:06:06Z</time>
      </trkpt>
      <trkpt lat="39.6504430" lon="2.4687520">
        <ele>241.2</ele>
        <time>2021-06-17T12:06:09Z</time>
      </trkpt>
      <trkpt lat="39.6505350" lon="2.4687280">
        <ele>241.0</ele>
        <time>2021-06-17T12:06:10Z</time>
      </trkpt>
      <trkpt lat="39.6506340" lon="2.4687330">
        <ele>240.7</ele>
        <time>2021-06-17T12:06:11Z</time>
      </trkpt>
      <trkpt lat="39.6508260" lon="2.4687880">
        <ele>240.2</ele>
        <time>2021-06-17T12:06:13Z</time>
      </trkpt>
      <trkpt lat="39.6513920" lon="2.4689810">
        <ele>238.8</ele>
        <time>2021-06-17T12:06:19Z</time>
      </trkpt>
      <trkpt lat="39.6517660" lon="2.4691210">
        <ele>237.9</ele>
        <time>2021-06-17T12:06:23Z</time>
      </trkpt>
      <trkpt lat="39.6518450" lon="2.4691840">
        <ele>237.7</ele>
        <time>2021-06-17T12:06:24Z</time>
      </trkpt>
      <trkpt lat="39.6519070" lon="2.4692570">
        <ele>237.7</ele>
        <time>2021-06-17T12:06:25Z</time>
      </trkpt>
      <trkpt lat="39.6519820" lon="2.4694220">
        <ele>237.0</ele>
        <time>2021-06-17T12:06:27Z</time>
      </trkpt>
      <trkpt lat="39.6520160" lon="2.4698100">
        <ele>235.2</ele>
        <time>2021-06-17T12:06:31Z</time>
      </trkpt>
      <trkpt lat="39.6520210" lon="2.4704810">
        <ele>231.8</ele>
        <time>2021-06-17T12:06:37Z</time>
      </trkpt>
      <trkpt lat="39.6519480" lon="2.4706870">
        <ele>230.7</ele>
        <time>2021-06-17T12:06:39Z</time>
      </trkpt>
      <trkpt lat="39.6518910" lon="2.4707710">
        <ele>230.1</ele>
        <time>2021-06-17T12:06:40Z</time>
      </trkpt>
      <trkpt lat="39.6518160" lon="2.4708280">
        <ele>229.4</ele>
        <time>2021-06-17T12:06:41Z</time>
      </trkpt>
      <trkpt lat="39.6516430" lon="2.4709130">
        <ele>228.0</ele>
        <time>2021-06-17T12:06:43Z</time>
      </trkpt>
      <trkpt lat="39.6513700" lon="2.4710200">
        <ele>226.1</ele>
        <time>2021-06-17T12:06:46Z</time>
      </trkpt>
      <trkpt lat="39.6511900" lon="2.4710940">
        <ele>225.0</ele>
        <time>2021-06-17T12:06:48Z</time>
      </trkpt>
      <trkpt lat="39.6506180" lon="2.4713420">
        <ele>221.4</ele>
        <time>2021-06-17T12:06:54Z</time>
      </trkpt>
      <trkpt lat="39.6504180" lon="2.4714220">
        <ele>220.1</ele>
        <time>2021-06-17T12:06:56Z</time>
      </trkpt>
      <trkpt lat="39.6502220" lon="2.4715300">
        <ele>219.1</ele>
        <time>2021-06-17T12:06:58Z</time>
      </trkpt>
      <trkpt lat="39.6500560" lon="2.4717050">
        <ele>218.0</ele>
        <time>2021-06-17T12:07:00Z</time>
      </trkpt>
      <trkpt lat="39.6499480" lon="2.4719430">
        <ele>217.1</ele>
        <time>2021-06-17T12:07:02Z</time>
      </trkpt>
      <trkpt lat="39.6499140" lon="2.4720760">
        <ele>216.6</ele>
        <time>2021-06-17T12:07:03Z</time>
      </trkpt>
      <trkpt lat="39.6498360" lon="2.4723410">
        <ele>215.5</ele>
        <time>2021-06-17T12:07:05Z</time>
      </trkpt>
      <trkpt lat="39.6497770" lon="2.4724550">
        <ele>215.0</ele>
        <time>2021-06-17T12:07:06Z</time>
      </trkpt>
      <trkpt lat="39.6494350" lon="2.4730100">
        <ele>212.4</ele>
        <time>2021-06-17T12:07:11Z</time>
      </trkpt>
      <trkpt lat="39.6493660" lon="2.4731220">
        <ele>211.9</ele>
        <time>2021-06-17T12:07:12Z</time>
      </trkpt>
      <trkpt lat="39.6490650" lon="2.4737020">
        <ele>209.3</ele>
        <time>2021-06-17T12:07:17Z</time>
      </trkpt>
      <trkpt lat="39.6490470" lon="2.4738380">
        <ele>208.6</ele>
        <time>2021-06-17T12:07:18Z</time>
      </trkpt>
      <trkpt lat="39.6490470" lon="2.4739780">
        <ele>207.7</ele>
        <time>2021-06-17T12:07:19Z</time>
      </trkpt>
      <trkpt lat="39.6490770" lon="2.4741140">
        <ele>206.8</ele>
        <time>2021-06-17T12:07:20Z</time>
      </trkpt>
      <trkpt lat="39.6491440" lon="2.4742370">
        <ele>205.8</ele>
        <time>2021-06-17T12:07:21Z</time>
      </trkpt>
      <trkpt lat="39.6492350" lon="2.4743410">
        <ele>204.9</ele>
        <time>2021-06-17T12:07:22Z</time>
      </trkpt>
      <trkpt lat="39.6493390" lon="2.4744280">
        <ele>204.0</ele>
        <time>2021-06-17T12:07:23Z</time>
      </trkpt>
      <trkpt lat="39.6496510" lon="2.4746700">
        <ele>202.5</ele>
        <time>2021-06-17T12:07:26Z</time>
      </trkpt>
      <trkpt lat="39.6497430" lon="2.4747540">
        <ele>202.1</ele>
        <time>2021-06-17T12:07:27Z</time>
      </trkpt>
      <trkpt lat="39.6498650" lon="2.4749650">
        <ele>201.0</ele>
        <time>2021-06-17T12:07:29Z</time>
      </trkpt>
      <trkpt lat="39.6498680" lon="2.4751710">
        <ele>199.6</ele>
        <time>2021-06-17T12:07:31Z</time>
      </trkpt>
      <trkpt lat="39.6497050" lon="2.4755630">
        <ele>196.2</ele>
        <time>2021-06-17T12:07:35Z</time>
      </trkpt>
      <trkpt lat="39.6496820" lon="2.4757700">
        <ele>194.6</ele>
        <time>2021-06-17T12:07:37Z</time>
      </trkpt>
      <trkpt lat="39.6497500" lon="2.4759740">
        <ele>193.0</ele>
        <time>2021-06-17T12:07:39Z</time>
      </trkpt>
      <trkpt lat="39.6498010" lon="2.4760660">
        <ele>192.1</ele>
        <time>2021-06-17T12:07:40Z</time>
      </trkpt>
      <trkpt lat="39.6498610" lon="2.4761540">
        <ele>191.4</ele>
        <time>2021-06-17T12:07:41Z</time>
      </trkpt>
      <trkpt lat="39.6500080" lon="2.4763220">
        <ele>190.2</ele>
        <time>2021-06-17T12:07:43Z</time>
      </trkpt>
      <trkpt lat="39.6501450" lon="2.4765060">
        <ele>189.3</ele>
        <time>2021-06-17T12:07:45Z</time>
      </trkpt>
      <trkpt lat="39.6501830" lon="2.4766130">
        <ele>188.8</ele>
        <time>2021-06-17T12:07:46Z</time>
      </trkpt>
      <trkpt lat="39.6501870" lon="2.4767210">
        <ele>188.1</ele>
        <time>2021-06-17T12:07:47Z</time>
      </trkpt>
      <trkpt lat="39.6501590" lon="2.4768250">
        <ele>187.4</ele>
        <time>2021-06-17T12:07:48Z</time>
      </trkpt>
      <trkpt lat="39.6501110" lon="2.4769210">
        <ele>186.4</ele>
        <time>2021-06-17T12:07:49Z</time>
      </trkpt>
      <trkpt lat="39.6499870" lon="2.4771000">
        <ele>184.5</ele>
        <time>2021-06-17T12:07:51Z</time>
      </trkpt>
      <trkpt lat="39.6497760" lon="2.4773680">
        <ele>182.1</ele>
        <time>2021-06-17T12:07:54Z</time>
      </trkpt>
      <trkpt lat="39.6497220" lon="2.4774790">
        <ele>181.4</ele>
        <time>2021-06-17T12:07:55Z</time>
      </trkpt>
      <trkpt lat="39.6496780" lon="2.4775960">
        <ele>180.7</ele>
        <time>2021-06-17T12:07:56Z</time>
      </trkpt>
      <trkpt lat="39.6496830" lon="2.4778280">
        <ele>179.1</ele>
        <time>2021-06-17T12:07:58Z</time>
      </trkpt>
      <trkpt lat="39.6498010" lon="2.4780320">
        <ele>177.2</ele>
        <time>2021-06-17T12:08:00Z</time>
      </trkpt>
      <trkpt lat="39.6500710" lon="2.4782330">
        <ele>174.1</ele>
        <time>2021-06-17T12:08:03Z</time>
      </trkpt>
      <trkpt lat="39.6505740" lon="2.4785760">
        <ele>169.5</ele>
        <time>2021-06-17T12:08:08Z</time>
      </trkpt>
      <trkpt lat="39.6509940" lon="2.4788520">
        <ele>166.5</ele>
        <time>2021-06-17T12:08:12Z</time>
      </trkpt>
      <trkpt lat="39.6511690" lon="2.4789860">
        <ele>165.3</ele>
        <time>2021-06-17T12:08:14Z</time>
      </trkpt>
      <trkpt lat="39.6513040" lon="2.4791630">
        <ele>163.8</ele>
        <time>2021-06-17T12:08:16Z</time>
      </trkpt>
      <trkpt lat="39.6514110" lon="2.4795010">
        <ele>161.7</ele>
        <time>2021-06-17T12:08:19Z</time>
      </trkpt>
      <trkpt lat="39.6515490" lon="2.4796720">
        <ele>161.2</ele>
        <time>2021-06-17T12:08:21Z</time>
      </trkpt>
      <trkpt lat="39.6517330" lon="2.4797450">
        <ele>159.8</ele>
        <time>2021-06-17T12:08:23Z</time>
      </trkpt>
      <trkpt lat="39.6518300" lon="2.4797550">
        <ele>159.0</ele>
        <time>2021-06-17T12:08:24Z</time>
      </trkpt>
      <trkpt lat="39.6522650" lon="2.4797890">
        <ele>156.5</ele>
        <time>2021-06-17T12:08:29Z</time>
      </trkpt>
      <trkpt lat="39.6523420" lon="2.4798100">
        <ele>156.1</ele>
        <time>2021-06-17T12:08:30Z</time>
      </trkpt>
      <trkpt lat="39.6524690" lon="2.4799170">
        <ele>155.0</ele>
        <time>2021-06-17T12:08:32Z</time>
      </trkpt>
      <trkpt lat="39.6525310" lon="2.4800790">
        <ele>153.9</ele>
        <time>2021-06-17T12:08:34Z</time>
      </trkpt>
      <trkpt lat="39.6525420" lon="2.4801610">
        <ele>153.4</ele>
        <time>2021-06-17T12:08:35Z</time>
      </trkpt>
      <trkpt lat="39.6526070" lon="2.4805270">
        <ele>151.6</ele>
        <time>2021-06-17T12:08:40Z</time>
      </trkpt>
      <trkpt lat="39.6526430" lon="2.4807440">
        <ele>151.3</ele>
        <time>2021-06-17T12:08:43Z</time>
      </trkpt>
      <trkpt lat="39.6526840" lon="2.4808470">
        <ele>151.2</ele>
        <time>2021-06-17T12:08:45Z</time>
      </trkpt>
      <trkpt lat="39.6528440" lon="2.4811300">
        <ele>150.9</ele>
        <time>2021-06-17T12:08:52Z</time>
      </trkpt>
      <trkpt lat="39.6529260" lon="2.4812220">
        <ele>150.9</ele>
        <time>2021-06-17T12:08:58Z</time>
      </trkpt>
      <trkpt lat="39.6529910" lon="2.4812950">
        <ele>151.0</ele>
        <time>2021-06-17T12:09:04Z</time>
      </trkpt>
      <trkpt lat="39.6529940" lon="2.4812990">
        <ele>151.0</ele>
        <time>2021-06-17T12:09:08Z</time>
      </trkpt>
      <trkpt lat="39.6529940" lon="2.4812990">
        <ele>151.0</ele>
        <time>2021-06-17T12:09:10Z</time>
      </trkpt>
      <trkpt lat="39.6529940" lon="2.4812990">
        <ele>151.0</ele>
        <time>2021-06-17T12:09:30Z</time>
      </trkpt>
      <trkpt lat="39.6529890" lon="2.4812960">
        <ele>151.0</ele>
        <time>2021-06-17T12:10:01Z</time>
      </trkpt>
      <trkpt lat="39.6529890" lon="2.4812960">
        <ele>151.0</ele>
        <time>2021-06-17T12:10:07Z</time>
      </trkpt>
      <trkpt lat="39.6529890" lon="2.4812960">
        <ele>151.0</ele>
        <time>2021-06-17T12:10:18Z</time>
      </trkpt>
      <trkpt lat="39.6529840" lon="2.4812960">
        <ele>151.0</ele>
        <time>2021-06-17T12:10:28Z</time>
      </trkpt>
      <trkpt lat="39.6529840" lon="2.4812960">
        <ele>151.0</ele>
        <time>2021-06-17T12:10:38Z</time>
      </trkpt>
      <trkpt lat="39.6529950" lon="2.4813070">
        <ele>151.0</ele>
        <time>2021-06-17T12:10:52Z</time>
      </trkpt>
      <trkpt lat="39.6530300" lon="2.4813350">
        <ele>151.0</ele>
        <time>2021-06-17T12:10:55Z</time>
      </trkpt>
      <trkpt lat="39.6531410" lon="2.4814430">
        <ele>151.0</ele>
        <time>2021-06-17T12:11:00Z</time>
      </trkpt>
      <trkpt lat="39.6531940" lon="2.4814940">
        <ele>150.9</ele>
        <time>2021-06-17T12:11:02Z</time>
      </trkpt>
      <trkpt lat="39.6532490" lon="2.4815650">
        <ele>150.7</ele>
        <time>2021-06-17T12:11:04Z</time>
      </trkpt>
      <trkpt lat="39.6533000" lon="2.4816430">
        <ele>150.5</ele>
        <time>2021-06-17T12:11:06Z</time>
      </trkpt>
      <trkpt lat="39.6533370" lon="2.4817360">
        <ele>150.4</ele>
        <time>2021-06-17T12:11:08Z</time>
      </trkpt>
      <trkpt lat="39.6533550" lon="2.4818540">
        <ele>149.9</ele>
        <time>2021-06-17T12:11:10Z</time>
      </trkpt>
      <trkpt lat="39.6534030" lon="2.4820940">
        <ele>148.1</ele>
        <time>2021-06-17T12:11:14Z</time>
      </trkpt>
      <trkpt lat="39.6534060" lon="2.4821520">
        <ele>147.6</ele>
        <time>2021-06-17T12:11:15Z</time>
      </trkpt>
      <trkpt lat="39.6534770" lon="2.4826490">
        <ele>144.2</ele>
        <time>2021-06-17T12:11:22Z</time>
      </trkpt>
      <trkpt lat="39.6535180" lon="2.4830380">
        <ele>143.0</ele>
        <time>2021-06-17T12:11:26Z</time>
      </trkpt>
      <trkpt lat="39.6535260" lon="2.4831360">
        <ele>142.8</ele>
        <time>2021-06-17T12:11:27Z</time>
      </trkpt>
      <trkpt lat="39.6535340" lon="2.4832340">
        <ele>142.6</ele>
        <time>2021-06-17T12:11:28Z</time>
      </trkpt>
      <trkpt lat="39.6535310" lon="2.4833120">
        <ele>142.5</ele>
        <time>2021-06-17T12:11:29Z</time>
      </trkpt>
      <trkpt lat="39.6535060" lon="2.4834190">
        <ele>142.3</ele>
        <time>2021-06-17T12:11:30Z</time>
      </trkpt>
      <trkpt lat="39.6534300" lon="2.4835740">
        <ele>142.1</ele>
        <time>2021-06-17T12:11:32Z</time>
      </trkpt>
      <trkpt lat="39.6534070" lon="2.4837300">
        <ele>142.0</ele>
        <time>2021-06-17T12:11:34Z</time>
      </trkpt>
      <trkpt lat="39.6534590" lon="2.4838600">
        <ele>141.9</ele>
        <time>2021-06-17T12:11:36Z</time>
      </trkpt>
      <trkpt lat="39.6534990" lon="2.4839080">
        <ele>142.0</ele>
        <time>2021-06-17T12:11:37Z</time>
      </trkpt>
      <trkpt lat="39.6535460" lon="2.4839450">
        <ele>142.0</ele>
        <time>2021-06-17T12:11:38Z</time>
      </trkpt>
      <trkpt lat="39.6536530" lon="2.4839790">
        <ele>142.0</ele>
        <time>2021-06-17T12:11:40Z</time>
      </trkpt>
      <trkpt lat="39.6537580" lon="2.4839630">
        <ele>142.1</ele>
        <time>2021-06-17T12:11:42Z</time>
      </trkpt>
      <trkpt lat="39.6538470" lon="2.4839240">
        <ele>142.3</ele>
        <time>2021-06-17T12:11:44Z</time>
      </trkpt>
      <trkpt lat="39.6540880" lon="2.4838230">
        <ele>143.4</ele>
        <time>2021-06-17T12:11:50Z</time>
      </trkpt>
      <trkpt lat="39.6542960" lon="2.4837630">
        <ele>145.2</ele>
        <time>2021-06-17T12:11:57Z</time>
      </trkpt>
      <trkpt lat="39.6544420" lon="2.4837570">
        <ele>146.6</ele>
        <time>2021-06-17T12:12:03Z</time>
      </trkpt>
      <trkpt lat="39.6544490" lon="2.4837570">
        <ele>146.7</ele>
        <time>2021-06-17T12:12:07Z</time>
      </trkpt>
      <trkpt lat="39.6544490" lon="2.4837570">
        <ele>146.7</ele>
        <time>2021-06-17T12:12:15Z</time>
      </trkpt>
      <trkpt lat="39.6544430" lon="2.4837440">
        <ele>146.6</ele>
        <time>2021-06-17T12:12:23Z</time>
      </trkpt>
      <trkpt lat="39.6544430" lon="2.4837440">
        <ele>146.6</ele>
        <time>2021-06-17T12:12:27Z</time>
      </trkpt>
      <trkpt lat="39.6544430" lon="2.4837420">
        <ele>146.6</ele>
        <time>2021-06-17T12:12:31Z</time>
      </trkpt>
      <trkpt lat="39.6544430" lon="2.4837420">
        <ele>146.6</ele>
        <time>2021-06-17T12:12:37Z</time>
      </trkpt>
      <trkpt lat="39.6544430" lon="2.4837380">
        <ele>146.6</ele>
        <time>2021-06-17T12:12:41Z</time>
      </trkpt>
      <trkpt lat="39.6544440" lon="2.4837360">
        <ele>146.6</ele>
        <time>2021-06-17T12:12:49Z</time>
      </trkpt>
      <trkpt lat="39.6544480" lon="2.4837220">
        <ele>146.5</ele>
        <time>2021-06-17T12:12:55Z</time>
      </trkpt>
      <trkpt lat="39.6544480" lon="2.4837160">
        <ele>146.5</ele>
        <time>2021-06-17T12:12:59Z</time>
      </trkpt>
      <trkpt lat="39.6544490" lon="2.4837130">
        <ele>146.5</ele>
        <time>2021-06-17T12:13:06Z</time>
      </trkpt>
      <trkpt lat="39.6544480" lon="2.4837140">
        <ele>146.5</ele>
        <time>2021-06-17T12:13:10Z</time>
      </trkpt>
      <trkpt lat="39.6544460" lon="2.4837170">
        <ele>146.5</ele>
        <time>2021-06-17T12:13:12Z</time>
      </trkpt>
      <trkpt lat="39.6544450" lon="2.4837190">
        <ele>146.5</ele>
        <time>2021-06-17T12:13:13Z</time>
      </trkpt>
      <trkpt lat="39.6544450" lon="2.4837190">
        <ele>146.5</ele>
        <time>2021-06-17T12:13:16Z</time>
      </trkpt>
      <trkpt lat="39.6544450" lon="2.4837190">
        <ele>146.5</ele>
        <time>2021-06-17T12:13:19Z</time>
      </trkpt>
      <trkpt lat="39.6544420" lon="2.4837220">
        <ele>146.5</ele>
        <time>2021-06-17T12:13:23Z</time>
      </trkpt>
      <trkpt lat="39.6544370" lon="2.4837200">
        <ele>146.4</ele>
        <time>2021-06-17T12:13:24Z</time>
      </trkpt>
      <trkpt lat="39.6544370" lon="2.4837210">
        <ele>146.4</ele>
        <time>2021-06-17T12:13:30Z</time>
      </trkpt>
      <trkpt lat="39.6544340" lon="2.4837230">
        <ele>146.4</ele>
        <time>2021-06-17T12:13:37Z</time>
      </trkpt>
      <trkpt lat="39.6544250" lon="2.4837190">
        <ele>146.4</ele>
        <time>2021-06-17T12:13:43Z</time>
      </trkpt>
      <trkpt lat="39.6544250" lon="2.4837210">
        <ele>146.4</ele>
        <time>2021-06-17T12:13:46Z</time>
      </trkpt>
      <trkpt lat="39.6544240" lon="2.4837210">
        <ele>146.4</ele>
        <time>2021-06-17T12:13:50Z</time>
      </trkpt>
      <trkpt lat="39.6544240" lon="2.4837210">
        <ele>146.4</ele>
        <time>2021-06-17T12:13:52Z</time>
      </trkpt>
      <trkpt lat="39.6544240" lon="2.4837210">
        <ele>146.4</ele>
        <time>2021-06-17T12:13:54Z</time>
      </trkpt>
      <trkpt lat="39.6544240" lon="2.4837210">
        <ele>146.4</ele>
        <time>2021-06-17T12:13:55Z</time>
      </trkpt>
      <trkpt lat="39.6544190" lon="2.4837210">
        <ele>146.4</ele>
        <time>2021-06-17T12:13:57Z</time>
      </trkpt>
      <trkpt lat="39.6544190" lon="2.4837240">
        <ele>146.3</ele>
        <time>2021-06-17T12:14:03Z</time>
      </trkpt>
      <trkpt lat="39.6544200" lon="2.4837210">
        <ele>146.3</ele>
        <time>2021-06-17T12:14:05Z</time>
      </trkpt>
      <trkpt lat="39.6544210" lon="2.4837170">
        <ele>146.3</ele>
        <time>2021-06-17T12:14:07Z</time>
      </trkpt>
      <trkpt lat="39.6544280" lon="2.4837000">
        <ele>146.3</ele>
        <time>2021-06-17T12:14:09Z</time>
      </trkpt>
      <trkpt lat="39.6544280" lon="2.4837000">
        <ele>146.3</ele>
        <time>2021-06-17T12:14:12Z</time>
      </trkpt>
      <trkpt lat="39.6544280" lon="2.4837000">
        <ele>146.3</ele>
        <time>2021-06-17T12:14:13Z</time>
      </trkpt>
      <trkpt lat="39.6544280" lon="2.4837000">
        <ele>146.3</ele>
        <time>2021-06-17T12:14:17Z</time>
      </trkpt>
      <trkpt lat="39.6544290" lon="2.4836970">
        <ele>146.2</ele>
        <time>2021-06-17T12:14:21Z</time>
      </trkpt>
      <trkpt lat="39.6544160" lon="2.4836890">
        <ele>146.2</ele>
        <time>2021-06-17T12:14:24Z</time>
      </trkpt>
      <trkpt lat="39.6544030" lon="2.4836890">
        <ele>146.1</ele>
        <time>2021-06-17T12:14:25Z</time>
      </trkpt>
      <trkpt lat="39.6543970" lon="2.4836880">
        <ele>146.1</ele>
        <time>2021-06-17T12:14:31Z</time>
      </trkpt>
      <trkpt lat="39.6543830" lon="2.4836550">
        <ele>146.0</ele>
        <time>2021-06-17T12:14:47Z</time>
      </trkpt>
      <trkpt lat="39.6543830" lon="2.4836550">
        <ele>146.0</ele>
        <time>2021-06-17T12:15:18Z</time>
      </trkpt>
      <trkpt lat="39.6543830" lon="2.4836550">
        <ele>146.0</ele>
        <time>2021-06-17T12:15:20Z</time>
      </trkpt>
      <trkpt lat="39.6543830" lon="2.4836540">
        <ele>146.0</ele>
        <time>2021-06-17T12:15:55Z</time>
      </trkpt>
      <trkpt lat="39.6542830" lon="2.4867660">
        <ele>169.3</ele>
        <time>2021-06-17T14:03:08Z</time>
      </trkpt>
      <trkpt lat="39.6543020" lon="2.4867570">
        <ele>169.4</ele>
        <time>2021-06-17T14:03:09Z</time>
      </trkpt>
      <trkpt lat="39.6543740" lon="2.4867290">
        <ele>169.6</ele>
        <time>2021-06-17T14:03:12Z</time>
      </trkpt>
      <trkpt lat="39.6545150" lon="2.4866430">
        <ele>170.3</ele>
        <time>2021-06-17T14:03:17Z</time>
      </trkpt>
      <trkpt lat="39.6546930" lon="2.4865380">
        <ele>170.9</ele>
        <time>2021-06-17T14:03:24Z</time>
      </trkpt>
      <trkpt lat="39.6549230" lon="2.4864940">
        <ele>171.5</ele>
        <time>2021-06-17T14:03:31Z</time>
      </trkpt>
      <trkpt lat="39.6550730" lon="2.4865340">
        <ele>171.8</ele>
        <time>2021-06-17T14:03:35Z</time>
      </trkpt>
      <trkpt lat="39.6551000" lon="2.4865540">
        <ele>171.9</ele>
        <time>2021-06-17T14:03:36Z</time>
      </trkpt>
      <trkpt lat="39.6553400" lon="2.4867660">
        <ele>171.7</ele>
        <time>2021-06-17T14:03:43Z</time>
      </trkpt>
      <trkpt lat="39.6555490" lon="2.4869510">
        <ele>170.9</ele>
        <time>2021-06-17T14:03:48Z</time>
      </trkpt>
      <trkpt lat="39.6557330" lon="2.4871350">
        <ele>170.1</ele>
        <time>2021-06-17T14:03:52Z</time>
      </trkpt>
      <trkpt lat="39.6558650" lon="2.4872870">
        <ele>169.8</ele>
        <time>2021-06-17T14:03:55Z</time>
      </trkpt>
      <trkpt lat="39.6559120" lon="2.4873370">
        <ele>169.8</ele>
        <time>2021-06-17T14:03:56Z</time>
      </trkpt>
      <trkpt lat="39.6559680" lon="2.4873830">
        <ele>169.7</ele>
        <time>2021-06-17T14:03:57Z</time>
      </trkpt>
      <trkpt lat="39.6560180" lon="2.4874080">
        <ele>169.7</ele>
        <time>2021-06-17T14:03:58Z</time>
      </trkpt>
      <trkpt lat="39.6561080" lon="2.4874140">
        <ele>169.7</ele>
        <time>2021-06-17T14:04:00Z</time>
      </trkpt>
      <trkpt lat="39.6562150" lon="2.4873830">
        <ele>169.7</ele>
        <time>2021-06-17T14:04:02Z</time>
      </trkpt>
      <trkpt lat="39.6563020" lon="2.4873400">
        <ele>169.7</ele>
        <time>2021-06-17T14:04:04Z</time>
      </trkpt>
      <trkpt lat="39.6564520" lon="2.4872330">
        <ele>169.8</ele>
        <time>2021-06-17T14:04:08Z</time>
      </trkpt>
      <trkpt lat="39.6564770" lon="2.4871900">
        <ele>169.9</ele>
        <time>2021-06-17T14:04:09Z</time>
      </trkpt>
      <trkpt lat="39.6564910" lon="2.4871480">
        <ele>169.8</ele>
        <time>2021-06-17T14:04:10Z</time>
      </trkpt>
      <trkpt lat="39.6565390" lon="2.4868670">
        <ele>169.8</ele>
        <time>2021-06-17T14:04:15Z</time>
      </trkpt>
      <trkpt lat="39.6565410" lon="2.4866860">
        <ele>169.8</ele>
        <time>2021-06-17T14:04:17Z</time>
      </trkpt>
      <trkpt lat="39.6565310" lon="2.4864970">
        <ele>169.7</ele>
        <time>2021-06-17T14:04:21Z</time>
      </trkpt>
      <trkpt lat="39.6565390" lon="2.4864180">
        <ele>169.7</ele>
        <time>2021-06-17T14:04:22Z</time>
      </trkpt>
      <trkpt lat="39.6565790" lon="2.4862210">
        <ele>169.7</ele>
        <time>2021-06-17T14:04:25Z</time>
      </trkpt>
      <trkpt lat="39.6566530" lon="2.4859760">
        <ele>169.6</ele>
        <time>2021-06-17T14:04:29Z</time>
      </trkpt>
      <trkpt lat="39.6566860" lon="2.4859230">
        <ele>169.6</ele>
        <time>2021-06-17T14:04:30Z</time>
      </trkpt>
      <trkpt lat="39.6567930" lon="2.4858000">
        <ele>169.5</ele>
        <time>2021-06-17T14:04:33Z</time>
      </trkpt>
      <trkpt lat="39.6569080" lon="2.4857700">
        <ele>169.4</ele>
        <time>2021-06-17T14:04:35Z</time>
      </trkpt>
      <trkpt lat="39.6570020" lon="2.4857810">
        <ele>169.3</ele>
        <time>2021-06-17T14:04:37Z</time>
      </trkpt>
      <trkpt lat="39.6571760" lon="2.4858410">
        <ele>169.3</ele>
        <time>2021-06-17T14:04:40Z</time>
      </trkpt>
      <trkpt lat="39.6576000" lon="2.4860180">
        <ele>169.0</ele>
        <time>2021-06-17T14:04:48Z</time>
      </trkpt>
      <trkpt lat="39.6576580" lon="2.4860240">
        <ele>169.0</ele>
        <time>2021-06-17T14:04:49Z</time>
      </trkpt>
      <trkpt lat="39.6577230" lon="2.4860180">
        <ele>169.0</ele>
        <time>2021-06-17T14:04:50Z</time>
      </trkpt>
      <trkpt lat="39.6578380" lon="2.4859780">
        <ele>168.9</ele>
        <time>2021-06-17T14:04:52Z</time>
      </trkpt>
      <trkpt lat="39.6578830" lon="2.4859540">
        <ele>168.8</ele>
        <time>2021-06-17T14:04:53Z</time>
      </trkpt>
      <trkpt lat="39.6580720" lon="2.4858470">
        <ele>168.4</ele>
        <time>2021-06-17T14:04:56Z</time>
      </trkpt>
      <trkpt lat="39.6581820" lon="2.4858140">
        <ele>168.1</ele>
        <time>2021-06-17T14:04:58Z</time>
      </trkpt>
      <trkpt lat="39.6583860" lon="2.4857850">
        <ele>167.6</ele>
        <time>2021-06-17T14:05:01Z</time>
      </trkpt>
      <trkpt lat="39.6585500" lon="2.4857140">
        <ele>167.5</ele>
        <time>2021-06-17T14:05:04Z</time>
      </trkpt>
      <trkpt lat="39.6586490" lon="2.4856090">
        <ele>167.4</ele>
        <time>2021-06-17T14:05:06Z</time>
      </trkpt>
      <trkpt lat="39.6586680" lon="2.4855470">
        <ele>167.3</ele>
        <time>2021-06-17T14:05:07Z</time>
      </trkpt>
      <trkpt lat="39.6586860" lon="2.4854100">
        <ele>167.3</ele>
        <time>2021-06-17T14:05:09Z</time>
      </trkpt>
      <trkpt lat="39.6586720" lon="2.4852870">
        <ele>167.2</ele>
        <time>2021-06-17T14:05:11Z</time>
      </trkpt>
      <trkpt lat="39.6586440" lon="2.4850710">
        <ele>167.1</ele>
        <time>2021-06-17T14:05:14Z</time>
      </trkpt>
      <trkpt lat="39.6586600" lon="2.4849470">
        <ele>167.1</ele>
        <time>2021-06-17T14:05:16Z</time>
      </trkpt>
      <trkpt lat="39.6586750" lon="2.4848610">
        <ele>167.1</ele>
        <time>2021-06-17T14:05:17Z</time>
      </trkpt>
      <trkpt lat="39.6586890" lon="2.4847870">
        <ele>167.1</ele>
        <time>2021-06-17T14:05:18Z</time>
      </trkpt>
      <trkpt lat="39.6587390" lon="2.4846630">
        <ele>167.1</ele>
        <time>2021-06-17T14:05:20Z</time>
      </trkpt>
      <trkpt lat="39.6587760" lon="2.4845980">
        <ele>167.2</ele>
        <time>2021-06-17T14:05:21Z</time>
      </trkpt>
      <trkpt lat="39.6589360" lon="2.4843450">
        <ele>167.3</ele>
        <time>2021-06-17T14:05:25Z</time>
      </trkpt>
      <trkpt lat="39.6590210" lon="2.4842270">
        <ele>167.3</ele>
        <time>2021-06-17T14:05:27Z</time>
      </trkpt>
      <trkpt lat="39.6591170" lon="2.4841100">
        <ele>167.3</ele>
        <time>2021-06-17T14:05:29Z</time>
      </trkpt>
      <trkpt lat="39.6592130" lon="2.4840270">
        <ele>167.3</ele>
        <time>2021-06-17T14:05:31Z</time>
      </trkpt>
      <trkpt lat="39.6592690" lon="2.4839920">
        <ele>167.2</ele>
        <time>2021-06-17T14:05:32Z</time>
      </trkpt>
      <trkpt lat="39.6593860" lon="2.4839530">
        <ele>167.0</ele>
        <time>2021-06-17T14:05:34Z</time>
      </trkpt>
      <trkpt lat="39.6594510" lon="2.4839550">
        <ele>166.9</ele>
        <time>2021-06-17T14:05:35Z</time>
      </trkpt>
      <trkpt lat="39.6595140" lon="2.4839700">
        <ele>166.8</ele>
        <time>2021-06-17T14:05:36Z</time>
      </trkpt>
      <trkpt lat="39.6596260" lon="2.4840400">
        <ele>166.5</ele>
        <time>2021-06-17T14:05:38Z</time>
      </trkpt>
      <trkpt lat="39.6597310" lon="2.4841330">
        <ele>166.2</ele>
        <time>2021-06-17T14:05:40Z</time>
      </trkpt>
      <trkpt lat="39.6598320" lon="2.4842330">
        <ele>165.9</ele>
        <time>2021-06-17T14:05:42Z</time>
      </trkpt>
      <trkpt lat="39.6599820" lon="2.4843900">
        <ele>165.4</ele>
        <time>2021-06-17T14:05:45Z</time>
      </trkpt>
      <trkpt lat="39.6602770" lon="2.4847260">
        <ele>164.4</ele>
        <time>2021-06-17T14:05:51Z</time>
      </trkpt>
      <trkpt lat="39.6603540" lon="2.4848640">
        <ele>164.2</ele>
        <time>2021-06-17T14:05:53Z</time>
      </trkpt>
      <trkpt lat="39.6604550" lon="2.4850660">
        <ele>164.1</ele>
        <time>2021-06-17T14:05:56Z</time>
      </trkpt>
      <trkpt lat="39.6605160" lon="2.4851960">
        <ele>164.2</ele>
        <time>2021-06-17T14:05:58Z</time>
      </trkpt>
      <trkpt lat="39.6605730" lon="2.4853270">
        <ele>164.6</ele>
        <time>2021-06-17T14:06:00Z</time>
      </trkpt>
      <trkpt lat="39.6606430" lon="2.4855110">
        <ele>165.3</ele>
        <time>2021-06-17T14:06:03Z</time>
      </trkpt>
      <trkpt lat="39.6607060" lon="2.4856670">
        <ele>166.1</ele>
        <time>2021-06-17T14:06:06Z</time>
      </trkpt>
      <trkpt lat="39.6607470" lon="2.4857340">
        <ele>166.6</ele>
        <time>2021-06-17T14:06:08Z</time>
      </trkpt>
      <trkpt lat="39.6608850" lon="2.4858240">
        <ele>167.6</ele>
        <time>2021-06-17T14:06:12Z</time>
      </trkpt>
      <trkpt lat="39.6609540" lon="2.4858330">
        <ele>168.1</ele>
        <time>2021-06-17T14:06:13Z</time>
      </trkpt>
      <trkpt lat="39.6612260" lon="2.4858780">
        <ele>169.8</ele>
        <time>2021-06-17T14:06:21Z</time>
      </trkpt>
      <trkpt lat="39.6613360" lon="2.4859450">
        <ele>170.4</ele>
        <time>2021-06-17T14:06:24Z</time>
      </trkpt>
      <trkpt lat="39.6615230" lon="2.4860430">
        <ele>171.4</ele>
        <time>2021-06-17T14:06:29Z</time>
      </trkpt>
      <trkpt lat="39.6617200" lon="2.4861430">
        <ele>172.2</ele>
        <time>2021-06-17T14:06:35Z</time>
      </trkpt>
      <trkpt lat="39.6617470" lon="2.4861520">
        <ele>172.3</ele>
        <time>2021-06-17T14:06:36Z</time>
      </trkpt>
      <trkpt lat="39.6617700" lon="2.4861550">
        <ele>172.4</ele>
        <time>2021-06-17T14:06:37Z</time>
      </trkpt>
      <trkpt lat="39.6618060" lon="2.4861500">
        <ele>172.5</ele>
        <time>2021-06-17T14:06:39Z</time>
      </trkpt>
      <trkpt lat="39.6618350" lon="2.4861510">
        <ele>172.6</ele>
        <time>2021-06-17T14:06:41Z</time>
      </trkpt>
      <trkpt lat="39.6618400" lon="2.4861520">
        <ele>172.6</ele>
        <time>2021-06-17T14:06:47Z</time>
      </trkpt>
      <trkpt lat="39.6618400" lon="2.4861520">
        <ele>172.6</ele>
        <time>2021-06-17T14:06:57Z</time>
      </trkpt>
      <trkpt lat="39.6618400" lon="2.4861520">
        <ele>172.6</ele>
        <time>2021-06-17T14:07:04Z</time>
      </trkpt>
      <trkpt lat="39.6618400" lon="2.4861520">
        <ele>172.6</ele>
        <time>2021-06-17T14:07:15Z</time>
      </trkpt>
      <trkpt lat="39.6618400" lon="2.4861520">
        <ele>172.6</ele>
        <time>2021-06-17T14:07:17Z</time>
      </trkpt>
      <trkpt lat="39.6618400" lon="2.4861520">
        <ele>172.6</ele>
        <time>2021-06-17T14:07:18Z</time>
      </trkpt>
      <trkpt lat="39.6618400" lon="2.4861520">
        <ele>172.6</ele>
        <time>2021-06-17T14:07:19Z</time>
      </trkpt>
      <trkpt lat="39.6618400" lon="2.4861520">
        <ele>172.6</ele>
        <time>2021-06-17T14:07:36Z</time>
      </trkpt>
      <trkpt lat="39.6618380" lon="2.4861510">
        <ele>172.6</ele>
        <time>2021-06-17T14:07:45Z</time>
      </trkpt>
      <trkpt lat="39.6618370" lon="2.4861510">
        <ele>172.6</ele>
        <time>2021-06-17T14:07:49Z</time>
      </trkpt>
      <trkpt lat="39.6618370" lon="2.4861510">
        <ele>172.6</ele>
        <time>2021-06-17T14:07:56Z</time>
      </trkpt>
      <trkpt lat="39.6618370" lon="2.4861510">
        <ele>172.6</ele>
        <time>2021-06-17T14:08:09Z</time>
      </trkpt>
      <trkpt lat="39.6618370" lon="2.4861510">
        <ele>172.6</ele>
        <time>2021-06-17T14:08:19Z</time>
      </trkpt>
      <trkpt lat="39.6618370" lon="2.4861510">
        <ele>172.6</ele>
        <time>2021-06-17T14:08:23Z</time>
      </trkpt>
      <trkpt lat="39.6618370" lon="2.4861510">
        <ele>172.6</ele>
        <time>2021-06-17T14:08:25Z</time>
      </trkpt>
      <trkpt lat="39.6618370" lon="2.4861510">
        <ele>172.6</ele>
        <time>2021-06-17T14:08:28Z</time>
      </trkpt>
      <trkpt lat="39.6618370" lon="2.4861490">
        <ele>172.6</ele>
        <time>2021-06-17T14:08:39Z</time>
      </trkpt>
      <trkpt lat="39.6618350" lon="2.4861460">
        <ele>172.6</ele>
        <time>2021-06-17T14:08:43Z</time>
      </trkpt>
      <trkpt lat="39.6618360" lon="2.4861440">
        <ele>172.6</ele>
        <time>2021-06-17T14:08:56Z</time>
      </trkpt>
      <trkpt lat="39.6618400" lon="2.4861380">
        <ele>172.6</ele>
        <time>2021-06-17T14:09:02Z</time>
      </trkpt>
      <trkpt lat="39.6618400" lon="2.4861380">
        <ele>172.6</ele>
        <time>2021-06-17T14:09:05Z</time>
      </trkpt>
      <trkpt lat="39.6618440" lon="2.4861330">
        <ele>172.7</ele>
        <time>2021-06-17T14:09:09Z</time>
      </trkpt>
      <trkpt lat="39.6618440" lon="2.4861330">
        <ele>172.7</ele>
        <time>2021-06-17T14:09:13Z</time>
      </trkpt>
      <trkpt lat="39.6618440" lon="2.4861330">
        <ele>172.7</ele>
        <time>2021-06-17T14:09:16Z</time>
      </trkpt>
      <trkpt lat="39.6618440" lon="2.4861330">
        <ele>172.7</ele>
        <time>2021-06-17T14:09:17Z</time>
      </trkpt>
      <trkpt lat="39.6618440" lon="2.4861330">
        <ele>172.7</ele>
        <time>2021-06-17T14:09:18Z</time>
      </trkpt>
      <trkpt lat="39.6618460" lon="2.4861300">
        <ele>172.7</ele>
        <time>2021-06-17T14:09:22Z</time>
      </trkpt>
      <trkpt lat="39.6618460" lon="2.4861300">
        <ele>172.7</ele>
        <time>2021-06-17T14:09:25Z</time>
      </trkpt>
      <trkpt lat="39.6618410" lon="2.4861330">
        <ele>172.7</ele>
        <time>2021-06-17T14:09:36Z</time>
      </trkpt>
      <trkpt lat="39.6618410" lon="2.4861330">
        <ele>172.7</ele>
        <time>2021-06-17T14:09:39Z</time>
      </trkpt>
      <trkpt lat="39.6618410" lon="2.4861330">
        <ele>172.7</ele>
        <time>2021-06-17T14:10:03Z</time>
      </trkpt>
      <trkpt lat="39.6618410" lon="2.4861330">
        <ele>172.7</ele>
        <time>2021-06-17T14:10:27Z</time>
      </trkpt>
      <trkpt lat="39.6618410" lon="2.4861330">
        <ele>172.7</ele>
        <time>2021-06-17T14:10:33Z</time>
      </trkpt>
      <trkpt lat="39.6618410" lon="2.4861330">
        <ele>172.7</ele>
        <time>2021-06-17T14:10:41Z</time>
      </trkpt>
      <trkpt lat="39.6618410" lon="2.4861330">
        <ele>172.7</ele>
        <time>2021-06-17T14:10:46Z</time>
      </trkpt>
      <trkpt lat="39.6618410" lon="2.4861330">
        <ele>172.7</ele>
        <time>2021-06-17T14:10:51Z</time>
      </trkpt>
      <trkpt lat="39.6618410" lon="2.4861330">
        <ele>172.7</ele>
        <time>2021-06-17T14:10:53Z</time>
      </trkpt>
      <trkpt lat="39.6618410" lon="2.4861330">
        <ele>172.7</ele>
        <time>2021-06-17T14:10:58Z</time>
      </trkpt>
      <trkpt lat="39.6618410" lon="2.4861330">
        <ele>172.7</ele>
        <time>2021-06-17T14:11:00Z</time>
      </trkpt>
      <trkpt lat="39.6618410" lon="2.4861330">
        <ele>172.7</ele>
        <time>2021-06-17T14:11:03Z</time>
      </trkpt>
      <trkpt lat="39.6618410" lon="2.4861330">
        <ele>172.7</ele>
        <time>2021-06-17T14:11:05Z</time>
      </trkpt>
      <trkpt lat="39.6618410" lon="2.4861330">
        <ele>172.7</ele>
        <time>2021-06-17T14:11:07Z</time>
      </trkpt>
      <trkpt lat="39.6618410" lon="2.4861330">
        <ele>172.7</ele>
        <time>2021-06-17T14:11:26Z</time>
      </trkpt>
      <trkpt lat="39.6618420" lon="2.4861580">
        <ele>172.7</ele>
        <time>2021-06-17T14:11:43Z</time>
      </trkpt>
      <trkpt lat="39.6618550" lon="2.4862070">
        <ele>172.9</ele>
        <time>2021-06-17T14:11:45Z</time>
      </trkpt>
      <trkpt lat="39.6619180" lon="2.4863560">
        <ele>173.3</ele>
        <time>2021-06-17T14:11:51Z</time>
      </trkpt>
      <trkpt lat="39.6619750" lon="2.4865120">
        <ele>173.9</ele>
        <time>2021-06-17T14:11:56Z</time>
      </trkpt>
      <trkpt lat="39.6620040" lon="2.4865820">
        <ele>174.2</ele>
        <time>2021-06-17T14:11:58Z</time>
      </trkpt>
      <trkpt lat="39.6620310" lon="2.4866460">
        <ele>174.6</ele>
        <time>2021-06-17T14:12:00Z</time>
      </trkpt>
      <trkpt lat="39.6620410" lon="2.4866720">
        <ele>174.7</ele>
        <time>2021-06-17T14:12:01Z</time>
      </trkpt>
      <trkpt lat="39.6620800" lon="2.4867710">
        <ele>175.2</ele>
        <time>2021-06-17T14:12:04Z</time>
      </trkpt>
      <trkpt lat="39.6620970" lon="2.4868040">
        <ele>175.4</ele>
        <time>2021-06-17T14:12:05Z</time>
      </trkpt>
      <trkpt lat="39.6621320" lon="2.4869020">
        <ele>176.0</ele>
        <time>2021-06-17T14:12:07Z</time>
      </trkpt>
      <trkpt lat="39.6621730" lon="2.4870390">
        <ele>176.7</ele>
        <time>2021-06-17T14:12:12Z</time>
      </trkpt>
      <trkpt lat="39.6621950" lon="2.4871490">
        <ele>177.1</ele>
        <time>2021-06-17T14:12:15Z</time>
      </trkpt>
      <trkpt lat="39.6622010" lon="2.4872250">
        <ele>177.4</ele>
        <time>2021-06-17T14:12:17Z</time>
      </trkpt>
      <trkpt lat="39.6622010" lon="2.4873110">
        <ele>177.7</ele>
        <time>2021-06-17T14:12:19Z</time>
      </trkpt>
      <trkpt lat="39.6621880" lon="2.4874270">
        <ele>178.1</ele>
        <time>2021-06-17T14:12:22Z</time>
      </trkpt>
      <trkpt lat="39.6621900" lon="2.4875070">
        <ele>178.3</ele>
        <time>2021-06-17T14:12:24Z</time>
      </trkpt>
      <trkpt lat="39.6621900" lon="2.4875520">
        <ele>178.4</ele>
        <time>2021-06-17T14:12:25Z</time>
      </trkpt>
      <trkpt lat="39.6622010" lon="2.4877960">
        <ele>178.9</ele>
        <time>2021-06-17T14:12:30Z</time>
      </trkpt>
      <trkpt lat="39.6622620" lon="2.4880070">
        <ele>179.4</ele>
        <time>2021-06-17T14:12:35Z</time>
      </trkpt>
      <trkpt lat="39.6624530" lon="2.4881410">
        <ele>180.4</ele>
        <time>2021-06-17T14:12:41Z</time>
      </trkpt>
      <trkpt lat="39.6625990" lon="2.4881090">
        <ele>181.3</ele>
        <time>2021-06-17T14:12:46Z</time>
      </trkpt>
      <trkpt lat="39.6627610" lon="2.4879980">
        <ele>182.5</ele>
        <time>2021-06-17T14:12:52Z</time>
      </trkpt>
      <trkpt lat="39.6628780" lon="2.4878830">
        <ele>183.5</ele>
        <time>2021-06-17T14:12:56Z</time>
      </trkpt>
      <trkpt lat="39.6631030" lon="2.4876590">
        <ele>185.3</ele>
        <time>2021-06-17T14:13:04Z</time>
      </trkpt>
      <trkpt lat="39.6634220" lon="2.4873430">
        <ele>187.6</ele>
        <time>2021-06-17T14:13:15Z</time>
      </trkpt>
      <trkpt lat="39.6636290" lon="2.4871340">
        <ele>189.1</ele>
        <time>2021-06-17T14:13:22Z</time>
      </trkpt>
      <trkpt lat="39.6636520" lon="2.4870990">
        <ele>189.3</ele>
        <time>2021-06-17T14:13:23Z</time>
      </trkpt>
      <trkpt lat="39.6637430" lon="2.4868290">
        <ele>190.1</ele>
        <time>2021-06-17T14:13:29Z</time>
      </trkpt>
      <trkpt lat="39.6637890" lon="2.4864900">
        <ele>190.4</ele>
        <time>2021-06-17T14:13:35Z</time>
      </trkpt>
      <trkpt lat="39.6638210" lon="2.4863920">
        <ele>190.4</ele>
        <time>2021-06-17T14:13:37Z</time>
      </trkpt>
      <trkpt lat="39.6639100" lon="2.4862500">
        <ele>190.0</ele>
        <time>2021-06-17T14:13:40Z</time>
      </trkpt>
      <trkpt lat="39.6639500" lon="2.4862000">
        <ele>189.8</ele>
        <time>2021-06-17T14:13:41Z</time>
      </trkpt>
      <trkpt lat="39.6640470" lon="2.4861130">
        <ele>189.3</ele>
        <time>2021-06-17T14:13:43Z</time>
      </trkpt>
      <trkpt lat="39.6641100" lon="2.4860850">
        <ele>189.1</ele>
        <time>2021-06-17T14:13:44Z</time>
      </trkpt>
      <trkpt lat="39.6644540" lon="2.4859770">
        <ele>187.7</ele>
        <time>2021-06-17T14:13:49Z</time>
      </trkpt>
      <trkpt lat="39.6645260" lon="2.4859550">
        <ele>187.5</ele>
        <time>2021-06-17T14:13:50Z</time>
      </trkpt>
      <trkpt lat="39.6646920" lon="2.4859360">
        <ele>186.7</ele>
        <time>2021-06-17T14:13:52Z</time>
      </trkpt>
      <trkpt lat="39.6647550" lon="2.4859530">
        <ele>186.3</ele>
        <time>2021-06-17T14:13:53Z</time>
      </trkpt>
      <trkpt lat="39.6648330" lon="2.4859910">
        <ele>185.8</ele>
        <time>2021-06-17T14:13:54Z</time>
      </trkpt>
      <trkpt lat="39.6649640" lon="2.4861370">
        <ele>184.6</ele>
        <time>2021-06-17T14:13:56Z</time>
      </trkpt>
      <trkpt lat="39.6650690" lon="2.4863420">
        <ele>183.3</ele>
        <time>2021-06-17T14:13:58Z</time>
      </trkpt>
      <trkpt lat="39.6651800" lon="2.4865440">
        <ele>182.0</ele>
        <time>2021-06-17T14:14:00Z</time>
      </trkpt>
      <trkpt lat="39.6653070" lon="2.4867380">
        <ele>180.9</ele>
        <time>2021-06-17T14:14:02Z</time>
      </trkpt>
      <trkpt lat="39.6653760" lon="2.4868240">
        <ele>180.5</ele>
        <time>2021-06-17T14:14:03Z</time>
      </trkpt>
      <trkpt lat="39.6655350" lon="2.4869510">
        <ele>179.7</ele>
        <time>2021-06-17T14:14:05Z</time>
      </trkpt>
      <trkpt lat="39.6656190" lon="2.4869780">
        <ele>179.4</ele>
        <time>2021-06-17T14:14:06Z</time>
      </trkpt>
      <trkpt lat="39.6657000" lon="2.4869730">
        <ele>179.0</ele>
        <time>2021-06-17T14:14:07Z</time>
      </trkpt>
      <trkpt lat="39.6657860" lon="2.4869370">
        <ele>178.6</ele>
        <time>2021-06-17T14:14:08Z</time>
      </trkpt>
      <trkpt lat="39.6659450" lon="2.4868110">
        <ele>177.8</ele>
        <time>2021-06-17T14:14:10Z</time>
      </trkpt>
      <trkpt lat="39.6661190" lon="2.4867360">
        <ele>177.0</ele>
        <time>2021-06-17T14:14:12Z</time>
      </trkpt>
      <trkpt lat="39.6662100" lon="2.4867320">
        <ele>176.5</ele>
        <time>2021-06-17T14:14:13Z</time>
      </trkpt>
      <trkpt lat="39.6663080" lon="2.4867510">
        <ele>175.9</ele>
        <time>2021-06-17T14:14:14Z</time>
      </trkpt>
      <trkpt lat="39.6665130" lon="2.4868160">
        <ele>174.6</ele>
        <time>2021-06-17T14:14:16Z</time>
      </trkpt>
      <trkpt lat="39.6666190" lon="2.4868410">
        <ele>174.1</ele>
        <time>2021-06-17T14:14:17Z</time>
      </trkpt>
      <trkpt lat="39.6669410" lon="2.4868430">
        <ele>172.3</ele>
        <time>2021-06-17T14:14:20Z</time>
      </trkpt>
      <trkpt lat="39.6670410" lon="2.4868560">
        <ele>171.7</ele>
        <time>2021-06-17T14:14:21Z</time>
      </trkpt>
      <trkpt lat="39.6671410" lon="2.4868930">
        <ele>171.0</ele>
        <time>2021-06-17T14:14:22Z</time>
      </trkpt>
      <trkpt lat="39.6672400" lon="2.4869470">
        <ele>170.4</ele>
        <time>2021-06-17T14:14:23Z</time>
      </trkpt>
      <trkpt lat="39.6673370" lon="2.4870040">
        <ele>169.9</ele>
        <time>2021-06-17T14:14:24Z</time>
      </trkpt>
      <trkpt lat="39.6674250" lon="2.4870680">
        <ele>169.4</ele>
        <time>2021-06-17T14:14:25Z</time>
      </trkpt>
      <trkpt lat="39.6675830" lon="2.4871710">
        <ele>168.5</ele>
        <time>2021-06-17T14:14:27Z</time>
      </trkpt>
      <trkpt lat="39.6677330" lon="2.4871630">
        <ele>167.7</ele>
        <time>2021-06-17T14:14:29Z</time>
      </trkpt>
      <trkpt lat="39.6678010" lon="2.4871130">
        <ele>167.2</ele>
        <time>2021-06-17T14:14:30Z</time>
      </trkpt>
      <trkpt lat="39.6678660" lon="2.4870420">
        <ele>166.6</ele>
        <time>2021-06-17T14:14:31Z</time>
      </trkpt>
      <trkpt lat="39.6679270" lon="2.4869590">
        <ele>165.9</ele>
        <time>2021-06-17T14:14:32Z</time>
      </trkpt>
      <trkpt lat="39.6679910" lon="2.4868820">
        <ele>165.1</ele>
        <time>2021-06-17T14:14:33Z</time>
      </trkpt>
      <trkpt lat="39.6681660" lon="2.4868010">
        <ele>163.5</ele>
        <time>2021-06-17T14:14:35Z</time>
      </trkpt>
      <trkpt lat="39.6685890" lon="2.4867260">
        <ele>160.3</ele>
        <time>2021-06-17T14:14:39Z</time>
      </trkpt>
      <trkpt lat="39.6688970" lon="2.4865720">
        <ele>158.8</ele>
        <time>2021-06-17T14:14:42Z</time>
      </trkpt>
      <trkpt lat="39.6691010" lon="2.4864870">
        <ele>157.8</ele>
        <time>2021-06-17T14:14:44Z</time>
      </trkpt>
      <trkpt lat="39.6695730" lon="2.4863060">
        <ele>155.4</ele>
        <time>2021-06-17T14:14:49Z</time>
      </trkpt>
      <trkpt lat="39.6697400" lon="2.4863520">
        <ele>154.1</ele>
        <time>2021-06-17T14:14:51Z</time>
      </trkpt>
      <trkpt lat="39.6698030" lon="2.4864340">
        <ele>153.3</ele>
        <time>2021-06-17T14:14:52Z</time>
      </trkpt>
      <trkpt lat="39.6698500" lon="2.4865300">
        <ele>152.6</ele>
        <time>2021-06-17T14:14:53Z</time>
      </trkpt>
      <trkpt lat="39.6699040" lon="2.4867640">
        <ele>151.4</ele>
        <time>2021-06-17T14:14:55Z</time>
      </trkpt>
      <trkpt lat="39.6699140" lon="2.4870130">
        <ele>150.6</ele>
        <time>2021-06-17T14:14:57Z</time>
      </trkpt>
      <trkpt lat="39.6699010" lon="2.4872550">
        <ele>150.1</ele>
        <time>2021-06-17T14:14:59Z</time>
      </trkpt>
      <trkpt lat="39.6698480" lon="2.4877200">
        <ele>149.3</ele>
        <time>2021-06-17T14:15:03Z</time>
      </trkpt>
      <trkpt lat="39.6698080" lon="2.4878370">
        <ele>149.1</ele>
        <time>2021-06-17T14:15:04Z</time>
      </trkpt>
      <trkpt lat="39.6696670" lon="2.4880880">
        <ele>148.7</ele>
        <time>2021-06-17T14:15:07Z</time>
      </trkpt>
      <trkpt lat="39.6696300" lon="2.4881740">
        <ele>148.6</ele>
        <time>2021-06-17T14:15:08Z</time>
      </trkpt>
      <trkpt lat="39.6696070" lon="2.4882680">
        <ele>148.5</ele>
        <time>2021-06-17T14:15:09Z</time>
      </trkpt>
      <trkpt lat="39.6696250" lon="2.4884600">
        <ele>148.3</ele>
        <time>2021-06-17T14:15:11Z</time>
      </trkpt>
      <trkpt lat="39.6697010" lon="2.4886140">
        <ele>148.1</ele>
        <time>2021-06-17T14:15:13Z</time>
      </trkpt>
      <trkpt lat="39.6697480" lon="2.4886890">
        <ele>148.0</ele>
        <time>2021-06-17T14:15:14Z</time>
      </trkpt>
      <trkpt lat="39.6698030" lon="2.4887640">
        <ele>148.0</ele>
        <time>2021-06-17T14:15:15Z</time>
      </trkpt>
      <trkpt lat="39.6699440" lon="2.4889900">
        <ele>147.7</ele>
        <time>2021-06-17T14:15:18Z</time>
      </trkpt>
      <trkpt lat="39.6699640" lon="2.4890810">
        <ele>147.6</ele>
        <time>2021-06-17T14:15:19Z</time>
      </trkpt>
      <trkpt lat="39.6699610" lon="2.4891780">
        <ele>147.5</ele>
        <time>2021-06-17T14:15:20Z</time>
      </trkpt>
      <trkpt lat="39.6699160" lon="2.4893700">
        <ele>147.3</ele>
        <time>2021-06-17T14:15:22Z</time>
      </trkpt>
      <trkpt lat="39.6698450" lon="2.4896360">
        <ele>147.5</ele>
        <time>2021-06-17T14:15:25Z</time>
      </trkpt>
      <trkpt lat="39.6698550" lon="2.4898050">
        <ele>147.9</ele>
        <time>2021-06-17T14:15:27Z</time>
      </trkpt>
      <trkpt lat="39.6699300" lon="2.4899520">
        <ele>148.5</ele>
        <time>2021-06-17T14:15:29Z</time>
      </trkpt>
      <trkpt lat="39.6699720" lon="2.4899980">
        <ele>148.7</ele>
        <time>2021-06-17T14:15:30Z</time>
      </trkpt>
      <trkpt lat="39.6700210" lon="2.4900290">
        <ele>149.0</ele>
        <time>2021-06-17T14:15:31Z</time>
      </trkpt>
      <trkpt lat="39.6701490" lon="2.4900880">
        <ele>149.8</ele>
        <time>2021-06-17T14:15:34Z</time>
      </trkpt>
      <trkpt lat="39.6701930" lon="2.4901060">
        <ele>150.1</ele>
        <time>2021-06-17T14:15:35Z</time>
      </trkpt>
      <trkpt lat="39.6703370" lon="2.4902000">
        <ele>151.5</ele>
        <time>2021-06-17T14:15:40Z</time>
      </trkpt>
      <trkpt lat="39.6703660" lon="2.4902110">
        <ele>151.8</ele>
        <time>2021-06-17T14:15:41Z</time>
      </trkpt>
      <trkpt lat="39.6705370" lon="2.4903200">
        <ele>154.1</ele>
        <time>2021-06-17T14:15:48Z</time>
      </trkpt>
      <trkpt lat="39.6706090" lon="2.4903680">
        <ele>155.1</ele>
        <time>2021-06-17T14:15:51Z</time>
      </trkpt>
      <trkpt lat="39.6706570" lon="2.4904100">
        <ele>155.8</ele>
        <time>2021-06-17T14:15:53Z</time>
      </trkpt>
      <trkpt lat="39.6706820" lon="2.4904590">
        <ele>156.4</ele>
        <time>2021-06-17T14:15:55Z</time>
      </trkpt>
      <trkpt lat="39.6706780" lon="2.4905440">
        <ele>157.2</ele>
        <time>2021-06-17T14:15:57Z</time>
      </trkpt>
      <trkpt lat="39.6706570" lon="2.4905990">
        <ele>157.7</ele>
        <time>2021-06-17T14:15:59Z</time>
      </trkpt>
      <trkpt lat="39.6706350" lon="2.4906540">
        <ele>158.1</ele>
        <time>2021-06-17T14:16:02Z</time>
      </trkpt>
      <trkpt lat="39.6706280" lon="2.4907140">
        <ele>158.5</ele>
        <time>2021-06-17T14:16:04Z</time>
      </trkpt>
      <trkpt lat="39.6706300" lon="2.4907510">
        <ele>158.8</ele>
        <time>2021-06-17T14:16:05Z</time>
      </trkpt>
      <trkpt lat="39.6706290" lon="2.4907880">
        <ele>159.0</ele>
        <time>2021-06-17T14:16:06Z</time>
      </trkpt>
      <trkpt lat="39.6706260" lon="2.4908250">
        <ele>159.2</ele>
        <time>2021-06-17T14:16:07Z</time>
      </trkpt>
      <trkpt lat="39.6706270" lon="2.4908590">
        <ele>159.5</ele>
        <time>2021-06-17T14:16:08Z</time>
      </trkpt>
      <trkpt lat="39.6706370" lon="2.4909130">
        <ele>159.8</ele>
        <time>2021-06-17T14:16:10Z</time>
      </trkpt>
      <trkpt lat="39.6706420" lon="2.4909660">
        <ele>160.1</ele>
        <time>2021-06-17T14:16:12Z</time>
      </trkpt>
      <trkpt lat="39.6706520" lon="2.4910060">
        <ele>160.4</ele>
        <time>2021-06-17T14:16:13Z</time>
      </trkpt>
      <trkpt lat="39.6707450" lon="2.4912240">
        <ele>161.9</ele>
        <time>2021-06-17T14:16:20Z</time>
      </trkpt>
      <trkpt lat="39.6707730" lon="2.4913980">
        <ele>162.9</ele>
        <time>2021-06-17T14:16:25Z</time>
      </trkpt>
      <trkpt lat="39.6707940" lon="2.4915750">
        <ele>163.9</ele>
        <time>2021-06-17T14:16:30Z</time>
      </trkpt>
      <trkpt lat="39.6707820" lon="2.4916810">
        <ele>164.6</ele>
        <time>2021-06-17T14:16:33Z</time>
      </trkpt>
      <trkpt lat="39.6707630" lon="2.4918640">
        <ele>165.6</ele>
        <time>2021-06-17T14:16:38Z</time>
      </trkpt>
      <trkpt lat="39.6707580" lon="2.4919010">
        <ele>165.9</ele>
        <time>2021-06-17T14:16:39Z</time>
      </trkpt>
      <trkpt lat="39.6707480" lon="2.4920100">
        <ele>166.5</ele>
        <time>2021-06-17T14:16:42Z</time>
      </trkpt>
      <trkpt lat="39.6707770" lon="2.4921540">
        <ele>167.2</ele>
        <time>2021-06-17T14:16:46Z</time>
      </trkpt>
      <trkpt lat="39.6708900" lon="2.4923170">
        <ele>168.1</ele>
        <time>2021-06-17T14:16:52Z</time>
      </trkpt>
      <trkpt lat="39.6710890" lon="2.4924290">
        <ele>169.2</ele>
        <time>2021-06-17T14:16:59Z</time>
      </trkpt>
      <trkpt lat="39.6712960" lon="2.4925160">
        <ele>169.9</ele>
        <time>2021-06-17T14:17:05Z</time>
      </trkpt>
      <trkpt lat="39.6713620" lon="2.4925530">
        <ele>170.1</ele>
        <time>2021-06-17T14:17:07Z</time>
      </trkpt>
      <trkpt lat="39.6714650" lon="2.4926230">
        <ele>170.4</ele>
        <time>2021-06-17T14:17:10Z</time>
      </trkpt>
      <trkpt lat="39.6716050" lon="2.4927160">
        <ele>170.8</ele>
        <time>2021-06-17T14:17:14Z</time>
      </trkpt>
      <trkpt lat="39.6717310" lon="2.4927790">
        <ele>171.1</ele>
        <time>2021-06-17T14:17:17Z</time>
      </trkpt>
      <trkpt lat="39.6718820" lon="2.4928970">
        <ele>171.5</ele>
        <time>2021-06-17T14:17:21Z</time>
      </trkpt>
      <trkpt lat="39.6721510" lon="2.4931760">
        <ele>172.3</ele>
        <time>2021-06-17T14:17:29Z</time>
      </trkpt>
      <trkpt lat="39.6724220" lon="2.4934800">
        <ele>173.6</ele>
        <time>2021-06-17T14:17:37Z</time>
      </trkpt>
      <trkpt lat="39.6725350" lon="2.4936350">
        <ele>174.4</ele>
        <time>2021-06-17T14:17:41Z</time>
      </trkpt>
      <trkpt lat="39.6725810" lon="2.4937150">
        <ele>174.8</ele>
        <time>2021-06-17T14:17:43Z</time>
      </trkpt>
      <trkpt lat="39.6726170" lon="2.4938040">
        <ele>175.2</ele>
        <time>2021-06-17T14:17:45Z</time>
      </trkpt>
      <trkpt lat="39.6726000" lon="2.4940120">
        <ele>175.8</ele>
        <time>2021-06-17T14:17:49Z</time>
      </trkpt>
      <trkpt lat="39.6724700" lon="2.4944170">
        <ele>176.7</ele>
        <time>2021-06-17T14:17:57Z</time>
      </trkpt>
      <trkpt lat="39.6724620" lon="2.4944750">
        <ele>176.7</ele>
        <time>2021-06-17T14:17:58Z</time>
      </trkpt>
      <trkpt lat="39.6723650" lon="2.4948810">
        <ele>176.8</ele>
        <time>2021-06-17T14:18:05Z</time>
      </trkpt>
      <trkpt lat="39.6723490" lon="2.4949460">
        <ele>176.8</ele>
        <time>2021-06-17T14:18:06Z</time>
      </trkpt>
      <trkpt lat="39.6723250" lon="2.4950990">
        <ele>176.4</ele>
        <time>2021-06-17T14:18:08Z</time>
      </trkpt>
      <trkpt lat="39.6723130" lon="2.4952660">
        <ele>176.0</ele>
        <time>2021-06-17T14:18:10Z</time>
      </trkpt>
      <trkpt lat="39.6723000" lon="2.4955420">
        <ele>175.4</ele>
        <time>2021-06-17T14:18:13Z</time>
      </trkpt>
      <trkpt lat="39.6722880" lon="2.4956350">
        <ele>175.2</ele>
        <time>2021-06-17T14:18:14Z</time>
      </trkpt>
      <trkpt lat="39.6722700" lon="2.4957240">
        <ele>175.1</ele>
        <time>2021-06-17T14:18:15Z</time>
      </trkpt>
      <trkpt lat="39.6721290" lon="2.4961380">
        <ele>174.5</ele>
        <time>2021-06-17T14:18:20Z</time>
      </trkpt>
      <trkpt lat="39.6720930" lon="2.4962140">
        <ele>174.5</ele>
        <time>2021-06-17T14:18:21Z</time>
      </trkpt>
      <trkpt lat="39.6720300" lon="2.4963530">
        <ele>174.6</ele>
        <time>2021-06-17T14:18:23Z</time>
      </trkpt>
      <trkpt lat="39.6720150" lon="2.4964880">
        <ele>174.7</ele>
        <time>2021-06-17T14:18:25Z</time>
      </trkpt>
      <trkpt lat="39.6720480" lon="2.4966140">
        <ele>174.8</ele>
        <time>2021-06-17T14:18:27Z</time>
      </trkpt>
      <trkpt lat="39.6720850" lon="2.4966700">
        <ele>174.8</ele>
        <time>2021-06-17T14:18:28Z</time>
      </trkpt>
      <trkpt lat="39.6721500" lon="2.4967950">
        <ele>174.8</ele>
        <time>2021-06-17T14:18:30Z</time>
      </trkpt>
      <trkpt lat="39.6721640" lon="2.4968850">
        <ele>174.8</ele>
        <time>2021-06-17T14:18:31Z</time>
      </trkpt>
      <trkpt lat="39.6721660" lon="2.4969670">
        <ele>174.9</ele>
        <time>2021-06-17T14:18:32Z</time>
      </trkpt>
      <trkpt lat="39.6721330" lon="2.4973510">
        <ele>175.2</ele>
        <time>2021-06-17T14:18:37Z</time>
      </trkpt>
      <trkpt lat="39.6721350" lon="2.4974300">
        <ele>175.3</ele>
        <time>2021-06-17T14:18:38Z</time>
      </trkpt>
      <trkpt lat="39.6721570" lon="2.4975840">
        <ele>175.5</ele>
        <time>2021-06-17T14:18:40Z</time>
      </trkpt>
      <trkpt lat="39.6721780" lon="2.4976610">
        <ele>175.6</ele>
        <time>2021-06-17T14:18:41Z</time>
      </trkpt>
      <trkpt lat="39.6722000" lon="2.4977350">
        <ele>175.7</ele>
        <time>2021-06-17T14:18:42Z</time>
      </trkpt>
      <trkpt lat="39.6722740" lon="2.4978650">
        <ele>175.7</ele>
        <time>2021-06-17T14:18:44Z</time>
      </trkpt>
      <trkpt lat="39.6723180" lon="2.4978990">
        <ele>175.7</ele>
        <time>2021-06-17T14:18:45Z</time>
      </trkpt>
      <trkpt lat="39.6723650" lon="2.4979080">
        <ele>175.7</ele>
        <time>2021-06-17T14:18:46Z</time>
      </trkpt>
      <trkpt lat="39.6724710" lon="2.4978630">
        <ele>175.6</ele>
        <time>2021-06-17T14:18:48Z</time>
      </trkpt>
      <trkpt lat="39.6727030" lon="2.4977430">
        <ele>175.2</ele>
        <time>2021-06-17T14:18:52Z</time>
      </trkpt>
      <trkpt lat="39.6727630" lon="2.4977170">
        <ele>175.1</ele>
        <time>2021-06-17T14:18:53Z</time>
      </trkpt>
      <trkpt lat="39.6730630" lon="2.4975640">
        <ele>174.4</ele>
        <time>2021-06-17T14:18:58Z</time>
      </trkpt>
      <trkpt lat="39.6731380" lon="2.4975110">
        <ele>174.2</ele>
        <time>2021-06-17T14:18:59Z</time>
      </trkpt>
      <trkpt lat="39.6733880" lon="2.4973010">
        <ele>173.9</ele>
        <time>2021-06-17T14:19:03Z</time>
      </trkpt>
      <trkpt lat="39.6735310" lon="2.4972210">
        <ele>174.0</ele>
        <time>2021-06-17T14:19:05Z</time>
      </trkpt>
      <trkpt lat="39.6738580" lon="2.4969940">
        <ele>174.7</ele>
        <time>2021-06-17T14:19:10Z</time>
      </trkpt>
      <trkpt lat="39.6739500" lon="2.4969020">
        <ele>175.0</ele>
        <time>2021-06-17T14:19:12Z</time>
      </trkpt>
      <trkpt lat="39.6740470" lon="2.4967900">
        <ele>175.4</ele>
        <time>2021-06-17T14:19:14Z</time>
      </trkpt>
      <trkpt lat="39.6742800" lon="2.4966190">
        <ele>176.6</ele>
        <time>2021-06-17T14:19:18Z</time>
      </trkpt>
      <trkpt lat="39.6743760" lon="2.4965310">
        <ele>177.3</ele>
        <time>2021-06-17T14:19:20Z</time>
      </trkpt>
      <trkpt lat="39.6744520" lon="2.4964260">
        <ele>177.9</ele>
        <time>2021-06-17T14:19:22Z</time>
      </trkpt>
      <trkpt lat="39.6744910" lon="2.4963750">
        <ele>178.2</ele>
        <time>2021-06-17T14:19:23Z</time>
      </trkpt>
      <trkpt lat="39.6745690" lon="2.4963020">
        <ele>178.6</ele>
        <time>2021-06-17T14:19:25Z</time>
      </trkpt>
      <trkpt lat="39.6746240" lon="2.4962830">
        <ele>178.8</ele>
        <time>2021-06-17T14:19:26Z</time>
      </trkpt>
      <trkpt lat="39.6746810" lon="2.4962880">
        <ele>178.9</ele>
        <time>2021-06-17T14:19:27Z</time>
      </trkpt>
      <trkpt lat="39.6747730" lon="2.4963620">
        <ele>178.9</ele>
        <time>2021-06-17T14:19:29Z</time>
      </trkpt>
      <trkpt lat="39.6748650" lon="2.4964470">
        <ele>178.9</ele>
        <time>2021-06-17T14:19:31Z</time>
      </trkpt>
      <trkpt lat="39.6749190" lon="2.4964770">
        <ele>178.9</ele>
        <time>2021-06-17T14:19:32Z</time>
      </trkpt>
      <trkpt lat="39.6749760" lon="2.4964980">
        <ele>178.9</ele>
        <time>2021-06-17T14:19:33Z</time>
      </trkpt>
      <trkpt lat="39.6751000" lon="2.4965180">
        <ele>178.9</ele>
        <time>2021-06-17T14:19:35Z</time>
      </trkpt>
      <trkpt lat="39.6752370" lon="2.4965040">
        <ele>179.0</ele>
        <time>2021-06-17T14:19:37Z</time>
      </trkpt>
      <trkpt lat="39.6754430" lon="2.4964760">
        <ele>179.5</ele>
        <time>2021-06-17T14:19:40Z</time>
      </trkpt>
      <trkpt lat="39.6755680" lon="2.4965010">
        <ele>179.9</ele>
        <time>2021-06-17T14:19:42Z</time>
      </trkpt>
      <trkpt lat="39.6759060" lon="2.4966470">
        <ele>181.1</ele>
        <time>2021-06-17T14:19:48Z</time>
      </trkpt>
      <trkpt lat="39.6764430" lon="2.4968480">
        <ele>182.6</ele>
        <time>2021-06-17T14:19:58Z</time>
      </trkpt>
      <trkpt lat="39.6767130" lon="2.4970050">
        <ele>182.4</ele>
        <time>2021-06-17T14:20:03Z</time>
      </trkpt>
      <trkpt lat="39.6768220" lon="2.4970890">
        <ele>182.1</ele>
        <time>2021-06-17T14:20:05Z</time>
      </trkpt>
      <trkpt lat="39.6770320" lon="2.4972980">
        <ele>181.2</ele>
        <time>2021-06-17T14:20:09Z</time>
      </trkpt>
      <trkpt lat="39.6771310" lon="2.4974660">
        <ele>180.8</ele>
        <time>2021-06-17T14:20:11Z</time>
      </trkpt>
      <trkpt lat="39.6771890" lon="2.4976170">
        <ele>180.5</ele>
        <time>2021-06-17T14:20:13Z</time>
      </trkpt>
      <trkpt lat="39.6772290" lon="2.4976900">
        <ele>180.3</ele>
        <time>2021-06-17T14:20:14Z</time>
      </trkpt>
      <trkpt lat="39.6773550" lon="2.4978210">
        <ele>179.8</ele>
        <time>2021-06-17T14:20:16Z</time>
      </trkpt>
      <trkpt lat="39.6774880" lon="2.4978920">
        <ele>179.2</ele>
        <time>2021-06-17T14:20:18Z</time>
      </trkpt>
      <trkpt lat="39.6776630" lon="2.4979380">
        <ele>178.5</ele>
        <time>2021-06-17T14:20:20Z</time>
      </trkpt>
      <trkpt lat="39.6778150" lon="2.4980310">
        <ele>177.6</ele>
        <time>2021-06-17T14:20:22Z</time>
      </trkpt>
      <trkpt lat="39.6778720" lon="2.4980800">
        <ele>177.3</ele>
        <time>2021-06-17T14:20:23Z</time>
      </trkpt>
      <trkpt lat="39.6781520" lon="2.4983570">
        <ele>175.6</ele>
        <time>2021-06-17T14:20:27Z</time>
      </trkpt>
      <trkpt lat="39.6782260" lon="2.4984310">
        <ele>175.2</ele>
        <time>2021-06-17T14:20:28Z</time>
      </trkpt>
      <trkpt lat="39.6784760" lon="2.4986580">
        <ele>174.3</ele>
        <time>2021-06-17T14:20:31Z</time>
      </trkpt>
      <trkpt lat="39.6785620" lon="2.4987180">
        <ele>174.1</ele>
        <time>2021-06-17T14:20:32Z</time>
      </trkpt>
      <trkpt lat="39.6786520" lon="2.4987630">
        <ele>174.0</ele>
        <time>2021-06-17T14:20:33Z</time>
      </trkpt>
      <trkpt lat="39.6788400" lon="2.4988150">
        <ele>173.8</ele>
        <time>2021-06-17T14:20:35Z</time>
      </trkpt>
      <trkpt lat="39.6790140" lon="2.4988420">
        <ele>173.5</ele>
        <time>2021-06-17T14:20:37Z</time>
      </trkpt>
      <trkpt lat="39.6793170" lon="2.4989080">
        <ele>172.8</ele>
        <time>2021-06-17T14:20:40Z</time>
      </trkpt>
      <trkpt lat="39.6794860" lon="2.4989770">
        <ele>172.2</ele>
        <time>2021-06-17T14:20:42Z</time>
      </trkpt>
      <trkpt lat="39.6796910" lon="2.4990770">
        <ele>171.2</ele>
        <time>2021-06-17T14:20:44Z</time>
      </trkpt>
      <trkpt lat="39.6798760" lon="2.4991090">
        <ele>170.5</ele>
        <time>2021-06-17T14:20:46Z</time>
      </trkpt>
      <trkpt lat="39.6802190" lon="2.4991530">
        <ele>169.2</ele>
        <time>2021-06-17T14:20:49Z</time>
      </trkpt>
      <trkpt lat="39.6803030" lon="2.4991800">
        <ele>168.9</ele>
        <time>2021-06-17T14:20:50Z</time>
      </trkpt>
      <trkpt lat="39.6806040" lon="2.4993220">
        <ele>168.0</ele>
        <time>2021-06-17T14:20:53Z</time>
      </trkpt>
      <trkpt lat="39.6806890" lon="2.4993820">
        <ele>167.8</ele>
        <time>2021-06-17T14:20:54Z</time>
      </trkpt>
      <trkpt lat="39.6809100" lon="2.4995270">
        <ele>167.2</ele>
        <time>2021-06-17T14:20:57Z</time>
      </trkpt>
      <trkpt lat="39.6810150" lon="2.4995510">
        <ele>166.8</ele>
        <time>2021-06-17T14:20:58Z</time>
      </trkpt>
      <trkpt lat="39.6811060" lon="2.4995300">
        <ele>166.5</ele>
        <time>2021-06-17T14:20:59Z</time>
      </trkpt>
      <trkpt lat="39.6812710" lon="2.4994570">
        <ele>166.0</ele>
        <time>2021-06-17T14:21:01Z</time>
      </trkpt>
      <trkpt lat="39.6813680" lon="2.4994390">
        <ele>165.6</ele>
        <time>2021-06-17T14:21:02Z</time>
      </trkpt>
      <trkpt lat="39.6815500" lon="2.4994840">
        <ele>165.0</ele>
        <time>2021-06-17T14:21:04Z</time>
      </trkpt>
      <trkpt lat="39.6818830" lon="2.4997220">
        <ele>163.5</ele>
        <time>2021-06-17T14:21:08Z</time>
      </trkpt>
      <trkpt lat="39.6823820" lon="2.5001170">
        <ele>162.1</ele>
        <time>2021-06-17T14:21:14Z</time>
      </trkpt>
      <trkpt lat="39.6824700" lon="2.5001680">
        <ele>162.1</ele>
        <time>2021-06-17T14:21:15Z</time>
      </trkpt>
      <trkpt lat="39.6827620" lon="2.5002710">
        <ele>162.4</ele>
        <time>2021-06-17T14:21:18Z</time>
      </trkpt>
      <trkpt lat="39.6828300" lon="2.5003020">
        <ele>162.6</ele>
        <time>2021-06-17T14:21:19Z</time>
      </trkpt>
      <trkpt lat="39.6831570" lon="2.5004480">
        <ele>163.5</ele>
        <time>2021-06-17T14:21:23Z</time>
      </trkpt>
      <trkpt lat="39.6836200" lon="2.5005650">
        <ele>165.6</ele>
        <time>2021-06-17T14:21:30Z</time>
      </trkpt>
      <trkpt lat="39.6837280" lon="2.5006140">
        <ele>166.5</ele>
        <time>2021-06-17T14:21:32Z</time>
      </trkpt>
      <trkpt lat="39.6837970" lon="2.5007080">
        <ele>167.2</ele>
        <time>2021-06-17T14:21:34Z</time>
      </trkpt>
      <trkpt lat="39.6838660" lon="2.5008960">
        <ele>167.9</ele>
        <time>2021-06-17T14:21:37Z</time>
      </trkpt>
      <trkpt lat="39.6839430" lon="2.5011550">
        <ele>168.1</ele>
        <time>2021-06-17T14:21:41Z</time>
      </trkpt>
      <trkpt lat="39.6839770" lon="2.5012830">
        <ele>167.9</ele>
        <time>2021-06-17T14:21:43Z</time>
      </trkpt>
      <trkpt lat="39.6840530" lon="2.5015320">
        <ele>167.2</ele>
        <time>2021-06-17T14:21:46Z</time>
      </trkpt>
      <trkpt lat="39.6840840" lon="2.5016220">
        <ele>166.8</ele>
        <time>2021-06-17T14:21:47Z</time>
      </trkpt>
      <trkpt lat="39.6841410" lon="2.5018050">
        <ele>166.0</ele>
        <time>2021-06-17T14:21:48Z</time>
      </trkpt>
      <trkpt lat="39.6841540" lon="2.5018550">
        <ele>165.8</ele>
        <time>2021-06-17T14:21:49Z</time>
      </trkpt>
      <trkpt lat="39.6841660" lon="2.5019060">
        <ele>165.6</ele>
        <time>2021-06-17T14:21:50Z</time>
      </trkpt>
      <trkpt lat="39.6841880" lon="2.5020080">
        <ele>165.2</ele>
        <time>2021-06-17T14:21:51Z</time>
      </trkpt>
      <trkpt lat="39.6843020" lon="2.5025590">
        <ele>163.2</ele>
        <time>2021-06-17T14:21:56Z</time>
      </trkpt>
      <trkpt lat="39.6843460" lon="2.5028530">
        <ele>162.1</ele>
        <time>2021-06-17T14:21:59Z</time>
      </trkpt>
      <trkpt lat="39.6844630" lon="2.5032680">
        <ele>160.4</ele>
        <time>2021-06-17T14:22:02Z</time>
      </trkpt>
      <trkpt lat="39.6845480" lon="2.5034680">
        <ele>159.6</ele>
        <time>2021-06-17T14:22:05Z</time>
      </trkpt>
      <trkpt lat="39.6846100" lon="2.5035830">
        <ele>159.1</ele>
        <time>2021-06-17T14:22:06Z</time>
      </trkpt>
      <trkpt lat="39.6847710" lon="2.5038770">
        <ele>158.0</ele>
        <time>2021-06-17T14:22:09Z</time>
      </trkpt>
      <trkpt lat="39.6848030" lon="2.5041050">
        <ele>157.4</ele>
        <time>2021-06-17T14:22:11Z</time>
      </trkpt>
      <trkpt lat="39.6847600" lon="2.5043120">
        <ele>156.7</ele>
        <time>2021-06-17T14:22:13Z</time>
      </trkpt>
      <trkpt lat="39.6847060" lon="2.5045360">
        <ele>156.0</ele>
        <time>2021-06-17T14:22:15Z</time>
      </trkpt>
      <trkpt lat="39.6846460" lon="2.5047570">
        <ele>155.5</ele>
        <time>2021-06-17T14:22:17Z</time>
      </trkpt>
      <trkpt lat="39.6846080" lon="2.5048640">
        <ele>155.4</ele>
        <time>2021-06-17T14:22:18Z</time>
      </trkpt>
      <trkpt lat="39.6844900" lon="2.5050410">
        <ele>155.4</ele>
        <time>2021-06-17T14:22:20Z</time>
      </trkpt>
      <trkpt lat="39.6842440" lon="2.5052870">
        <ele>156.0</ele>
        <time>2021-06-17T14:22:24Z</time>
      </trkpt>
      <trkpt lat="39.6841880" lon="2.5054380">
        <ele>156.2</ele>
        <time>2021-06-17T14:22:26Z</time>
      </trkpt>
      <trkpt lat="39.6841860" lon="2.5055230">
        <ele>156.3</ele>
        <time>2021-06-17T14:22:27Z</time>
      </trkpt>
      <trkpt lat="39.6842270" lon="2.5059720">
        <ele>155.3</ele>
        <time>2021-06-17T14:22:32Z</time>
      </trkpt>
      <trkpt lat="39.6843180" lon="2.5061250">
        <ele>154.4</ele>
        <time>2021-06-17T14:22:34Z</time>
      </trkpt>
      <trkpt lat="39.6843820" lon="2.5061930">
        <ele>153.8</ele>
        <time>2021-06-17T14:22:35Z</time>
      </trkpt>
      <trkpt lat="39.6844560" lon="2.5062520">
        <ele>153.2</ele>
        <time>2021-06-17T14:22:36Z</time>
      </trkpt>
      <trkpt lat="39.6846230" lon="2.5063360">
        <ele>152.0</ele>
        <time>2021-06-17T14:22:38Z</time>
      </trkpt>
      <trkpt lat="39.6847160" lon="2.5063650">
        <ele>151.5</ele>
        <time>2021-06-17T14:22:39Z</time>
      </trkpt>
      <trkpt lat="39.6848080" lon="2.5064040">
        <ele>150.8</ele>
        <time>2021-06-17T14:22:40Z</time>
      </trkpt>
      <trkpt lat="39.6849630" lon="2.5065500">
        <ele>149.3</ele>
        <time>2021-06-17T14:22:42Z</time>
      </trkpt>
      <trkpt lat="39.6851290" lon="2.5069140">
        <ele>146.6</ele>
        <time>2021-06-17T14:22:45Z</time>
      </trkpt>
      <trkpt lat="39.6853290" lon="2.5074130">
        <ele>143.6</ele>
        <time>2021-06-17T14:22:49Z</time>
      </trkpt>
      <trkpt lat="39.6853730" lon="2.5075250">
        <ele>143.3</ele>
        <time>2021-06-17T14:22:50Z</time>
      </trkpt>
      <trkpt lat="39.6854080" lon="2.5076410">
        <ele>143.2</ele>
        <time>2021-06-17T14:22:51Z</time>
      </trkpt>
      <trkpt lat="39.6854360" lon="2.5078830">
        <ele>141.8</ele>
        <time>2021-06-17T14:22:53Z</time>
      </trkpt>
      <trkpt lat="39.6854490" lon="2.5080070">
        <ele>141.1</ele>
        <time>2021-06-17T14:22:54Z</time>
      </trkpt>
      <trkpt lat="39.6855240" lon="2.5082320">
        <ele>140.1</ele>
        <time>2021-06-17T14:22:56Z</time>
      </trkpt>
      <trkpt lat="39.6857120" lon="2.5084870">
        <ele>138.8</ele>
        <time>2021-06-17T14:22:59Z</time>
      </trkpt>
      <trkpt lat="39.6857800" lon="2.5085670">
        <ele>138.4</ele>
        <time>2021-06-17T14:23:00Z</time>
      </trkpt>
      <trkpt lat="39.6858490" lon="2.5086480">
        <ele>138.2</ele>
        <time>2021-06-17T14:23:01Z</time>
      </trkpt>
      <trkpt lat="39.6860240" lon="2.5089070">
        <ele>137.5</ele>
        <time>2021-06-17T14:23:04Z</time>
      </trkpt>
      <trkpt lat="39.6860580" lon="2.5090080">
        <ele>137.3</ele>
        <time>2021-06-17T14:23:05Z</time>
      </trkpt>
      <trkpt lat="39.6860640" lon="2.5091160">
        <ele>137.0</ele>
        <time>2021-06-17T14:23:06Z</time>
      </trkpt>
      <trkpt lat="39.6860410" lon="2.5092230">
        <ele>136.5</ele>
        <time>2021-06-17T14:23:07Z</time>
      </trkpt>
      <trkpt lat="39.6859720" lon="2.5094280">
        <ele>135.5</ele>
        <time>2021-06-17T14:23:09Z</time>
      </trkpt>
      <trkpt lat="39.6859610" lon="2.5095350">
        <ele>134.9</ele>
        <time>2021-06-17T14:23:10Z</time>
      </trkpt>
      <trkpt lat="39.6859850" lon="2.5096370">
        <ele>134.4</ele>
        <time>2021-06-17T14:23:11Z</time>
      </trkpt>
      <trkpt lat="39.6860280" lon="2.5097390">
        <ele>133.8</ele>
        <time>2021-06-17T14:23:12Z</time>
      </trkpt>
      <trkpt lat="39.6862350" lon="2.5101520">
        <ele>131.3</ele>
        <time>2021-06-17T14:23:16Z</time>
      </trkpt>
      <trkpt lat="39.6863070" lon="2.5102360">
        <ele>130.6</ele>
        <time>2021-06-17T14:23:17Z</time>
      </trkpt>
      <trkpt lat="39.6863870" lon="2.5103030">
        <ele>129.9</ele>
        <time>2021-06-17T14:23:18Z</time>
      </trkpt>
      <trkpt lat="39.6865530" lon="2.5104310">
        <ele>128.2</ele>
        <time>2021-06-17T14:23:20Z</time>
      </trkpt>
      <trkpt lat="39.6866700" lon="2.5106220">
        <ele>126.6</ele>
        <time>2021-06-17T14:23:22Z</time>
      </trkpt>
      <trkpt lat="39.6866870" lon="2.5107380">
        <ele>126.0</ele>
        <time>2021-06-17T14:23:23Z</time>
      </trkpt>
      <trkpt lat="39.6866740" lon="2.5108690">
        <ele>125.4</ele>
        <time>2021-06-17T14:23:24Z</time>
      </trkpt>
      <trkpt lat="39.6866120" lon="2.5112650">
        <ele>123.1</ele>
        <time>2021-06-17T14:23:27Z</time>
      </trkpt>
      <trkpt lat="39.6865820" lon="2.5113880">
        <ele>122.2</ele>
        <time>2021-06-17T14:23:28Z</time>
      </trkpt>
      <trkpt lat="39.6864790" lon="2.5116200">
        <ele>120.4</ele>
        <time>2021-06-17T14:23:30Z</time>
      </trkpt>
      <trkpt lat="39.6863390" lon="2.5117850">
        <ele>119.3</ele>
        <time>2021-06-17T14:23:32Z</time>
      </trkpt>
      <trkpt lat="39.6862610" lon="2.5118380">
        <ele>118.8</ele>
        <time>2021-06-17T14:23:33Z</time>
      </trkpt>
      <trkpt lat="39.6861740" lon="2.5118700">
        <ele>118.4</ele>
        <time>2021-06-17T14:23:34Z</time>
      </trkpt>
      <trkpt lat="39.6859960" lon="2.5119210">
        <ele>117.8</ele>
        <time>2021-06-17T14:23:36Z</time>
      </trkpt>
      <trkpt lat="39.6858730" lon="2.5120290">
        <ele>117.4</ele>
        <time>2021-06-17T14:23:38Z</time>
      </trkpt>
      <trkpt lat="39.6858510" lon="2.5121120">
        <ele>117.3</ele>
        <time>2021-06-17T14:23:39Z</time>
      </trkpt>
      <trkpt lat="39.6858530" lon="2.5121970">
        <ele>117.2</ele>
        <time>2021-06-17T14:23:40Z</time>
      </trkpt>
      <trkpt lat="39.6858800" lon="2.5122770">
        <ele>116.8</ele>
        <time>2021-06-17T14:23:41Z</time>
      </trkpt>
      <trkpt lat="39.6859260" lon="2.5123440">
        <ele>116.4</ele>
        <time>2021-06-17T14:23:42Z</time>
      </trkpt>
      <trkpt lat="39.6860490" lon="2.5124420">
        <ele>115.7</ele>
        <time>2021-06-17T14:23:44Z</time>
      </trkpt>
      <trkpt lat="39.6865040" lon="2.5127160">
        <ele>113.9</ele>
        <time>2021-06-17T14:23:51Z</time>
      </trkpt>
      <trkpt lat="39.6865580" lon="2.5127730">
        <ele>113.6</ele>
        <time>2021-06-17T14:23:52Z</time>
      </trkpt>
      <trkpt lat="39.6866450" lon="2.5129010">
        <ele>113.0</ele>
        <time>2021-06-17T14:23:54Z</time>
      </trkpt>
      <trkpt lat="39.6868090" lon="2.5130310">
        <ele>111.8</ele>
        <time>2021-06-17T14:23:57Z</time>
      </trkpt>
      <trkpt lat="39.6869310" lon="2.5131110">
        <ele>111.4</ele>
        <time>2021-06-17T14:23:59Z</time>
      </trkpt>
      <trkpt lat="39.6871170" lon="2.5132220">
        <ele>110.4</ele>
        <time>2021-06-17T14:24:02Z</time>
      </trkpt>
      <trkpt lat="39.6871600" lon="2.5132810">
        <ele>110.1</ele>
        <time>2021-06-17T14:24:03Z</time>
      </trkpt>
      <trkpt lat="39.6871870" lon="2.5133520">
        <ele>109.8</ele>
        <time>2021-06-17T14:24:04Z</time>
      </trkpt>
      <trkpt lat="39.6872370" lon="2.5135440">
        <ele>109.2</ele>
        <time>2021-06-17T14:24:07Z</time>
      </trkpt>
      <trkpt lat="39.6872630" lon="2.5137430">
        <ele>108.8</ele>
        <time>2021-06-17T14:24:11Z</time>
      </trkpt>
      <trkpt lat="39.6873230" lon="2.5140240">
        <ele>108.5</ele>
        <time>2021-06-17T14:24:17Z</time>
      </trkpt>
      <trkpt lat="39.6874560" lon="2.5142740">
        <ele>108.0</ele>
        <time>2021-06-17T14:24:22Z</time>
      </trkpt>
      <trkpt lat="39.6874800" lon="2.5143280">
        <ele>107.9</ele>
        <time>2021-06-17T14:24:23Z</time>
      </trkpt>
      <trkpt lat="39.6876420" lon="2.5147050">
        <ele>107.2</ele>
        <time>2021-06-17T14:24:29Z</time>
      </trkpt>
      <trkpt lat="39.6877440" lon="2.5149500">
        <ele>106.8</ele>
        <time>2021-06-17T14:24:33Z</time>
      </trkpt>
      <trkpt lat="39.6877670" lon="2.5150070">
        <ele>106.7</ele>
        <time>2021-06-17T14:24:34Z</time>
      </trkpt>
      <trkpt lat="39.6877940" lon="2.5150650">
        <ele>106.6</ele>
        <time>2021-06-17T14:24:35Z</time>
      </trkpt>
      <trkpt lat="39.6878390" lon="2.5151900">
        <ele>106.4</ele>
        <time>2021-06-17T14:24:37Z</time>
      </trkpt>
      <trkpt lat="39.6878650" lon="2.5152560">
        <ele>106.4</ele>
        <time>2021-06-17T14:24:38Z</time>
      </trkpt>
      <trkpt lat="39.6879350" lon="2.5154220">
        <ele>106.2</ele>
        <time>2021-06-17T14:24:41Z</time>
      </trkpt>
      <trkpt lat="39.6879720" lon="2.5155090">
        <ele>106.2</ele>
        <time>2021-06-17T14:24:43Z</time>
      </trkpt>
      <trkpt lat="39.6880190" lon="2.5156050">
        <ele>106.1</ele>
        <time>2021-06-17T14:24:45Z</time>
      </trkpt>
      <trkpt lat="39.6880760" lon="2.5157720">
        <ele>106.1</ele>
        <time>2021-06-17T14:24:48Z</time>
      </trkpt>
      <trkpt lat="39.6880870" lon="2.5158330">
        <ele>106.1</ele>
        <time>2021-06-17T14:24:49Z</time>
      </trkpt>
      <trkpt lat="39.6880950" lon="2.5159610">
        <ele>106.1</ele>
        <time>2021-06-17T14:24:51Z</time>
      </trkpt>
      <trkpt lat="39.6880800" lon="2.5160880">
        <ele>106.1</ele>
        <time>2021-06-17T14:24:53Z</time>
      </trkpt>
      <trkpt lat="39.6879380" lon="2.5163960">
        <ele>106.6</ele>
        <time>2021-06-17T14:24:59Z</time>
      </trkpt>
      <trkpt lat="39.6878450" lon="2.5166050">
        <ele>107.3</ele>
        <time>2021-06-17T14:25:04Z</time>
      </trkpt>
      <trkpt lat="39.6877500" lon="2.5168340">
        <ele>108.4</ele>
        <time>2021-06-17T14:25:10Z</time>
      </trkpt>
      <trkpt lat="39.6877070" lon="2.5169550">
        <ele>109.1</ele>
        <time>2021-06-17T14:25:13Z</time>
      </trkpt>
      <trkpt lat="39.6876880" lon="2.5170360">
        <ele>109.6</ele>
        <time>2021-06-17T14:25:15Z</time>
      </trkpt>
      <trkpt lat="39.6876610" lon="2.5172010">
        <ele>110.7</ele>
        <time>2021-06-17T14:25:19Z</time>
      </trkpt>
      <trkpt lat="39.6876590" lon="2.5172880">
        <ele>111.3</ele>
        <time>2021-06-17T14:25:21Z</time>
      </trkpt>
      <trkpt lat="39.6876460" lon="2.5174160">
        <ele>112.0</ele>
        <time>2021-06-17T14:25:24Z</time>
      </trkpt>
      <trkpt lat="39.6876230" lon="2.5175400">
        <ele>112.9</ele>
        <time>2021-06-17T14:25:27Z</time>
      </trkpt>
      <trkpt lat="39.6876050" lon="2.5176530">
        <ele>113.5</ele>
        <time>2021-06-17T14:25:30Z</time>
      </trkpt>
      <trkpt lat="39.6875760" lon="2.5177750">
        <ele>114.2</ele>
        <time>2021-06-17T14:25:33Z</time>
      </trkpt>
      <trkpt lat="39.6874740" lon="2.5180240">
        <ele>115.3</ele>
        <time>2021-06-17T14:25:39Z</time>
      </trkpt>
      <trkpt lat="39.6873470" lon="2.5183110">
        <ele>116.3</ele>
        <time>2021-06-17T14:25:46Z</time>
      </trkpt>
      <trkpt lat="39.6873930" lon="2.5185390">
        <ele>117.1</ele>
        <time>2021-06-17T14:25:51Z</time>
      </trkpt>
      <trkpt lat="39.6874460" lon="2.5188020">
        <ele>118.2</ele>
        <time>2021-06-17T14:25:57Z</time>
      </trkpt>
      <trkpt lat="39.6874990" lon="2.5191190">
        <ele>119.8</ele>
        <time>2021-06-17T14:26:04Z</time>
      </trkpt>
      <trkpt lat="39.6876040" lon="2.5192620">
        <ele>120.6</ele>
        <time>2021-06-17T14:26:08Z</time>
      </trkpt>
      <trkpt lat="39.6876960" lon="2.5193650">
        <ele>121.3</ele>
        <time>2021-06-17T14:26:11Z</time>
      </trkpt>
      <trkpt lat="39.6878850" lon="2.5196220">
        <ele>122.6</ele>
        <time>2021-06-17T14:26:18Z</time>
      </trkpt>
      <trkpt lat="39.6878340" lon="2.5198160">
        <ele>123.1</ele>
        <time>2021-06-17T14:26:22Z</time>
      </trkpt>
      <trkpt lat="39.6877940" lon="2.5199040">
        <ele>123.2</ele>
        <time>2021-06-17T14:26:24Z</time>
      </trkpt>
      <trkpt lat="39.6876220" lon="2.5202140">
        <ele>123.6</ele>
        <time>2021-06-17T14:26:31Z</time>
      </trkpt>
      <trkpt lat="39.6875870" lon="2.5202420">
        <ele>123.7</ele>
        <time>2021-06-17T14:26:32Z</time>
      </trkpt>
      <trkpt lat="39.6875510" lon="2.5202530">
        <ele>123.7</ele>
        <time>2021-06-17T14:26:33Z</time>
      </trkpt>
      <trkpt lat="39.6874780" lon="2.5202580">
        <ele>123.7</ele>
        <time>2021-06-17T14:26:35Z</time>
      </trkpt>
      <trkpt lat="39.6873970" lon="2.5202870">
        <ele>123.7</ele>
        <time>2021-06-17T14:26:37Z</time>
      </trkpt>
      <trkpt lat="39.6873210" lon="2.5203370">
        <ele>123.8</ele>
        <time>2021-06-17T14:26:39Z</time>
      </trkpt>
      <trkpt lat="39.6872870" lon="2.5203680">
        <ele>123.8</ele>
        <time>2021-06-17T14:26:40Z</time>
      </trkpt>
      <trkpt lat="39.6872540" lon="2.5204030">
        <ele>123.8</ele>
        <time>2021-06-17T14:26:41Z</time>
      </trkpt>
      <trkpt lat="39.6871060" lon="2.5206360">
        <ele>123.7</ele>
        <time>2021-06-17T14:26:46Z</time>
      </trkpt>
      <trkpt lat="39.6870230" lon="2.5207760">
        <ele>123.5</ele>
        <time>2021-06-17T14:26:49Z</time>
      </trkpt>
      <trkpt lat="39.6869920" lon="2.5208360">
        <ele>123.5</ele>
        <time>2021-06-17T14:26:50Z</time>
      </trkpt>
      <trkpt lat="39.6869580" lon="2.5209350">
        <ele>123.5</ele>
        <time>2021-06-17T14:26:52Z</time>
      </trkpt>
      <trkpt lat="39.6869320" lon="2.5210460">
        <ele>123.6</ele>
        <time>2021-06-17T14:26:54Z</time>
      </trkpt>
      <trkpt lat="39.6869270" lon="2.5211520">
        <ele>123.7</ele>
        <time>2021-06-17T14:26:56Z</time>
      </trkpt>
      <trkpt lat="39.6869330" lon="2.5212040">
        <ele>123.7</ele>
        <time>2021-06-17T14:26:57Z</time>
      </trkpt>
      <trkpt lat="39.6869480" lon="2.5212530">
        <ele>123.8</ele>
        <time>2021-06-17T14:26:58Z</time>
      </trkpt>
      <trkpt lat="39.6870010" lon="2.5213390">
        <ele>124.0</ele>
        <time>2021-06-17T14:27:00Z</time>
      </trkpt>
      <trkpt lat="39.6870350" lon="2.5213750">
        <ele>124.1</ele>
        <time>2021-06-17T14:27:01Z</time>
      </trkpt>
      <trkpt lat="39.6871610" lon="2.5214990">
        <ele>124.4</ele>
        <time>2021-06-17T14:27:05Z</time>
      </trkpt>
      <trkpt lat="39.6872210" lon="2.5215710">
        <ele>124.5</ele>
        <time>2021-06-17T14:27:07Z</time>
      </trkpt>
      <trkpt lat="39.6872530" lon="2.5216040">
        <ele>124.6</ele>
        <time>2021-06-17T14:27:08Z</time>
      </trkpt>
      <trkpt lat="39.6874350" lon="2.5217770">
        <ele>125.1</ele>
        <time>2021-06-17T14:27:14Z</time>
      </trkpt>
      <trkpt lat="39.6876910" lon="2.5219260">
        <ele>125.8</ele>
        <time>2021-06-17T14:27:21Z</time>
      </trkpt>
      <trkpt lat="39.6879520" lon="2.5221390">
        <ele>127.2</ele>
        <time>2021-06-17T14:27:29Z</time>
      </trkpt>
      <trkpt lat="39.6880850" lon="2.5223670">
        <ele>128.7</ele>
        <time>2021-06-17T14:27:35Z</time>
      </trkpt>
      <trkpt lat="39.6881430" lon="2.5224860">
        <ele>129.7</ele>
        <time>2021-06-17T14:27:38Z</time>
      </trkpt>
      <trkpt lat="39.6882230" lon="2.5227020">
        <ele>131.3</ele>
        <time>2021-06-17T14:27:43Z</time>
      </trkpt>
      <trkpt lat="39.6882340" lon="2.5228480">
        <ele>132.4</ele>
        <time>2021-06-17T14:27:46Z</time>
      </trkpt>
      <trkpt lat="39.6882320" lon="2.5228990">
        <ele>132.7</ele>
        <time>2021-06-17T14:27:47Z</time>
      </trkpt>
      <trkpt lat="39.6882250" lon="2.5229480">
        <ele>133.0</ele>
        <time>2021-06-17T14:27:48Z</time>
      </trkpt>
      <trkpt lat="39.6881170" lon="2.5232520">
        <ele>135.2</ele>
        <time>2021-06-17T14:27:55Z</time>
      </trkpt>
      <trkpt lat="39.6880650" lon="2.5234240">
        <ele>136.4</ele>
        <time>2021-06-17T14:27:59Z</time>
      </trkpt>
      <trkpt lat="39.6880300" lon="2.5235900">
        <ele>137.7</ele>
        <time>2021-06-17T14:28:03Z</time>
      </trkpt>
      <trkpt lat="39.6879490" lon="2.5238670">
        <ele>140.1</ele>
        <time>2021-06-17T14:28:10Z</time>
      </trkpt>
      <trkpt lat="39.6878580" lon="2.5241650">
        <ele>143.0</ele>
        <time>2021-06-17T14:28:18Z</time>
      </trkpt>
      <trkpt lat="39.6878760" lon="2.5243160">
        <ele>143.7</ele>
        <time>2021-06-17T14:28:22Z</time>
      </trkpt>
      <trkpt lat="39.6878880" lon="2.5243410">
        <ele>143.8</ele>
        <time>2021-06-17T14:28:23Z</time>
      </trkpt>
      <trkpt lat="39.6880230" lon="2.5244810">
        <ele>144.4</ele>
        <time>2021-06-17T14:28:29Z</time>
      </trkpt>
      <trkpt lat="39.6881790" lon="2.5244590">
        <ele>145.5</ele>
        <time>2021-06-17T14:28:35Z</time>
      </trkpt>
      <trkpt lat="39.6884440" lon="2.5242820">
        <ele>147.2</ele>
        <time>2021-06-17T14:28:45Z</time>
      </trkpt>
      <trkpt lat="39.6887160" lon="2.5240070">
        <ele>149.3</ele>
        <time>2021-06-17T14:28:56Z</time>
      </trkpt>
      <trkpt lat="39.6888730" lon="2.5239950">
        <ele>150.2</ele>
        <time>2021-06-17T14:29:01Z</time>
      </trkpt>
      <trkpt lat="39.6890310" lon="2.5240740">
        <ele>151.1</ele>
        <time>2021-06-17T14:29:06Z</time>
      </trkpt>
      <trkpt lat="39.6891200" lon="2.5241230">
        <ele>151.6</ele>
        <time>2021-06-17T14:29:09Z</time>
      </trkpt>
      <trkpt lat="39.6892990" lon="2.5241750">
        <ele>152.8</ele>
        <time>2021-06-17T14:29:15Z</time>
      </trkpt>
      <trkpt lat="39.6894370" lon="2.5240850">
        <ele>153.7</ele>
        <time>2021-06-17T14:29:20Z</time>
      </trkpt>
      <trkpt lat="39.6895090" lon="2.5239120">
        <ele>154.4</ele>
        <time>2021-06-17T14:29:25Z</time>
      </trkpt>
      <trkpt lat="39.6894980" lon="2.5235580">
        <ele>155.4</ele>
        <time>2021-06-17T14:29:33Z</time>
      </trkpt>
      <trkpt lat="39.6895060" lon="2.5232660">
        <ele>156.6</ele>
        <time>2021-06-17T14:29:40Z</time>
      </trkpt>
      <trkpt lat="39.6895390" lon="2.5228770">
        <ele>158.5</ele>
        <time>2021-06-17T14:29:50Z</time>
      </trkpt>
      <trkpt lat="39.6895760" lon="2.5225100">
        <ele>160.5</ele>
        <time>2021-06-17T14:29:59Z</time>
      </trkpt>
      <trkpt lat="39.6896100" lon="2.5221990">
        <ele>162.5</ele>
        <time>2021-06-17T14:30:07Z</time>
      </trkpt>
      <trkpt lat="39.6896700" lon="2.5218670">
        <ele>164.9</ele>
        <time>2021-06-17T14:30:16Z</time>
      </trkpt>
      <trkpt lat="39.6897800" lon="2.5216020">
        <ele>167.3</ele>
        <time>2021-06-17T14:30:24Z</time>
      </trkpt>
      <trkpt lat="39.6899090" lon="2.5215580">
        <ele>168.8</ele>
        <time>2021-06-17T14:30:29Z</time>
      </trkpt>
      <trkpt lat="39.6900050" lon="2.5216840">
        <ele>169.9</ele>
        <time>2021-06-17T14:30:34Z</time>
      </trkpt>
      <trkpt lat="39.6900170" lon="2.5219020">
        <ele>170.8</ele>
        <time>2021-06-17T14:30:40Z</time>
      </trkpt>
      <trkpt lat="39.6899860" lon="2.5222290">
        <ele>173.0</ele>
        <time>2021-06-17T14:30:49Z</time>
      </trkpt>
      <trkpt lat="39.6899620" lon="2.5226280">
        <ele>175.5</ele>
        <time>2021-06-17T14:31:00Z</time>
      </trkpt>
      <trkpt lat="39.6899440" lon="2.5230200">
        <ele>178.0</ele>
        <time>2021-06-17T14:31:11Z</time>
      </trkpt>
      <trkpt lat="39.6899660" lon="2.5233070">
        <ele>179.9</ele>
        <time>2021-06-17T14:31:19Z</time>
      </trkpt>
      <trkpt lat="39.6900200" lon="2.5236660">
        <ele>182.1</ele>
        <time>2021-06-17T14:31:29Z</time>
      </trkpt>
      <trkpt lat="39.6900930" lon="2.5241990">
        <ele>185.2</ele>
        <time>2021-06-17T14:31:44Z</time>
      </trkpt>
      <trkpt lat="39.6901550" lon="2.5244270">
        <ele>186.5</ele>
        <time>2021-06-17T14:31:51Z</time>
      </trkpt>
      <trkpt lat="39.6902750" lon="2.5246440">
        <ele>187.9</ele>
        <time>2021-06-17T14:31:58Z</time>
      </trkpt>
      <trkpt lat="39.6904790" lon="2.5248640">
        <ele>189.7</ele>
        <time>2021-06-17T14:32:07Z</time>
      </trkpt>
      <trkpt lat="39.6906120" lon="2.5250960">
        <ele>191.4</ele>
        <time>2021-06-17T14:32:15Z</time>
      </trkpt>
      <trkpt lat="39.6906600" lon="2.5253320">
        <ele>193.0</ele>
        <time>2021-06-17T14:32:22Z</time>
      </trkpt>
      <trkpt lat="39.6906350" lon="2.5256470">
        <ele>195.3</ele>
        <time>2021-06-17T14:32:31Z</time>
      </trkpt>
      <trkpt lat="39.6906330" lon="2.5258900">
        <ele>197.2</ele>
        <time>2021-06-17T14:32:38Z</time>
      </trkpt>
      <trkpt lat="39.6905900" lon="2.5261990">
        <ele>199.5</ele>
        <time>2021-06-17T14:32:47Z</time>
      </trkpt>
      <trkpt lat="39.6904520" lon="2.5263930">
        <ele>201.3</ele>
        <time>2021-06-17T14:32:55Z</time>
      </trkpt>
      <trkpt lat="39.6903470" lon="2.5265800">
        <ele>202.9</ele>
        <time>2021-06-17T14:33:02Z</time>
      </trkpt>
      <trkpt lat="39.6903290" lon="2.5266340">
        <ele>203.3</ele>
        <time>2021-06-17T14:33:04Z</time>
      </trkpt>
      <trkpt lat="39.6903230" lon="2.5268430">
        <ele>204.8</ele>
        <time>2021-06-17T14:33:10Z</time>
      </trkpt>
      <trkpt lat="39.6904050" lon="2.5270420">
        <ele>206.3</ele>
        <time>2021-06-17T14:33:17Z</time>
      </trkpt>
      <trkpt lat="39.6905510" lon="2.5271730">
        <ele>207.8</ele>
        <time>2021-06-17T14:33:24Z</time>
      </trkpt>
      <trkpt lat="39.6907510" lon="2.5272720">
        <ele>209.6</ele>
        <time>2021-06-17T14:33:32Z</time>
      </trkpt>
      <trkpt lat="39.6909040" lon="2.5273870">
        <ele>211.0</ele>
        <time>2021-06-17T14:33:39Z</time>
      </trkpt>
      <trkpt lat="39.6909480" lon="2.5275920">
        <ele>212.5</ele>
        <time>2021-06-17T14:33:45Z</time>
      </trkpt>
      <trkpt lat="39.6908530" lon="2.5277650">
        <ele>213.9</ele>
        <time>2021-06-17T14:33:51Z</time>
      </trkpt>
      <trkpt lat="39.6906630" lon="2.5277920">
        <ele>215.5</ele>
        <time>2021-06-17T14:33:58Z</time>
      </trkpt>
      <trkpt lat="39.6904540" lon="2.5276700">
        <ele>217.7</ele>
        <time>2021-06-17T14:34:06Z</time>
      </trkpt>
      <trkpt lat="39.6902520" lon="2.5275320">
        <ele>219.5</ele>
        <time>2021-06-17T14:34:14Z</time>
      </trkpt>
      <trkpt lat="39.6900020" lon="2.5273700">
        <ele>221.6</ele>
        <time>2021-06-17T14:34:24Z</time>
      </trkpt>
      <trkpt lat="39.6898000" lon="2.5272690">
        <ele>223.4</ele>
        <time>2021-06-17T14:34:32Z</time>
      </trkpt>
      <trkpt lat="39.6896210" lon="2.5273170">
        <ele>225.0</ele>
        <time>2021-06-17T14:34:39Z</time>
      </trkpt>
      <trkpt lat="39.6895250" lon="2.5274900">
        <ele>226.3</ele>
        <time>2021-06-17T14:34:45Z</time>
      </trkpt>
      <trkpt lat="39.6895280" lon="2.5276840">
        <ele>227.4</ele>
        <time>2021-06-17T14:34:50Z</time>
      </trkpt>
      <trkpt lat="39.6896310" lon="2.5278910">
        <ele>228.6</ele>
        <time>2021-06-17T14:34:57Z</time>
      </trkpt>
      <trkpt lat="39.6897640" lon="2.5280760">
        <ele>229.8</ele>
        <time>2021-06-17T14:35:04Z</time>
      </trkpt>
      <trkpt lat="39.6899550" lon="2.5282130">
        <ele>231.1</ele>
        <time>2021-06-17T14:35:11Z</time>
      </trkpt>
      <trkpt lat="39.6901660" lon="2.5282780">
        <ele>232.3</ele>
        <time>2021-06-17T14:35:18Z</time>
      </trkpt>
      <trkpt lat="39.6903800" lon="2.5283530">
        <ele>233.7</ele>
        <time>2021-06-17T14:35:25Z</time>
      </trkpt>
      <trkpt lat="39.6905470" lon="2.5285410">
        <ele>235.3</ele>
        <time>2021-06-17T14:35:33Z</time>
      </trkpt>
      <trkpt lat="39.6907540" lon="2.5287290">
        <ele>237.4</ele>
        <time>2021-06-17T14:35:42Z</time>
      </trkpt>
      <trkpt lat="39.6909930" lon="2.5287960">
        <ele>239.5</ele>
        <time>2021-06-17T14:35:51Z</time>
      </trkpt>
      <trkpt lat="39.6911560" lon="2.5289040">
        <ele>241.1</ele>
        <time>2021-06-17T14:35:58Z</time>
      </trkpt>
      <trkpt lat="39.6911860" lon="2.5290750">
        <ele>242.3</ele>
        <time>2021-06-17T14:36:03Z</time>
      </trkpt>
      <trkpt lat="39.6911320" lon="2.5292260">
        <ele>243.4</ele>
        <time>2021-06-17T14:36:08Z</time>
      </trkpt>
      <trkpt lat="39.6910030" lon="2.5292900">
        <ele>244.7</ele>
        <time>2021-06-17T14:36:13Z</time>
      </trkpt>
      <trkpt lat="39.6907980" lon="2.5292210">
        <ele>246.3</ele>
        <time>2021-06-17T14:36:20Z</time>
      </trkpt>
      <trkpt lat="39.6905410" lon="2.5291060">
        <ele>248.2</ele>
        <time>2021-06-17T14:36:29Z</time>
      </trkpt>
      <trkpt lat="39.6902630" lon="2.5290070">
        <ele>250.3</ele>
        <time>2021-06-17T14:36:39Z</time>
      </trkpt>
      <trkpt lat="39.6900700" lon="2.5289320">
        <ele>251.8</ele>
        <time>2021-06-17T14:36:46Z</time>
      </trkpt>
      <trkpt lat="39.6898610" lon="2.5288880">
        <ele>253.8</ele>
        <time>2021-06-17T14:36:54Z</time>
      </trkpt>
      <trkpt lat="39.6897830" lon="2.5288990">
        <ele>254.7</ele>
        <time>2021-06-17T14:36:57Z</time>
      </trkpt>
      <trkpt lat="39.6897080" lon="2.5289540">
        <ele>255.7</ele>
        <time>2021-06-17T14:37:01Z</time>
      </trkpt>
      <trkpt lat="39.6896230" lon="2.5290790">
        <ele>257.2</ele>
        <time>2021-06-17T14:37:07Z</time>
      </trkpt>
      <trkpt lat="39.6895990" lon="2.5293020">
        <ele>259.2</ele>
        <time>2021-06-17T14:37:15Z</time>
      </trkpt>
      <trkpt lat="39.6896600" lon="2.5294530">
        <ele>260.7</ele>
        <time>2021-06-17T14:37:21Z</time>
      </trkpt>
      <trkpt lat="39.6898260" lon="2.5295380">
        <ele>262.4</ele>
        <time>2021-06-17T14:37:28Z</time>
      </trkpt>
      <trkpt lat="39.6900590" lon="2.5294740">
        <ele>264.1</ele>
        <time>2021-06-17T14:37:36Z</time>
      </trkpt>
      <trkpt lat="39.6902040" lon="2.5295160">
        <ele>265.1</ele>
        <time>2021-06-17T14:37:41Z</time>
      </trkpt>
      <trkpt lat="39.6903630" lon="2.5296920">
        <ele>266.4</ele>
        <time>2021-06-17T14:37:48Z</time>
      </trkpt>
      <trkpt lat="39.6904930" lon="2.5298930">
        <ele>267.7</ele>
        <time>2021-06-17T14:37:55Z</time>
      </trkpt>
      <trkpt lat="39.6906690" lon="2.5301810">
        <ele>269.5</ele>
        <time>2021-06-17T14:38:04Z</time>
      </trkpt>
      <trkpt lat="39.6908200" lon="2.5304390">
        <ele>271.3</ele>
        <time>2021-06-17T14:38:13Z</time>
      </trkpt>
      <trkpt lat="39.6910000" lon="2.5306760">
        <ele>273.3</ele>
        <time>2021-06-17T14:38:22Z</time>
      </trkpt>
      <trkpt lat="39.6912400" lon="2.5309040">
        <ele>275.4</ele>
        <time>2021-06-17T14:38:32Z</time>
      </trkpt>
      <trkpt lat="39.6914070" lon="2.5309810">
        <ele>276.7</ele>
        <time>2021-06-17T14:38:38Z</time>
      </trkpt>
      <trkpt lat="39.6916300" lon="2.5309210">
        <ele>278.1</ele>
        <time>2021-06-17T14:38:45Z</time>
      </trkpt>
      <trkpt lat="39.6917650" lon="2.5307950">
        <ele>279.1</ele>
        <time>2021-06-17T14:38:50Z</time>
      </trkpt>
      <trkpt lat="39.6918800" lon="2.5307150">
        <ele>279.9</ele>
        <time>2021-06-17T14:38:54Z</time>
      </trkpt>
      <trkpt lat="39.6920900" lon="2.5306020">
        <ele>281.3</ele>
        <time>2021-06-17T14:39:01Z</time>
      </trkpt>
      <trkpt lat="39.6923340" lon="2.5305070">
        <ele>283.0</ele>
        <time>2021-06-17T14:39:09Z</time>
      </trkpt>
      <trkpt lat="39.6925990" lon="2.5304310">
        <ele>285.1</ele>
        <time>2021-06-17T14:39:18Z</time>
      </trkpt>
      <trkpt lat="39.6927220" lon="2.5305250">
        <ele>286.4</ele>
        <time>2021-06-17T14:39:23Z</time>
      </trkpt>
      <trkpt lat="39.6927450" lon="2.5307120">
        <ele>287.8</ele>
        <time>2021-06-17T14:39:28Z</time>
      </trkpt>
      <trkpt lat="39.6926320" lon="2.5308850">
        <ele>289.3</ele>
        <time>2021-06-17T14:39:34Z</time>
      </trkpt>
      <trkpt lat="39.6923970" lon="2.5310390">
        <ele>291.5</ele>
        <time>2021-06-17T14:39:42Z</time>
      </trkpt>
      <trkpt lat="39.6920820" lon="2.5313200">
        <ele>294.4</ele>
        <time>2021-06-17T14:39:54Z</time>
      </trkpt>
      <trkpt lat="39.6920540" lon="2.5313460">
        <ele>294.7</ele>
        <time>2021-06-17T14:39:55Z</time>
      </trkpt>
      <trkpt lat="39.6918320" lon="2.5315870">
        <ele>296.2</ele>
        <time>2021-06-17T14:40:04Z</time>
      </trkpt>
      <trkpt lat="39.6916100" lon="2.5318320">
        <ele>297.3</ele>
        <time>2021-06-17T14:40:13Z</time>
      </trkpt>
      <trkpt lat="39.6915240" lon="2.5319330">
        <ele>297.7</ele>
        <time>2021-06-17T14:40:17Z</time>
      </trkpt>
      <trkpt lat="39.6914490" lon="2.5320330">
        <ele>298.0</ele>
        <time>2021-06-17T14:40:21Z</time>
      </trkpt>
      <trkpt lat="39.6913270" lon="2.5321710">
        <ele>298.1</ele>
        <time>2021-06-17T14:40:28Z</time>
      </trkpt>
      <trkpt lat="39.6913110" lon="2.5321910">
        <ele>298.1</ele>
        <time>2021-06-17T14:40:29Z</time>
      </trkpt>
      <trkpt lat="39.6911690" lon="2.5323420">
        <ele>297.8</ele>
        <time>2021-06-17T14:40:36Z</time>
      </trkpt>
      <trkpt lat="39.6910870" lon="2.5324310">
        <ele>297.5</ele>
        <time>2021-06-17T14:40:39Z</time>
      </trkpt>
      <trkpt lat="39.6910330" lon="2.5324970">
        <ele>297.1</ele>
        <time>2021-06-17T14:40:41Z</time>
      </trkpt>
      <trkpt lat="39.6909450" lon="2.5325990">
        <ele>296.6</ele>
        <time>2021-06-17T14:40:44Z</time>
      </trkpt>
      <trkpt lat="39.6908400" lon="2.5327070">
        <ele>295.9</ele>
        <time>2021-06-17T14:40:47Z</time>
      </trkpt>
      <trkpt lat="39.6907200" lon="2.5328470">
        <ele>295.0</ele>
        <time>2021-06-17T14:40:50Z</time>
      </trkpt>
      <trkpt lat="39.6906230" lon="2.5329670">
        <ele>294.2</ele>
        <time>2021-06-17T14:40:52Z</time>
      </trkpt>
      <trkpt lat="39.6905750" lon="2.5330230">
        <ele>293.7</ele>
        <time>2021-06-17T14:40:53Z</time>
      </trkpt>
      <trkpt lat="39.6903570" lon="2.5332580">
        <ele>291.8</ele>
        <time>2021-06-17T14:40:57Z</time>
      </trkpt>
      <trkpt lat="39.6902510" lon="2.5333770">
        <ele>290.8</ele>
        <time>2021-06-17T14:40:59Z</time>
      </trkpt>
      <trkpt lat="39.6898610" lon="2.5338230">
        <ele>287.2</ele>
        <time>2021-06-17T14:41:05Z</time>
      </trkpt>
      <trkpt lat="39.6895580" lon="2.5341640">
        <ele>284.5</ele>
        <time>2021-06-17T14:41:09Z</time>
      </trkpt>
      <trkpt lat="39.6894070" lon="2.5343350">
        <ele>283.2</ele>
        <time>2021-06-17T14:41:11Z</time>
      </trkpt>
      <trkpt lat="39.6891780" lon="2.5346160">
        <ele>281.4</ele>
        <time>2021-06-17T14:41:14Z</time>
      </trkpt>
      <trkpt lat="39.6891250" lon="2.5347370">
        <ele>281.0</ele>
        <time>2021-06-17T14:41:15Z</time>
      </trkpt>
      <trkpt lat="39.6890940" lon="2.5348690">
        <ele>280.5</ele>
        <time>2021-06-17T14:41:16Z</time>
      </trkpt>
      <trkpt lat="39.6890640" lon="2.5351030">
        <ele>279.8</ele>
        <time>2021-06-17T14:41:18Z</time>
      </trkpt>
      <trkpt lat="39.6890350" lon="2.5352720">
        <ele>279.2</ele>
        <time>2021-06-17T14:41:20Z</time>
      </trkpt>
      <trkpt lat="39.6890100" lon="2.5353440">
        <ele>279.0</ele>
        <time>2021-06-17T14:41:21Z</time>
      </trkpt>
      <trkpt lat="39.6889800" lon="2.5354140">
        <ele>278.8</ele>
        <time>2021-06-17T14:41:22Z</time>
      </trkpt>
      <trkpt lat="39.6888520" lon="2.5355880">
        <ele>277.4</ele>
        <time>2021-06-17T14:41:25Z</time>
      </trkpt>
      <trkpt lat="39.6886160" lon="2.5358130">
        <ele>275.3</ele>
        <time>2021-06-17T14:41:29Z</time>
      </trkpt>
      <trkpt lat="39.6885470" lon="2.5358660">
        <ele>274.7</ele>
        <time>2021-06-17T14:41:30Z</time>
      </trkpt>
      <trkpt lat="39.6880870" lon="2.5361950">
        <ele>271.9</ele>
        <time>2021-06-17T14:41:36Z</time>
      </trkpt>
      <trkpt lat="39.6880070" lon="2.5362530">
        <ele>271.6</ele>
        <time>2021-06-17T14:41:37Z</time>
      </trkpt>
      <trkpt lat="39.6877620" lon="2.5364100">
        <ele>270.7</ele>
        <time>2021-06-17T14:41:40Z</time>
      </trkpt>
      <trkpt lat="39.6875830" lon="2.5364450">
        <ele>269.8</ele>
        <time>2021-06-17T14:41:42Z</time>
      </trkpt>
      <trkpt lat="39.6874170" lon="2.5363630">
        <ele>269.0</ele>
        <time>2021-06-17T14:41:44Z</time>
      </trkpt>
      <trkpt lat="39.6870700" lon="2.5361970">
        <ele>267.6</ele>
        <time>2021-06-17T14:41:48Z</time>
      </trkpt>
      <trkpt lat="39.6868960" lon="2.5361620">
        <ele>267.2</ele>
        <time>2021-06-17T14:41:50Z</time>
      </trkpt>
      <trkpt lat="39.6867090" lon="2.5361620">
        <ele>267.0</ele>
        <time>2021-06-17T14:41:52Z</time>
      </trkpt>
      <trkpt lat="39.6864020" lon="2.5362050">
        <ele>266.7</ele>
        <time>2021-06-17T14:41:56Z</time>
      </trkpt>
      <trkpt lat="39.6863320" lon="2.5362500">
        <ele>266.6</ele>
        <time>2021-06-17T14:41:57Z</time>
      </trkpt>
      <trkpt lat="39.6862630" lon="2.5363230">
        <ele>266.6</ele>
        <time>2021-06-17T14:41:58Z</time>
      </trkpt>
      <trkpt lat="39.6861940" lon="2.5364770">
        <ele>266.6</ele>
        <time>2021-06-17T14:42:00Z</time>
      </trkpt>
      <trkpt lat="39.6861890" lon="2.5366790">
        <ele>266.8</ele>
        <time>2021-06-17T14:42:02Z</time>
      </trkpt>
      <trkpt lat="39.6861980" lon="2.5367670">
        <ele>267.0</ele>
        <time>2021-06-17T14:42:03Z</time>
      </trkpt>
      <trkpt lat="39.6862180" lon="2.5369330">
        <ele>267.5</ele>
        <time>2021-06-17T14:42:05Z</time>
      </trkpt>
      <trkpt lat="39.6862570" lon="2.5370650">
        <ele>268.0</ele>
        <time>2021-06-17T14:42:07Z</time>
      </trkpt>
      <trkpt lat="39.6863930" lon="2.5372560">
        <ele>269.1</ele>
        <time>2021-06-17T14:42:11Z</time>
      </trkpt>
      <trkpt lat="39.6864410" lon="2.5373120">
        <ele>269.4</ele>
        <time>2021-06-17T14:42:12Z</time>
      </trkpt>
      <trkpt lat="39.6865100" lon="2.5374050">
        <ele>270.0</ele>
        <time>2021-06-17T14:42:14Z</time>
      </trkpt>
      <trkpt lat="39.6865490" lon="2.5374990">
        <ele>270.6</ele>
        <time>2021-06-17T14:42:16Z</time>
      </trkpt>
      <trkpt lat="39.6865650" lon="2.5375990">
        <ele>271.2</ele>
        <time>2021-06-17T14:42:18Z</time>
      </trkpt>
      <trkpt lat="39.6865650" lon="2.5376990">
        <ele>271.8</ele>
        <time>2021-06-17T14:42:20Z</time>
      </trkpt>
      <trkpt lat="39.6865680" lon="2.5377920">
        <ele>272.3</ele>
        <time>2021-06-17T14:42:22Z</time>
      </trkpt>
      <trkpt lat="39.6865540" lon="2.5380010">
        <ele>273.6</ele>
        <time>2021-06-17T14:42:27Z</time>
      </trkpt>
      <trkpt lat="39.6865150" lon="2.5382870">
        <ele>275.4</ele>
        <time>2021-06-17T14:42:34Z</time>
      </trkpt>
      <trkpt lat="39.6864910" lon="2.5384550">
        <ele>276.4</ele>
        <time>2021-06-17T14:42:38Z</time>
      </trkpt>
      <trkpt lat="39.6864740" lon="2.5386090">
        <ele>277.2</ele>
        <time>2021-06-17T14:42:42Z</time>
      </trkpt>
      <trkpt lat="39.6864690" lon="2.5386430">
        <ele>277.4</ele>
        <time>2021-06-17T14:42:43Z</time>
      </trkpt>
      <trkpt lat="39.6864790" lon="2.5388300">
        <ele>278.3</ele>
        <time>2021-06-17T14:42:48Z</time>
      </trkpt>
      <trkpt lat="39.6864880" lon="2.5388610">
        <ele>278.4</ele>
        <time>2021-06-17T14:42:49Z</time>
      </trkpt>
      <trkpt lat="39.6865620" lon="2.5391320">
        <ele>279.2</ele>
        <time>2021-06-17T14:42:57Z</time>
      </trkpt>
      <trkpt lat="39.6866000" lon="2.5393730">
        <ele>279.4</ele>
        <time>2021-06-17T14:43:04Z</time>
      </trkpt>
      <trkpt lat="39.6865860" lon="2.5395680">
        <ele>279.1</ele>
        <time>2021-06-17T14:43:08Z</time>
      </trkpt>
      <trkpt lat="39.6865620" lon="2.5396180">
        <ele>278.9</ele>
        <time>2021-06-17T14:43:09Z</time>
      </trkpt>
      <trkpt lat="39.6865220" lon="2.5396560">
        <ele>278.7</ele>
        <time>2021-06-17T14:43:10Z</time>
      </trkpt>
      <trkpt lat="39.6864180" lon="2.5396910">
        <ele>278.1</ele>
        <time>2021-06-17T14:43:12Z</time>
      </trkpt>
      <trkpt lat="39.6860510" lon="2.5397150">
        <ele>276.2</ele>
        <time>2021-06-17T14:43:18Z</time>
      </trkpt>
      <trkpt lat="39.6859820" lon="2.5397320">
        <ele>275.8</ele>
        <time>2021-06-17T14:43:19Z</time>
      </trkpt>
      <trkpt lat="39.6858310" lon="2.5398050">
        <ele>274.9</ele>
        <time>2021-06-17T14:43:21Z</time>
      </trkpt>
      <trkpt lat="39.6857770" lon="2.5398420">
        <ele>274.6</ele>
        <time>2021-06-17T14:43:22Z</time>
      </trkpt>
      <trkpt lat="39.6856460" lon="2.5399360">
        <ele>273.8</ele>
        <time>2021-06-17T14:43:24Z</time>
      </trkpt>
      <trkpt lat="39.6854940" lon="2.5400420">
        <ele>273.1</ele>
        <time>2021-06-17T14:43:26Z</time>
      </trkpt>
      <trkpt lat="39.6853690" lon="2.5401330">
        <ele>272.4</ele>
        <time>2021-06-17T14:43:28Z</time>
      </trkpt>
      <trkpt lat="39.6853010" lon="2.5401870">
        <ele>272.1</ele>
        <time>2021-06-17T14:43:29Z</time>
      </trkpt>
      <trkpt lat="39.6852320" lon="2.5402400">
        <ele>271.8</ele>
        <time>2021-06-17T14:43:30Z</time>
      </trkpt>
      <trkpt lat="39.6851580" lon="2.5402830">
        <ele>271.5</ele>
        <time>2021-06-17T14:43:31Z</time>
      </trkpt>
      <trkpt lat="39.6849990" lon="2.5403230">
        <ele>271.1</ele>
        <time>2021-06-17T14:43:33Z</time>
      </trkpt>
      <trkpt lat="39.6849170" lon="2.5403110">
        <ele>271.1</ele>
        <time>2021-06-17T14:43:34Z</time>
      </trkpt>
      <trkpt lat="39.6848420" lon="2.5402900">
        <ele>271.1</ele>
        <time>2021-06-17T14:43:35Z</time>
      </trkpt>
      <trkpt lat="39.6846360" lon="2.5401870">
        <ele>271.6</ele>
        <time>2021-06-17T14:43:38Z</time>
      </trkpt>
      <trkpt lat="39.6844320" lon="2.5400020">
        <ele>272.9</ele>
        <time>2021-06-17T14:43:42Z</time>
      </trkpt>
      <trkpt lat="39.6843980" lon="2.5399720">
        <ele>273.2</ele>
        <time>2021-06-17T14:43:43Z</time>
      </trkpt>
      <trkpt lat="39.6843200" lon="2.5398970">
        <ele>273.9</ele>
        <time>2021-06-17T14:43:45Z</time>
      </trkpt>
      <trkpt lat="39.6842800" lon="2.5398720">
        <ele>274.3</ele>
        <time>2021-06-17T14:43:46Z</time>
      </trkpt>
      <trkpt lat="39.6840940" lon="2.5398200">
        <ele>275.9</ele>
        <time>2021-06-17T14:43:51Z</time>
      </trkpt>
      <trkpt lat="39.6839840" lon="2.5399180">
        <ele>277.1</ele>
        <time>2021-06-17T14:43:55Z</time>
      </trkpt>
      <trkpt lat="39.6839650" lon="2.5399540">
        <ele>277.3</ele>
        <time>2021-06-17T14:43:56Z</time>
      </trkpt>
      <trkpt lat="39.6839430" lon="2.5400340">
        <ele>277.9</ele>
        <time>2021-06-17T14:43:58Z</time>
      </trkpt>
      <trkpt lat="39.6839360" lon="2.5401660">
        <ele>278.6</ele>
        <time>2021-06-17T14:44:01Z</time>
      </trkpt>
      <trkpt lat="39.6839510" lon="2.5403420">
        <ele>279.4</ele>
        <time>2021-06-17T14:44:05Z</time>
      </trkpt>
      <trkpt lat="39.6839810" lon="2.5405790">
        <ele>280.4</ele>
        <time>2021-06-17T14:44:10Z</time>
      </trkpt>
      <trkpt lat="39.6839730" lon="2.5408500">
        <ele>281.8</ele>
        <time>2021-06-17T14:44:16Z</time>
      </trkpt>
      <trkpt lat="39.6839640" lon="2.5408910">
        <ele>282.1</ele>
        <time>2021-06-17T14:44:17Z</time>
      </trkpt>
      <trkpt lat="39.6839290" lon="2.5410110">
        <ele>282.8</ele>
        <time>2021-06-17T14:44:20Z</time>
      </trkpt>
      <trkpt lat="39.6838930" lon="2.5411350">
        <ele>283.5</ele>
        <time>2021-06-17T14:44:23Z</time>
      </trkpt>
      <trkpt lat="39.6838810" lon="2.5411730">
        <ele>283.8</ele>
        <time>2021-06-17T14:44:24Z</time>
      </trkpt>
      <trkpt lat="39.6837780" lon="2.5415030">
        <ele>285.6</ele>
        <time>2021-06-17T14:44:32Z</time>
      </trkpt>
      <trkpt lat="39.6836230" lon="2.5416830">
        <ele>287.1</ele>
        <time>2021-06-17T14:44:38Z</time>
      </trkpt>
      <trkpt lat="39.6834610" lon="2.5417090">
        <ele>288.2</ele>
        <time>2021-06-17T14:44:43Z</time>
      </trkpt>
      <trkpt lat="39.6831930" lon="2.5417470">
        <ele>289.8</ele>
        <time>2021-06-17T14:44:51Z</time>
      </trkpt>
      <trkpt lat="39.6831540" lon="2.5417720">
        <ele>290.1</ele>
        <time>2021-06-17T14:44:52Z</time>
      </trkpt>
      <trkpt lat="39.6830340" lon="2.5419570">
        <ele>291.1</ele>
        <time>2021-06-17T14:44:57Z</time>
      </trkpt>
      <trkpt lat="39.6830200" lon="2.5422440">
        <ele>292.3</ele>
        <time>2021-06-17T14:45:03Z</time>
      </trkpt>
      <trkpt lat="39.6830380" lon="2.5424660">
        <ele>293.3</ele>
        <time>2021-06-17T14:45:08Z</time>
      </trkpt>
      <trkpt lat="39.6830570" lon="2.5425810">
        <ele>293.9</ele>
        <time>2021-06-17T14:45:11Z</time>
      </trkpt>
      <trkpt lat="39.6831310" lon="2.5428630">
        <ele>295.1</ele>
        <time>2021-06-17T14:45:17Z</time>
      </trkpt>
      <trkpt lat="39.6832870" lon="2.5430100">
        <ele>295.6</ele>
        <time>2021-06-17T14:45:22Z</time>
      </trkpt>
      <trkpt lat="39.6834540" lon="2.5430330">
        <ele>295.7</ele>
        <time>2021-06-17T14:45:26Z</time>
      </trkpt>
      <trkpt lat="39.6834970" lon="2.5430280">
        <ele>295.6</ele>
        <time>2021-06-17T14:45:27Z</time>
      </trkpt>
      <trkpt lat="39.6838390" lon="2.5430010">
        <ele>295.4</ele>
        <time>2021-06-17T14:45:34Z</time>
      </trkpt>
      <trkpt lat="39.6841380" lon="2.5429300">
        <ele>294.8</ele>
        <time>2021-06-17T14:45:40Z</time>
      </trkpt>
      <trkpt lat="39.6844050" lon="2.5428400">
        <ele>294.1</ele>
        <time>2021-06-17T14:45:45Z</time>
      </trkpt>
      <trkpt lat="39.6845140" lon="2.5428200">
        <ele>294.0</ele>
        <time>2021-06-17T14:45:47Z</time>
      </trkpt>
      <trkpt lat="39.6845710" lon="2.5428300">
        <ele>293.9</ele>
        <time>2021-06-17T14:45:48Z</time>
      </trkpt>
      <trkpt lat="39.6846260" lon="2.5428590">
        <ele>293.9</ele>
        <time>2021-06-17T14:45:49Z</time>
      </trkpt>
      <trkpt lat="39.6846720" lon="2.5429010">
        <ele>293.9</ele>
        <time>2021-06-17T14:45:50Z</time>
      </trkpt>
      <trkpt lat="39.6847040" lon="2.5429570">
        <ele>294.0</ele>
        <time>2021-06-17T14:45:51Z</time>
      </trkpt>
      <trkpt lat="39.6847420" lon="2.5430780">
        <ele>294.1</ele>
        <time>2021-06-17T14:45:53Z</time>
      </trkpt>
      <trkpt lat="39.6847690" lon="2.5432620">
        <ele>294.2</ele>
        <time>2021-06-17T14:45:56Z</time>
      </trkpt>
      <trkpt lat="39.6847750" lon="2.5435050">
        <ele>294.4</ele>
        <time>2021-06-17T14:46:00Z</time>
      </trkpt>
      <trkpt lat="39.6847630" lon="2.5436830">
        <ele>294.4</ele>
        <time>2021-06-17T14:46:03Z</time>
      </trkpt>
      <trkpt lat="39.6847410" lon="2.5441970">
        <ele>294.6</ele>
        <time>2021-06-17T14:46:11Z</time>
      </trkpt>
      <trkpt lat="39.6847520" lon="2.5442570">
        <ele>294.6</ele>
        <time>2021-06-17T14:46:12Z</time>
      </trkpt>
      <trkpt lat="39.6847700" lon="2.5443130">
        <ele>294.7</ele>
        <time>2021-06-17T14:46:13Z</time>
      </trkpt>
      <trkpt lat="39.6848630" lon="2.5445110">
        <ele>295.1</ele>
        <time>2021-06-17T14:46:17Z</time>
      </trkpt>
      <trkpt lat="39.6850100" lon="2.5447630">
        <ele>295.6</ele>
        <time>2021-06-17T14:46:22Z</time>
      </trkpt>
      <trkpt lat="39.6850610" lon="2.5448630">
        <ele>295.6</ele>
        <time>2021-06-17T14:46:24Z</time>
      </trkpt>
      <trkpt lat="39.6850820" lon="2.5449220">
        <ele>295.6</ele>
        <time>2021-06-17T14:46:25Z</time>
      </trkpt>
      <trkpt lat="39.6850970" lon="2.5449880">
        <ele>295.5</ele>
        <time>2021-06-17T14:46:26Z</time>
      </trkpt>
      <trkpt lat="39.6850990" lon="2.5451360">
        <ele>295.2</ele>
        <time>2021-06-17T14:46:28Z</time>
      </trkpt>
      <trkpt lat="39.6849870" lon="2.5455080">
        <ele>294.0</ele>
        <time>2021-06-17T14:46:33Z</time>
      </trkpt>
      <trkpt lat="39.6849530" lon="2.5455840">
        <ele>293.7</ele>
        <time>2021-06-17T14:46:34Z</time>
      </trkpt>
      <trkpt lat="39.6848580" lon="2.5457250">
        <ele>292.9</ele>
        <time>2021-06-17T14:46:36Z</time>
      </trkpt>
      <trkpt lat="39.6847980" lon="2.5457900">
        <ele>292.5</ele>
        <time>2021-06-17T14:46:37Z</time>
      </trkpt>
      <trkpt lat="39.6847310" lon="2.5458480">
        <ele>292.1</ele>
        <time>2021-06-17T14:46:38Z</time>
      </trkpt>
      <trkpt lat="39.6845150" lon="2.5459860">
        <ele>291.3</ele>
        <time>2021-06-17T14:46:41Z</time>
      </trkpt>
      <trkpt lat="39.6841670" lon="2.5461510">
        <ele>291.6</ele>
        <time>2021-06-17T14:46:46Z</time>
      </trkpt>
      <trkpt lat="39.6839790" lon="2.5462310">
        <ele>292.4</ele>
        <time>2021-06-17T14:46:49Z</time>
      </trkpt>
      <trkpt lat="39.6839210" lon="2.5462560">
        <ele>292.8</ele>
        <time>2021-06-17T14:46:50Z</time>
      </trkpt>
      <trkpt lat="39.6838670" lon="2.5462850">
        <ele>293.2</ele>
        <time>2021-06-17T14:46:51Z</time>
      </trkpt>
      <trkpt lat="39.6836960" lon="2.5464300">
        <ele>295.1</ele>
        <time>2021-06-17T14:46:55Z</time>
      </trkpt>
      <trkpt lat="39.6835420" lon="2.5466580">
        <ele>297.7</ele>
        <time>2021-06-17T14:47:01Z</time>
      </trkpt>
      <trkpt lat="39.6835090" lon="2.5467820">
        <ele>298.8</ele>
        <time>2021-06-17T14:47:05Z</time>
      </trkpt>
      <trkpt lat="39.6834260" lon="2.5469560">
        <ele>300.2</ele>
        <time>2021-06-17T14:47:11Z</time>
      </trkpt>
      <trkpt lat="39.6833850" lon="2.5470140">
        <ele>300.7</ele>
        <time>2021-06-17T14:47:13Z</time>
      </trkpt>
      <trkpt lat="39.6832440" lon="2.5470470">
        <ele>301.8</ele>
        <time>2021-06-17T14:47:18Z</time>
      </trkpt>
      <trkpt lat="39.6830070" lon="2.5469830">
        <ele>303.5</ele>
        <time>2021-06-17T14:47:26Z</time>
      </trkpt>
      <trkpt lat="39.6829450" lon="2.5469660">
        <ele>304.0</ele>
        <time>2021-06-17T14:47:28Z</time>
      </trkpt>
      <trkpt lat="39.6828610" lon="2.5469390">
        <ele>304.7</ele>
        <time>2021-06-17T14:47:31Z</time>
      </trkpt>
      <trkpt lat="39.6827850" lon="2.5469110">
        <ele>305.3</ele>
        <time>2021-06-17T14:47:34Z</time>
      </trkpt>
      <trkpt lat="39.6827330" lon="2.5468920">
        <ele>305.8</ele>
        <time>2021-06-17T14:47:36Z</time>
      </trkpt>
      <trkpt lat="39.6826750" lon="2.5468840">
        <ele>306.2</ele>
        <time>2021-06-17T14:47:38Z</time>
      </trkpt>
      <trkpt lat="39.6825900" lon="2.5468850">
        <ele>306.9</ele>
        <time>2021-06-17T14:47:41Z</time>
      </trkpt>
      <trkpt lat="39.6825300" lon="2.5469000">
        <ele>307.3</ele>
        <time>2021-06-17T14:47:43Z</time>
      </trkpt>
      <trkpt lat="39.6824260" lon="2.5469860">
        <ele>308.1</ele>
        <time>2021-06-17T14:47:47Z</time>
      </trkpt>
      <trkpt lat="39.6823760" lon="2.5470400">
        <ele>308.6</ele>
        <time>2021-06-17T14:47:49Z</time>
      </trkpt>
      <trkpt lat="39.6822540" lon="2.5472860">
        <ele>310.0</ele>
        <time>2021-06-17T14:47:56Z</time>
      </trkpt>
      <trkpt lat="39.6822030" lon="2.5473940">
        <ele>310.7</ele>
        <time>2021-06-17T14:47:59Z</time>
      </trkpt>
      <trkpt lat="39.6821040" lon="2.5475420">
        <ele>311.9</ele>
        <time>2021-06-17T14:48:04Z</time>
      </trkpt>
      <trkpt lat="39.6819500" lon="2.5477330">
        <ele>313.6</ele>
        <time>2021-06-17T14:48:11Z</time>
      </trkpt>
      <trkpt lat="39.6818150" lon="2.5478640">
        <ele>315.0</ele>
        <time>2021-06-17T14:48:17Z</time>
      </trkpt>
      <trkpt lat="39.6817490" lon="2.5479180">
        <ele>315.7</ele>
        <time>2021-06-17T14:48:20Z</time>
      </trkpt>
      <trkpt lat="39.6816280" lon="2.5480520">
        <ele>317.0</ele>
        <time>2021-06-17T14:48:26Z</time>
      </trkpt>
      <trkpt lat="39.6815610" lon="2.5482490">
        <ele>318.1</ele>
        <time>2021-06-17T14:48:33Z</time>
      </trkpt>
      <trkpt lat="39.6815270" lon="2.5484840">
        <ele>319.4</ele>
        <time>2021-06-17T14:48:40Z</time>
      </trkpt>
      <trkpt lat="39.6814810" lon="2.5486300">
        <ele>320.5</ele>
        <time>2021-06-17T14:48:45Z</time>
      </trkpt>
      <trkpt lat="39.6813540" lon="2.5486940">
        <ele>321.7</ele>
        <time>2021-06-17T14:48:51Z</time>
      </trkpt>
      <trkpt lat="39.6810890" lon="2.5488070">
        <ele>324.1</ele>
        <time>2021-06-17T14:49:02Z</time>
      </trkpt>
      <trkpt lat="39.6809670" lon="2.5489360">
        <ele>324.7</ele>
        <time>2021-06-17T14:49:08Z</time>
      </trkpt>
      <trkpt lat="39.6809250" lon="2.5490530">
        <ele>324.8</ele>
        <time>2021-06-17T14:49:13Z</time>
      </trkpt>
      <trkpt lat="39.6809350" lon="2.5492060">
        <ele>324.5</ele>
        <time>2021-06-17T14:49:20Z</time>
      </trkpt>
      <trkpt lat="39.6809440" lon="2.5492410">
        <ele>324.4</ele>
        <time>2021-06-17T14:49:22Z</time>
      </trkpt>
      <trkpt lat="39.6809650" lon="2.5492930">
        <ele>324.1</ele>
        <time>2021-06-17T14:49:25Z</time>
      </trkpt>
      <trkpt lat="39.6809950" lon="2.5493300">
        <ele>323.9</ele>
        <time>2021-06-17T14:49:28Z</time>
      </trkpt>
      <trkpt lat="39.6810350" lon="2.5493650">
        <ele>323.6</ele>
        <time>2021-06-17T14:49:31Z</time>
      </trkpt>
      <trkpt lat="39.6810830" lon="2.5494490">
        <ele>323.1</ele>
        <time>2021-06-17T14:49:34Z</time>
      </trkpt>
      <trkpt lat="39.6811080" lon="2.5494730">
        <ele>322.9</ele>
        <time>2021-06-17T14:49:35Z</time>
      </trkpt>
      <trkpt lat="39.6811350" lon="2.5494930">
        <ele>322.6</ele>
        <time>2021-06-17T14:49:36Z</time>
      </trkpt>
      <trkpt lat="39.6812260" lon="2.5496050">
        <ele>321.7</ele>
        <time>2021-06-17T14:49:39Z</time>
      </trkpt>
      <trkpt lat="39.6812630" lon="2.5496530">
        <ele>321.3</ele>
        <time>2021-06-17T14:49:40Z</time>
      </trkpt>
      <trkpt lat="39.6813010" lon="2.5496980">
        <ele>320.9</ele>
        <time>2021-06-17T14:49:41Z</time>
      </trkpt>
      <trkpt lat="39.6814720" lon="2.5498840">
        <ele>319.1</ele>
        <time>2021-06-17T14:49:45Z</time>
      </trkpt>
      <trkpt lat="39.6815110" lon="2.5499500">
        <ele>318.5</ele>
        <time>2021-06-17T14:49:46Z</time>
      </trkpt>
      <trkpt lat="39.6815680" lon="2.5501260">
        <ele>317.0</ele>
        <time>2021-06-17T14:49:48Z</time>
      </trkpt>
      <trkpt lat="39.6815890" lon="2.5503530">
        <ele>315.1</ele>
        <time>2021-06-17T14:49:50Z</time>
      </trkpt>
      <trkpt lat="39.6815690" lon="2.5504740">
        <ele>314.1</ele>
        <time>2021-06-17T14:49:51Z</time>
      </trkpt>
      <trkpt lat="39.6815290" lon="2.5505940">
        <ele>313.0</ele>
        <time>2021-06-17T14:49:52Z</time>
      </trkpt>
      <trkpt lat="39.6814050" lon="2.5508210">
        <ele>310.9</ele>
        <time>2021-06-17T14:49:54Z</time>
      </trkpt>
      <trkpt lat="39.6811700" lon="2.5511290">
        <ele>308.4</ele>
        <time>2021-06-17T14:49:57Z</time>
      </trkpt>
      <trkpt lat="39.6810830" lon="2.5512130">
        <ele>307.6</ele>
        <time>2021-06-17T14:49:58Z</time>
      </trkpt>
      <trkpt lat="39.6810090" lon="2.5512660">
        <ele>307.0</ele>
        <time>2021-06-17T14:49:59Z</time>
      </trkpt>
      <trkpt lat="39.6808080" lon="2.5514010">
        <ele>305.4</ele>
        <time>2021-06-17T14:50:01Z</time>
      </trkpt>
      <trkpt lat="39.6806690" lon="2.5515580">
        <ele>304.3</ele>
        <time>2021-06-17T14:50:03Z</time>
      </trkpt>
      <trkpt lat="39.6805990" lon="2.5516860">
        <ele>304.0</ele>
        <time>2021-06-17T14:50:04Z</time>
      </trkpt>
      <trkpt lat="39.6805770" lon="2.5517860">
        <ele>303.8</ele>
        <time>2021-06-17T14:50:05Z</time>
      </trkpt>
      <trkpt lat="39.6805690" lon="2.5519440">
        <ele>303.6</ele>
        <time>2021-06-17T14:50:06Z</time>
      </trkpt>
      <trkpt lat="39.6805810" lon="2.5520700">
        <ele>303.4</ele>
        <time>2021-06-17T14:50:07Z</time>
      </trkpt>
      <trkpt lat="39.6806390" lon="2.5523010">
        <ele>303.0</ele>
        <time>2021-06-17T14:50:09Z</time>
      </trkpt>
      <trkpt lat="39.6806840" lon="2.5525220">
        <ele>302.9</ele>
        <time>2021-06-17T14:50:11Z</time>
      </trkpt>
      <trkpt lat="39.6806820" lon="2.5527290">
        <ele>302.9</ele>
        <time>2021-06-17T14:50:13Z</time>
      </trkpt>
      <trkpt lat="39.6807020" lon="2.5531710">
        <ele>303.7</ele>
        <time>2021-06-17T14:50:18Z</time>
      </trkpt>
      <trkpt lat="39.6807180" lon="2.5532430">
        <ele>303.9</ele>
        <time>2021-06-17T14:50:19Z</time>
      </trkpt>
      <trkpt lat="39.6807780" lon="2.5534250">
        <ele>304.4</ele>
        <time>2021-06-17T14:50:22Z</time>
      </trkpt>
      <trkpt lat="39.6808010" lon="2.5534740">
        <ele>304.6</ele>
        <time>2021-06-17T14:50:23Z</time>
      </trkpt>
      <trkpt lat="39.6808930" lon="2.5536570">
        <ele>305.4</ele>
        <time>2021-06-17T14:50:28Z</time>
      </trkpt>
      <trkpt lat="39.6810220" lon="2.5538430">
        <ele>306.3</ele>
        <time>2021-06-17T14:50:34Z</time>
      </trkpt>
      <trkpt lat="39.6810480" lon="2.5538810">
        <ele>306.5</ele>
        <time>2021-06-17T14:50:38Z</time>
      </trkpt>
      <trkpt lat="39.6810390" lon="2.5538820">
        <ele>306.6</ele>
        <time>2021-06-17T14:50:42Z</time>
      </trkpt>
      <trkpt lat="39.6810390" lon="2.5538820">
        <ele>306.6</ele>
        <time>2021-06-17T14:50:44Z</time>
      </trkpt>
      <trkpt lat="39.6810390" lon="2.5538820">
        <ele>306.6</ele>
        <time>2021-06-17T14:50:58Z</time>
      </trkpt>
      <trkpt lat="39.6810390" lon="2.5538800">
        <ele>306.6</ele>
        <time>2021-06-17T14:51:12Z</time>
      </trkpt>
      <trkpt lat="39.6810390" lon="2.5538770">
        <ele>306.6</ele>
        <time>2021-06-17T14:51:23Z</time>
      </trkpt>
      <trkpt lat="39.6810450" lon="2.5538730">
        <ele>306.6</ele>
        <time>2021-06-17T14:51:27Z</time>
      </trkpt>
      <trkpt lat="39.6810620" lon="2.5538790">
        <ele>306.7</ele>
        <time>2021-06-17T14:51:30Z</time>
      </trkpt>
      <trkpt lat="39.6810990" lon="2.5539050">
        <ele>306.9</ele>
        <time>2021-06-17T14:51:32Z</time>
      </trkpt>
      <trkpt lat="39.6811810" lon="2.5539570">
        <ele>307.4</ele>
        <time>2021-06-17T14:51:36Z</time>
      </trkpt>
      <trkpt lat="39.6812360" lon="2.5539890">
        <ele>307.7</ele>
        <time>2021-06-17T14:51:38Z</time>
      </trkpt>
      <trkpt lat="39.6813490" lon="2.5540750">
        <ele>308.3</ele>
        <time>2021-06-17T14:51:41Z</time>
      </trkpt>
      <trkpt lat="39.6813830" lon="2.5541100">
        <ele>308.5</ele>
        <time>2021-06-17T14:51:42Z</time>
      </trkpt>
      <trkpt lat="39.6814140" lon="2.5541460">
        <ele>308.8</ele>
        <time>2021-06-17T14:51:43Z</time>
      </trkpt>
      <trkpt lat="39.6815200" lon="2.5542960">
        <ele>309.8</ele>
        <time>2021-06-17T14:51:47Z</time>
      </trkpt>
      <trkpt lat="39.6815350" lon="2.5543390">
        <ele>310.1</ele>
        <time>2021-06-17T14:51:48Z</time>
      </trkpt>
      <trkpt lat="39.6816190" lon="2.5546060">
        <ele>311.7</ele>
        <time>2021-06-17T14:51:54Z</time>
      </trkpt>
      <trkpt lat="39.6816320" lon="2.5546950">
        <ele>312.3</ele>
        <time>2021-06-17T14:51:56Z</time>
      </trkpt>
      <trkpt lat="39.6816410" lon="2.5548180">
        <ele>313.2</ele>
        <time>2021-06-17T14:51:59Z</time>
      </trkpt>
      <trkpt lat="39.6816460" lon="2.5549400">
        <ele>314.1</ele>
        <time>2021-06-17T14:52:02Z</time>
      </trkpt>
      <trkpt lat="39.6816510" lon="2.5549810">
        <ele>314.4</ele>
        <time>2021-06-17T14:52:03Z</time>
      </trkpt>
      <trkpt lat="39.6816880" lon="2.5552040">
        <ele>316.3</ele>
        <time>2021-06-17T14:52:08Z</time>
      </trkpt>
      <trkpt lat="39.6817000" lon="2.5553300">
        <ele>317.2</ele>
        <time>2021-06-17T14:52:11Z</time>
      </trkpt>
      <trkpt lat="39.6816900" lon="2.5554470">
        <ele>318.0</ele>
        <time>2021-06-17T14:52:14Z</time>
      </trkpt>
      <trkpt lat="39.6816620" lon="2.5555730">
        <ele>318.5</ele>
        <time>2021-06-17T14:52:18Z</time>
      </trkpt>
      <trkpt lat="39.6816300" lon="2.5556470">
        <ele>318.7</ele>
        <time>2021-06-17T14:52:20Z</time>
      </trkpt>
      <trkpt lat="39.6815690" lon="2.5557410">
        <ele>318.9</ele>
        <time>2021-06-17T14:52:23Z</time>
      </trkpt>
      <trkpt lat="39.6815080" lon="2.5558320">
        <ele>318.9</ele>
        <time>2021-06-17T14:52:25Z</time>
      </trkpt>
      <trkpt lat="39.6814570" lon="2.5559230">
        <ele>318.9</ele>
        <time>2021-06-17T14:52:27Z</time>
      </trkpt>
      <trkpt lat="39.6812550" lon="2.5562740">
        <ele>319.2</ele>
        <time>2021-06-17T14:52:34Z</time>
      </trkpt>
      <trkpt lat="39.6810870" lon="2.5565390">
        <ele>320.1</ele>
        <time>2021-06-17T14:52:39Z</time>
      </trkpt>
      <trkpt lat="39.6810250" lon="2.5566190">
        <ele>320.5</ele>
        <time>2021-06-17T14:52:41Z</time>
      </trkpt>
      <trkpt lat="39.6807240" lon="2.5569340">
        <ele>322.4</ele>
        <time>2021-06-17T14:52:49Z</time>
      </trkpt>
      <trkpt lat="39.6803720" lon="2.5573080">
        <ele>324.7</ele>
        <time>2021-06-17T14:52:59Z</time>
      </trkpt>
      <trkpt lat="39.6801370" lon="2.5575720">
        <ele>326.0</ele>
        <time>2021-06-17T14:53:06Z</time>
      </trkpt>
      <trkpt lat="39.6798810" lon="2.5578440">
        <ele>326.8</ele>
        <time>2021-06-17T14:53:14Z</time>
      </trkpt>
      <trkpt lat="39.6798560" lon="2.5578860">
        <ele>326.8</ele>
        <time>2021-06-17T14:53:15Z</time>
      </trkpt>
      <trkpt lat="39.6798410" lon="2.5579800">
        <ele>327.0</ele>
        <time>2021-06-17T14:53:17Z</time>
      </trkpt>
      <trkpt lat="39.6798520" lon="2.5580250">
        <ele>327.0</ele>
        <time>2021-06-17T14:53:18Z</time>
      </trkpt>
      <trkpt lat="39.6799750" lon="2.5583180">
        <ele>327.0</ele>
        <time>2021-06-17T14:53:24Z</time>
      </trkpt>
      <trkpt lat="39.6800630" lon="2.5585260">
        <ele>327.0</ele>
        <time>2021-06-17T14:53:27Z</time>
      </trkpt>
      <trkpt lat="39.6801180" lon="2.5587080">
        <ele>327.0</ele>
        <time>2021-06-17T14:53:30Z</time>
      </trkpt>
      <trkpt lat="39.6802460" lon="2.5591920">
        <ele>327.2</ele>
        <time>2021-06-17T14:53:37Z</time>
      </trkpt>
      <trkpt lat="39.6803610" lon="2.5596670">
        <ele>328.1</ele>
        <time>2021-06-17T14:53:45Z</time>
      </trkpt>
      <trkpt lat="39.6804010" lon="2.5600700">
        <ele>329.6</ele>
        <time>2021-06-17T14:53:52Z</time>
      </trkpt>
      <trkpt lat="39.6803940" lon="2.5602710">
        <ele>330.7</ele>
        <time>2021-06-17T14:53:56Z</time>
      </trkpt>
      <trkpt lat="39.6803610" lon="2.5604110">
        <ele>331.5</ele>
        <time>2021-06-17T14:53:59Z</time>
      </trkpt>
      <trkpt lat="39.6803220" lon="2.5605850">
        <ele>332.6</ele>
        <time>2021-06-17T14:54:03Z</time>
      </trkpt>
      <trkpt lat="39.6802730" lon="2.5607610">
        <ele>333.6</ele>
        <time>2021-06-17T14:54:07Z</time>
      </trkpt>
      <trkpt lat="39.6801670" lon="2.5611420">
        <ele>335.7</ele>
        <time>2021-06-17T14:54:15Z</time>
      </trkpt>
      <trkpt lat="39.6801060" lon="2.5613830">
        <ele>337.0</ele>
        <time>2021-06-17T14:54:20Z</time>
      </trkpt>
      <trkpt lat="39.6800510" lon="2.5615890">
        <ele>338.0</ele>
        <time>2021-06-17T14:54:24Z</time>
      </trkpt>
      <trkpt lat="39.6800150" lon="2.5617270">
        <ele>338.7</ele>
        <time>2021-06-17T14:54:27Z</time>
      </trkpt>
      <trkpt lat="39.6799210" lon="2.5621160">
        <ele>340.7</ele>
        <time>2021-06-17T14:54:35Z</time>
      </trkpt>
      <trkpt lat="39.6797830" lon="2.5626600">
        <ele>343.5</ele>
        <time>2021-06-17T14:54:46Z</time>
      </trkpt>
      <trkpt lat="39.6796680" lon="2.5631360">
        <ele>345.9</ele>
        <time>2021-06-17T14:54:56Z</time>
      </trkpt>
      <trkpt lat="39.6795710" lon="2.5635150">
        <ele>347.3</ele>
        <time>2021-06-17T14:55:05Z</time>
      </trkpt>
      <trkpt lat="39.6794700" lon="2.5639400">
        <ele>349.0</ele>
        <time>2021-06-17T14:55:15Z</time>
      </trkpt>
      <trkpt lat="39.6794270" lon="2.5643370">
        <ele>350.2</ele>
        <time>2021-06-17T14:55:24Z</time>
      </trkpt>
      <trkpt lat="39.6794900" lon="2.5646660">
        <ele>351.0</ele>
        <time>2021-06-17T14:55:31Z</time>
      </trkpt>
      <trkpt lat="39.6795050" lon="2.5647100">
        <ele>351.1</ele>
        <time>2021-06-17T14:55:32Z</time>
      </trkpt>
      <trkpt lat="39.6796700" lon="2.5650670">
        <ele>352.0</ele>
        <time>2021-06-17T14:55:41Z</time>
      </trkpt>
      <trkpt lat="39.6797700" lon="2.5653690">
        <ele>352.9</ele>
        <time>2021-06-17T14:55:48Z</time>
      </trkpt>
      <trkpt lat="39.6797580" lon="2.5655920">
        <ele>353.9</ele>
        <time>2021-06-17T14:55:53Z</time>
      </trkpt>
      <trkpt lat="39.6797470" lon="2.5656350">
        <ele>354.1</ele>
        <time>2021-06-17T14:55:54Z</time>
      </trkpt>
      <trkpt lat="39.6796490" lon="2.5659210">
        <ele>355.5</ele>
        <time>2021-06-17T14:56:01Z</time>
      </trkpt>
      <trkpt lat="39.6795390" lon="2.5662880">
        <ele>357.2</ele>
        <time>2021-06-17T14:56:09Z</time>
      </trkpt>
      <trkpt lat="39.6794030" lon="2.5667090">
        <ele>359.0</ele>
        <time>2021-06-17T14:56:19Z</time>
      </trkpt>
      <trkpt lat="39.6793370" lon="2.5670740">
        <ele>360.7</ele>
        <time>2021-06-17T14:56:27Z</time>
      </trkpt>
      <trkpt lat="39.6793900" lon="2.5672520">
        <ele>361.1</ele>
        <time>2021-06-17T14:56:31Z</time>
      </trkpt>
      <trkpt lat="39.6794110" lon="2.5672890">
        <ele>361.2</ele>
        <time>2021-06-17T14:56:32Z</time>
      </trkpt>
      <trkpt lat="39.6794410" lon="2.5673230">
        <ele>361.3</ele>
        <time>2021-06-17T14:56:33Z</time>
      </trkpt>
      <trkpt lat="39.6795370" lon="2.5673600">
        <ele>361.7</ele>
        <time>2021-06-17T14:56:36Z</time>
      </trkpt>
      <trkpt lat="39.6799210" lon="2.5673850">
        <ele>363.0</ele>
        <time>2021-06-17T14:56:46Z</time>
      </trkpt>
      <trkpt lat="39.6802070" lon="2.5674150">
        <ele>364.3</ele>
        <time>2021-06-17T14:56:54Z</time>
      </trkpt>
      <trkpt lat="39.6803420" lon="2.5674370">
        <ele>365.1</ele>
        <time>2021-06-17T14:56:58Z</time>
      </trkpt>
      <trkpt lat="39.6805200" lon="2.5674850">
        <ele>366.4</ele>
        <time>2021-06-17T14:57:03Z</time>
      </trkpt>
      <trkpt lat="39.6807740" lon="2.5675750">
        <ele>368.3</ele>
        <time>2021-06-17T14:57:11Z</time>
      </trkpt>
      <trkpt lat="39.6808870" lon="2.5674740">
        <ele>369.2</ele>
        <time>2021-06-17T14:57:15Z</time>
      </trkpt>
      <trkpt lat="39.6809880" lon="2.5672200">
        <ele>370.7</ele>
        <time>2021-06-17T14:57:22Z</time>
      </trkpt>
      <trkpt lat="39.6810590" lon="2.5669550">
        <ele>372.1</ele>
        <time>2021-06-17T14:57:29Z</time>
      </trkpt>
      <trkpt lat="39.6811020" lon="2.5666950">
        <ele>373.5</ele>
        <time>2021-06-17T14:57:36Z</time>
      </trkpt>
      <trkpt lat="39.6811870" lon="2.5663240">
        <ele>375.7</ele>
        <time>2021-06-17T14:57:46Z</time>
      </trkpt>
      <trkpt lat="39.6813020" lon="2.5661100">
        <ele>377.2</ele>
        <time>2021-06-17T14:57:53Z</time>
      </trkpt>
      <trkpt lat="39.6814820" lon="2.5659700">
        <ele>378.9</ele>
        <time>2021-06-17T14:58:00Z</time>
      </trkpt>
      <trkpt lat="39.6816540" lon="2.5659790">
        <ele>380.3</ele>
        <time>2021-06-17T14:58:06Z</time>
      </trkpt>
      <trkpt lat="39.6817990" lon="2.5660780">
        <ele>382.0</ele>
        <time>2021-06-17T14:58:13Z</time>
      </trkpt>
      <trkpt lat="39.6819930" lon="2.5662410">
        <ele>384.2</ele>
        <time>2021-06-17T14:58:23Z</time>
      </trkpt>
      <trkpt lat="39.6822070" lon="2.5664010">
        <ele>386.2</ele>
        <time>2021-06-17T14:58:33Z</time>
      </trkpt>
      <trkpt lat="39.6823920" lon="2.5665660">
        <ele>388.1</ele>
        <time>2021-06-17T14:58:42Z</time>
      </trkpt>
      <trkpt lat="39.6825200" lon="2.5667740">
        <ele>390.1</ele>
        <time>2021-06-17T14:58:50Z</time>
      </trkpt>
      <trkpt lat="39.6826650" lon="2.5670270">
        <ele>392.5</ele>
        <time>2021-06-17T14:58:58Z</time>
      </trkpt>
      <trkpt lat="39.6828370" lon="2.5673080">
        <ele>394.5</ele>
        <time>2021-06-17T14:59:07Z</time>
      </trkpt>
      <trkpt lat="39.6829850" lon="2.5675410">
        <ele>395.4</ele>
        <time>2021-06-17T14:59:15Z</time>
      </trkpt>
      <trkpt lat="39.6831100" lon="2.5677620">
        <ele>395.9</ele>
        <time>2021-06-17T14:59:22Z</time>
      </trkpt>
      <trkpt lat="39.6832200" lon="2.5679770">
        <ele>396.2</ele>
        <time>2021-06-17T14:59:28Z</time>
      </trkpt>
      <trkpt lat="39.6832510" lon="2.5680550">
        <ele>396.4</ele>
        <time>2021-06-17T14:59:30Z</time>
      </trkpt>
      <trkpt lat="39.6833130" lon="2.5683010">
        <ele>397.0</ele>
        <time>2021-06-17T14:59:36Z</time>
      </trkpt>
      <trkpt lat="39.6833130" lon="2.5686810">
        <ele>398.1</ele>
        <time>2021-06-17T14:59:44Z</time>
      </trkpt>
      <trkpt lat="39.6832350" lon="2.5688310">
        <ele>398.6</ele>
        <time>2021-06-17T14:59:48Z</time>
      </trkpt>
      <trkpt lat="39.6831300" lon="2.5689700">
        <ele>399.1</ele>
        <time>2021-06-17T14:59:52Z</time>
      </trkpt>
      <trkpt lat="39.6830140" lon="2.5690980">
        <ele>399.6</ele>
        <time>2021-06-17T14:59:56Z</time>
      </trkpt>
      <trkpt lat="39.6828960" lon="2.5692190">
        <ele>400.1</ele>
        <time>2021-06-17T15:00:00Z</time>
      </trkpt>
      <trkpt lat="39.6827330" lon="2.5694330">
        <ele>401.1</ele>
        <time>2021-06-17T15:00:06Z</time>
      </trkpt>
      <trkpt lat="39.6826690" lon="2.5696530">
        <ele>401.8</ele>
        <time>2021-06-17T15:00:11Z</time>
      </trkpt>
      <trkpt lat="39.6827090" lon="2.5699780">
        <ele>402.8</ele>
        <time>2021-06-17T15:00:18Z</time>
      </trkpt>
      <trkpt lat="39.6828170" lon="2.5705090">
        <ele>404.2</ele>
        <time>2021-06-17T15:00:30Z</time>
      </trkpt>
      <trkpt lat="39.6828910" lon="2.5709040">
        <ele>405.3</ele>
        <time>2021-06-17T15:00:38Z</time>
      </trkpt>
      <trkpt lat="39.6829990" lon="2.5712760">
        <ele>406.9</ele>
        <time>2021-06-17T15:00:46Z</time>
      </trkpt>
      <trkpt lat="39.6831500" lon="2.5714650">
        <ele>408.2</ele>
        <time>2021-06-17T15:00:52Z</time>
      </trkpt>
      <trkpt lat="39.6833650" lon="2.5716190">
        <ele>409.9</ele>
        <time>2021-06-17T15:00:59Z</time>
      </trkpt>
      <trkpt lat="39.6834600" lon="2.5716870">
        <ele>410.7</ele>
        <time>2021-06-17T15:01:02Z</time>
      </trkpt>
      <trkpt lat="39.6836590" lon="2.5718550">
        <ele>412.6</ele>
        <time>2021-06-17T15:01:09Z</time>
      </trkpt>
      <trkpt lat="39.6837590" lon="2.5719290">
        <ele>413.4</ele>
        <time>2021-06-17T15:01:13Z</time>
      </trkpt>
      <trkpt lat="39.6838640" lon="2.5720090">
        <ele>414.4</ele>
        <time>2021-06-17T15:01:17Z</time>
      </trkpt>
      <trkpt lat="39.6841130" lon="2.5722120">
        <ele>416.6</ele>
        <time>2021-06-17T15:01:27Z</time>
      </trkpt>
      <trkpt lat="39.6841980" lon="2.5723790">
        <ele>417.5</ele>
        <time>2021-06-17T15:01:32Z</time>
      </trkpt>
      <trkpt lat="39.6842200" lon="2.5725060">
        <ele>418.1</ele>
        <time>2021-06-17T15:01:35Z</time>
      </trkpt>
      <trkpt lat="39.6842020" lon="2.5726280">
        <ele>418.6</ele>
        <time>2021-06-17T15:01:38Z</time>
      </trkpt>
      <trkpt lat="39.6840880" lon="2.5729020">
        <ele>419.6</ele>
        <time>2021-06-17T15:01:45Z</time>
      </trkpt>
      <trkpt lat="39.6839050" lon="2.5732880">
        <ele>420.6</ele>
        <time>2021-06-17T15:01:54Z</time>
      </trkpt>
      <trkpt lat="39.6838640" lon="2.5734990">
        <ele>421.1</ele>
        <time>2021-06-17T15:01:59Z</time>
      </trkpt>
      <trkpt lat="39.6839220" lon="2.5736390">
        <ele>421.5</ele>
        <time>2021-06-17T15:02:03Z</time>
      </trkpt>
      <trkpt lat="39.6840910" lon="2.5736910">
        <ele>422.4</ele>
        <time>2021-06-17T15:02:08Z</time>
      </trkpt>
      <trkpt lat="39.6844200" lon="2.5736970">
        <ele>424.3</ele>
        <time>2021-06-17T15:02:18Z</time>
      </trkpt>
      <trkpt lat="39.6846460" lon="2.5736850">
        <ele>425.6</ele>
        <time>2021-06-17T15:02:25Z</time>
      </trkpt>
      <trkpt lat="39.6849060" lon="2.5735410">
        <ele>427.1</ele>
        <time>2021-06-17T15:02:33Z</time>
      </trkpt>
      <trkpt lat="39.6851650" lon="2.5733720">
        <ele>428.6</ele>
        <time>2021-06-17T15:02:42Z</time>
      </trkpt>
      <trkpt lat="39.6854170" lon="2.5732730">
        <ele>430.4</ele>
        <time>2021-06-17T15:02:51Z</time>
      </trkpt>
      <trkpt lat="39.6856830" lon="2.5732570">
        <ele>432.5</ele>
        <time>2021-06-17T15:03:00Z</time>
      </trkpt>
      <trkpt lat="39.6859070" lon="2.5733000">
        <ele>434.0</ele>
        <time>2021-06-17T15:03:08Z</time>
      </trkpt>
      <trkpt lat="39.6860180" lon="2.5734670">
        <ele>434.9</ele>
        <time>2021-06-17T15:03:14Z</time>
      </trkpt>
      <trkpt lat="39.6860960" lon="2.5737470">
        <ele>435.8</ele>
        <time>2021-06-17T15:03:23Z</time>
      </trkpt>
      <trkpt lat="39.6861530" lon="2.5740050">
        <ele>436.3</ele>
        <time>2021-06-17T15:03:30Z</time>
      </trkpt>
      <trkpt lat="39.6861960" lon="2.5741900">
        <ele>436.6</ele>
        <time>2021-06-17T15:03:34Z</time>
      </trkpt>
      <trkpt lat="39.6862010" lon="2.5743310">
        <ele>436.7</ele>
        <time>2021-06-17T15:03:37Z</time>
      </trkpt>
      <trkpt lat="39.6861470" lon="2.5744660">
        <ele>436.8</ele>
        <time>2021-06-17T15:03:40Z</time>
      </trkpt>
      <trkpt lat="39.6860900" lon="2.5745390">
        <ele>436.9</ele>
        <time>2021-06-17T15:03:42Z</time>
      </trkpt>
      <trkpt lat="39.6859660" lon="2.5746860">
        <ele>437.1</ele>
        <time>2021-06-17T15:03:47Z</time>
      </trkpt>
      <trkpt lat="39.6859560" lon="2.5748400">
        <ele>437.3</ele>
        <time>2021-06-17T15:03:51Z</time>
      </trkpt>
      <trkpt lat="39.6860590" lon="2.5749910">
        <ele>437.7</ele>
        <time>2021-06-17T15:03:56Z</time>
      </trkpt>
      <trkpt lat="39.6863050" lon="2.5750420">
        <ele>438.7</ele>
        <time>2021-06-17T15:04:03Z</time>
      </trkpt>
      <trkpt lat="39.6864400" lon="2.5750720">
        <ele>439.5</ele>
        <time>2021-06-17T15:04:07Z</time>
      </trkpt>
      <trkpt lat="39.6866420" lon="2.5751380">
        <ele>441.0</ele>
        <time>2021-06-17T15:04:13Z</time>
      </trkpt>
      <trkpt lat="39.6868520" lon="2.5753660">
        <ele>443.3</ele>
        <time>2021-06-17T15:04:21Z</time>
      </trkpt>
      <trkpt lat="39.6869950" lon="2.5755410">
        <ele>444.8</ele>
        <time>2021-06-17T15:04:27Z</time>
      </trkpt>
      <trkpt lat="39.6870760" lon="2.5756070">
        <ele>445.4</ele>
        <time>2021-06-17T15:04:30Z</time>
      </trkpt>
      <trkpt lat="39.6871990" lon="2.5755930">
        <ele>446.0</ele>
        <time>2021-06-17T15:04:34Z</time>
      </trkpt>
      <trkpt lat="39.6874220" lon="2.5754120">
        <ele>447.1</ele>
        <time>2021-06-17T15:04:41Z</time>
      </trkpt>
      <trkpt lat="39.6876650" lon="2.5752920">
        <ele>448.5</ele>
        <time>2021-06-17T15:04:48Z</time>
      </trkpt>
      <trkpt lat="39.6878140" lon="2.5753590">
        <ele>449.5</ele>
        <time>2021-06-17T15:04:52Z</time>
      </trkpt>
      <trkpt lat="39.6880030" lon="2.5754410">
        <ele>450.8</ele>
        <time>2021-06-17T15:04:58Z</time>
      </trkpt>
      <trkpt lat="39.6882810" lon="2.5753450">
        <ele>453.0</ele>
        <time>2021-06-17T15:05:06Z</time>
      </trkpt>
      <trkpt lat="39.6884890" lon="2.5753140">
        <ele>454.8</ele>
        <time>2021-06-17T15:05:13Z</time>
      </trkpt>
      <trkpt lat="39.6887190" lon="2.5753170">
        <ele>456.7</ele>
        <time>2021-06-17T15:05:21Z</time>
      </trkpt>
      <trkpt lat="39.6889900" lon="2.5753040">
        <ele>459.2</ele>
        <time>2021-06-17T15:05:30Z</time>
      </trkpt>
      <trkpt lat="39.6890520" lon="2.5752070">
        <ele>460.0</ele>
        <time>2021-06-17T15:05:34Z</time>
      </trkpt>
      <trkpt lat="39.6890370" lon="2.5751070">
        <ele>460.6</ele>
        <time>2021-06-17T15:05:37Z</time>
      </trkpt>
      <trkpt lat="39.6890150" lon="2.5750840">
        <ele>460.8</ele>
        <time>2021-06-17T15:05:38Z</time>
      </trkpt>
      <trkpt lat="39.6888650" lon="2.5750600">
        <ele>461.6</ele>
        <time>2021-06-17T15:05:43Z</time>
      </trkpt>
      <trkpt lat="39.6885770" lon="2.5750690">
        <ele>462.5</ele>
        <time>2021-06-17T15:05:52Z</time>
      </trkpt>
      <trkpt lat="39.6883180" lon="2.5750260">
        <ele>462.8</ele>
        <time>2021-06-17T15:05:59Z</time>
      </trkpt>
      <trkpt lat="39.6880840" lon="2.5750070">
        <ele>462.6</ele>
        <time>2021-06-17T15:06:05Z</time>
      </trkpt>
      <trkpt lat="39.6879140" lon="2.5749750">
        <ele>462.5</ele>
        <time>2021-06-17T15:06:09Z</time>
      </trkpt>
      <trkpt lat="39.6876960" lon="2.5749270">
        <ele>462.3</ele>
        <time>2021-06-17T15:06:14Z</time>
      </trkpt>
      <trkpt lat="39.6874760" lon="2.5748910">
        <ele>462.1</ele>
        <time>2021-06-17T15:06:19Z</time>
      </trkpt>
      <trkpt lat="39.6873490" lon="2.5748600">
        <ele>462.0</ele>
        <time>2021-06-17T15:06:22Z</time>
      </trkpt>
      <trkpt lat="39.6872790" lon="2.5748020">
        <ele>461.9</ele>
        <time>2021-06-17T15:06:24Z</time>
      </trkpt>
      <trkpt lat="39.6872360" lon="2.5747110">
        <ele>461.8</ele>
        <time>2021-06-17T15:06:26Z</time>
      </trkpt>
      <trkpt lat="39.6872310" lon="2.5746030">
        <ele>461.6</ele>
        <time>2021-06-17T15:06:28Z</time>
      </trkpt>
      <trkpt lat="39.6872490" lon="2.5744940">
        <ele>461.5</ele>
        <time>2021-06-17T15:06:30Z</time>
      </trkpt>
      <trkpt lat="39.6872600" lon="2.5744400">
        <ele>461.4</ele>
        <time>2021-06-17T15:06:31Z</time>
      </trkpt>
      <trkpt lat="39.6873540" lon="2.5741190">
        <ele>461.5</ele>
        <time>2021-06-17T15:06:37Z</time>
      </trkpt>
      <trkpt lat="39.6873770" lon="2.5740070">
        <ele>461.7</ele>
        <time>2021-06-17T15:06:39Z</time>
      </trkpt>
      <trkpt lat="39.6873740" lon="2.5738600">
        <ele>462.0</ele>
        <time>2021-06-17T15:06:42Z</time>
      </trkpt>
      <trkpt lat="39.6873660" lon="2.5738120">
        <ele>462.1</ele>
        <time>2021-06-17T15:06:43Z</time>
      </trkpt>
      <trkpt lat="39.6873070" lon="2.5736940">
        <ele>462.4</ele>
        <time>2021-06-17T15:06:46Z</time>
      </trkpt>
      <trkpt lat="39.6872140" lon="2.5736390">
        <ele>462.6</ele>
        <time>2021-06-17T15:06:50Z</time>
      </trkpt>
      <trkpt lat="39.6870260" lon="2.5735850">
        <ele>463.2</ele>
        <time>2021-06-17T15:06:56Z</time>
      </trkpt>
      <trkpt lat="39.6868260" lon="2.5735360">
        <ele>463.9</ele>
        <time>2021-06-17T15:07:02Z</time>
      </trkpt>
      <trkpt lat="39.6866660" lon="2.5734080">
        <ele>464.5</ele>
        <time>2021-06-17T15:07:08Z</time>
      </trkpt>
      <trkpt lat="39.6866570" lon="2.5732560">
        <ele>464.8</ele>
        <time>2021-06-17T15:07:12Z</time>
      </trkpt>
      <trkpt lat="39.6867080" lon="2.5729980">
        <ele>465.7</ele>
        <time>2021-06-17T15:07:19Z</time>
      </trkpt>
      <trkpt lat="39.6867580" lon="2.5727580">
        <ele>467.0</ele>
        <time>2021-06-17T15:07:26Z</time>
      </trkpt>
      <trkpt lat="39.6868400" lon="2.5725900">
        <ele>468.5</ele>
        <time>2021-06-17T15:07:32Z</time>
      </trkpt>
      <trkpt lat="39.6869160" lon="2.5725680">
        <ele>469.2</ele>
        <time>2021-06-17T15:07:35Z</time>
      </trkpt>
      <trkpt lat="39.6869330" lon="2.5725820">
        <ele>469.4</ele>
        <time>2021-06-17T15:07:36Z</time>
      </trkpt>
      <trkpt lat="39.6869560" lon="2.5726140">
        <ele>469.6</ele>
        <time>2021-06-17T15:07:37Z</time>
      </trkpt>
      <trkpt lat="39.6869750" lon="2.5726850">
        <ele>470.0</ele>
        <time>2021-06-17T15:07:39Z</time>
      </trkpt>
      <trkpt lat="39.6869790" lon="2.5727230">
        <ele>470.2</ele>
        <time>2021-06-17T15:07:40Z</time>
      </trkpt>
      <trkpt lat="39.6870120" lon="2.5730220">
        <ele>471.6</ele>
        <time>2021-06-17T15:07:48Z</time>
      </trkpt>
      <trkpt lat="39.6870580" lon="2.5732410">
        <ele>472.7</ele>
        <time>2021-06-17T15:07:54Z</time>
      </trkpt>
      <trkpt lat="39.6871810" lon="2.5733510">
        <ele>473.4</ele>
        <time>2021-06-17T15:07:59Z</time>
      </trkpt>
      <trkpt lat="39.6872740" lon="2.5733860">
        <ele>473.8</ele>
        <time>2021-06-17T15:08:02Z</time>
      </trkpt>
      <trkpt lat="39.6873410" lon="2.5734130">
        <ele>474.1</ele>
        <time>2021-06-17T15:08:04Z</time>
      </trkpt>
      <trkpt lat="39.6874460" lon="2.5734400">
        <ele>474.5</ele>
        <time>2021-06-17T15:08:07Z</time>
      </trkpt>
      <trkpt lat="39.6876050" lon="2.5735590">
        <ele>475.4</ele>
        <time>2021-06-17T15:08:12Z</time>
      </trkpt>
      <trkpt lat="39.6876660" lon="2.5737320">
        <ele>476.1</ele>
        <time>2021-06-17T15:08:16Z</time>
      </trkpt>
      <trkpt lat="39.6877210" lon="2.5739740">
        <ele>477.2</ele>
        <time>2021-06-17T15:08:22Z</time>
      </trkpt>
      <trkpt lat="39.6878370" lon="2.5742500">
        <ele>478.6</ele>
        <time>2021-06-17T15:08:29Z</time>
      </trkpt>
      <trkpt lat="39.6880470" lon="2.5744730">
        <ele>480.4</ele>
        <time>2021-06-17T15:08:37Z</time>
      </trkpt>
      <trkpt lat="39.6881540" lon="2.5744910">
        <ele>481.1</ele>
        <time>2021-06-17T15:08:40Z</time>
      </trkpt>
      <trkpt lat="39.6882490" lon="2.5744920">
        <ele>481.8</ele>
        <time>2021-06-17T15:08:43Z</time>
      </trkpt>
      <trkpt lat="39.6884980" lon="2.5744660">
        <ele>483.2</ele>
        <time>2021-06-17T15:08:51Z</time>
      </trkpt>
      <trkpt lat="39.6888250" lon="2.5744330">
        <ele>485.2</ele>
        <time>2021-06-17T15:09:01Z</time>
      </trkpt>
      <trkpt lat="39.6891180" lon="2.5744030">
        <ele>487.4</ele>
        <time>2021-06-17T15:09:10Z</time>
      </trkpt>
      <trkpt lat="39.6893410" lon="2.5743930">
        <ele>489.0</ele>
        <time>2021-06-17T15:09:17Z</time>
      </trkpt>
      <trkpt lat="39.6896050" lon="2.5743740">
        <ele>490.8</ele>
        <time>2021-06-17T15:09:25Z</time>
      </trkpt>
      <trkpt lat="39.6897730" lon="2.5743670">
        <ele>491.8</ele>
        <time>2021-06-17T15:09:30Z</time>
      </trkpt>
      <trkpt lat="39.6899070" lon="2.5744170">
        <ele>492.6</ele>
        <time>2021-06-17T15:09:35Z</time>
      </trkpt>
      <trkpt lat="39.6900910" lon="2.5745130">
        <ele>493.7</ele>
        <time>2021-06-17T15:09:41Z</time>
      </trkpt>
      <trkpt lat="39.6903350" lon="2.5747020">
        <ele>495.2</ele>
        <time>2021-06-17T15:09:50Z</time>
      </trkpt>
      <trkpt lat="39.6904900" lon="2.5747910">
        <ele>495.8</ele>
        <time>2021-06-17T15:09:57Z</time>
      </trkpt>
      <trkpt lat="39.6906420" lon="2.5748590">
        <ele>495.9</ele>
        <time>2021-06-17T15:10:05Z</time>
      </trkpt>
      <trkpt lat="39.6908540" lon="2.5749040">
        <ele>495.7</ele>
        <time>2021-06-17T15:10:14Z</time>
      </trkpt>
      <trkpt lat="39.6909250" lon="2.5749200">
        <ele>495.6</ele>
        <time>2021-06-17T15:10:17Z</time>
      </trkpt>
      <trkpt lat="39.6910440" lon="2.5749370">
        <ele>495.2</ele>
        <time>2021-06-17T15:10:22Z</time>
      </trkpt>
      <trkpt lat="39.6911680" lon="2.5749470">
        <ele>494.8</ele>
        <time>2021-06-17T15:10:26Z</time>
      </trkpt>
      <trkpt lat="39.6912940" lon="2.5749680">
        <ele>494.3</ele>
        <time>2021-06-17T15:10:30Z</time>
      </trkpt>
      <trkpt lat="39.6914790" lon="2.5750410">
        <ele>493.7</ele>
        <time>2021-06-17T15:10:37Z</time>
      </trkpt>
      <trkpt lat="39.6914790" lon="2.5750410">
        <ele>493.7</ele>
        <time>2021-06-17T15:10:39Z</time>
      </trkpt>
      <trkpt lat="39.6914730" lon="2.5750430">
        <ele>493.6</ele>
        <time>2021-06-17T15:10:42Z</time>
      </trkpt>
      <trkpt lat="39.6914730" lon="2.5750430">
        <ele>493.6</ele>
        <time>2021-06-17T15:10:47Z</time>
      </trkpt>
      <trkpt lat="39.6914730" lon="2.5750430">
        <ele>493.6</ele>
        <time>2021-06-17T15:10:49Z</time>
      </trkpt>
      <trkpt lat="39.6914730" lon="2.5750430">
        <ele>493.6</ele>
        <time>2021-06-17T15:10:51Z</time>
      </trkpt>
      <trkpt lat="39.6914730" lon="2.5750430">
        <ele>493.6</ele>
        <time>2021-06-17T15:11:05Z</time>
      </trkpt>
      <trkpt lat="39.6914730" lon="2.5750430">
        <ele>493.6</ele>
        <time>2021-06-17T15:11:14Z</time>
      </trkpt>
      <trkpt lat="39.6914730" lon="2.5750430">
        <ele>493.6</ele>
        <time>2021-06-17T15:11:25Z</time>
      </trkpt>
      <trkpt lat="39.6914730" lon="2.5750430">
        <ele>493.6</ele>
        <time>2021-06-17T15:11:28Z</time>
      </trkpt>
      <trkpt lat="39.6914730" lon="2.5750430">
        <ele>493.6</ele>
        <time>2021-06-17T15:11:32Z</time>
      </trkpt>
      <trkpt lat="39.6914820" lon="2.5750990">
        <ele>493.5</ele>
        <time>2021-06-17T15:11:43Z</time>
      </trkpt>
      <trkpt lat="39.6915030" lon="2.5751780">
        <ele>493.2</ele>
        <time>2021-06-17T15:11:51Z</time>
      </trkpt>
      <trkpt lat="39.6915030" lon="2.5751780">
        <ele>493.2</ele>
        <time>2021-06-17T15:11:54Z</time>
      </trkpt>
      <trkpt lat="39.6915030" lon="2.5751780">
        <ele>493.2</ele>
        <time>2021-06-17T15:11:55Z</time>
      </trkpt>
      <trkpt lat="39.6915030" lon="2.5751780">
        <ele>493.2</ele>
        <time>2021-06-17T15:11:58Z</time>
      </trkpt>
      <trkpt lat="39.6915030" lon="2.5751780">
        <ele>493.2</ele>
        <time>2021-06-17T15:12:01Z</time>
      </trkpt>
      <trkpt lat="39.6915030" lon="2.5751780">
        <ele>493.2</ele>
        <time>2021-06-17T15:12:16Z</time>
      </trkpt>
      <trkpt lat="39.6915020" lon="2.5751770">
        <ele>493.2</ele>
        <time>2021-06-17T15:12:28Z</time>
      </trkpt>
      <trkpt lat="39.6915020" lon="2.5751770">
        <ele>493.2</ele>
        <time>2021-06-17T15:12:40Z</time>
      </trkpt>
      <trkpt lat="39.6915030" lon="2.5751780">
        <ele>493.2</ele>
        <time>2021-06-17T15:12:49Z</time>
      </trkpt>
      <trkpt lat="39.6915010" lon="2.5751930">
        <ele>493.2</ele>
        <time>2021-06-17T15:13:01Z</time>
      </trkpt>
      <trkpt lat="39.6915010" lon="2.5751930">
        <ele>493.2</ele>
        <time>2021-06-17T15:13:07Z</time>
      </trkpt>
      <trkpt lat="39.6914760" lon="2.5751980">
        <ele>493.1</ele>
        <time>2021-06-17T15:14:07Z</time>
      </trkpt>
      <trkpt lat="39.6914480" lon="2.5751650">
        <ele>493.0</ele>
        <time>2021-06-17T15:14:09Z</time>
      </trkpt>
      <trkpt lat="39.6914370" lon="2.5751460">
        <ele>492.9</ele>
        <time>2021-06-17T15:14:10Z</time>
      </trkpt>
      <trkpt lat="39.6914340" lon="2.5750620">
        <ele>492.7</ele>
        <time>2021-06-17T15:14:13Z</time>
      </trkpt>
      <trkpt lat="39.6914670" lon="2.5750140">
        <ele>492.5</ele>
        <time>2021-06-17T15:14:15Z</time>
      </trkpt>
      <trkpt lat="39.6915040" lon="2.5750160">
        <ele>492.4</ele>
        <time>2021-06-17T15:14:17Z</time>
      </trkpt>
      <trkpt lat="39.6915360" lon="2.5750170">
        <ele>492.3</ele>
        <time>2021-06-17T15:14:21Z</time>
      </trkpt>
      <trkpt lat="39.6915350" lon="2.5750200">
        <ele>492.3</ele>
        <time>2021-06-17T15:14:24Z</time>
      </trkpt>
      <trkpt lat="39.6915350" lon="2.5750200">
        <ele>492.3</ele>
        <time>2021-06-17T15:14:28Z</time>
      </trkpt>
      <trkpt lat="39.6915350" lon="2.5750200">
        <ele>492.3</ele>
        <time>2021-06-17T15:14:29Z</time>
      </trkpt>
      <trkpt lat="39.6915360" lon="2.5750290">
        <ele>492.2</ele>
        <time>2021-06-17T15:14:40Z</time>
      </trkpt>
      <trkpt lat="39.6915480" lon="2.5750330">
        <ele>492.2</ele>
        <time>2021-06-17T15:15:12Z</time>
      </trkpt>
      <trkpt lat="39.6916060" lon="2.5750400">
        <ele>492.0</ele>
        <time>2021-06-17T15:15:15Z</time>
      </trkpt>
      <trkpt lat="39.6917730" lon="2.5750310">
        <ele>491.4</ele>
        <time>2021-06-17T15:15:21Z</time>
      </trkpt>
      <trkpt lat="39.6918420" lon="2.5750340">
        <ele>491.2</ele>
        <time>2021-06-17T15:15:23Z</time>
      </trkpt>
      <trkpt lat="39.6920360" lon="2.5750510">
        <ele>490.4</ele>
        <time>2021-06-17T15:15:28Z</time>
      </trkpt>
      <trkpt lat="39.6923560" lon="2.5750790">
        <ele>489.0</ele>
        <time>2021-06-17T15:15:35Z</time>
      </trkpt>
      <trkpt lat="39.6924570" lon="2.5750950">
        <ele>488.4</ele>
        <time>2021-06-17T15:15:37Z</time>
      </trkpt>
      <trkpt lat="39.6925010" lon="2.5751070">
        <ele>488.1</ele>
        <time>2021-06-17T15:15:38Z</time>
      </trkpt>
      <trkpt lat="39.6925810" lon="2.5751510">
        <ele>487.6</ele>
        <time>2021-06-17T15:15:40Z</time>
      </trkpt>
      <trkpt lat="39.6927060" lon="2.5753350">
        <ele>486.3</ele>
        <time>2021-06-17T15:15:44Z</time>
      </trkpt>
      <trkpt lat="39.6927340" lon="2.5753970">
        <ele>485.9</ele>
        <time>2021-06-17T15:15:45Z</time>
      </trkpt>
      <trkpt lat="39.6928960" lon="2.5757380">
        <ele>483.7</ele>
        <time>2021-06-17T15:15:50Z</time>
      </trkpt>
      <trkpt lat="39.6930480" lon="2.5760590">
        <ele>481.7</ele>
        <time>2021-06-17T15:15:54Z</time>
      </trkpt>
      <trkpt lat="39.6931020" lon="2.5761370">
        <ele>481.1</ele>
        <time>2021-06-17T15:15:55Z</time>
      </trkpt>
      <trkpt lat="39.6931640" lon="2.5762120">
        <ele>480.5</ele>
        <time>2021-06-17T15:15:56Z</time>
      </trkpt>
      <trkpt lat="39.6934260" lon="2.5764910">
        <ele>478.3</ele>
        <time>2021-06-17T15:16:00Z</time>
      </trkpt>
      <trkpt lat="39.6937490" lon="2.5768670">
        <ele>475.3</ele>
        <time>2021-06-17T15:16:05Z</time>
      </trkpt>
      <trkpt lat="39.6937910" lon="2.5769620">
        <ele>474.7</ele>
        <time>2021-06-17T15:16:06Z</time>
      </trkpt>
      <trkpt lat="39.6938160" lon="2.5770710">
        <ele>474.2</ele>
        <time>2021-06-17T15:16:07Z</time>
      </trkpt>
      <trkpt lat="39.6938390" lon="2.5773040">
        <ele>473.1</ele>
        <time>2021-06-17T15:16:09Z</time>
      </trkpt>
      <trkpt lat="39.6938680" lon="2.5778000">
        <ele>471.1</ele>
        <time>2021-06-17T15:16:13Z</time>
      </trkpt>
      <trkpt lat="39.6938740" lon="2.5779270">
        <ele>470.6</ele>
        <time>2021-06-17T15:16:14Z</time>
      </trkpt>
      <trkpt lat="39.6938730" lon="2.5785680">
        <ele>468.1</ele>
        <time>2021-06-17T15:16:19Z</time>
      </trkpt>
      <trkpt lat="39.6938540" lon="2.5793850">
        <ele>464.7</ele>
        <time>2021-06-17T15:16:25Z</time>
      </trkpt>
      <trkpt lat="39.6939360" lon="2.5797580">
        <ele>463.3</ele>
        <time>2021-06-17T15:16:28Z</time>
      </trkpt>
      <trkpt lat="39.6939800" lon="2.5798670">
        <ele>463.0</ele>
        <time>2021-06-17T15:16:29Z</time>
      </trkpt>
      <trkpt lat="39.6941170" lon="2.5800300">
        <ele>462.3</ele>
        <time>2021-06-17T15:16:31Z</time>
      </trkpt>
      <trkpt lat="39.6943120" lon="2.5800400">
        <ele>461.3</ele>
        <time>2021-06-17T15:16:33Z</time>
      </trkpt>
      <trkpt lat="39.6947920" lon="2.5799070">
        <ele>458.9</ele>
        <time>2021-06-17T15:16:38Z</time>
      </trkpt>
      <trkpt lat="39.6952250" lon="2.5797330">
        <ele>457.1</ele>
        <time>2021-06-17T15:16:43Z</time>
      </trkpt>
      <trkpt lat="39.6953060" lon="2.5796700">
        <ele>456.7</ele>
        <time>2021-06-17T15:16:44Z</time>
      </trkpt>
      <trkpt lat="39.6956780" lon="2.5792810">
        <ele>454.2</ele>
        <time>2021-06-17T15:16:49Z</time>
      </trkpt>
      <trkpt lat="39.6961440" lon="2.5787660">
        <ele>450.5</ele>
        <time>2021-06-17T15:16:55Z</time>
      </trkpt>
      <trkpt lat="39.6963120" lon="2.5785860">
        <ele>449.1</ele>
        <time>2021-06-17T15:16:57Z</time>
      </trkpt>
      <trkpt lat="39.6965070" lon="2.5784520">
        <ele>447.7</ele>
        <time>2021-06-17T15:16:59Z</time>
      </trkpt>
      <trkpt lat="39.6967260" lon="2.5784130">
        <ele>446.2</ele>
        <time>2021-06-17T15:17:01Z</time>
      </trkpt>
      <trkpt lat="39.6968400" lon="2.5784210">
        <ele>445.4</ele>
        <time>2021-06-17T15:17:02Z</time>
      </trkpt>
      <trkpt lat="39.6974280" lon="2.5785640">
        <ele>441.8</ele>
        <time>2021-06-17T15:17:07Z</time>
      </trkpt>
      <trkpt lat="39.6980190" lon="2.5787170">
        <ele>438.3</ele>
        <time>2021-06-17T15:17:12Z</time>
      </trkpt>
      <trkpt lat="39.6986040" lon="2.5788760">
        <ele>435.3</ele>
        <time>2021-06-17T15:17:17Z</time>
      </trkpt>
      <trkpt lat="39.6987190" lon="2.5789100">
        <ele>434.9</ele>
        <time>2021-06-17T15:17:18Z</time>
      </trkpt>
      <trkpt lat="39.6988280" lon="2.5789560">
        <ele>434.4</ele>
        <time>2021-06-17T15:17:19Z</time>
      </trkpt>
      <trkpt lat="39.6990330" lon="2.5790870">
        <ele>433.4</ele>
        <time>2021-06-17T15:17:21Z</time>
      </trkpt>
      <trkpt lat="39.6995700" lon="2.5795210">
        <ele>429.8</ele>
        <time>2021-06-17T15:17:27Z</time>
      </trkpt>
      <trkpt lat="39.6996580" lon="2.5797440">
        <ele>429.2</ele>
        <time>2021-06-17T15:17:29Z</time>
      </trkpt>
      <trkpt lat="39.6996630" lon="2.5800100">
        <ele>428.0</ele>
        <time>2021-06-17T15:17:31Z</time>
      </trkpt>
      <trkpt lat="39.6996550" lon="2.5801530">
        <ele>427.2</ele>
        <time>2021-06-17T15:17:32Z</time>
      </trkpt>
      <trkpt lat="39.6996580" lon="2.5802980">
        <ele>426.3</ele>
        <time>2021-06-17T15:17:33Z</time>
      </trkpt>
      <trkpt lat="39.6997330" lon="2.5805700">
        <ele>424.7</ele>
        <time>2021-06-17T15:17:35Z</time>
      </trkpt>
      <trkpt lat="39.6997950" lon="2.5806890">
        <ele>423.8</ele>
        <time>2021-06-17T15:17:36Z</time>
      </trkpt>
      <trkpt lat="39.6998740" lon="2.5807940">
        <ele>423.0</ele>
        <time>2021-06-17T15:17:37Z</time>
      </trkpt>
      <trkpt lat="39.7000270" lon="2.5810150">
        <ele>421.4</ele>
        <time>2021-06-17T15:17:39Z</time>
      </trkpt>
      <trkpt lat="39.7000750" lon="2.5811490">
        <ele>420.7</ele>
        <time>2021-06-17T15:17:40Z</time>
      </trkpt>
      <trkpt lat="39.7000960" lon="2.5812950">
        <ele>420.1</ele>
        <time>2021-06-17T15:17:41Z</time>
      </trkpt>
      <trkpt lat="39.7001060" lon="2.5815960">
        <ele>418.8</ele>
        <time>2021-06-17T15:17:43Z</time>
      </trkpt>
      <trkpt lat="39.7001060" lon="2.5823090">
        <ele>416.5</ele>
        <time>2021-06-17T15:17:48Z</time>
      </trkpt>
      <trkpt lat="39.7001070" lon="2.5824500">
        <ele>416.1</ele>
        <time>2021-06-17T15:17:49Z</time>
      </trkpt>
      <trkpt lat="39.7000610" lon="2.5830990">
        <ele>414.4</ele>
        <time>2021-06-17T15:17:54Z</time>
      </trkpt>
      <trkpt lat="39.7000220" lon="2.5833340">
        <ele>413.8</ele>
        <time>2021-06-17T15:17:56Z</time>
      </trkpt>
      <trkpt lat="39.6999700" lon="2.5836970">
        <ele>412.7</ele>
        <time>2021-06-17T15:17:59Z</time>
      </trkpt>
      <trkpt lat="39.6999520" lon="2.5839450">
        <ele>411.9</ele>
        <time>2021-06-17T15:18:01Z</time>
      </trkpt>
      <trkpt lat="39.6999610" lon="2.5840680">
        <ele>411.5</ele>
        <time>2021-06-17T15:18:02Z</time>
      </trkpt>
      <trkpt lat="39.6999910" lon="2.5841900">
        <ele>411.0</ele>
        <time>2021-06-17T15:18:03Z</time>
      </trkpt>
      <trkpt lat="39.7001030" lon="2.5844050">
        <ele>409.9</ele>
        <time>2021-06-17T15:18:05Z</time>
      </trkpt>
      <trkpt lat="39.7002570" lon="2.5845730">
        <ele>408.8</ele>
        <time>2021-06-17T15:18:07Z</time>
      </trkpt>
      <trkpt lat="39.7005030" lon="2.5848340">
        <ele>407.0</ele>
        <time>2021-06-17T15:18:10Z</time>
      </trkpt>
      <trkpt lat="39.7009320" lon="2.5852840">
        <ele>403.5</ele>
        <time>2021-06-17T15:18:15Z</time>
      </trkpt>
      <trkpt lat="39.7010150" lon="2.5853810">
        <ele>402.7</ele>
        <time>2021-06-17T15:18:16Z</time>
      </trkpt>
      <trkpt lat="39.7011760" lon="2.5855940">
        <ele>401.1</ele>
        <time>2021-06-17T15:18:18Z</time>
      </trkpt>
      <trkpt lat="39.7014980" lon="2.5860390">
        <ele>398.1</ele>
        <time>2021-06-17T15:18:22Z</time>
      </trkpt>
      <trkpt lat="39.7017330" lon="2.5863670">
        <ele>396.0</ele>
        <time>2021-06-17T15:18:25Z</time>
      </trkpt>
      <trkpt lat="39.7018360" lon="2.5866060">
        <ele>394.5</ele>
        <time>2021-06-17T15:18:27Z</time>
      </trkpt>
      <trkpt lat="39.7018710" lon="2.5868810">
        <ele>393.5</ele>
        <time>2021-06-17T15:18:29Z</time>
      </trkpt>
      <trkpt lat="39.7018720" lon="2.5870260">
        <ele>393.2</ele>
        <time>2021-06-17T15:18:30Z</time>
      </trkpt>
      <trkpt lat="39.7018540" lon="2.5876250">
        <ele>390.7</ele>
        <time>2021-06-17T15:18:34Z</time>
      </trkpt>
      <trkpt lat="39.7018310" lon="2.5877700">
        <ele>390.1</ele>
        <time>2021-06-17T15:18:35Z</time>
      </trkpt>
      <trkpt lat="39.7017900" lon="2.5879080">
        <ele>389.6</ele>
        <time>2021-06-17T15:18:36Z</time>
      </trkpt>
      <trkpt lat="39.7016750" lon="2.5881690">
        <ele>388.6</ele>
        <time>2021-06-17T15:18:38Z</time>
      </trkpt>
      <trkpt lat="39.7015020" lon="2.5885680">
        <ele>387.1</ele>
        <time>2021-06-17T15:18:41Z</time>
      </trkpt>
      <trkpt lat="39.7014730" lon="2.5887150">
        <ele>386.6</ele>
        <time>2021-06-17T15:18:42Z</time>
      </trkpt>
      <trkpt lat="39.7014580" lon="2.5888680">
        <ele>386.2</ele>
        <time>2021-06-17T15:18:43Z</time>
      </trkpt>
      <trkpt lat="39.7014470" lon="2.5893230">
        <ele>385.1</ele>
        <time>2021-06-17T15:18:46Z</time>
      </trkpt>
      <trkpt lat="39.7015080" lon="2.5899040">
        <ele>384.4</ele>
        <time>2021-06-17T15:18:50Z</time>
      </trkpt>
      <trkpt lat="39.7015910" lon="2.5903030">
        <ele>384.3</ele>
        <time>2021-06-17T15:18:53Z</time>
      </trkpt>
      <trkpt lat="39.7016430" lon="2.5905530">
        <ele>384.2</ele>
        <time>2021-06-17T15:18:55Z</time>
      </trkpt>
      <trkpt lat="39.7017420" lon="2.5910150">
        <ele>384.2</ele>
        <time>2021-06-17T15:18:59Z</time>
      </trkpt>
      <trkpt lat="39.7017840" lon="2.5912260">
        <ele>384.2</ele>
        <time>2021-06-17T15:19:01Z</time>
      </trkpt>
      <trkpt lat="39.7018870" lon="2.5916240">
        <ele>383.9</ele>
        <time>2021-06-17T15:19:05Z</time>
      </trkpt>
      <trkpt lat="39.7019280" lon="2.5917130">
        <ele>383.8</ele>
        <time>2021-06-17T15:19:06Z</time>
      </trkpt>
      <trkpt lat="39.7019760" lon="2.5917990">
        <ele>383.6</ele>
        <time>2021-06-17T15:19:07Z</time>
      </trkpt>
      <trkpt lat="39.7021810" lon="2.5921280">
        <ele>382.2</ele>
        <time>2021-06-17T15:19:11Z</time>
      </trkpt>
      <trkpt lat="39.7022980" lon="2.5923090">
        <ele>381.2</ele>
        <time>2021-06-17T15:19:13Z</time>
      </trkpt>
      <trkpt lat="39.7024210" lon="2.5924990">
        <ele>380.1</ele>
        <time>2021-06-17T15:19:15Z</time>
      </trkpt>
      <trkpt lat="39.7026170" lon="2.5928030">
        <ele>378.4</ele>
        <time>2021-06-17T15:19:18Z</time>
      </trkpt>
      <trkpt lat="39.7027570" lon="2.5930180">
        <ele>377.0</ele>
        <time>2021-06-17T15:19:20Z</time>
      </trkpt>
      <trkpt lat="39.7030360" lon="2.5934540">
        <ele>374.2</ele>
        <time>2021-06-17T15:19:24Z</time>
      </trkpt>
      <trkpt lat="39.7032560" lon="2.5937910">
        <ele>372.1</ele>
        <time>2021-06-17T15:19:27Z</time>
      </trkpt>
      <trkpt lat="39.7034750" lon="2.5941280">
        <ele>370.2</ele>
        <time>2021-06-17T15:19:30Z</time>
      </trkpt>
      <trkpt lat="39.7038380" lon="2.5946900">
        <ele>367.2</ele>
        <time>2021-06-17T15:19:35Z</time>
      </trkpt>
      <trkpt lat="39.7040610" lon="2.5950350">
        <ele>365.7</ele>
        <time>2021-06-17T15:19:38Z</time>
      </trkpt>
      <trkpt lat="39.7042860" lon="2.5953810">
        <ele>365.0</ele>
        <time>2021-06-17T15:19:41Z</time>
      </trkpt>
      <trkpt lat="39.7043580" lon="2.5954930">
        <ele>364.8</ele>
        <time>2021-06-17T15:19:42Z</time>
      </trkpt>
      <trkpt lat="39.7044990" lon="2.5957140">
        <ele>364.5</ele>
        <time>2021-06-17T15:19:44Z</time>
      </trkpt>
      <trkpt lat="39.7048520" lon="2.5962370">
        <ele>364.0</ele>
        <time>2021-06-17T15:19:49Z</time>
      </trkpt>
      <trkpt lat="39.7052460" lon="2.5968280">
        <ele>363.5</ele>
        <time>2021-06-17T15:19:55Z</time>
      </trkpt>
      <trkpt lat="39.7053100" lon="2.5969220">
        <ele>363.4</ele>
        <time>2021-06-17T15:19:56Z</time>
      </trkpt>
      <trkpt lat="39.7056020" lon="2.5973650">
        <ele>363.4</ele>
        <time>2021-06-17T15:20:01Z</time>
      </trkpt>
      <trkpt lat="39.7057690" lon="2.5976210">
        <ele>363.3</ele>
        <time>2021-06-17T15:20:04Z</time>
      </trkpt>
      <trkpt lat="39.7059780" lon="2.5979510">
        <ele>363.1</ele>
        <time>2021-06-17T15:20:08Z</time>
      </trkpt>
      <trkpt lat="39.7062890" lon="2.5984230">
        <ele>363.0</ele>
        <time>2021-06-17T15:20:14Z</time>
      </trkpt>
      <trkpt lat="39.7063840" lon="2.5985740">
        <ele>363.1</ele>
        <time>2021-06-17T15:20:16Z</time>
      </trkpt>
      <trkpt lat="39.7065230" lon="2.5987910">
        <ele>363.2</ele>
        <time>2021-06-17T15:20:19Z</time>
      </trkpt>
      <trkpt lat="39.7067440" lon="2.5991430">
        <ele>363.5</ele>
        <time>2021-06-17T15:20:24Z</time>
      </trkpt>
      <trkpt lat="39.7070820" lon="2.5997320">
        <ele>364.2</ele>
        <time>2021-06-17T15:20:32Z</time>
      </trkpt>
      <trkpt lat="39.7072740" lon="2.6000920">
        <ele>364.7</ele>
        <time>2021-06-17T15:20:37Z</time>
      </trkpt>
      <trkpt lat="39.7073520" lon="2.6002430">
        <ele>364.9</ele>
        <time>2021-06-17T15:20:39Z</time>
      </trkpt>
      <trkpt lat="39.7074290" lon="2.6003900">
        <ele>365.2</ele>
        <time>2021-06-17T15:20:41Z</time>
      </trkpt>
      <trkpt lat="39.7077760" lon="2.6010310">
        <ele>366.2</ele>
        <time>2021-06-17T15:20:50Z</time>
      </trkpt>
      <trkpt lat="39.7078140" lon="2.6011030">
        <ele>366.3</ele>
        <time>2021-06-17T15:20:51Z</time>
      </trkpt>
      <trkpt lat="39.7081610" lon="2.6017120">
        <ele>367.1</ele>
        <time>2021-06-17T15:21:00Z</time>
      </trkpt>
      <trkpt lat="39.7081960" lon="2.6017800">
        <ele>367.2</ele>
        <time>2021-06-17T15:21:01Z</time>
      </trkpt>
      <trkpt lat="39.7085250" lon="2.6023660">
        <ele>368.1</ele>
        <time>2021-06-17T15:21:10Z</time>
      </trkpt>
      <trkpt lat="39.7088120" lon="2.6028990">
        <ele>368.7</ele>
        <time>2021-06-17T15:21:18Z</time>
      </trkpt>
      <trkpt lat="39.7090890" lon="2.6035230">
        <ele>369.4</ele>
        <time>2021-06-17T15:21:27Z</time>
      </trkpt>
      <trkpt lat="39.7093100" lon="2.6042110">
        <ele>369.7</ele>
        <time>2021-06-17T15:21:36Z</time>
      </trkpt>
      <trkpt lat="39.7093290" lon="2.6042910">
        <ele>369.8</ele>
        <time>2021-06-17T15:21:37Z</time>
      </trkpt>
      <trkpt lat="39.7095370" lon="2.6050250">
        <ele>369.8</ele>
        <time>2021-06-17T15:21:46Z</time>
      </trkpt>
      <trkpt lat="39.7095810" lon="2.6051860">
        <ele>369.8</ele>
        <time>2021-06-17T15:21:48Z</time>
      </trkpt>
      <trkpt lat="39.7097300" lon="2.6057050">
        <ele>369.9</ele>
        <time>2021-06-17T15:21:55Z</time>
      </trkpt>
      <trkpt lat="39.7097690" lon="2.6058400">
        <ele>369.9</ele>
        <time>2021-06-17T15:21:57Z</time>
      </trkpt>
      <trkpt lat="39.7098230" lon="2.6060270">
        <ele>369.9</ele>
        <time>2021-06-17T15:22:00Z</time>
      </trkpt>
      <trkpt lat="39.7098940" lon="2.6062900">
        <ele>369.9</ele>
        <time>2021-06-17T15:22:04Z</time>
      </trkpt>
      <trkpt lat="39.7099140" lon="2.6063540">
        <ele>369.9</ele>
        <time>2021-06-17T15:22:05Z</time>
      </trkpt>
      <trkpt lat="39.7100110" lon="2.6066780">
        <ele>370.1</ele>
        <time>2021-06-17T15:22:10Z</time>
      </trkpt>
      <trkpt lat="39.7100450" lon="2.6068060">
        <ele>370.1</ele>
        <time>2021-06-17T15:22:12Z</time>
      </trkpt>
      <trkpt lat="39.7100610" lon="2.6068700">
        <ele>370.2</ele>
        <time>2021-06-17T15:22:13Z</time>
      </trkpt>
      <trkpt lat="39.7101290" lon="2.6071170">
        <ele>370.3</ele>
        <time>2021-06-17T15:22:17Z</time>
      </trkpt>
      <trkpt lat="39.7101830" lon="2.6073220">
        <ele>370.3</ele>
        <time>2021-06-17T15:22:20Z</time>
      </trkpt>
      <trkpt lat="39.7102230" lon="2.6074660">
        <ele>370.4</ele>
        <time>2021-06-17T15:22:22Z</time>
      </trkpt>
      <trkpt lat="39.7103220" lon="2.6078270">
        <ele>370.5</ele>
        <time>2021-06-17T15:22:27Z</time>
      </trkpt>
      <trkpt lat="39.7103680" lon="2.6079710">
        <ele>370.5</ele>
        <time>2021-06-17T15:22:29Z</time>
      </trkpt>
      <trkpt lat="39.7104210" lon="2.6081050">
        <ele>370.6</ele>
        <time>2021-06-17T15:22:31Z</time>
      </trkpt>
      <trkpt lat="39.7105360" lon="2.6083920">
        <ele>370.7</ele>
        <time>2021-06-17T15:22:35Z</time>
      </trkpt>
      <trkpt lat="39.7106920" lon="2.6087550">
        <ele>370.8</ele>
        <time>2021-06-17T15:22:40Z</time>
      </trkpt>
      <trkpt lat="39.7107840" lon="2.6089790">
        <ele>370.9</ele>
        <time>2021-06-17T15:22:43Z</time>
      </trkpt>
      <trkpt lat="39.7108120" lon="2.6090560">
        <ele>370.9</ele>
        <time>2021-06-17T15:22:44Z</time>
      </trkpt>
      <trkpt lat="39.7108370" lon="2.6091360">
        <ele>371.0</ele>
        <time>2021-06-17T15:22:45Z</time>
      </trkpt>
      <trkpt lat="39.7109070" lon="2.6094550">
        <ele>371.2</ele>
        <time>2021-06-17T15:22:49Z</time>
      </trkpt>
      <trkpt lat="39.7109200" lon="2.6095360">
        <ele>371.3</ele>
        <time>2021-06-17T15:22:50Z</time>
      </trkpt>
      <trkpt lat="39.7109610" lon="2.6100350">
        <ele>371.8</ele>
        <time>2021-06-17T15:22:57Z</time>
      </trkpt>
      <trkpt lat="39.7109730" lon="2.6103860">
        <ele>372.1</ele>
        <time>2021-06-17T15:23:03Z</time>
      </trkpt>
      <trkpt lat="39.7109750" lon="2.6104470">
        <ele>372.2</ele>
        <time>2021-06-17T15:23:04Z</time>
      </trkpt>
      <trkpt lat="39.7109790" lon="2.6105800">
        <ele>372.3</ele>
        <time>2021-06-17T15:23:06Z</time>
      </trkpt>
      <trkpt lat="39.7109500" lon="2.6108550">
        <ele>372.6</ele>
        <time>2021-06-17T15:23:10Z</time>
      </trkpt>
      <trkpt lat="39.7108850" lon="2.6114150">
        <ele>373.5</ele>
        <time>2021-06-17T15:23:18Z</time>
      </trkpt>
      <trkpt lat="39.7108760" lon="2.6114870">
        <ele>373.6</ele>
        <time>2021-06-17T15:23:19Z</time>
      </trkpt>
      <trkpt lat="39.7108090" lon="2.6120750">
        <ele>374.5</ele>
        <time>2021-06-17T15:23:27Z</time>
      </trkpt>
      <trkpt lat="39.7107410" lon="2.6126140">
        <ele>375.3</ele>
        <time>2021-06-17T15:23:34Z</time>
      </trkpt>
      <trkpt lat="39.7107220" lon="2.6127750">
        <ele>375.7</ele>
        <time>2021-06-17T15:23:36Z</time>
      </trkpt>
      <trkpt lat="39.7106400" lon="2.6132040">
        <ele>376.8</ele>
        <time>2021-06-17T15:23:42Z</time>
      </trkpt>
      <trkpt lat="39.7105050" lon="2.6137640">
        <ele>378.3</ele>
        <time>2021-06-17T15:23:50Z</time>
      </trkpt>
      <trkpt lat="39.7104870" lon="2.6138310">
        <ele>378.4</ele>
        <time>2021-06-17T15:23:51Z</time>
      </trkpt>
      <trkpt lat="39.7104190" lon="2.6140890">
        <ele>379.3</ele>
        <time>2021-06-17T15:23:55Z</time>
      </trkpt>
      <trkpt lat="39.7103450" lon="2.6143470">
        <ele>380.1</ele>
        <time>2021-06-17T15:23:59Z</time>
      </trkpt>
      <trkpt lat="39.7103310" lon="2.6144120">
        <ele>380.3</ele>
        <time>2021-06-17T15:24:00Z</time>
      </trkpt>
      <trkpt lat="39.7102010" lon="2.6148360">
        <ele>381.5</ele>
        <time>2021-06-17T15:24:07Z</time>
      </trkpt>
      <trkpt lat="39.7101200" lon="2.6152510">
        <ele>382.8</ele>
        <time>2021-06-17T15:24:14Z</time>
      </trkpt>
      <trkpt lat="39.7100980" lon="2.6157820">
        <ele>384.3</ele>
        <time>2021-06-17T15:24:23Z</time>
      </trkpt>
      <trkpt lat="39.7100980" lon="2.6163430">
        <ele>386.1</ele>
        <time>2021-06-17T15:24:32Z</time>
      </trkpt>
      <trkpt lat="39.7100840" lon="2.6167570">
        <ele>387.5</ele>
        <time>2021-06-17T15:24:39Z</time>
      </trkpt>
      <trkpt lat="39.7100230" lon="2.6173110">
        <ele>389.3</ele>
        <time>2021-06-17T15:24:48Z</time>
      </trkpt>
      <trkpt lat="39.7099840" lon="2.6175460">
        <ele>390.1</ele>
        <time>2021-06-17T15:24:52Z</time>
      </trkpt>
      <trkpt lat="39.7099590" lon="2.6176520">
        <ele>390.5</ele>
        <time>2021-06-17T15:24:54Z</time>
      </trkpt>
      <trkpt lat="39.7099120" lon="2.6181220">
        <ele>391.7</ele>
        <time>2021-06-17T15:25:02Z</time>
      </trkpt>
      <trkpt lat="39.7098700" lon="2.6184970">
        <ele>392.6</ele>
        <time>2021-06-17T15:25:09Z</time>
      </trkpt>
      <trkpt lat="39.7098580" lon="2.6189410">
        <ele>393.8</ele>
        <time>2021-06-17T15:25:17Z</time>
      </trkpt>
      <trkpt lat="39.7098460" lon="2.6193890">
        <ele>394.9</ele>
        <time>2021-06-17T15:25:25Z</time>
      </trkpt>
      <trkpt lat="39.7098540" lon="2.6197500">
        <ele>395.8</ele>
        <time>2021-06-17T15:25:31Z</time>
      </trkpt>
      <trkpt lat="39.7098570" lon="2.6201100">
        <ele>396.6</ele>
        <time>2021-06-17T15:25:37Z</time>
      </trkpt>
      <trkpt lat="39.7098820" lon="2.6204360">
        <ele>397.3</ele>
        <time>2021-06-17T15:25:43Z</time>
      </trkpt>
      <trkpt lat="39.7098940" lon="2.6206660">
        <ele>398.4</ele>
        <time>2021-06-17T15:25:49Z</time>
      </trkpt>
      <trkpt lat="39.7098890" lon="2.6208390">
        <ele>399.3</ele>
        <time>2021-06-17T15:25:54Z</time>
      </trkpt>
      <trkpt lat="39.7098870" lon="2.6209020">
        <ele>399.6</ele>
        <time>2021-06-17T15:25:56Z</time>
      </trkpt>
      <trkpt lat="39.7098850" lon="2.6210100">
        <ele>399.9</ele>
        <time>2021-06-17T15:26:00Z</time>
      </trkpt>
      <trkpt lat="39.7098840" lon="2.6210430">
        <ele>399.9</ele>
        <time>2021-06-17T15:26:01Z</time>
      </trkpt>
      <trkpt lat="39.7098830" lon="2.6211550">
        <ele>400.0</ele>
        <time>2021-06-17T15:26:04Z</time>
      </trkpt>
      <trkpt lat="39.7099060" lon="2.6213540">
        <ele>400.3</ele>
        <time>2021-06-17T15:26:10Z</time>
      </trkpt>
      <trkpt lat="39.7099100" lon="2.6214220">
        <ele>400.5</ele>
        <time>2021-06-17T15:26:12Z</time>
      </trkpt>
      <trkpt lat="39.7099080" lon="2.6215060">
        <ele>400.7</ele>
        <time>2021-06-17T15:26:15Z</time>
      </trkpt>
      <trkpt lat="39.7099020" lon="2.6215840">
        <ele>400.9</ele>
        <time>2021-06-17T15:26:18Z</time>
      </trkpt>
      <trkpt lat="39.7099100" lon="2.6216080">
        <ele>400.9</ele>
        <time>2021-06-17T15:26:19Z</time>
      </trkpt>
      <trkpt lat="39.7099150" lon="2.6216100">
        <ele>400.9</ele>
        <time>2021-06-17T15:26:22Z</time>
      </trkpt>
      <trkpt lat="39.7099190" lon="2.6216130">
        <ele>400.9</ele>
        <time>2021-06-17T15:26:24Z</time>
      </trkpt>
      <trkpt lat="39.7099230" lon="2.6216160">
        <ele>400.9</ele>
        <time>2021-06-17T15:26:29Z</time>
      </trkpt>
      <trkpt lat="39.7099280" lon="2.6216190">
        <ele>400.9</ele>
        <time>2021-06-17T15:26:30Z</time>
      </trkpt>
      <trkpt lat="39.7099320" lon="2.6216210">
        <ele>400.9</ele>
        <time>2021-06-17T15:26:42Z</time>
      </trkpt>
      <trkpt lat="39.7099370" lon="2.6216240">
        <ele>400.9</ele>
        <time>2021-06-17T15:26:49Z</time>
      </trkpt>
      <trkpt lat="39.7099410" lon="2.6216270">
        <ele>400.9</ele>
        <time>2021-06-17T15:27:01Z</time>
      </trkpt>
      <trkpt lat="39.7099450" lon="2.6216300">
        <ele>400.9</ele>
        <time>2021-06-17T15:27:04Z</time>
      </trkpt>
      <trkpt lat="39.7099500" lon="2.6216320">
        <ele>400.9</ele>
        <time>2021-06-17T15:27:11Z</time>
      </trkpt>
      <trkpt lat="39.7099540" lon="2.6216350">
        <ele>401.0</ele>
        <time>2021-06-17T15:27:18Z</time>
      </trkpt>
      <trkpt lat="39.7099580" lon="2.6216380">
        <ele>401.0</ele>
        <time>2021-06-17T15:27:25Z</time>
      </trkpt>
      <trkpt lat="39.7099630" lon="2.6216410">
        <ele>401.0</ele>
        <time>2021-06-17T15:27:26Z</time>
      </trkpt>
      <trkpt lat="39.7099670" lon="2.6216430">
        <ele>401.0</ele>
        <time>2021-06-17T15:27:39Z</time>
      </trkpt>
      <trkpt lat="39.7099720" lon="2.6216460">
        <ele>401.0</ele>
        <time>2021-06-17T15:27:40Z</time>
      </trkpt>
      <trkpt lat="39.7099760" lon="2.6216490">
        <ele>401.0</ele>
        <time>2021-06-17T15:27:42Z</time>
      </trkpt>
      <trkpt lat="39.7099800" lon="2.6216520">
        <ele>401.0</ele>
        <time>2021-06-17T15:27:43Z</time>
      </trkpt>
      <trkpt lat="39.7099850" lon="2.6216540">
        <ele>401.0</ele>
        <time>2021-06-17T15:27:47Z</time>
      </trkpt>
      <trkpt lat="39.7099890" lon="2.6216570">
        <ele>401.0</ele>
        <time>2021-06-17T15:27:48Z</time>
      </trkpt>
      <trkpt lat="39.7099340" lon="2.6216370">
        <ele>401.0</ele>
        <time>2021-06-17T15:27:52Z</time>
      </trkpt>
      <trkpt lat="39.7099020" lon="2.6216270">
        <ele>401.0</ele>
        <time>2021-06-17T15:27:53Z</time>
      </trkpt>
      <trkpt lat="39.7098950" lon="2.6216210">
        <ele>401.0</ele>
        <time>2021-06-17T15:27:54Z</time>
      </trkpt>
      <trkpt lat="39.7098510" lon="2.6216170">
        <ele>401.1</ele>
        <time>2021-06-17T15:27:57Z</time>
      </trkpt>
      <trkpt lat="39.7098380" lon="2.6216330">
        <ele>401.1</ele>
        <time>2021-06-17T15:27:58Z</time>
      </trkpt>
      <trkpt lat="39.7098230" lon="2.6216420">
        <ele>401.1</ele>
        <time>2021-06-17T15:27:59Z</time>
      </trkpt>
      <trkpt lat="39.7098400" lon="2.6216490">
        <ele>401.1</ele>
        <time>2021-06-17T15:28:00Z</time>
      </trkpt>
      <trkpt lat="39.7098520" lon="2.6216440">
        <ele>401.1</ele>
        <time>2021-06-17T15:28:01Z</time>
      </trkpt>
      <trkpt lat="39.7098600" lon="2.6216220">
        <ele>401.1</ele>
        <time>2021-06-17T15:28:03Z</time>
      </trkpt>
      <trkpt lat="39.7098720" lon="2.6215980">
        <ele>401.1</ele>
        <time>2021-06-17T15:28:05Z</time>
      </trkpt>
      <trkpt lat="39.7099490" lon="2.6215150">
        <ele>401.2</ele>
        <time>2021-06-17T15:28:07Z</time>
      </trkpt>
      <trkpt lat="39.7099890" lon="2.6215110">
        <ele>401.3</ele>
        <time>2021-06-17T15:28:08Z</time>
      </trkpt>
      <trkpt lat="39.7099760" lon="2.6214930">
        <ele>401.3</ele>
        <time>2021-06-17T15:28:10Z</time>
      </trkpt>
      <trkpt lat="39.7100390" lon="2.6214770">
        <ele>401.3</ele>
        <time>2021-06-17T15:28:13Z</time>
      </trkpt>
      <trkpt lat="39.7100500" lon="2.6215400">
        <ele>401.4</ele>
        <time>2021-06-17T15:28:15Z</time>
      </trkpt>
      <trkpt lat="39.7100380" lon="2.6216020">
        <ele>401.4</ele>
        <time>2021-06-17T15:28:18Z</time>
      </trkpt>
      <trkpt lat="39.7097760" lon="2.6217120">
        <ele>401.6</ele>
        <time>2021-06-17T15:28:26Z</time>
      </trkpt>
      <trkpt lat="39.7096420" lon="2.6218570">
        <ele>401.8</ele>
        <time>2021-06-17T15:28:32Z</time>
      </trkpt>
      <trkpt lat="39.7096420" lon="2.6218570">
        <ele>401.8</ele>
        <time>2021-06-17T15:28:35Z</time>
      </trkpt>
      <trkpt lat="39.7096420" lon="2.6218570">
        <ele>401.8</ele>
        <time>2021-06-17T15:28:38Z</time>
      </trkpt>
      <trkpt lat="39.7096420" lon="2.6218570">
        <ele>401.8</ele>
        <time>2021-06-17T15:28:39Z</time>
      </trkpt>
      <trkpt lat="39.7096420" lon="2.6218570">
        <ele>401.8</ele>
        <time>2021-06-17T15:28:42Z</time>
      </trkpt>
      <trkpt lat="39.7096420" lon="2.6218570">
        <ele>401.8</ele>
        <time>2021-06-17T15:28:46Z</time>
      </trkpt>
      <trkpt lat="39.7097820" lon="2.6215570">
        <ele>401.6</ele>
        <time>2021-06-17T15:28:53Z</time>
      </trkpt>
      <trkpt lat="39.7097820" lon="2.6215570">
        <ele>401.6</ele>
        <time>2021-06-17T15:28:54Z</time>
      </trkpt>
      <trkpt lat="39.7099380" lon="2.6214690">
        <ele>401.5</ele>
        <time>2021-06-17T15:28:57Z</time>
      </trkpt>
      <trkpt lat="39.7099920" lon="2.6214350">
        <ele>401.5</ele>
        <time>2021-06-17T15:29:00Z</time>
      </trkpt>
      <trkpt lat="39.7099800" lon="2.6214440">
        <ele>401.5</ele>
        <time>2021-06-17T15:29:01Z</time>
      </trkpt>
      <trkpt lat="39.7099330" lon="2.6214850">
        <ele>401.5</ele>
        <time>2021-06-17T15:29:03Z</time>
      </trkpt>
      <trkpt lat="39.7097790" lon="2.6216400">
        <ele>401.4</ele>
        <time>2021-06-17T15:29:07Z</time>
      </trkpt>
      <trkpt lat="39.7096740" lon="2.6217350">
        <ele>401.3</ele>
        <time>2021-06-17T15:29:10Z</time>
      </trkpt>
      <trkpt lat="39.7096740" lon="2.6217350">
        <ele>401.3</ele>
        <time>2021-06-17T15:29:14Z</time>
      </trkpt>
      <trkpt lat="39.7096740" lon="2.6217350">
        <ele>401.3</ele>
        <time>2021-06-17T15:29:21Z</time>
      </trkpt>
      <trkpt lat="39.7097290" lon="2.6218040">
        <ele>401.3</ele>
        <time>2021-06-17T15:29:23Z</time>
      </trkpt>
      <trkpt lat="39.7097290" lon="2.6218040">
        <ele>401.3</ele>
        <time>2021-06-17T15:29:31Z</time>
      </trkpt>
      <trkpt lat="39.7097290" lon="2.6218040">
        <ele>401.3</ele>
        <time>2021-06-17T15:29:32Z</time>
      </trkpt>
      <trkpt lat="39.7097290" lon="2.6218040">
        <ele>401.3</ele>
        <time>2021-06-17T15:29:33Z</time>
      </trkpt>
      <trkpt lat="39.7097290" lon="2.6218040">
        <ele>401.3</ele>
        <time>2021-06-17T15:29:38Z</time>
      </trkpt>
      <trkpt lat="39.7097290" lon="2.6218040">
        <ele>401.3</ele>
        <time>2021-06-17T15:29:44Z</time>
      </trkpt>
      <trkpt lat="39.7097290" lon="2.6218040">
        <ele>401.3</ele>
        <time>2021-06-17T15:29:50Z</time>
      </trkpt>
      <trkpt lat="39.7097290" lon="2.6218040">
        <ele>401.3</ele>
        <time>2021-06-17T15:29:52Z</time>
      </trkpt>
      <trkpt lat="39.7097290" lon="2.6218040">
        <ele>401.3</ele>
        <time>2021-06-17T15:29:54Z</time>
      </trkpt>
      <trkpt lat="39.7097290" lon="2.6218040">
        <ele>401.3</ele>
        <time>2021-06-17T15:29:55Z</time>
      </trkpt>
      <trkpt lat="39.7097290" lon="2.6218040">
        <ele>401.3</ele>
        <time>2021-06-17T15:29:57Z</time>
      </trkpt>
      <trkpt lat="39.7097290" lon="2.6218040">
        <ele>401.3</ele>
        <time>2021-06-17T15:29:58Z</time>
      </trkpt>
      <trkpt lat="39.7097290" lon="2.6218040">
        <ele>401.3</ele>
        <time>2021-06-17T15:29:59Z</time>
      </trkpt>
      <trkpt lat="39.7097290" lon="2.6218040">
        <ele>401.3</ele>
        <time>2021-06-17T15:30:02Z</time>
      </trkpt>
      <trkpt lat="39.7097290" lon="2.6218040">
        <ele>401.3</ele>
        <time>2021-06-17T15:30:03Z</time>
      </trkpt>
      <trkpt lat="39.7097290" lon="2.6218040">
        <ele>401.3</ele>
        <time>2021-06-17T15:30:04Z</time>
      </trkpt>
      <trkpt lat="39.7097290" lon="2.6218040">
        <ele>401.3</ele>
        <time>2021-06-17T15:30:05Z</time>
      </trkpt>
      <trkpt lat="39.7097290" lon="2.6218040">
        <ele>401.3</ele>
        <time>2021-06-17T15:30:09Z</time>
      </trkpt>
      <trkpt lat="39.7098120" lon="2.6215890">
        <ele>401.2</ele>
        <time>2021-06-17T15:30:18Z</time>
      </trkpt>
      <trkpt lat="39.7098120" lon="2.6215890">
        <ele>401.2</ele>
        <time>2021-06-17T15:30:19Z</time>
      </trkpt>
      <trkpt lat="39.7098130" lon="2.6215890">
        <ele>401.2</ele>
        <time>2021-06-17T15:30:28Z</time>
      </trkpt>
      <trkpt lat="39.7098140" lon="2.6215890">
        <ele>401.2</ele>
        <time>2021-06-17T15:30:31Z</time>
      </trkpt>
      <trkpt lat="39.7099610" lon="2.6215820">
        <ele>401.1</ele>
        <time>2021-06-17T15:30:35Z</time>
      </trkpt>
      <trkpt lat="39.7099900" lon="2.6215940">
        <ele>401.1</ele>
        <time>2021-06-17T15:30:44Z</time>
      </trkpt>
      <trkpt lat="39.7099900" lon="2.6215970">
        <ele>401.1</ele>
        <time>2021-06-17T15:30:56Z</time>
      </trkpt>
      <trkpt lat="39.7099900" lon="2.6215970">
        <ele>401.1</ele>
        <time>2021-06-17T15:31:06Z</time>
      </trkpt>
      <trkpt lat="39.7099590" lon="2.6215860">
        <ele>401.1</ele>
        <time>2021-06-17T15:31:12Z</time>
      </trkpt>
      <trkpt lat="39.7098520" lon="2.6216500">
        <ele>401.0</ele>
        <time>2021-06-17T15:31:16Z</time>
      </trkpt>
      <trkpt lat="39.7098600" lon="2.6216670">
        <ele>401.0</ele>
        <time>2021-06-17T15:31:20Z</time>
      </trkpt>
      <trkpt lat="39.7098550" lon="2.6216700">
        <ele>401.0</ele>
        <time>2021-06-17T15:31:21Z</time>
      </trkpt>
      <trkpt lat="39.7098550" lon="2.6216700">
        <ele>401.0</ele>
        <time>2021-06-17T15:31:23Z</time>
      </trkpt>
      <trkpt lat="39.7098660" lon="2.6216670">
        <ele>401.0</ele>
        <time>2021-06-17T15:31:27Z</time>
      </trkpt>
      <trkpt lat="39.7098770" lon="2.6216610">
        <ele>401.0</ele>
        <time>2021-06-17T15:31:31Z</time>
      </trkpt>
      <trkpt lat="39.7099070" lon="2.6216480">
        <ele>401.0</ele>
        <time>2021-06-17T15:31:37Z</time>
      </trkpt>
      <trkpt lat="39.7099060" lon="2.6216500">
        <ele>401.0</ele>
        <time>2021-06-17T15:31:52Z</time>
      </trkpt>
      <trkpt lat="39.7099030" lon="2.6216480">
        <ele>401.0</ele>
        <time>2021-06-17T15:32:04Z</time>
      </trkpt>
      <trkpt lat="39.7099030" lon="2.6216480">
        <ele>401.0</ele>
        <time>2021-06-17T15:32:10Z</time>
      </trkpt>
      <trkpt lat="39.7099030" lon="2.6216480">
        <ele>401.0</ele>
        <time>2021-06-17T15:32:13Z</time>
      </trkpt>
      <trkpt lat="39.7099090" lon="2.6216470">
        <ele>401.0</ele>
        <time>2021-06-17T15:32:19Z</time>
      </trkpt>
      <trkpt lat="39.7099130" lon="2.6216450">
        <ele>401.0</ele>
        <time>2021-06-17T15:32:26Z</time>
      </trkpt>
      <trkpt lat="39.7098990" lon="2.6216520">
        <ele>401.0</ele>
        <time>2021-06-17T15:32:59Z</time>
      </trkpt>
      <trkpt lat="39.7098990" lon="2.6216520">
        <ele>401.0</ele>
        <time>2021-06-17T15:33:01Z</time>
      </trkpt>
      <trkpt lat="39.7098990" lon="2.6216520">
        <ele>401.0</ele>
        <time>2021-06-17T15:33:13Z</time>
      </trkpt>
      <trkpt lat="39.7098990" lon="2.6216520">
        <ele>401.0</ele>
        <time>2021-06-17T15:33:21Z</time>
      </trkpt>
      <trkpt lat="39.7098990" lon="2.6216520">
        <ele>401.0</ele>
        <time>2021-06-17T15:33:30Z</time>
      </trkpt>
      <trkpt lat="39.7098990" lon="2.6216520">
        <ele>401.0</ele>
        <time>2021-06-17T15:33:47Z</time>
      </trkpt>
      <trkpt lat="39.7098990" lon="2.6216600">
        <ele>401.0</ele>
        <time>2021-06-17T15:34:02Z</time>
      </trkpt>
      <trkpt lat="39.7098990" lon="2.6216600">
        <ele>401.0</ele>
        <time>2021-06-17T15:34:08Z</time>
      </trkpt>
      <trkpt lat="39.7098990" lon="2.6216600">
        <ele>401.0</ele>
        <time>2021-06-17T15:34:13Z</time>
      </trkpt>
      <trkpt lat="39.7098990" lon="2.6216560">
        <ele>401.0</ele>
        <time>2021-06-17T15:34:18Z</time>
      </trkpt>
      <trkpt lat="39.7099000" lon="2.6216550">
        <ele>401.0</ele>
        <time>2021-06-17T15:34:23Z</time>
      </trkpt>
      <trkpt lat="39.7098810" lon="2.6216510">
        <ele>401.0</ele>
        <time>2021-06-17T15:34:28Z</time>
      </trkpt>
      <trkpt lat="39.7098600" lon="2.6216390">
        <ele>401.0</ele>
        <time>2021-06-17T15:34:46Z</time>
      </trkpt>
      <trkpt lat="39.7098790" lon="2.6216340">
        <ele>401.0</ele>
        <time>2021-06-17T15:35:27Z</time>
      </trkpt>
      <trkpt lat="39.7098820" lon="2.6216300">
        <ele>401.0</ele>
        <time>2021-06-17T15:35:32Z</time>
      </trkpt>
      <trkpt lat="39.7098800" lon="2.6216300">
        <ele>401.0</ele>
        <time>2021-06-17T15:35:46Z</time>
      </trkpt>
      <trkpt lat="39.7098800" lon="2.6216300">
        <ele>401.0</ele>
        <time>2021-06-17T15:35:57Z</time>
      </trkpt>
      <trkpt lat="39.7098800" lon="2.6216300">
        <ele>401.0</ele>
        <time>2021-06-17T15:36:01Z</time>
      </trkpt>
      <trkpt lat="39.7098800" lon="2.6216300">
        <ele>401.0</ele>
        <time>2021-06-17T15:36:16Z</time>
      </trkpt>
      <trkpt lat="39.7098790" lon="2.6216310">
        <ele>401.0</ele>
        <time>2021-06-17T15:36:55Z</time>
      </trkpt>
      <trkpt lat="39.7098790" lon="2.6216330">
        <ele>401.0</ele>
        <time>2021-06-17T15:37:10Z</time>
      </trkpt>
      <trkpt lat="39.7098790" lon="2.6216330">
        <ele>401.0</ele>
        <time>2021-06-17T15:37:22Z</time>
      </trkpt>
      <trkpt lat="39.7098790" lon="2.6216330">
        <ele>401.0</ele>
        <time>2021-06-17T15:37:34Z</time>
      </trkpt>
      <trkpt lat="39.7098790" lon="2.6216330">
        <ele>401.0</ele>
        <time>2021-06-17T15:37:35Z</time>
      </trkpt>
      <trkpt lat="39.7098790" lon="2.6216330">
        <ele>401.0</ele>
        <time>2021-06-17T15:37:49Z</time>
      </trkpt>
      <trkpt lat="39.7098790" lon="2.6216330">
        <ele>401.0</ele>
        <time>2021-06-17T15:37:59Z</time>
      </trkpt>
      <trkpt lat="39.7098790" lon="2.6216330">
        <ele>401.0</ele>
        <time>2021-06-17T15:38:09Z</time>
      </trkpt>
      <trkpt lat="39.7098800" lon="2.6216310">
        <ele>401.0</ele>
        <time>2021-06-17T15:38:13Z</time>
      </trkpt>
      <trkpt lat="39.7098800" lon="2.6216270">
        <ele>401.0</ele>
        <time>2021-06-17T15:38:24Z</time>
      </trkpt>
      <trkpt lat="39.7098800" lon="2.6216260">
        <ele>401.0</ele>
        <time>2021-06-17T15:38:35Z</time>
      </trkpt>
      <trkpt lat="39.7098800" lon="2.6216260">
        <ele>401.0</ele>
        <time>2021-06-17T15:38:44Z</time>
      </trkpt>
      <trkpt lat="39.7098800" lon="2.6216260">
        <ele>401.0</ele>
        <time>2021-06-17T15:38:51Z</time>
      </trkpt>
      <trkpt lat="39.7098810" lon="2.6216260">
        <ele>401.0</ele>
        <time>2021-06-17T15:39:07Z</time>
      </trkpt>
      <trkpt lat="39.7098810" lon="2.6216240">
        <ele>401.0</ele>
        <time>2021-06-17T15:39:32Z</time>
      </trkpt>
      <trkpt lat="39.7098810" lon="2.6216240">
        <ele>401.0</ele>
        <time>2021-06-17T15:39:33Z</time>
      </trkpt>
      <trkpt lat="39.7098830" lon="2.6216150">
        <ele>401.0</ele>
        <time>2021-06-17T15:39:43Z</time>
      </trkpt>
      <trkpt lat="39.7098830" lon="2.6216150">
        <ele>401.0</ele>
        <time>2021-06-17T15:39:47Z</time>
      </trkpt>
      <trkpt lat="39.7098830" lon="2.6216150">
        <ele>401.0</ele>
        <time>2021-06-17T15:39:49Z</time>
      </trkpt>
      <trkpt lat="39.7098830" lon="2.6216150">
        <ele>401.0</ele>
        <time>2021-06-17T15:40:18Z</time>
      </trkpt>
      <trkpt lat="39.7098800" lon="2.6216140">
        <ele>401.0</ele>
        <time>2021-06-17T15:40:28Z</time>
      </trkpt>
      <trkpt lat="39.7098800" lon="2.6216140">
        <ele>401.0</ele>
        <time>2021-06-17T15:40:46Z</time>
      </trkpt>
      <trkpt lat="39.7098800" lon="2.6216140">
        <ele>401.0</ele>
        <time>2021-06-17T15:40:49Z</time>
      </trkpt>
      <trkpt lat="39.7098800" lon="2.6216140">
        <ele>401.0</ele>
        <time>2021-06-17T15:40:53Z</time>
      </trkpt>
      <trkpt lat="39.7098800" lon="2.6216140">
        <ele>401.0</ele>
        <time>2021-06-17T15:41:04Z</time>
      </trkpt>
      <trkpt lat="39.7098800" lon="2.6216140">
        <ele>401.0</ele>
        <time>2021-06-17T15:41:06Z</time>
      </trkpt>
      <trkpt lat="39.7098800" lon="2.6216140">
        <ele>401.0</ele>
        <time>2021-06-17T15:41:25Z</time>
      </trkpt>
      <trkpt lat="39.7098800" lon="2.6216140">
        <ele>401.0</ele>
        <time>2021-06-17T15:41:40Z</time>
      </trkpt>
      <trkpt lat="39.7098780" lon="2.6216150">
        <ele>401.0</ele>
        <time>2021-06-17T15:42:10Z</time>
      </trkpt>
      <trkpt lat="39.7098770" lon="2.6216150">
        <ele>401.0</ele>
        <time>2021-06-17T15:42:20Z</time>
      </trkpt>
      <trkpt lat="39.7098770" lon="2.6216150">
        <ele>401.0</ele>
        <time>2021-06-17T15:42:22Z</time>
      </trkpt>
      <trkpt lat="39.7098770" lon="2.6216150">
        <ele>401.0</ele>
        <time>2021-06-17T15:42:25Z</time>
      </trkpt>
      <trkpt lat="39.7098770" lon="2.6216150">
        <ele>401.0</ele>
        <time>2021-06-17T15:42:26Z</time>
      </trkpt>
      <trkpt lat="39.7098770" lon="2.6216150">
        <ele>401.0</ele>
        <time>2021-06-17T15:42:28Z</time>
      </trkpt>
      <trkpt lat="39.7098750" lon="2.6216160">
        <ele>401.0</ele>
        <time>2021-06-17T15:42:43Z</time>
      </trkpt>
      <trkpt lat="39.7098750" lon="2.6216160">
        <ele>401.0</ele>
        <time>2021-06-17T15:42:48Z</time>
      </trkpt>
      <trkpt lat="39.7098750" lon="2.6216160">
        <ele>401.0</ele>
        <time>2021-06-17T15:42:54Z</time>
      </trkpt>
      <trkpt lat="39.7098750" lon="2.6216160">
        <ele>401.0</ele>
        <time>2021-06-17T15:42:55Z</time>
      </trkpt>
      <trkpt lat="39.7098720" lon="2.6216160">
        <ele>401.0</ele>
        <time>2021-06-17T15:42:59Z</time>
      </trkpt>
      <trkpt lat="39.7098720" lon="2.6216160">
        <ele>401.0</ele>
        <time>2021-06-17T15:43:01Z</time>
      </trkpt>
      <trkpt lat="39.7098710" lon="2.6216160">
        <ele>401.0</ele>
        <time>2021-06-17T15:43:11Z</time>
      </trkpt>
      <trkpt lat="39.7098710" lon="2.6216160">
        <ele>401.0</ele>
        <time>2021-06-17T15:43:18Z</time>
      </trkpt>
      <trkpt lat="39.7098710" lon="2.6216160">
        <ele>401.0</ele>
        <time>2021-06-17T15:43:25Z</time>
      </trkpt>
      <trkpt lat="39.7098710" lon="2.6216160">
        <ele>401.0</ele>
        <time>2021-06-17T15:43:37Z</time>
      </trkpt>
      <trkpt lat="39.7098710" lon="2.6216160">
        <ele>401.0</ele>
        <time>2021-06-17T15:43:42Z</time>
      </trkpt>
      <trkpt lat="39.7098710" lon="2.6216160">
        <ele>401.0</ele>
        <time>2021-06-17T15:43:59Z</time>
      </trkpt>
      <trkpt lat="39.7098740" lon="2.6216180">
        <ele>401.0</ele>
        <time>2021-06-17T15:44:02Z</time>
      </trkpt>
      <trkpt lat="39.7098860" lon="2.6216550">
        <ele>400.9</ele>
        <time>2021-06-17T15:44:05Z</time>
      </trkpt>
      <trkpt lat="39.7098870" lon="2.6216610">
        <ele>400.9</ele>
        <time>2021-06-17T15:44:12Z</time>
      </trkpt>
      <trkpt lat="39.7099220" lon="2.6216620">
        <ele>400.9</ele>
        <time>2021-06-17T15:44:15Z</time>
      </trkpt>
      <trkpt lat="39.7099280" lon="2.6216580">
        <ele>400.9</ele>
        <time>2021-06-17T15:44:18Z</time>
      </trkpt>
      <trkpt lat="39.7099280" lon="2.6216580">
        <ele>400.9</ele>
        <time>2021-06-17T15:44:19Z</time>
      </trkpt>
      <trkpt lat="39.7099280" lon="2.6216630">
        <ele>400.9</ele>
        <time>2021-06-17T15:44:26Z</time>
      </trkpt>
      <trkpt lat="39.7099280" lon="2.6216630">
        <ele>400.9</ele>
        <time>2021-06-17T15:44:32Z</time>
      </trkpt>
      <trkpt lat="39.7099280" lon="2.6216560">
        <ele>400.9</ele>
        <time>2021-06-17T15:44:44Z</time>
      </trkpt>
      <trkpt lat="39.7099270" lon="2.6216540">
        <ele>400.9</ele>
        <time>2021-06-17T15:44:48Z</time>
      </trkpt>
      <trkpt lat="39.7099240" lon="2.6216440">
        <ele>400.9</ele>
        <time>2021-06-17T15:45:00Z</time>
      </trkpt>
      <trkpt lat="39.7099190" lon="2.6216370">
        <ele>400.9</ele>
        <time>2021-06-17T15:45:20Z</time>
      </trkpt>
      <trkpt lat="39.7099190" lon="2.6216370">
        <ele>400.9</ele>
        <time>2021-06-17T15:45:25Z</time>
      </trkpt>
      <trkpt lat="39.7099190" lon="2.6216230">
        <ele>400.9</ele>
        <time>2021-06-17T15:45:31Z</time>
      </trkpt>
      <trkpt lat="39.7099210" lon="2.6216240">
        <ele>400.9</ele>
        <time>2021-06-17T15:45:37Z</time>
      </trkpt>
      <trkpt lat="39.7099170" lon="2.6216630">
        <ele>400.9</ele>
        <time>2021-06-17T15:45:45Z</time>
      </trkpt>
      <trkpt lat="39.7099170" lon="2.6216630">
        <ele>400.9</ele>
        <time>2021-06-17T15:45:49Z</time>
      </trkpt>
      <trkpt lat="39.7099150" lon="2.6216620">
        <ele>400.9</ele>
        <time>2021-06-17T15:45:53Z</time>
      </trkpt>
      <trkpt lat="39.7099150" lon="2.6216620">
        <ele>400.9</ele>
        <time>2021-06-17T15:45:57Z</time>
      </trkpt>
      <trkpt lat="39.7099150" lon="2.6216620">
        <ele>400.9</ele>
        <time>2021-06-17T15:46:01Z</time>
      </trkpt>
      <trkpt lat="39.7099190" lon="2.6216540">
        <ele>400.9</ele>
        <time>2021-06-17T15:46:15Z</time>
      </trkpt>
      <trkpt lat="39.7099190" lon="2.6216540">
        <ele>400.9</ele>
        <time>2021-06-17T15:46:18Z</time>
      </trkpt>
      <trkpt lat="39.7099190" lon="2.6216540">
        <ele>400.9</ele>
        <time>2021-06-17T15:46:19Z</time>
      </trkpt>
      <trkpt lat="39.7099190" lon="2.6216540">
        <ele>400.9</ele>
        <time>2021-06-17T15:46:21Z</time>
      </trkpt>
      <trkpt lat="39.7099190" lon="2.6216540">
        <ele>400.9</ele>
        <time>2021-06-17T15:46:23Z</time>
      </trkpt>
      <trkpt lat="39.7099190" lon="2.6216540">
        <ele>400.9</ele>
        <time>2021-06-17T15:46:25Z</time>
      </trkpt>
      <trkpt lat="39.7099190" lon="2.6216540">
        <ele>400.9</ele>
        <time>2021-06-17T15:46:28Z</time>
      </trkpt>
      <trkpt lat="39.7099170" lon="2.6216540">
        <ele>400.9</ele>
        <time>2021-06-17T15:46:36Z</time>
      </trkpt>
      <trkpt lat="39.7099130" lon="2.6216550">
        <ele>400.9</ele>
        <time>2021-06-17T15:46:50Z</time>
      </trkpt>
      <trkpt lat="39.7099130" lon="2.6216550">
        <ele>400.9</ele>
        <time>2021-06-17T15:46:54Z</time>
      </trkpt>
      <trkpt lat="39.7099110" lon="2.6216580">
        <ele>400.9</ele>
        <time>2021-06-17T15:47:10Z</time>
      </trkpt>
      <trkpt lat="39.7099120" lon="2.6216560">
        <ele>400.9</ele>
        <time>2021-06-17T15:47:32Z</time>
      </trkpt>
      <trkpt lat="39.7099080" lon="2.6216600">
        <ele>400.9</ele>
        <time>2021-06-17T15:47:41Z</time>
      </trkpt>
      <trkpt lat="39.7099140" lon="2.6215700">
        <ele>400.9</ele>
        <time>2021-06-17T15:47:45Z</time>
      </trkpt>
      <trkpt lat="39.7099200" lon="2.6214790">
        <ele>400.6</ele>
        <time>2021-06-17T15:47:48Z</time>
      </trkpt>
      <trkpt lat="39.7099110" lon="2.6214500">
        <ele>400.5</ele>
        <time>2021-06-17T15:47:49Z</time>
      </trkpt>
      <trkpt lat="39.7098850" lon="2.6212660">
        <ele>400.2</ele>
        <time>2021-06-17T15:47:54Z</time>
      </trkpt>
      <trkpt lat="39.7098800" lon="2.6209820">
        <ele>399.9</ele>
        <time>2021-06-17T15:48:01Z</time>
      </trkpt>
      <trkpt lat="39.7099560" lon="2.6207900">
        <ele>399.1</ele>
        <time>2021-06-17T15:48:07Z</time>
      </trkpt>
      <trkpt lat="39.7099280" lon="2.6205690">
        <ele>397.9</ele>
        <time>2021-06-17T15:48:13Z</time>
      </trkpt>
      <trkpt lat="39.7098890" lon="2.6204190">
        <ele>397.2</ele>
        <time>2021-06-17T15:48:16Z</time>
      </trkpt>
      <trkpt lat="39.7098770" lon="2.6203080">
        <ele>397.0</ele>
        <time>2021-06-17T15:48:18Z</time>
      </trkpt>
      <trkpt lat="39.7098660" lon="2.6198680">
        <ele>396.0</ele>
        <time>2021-06-17T15:48:25Z</time>
      </trkpt>
      <trkpt lat="39.7098600" lon="2.6196630">
        <ele>395.6</ele>
        <time>2021-06-17T15:48:28Z</time>
      </trkpt>
      <trkpt lat="39.7098530" lon="2.6195170">
        <ele>395.2</ele>
        <time>2021-06-17T15:48:30Z</time>
      </trkpt>
      <trkpt lat="39.7098560" lon="2.6194390">
        <ele>395.0</ele>
        <time>2021-06-17T15:48:31Z</time>
      </trkpt>
      <trkpt lat="39.7098890" lon="2.6188120">
        <ele>393.5</ele>
        <time>2021-06-17T15:48:39Z</time>
      </trkpt>
      <trkpt lat="39.7098890" lon="2.6187440">
        <ele>393.3</ele>
        <time>2021-06-17T15:48:40Z</time>
      </trkpt>
      <trkpt lat="39.7098980" lon="2.6185560">
        <ele>392.8</ele>
        <time>2021-06-17T15:48:42Z</time>
      </trkpt>
      <trkpt lat="39.7099210" lon="2.6183020">
        <ele>392.1</ele>
        <time>2021-06-17T15:48:45Z</time>
      </trkpt>
      <trkpt lat="39.7099640" lon="2.6180080">
        <ele>391.5</ele>
        <time>2021-06-17T15:48:48Z</time>
      </trkpt>
      <trkpt lat="39.7100280" lon="2.6176470">
        <ele>390.4</ele>
        <time>2021-06-17T15:48:52Z</time>
      </trkpt>
      <trkpt lat="39.7101250" lon="2.6169470">
        <ele>388.1</ele>
        <time>2021-06-17T15:48:59Z</time>
      </trkpt>
      <trkpt lat="39.7101310" lon="2.6163250">
        <ele>386.1</ele>
        <time>2021-06-17T15:49:05Z</time>
      </trkpt>
      <trkpt lat="39.7101290" lon="2.6156790">
        <ele>384.0</ele>
        <time>2021-06-17T15:49:11Z</time>
      </trkpt>
      <trkpt lat="39.7101280" lon="2.6155650">
        <ele>383.7</ele>
        <time>2021-06-17T15:49:12Z</time>
      </trkpt>
      <trkpt lat="39.7101440" lon="2.6152090">
        <ele>382.6</ele>
        <time>2021-06-17T15:49:15Z</time>
      </trkpt>
      <trkpt lat="39.7101730" lon="2.6150160">
        <ele>382.1</ele>
        <time>2021-06-17T15:49:17Z</time>
      </trkpt>
      <trkpt lat="39.7101980" lon="2.6149080">
        <ele>381.7</ele>
        <time>2021-06-17T15:49:18Z</time>
      </trkpt>
      <trkpt lat="39.7103280" lon="2.6144670">
        <ele>380.5</ele>
        <time>2021-06-17T15:49:22Z</time>
      </trkpt>
      <trkpt lat="39.7104880" lon="2.6139140">
        <ele>378.7</ele>
        <time>2021-06-17T15:49:27Z</time>
      </trkpt>
      <trkpt lat="39.7105540" lon="2.6136600">
        <ele>378.0</ele>
        <time>2021-06-17T15:49:29Z</time>
      </trkpt>
      <trkpt lat="39.7106590" lon="2.6132400">
        <ele>376.8</ele>
        <time>2021-06-17T15:49:33Z</time>
      </trkpt>
      <trkpt lat="39.7106860" lon="2.6131290">
        <ele>376.6</ele>
        <time>2021-06-17T15:49:34Z</time>
      </trkpt>
      <trkpt lat="39.7107180" lon="2.6129950">
        <ele>376.2</ele>
        <time>2021-06-17T15:49:35Z</time>
      </trkpt>
      <trkpt lat="39.7107590" lon="2.6127920">
        <ele>375.7</ele>
        <time>2021-06-17T15:49:37Z</time>
      </trkpt>
      <trkpt lat="39.7108100" lon="2.6124310">
        <ele>375.0</ele>
        <time>2021-06-17T15:49:40Z</time>
      </trkpt>
      <trkpt lat="39.7108700" lon="2.6118580">
        <ele>374.2</ele>
        <time>2021-06-17T15:49:45Z</time>
      </trkpt>
      <trkpt lat="39.7109410" lon="2.6112950">
        <ele>373.3</ele>
        <time>2021-06-17T15:49:50Z</time>
      </trkpt>
      <trkpt lat="39.7110120" lon="2.6106610">
        <ele>372.4</ele>
        <time>2021-06-17T15:49:56Z</time>
      </trkpt>
      <trkpt lat="39.7110330" lon="2.6105820">
        <ele>372.2</ele>
        <time>2021-06-17T15:49:57Z</time>
      </trkpt>
      <trkpt lat="39.7111560" lon="2.6104390">
        <ele>372.2</ele>
        <time>2021-06-17T15:49:59Z</time>
      </trkpt>
      <trkpt lat="39.7116460" lon="2.6101310">
        <ele>371.7</ele>
        <time>2021-06-17T15:50:06Z</time>
      </trkpt>
      <trkpt lat="39.7116980" lon="2.6100970">
        <ele>371.7</ele>
        <time>2021-06-17T15:50:07Z</time>
      </trkpt>
      <trkpt lat="39.7120520" lon="2.6098820">
        <ele>371.8</ele>
        <time>2021-06-17T15:50:13Z</time>
      </trkpt>
      <trkpt lat="39.7124530" lon="2.6096470">
        <ele>372.0</ele>
        <time>2021-06-17T15:50:20Z</time>
      </trkpt>
      <trkpt lat="39.7125110" lon="2.6096160">
        <ele>372.0</ele>
        <time>2021-06-17T15:50:21Z</time>
      </trkpt>
      <trkpt lat="39.7127960" lon="2.6094470">
        <ele>372.1</ele>
        <time>2021-06-17T15:50:26Z</time>
      </trkpt>
      <trkpt lat="39.7129120" lon="2.6093690">
        <ele>372.1</ele>
        <time>2021-06-17T15:50:28Z</time>
      </trkpt>
      <trkpt lat="39.7131350" lon="2.6092430">
        <ele>372.2</ele>
        <time>2021-06-17T15:50:32Z</time>
      </trkpt>
      <trkpt lat="39.7132380" lon="2.6091900">
        <ele>372.2</ele>
        <time>2021-06-17T15:50:34Z</time>
      </trkpt>
      <trkpt lat="39.7133070" lon="2.6091490">
        <ele>372.2</ele>
        <time>2021-06-17T15:50:35Z</time>
      </trkpt>
      <trkpt lat="39.7135200" lon="2.6090230">
        <ele>372.2</ele>
        <time>2021-06-17T15:50:39Z</time>
      </trkpt>
      <trkpt lat="39.7137380" lon="2.6088780">
        <ele>372.3</ele>
        <time>2021-06-17T15:50:43Z</time>
      </trkpt>
      <trkpt lat="39.7140440" lon="2.6086880">
        <ele>372.5</ele>
        <time>2021-06-17T15:50:49Z</time>
      </trkpt>
      <trkpt lat="39.7142170" lon="2.6086060">
        <ele>372.6</ele>
        <time>2021-06-17T15:50:52Z</time>
      </trkpt>
      <trkpt lat="39.7144780" lon="2.6084790">
        <ele>372.8</ele>
        <time>2021-06-17T15:50:57Z</time>
      </trkpt>
      <trkpt lat="39.7145280" lon="2.6084580">
        <ele>372.8</ele>
        <time>2021-06-17T15:50:58Z</time>
      </trkpt>
      <trkpt lat="39.7145700" lon="2.6084440">
        <ele>372.8</ele>
        <time>2021-06-17T15:50:59Z</time>
      </trkpt>
      <trkpt lat="39.7149340" lon="2.6082690">
        <ele>372.8</ele>
        <time>2021-06-17T15:51:06Z</time>
      </trkpt>
      <trkpt lat="39.7154550" lon="2.6080130">
        <ele>373.4</ele>
        <time>2021-06-17T15:51:16Z</time>
      </trkpt>
      <trkpt lat="39.7156010" lon="2.6079490">
        <ele>373.7</ele>
        <time>2021-06-17T15:51:19Z</time>
      </trkpt>
      <trkpt lat="39.7159680" lon="2.6077590">
        <ele>374.7</ele>
        <time>2021-06-17T15:51:26Z</time>
      </trkpt>
      <trkpt lat="39.7162180" lon="2.6076100">
        <ele>375.3</ele>
        <time>2021-06-17T15:51:31Z</time>
      </trkpt>
      <trkpt lat="39.7163130" lon="2.6075520">
        <ele>375.3</ele>
        <time>2021-06-17T15:51:33Z</time>
      </trkpt>
      <trkpt lat="39.7164500" lon="2.6074610">
        <ele>375.4</ele>
        <time>2021-06-17T15:51:36Z</time>
      </trkpt>
      <trkpt lat="39.7166920" lon="2.6072880">
        <ele>375.4</ele>
        <time>2021-06-17T15:51:41Z</time>
      </trkpt>
      <trkpt lat="39.7171440" lon="2.6070420">
        <ele>374.6</ele>
        <time>2021-06-17T15:51:49Z</time>
      </trkpt>
      <trkpt lat="39.7175630" lon="2.6069420">
        <ele>374.3</ele>
        <time>2021-06-17T15:51:56Z</time>
      </trkpt>
      <trkpt lat="39.7177880" lon="2.6069160">
        <ele>374.5</ele>
        <time>2021-06-17T15:52:00Z</time>
      </trkpt>
      <trkpt lat="39.7179900" lon="2.6068910">
        <ele>374.7</ele>
        <time>2021-06-17T15:52:04Z</time>
      </trkpt>
      <trkpt lat="39.7180330" lon="2.6068840">
        <ele>374.8</ele>
        <time>2021-06-17T15:52:05Z</time>
      </trkpt>
      <trkpt lat="39.7180740" lon="2.6068750">
        <ele>374.9</ele>
        <time>2021-06-17T15:52:06Z</time>
      </trkpt>
      <trkpt lat="39.7181940" lon="2.6068650">
        <ele>375.3</ele>
        <time>2021-06-17T15:52:09Z</time>
      </trkpt>
      <trkpt lat="39.7185400" lon="2.6068180">
        <ele>376.9</ele>
        <time>2021-06-17T15:52:17Z</time>
      </trkpt>
      <trkpt lat="39.7186200" lon="2.6068020">
        <ele>377.3</ele>
        <time>2021-06-17T15:52:19Z</time>
      </trkpt>
      <trkpt lat="39.7189460" lon="2.6067420">
        <ele>379.2</ele>
        <time>2021-06-17T15:52:28Z</time>
      </trkpt>
      <trkpt lat="39.7191060" lon="2.6067100">
        <ele>380.3</ele>
        <time>2021-06-17T15:52:33Z</time>
      </trkpt>
      <trkpt lat="39.7192080" lon="2.6066940">
        <ele>380.9</ele>
        <time>2021-06-17T15:52:36Z</time>
      </trkpt>
      <trkpt lat="39.7194810" lon="2.6066510">
        <ele>382.6</ele>
        <time>2021-06-17T15:52:44Z</time>
      </trkpt>
      <trkpt lat="39.7197530" lon="2.6066100">
        <ele>384.3</ele>
        <time>2021-06-17T15:52:52Z</time>
      </trkpt>
      <trkpt lat="39.7198780" lon="2.6065920">
        <ele>385.1</ele>
        <time>2021-06-17T15:52:56Z</time>
      </trkpt>
      <trkpt lat="39.7201740" lon="2.6065710">
        <ele>387.0</ele>
        <time>2021-06-17T15:53:05Z</time>
      </trkpt>
      <trkpt lat="39.7204740" lon="2.6065400">
        <ele>389.6</ele>
        <time>2021-06-17T15:53:15Z</time>
      </trkpt>
      <trkpt lat="39.7205390" lon="2.6065380">
        <ele>390.2</ele>
        <time>2021-06-17T15:53:17Z</time>
      </trkpt>
      <trkpt lat="39.7207340" lon="2.6065320">
        <ele>392.3</ele>
        <time>2021-06-17T15:53:24Z</time>
      </trkpt>
      <trkpt lat="39.7209060" lon="2.6065200">
        <ele>394.2</ele>
        <time>2021-06-17T15:53:30Z</time>
      </trkpt>
      <trkpt lat="39.7209620" lon="2.6065160">
        <ele>394.8</ele>
        <time>2021-06-17T15:53:32Z</time>
      </trkpt>
      <trkpt lat="39.7210170" lon="2.6065130">
        <ele>395.4</ele>
        <time>2021-06-17T15:53:34Z</time>
      </trkpt>
      <trkpt lat="39.7212720" lon="2.6065040">
        <ele>398.2</ele>
        <time>2021-06-17T15:53:43Z</time>
      </trkpt>
      <trkpt lat="39.7213520" lon="2.6064940">
        <ele>399.1</ele>
        <time>2021-06-17T15:53:46Z</time>
      </trkpt>
      <trkpt lat="39.7214070" lon="2.6064880">
        <ele>399.7</ele>
        <time>2021-06-17T15:53:48Z</time>
      </trkpt>
      <trkpt lat="39.7214610" lon="2.6064820">
        <ele>400.4</ele>
        <time>2021-06-17T15:53:50Z</time>
      </trkpt>
      <trkpt lat="39.7216770" lon="2.6064690">
        <ele>403.0</ele>
        <time>2021-06-17T15:53:58Z</time>
      </trkpt>
      <trkpt lat="39.7219000" lon="2.6064220">
        <ele>405.6</ele>
        <time>2021-06-17T15:54:06Z</time>
      </trkpt>
      <trkpt lat="39.7220690" lon="2.6063530">
        <ele>407.5</ele>
        <time>2021-06-17T15:54:13Z</time>
      </trkpt>
      <trkpt lat="39.7222000" lon="2.6062390">
        <ele>409.1</ele>
        <time>2021-06-17T15:54:19Z</time>
      </trkpt>
      <trkpt lat="39.7222890" lon="2.6061140">
        <ele>410.4</ele>
        <time>2021-06-17T15:54:24Z</time>
      </trkpt>
      <trkpt lat="39.7223920" lon="2.6060150">
        <ele>411.8</ele>
        <time>2021-06-17T15:54:29Z</time>
      </trkpt>
      <trkpt lat="39.7225320" lon="2.6058850">
        <ele>413.7</ele>
        <time>2021-06-17T15:54:36Z</time>
      </trkpt>
      <trkpt lat="39.7227130" lon="2.6058590">
        <ele>415.9</ele>
        <time>2021-06-17T15:54:43Z</time>
      </trkpt>
      <trkpt lat="39.7228630" lon="2.6058410">
        <ele>417.5</ele>
        <time>2021-06-17T15:54:49Z</time>
      </trkpt>
      <trkpt lat="39.7229840" lon="2.6058730">
        <ele>418.8</ele>
        <time>2021-06-17T15:54:54Z</time>
      </trkpt>
      <trkpt lat="39.7231130" lon="2.6058710">
        <ele>419.8</ele>
        <time>2021-06-17T15:54:59Z</time>
      </trkpt>
      <trkpt lat="39.7232180" lon="2.6058790">
        <ele>420.2</ele>
        <time>2021-06-17T15:55:03Z</time>
      </trkpt>
      <trkpt lat="39.7232450" lon="2.6058950">
        <ele>420.3</ele>
        <time>2021-06-17T15:55:04Z</time>
      </trkpt>
      <trkpt lat="39.7233760" lon="2.6059290">
        <ele>421.0</ele>
        <time>2021-06-17T15:55:09Z</time>
      </trkpt>
      <trkpt lat="39.7235680" lon="2.6060020">
        <ele>421.8</ele>
        <time>2021-06-17T15:55:16Z</time>
      </trkpt>
      <trkpt lat="39.7237280" lon="2.6060220">
        <ele>421.9</ele>
        <time>2021-06-17T15:55:23Z</time>
      </trkpt>
      <trkpt lat="39.7238480" lon="2.6060300">
        <ele>421.5</ele>
        <time>2021-06-17T15:55:29Z</time>
      </trkpt>
      <trkpt lat="39.7239100" lon="2.6060540">
        <ele>421.2</ele>
        <time>2021-06-17T15:55:34Z</time>
      </trkpt>
      <trkpt lat="39.7239240" lon="2.6060530">
        <ele>421.1</ele>
        <time>2021-06-17T15:55:35Z</time>
      </trkpt>
      <trkpt lat="39.7239800" lon="2.6060730">
        <ele>420.7</ele>
        <time>2021-06-17T15:55:39Z</time>
      </trkpt>
      <trkpt lat="39.7240000" lon="2.6060720">
        <ele>420.6</ele>
        <time>2021-06-17T15:55:40Z</time>
      </trkpt>
      <trkpt lat="39.7240190" lon="2.6060630">
        <ele>420.5</ele>
        <time>2021-06-17T15:55:41Z</time>
      </trkpt>
      <trkpt lat="39.7240650" lon="2.6060530">
        <ele>420.2</ele>
        <time>2021-06-17T15:55:44Z</time>
      </trkpt>
      <trkpt lat="39.7240860" lon="2.6060780">
        <ele>420.0</ele>
        <time>2021-06-17T15:55:46Z</time>
      </trkpt>
      <trkpt lat="39.7241120" lon="2.6060970">
        <ele>419.8</ele>
        <time>2021-06-17T15:55:48Z</time>
      </trkpt>
      <trkpt lat="39.7241540" lon="2.6061090">
        <ele>419.5</ele>
        <time>2021-06-17T15:55:50Z</time>
      </trkpt>
      <trkpt lat="39.7241990" lon="2.6061170">
        <ele>419.2</ele>
        <time>2021-06-17T15:55:52Z</time>
      </trkpt>
      <trkpt lat="39.7242440" lon="2.6061230">
        <ele>418.9</ele>
        <time>2021-06-17T15:55:54Z</time>
      </trkpt>
      <trkpt lat="39.7244480" lon="2.6061220">
        <ele>417.5</ele>
        <time>2021-06-17T15:56:01Z</time>
      </trkpt>
      <trkpt lat="39.7246050" lon="2.6061330">
        <ele>416.5</ele>
        <time>2021-06-17T15:56:06Z</time>
      </trkpt>
      <trkpt lat="39.7246780" lon="2.6061390">
        <ele>416.0</ele>
        <time>2021-06-17T15:56:08Z</time>
      </trkpt>
      <trkpt lat="39.7247650" lon="2.6061510">
        <ele>415.4</ele>
        <time>2021-06-17T15:56:10Z</time>
      </trkpt>
      <trkpt lat="39.7248550" lon="2.6061600">
        <ele>414.8</ele>
        <time>2021-06-17T15:56:12Z</time>
      </trkpt>
      <trkpt lat="39.7249500" lon="2.6061820">
        <ele>414.2</ele>
        <time>2021-06-17T15:56:14Z</time>
      </trkpt>
      <trkpt lat="39.7251020" lon="2.6062610">
        <ele>413.2</ele>
        <time>2021-06-17T15:56:17Z</time>
      </trkpt>
      <trkpt lat="39.7252160" lon="2.6063300">
        <ele>412.4</ele>
        <time>2021-06-17T15:56:19Z</time>
      </trkpt>
      <trkpt lat="39.7252770" lon="2.6063720">
        <ele>412.0</ele>
        <time>2021-06-17T15:56:20Z</time>
      </trkpt>
      <trkpt lat="39.7253970" lon="2.6064590">
        <ele>411.4</ele>
        <time>2021-06-17T15:56:22Z</time>
      </trkpt>
      <trkpt lat="39.7256490" lon="2.6065990">
        <ele>410.5</ele>
        <time>2021-06-17T15:56:26Z</time>
      </trkpt>
      <trkpt lat="39.7257110" lon="2.6066150">
        <ele>410.4</ele>
        <time>2021-06-17T15:56:27Z</time>
      </trkpt>
      <trkpt lat="39.7257740" lon="2.6066150">
        <ele>410.3</ele>
        <time>2021-06-17T15:56:28Z</time>
      </trkpt>
      <trkpt lat="39.7258930" lon="2.6065800">
        <ele>410.1</ele>
        <time>2021-06-17T15:56:30Z</time>
      </trkpt>
      <trkpt lat="39.7260120" lon="2.6065330">
        <ele>409.9</ele>
        <time>2021-06-17T15:56:32Z</time>
      </trkpt>
      <trkpt lat="39.7261930" lon="2.6064590">
        <ele>409.6</ele>
        <time>2021-06-17T15:56:35Z</time>
      </trkpt>
      <trkpt lat="39.7262560" lon="2.6064390">
        <ele>409.5</ele>
        <time>2021-06-17T15:56:36Z</time>
      </trkpt>
      <trkpt lat="39.7263210" lon="2.6064310">
        <ele>409.4</ele>
        <time>2021-06-17T15:56:37Z</time>
      </trkpt>
      <trkpt lat="39.7264500" lon="2.6064330">
        <ele>409.1</ele>
        <time>2021-06-17T15:56:39Z</time>
      </trkpt>
      <trkpt lat="39.7266440" lon="2.6065280">
        <ele>408.7</ele>
        <time>2021-06-17T15:56:42Z</time>
      </trkpt>
      <trkpt lat="39.7267670" lon="2.6066150">
        <ele>408.4</ele>
        <time>2021-06-17T15:56:44Z</time>
      </trkpt>
      <trkpt lat="39.7268810" lon="2.6067190">
        <ele>408.1</ele>
        <time>2021-06-17T15:56:46Z</time>
      </trkpt>
      <trkpt lat="39.7269930" lon="2.6068300">
        <ele>407.8</ele>
        <time>2021-06-17T15:56:48Z</time>
      </trkpt>
      <trkpt lat="39.7271790" lon="2.6070410">
        <ele>407.2</ele>
        <time>2021-06-17T15:56:52Z</time>
      </trkpt>
      <trkpt lat="39.7272300" lon="2.6070920">
        <ele>407.1</ele>
        <time>2021-06-17T15:56:53Z</time>
      </trkpt>
      <trkpt lat="39.7273400" lon="2.6071850">
        <ele>406.7</ele>
        <time>2021-06-17T15:56:55Z</time>
      </trkpt>
      <trkpt lat="39.7275410" lon="2.6073010">
        <ele>406.0</ele>
        <time>2021-06-17T15:56:59Z</time>
      </trkpt>
      <trkpt lat="39.7276070" lon="2.6073340">
        <ele>405.7</ele>
        <time>2021-06-17T15:57:00Z</time>
      </trkpt>
      <trkpt lat="39.7277300" lon="2.6073800">
        <ele>405.2</ele>
        <time>2021-06-17T15:57:02Z</time>
      </trkpt>
      <trkpt lat="39.7279390" lon="2.6074300">
        <ele>404.4</ele>
        <time>2021-06-17T15:57:05Z</time>
      </trkpt>
      <trkpt lat="39.7280910" lon="2.6074700">
        <ele>403.8</ele>
        <time>2021-06-17T15:57:07Z</time>
      </trkpt>
      <trkpt lat="39.7282430" lon="2.6075500">
        <ele>403.1</ele>
        <time>2021-06-17T15:57:09Z</time>
      </trkpt>
      <trkpt lat="39.7284000" lon="2.6076330">
        <ele>402.5</ele>
        <time>2021-06-17T15:57:11Z</time>
      </trkpt>
      <trkpt lat="39.7284860" lon="2.6076650">
        <ele>402.2</ele>
        <time>2021-06-17T15:57:12Z</time>
      </trkpt>
      <trkpt lat="39.7286580" lon="2.6077080">
        <ele>401.8</ele>
        <time>2021-06-17T15:57:14Z</time>
      </trkpt>
      <trkpt lat="39.7289090" lon="2.6077060">
        <ele>401.2</ele>
        <time>2021-06-17T15:57:17Z</time>
      </trkpt>
      <trkpt lat="39.7289880" lon="2.6076820">
        <ele>401.1</ele>
        <time>2021-06-17T15:57:18Z</time>
      </trkpt>
      <trkpt lat="39.7291420" lon="2.6076130">
        <ele>400.7</ele>
        <time>2021-06-17T15:57:20Z</time>
      </trkpt>
      <trkpt lat="39.7292240" lon="2.6075810">
        <ele>400.5</ele>
        <time>2021-06-17T15:57:21Z</time>
      </trkpt>
      <trkpt lat="39.7293710" lon="2.6075600">
        <ele>400.1</ele>
        <time>2021-06-17T15:57:23Z</time>
      </trkpt>
      <trkpt lat="39.7298250" lon="2.6075950">
        <ele>398.2</ele>
        <time>2021-06-17T15:57:28Z</time>
      </trkpt>
      <trkpt lat="39.7299930" lon="2.6077060">
        <ele>397.5</ele>
        <time>2021-06-17T15:57:30Z</time>
      </trkpt>
      <trkpt lat="39.7300690" lon="2.6077780">
        <ele>397.2</ele>
        <time>2021-06-17T15:57:31Z</time>
      </trkpt>
      <trkpt lat="39.7302880" lon="2.6080090">
        <ele>396.4</ele>
        <time>2021-06-17T15:57:34Z</time>
      </trkpt>
      <trkpt lat="39.7305690" lon="2.6083260">
        <ele>395.0</ele>
        <time>2021-06-17T15:57:38Z</time>
      </trkpt>
      <trkpt lat="39.7308430" lon="2.6086690">
        <ele>393.5</ele>
        <time>2021-06-17T15:57:42Z</time>
      </trkpt>
      <trkpt lat="39.7311450" lon="2.6089390">
        <ele>392.3</ele>
        <time>2021-06-17T15:57:45Z</time>
      </trkpt>
      <trkpt lat="39.7313990" lon="2.6091460">
        <ele>391.7</ele>
        <time>2021-06-17T15:57:50Z</time>
      </trkpt>
      <trkpt lat="39.7317770" lon="2.6093740">
        <ele>391.4</ele>
        <time>2021-06-17T15:57:56Z</time>
      </trkpt>
      <trkpt lat="39.7319800" lon="2.6094440">
        <ele>391.0</ele>
        <time>2021-06-17T15:57:59Z</time>
      </trkpt>
      <trkpt lat="39.7320450" lon="2.6094670">
        <ele>390.8</ele>
        <time>2021-06-17T15:58:00Z</time>
      </trkpt>
      <trkpt lat="39.7321080" lon="2.6094820">
        <ele>390.6</ele>
        <time>2021-06-17T15:58:01Z</time>
      </trkpt>
      <trkpt lat="39.7321710" lon="2.6094980">
        <ele>390.4</ele>
        <time>2021-06-17T15:58:02Z</time>
      </trkpt>
      <trkpt lat="39.7325300" lon="2.6094950">
        <ele>389.5</ele>
        <time>2021-06-17T15:58:07Z</time>
      </trkpt>
      <trkpt lat="39.7326810" lon="2.6095390">
        <ele>388.9</ele>
        <time>2021-06-17T15:58:09Z</time>
      </trkpt>
      <trkpt lat="39.7327450" lon="2.6095920">
        <ele>388.6</ele>
        <time>2021-06-17T15:58:10Z</time>
      </trkpt>
      <trkpt lat="39.7328010" lon="2.6096620">
        <ele>388.2</ele>
        <time>2021-06-17T15:58:11Z</time>
      </trkpt>
      <trkpt lat="39.7329570" lon="2.6099050">
        <ele>387.0</ele>
        <time>2021-06-17T15:58:14Z</time>
      </trkpt>
      <trkpt lat="39.7331310" lon="2.6101560">
        <ele>385.6</ele>
        <time>2021-06-17T15:58:17Z</time>
      </trkpt>
      <trkpt lat="39.7332780" lon="2.6104380">
        <ele>383.9</ele>
        <time>2021-06-17T15:58:20Z</time>
      </trkpt>
      <trkpt lat="39.7335300" lon="2.6110960">
        <ele>380.0</ele>
        <time>2021-06-17T15:58:26Z</time>
      </trkpt>
      <trkpt lat="39.7336770" lon="2.6114420">
        <ele>378.5</ele>
        <time>2021-06-17T15:58:29Z</time>
      </trkpt>
      <trkpt lat="39.7338080" lon="2.6116430">
        <ele>378.0</ele>
        <time>2021-06-17T15:58:31Z</time>
      </trkpt>
      <trkpt lat="39.7339730" lon="2.6117720">
        <ele>378.0</ele>
        <time>2021-06-17T15:58:33Z</time>
      </trkpt>
      <trkpt lat="39.7340580" lon="2.6118150">
        <ele>378.2</ele>
        <time>2021-06-17T15:58:34Z</time>
      </trkpt>
      <trkpt lat="39.7342860" lon="2.6119340">
        <ele>378.6</ele>
        <time>2021-06-17T15:58:37Z</time>
      </trkpt>
      <trkpt lat="39.7343540" lon="2.6119850">
        <ele>379.0</ele>
        <time>2021-06-17T15:58:38Z</time>
      </trkpt>
      <trkpt lat="39.7344180" lon="2.6120400">
        <ele>379.3</ele>
        <time>2021-06-17T15:58:39Z</time>
      </trkpt>
      <trkpt lat="39.7345520" lon="2.6121660">
        <ele>380.0</ele>
        <time>2021-06-17T15:58:41Z</time>
      </trkpt>
      <trkpt lat="39.7346500" lon="2.6122800">
        <ele>380.6</ele>
        <time>2021-06-17T15:58:43Z</time>
      </trkpt>
      <trkpt lat="39.7348150" lon="2.6124500">
        <ele>381.3</ele>
        <time>2021-06-17T15:58:46Z</time>
      </trkpt>
      <trkpt lat="39.7348660" lon="2.6125060">
        <ele>381.5</ele>
        <time>2021-06-17T15:58:47Z</time>
      </trkpt>
      <trkpt lat="39.7349100" lon="2.6125640">
        <ele>381.8</ele>
        <time>2021-06-17T15:58:48Z</time>
      </trkpt>
      <trkpt lat="39.7350380" lon="2.6127460">
        <ele>382.4</ele>
        <time>2021-06-17T15:58:51Z</time>
      </trkpt>
      <trkpt lat="39.7351080" lon="2.6128680">
        <ele>382.7</ele>
        <time>2021-06-17T15:58:53Z</time>
      </trkpt>
      <trkpt lat="39.7351730" lon="2.6129910">
        <ele>382.9</ele>
        <time>2021-06-17T15:58:55Z</time>
      </trkpt>
      <trkpt lat="39.7352700" lon="2.6131740">
        <ele>383.0</ele>
        <time>2021-06-17T15:58:58Z</time>
      </trkpt>
      <trkpt lat="39.7353380" lon="2.6132920">
        <ele>383.1</ele>
        <time>2021-06-17T15:59:00Z</time>
      </trkpt>
      <trkpt lat="39.7354160" lon="2.6134030">
        <ele>383.1</ele>
        <time>2021-06-17T15:59:02Z</time>
      </trkpt>
      <trkpt lat="39.7356440" lon="2.6137550">
        <ele>382.3</ele>
        <time>2021-06-17T15:59:08Z</time>
      </trkpt>
      <trkpt lat="39.7357370" lon="2.6139650">
        <ele>381.4</ele>
        <time>2021-06-17T15:59:11Z</time>
      </trkpt>
      <trkpt lat="39.7357990" lon="2.6141190">
        <ele>380.6</ele>
        <time>2021-06-17T15:59:13Z</time>
      </trkpt>
      <trkpt lat="39.7359180" lon="2.6143640">
        <ele>379.2</ele>
        <time>2021-06-17T15:59:16Z</time>
      </trkpt>
      <trkpt lat="39.7359730" lon="2.6144400">
        <ele>378.6</ele>
        <time>2021-06-17T15:59:17Z</time>
      </trkpt>
      <trkpt lat="39.7360360" lon="2.6145100">
        <ele>378.0</ele>
        <time>2021-06-17T15:59:18Z</time>
      </trkpt>
      <trkpt lat="39.7361830" lon="2.6146140">
        <ele>376.8</ele>
        <time>2021-06-17T15:59:20Z</time>
      </trkpt>
      <trkpt lat="39.7362570" lon="2.6146550">
        <ele>376.2</ele>
        <time>2021-06-17T15:59:21Z</time>
      </trkpt>
      <trkpt lat="39.7363910" lon="2.6147700">
        <ele>374.9</ele>
        <time>2021-06-17T15:59:23Z</time>
      </trkpt>
      <trkpt lat="39.7364510" lon="2.6148520">
        <ele>374.2</ele>
        <time>2021-06-17T15:59:24Z</time>
      </trkpt>
      <trkpt lat="39.7365020" lon="2.6149510">
        <ele>373.6</ele>
        <time>2021-06-17T15:59:25Z</time>
      </trkpt>
      <trkpt lat="39.7365700" lon="2.6151680">
        <ele>372.5</ele>
        <time>2021-06-17T15:59:27Z</time>
      </trkpt>
      <trkpt lat="39.7366990" lon="2.6157520">
        <ele>371.1</ele>
        <time>2021-06-17T15:59:32Z</time>
      </trkpt>
      <trkpt lat="39.7367090" lon="2.6158660">
        <ele>371.1</ele>
        <time>2021-06-17T15:59:33Z</time>
      </trkpt>
      <trkpt lat="39.7367080" lon="2.6160860">
        <ele>370.9</ele>
        <time>2021-06-17T15:59:35Z</time>
      </trkpt>
      <trkpt lat="39.7367050" lon="2.6161860">
        <ele>370.9</ele>
        <time>2021-06-17T15:59:36Z</time>
      </trkpt>
      <trkpt lat="39.7366500" lon="2.6165890">
        <ele>370.8</ele>
        <time>2021-06-17T15:59:40Z</time>
      </trkpt>
      <trkpt lat="39.7366460" lon="2.6166820">
        <ele>370.7</ele>
        <time>2021-06-17T15:59:41Z</time>
      </trkpt>
      <trkpt lat="39.7366490" lon="2.6167720">
        <ele>370.6</ele>
        <time>2021-06-17T15:59:42Z</time>
      </trkpt>
      <trkpt lat="39.7366880" lon="2.6169570">
        <ele>370.3</ele>
        <time>2021-06-17T15:59:44Z</time>
      </trkpt>
      <trkpt lat="39.7367510" lon="2.6171390">
        <ele>369.8</ele>
        <time>2021-06-17T15:59:46Z</time>
      </trkpt>
      <trkpt lat="39.7368720" lon="2.6172760">
        <ele>369.1</ele>
        <time>2021-06-17T15:59:48Z</time>
      </trkpt>
      <trkpt lat="39.7370160" lon="2.6173670">
        <ele>368.5</ele>
        <time>2021-06-17T15:59:50Z</time>
      </trkpt>
      <trkpt lat="39.7371670" lon="2.6174400">
        <ele>367.9</ele>
        <time>2021-06-17T15:59:52Z</time>
      </trkpt>
      <trkpt lat="39.7375990" lon="2.6176310">
        <ele>366.1</ele>
        <time>2021-06-17T15:59:57Z</time>
      </trkpt>
      <trkpt lat="39.7378610" lon="2.6177550">
        <ele>364.7</ele>
        <time>2021-06-17T16:00:00Z</time>
      </trkpt>
      <trkpt lat="39.7380130" lon="2.6178710">
        <ele>363.9</ele>
        <time>2021-06-17T16:00:02Z</time>
      </trkpt>
      <trkpt lat="39.7381050" lon="2.6180670">
        <ele>363.1</ele>
        <time>2021-06-17T16:00:04Z</time>
      </trkpt>
      <trkpt lat="39.7381220" lon="2.6183210">
        <ele>362.2</ele>
        <time>2021-06-17T16:00:06Z</time>
      </trkpt>
      <trkpt lat="39.7381190" lon="2.6184520">
        <ele>361.9</ele>
        <time>2021-06-17T16:00:07Z</time>
      </trkpt>
      <trkpt lat="39.7380740" lon="2.6191870">
        <ele>360.4</ele>
        <time>2021-06-17T16:00:13Z</time>
      </trkpt>
      <trkpt lat="39.7380150" lon="2.6196820">
        <ele>358.2</ele>
        <time>2021-06-17T16:00:17Z</time>
      </trkpt>
      <trkpt lat="39.7379850" lon="2.6198020">
        <ele>357.5</ele>
        <time>2021-06-17T16:00:18Z</time>
      </trkpt>
      <trkpt lat="39.7379690" lon="2.6199280">
        <ele>356.9</ele>
        <time>2021-06-17T16:00:19Z</time>
      </trkpt>
      <trkpt lat="39.7379850" lon="2.6201870">
        <ele>355.8</ele>
        <time>2021-06-17T16:00:21Z</time>
      </trkpt>
      <trkpt lat="39.7380640" lon="2.6204280">
        <ele>354.6</ele>
        <time>2021-06-17T16:00:23Z</time>
      </trkpt>
      <trkpt lat="39.7381160" lon="2.6205440">
        <ele>354.0</ele>
        <time>2021-06-17T16:00:24Z</time>
      </trkpt>
      <trkpt lat="39.7384280" lon="2.6210920">
        <ele>350.9</ele>
        <time>2021-06-17T16:00:29Z</time>
      </trkpt>
      <trkpt lat="39.7387170" lon="2.6215110">
        <ele>348.4</ele>
        <time>2021-06-17T16:00:33Z</time>
      </trkpt>
      <trkpt lat="39.7388070" lon="2.6216010">
        <ele>347.8</ele>
        <time>2021-06-17T16:00:34Z</time>
      </trkpt>
      <trkpt lat="39.7389950" lon="2.6217490">
        <ele>346.9</ele>
        <time>2021-06-17T16:00:36Z</time>
      </trkpt>
      <trkpt lat="39.7390860" lon="2.6218120">
        <ele>346.5</ele>
        <time>2021-06-17T16:00:37Z</time>
      </trkpt>
      <trkpt lat="39.7391710" lon="2.6218710">
        <ele>345.6</ele>
        <time>2021-06-17T16:00:38Z</time>
      </trkpt>
      <trkpt lat="39.7393970" lon="2.6220230">
        <ele>343.5</ele>
        <time>2021-06-17T16:00:41Z</time>
      </trkpt>
      <trkpt lat="39.7394630" lon="2.6220690">
        <ele>342.8</ele>
        <time>2021-06-17T16:00:42Z</time>
      </trkpt>
      <trkpt lat="39.7399150" lon="2.6223720">
        <ele>339.4</ele>
        <time>2021-06-17T16:00:48Z</time>
      </trkpt>
      <trkpt lat="39.7404370" lon="2.6227140">
        <ele>336.4</ele>
        <time>2021-06-17T16:00:54Z</time>
      </trkpt>
      <trkpt lat="39.7409730" lon="2.6230800">
        <ele>333.7</ele>
        <time>2021-06-17T16:01:00Z</time>
      </trkpt>
      <trkpt lat="39.7410550" lon="2.6231550">
        <ele>333.2</ele>
        <time>2021-06-17T16:01:01Z</time>
      </trkpt>
      <trkpt lat="39.7412780" lon="2.6234290">
        <ele>331.4</ele>
        <time>2021-06-17T16:01:04Z</time>
      </trkpt>
      <trkpt lat="39.7413450" lon="2.6235330">
        <ele>330.8</ele>
        <time>2021-06-17T16:01:05Z</time>
      </trkpt>
      <trkpt lat="39.7415850" lon="2.6240060">
        <ele>328.1</ele>
        <time>2021-06-17T16:01:09Z</time>
      </trkpt>
      <trkpt lat="39.7418950" lon="2.6245980">
        <ele>324.7</ele>
        <time>2021-06-17T16:01:14Z</time>
      </trkpt>
      <trkpt lat="39.7421650" lon="2.6251470">
        <ele>321.2</ele>
        <time>2021-06-17T16:01:19Z</time>
      </trkpt>
      <trkpt lat="39.7423370" lon="2.6255020">
        <ele>318.8</ele>
        <time>2021-06-17T16:01:22Z</time>
      </trkpt>
      <trkpt lat="39.7423950" lon="2.6256270">
        <ele>318.0</ele>
        <time>2021-06-17T16:01:23Z</time>
      </trkpt>
      <trkpt lat="39.7424520" lon="2.6257560">
        <ele>317.2</ele>
        <time>2021-06-17T16:01:24Z</time>
      </trkpt>
      <trkpt lat="39.7425060" lon="2.6258860">
        <ele>316.5</ele>
        <time>2021-06-17T16:01:25Z</time>
      </trkpt>
      <trkpt lat="39.7425590" lon="2.6260200">
        <ele>315.8</ele>
        <time>2021-06-17T16:01:26Z</time>
      </trkpt>
      <trkpt lat="39.7427790" lon="2.6265410">
        <ele>313.4</ele>
        <time>2021-06-17T16:01:30Z</time>
      </trkpt>
      <trkpt lat="39.7428380" lon="2.6266670">
        <ele>312.8</ele>
        <time>2021-06-17T16:01:31Z</time>
      </trkpt>
      <trkpt lat="39.7428970" lon="2.6267930">
        <ele>312.3</ele>
        <time>2021-06-17T16:01:32Z</time>
      </trkpt>
      <trkpt lat="39.7431750" lon="2.6272570">
        <ele>310.3</ele>
        <time>2021-06-17T16:01:36Z</time>
      </trkpt>
      <trkpt lat="39.7434770" lon="2.6276570">
        <ele>309.0</ele>
        <time>2021-06-17T16:01:40Z</time>
      </trkpt>
      <trkpt lat="39.7435650" lon="2.6277400">
        <ele>308.5</ele>
        <time>2021-06-17T16:01:41Z</time>
      </trkpt>
      <trkpt lat="39.7438480" lon="2.6279680">
        <ele>307.4</ele>
        <time>2021-06-17T16:01:44Z</time>
      </trkpt>
      <trkpt lat="39.7441380" lon="2.6281610">
        <ele>306.9</ele>
        <time>2021-06-17T16:01:47Z</time>
      </trkpt>
      <trkpt lat="39.7445680" lon="2.6284510">
        <ele>305.9</ele>
        <time>2021-06-17T16:01:52Z</time>
      </trkpt>
      <trkpt lat="39.7449860" lon="2.6287390">
        <ele>304.7</ele>
        <time>2021-06-17T16:01:57Z</time>
      </trkpt>
      <trkpt lat="39.7450750" lon="2.6287760">
        <ele>304.7</ele>
        <time>2021-06-17T16:01:58Z</time>
      </trkpt>
      <trkpt lat="39.7453460" lon="2.6288450">
        <ele>305.1</ele>
        <time>2021-06-17T16:02:01Z</time>
      </trkpt>
      <trkpt lat="39.7455160" lon="2.6288820">
        <ele>305.6</ele>
        <time>2021-06-17T16:02:03Z</time>
      </trkpt>
      <trkpt lat="39.7457340" lon="2.6289310">
        <ele>306.4</ele>
        <time>2021-06-17T16:02:06Z</time>
      </trkpt>
      <trkpt lat="39.7459630" lon="2.6290000">
        <ele>307.4</ele>
        <time>2021-06-17T16:02:09Z</time>
      </trkpt>
      <trkpt lat="39.7460840" lon="2.6290300">
        <ele>307.8</ele>
        <time>2021-06-17T16:02:11Z</time>
      </trkpt>
      <trkpt lat="39.7462790" lon="2.6290720">
        <ele>308.0</ele>
        <time>2021-06-17T16:02:14Z</time>
      </trkpt>
      <trkpt lat="39.7464550" lon="2.6291450">
        <ele>307.5</ele>
        <time>2021-06-17T16:02:17Z</time>
      </trkpt>
      <trkpt lat="39.7466090" lon="2.6292670">
        <ele>306.7</ele>
        <time>2021-06-17T16:02:20Z</time>
      </trkpt>
      <trkpt lat="39.7469120" lon="2.6295980">
        <ele>304.2</ele>
        <time>2021-06-17T16:02:25Z</time>
      </trkpt>
      <trkpt lat="39.7473040" lon="2.6300480">
        <ele>301.2</ele>
        <time>2021-06-17T16:02:31Z</time>
      </trkpt>
      <trkpt lat="39.7476050" lon="2.6304010">
        <ele>299.0</ele>
        <time>2021-06-17T16:02:35Z</time>
      </trkpt>
      <trkpt lat="39.7476780" lon="2.6304860">
        <ele>298.4</ele>
        <time>2021-06-17T16:02:36Z</time>
      </trkpt>
      <trkpt lat="39.7478340" lon="2.6306430">
        <ele>297.2</ele>
        <time>2021-06-17T16:02:38Z</time>
      </trkpt>
      <trkpt lat="39.7479200" lon="2.6307080">
        <ele>296.5</ele>
        <time>2021-06-17T16:02:39Z</time>
      </trkpt>
      <trkpt lat="39.7482150" lon="2.6308530">
        <ele>294.1</ele>
        <time>2021-06-17T16:02:42Z</time>
      </trkpt>
      <trkpt lat="39.7484280" lon="2.6309410">
        <ele>292.3</ele>
        <time>2021-06-17T16:02:44Z</time>
      </trkpt>
      <trkpt lat="39.7490340" lon="2.6311900">
        <ele>287.3</ele>
        <time>2021-06-17T16:02:50Z</time>
      </trkpt>
      <trkpt lat="39.7491300" lon="2.6312060">
        <ele>286.5</ele>
        <time>2021-06-17T16:02:51Z</time>
      </trkpt>
      <trkpt lat="39.7492850" lon="2.6311720">
        <ele>285.2</ele>
        <time>2021-06-17T16:02:53Z</time>
      </trkpt>
      <trkpt lat="39.7494460" lon="2.6310640">
        <ele>283.7</ele>
        <time>2021-06-17T16:02:56Z</time>
      </trkpt>
      <trkpt lat="39.7495050" lon="2.6310070">
        <ele>283.1</ele>
        <time>2021-06-17T16:02:59Z</time>
      </trkpt>
      <trkpt lat="39.7495520" lon="2.6309260">
        <ele>282.8</ele>
        <time>2021-06-17T16:03:03Z</time>
      </trkpt>
      <trkpt lat="39.7495490" lon="2.6309030">
        <ele>282.8</ele>
        <time>2021-06-17T16:03:04Z</time>
      </trkpt>
      <trkpt lat="39.7495370" lon="2.6308510">
        <ele>282.7</ele>
        <time>2021-06-17T16:03:09Z</time>
      </trkpt>
      <trkpt lat="39.7495370" lon="2.6308510">
        <ele>282.7</ele>
        <time>2021-06-17T16:03:17Z</time>
      </trkpt>
      <trkpt lat="39.7495370" lon="2.6308510">
        <ele>282.7</ele>
        <time>2021-06-17T16:03:19Z</time>
      </trkpt>
      <trkpt lat="39.7495370" lon="2.6308510">
        <ele>282.7</ele>
        <time>2021-06-17T16:03:30Z</time>
      </trkpt>
      <trkpt lat="39.7495560" lon="2.6308280">
        <ele>282.5</ele>
        <time>2021-06-17T16:03:48Z</time>
      </trkpt>
      <trkpt lat="39.7496090" lon="2.6307840">
        <ele>281.9</ele>
        <time>2021-06-17T16:03:50Z</time>
      </trkpt>
      <trkpt lat="39.7498160" lon="2.6306010">
        <ele>279.4</ele>
        <time>2021-06-17T16:03:55Z</time>
      </trkpt>
      <trkpt lat="39.7501290" lon="2.6304120">
        <ele>275.8</ele>
        <time>2021-06-17T16:04:00Z</time>
      </trkpt>
      <trkpt lat="39.7505300" lon="2.6302260">
        <ele>272.8</ele>
        <time>2021-06-17T16:04:05Z</time>
      </trkpt>
      <trkpt lat="39.7509520" lon="2.6300370">
        <ele>271.5</ele>
        <time>2021-06-17T16:04:11Z</time>
      </trkpt>
      <trkpt lat="39.7512470" lon="2.6299040">
        <ele>271.3</ele>
        <time>2021-06-17T16:04:16Z</time>
      </trkpt>
      <trkpt lat="39.7514930" lon="2.6297880">
        <ele>271.2</ele>
        <time>2021-06-17T16:04:22Z</time>
      </trkpt>
      <trkpt lat="39.7515650" lon="2.6297210">
        <ele>267.7</ele>
        <time>2021-06-17T16:04:26Z</time>
      </trkpt>
      <trkpt lat="39.7515740" lon="2.6296500">
        <ele>265.3</ele>
        <time>2021-06-17T16:04:31Z</time>
      </trkpt>
      <trkpt lat="39.7515720" lon="2.6296310">
        <ele>264.7</ele>
        <time>2021-06-17T16:04:32Z</time>
      </trkpt>
      <trkpt lat="39.7515470" lon="2.6295290">
        <ele>261.0</ele>
        <time>2021-06-17T16:04:36Z</time>
      </trkpt>
      <trkpt lat="39.7515230" lon="2.6294400">
        <ele>257.6</ele>
        <time>2021-06-17T16:04:39Z</time>
      </trkpt>
      <trkpt lat="39.7515980" lon="2.6293790">
        <ele>253.5</ele>
        <time>2021-06-17T16:04:42Z</time>
      </trkpt>
      <trkpt lat="39.7518090" lon="2.6293210">
        <ele>243.9</ele>
        <time>2021-06-17T16:04:49Z</time>
      </trkpt>
      <trkpt lat="39.7518640" lon="2.6292730">
        <ele>241.0</ele>
        <time>2021-06-17T16:04:52Z</time>
      </trkpt>
      <trkpt lat="39.7518820" lon="2.6292270">
        <ele>239.1</ele>
        <time>2021-06-17T16:04:54Z</time>
      </trkpt>
      <trkpt lat="39.7519010" lon="2.6291870">
        <ele>239.1</ele>
        <time>2021-06-17T16:04:57Z</time>
      </trkpt>
      <trkpt lat="39.7519010" lon="2.6291870">
        <ele>239.1</ele>
        <time>2021-06-17T16:04:59Z</time>
      </trkpt>
      <trkpt lat="39.7519010" lon="2.6291870">
        <ele>239.1</ele>
        <time>2021-06-17T16:05:13Z</time>
      </trkpt>
      <trkpt lat="39.7519010" lon="2.6291870">
        <ele>239.1</ele>
        <time>2021-06-17T16:05:19Z</time>
      </trkpt>
      <trkpt lat="39.7519050" lon="2.6291860">
        <ele>239.1</ele>
        <time>2021-06-17T16:05:21Z</time>
      </trkpt>
      <trkpt lat="39.7519280" lon="2.6291540">
        <ele>239.1</ele>
        <time>2021-06-17T16:05:24Z</time>
      </trkpt>
      <trkpt lat="39.7519380" lon="2.6291450">
        <ele>239.1</ele>
        <time>2021-06-17T16:05:25Z</time>
      </trkpt>
      <trkpt lat="39.7519650" lon="2.6291040">
        <ele>239.1</ele>
        <time>2021-06-17T16:05:30Z</time>
      </trkpt>
      <trkpt lat="39.7519650" lon="2.6291040">
        <ele>239.1</ele>
        <time>2021-06-17T16:05:33Z</time>
      </trkpt>
      <trkpt lat="39.7519650" lon="2.6291040">
        <ele>239.1</ele>
        <time>2021-06-17T16:05:36Z</time>
      </trkpt>
      <trkpt lat="39.7519650" lon="2.6291040">
        <ele>239.1</ele>
        <time>2021-06-17T16:05:39Z</time>
      </trkpt>
      <trkpt lat="39.7519590" lon="2.6291120">
        <ele>239.1</ele>
        <time>2021-06-17T16:06:30Z</time>
      </trkpt>
      <trkpt lat="39.7519590" lon="2.6291120">
        <ele>239.1</ele>
        <time>2021-06-17T16:06:33Z</time>
      </trkpt>
      <trkpt lat="39.7519590" lon="2.6291120">
        <ele>239.1</ele>
        <time>2021-06-17T16:06:39Z</time>
      </trkpt>
      <trkpt lat="39.7519590" lon="2.6291120">
        <ele>239.1</ele>
        <time>2021-06-17T16:06:44Z</time>
      </trkpt>
      <trkpt lat="39.7519590" lon="2.6291120">
        <ele>239.1</ele>
        <time>2021-06-17T16:06:47Z</time>
      </trkpt>
      <trkpt lat="39.7519650" lon="2.6291110">
        <ele>239.1</ele>
        <time>2021-06-17T16:07:04Z</time>
      </trkpt>
      <trkpt lat="39.7519650" lon="2.6291110">
        <ele>239.1</ele>
        <time>2021-06-17T16:07:08Z</time>
      </trkpt>
      <trkpt lat="39.7519610" lon="2.6290980">
        <ele>239.1</ele>
        <time>2021-06-17T16:07:16Z</time>
      </trkpt>
      <trkpt lat="39.7519570" lon="2.6290950">
        <ele>239.1</ele>
        <time>2021-06-17T16:07:22Z</time>
      </trkpt>
      <trkpt lat="39.7519570" lon="2.6290950">
        <ele>239.1</ele>
        <time>2021-06-17T16:07:25Z</time>
      </trkpt>
      <trkpt lat="39.7519570" lon="2.6290950">
        <ele>239.1</ele>
        <time>2021-06-17T16:07:27Z</time>
      </trkpt>
      <trkpt lat="39.7519570" lon="2.6290950">
        <ele>239.1</ele>
        <time>2021-06-17T16:07:29Z</time>
      </trkpt>
      <trkpt lat="39.7519570" lon="2.6290950">
        <ele>239.1</ele>
        <time>2021-06-17T16:07:32Z</time>
      </trkpt>
      <trkpt lat="39.7519570" lon="2.6290950">
        <ele>239.1</ele>
        <time>2021-06-17T16:07:35Z</time>
      </trkpt>
      <trkpt lat="39.7519580" lon="2.6290940">
        <ele>239.1</ele>
        <time>2021-06-17T16:07:52Z</time>
      </trkpt>
      <trkpt lat="39.7519610" lon="2.6290920">
        <ele>239.1</ele>
        <time>2021-06-17T16:08:00Z</time>
      </trkpt>
      <trkpt lat="39.7519640" lon="2.6290890">
        <ele>239.1</ele>
        <time>2021-06-17T16:08:36Z</time>
      </trkpt>
      <trkpt lat="39.7519640" lon="2.6290890">
        <ele>239.1</ele>
        <time>2021-06-17T16:08:40Z</time>
      </trkpt>
      <trkpt lat="39.7519640" lon="2.6290890">
        <ele>239.1</ele>
        <time>2021-06-17T16:08:43Z</time>
      </trkpt>
      <trkpt lat="39.7519640" lon="2.6290890">
        <ele>239.1</ele>
        <time>2021-06-17T16:08:50Z</time>
      </trkpt>
      <trkpt lat="39.7519640" lon="2.6290890">
        <ele>239.1</ele>
        <time>2021-06-17T16:08:52Z</time>
      </trkpt>
      <trkpt lat="39.7519640" lon="2.6290890">
        <ele>239.1</ele>
        <time>2021-06-17T16:08:57Z</time>
      </trkpt>
      <trkpt lat="39.7519640" lon="2.6290890">
        <ele>239.1</ele>
        <time>2021-06-17T16:09:02Z</time>
      </trkpt>
      <trkpt lat="39.7519640" lon="2.6290890">
        <ele>239.1</ele>
        <time>2021-06-17T16:09:05Z</time>
      </trkpt>
      <trkpt lat="39.7519640" lon="2.6290890">
        <ele>239.1</ele>
        <time>2021-06-17T16:09:08Z</time>
      </trkpt>
      <trkpt lat="39.7519640" lon="2.6290890">
        <ele>239.1</ele>
        <time>2021-06-17T16:09:27Z</time>
      </trkpt>
      <trkpt lat="39.7519640" lon="2.6290940">
        <ele>239.1</ele>
        <time>2021-06-17T16:09:34Z</time>
      </trkpt>
      <trkpt lat="39.7519490" lon="2.6291610">
        <ele>239.1</ele>
        <time>2021-06-17T16:09:37Z</time>
      </trkpt>
      <trkpt lat="39.7519410" lon="2.6291730">
        <ele>239.1</ele>
        <time>2021-06-17T16:09:38Z</time>
      </trkpt>
      <trkpt lat="39.7519120" lon="2.6291970">
        <ele>239.1</ele>
        <time>2021-06-17T16:09:44Z</time>
      </trkpt>
      <trkpt lat="39.7519200" lon="2.6292040">
        <ele>239.1</ele>
        <time>2021-06-17T16:09:47Z</time>
      </trkpt>
      <trkpt lat="39.7519200" lon="2.6292040">
        <ele>239.1</ele>
        <time>2021-06-17T16:09:49Z</time>
      </trkpt>
      <trkpt lat="39.7519200" lon="2.6292040">
        <ele>239.1</ele>
        <time>2021-06-17T16:09:52Z</time>
      </trkpt>
      <trkpt lat="39.7519200" lon="2.6292040">
        <ele>239.1</ele>
        <time>2021-06-17T16:09:54Z</time>
      </trkpt>
      <trkpt lat="39.7519200" lon="2.6292040">
        <ele>239.1</ele>
        <time>2021-06-17T16:09:56Z</time>
      </trkpt>
      <trkpt lat="39.7519200" lon="2.6292040">
        <ele>239.1</ele>
        <time>2021-06-17T16:10:11Z</time>
      </trkpt>
      <trkpt lat="39.7519200" lon="2.6292040">
        <ele>239.1</ele>
        <time>2021-06-17T16:10:18Z</time>
      </trkpt>
      <trkpt lat="39.7518960" lon="2.6292220">
        <ele>239.1</ele>
        <time>2021-06-17T16:10:28Z</time>
      </trkpt>
      <trkpt lat="39.7518750" lon="2.6292380">
        <ele>239.9</ele>
        <time>2021-06-17T16:10:52Z</time>
      </trkpt>
      <trkpt lat="39.7518510" lon="2.6292710">
        <ele>241.8</ele>
        <time>2021-06-17T16:10:54Z</time>
      </trkpt>
      <trkpt lat="39.7518030" lon="2.6293160">
        <ele>244.8</ele>
        <time>2021-06-17T16:10:57Z</time>
      </trkpt>
      <trkpt lat="39.7517640" lon="2.6293240">
        <ele>246.9</ele>
        <time>2021-06-17T16:10:59Z</time>
      </trkpt>
      <trkpt lat="39.7517170" lon="2.6293280">
        <ele>249.4</ele>
        <time>2021-06-17T16:11:02Z</time>
      </trkpt>
      <trkpt lat="39.7517020" lon="2.6293340">
        <ele>250.2</ele>
        <time>2021-06-17T16:11:03Z</time>
      </trkpt>
      <trkpt lat="39.7516660" lon="2.6293500">
        <ele>252.2</ele>
        <time>2021-06-17T16:11:05Z</time>
      </trkpt>
      <trkpt lat="39.7515440" lon="2.6294060">
        <ele>259.2</ele>
        <time>2021-06-17T16:11:11Z</time>
      </trkpt>
      <trkpt lat="39.7515170" lon="2.6294590">
        <ele>261.8</ele>
        <time>2021-06-17T16:11:14Z</time>
      </trkpt>
      <trkpt lat="39.7515190" lon="2.6295270">
        <ele>264.6</ele>
        <time>2021-06-17T16:11:17Z</time>
      </trkpt>
      <trkpt lat="39.7515850" lon="2.6296680">
        <ele>270.7</ele>
        <time>2021-06-17T16:11:23Z</time>
      </trkpt>
      <trkpt lat="39.7515990" lon="2.6296800">
        <ele>271.5</ele>
        <time>2021-06-17T16:11:24Z</time>
      </trkpt>
      <trkpt lat="39.7516320" lon="2.6296730">
        <ele>271.5</ele>
        <time>2021-06-17T16:11:26Z</time>
      </trkpt>
      <trkpt lat="39.7518090" lon="2.6295970">
        <ele>271.6</ele>
        <time>2021-06-17T16:11:34Z</time>
      </trkpt>
      <trkpt lat="39.7518910" lon="2.6296310">
        <ele>271.7</ele>
        <time>2021-06-17T16:11:38Z</time>
      </trkpt>
      <trkpt lat="39.7519080" lon="2.6296370">
        <ele>271.7</ele>
        <time>2021-06-17T16:11:39Z</time>
      </trkpt>
      <trkpt lat="39.7519210" lon="2.6296420">
        <ele>271.7</ele>
        <time>2021-06-17T16:11:40Z</time>
      </trkpt>
      <trkpt lat="39.7519480" lon="2.6296620">
        <ele>271.6</ele>
        <time>2021-06-17T16:11:42Z</time>
      </trkpt>
      <trkpt lat="39.7519530" lon="2.6296680">
        <ele>271.6</ele>
        <time>2021-06-17T16:11:44Z</time>
      </trkpt>
      <trkpt lat="39.7519530" lon="2.6296680">
        <ele>271.6</ele>
        <time>2021-06-17T16:11:46Z</time>
      </trkpt>
      <trkpt lat="39.7519530" lon="2.6296680">
        <ele>271.6</ele>
        <time>2021-06-17T16:11:48Z</time>
      </trkpt>
      <trkpt lat="39.7519530" lon="2.6296680">
        <ele>271.6</ele>
        <time>2021-06-17T16:11:50Z</time>
      </trkpt>
      <trkpt lat="39.7519530" lon="2.6296680">
        <ele>271.6</ele>
        <time>2021-06-17T16:11:53Z</time>
      </trkpt>
      <trkpt lat="39.7519530" lon="2.6296680">
        <ele>271.6</ele>
        <time>2021-06-17T16:12:01Z</time>
      </trkpt>
      <trkpt lat="39.7519550" lon="2.6296710">
        <ele>271.3</ele>
        <time>2021-06-17T16:12:03Z</time>
      </trkpt>
      <trkpt lat="39.7519730" lon="2.6296900">
        <ele>271.2</ele>
        <time>2021-06-17T16:12:04Z</time>
      </trkpt>
      <trkpt lat="39.7520040" lon="2.6297090">
        <ele>270.9</ele>
        <time>2021-06-17T16:12:05Z</time>
      </trkpt>
      <trkpt lat="39.7520410" lon="2.6297190">
        <ele>270.7</ele>
        <time>2021-06-17T16:12:06Z</time>
      </trkpt>
      <trkpt lat="39.7521360" lon="2.6297320">
        <ele>269.9</ele>
        <time>2021-06-17T16:12:08Z</time>
      </trkpt>
      <trkpt lat="39.7521730" lon="2.6297420">
        <ele>269.6</ele>
        <time>2021-06-17T16:12:09Z</time>
      </trkpt>
      <trkpt lat="39.7523360" lon="2.6298090">
        <ele>268.1</ele>
        <time>2021-06-17T16:12:12Z</time>
      </trkpt>
      <trkpt lat="39.7524240" lon="2.6298790">
        <ele>267.1</ele>
        <time>2021-06-17T16:12:14Z</time>
      </trkpt>
      <trkpt lat="39.7525930" lon="2.6300770">
        <ele>265.0</ele>
        <time>2021-06-17T16:12:17Z</time>
      </trkpt>
      <trkpt lat="39.7526360" lon="2.6301450">
        <ele>264.4</ele>
        <time>2021-06-17T16:12:18Z</time>
      </trkpt>
      <trkpt lat="39.7526880" lon="2.6302590">
        <ele>263.4</ele>
        <time>2021-06-17T16:12:19Z</time>
      </trkpt>
      <trkpt lat="39.7527720" lon="2.6305860">
        <ele>260.9</ele>
        <time>2021-06-17T16:12:22Z</time>
      </trkpt>
      <trkpt lat="39.7528670" lon="2.6311970">
        <ele>256.5</ele>
        <time>2021-06-17T16:12:27Z</time>
      </trkpt>
      <trkpt lat="39.7530280" lon="2.6315880">
        <ele>253.2</ele>
        <time>2021-06-17T16:12:31Z</time>
      </trkpt>
      <trkpt lat="39.7533600" lon="2.6320620">
        <ele>248.8</ele>
        <time>2021-06-17T16:12:36Z</time>
      </trkpt>
      <trkpt lat="39.7535440" lon="2.6322160">
        <ele>246.6</ele>
        <time>2021-06-17T16:12:38Z</time>
      </trkpt>
      <trkpt lat="39.7537100" lon="2.6323290">
        <ele>244.7</ele>
        <time>2021-06-17T16:12:40Z</time>
      </trkpt>
      <trkpt lat="39.7542940" lon="2.6326220">
        <ele>238.3</ele>
        <time>2021-06-17T16:12:46Z</time>
      </trkpt>
      <trkpt lat="39.7548850" lon="2.6327520">
        <ele>231.8</ele>
        <time>2021-06-17T16:12:52Z</time>
      </trkpt>
      <trkpt lat="39.7554780" lon="2.6328700">
        <ele>225.9</ele>
        <time>2021-06-17T16:12:57Z</time>
      </trkpt>
      <trkpt lat="39.7560780" lon="2.6330350">
        <ele>221.4</ele>
        <time>2021-06-17T16:13:02Z</time>
      </trkpt>
      <trkpt lat="39.7563080" lon="2.6332200">
        <ele>220.3</ele>
        <time>2021-06-17T16:13:04Z</time>
      </trkpt>
      <trkpt lat="39.7563950" lon="2.6333260">
        <ele>219.9</ele>
        <time>2021-06-17T16:13:05Z</time>
      </trkpt>
      <trkpt lat="39.7566020" lon="2.6336910">
        <ele>218.6</ele>
        <time>2021-06-17T16:13:08Z</time>
      </trkpt>
      <trkpt lat="39.7566400" lon="2.6338280">
        <ele>218.0</ele>
        <time>2021-06-17T16:13:09Z</time>
      </trkpt>
      <trkpt lat="39.7566670" lon="2.6339680">
        <ele>217.3</ele>
        <time>2021-06-17T16:13:10Z</time>
      </trkpt>
      <trkpt lat="39.7566830" lon="2.6342320">
        <ele>215.9</ele>
        <time>2021-06-17T16:13:12Z</time>
      </trkpt>
      <trkpt lat="39.7566750" lon="2.6348300">
        <ele>213.2</ele>
        <time>2021-06-17T16:13:16Z</time>
      </trkpt>
      <trkpt lat="39.7566490" lon="2.6349750">
        <ele>212.6</ele>
        <time>2021-06-17T16:13:17Z</time>
      </trkpt>
      <trkpt lat="39.7566080" lon="2.6351170">
        <ele>211.9</ele>
        <time>2021-06-17T16:13:18Z</time>
      </trkpt>
      <trkpt lat="39.7564850" lon="2.6354070">
        <ele>210.5</ele>
        <time>2021-06-17T16:13:20Z</time>
      </trkpt>
      <trkpt lat="39.7562920" lon="2.6357300">
        <ele>209.2</ele>
        <time>2021-06-17T16:13:23Z</time>
      </trkpt>
      <trkpt lat="39.7561840" lon="2.6358250">
        <ele>208.4</ele>
        <time>2021-06-17T16:13:24Z</time>
      </trkpt>
      <trkpt lat="39.7560840" lon="2.6358830">
        <ele>207.7</ele>
        <time>2021-06-17T16:13:25Z</time>
      </trkpt>
      <trkpt lat="39.7558870" lon="2.6359490">
        <ele>206.5</ele>
        <time>2021-06-17T16:13:27Z</time>
      </trkpt>
      <trkpt lat="39.7554180" lon="2.6360110">
        <ele>204.0</ele>
        <time>2021-06-17T16:13:32Z</time>
      </trkpt>
      <trkpt lat="39.7550230" lon="2.6359940">
        <ele>201.4</ele>
        <time>2021-06-17T16:13:37Z</time>
      </trkpt>
      <trkpt lat="39.7548630" lon="2.6359840">
        <ele>200.0</ele>
        <time>2021-06-17T16:13:39Z</time>
      </trkpt>
      <trkpt lat="39.7547850" lon="2.6360080">
        <ele>199.2</ele>
        <time>2021-06-17T16:13:40Z</time>
      </trkpt>
      <trkpt lat="39.7547160" lon="2.6360510">
        <ele>198.4</ele>
        <time>2021-06-17T16:13:41Z</time>
      </trkpt>
      <trkpt lat="39.7546330" lon="2.6361780">
        <ele>197.1</ele>
        <time>2021-06-17T16:13:43Z</time>
      </trkpt>
      <trkpt lat="39.7545760" lon="2.6365300">
        <ele>194.3</ele>
        <time>2021-06-17T16:13:46Z</time>
      </trkpt>
      <trkpt lat="39.7545470" lon="2.6367780">
        <ele>192.2</ele>
        <time>2021-06-17T16:13:48Z</time>
      </trkpt>
      <trkpt lat="39.7544550" lon="2.6370120">
        <ele>189.9</ele>
        <time>2021-06-17T16:13:50Z</time>
      </trkpt>
      <trkpt lat="39.7543180" lon="2.6371800">
        <ele>187.8</ele>
        <time>2021-06-17T16:13:52Z</time>
      </trkpt>
      <trkpt lat="39.7542000" lon="2.6372770">
        <ele>186.4</ele>
        <time>2021-06-17T16:13:53Z</time>
      </trkpt>
      <trkpt lat="39.7540970" lon="2.6373380">
        <ele>185.3</ele>
        <time>2021-06-17T16:13:54Z</time>
      </trkpt>
      <trkpt lat="39.7538820" lon="2.6374270">
        <ele>183.1</ele>
        <time>2021-06-17T16:13:56Z</time>
      </trkpt>
      <trkpt lat="39.7535820" lon="2.6375660">
        <ele>180.5</ele>
        <time>2021-06-17T16:13:59Z</time>
      </trkpt>
      <trkpt lat="39.7534030" lon="2.6376980">
        <ele>179.2</ele>
        <time>2021-06-17T16:14:01Z</time>
      </trkpt>
      <trkpt lat="39.7532580" lon="2.6378310">
        <ele>178.1</ele>
        <time>2021-06-17T16:14:03Z</time>
      </trkpt>
      <trkpt lat="39.7530500" lon="2.6379260">
        <ele>176.7</ele>
        <time>2021-06-17T16:14:05Z</time>
      </trkpt>
      <trkpt lat="39.7524440" lon="2.6380880">
        <ele>173.3</ele>
        <time>2021-06-17T16:14:11Z</time>
      </trkpt>
      <trkpt lat="39.7523440" lon="2.6381020">
        <ele>172.7</ele>
        <time>2021-06-17T16:14:12Z</time>
      </trkpt>
      <trkpt lat="39.7521340" lon="2.6380610">
        <ele>171.0</ele>
        <time>2021-06-17T16:14:14Z</time>
      </trkpt>
      <trkpt lat="39.7520330" lon="2.6380170">
        <ele>170.0</ele>
        <time>2021-06-17T16:14:15Z</time>
      </trkpt>
      <trkpt lat="39.7516300" lon="2.6378000">
        <ele>166.8</ele>
        <time>2021-06-17T16:14:19Z</time>
      </trkpt>
      <trkpt lat="39.7514470" lon="2.6377840">
        <ele>165.9</ele>
        <time>2021-06-17T16:14:21Z</time>
      </trkpt>
      <trkpt lat="39.7513580" lon="2.6378050">
        <ele>165.4</ele>
        <time>2021-06-17T16:14:22Z</time>
      </trkpt>
      <trkpt lat="39.7512730" lon="2.6378420">
        <ele>165.0</ele>
        <time>2021-06-17T16:14:23Z</time>
      </trkpt>
      <trkpt lat="39.7510120" lon="2.6379820">
        <ele>163.6</ele>
        <time>2021-06-17T16:14:26Z</time>
      </trkpt>
      <trkpt lat="39.7505560" lon="2.6381180">
        <ele>161.8</ele>
        <time>2021-06-17T16:14:31Z</time>
      </trkpt>
      <trkpt lat="39.7504800" lon="2.6381540">
        <ele>161.7</ele>
        <time>2021-06-17T16:14:32Z</time>
      </trkpt>
      <trkpt lat="39.7503790" lon="2.6382700">
        <ele>161.4</ele>
        <time>2021-06-17T16:14:34Z</time>
      </trkpt>
      <trkpt lat="39.7503400" lon="2.6384980">
        <ele>160.7</ele>
        <time>2021-06-17T16:14:36Z</time>
      </trkpt>
      <trkpt lat="39.7504050" lon="2.6387110">
        <ele>160.0</ele>
        <time>2021-06-17T16:14:38Z</time>
      </trkpt>
      <trkpt lat="39.7504520" lon="2.6388060">
        <ele>159.7</ele>
        <time>2021-06-17T16:14:39Z</time>
      </trkpt>
      <trkpt lat="39.7507750" lon="2.6393830">
        <ele>156.2</ele>
        <time>2021-06-17T16:14:45Z</time>
      </trkpt>
      <trkpt lat="39.7508310" lon="2.6394920">
        <ele>155.3</ele>
        <time>2021-06-17T16:14:46Z</time>
      </trkpt>
      <trkpt lat="39.7509990" lon="2.6398630">
        <ele>152.6</ele>
        <time>2021-06-17T16:14:49Z</time>
      </trkpt>
      <trkpt lat="39.7510440" lon="2.6399990">
        <ele>151.9</ele>
        <time>2021-06-17T16:14:50Z</time>
      </trkpt>
      <trkpt lat="39.7510680" lon="2.6401420">
        <ele>151.2</ele>
        <time>2021-06-17T16:14:51Z</time>
      </trkpt>
      <trkpt lat="39.7510680" lon="2.6403950">
        <ele>150.0</ele>
        <time>2021-06-17T16:14:53Z</time>
      </trkpt>
      <trkpt lat="39.7510090" lon="2.6409160">
        <ele>147.1</ele>
        <time>2021-06-17T16:14:57Z</time>
      </trkpt>
      <trkpt lat="39.7509140" lon="2.6412590">
        <ele>144.6</ele>
        <time>2021-06-17T16:15:00Z</time>
      </trkpt>
      <trkpt lat="39.7508570" lon="2.6413700">
        <ele>144.0</ele>
        <time>2021-06-17T16:15:01Z</time>
      </trkpt>
      <trkpt lat="39.7507860" lon="2.6414740">
        <ele>143.4</ele>
        <time>2021-06-17T16:15:02Z</time>
      </trkpt>
      <trkpt lat="39.7506230" lon="2.6416640">
        <ele>142.4</ele>
        <time>2021-06-17T16:15:04Z</time>
      </trkpt>
      <trkpt lat="39.7504660" lon="2.6417910">
        <ele>141.3</ele>
        <time>2021-06-17T16:15:06Z</time>
      </trkpt>
      <trkpt lat="39.7503850" lon="2.6418230">
        <ele>140.8</ele>
        <time>2021-06-17T16:15:07Z</time>
      </trkpt>
      <trkpt lat="39.7502990" lon="2.6418050">
        <ele>140.2</ele>
        <time>2021-06-17T16:15:08Z</time>
      </trkpt>
      <trkpt lat="39.7502120" lon="2.6417630">
        <ele>139.5</ele>
        <time>2021-06-17T16:15:09Z</time>
      </trkpt>
      <trkpt lat="39.7497760" lon="2.6414840">
        <ele>136.6</ele>
        <time>2021-06-17T16:15:14Z</time>
      </trkpt>
      <trkpt lat="39.7496810" lon="2.6414440">
        <ele>135.8</ele>
        <time>2021-06-17T16:15:15Z</time>
      </trkpt>
      <trkpt lat="39.7495880" lon="2.6414280">
        <ele>135.0</ele>
        <time>2021-06-17T16:15:16Z</time>
      </trkpt>
      <trkpt lat="39.7494020" lon="2.6414650">
        <ele>133.8</ele>
        <time>2021-06-17T16:15:18Z</time>
      </trkpt>
      <trkpt lat="39.7492310" lon="2.6415720">
        <ele>133.4</ele>
        <time>2021-06-17T16:15:20Z</time>
      </trkpt>
      <trkpt lat="39.7491560" lon="2.6416590">
        <ele>133.2</ele>
        <time>2021-06-17T16:15:21Z</time>
      </trkpt>
      <trkpt lat="39.7487800" lon="2.6421940">
        <ele>132.0</ele>
        <time>2021-06-17T16:15:27Z</time>
      </trkpt>
      <trkpt lat="39.7487300" lon="2.6422630">
        <ele>131.9</ele>
        <time>2021-06-17T16:15:28Z</time>
      </trkpt>
      <trkpt lat="39.7486370" lon="2.6423860">
        <ele>131.8</ele>
        <time>2021-06-17T16:15:30Z</time>
      </trkpt>
      <trkpt lat="39.7485220" lon="2.6424630">
        <ele>131.8</ele>
        <time>2021-06-17T16:15:32Z</time>
      </trkpt>
      <trkpt lat="39.7483960" lon="2.6424900">
        <ele>131.8</ele>
        <time>2021-06-17T16:15:34Z</time>
      </trkpt>
      <trkpt lat="39.7482770" lon="2.6424750">
        <ele>131.9</ele>
        <time>2021-06-17T16:15:36Z</time>
      </trkpt>
      <trkpt lat="39.7482170" lon="2.6424590">
        <ele>131.9</ele>
        <time>2021-06-17T16:15:37Z</time>
      </trkpt>
      <trkpt lat="39.7480580" lon="2.6423510">
        <ele>132.0</ele>
        <time>2021-06-17T16:15:40Z</time>
      </trkpt>
      <trkpt lat="39.7479300" lon="2.6422020">
        <ele>132.1</ele>
        <time>2021-06-17T16:15:43Z</time>
      </trkpt>
      <trkpt lat="39.7478630" lon="2.6421020">
        <ele>132.3</ele>
        <time>2021-06-17T16:15:45Z</time>
      </trkpt>
      <trkpt lat="39.7476920" lon="2.6418230">
        <ele>132.9</ele>
        <time>2021-06-17T16:15:50Z</time>
      </trkpt>
      <trkpt lat="39.7475990" lon="2.6417560">
        <ele>133.2</ele>
        <time>2021-06-17T16:15:52Z</time>
      </trkpt>
      <trkpt lat="39.7474940" lon="2.6417620">
        <ele>133.1</ele>
        <time>2021-06-17T16:15:54Z</time>
      </trkpt>
      <trkpt lat="39.7474480" lon="2.6417890">
        <ele>133.1</ele>
        <time>2021-06-17T16:15:55Z</time>
      </trkpt>
      <trkpt lat="39.7474070" lon="2.6418320">
        <ele>133.3</ele>
        <time>2021-06-17T16:15:56Z</time>
      </trkpt>
      <trkpt lat="39.7473460" lon="2.6419430">
        <ele>133.8</ele>
        <time>2021-06-17T16:15:58Z</time>
      </trkpt>
      <trkpt lat="39.7472810" lon="2.6421810">
        <ele>135.1</ele>
        <time>2021-06-17T16:16:02Z</time>
      </trkpt>
      <trkpt lat="39.7472740" lon="2.6422340">
        <ele>135.3</ele>
        <time>2021-06-17T16:16:03Z</time>
      </trkpt>
      <trkpt lat="39.7472710" lon="2.6424740">
        <ele>136.6</ele>
        <time>2021-06-17T16:16:08Z</time>
      </trkpt>
      <trkpt lat="39.7472740" lon="2.6425680">
        <ele>136.4</ele>
        <time>2021-06-17T16:16:10Z</time>
      </trkpt>
      <trkpt lat="39.7472800" lon="2.6426650">
        <ele>136.7</ele>
        <time>2021-06-17T16:16:12Z</time>
      </trkpt>
      <trkpt lat="39.7472900" lon="2.6427570">
        <ele>137.1</ele>
        <time>2021-06-17T16:16:14Z</time>
      </trkpt>
      <trkpt lat="39.7472980" lon="2.6429290">
        <ele>137.9</ele>
        <time>2021-06-17T16:16:17Z</time>
      </trkpt>
      <trkpt lat="39.7473170" lon="2.6431580">
        <ele>139.1</ele>
        <time>2021-06-17T16:16:22Z</time>
      </trkpt>
      <trkpt lat="39.7472750" lon="2.6434220">
        <ele>140.5</ele>
        <time>2021-06-17T16:16:28Z</time>
      </trkpt>
      <trkpt lat="39.7472140" lon="2.6435550">
        <ele>141.2</ele>
        <time>2021-06-17T16:16:31Z</time>
      </trkpt>
      <trkpt lat="39.7471390" lon="2.6436630">
        <ele>142.0</ele>
        <time>2021-06-17T16:16:34Z</time>
      </trkpt>
      <trkpt lat="39.7470240" lon="2.6437450">
        <ele>142.8</ele>
        <time>2021-06-17T16:16:38Z</time>
      </trkpt>
      <trkpt lat="39.7469940" lon="2.6437600">
        <ele>143.0</ele>
        <time>2021-06-17T16:16:39Z</time>
      </trkpt>
      <trkpt lat="39.7467440" lon="2.6439300">
        <ele>144.3</ele>
        <time>2021-06-17T16:16:47Z</time>
      </trkpt>
      <trkpt lat="39.7465610" lon="2.6441460">
        <ele>145.0</ele>
        <time>2021-06-17T16:16:54Z</time>
      </trkpt>
      <trkpt lat="39.7465440" lon="2.6441700">
        <ele>145.1</ele>
        <time>2021-06-17T16:16:55Z</time>
      </trkpt>
      <trkpt lat="39.7463390" lon="2.6444460">
        <ele>146.5</ele>
        <time>2021-06-17T16:17:03Z</time>
      </trkpt>
      <trkpt lat="39.7462910" lon="2.6445030">
        <ele>146.8</ele>
        <time>2021-06-17T16:17:05Z</time>
      </trkpt>
      <trkpt lat="39.7460790" lon="2.6447200">
        <ele>148.0</ele>
        <time>2021-06-17T16:17:12Z</time>
      </trkpt>
      <trkpt lat="39.7458640" lon="2.6448260">
        <ele>148.9</ele>
        <time>2021-06-17T16:17:18Z</time>
      </trkpt>
      <trkpt lat="39.7456110" lon="2.6449090">
        <ele>149.8</ele>
        <time>2021-06-17T16:17:25Z</time>
      </trkpt>
      <trkpt lat="39.7452670" lon="2.6450240">
        <ele>151.1</ele>
        <time>2021-06-17T16:17:34Z</time>
      </trkpt>
      <trkpt lat="39.7449960" lon="2.6451110">
        <ele>152.2</ele>
        <time>2021-06-17T16:17:41Z</time>
      </trkpt>
      <trkpt lat="39.7448170" lon="2.6451850">
        <ele>153.0</ele>
        <time>2021-06-17T16:17:46Z</time>
      </trkpt>
      <trkpt lat="39.7447860" lon="2.6452130">
        <ele>153.2</ele>
        <time>2021-06-17T16:17:47Z</time>
      </trkpt>
      <trkpt lat="39.7447090" lon="2.6453650">
        <ele>153.8</ele>
        <time>2021-06-17T16:17:51Z</time>
      </trkpt>
      <trkpt lat="39.7447270" lon="2.6455590">
        <ele>154.3</ele>
        <time>2021-06-17T16:17:55Z</time>
      </trkpt>
      <trkpt lat="39.7448930" lon="2.6457370">
        <ele>155.1</ele>
        <time>2021-06-17T16:18:00Z</time>
      </trkpt>
      <trkpt lat="39.7449350" lon="2.6457630">
        <ele>155.2</ele>
        <time>2021-06-17T16:18:01Z</time>
      </trkpt>
      <trkpt lat="39.7450050" lon="2.6458240">
        <ele>155.4</ele>
        <time>2021-06-17T16:18:03Z</time>
      </trkpt>
      <trkpt lat="39.7450360" lon="2.6458600">
        <ele>155.5</ele>
        <time>2021-06-17T16:18:04Z</time>
      </trkpt>
      <trkpt lat="39.7452490" lon="2.6460690">
        <ele>155.8</ele>
        <time>2021-06-17T16:18:10Z</time>
      </trkpt>
      <trkpt lat="39.7452820" lon="2.6461150">
        <ele>155.8</ele>
        <time>2021-06-17T16:18:11Z</time>
      </trkpt>
      <trkpt lat="39.7455170" lon="2.6463590">
        <ele>156.3</ele>
        <time>2021-06-17T16:18:18Z</time>
      </trkpt>
      <trkpt lat="39.7456520" lon="2.6464980">
        <ele>156.9</ele>
        <time>2021-06-17T16:18:22Z</time>
      </trkpt>
      <trkpt lat="39.7457830" lon="2.6466560">
        <ele>157.5</ele>
        <time>2021-06-17T16:18:26Z</time>
      </trkpt>
      <trkpt lat="39.7458580" lon="2.6467820">
        <ele>158.0</ele>
        <time>2021-06-17T16:18:29Z</time>
      </trkpt>
      <trkpt lat="39.7459020" lon="2.6469330">
        <ele>158.4</ele>
        <time>2021-06-17T16:18:32Z</time>
      </trkpt>
      <trkpt lat="39.7460330" lon="2.6474540">
        <ele>159.8</ele>
        <time>2021-06-17T16:18:42Z</time>
      </trkpt>
      <trkpt lat="39.7461410" lon="2.6478710">
        <ele>161.6</ele>
        <time>2021-06-17T16:18:50Z</time>
      </trkpt>
      <trkpt lat="39.7461920" lon="2.6481550">
        <ele>163.0</ele>
        <time>2021-06-17T16:18:55Z</time>
      </trkpt>
      <trkpt lat="39.7462150" lon="2.6482710">
        <ele>163.3</ele>
        <time>2021-06-17T16:18:57Z</time>
      </trkpt>
      <trkpt lat="39.7462250" lon="2.6483170">
        <ele>163.4</ele>
        <time>2021-06-17T16:18:58Z</time>
      </trkpt>
      <trkpt lat="39.7463020" lon="2.6487380">
        <ele>164.4</ele>
        <time>2021-06-17T16:19:05Z</time>
      </trkpt>
      <trkpt lat="39.7463290" lon="2.6488920">
        <ele>164.9</ele>
        <time>2021-06-17T16:19:08Z</time>
      </trkpt>
      <trkpt lat="39.7463560" lon="2.6491080">
        <ele>165.5</ele>
        <time>2021-06-17T16:19:12Z</time>
      </trkpt>
      <trkpt lat="39.7463490" lon="2.6492230">
        <ele>165.8</ele>
        <time>2021-06-17T16:19:14Z</time>
      </trkpt>
      <trkpt lat="39.7463010" lon="2.6493760">
        <ele>166.4</ele>
        <time>2021-06-17T16:19:17Z</time>
      </trkpt>
      <trkpt lat="39.7462870" lon="2.6494280">
        <ele>166.7</ele>
        <time>2021-06-17T16:19:18Z</time>
      </trkpt>
      <trkpt lat="39.7462820" lon="2.6495250">
        <ele>167.2</ele>
        <time>2021-06-17T16:19:20Z</time>
      </trkpt>
      <trkpt lat="39.7462970" lon="2.6495750">
        <ele>167.3</ele>
        <time>2021-06-17T16:19:21Z</time>
      </trkpt>
      <trkpt lat="39.7463240" lon="2.6496180">
        <ele>167.5</ele>
        <time>2021-06-17T16:19:22Z</time>
      </trkpt>
      <trkpt lat="39.7464020" lon="2.6496770">
        <ele>167.9</ele>
        <time>2021-06-17T16:19:24Z</time>
      </trkpt>
      <trkpt lat="39.7464820" lon="2.6496890">
        <ele>168.1</ele>
        <time>2021-06-17T16:19:26Z</time>
      </trkpt>
      <trkpt lat="39.7465750" lon="2.6496780">
        <ele>168.4</ele>
        <time>2021-06-17T16:19:28Z</time>
      </trkpt>
      <trkpt lat="39.7466160" lon="2.6496610">
        <ele>168.5</ele>
        <time>2021-06-17T16:19:29Z</time>
      </trkpt>
      <trkpt lat="39.7466540" lon="2.6496360">
        <ele>168.6</ele>
        <time>2021-06-17T16:19:30Z</time>
      </trkpt>
      <trkpt lat="39.7467370" lon="2.6495180">
        <ele>169.0</ele>
        <time>2021-06-17T16:19:33Z</time>
      </trkpt>
      <trkpt lat="39.7469540" lon="2.6491200">
        <ele>170.1</ele>
        <time>2021-06-17T16:19:42Z</time>
      </trkpt>
      <trkpt lat="39.7471910" lon="2.6487430">
        <ele>171.5</ele>
        <time>2021-06-17T16:19:51Z</time>
      </trkpt>
      <trkpt lat="39.7474390" lon="2.6486220">
        <ele>172.6</ele>
        <time>2021-06-17T16:19:57Z</time>
      </trkpt>
      <trkpt lat="39.7475220" lon="2.6486110">
        <ele>173.0</ele>
        <time>2021-06-17T16:19:59Z</time>
      </trkpt>
      <trkpt lat="39.7476450" lon="2.6486440">
        <ele>173.5</ele>
        <time>2021-06-17T16:20:02Z</time>
      </trkpt>
      <trkpt lat="39.7476800" lon="2.6486680">
        <ele>173.7</ele>
        <time>2021-06-17T16:20:03Z</time>
      </trkpt>
      <trkpt lat="39.7477930" lon="2.6487560">
        <ele>174.1</ele>
        <time>2021-06-17T16:20:06Z</time>
      </trkpt>
      <trkpt lat="39.7478390" lon="2.6487770">
        <ele>174.2</ele>
        <time>2021-06-17T16:20:07Z</time>
      </trkpt>
      <trkpt lat="39.7482120" lon="2.6490260">
        <ele>175.3</ele>
        <time>2021-06-17T16:20:17Z</time>
      </trkpt>
      <trkpt lat="39.7482910" lon="2.6490740">
        <ele>175.5</ele>
        <time>2021-06-17T16:20:19Z</time>
      </trkpt>
      <trkpt lat="39.7483800" lon="2.6490880">
        <ele>175.6</ele>
        <time>2021-06-17T16:20:21Z</time>
      </trkpt>
      <trkpt lat="39.7484260" lon="2.6490800">
        <ele>175.7</ele>
        <time>2021-06-17T16:20:22Z</time>
      </trkpt>
      <trkpt lat="39.7484680" lon="2.6490660">
        <ele>175.7</ele>
        <time>2021-06-17T16:20:23Z</time>
      </trkpt>
      <trkpt lat="39.7485410" lon="2.6490090">
        <ele>175.8</ele>
        <time>2021-06-17T16:20:25Z</time>
      </trkpt>
      <trkpt lat="39.7486170" lon="2.6489420">
        <ele>175.9</ele>
        <time>2021-06-17T16:20:27Z</time>
      </trkpt>
      <trkpt lat="39.7488590" lon="2.6486760">
        <ele>175.5</ele>
        <time>2021-06-17T16:20:34Z</time>
      </trkpt>
      <trkpt lat="39.7488900" lon="2.6486260">
        <ele>175.4</ele>
        <time>2021-06-17T16:20:35Z</time>
      </trkpt>
      <trkpt lat="39.7489230" lon="2.6485760">
        <ele>175.3</ele>
        <time>2021-06-17T16:20:36Z</time>
      </trkpt>
      <trkpt lat="39.7490060" lon="2.6484910">
        <ele>175.1</ele>
        <time>2021-06-17T16:20:38Z</time>
      </trkpt>
      <trkpt lat="39.7491100" lon="2.6484360">
        <ele>174.7</ele>
        <time>2021-06-17T16:20:40Z</time>
      </trkpt>
      <trkpt lat="39.7492250" lon="2.6484210">
        <ele>174.3</ele>
        <time>2021-06-17T16:20:42Z</time>
      </trkpt>
      <trkpt lat="39.7493450" lon="2.6484210">
        <ele>173.8</ele>
        <time>2021-06-17T16:20:44Z</time>
      </trkpt>
      <trkpt lat="39.7494710" lon="2.6484170">
        <ele>173.4</ele>
        <time>2021-06-17T16:20:46Z</time>
      </trkpt>
      <trkpt lat="39.7497280" lon="2.6484330">
        <ele>172.7</ele>
        <time>2021-06-17T16:20:50Z</time>
      </trkpt>
      <trkpt lat="39.7497920" lon="2.6484330">
        <ele>172.6</ele>
        <time>2021-06-17T16:20:51Z</time>
      </trkpt>
      <trkpt lat="39.7498930" lon="2.6483910">
        <ele>172.3</ele>
        <time>2021-06-17T16:20:53Z</time>
      </trkpt>
      <trkpt lat="39.7500040" lon="2.6482900">
        <ele>172.1</ele>
        <time>2021-06-17T16:20:55Z</time>
      </trkpt>
      <trkpt lat="39.7501490" lon="2.6481160">
        <ele>171.7</ele>
        <time>2021-06-17T16:20:58Z</time>
      </trkpt>
      <trkpt lat="39.7504460" lon="2.6477490">
        <ele>170.4</ele>
        <time>2021-06-17T16:21:04Z</time>
      </trkpt>
      <trkpt lat="39.7506530" lon="2.6475040">
        <ele>169.5</ele>
        <time>2021-06-17T16:21:08Z</time>
      </trkpt>
      <trkpt lat="39.7507700" lon="2.6473760">
        <ele>168.9</ele>
        <time>2021-06-17T16:21:10Z</time>
      </trkpt>
      <trkpt lat="39.7508200" lon="2.6473490">
        <ele>168.8</ele>
        <time>2021-06-17T16:21:11Z</time>
      </trkpt>
      <trkpt lat="39.7508860" lon="2.6473230">
        <ele>168.5</ele>
        <time>2021-06-17T16:21:12Z</time>
      </trkpt>
      <trkpt lat="39.7510830" lon="2.6472920">
        <ele>167.8</ele>
        <time>2021-06-17T16:21:15Z</time>
      </trkpt>
      <trkpt lat="39.7515260" lon="2.6472310">
        <ele>166.8</ele>
        <time>2021-06-17T16:21:21Z</time>
      </trkpt>
      <trkpt lat="39.7516680" lon="2.6471480">
        <ele>166.5</ele>
        <time>2021-06-17T16:21:23Z</time>
      </trkpt>
      <trkpt lat="39.7517320" lon="2.6470910">
        <ele>166.3</ele>
        <time>2021-06-17T16:21:24Z</time>
      </trkpt>
      <trkpt lat="39.7518670" lon="2.6469550">
        <ele>166.0</ele>
        <time>2021-06-17T16:21:26Z</time>
      </trkpt>
      <trkpt lat="39.7521580" lon="2.6466830">
        <ele>165.5</ele>
        <time>2021-06-17T16:21:31Z</time>
      </trkpt>
      <trkpt lat="39.7522280" lon="2.6466440">
        <ele>165.4</ele>
        <time>2021-06-17T16:21:32Z</time>
      </trkpt>
      <trkpt lat="39.7523160" lon="2.6466220">
        <ele>165.3</ele>
        <time>2021-06-17T16:21:33Z</time>
      </trkpt>
      <trkpt lat="39.7523850" lon="2.6466450">
        <ele>165.1</ele>
        <time>2021-06-17T16:21:34Z</time>
      </trkpt>
      <trkpt lat="39.7524420" lon="2.6467040">
        <ele>164.9</ele>
        <time>2021-06-17T16:21:35Z</time>
      </trkpt>
      <trkpt lat="39.7525370" lon="2.6468270">
        <ele>164.6</ele>
        <time>2021-06-17T16:21:37Z</time>
      </trkpt>
      <trkpt lat="39.7527650" lon="2.6470990">
        <ele>164.5</ele>
        <time>2021-06-17T16:21:41Z</time>
      </trkpt>
      <trkpt lat="39.7528150" lon="2.6471320">
        <ele>164.5</ele>
        <time>2021-06-17T16:21:42Z</time>
      </trkpt>
      <trkpt lat="39.7528810" lon="2.6471590">
        <ele>164.4</ele>
        <time>2021-06-17T16:21:43Z</time>
      </trkpt>
      <trkpt lat="39.7530290" lon="2.6471650">
        <ele>164.0</ele>
        <time>2021-06-17T16:21:45Z</time>
      </trkpt>
      <trkpt lat="39.7533980" lon="2.6471350">
        <ele>162.6</ele>
        <time>2021-06-17T16:21:50Z</time>
      </trkpt>
      <trkpt lat="39.7535380" lon="2.6471300">
        <ele>162.0</ele>
        <time>2021-06-17T16:21:52Z</time>
      </trkpt>
      <trkpt lat="39.7536170" lon="2.6471420">
        <ele>161.7</ele>
        <time>2021-06-17T16:21:53Z</time>
      </trkpt>
      <trkpt lat="39.7536960" lon="2.6471660">
        <ele>161.3</ele>
        <time>2021-06-17T16:21:54Z</time>
      </trkpt>
      <trkpt lat="39.7538440" lon="2.6472540">
        <ele>160.6</ele>
        <time>2021-06-17T16:21:56Z</time>
      </trkpt>
      <trkpt lat="39.7539090" lon="2.6473050">
        <ele>160.2</ele>
        <time>2021-06-17T16:21:57Z</time>
      </trkpt>
      <trkpt lat="39.7542030" lon="2.6475270">
        <ele>158.6</ele>
        <time>2021-06-17T16:22:01Z</time>
      </trkpt>
      <trkpt lat="39.7544950" lon="2.6477610">
        <ele>157.4</ele>
        <time>2021-06-17T16:22:05Z</time>
      </trkpt>
      <trkpt lat="39.7546440" lon="2.6478630">
        <ele>157.1</ele>
        <time>2021-06-17T16:22:07Z</time>
      </trkpt>
      <trkpt lat="39.7547800" lon="2.6478670">
        <ele>156.8</ele>
        <time>2021-06-17T16:22:09Z</time>
      </trkpt>
      <trkpt lat="39.7549000" lon="2.6477530">
        <ele>156.5</ele>
        <time>2021-06-17T16:22:11Z</time>
      </trkpt>
      <trkpt lat="39.7549520" lon="2.6476810">
        <ele>156.4</ele>
        <time>2021-06-17T16:22:12Z</time>
      </trkpt>
      <trkpt lat="39.7552020" lon="2.6473310">
        <ele>155.0</ele>
        <time>2021-06-17T16:22:17Z</time>
      </trkpt>
      <trkpt lat="39.7552620" lon="2.6472720">
        <ele>154.7</ele>
        <time>2021-06-17T16:22:18Z</time>
      </trkpt>
      <trkpt lat="39.7553410" lon="2.6472140">
        <ele>154.3</ele>
        <time>2021-06-17T16:22:19Z</time>
      </trkpt>
      <trkpt lat="39.7554760" lon="2.6471700">
        <ele>153.6</ele>
        <time>2021-06-17T16:22:21Z</time>
      </trkpt>
      <trkpt lat="39.7557170" lon="2.6471190">
        <ele>152.5</ele>
        <time>2021-06-17T16:22:24Z</time>
      </trkpt>
      <trkpt lat="39.7558680" lon="2.6470380">
        <ele>151.9</ele>
        <time>2021-06-17T16:22:26Z</time>
      </trkpt>
      <trkpt lat="39.7560800" lon="2.6468660">
        <ele>151.1</ele>
        <time>2021-06-17T16:22:29Z</time>
      </trkpt>
      <trkpt lat="39.7562430" lon="2.6467900">
        <ele>150.4</ele>
        <time>2021-06-17T16:22:31Z</time>
      </trkpt>
      <trkpt lat="39.7564150" lon="2.6467890">
        <ele>149.7</ele>
        <time>2021-06-17T16:22:33Z</time>
      </trkpt>
      <trkpt lat="39.7565800" lon="2.6468370">
        <ele>148.9</ele>
        <time>2021-06-17T16:22:35Z</time>
      </trkpt>
      <trkpt lat="39.7571490" lon="2.6470540">
        <ele>145.9</ele>
        <time>2021-06-17T16:22:42Z</time>
      </trkpt>
      <trkpt lat="39.7577080" lon="2.6472640">
        <ele>143.5</ele>
        <time>2021-06-17T16:22:49Z</time>
      </trkpt>
      <trkpt lat="39.7577870" lon="2.6473080">
        <ele>143.2</ele>
        <time>2021-06-17T16:22:50Z</time>
      </trkpt>
      <trkpt lat="39.7579220" lon="2.6474660">
        <ele>142.6</ele>
        <time>2021-06-17T16:22:52Z</time>
      </trkpt>
      <trkpt lat="39.7579500" lon="2.6475640">
        <ele>142.4</ele>
        <time>2021-06-17T16:22:53Z</time>
      </trkpt>
      <trkpt lat="39.7579580" lon="2.6476520">
        <ele>142.3</ele>
        <time>2021-06-17T16:22:54Z</time>
      </trkpt>
      <trkpt lat="39.7579160" lon="2.6478530">
        <ele>141.9</ele>
        <time>2021-06-17T16:22:56Z</time>
      </trkpt>
      <trkpt lat="39.7577690" lon="2.6480840">
        <ele>141.4</ele>
        <time>2021-06-17T16:22:59Z</time>
      </trkpt>
      <trkpt lat="39.7577150" lon="2.6481520">
        <ele>141.2</ele>
        <time>2021-06-17T16:23:00Z</time>
      </trkpt>
      <trkpt lat="39.7576630" lon="2.6482220">
        <ele>141.0</ele>
        <time>2021-06-17T16:23:01Z</time>
      </trkpt>
      <trkpt lat="39.7576140" lon="2.6482910">
        <ele>140.9</ele>
        <time>2021-06-17T16:23:02Z</time>
      </trkpt>
      <trkpt lat="39.7575580" lon="2.6484480">
        <ele>140.6</ele>
        <time>2021-06-17T16:23:04Z</time>
      </trkpt>
      <trkpt lat="39.7575750" lon="2.6486190">
        <ele>140.3</ele>
        <time>2021-06-17T16:23:06Z</time>
      </trkpt>
      <trkpt lat="39.7575980" lon="2.6487070">
        <ele>140.1</ele>
        <time>2021-06-17T16:23:07Z</time>
      </trkpt>
      <trkpt lat="39.7577450" lon="2.6491700">
        <ele>138.7</ele>
        <time>2021-06-17T16:23:12Z</time>
      </trkpt>
      <trkpt lat="39.7578860" lon="2.6497430">
        <ele>137.0</ele>
        <time>2021-06-17T16:23:18Z</time>
      </trkpt>
      <trkpt lat="39.7578870" lon="2.6499590">
        <ele>136.8</ele>
        <time>2021-06-17T16:23:20Z</time>
      </trkpt>
      <trkpt lat="39.7578520" lon="2.6501760">
        <ele>136.7</ele>
        <time>2021-06-17T16:23:22Z</time>
      </trkpt>
      <trkpt lat="39.7578450" lon="2.6502630">
        <ele>136.7</ele>
        <time>2021-06-17T16:23:23Z</time>
      </trkpt>
      <trkpt lat="39.7579310" lon="2.6504480">
        <ele>136.7</ele>
        <time>2021-06-17T16:23:25Z</time>
      </trkpt>
      <trkpt lat="39.7581020" lon="2.6504900">
        <ele>136.6</ele>
        <time>2021-06-17T16:23:27Z</time>
      </trkpt>
      <trkpt lat="39.7582610" lon="2.6504480">
        <ele>136.5</ele>
        <time>2021-06-17T16:23:29Z</time>
      </trkpt>
      <trkpt lat="39.7584100" lon="2.6503480">
        <ele>136.5</ele>
        <time>2021-06-17T16:23:31Z</time>
      </trkpt>
      <trkpt lat="39.7586700" lon="2.6501220">
        <ele>136.8</ele>
        <time>2021-06-17T16:23:35Z</time>
      </trkpt>
      <trkpt lat="39.7587300" lon="2.6500950">
        <ele>136.9</ele>
        <time>2021-06-17T16:23:36Z</time>
      </trkpt>
      <trkpt lat="39.7588030" lon="2.6500890">
        <ele>136.9</ele>
        <time>2021-06-17T16:23:37Z</time>
      </trkpt>
      <trkpt lat="39.7588620" lon="2.6501240">
        <ele>136.9</ele>
        <time>2021-06-17T16:23:38Z</time>
      </trkpt>
      <trkpt lat="39.7589160" lon="2.6502050">
        <ele>136.9</ele>
        <time>2021-06-17T16:23:39Z</time>
      </trkpt>
      <trkpt lat="39.7590070" lon="2.6503230">
        <ele>136.9</ele>
        <time>2021-06-17T16:23:41Z</time>
      </trkpt>
      <trkpt lat="39.7593000" lon="2.6505040">
        <ele>137.0</ele>
        <time>2021-06-17T16:23:46Z</time>
      </trkpt>
      <trkpt lat="39.7593550" lon="2.6505090">
        <ele>136.9</ele>
        <time>2021-06-17T16:23:47Z</time>
      </trkpt>
      <trkpt lat="39.7594390" lon="2.6504990">
        <ele>136.9</ele>
        <time>2021-06-17T16:23:48Z</time>
      </trkpt>
      <trkpt lat="39.7595780" lon="2.6504840">
        <ele>136.9</ele>
        <time>2021-06-17T16:23:50Z</time>
      </trkpt>
      <trkpt lat="39.7596490" lon="2.6504930">
        <ele>136.8</ele>
        <time>2021-06-17T16:23:51Z</time>
      </trkpt>
      <trkpt lat="39.7597060" lon="2.6505060">
        <ele>136.8</ele>
        <time>2021-06-17T16:23:52Z</time>
      </trkpt>
      <trkpt lat="39.7598570" lon="2.6505570">
        <ele>136.7</ele>
        <time>2021-06-17T16:23:54Z</time>
      </trkpt>
      <trkpt lat="39.7600550" lon="2.6506270">
        <ele>136.5</ele>
        <time>2021-06-17T16:23:57Z</time>
      </trkpt>
      <trkpt lat="39.7604700" lon="2.6507690">
        <ele>135.5</ele>
        <time>2021-06-17T16:24:03Z</time>
      </trkpt>
      <trkpt lat="39.7605400" lon="2.6507760">
        <ele>135.4</ele>
        <time>2021-06-17T16:24:04Z</time>
      </trkpt>
      <trkpt lat="39.7606050" lon="2.6507620">
        <ele>135.1</ele>
        <time>2021-06-17T16:24:05Z</time>
      </trkpt>
      <trkpt lat="39.7607180" lon="2.6506680">
        <ele>134.4</ele>
        <time>2021-06-17T16:24:07Z</time>
      </trkpt>
      <trkpt lat="39.7608880" lon="2.6504730">
        <ele>133.0</ele>
        <time>2021-06-17T16:24:10Z</time>
      </trkpt>
      <trkpt lat="39.7609570" lon="2.6504440">
        <ele>132.5</ele>
        <time>2021-06-17T16:24:11Z</time>
      </trkpt>
      <trkpt lat="39.7610230" lon="2.6504520">
        <ele>132.1</ele>
        <time>2021-06-17T16:24:12Z</time>
      </trkpt>
      <trkpt lat="39.7610810" lon="2.6505010">
        <ele>131.6</ele>
        <time>2021-06-17T16:24:13Z</time>
      </trkpt>
      <trkpt lat="39.7611260" lon="2.6505720">
        <ele>131.1</ele>
        <time>2021-06-17T16:24:14Z</time>
      </trkpt>
      <trkpt lat="39.7612280" lon="2.6508260">
        <ele>130.2</ele>
        <time>2021-06-17T16:24:17Z</time>
      </trkpt>
      <trkpt lat="39.7613230" lon="2.6511070">
        <ele>129.3</ele>
        <time>2021-06-17T16:24:20Z</time>
      </trkpt>
      <trkpt lat="39.7614330" lon="2.6513940">
        <ele>128.4</ele>
        <time>2021-06-17T16:24:23Z</time>
      </trkpt>
      <trkpt lat="39.7614780" lon="2.6514880">
        <ele>128.0</ele>
        <time>2021-06-17T16:24:24Z</time>
      </trkpt>
      <trkpt lat="39.7616030" lon="2.6516500">
        <ele>127.3</ele>
        <time>2021-06-17T16:24:26Z</time>
      </trkpt>
      <trkpt lat="39.7616740" lon="2.6517210">
        <ele>126.9</ele>
        <time>2021-06-17T16:24:27Z</time>
      </trkpt>
      <trkpt lat="39.7619000" lon="2.6519210">
        <ele>125.3</ele>
        <time>2021-06-17T16:24:30Z</time>
      </trkpt>
      <trkpt lat="39.7619610" lon="2.6520020">
        <ele>124.7</ele>
        <time>2021-06-17T16:24:31Z</time>
      </trkpt>
      <trkpt lat="39.7620150" lon="2.6520970">
        <ele>124.1</ele>
        <time>2021-06-17T16:24:32Z</time>
      </trkpt>
      <trkpt lat="39.7621280" lon="2.6522710">
        <ele>123.0</ele>
        <time>2021-06-17T16:24:34Z</time>
      </trkpt>
      <trkpt lat="39.7622210" lon="2.6523360">
        <ele>122.4</ele>
        <time>2021-06-17T16:24:35Z</time>
      </trkpt>
      <trkpt lat="39.7623060" lon="2.6523860">
        <ele>121.9</ele>
        <time>2021-06-17T16:24:36Z</time>
      </trkpt>
      <trkpt lat="39.7624470" lon="2.6525190">
        <ele>120.8</ele>
        <time>2021-06-17T16:24:38Z</time>
      </trkpt>
      <trkpt lat="39.7625910" lon="2.6526650">
        <ele>119.8</ele>
        <time>2021-06-17T16:24:40Z</time>
      </trkpt>
      <trkpt lat="39.7627450" lon="2.6527450">
        <ele>119.2</ele>
        <time>2021-06-17T16:24:42Z</time>
      </trkpt>
      <trkpt lat="39.7629380" lon="2.6528420">
        <ele>118.4</ele>
        <time>2021-06-17T16:24:44Z</time>
      </trkpt>
      <trkpt lat="39.7630190" lon="2.6529100">
        <ele>117.9</ele>
        <time>2021-06-17T16:24:45Z</time>
      </trkpt>
      <trkpt lat="39.7633420" lon="2.6532100">
        <ele>116.1</ele>
        <time>2021-06-17T16:24:49Z</time>
      </trkpt>
      <trkpt lat="39.7634820" lon="2.6533580">
        <ele>115.3</ele>
        <time>2021-06-17T16:24:51Z</time>
      </trkpt>
      <trkpt lat="39.7635630" lon="2.6534680">
        <ele>115.0</ele>
        <time>2021-06-17T16:24:52Z</time>
      </trkpt>
      <trkpt lat="39.7636580" lon="2.6536860">
        <ele>114.4</ele>
        <time>2021-06-17T16:24:54Z</time>
      </trkpt>
      <trkpt lat="39.7637980" lon="2.6542590">
        <ele>113.7</ele>
        <time>2021-06-17T16:24:59Z</time>
      </trkpt>
      <trkpt lat="39.7639090" lon="2.6544940">
        <ele>114.1</ele>
        <time>2021-06-17T16:25:01Z</time>
      </trkpt>
      <trkpt lat="39.7639720" lon="2.6545820">
        <ele>114.3</ele>
        <time>2021-06-17T16:25:02Z</time>
      </trkpt>
      <trkpt lat="39.7640300" lon="2.6546520">
        <ele>114.5</ele>
        <time>2021-06-17T16:25:03Z</time>
      </trkpt>
      <trkpt lat="39.7641640" lon="2.6547580">
        <ele>114.9</ele>
        <time>2021-06-17T16:25:05Z</time>
      </trkpt>
      <trkpt lat="39.7644940" lon="2.6550390">
        <ele>116.2</ele>
        <time>2021-06-17T16:25:11Z</time>
      </trkpt>
      <trkpt lat="39.7646060" lon="2.6551360">
        <ele>116.7</ele>
        <time>2021-06-17T16:25:13Z</time>
      </trkpt>
      <trkpt lat="39.7647570" lon="2.6552360">
        <ele>117.2</ele>
        <time>2021-06-17T16:25:16Z</time>
      </trkpt>
      <trkpt lat="39.7649180" lon="2.6553460">
        <ele>117.8</ele>
        <time>2021-06-17T16:25:19Z</time>
      </trkpt>
      <trkpt lat="39.7651010" lon="2.6555030">
        <ele>118.6</ele>
        <time>2021-06-17T16:25:23Z</time>
      </trkpt>
      <trkpt lat="39.7651420" lon="2.6555470">
        <ele>118.8</ele>
        <time>2021-06-17T16:25:24Z</time>
      </trkpt>
      <trkpt lat="39.7652150" lon="2.6556240">
        <ele>119.1</ele>
        <time>2021-06-17T16:25:26Z</time>
      </trkpt>
      <trkpt lat="39.7653210" lon="2.6557620">
        <ele>119.8</ele>
        <time>2021-06-17T16:25:29Z</time>
      </trkpt>
      <trkpt lat="39.7655210" lon="2.6559530">
        <ele>121.5</ele>
        <time>2021-06-17T16:25:34Z</time>
      </trkpt>
      <trkpt lat="39.7655950" lon="2.6560300">
        <ele>122.2</ele>
        <time>2021-06-17T16:25:36Z</time>
      </trkpt>
      <trkpt lat="39.7656310" lon="2.6560910">
        <ele>122.6</ele>
        <time>2021-06-17T16:25:37Z</time>
      </trkpt>
      <trkpt lat="39.7656510" lon="2.6561460">
        <ele>123.0</ele>
        <time>2021-06-17T16:25:38Z</time>
      </trkpt>
      <trkpt lat="39.7656840" lon="2.6562550">
        <ele>123.5</ele>
        <time>2021-06-17T16:25:40Z</time>
      </trkpt>
      <trkpt lat="39.7657230" lon="2.6563530">
        <ele>123.9</ele>
        <time>2021-06-17T16:25:42Z</time>
      </trkpt>
      <trkpt lat="39.7657480" lon="2.6563950">
        <ele>123.7</ele>
        <time>2021-06-17T16:25:43Z</time>
      </trkpt>
      <trkpt lat="39.7657740" lon="2.6564290">
        <ele>123.8</ele>
        <time>2021-06-17T16:25:44Z</time>
      </trkpt>
      <trkpt lat="39.7658040" lon="2.6564710">
        <ele>124.0</ele>
        <time>2021-06-17T16:25:45Z</time>
      </trkpt>
      <trkpt lat="39.7658400" lon="2.6565250">
        <ele>124.2</ele>
        <time>2021-06-17T16:25:46Z</time>
      </trkpt>
      <trkpt lat="39.7659020" lon="2.6566240">
        <ele>124.6</ele>
        <time>2021-06-17T16:25:48Z</time>
      </trkpt>
      <trkpt lat="39.7659380" lon="2.6567190">
        <ele>124.9</ele>
        <time>2021-06-17T16:25:50Z</time>
      </trkpt>
      <trkpt lat="39.7659480" lon="2.6567770">
        <ele>125.1</ele>
        <time>2021-06-17T16:25:51Z</time>
      </trkpt>
      <trkpt lat="39.7659710" lon="2.6569460">
        <ele>125.6</ele>
        <time>2021-06-17T16:25:54Z</time>
      </trkpt>
      <trkpt lat="39.7660270" lon="2.6570890">
        <ele>126.1</ele>
        <time>2021-06-17T16:25:57Z</time>
      </trkpt>
      <trkpt lat="39.7662550" lon="2.6573350">
        <ele>127.4</ele>
        <time>2021-06-17T16:26:04Z</time>
      </trkpt>
      <trkpt lat="39.7662850" lon="2.6573700">
        <ele>127.6</ele>
        <time>2021-06-17T16:26:05Z</time>
      </trkpt>
      <trkpt lat="39.7663300" lon="2.6574560">
        <ele>128.0</ele>
        <time>2021-06-17T16:26:07Z</time>
      </trkpt>
      <trkpt lat="39.7663480" lon="2.6575050">
        <ele>128.2</ele>
        <time>2021-06-17T16:26:08Z</time>
      </trkpt>
      <trkpt lat="39.7663640" lon="2.6575570">
        <ele>128.4</ele>
        <time>2021-06-17T16:26:09Z</time>
      </trkpt>
      <trkpt lat="39.7663820" lon="2.6576670">
        <ele>128.8</ele>
        <time>2021-06-17T16:26:11Z</time>
      </trkpt>
      <trkpt lat="39.7663790" lon="2.6577220">
        <ele>129.0</ele>
        <time>2021-06-17T16:26:12Z</time>
      </trkpt>
      <trkpt lat="39.7663020" lon="2.6581780">
        <ele>130.6</ele>
        <time>2021-06-17T16:26:21Z</time>
      </trkpt>
      <trkpt lat="39.7662990" lon="2.6582320">
        <ele>130.8</ele>
        <time>2021-06-17T16:26:22Z</time>
      </trkpt>
      <trkpt lat="39.7663160" lon="2.6583350">
        <ele>131.1</ele>
        <time>2021-06-17T16:26:24Z</time>
      </trkpt>
      <trkpt lat="39.7663350" lon="2.6583840">
        <ele>131.3</ele>
        <time>2021-06-17T16:26:25Z</time>
      </trkpt>
      <trkpt lat="39.7664250" lon="2.6585230">
        <ele>131.7</ele>
        <time>2021-06-17T16:26:28Z</time>
      </trkpt>
      <trkpt lat="39.7664720" lon="2.6586170">
        <ele>131.9</ele>
        <time>2021-06-17T16:26:30Z</time>
      </trkpt>
      <trkpt lat="39.7665340" lon="2.6587570">
        <ele>132.4</ele>
        <time>2021-06-17T16:26:33Z</time>
      </trkpt>
      <trkpt lat="39.7666070" lon="2.6589590">
        <ele>133.1</ele>
        <time>2021-06-17T16:26:37Z</time>
      </trkpt>
      <trkpt lat="39.7667640" lon="2.6593730">
        <ele>134.7</ele>
        <time>2021-06-17T16:26:45Z</time>
      </trkpt>
      <trkpt lat="39.7668500" lon="2.6596120">
        <ele>135.7</ele>
        <time>2021-06-17T16:26:50Z</time>
      </trkpt>
      <trkpt lat="39.7668600" lon="2.6596630">
        <ele>135.9</ele>
        <time>2021-06-17T16:26:51Z</time>
      </trkpt>
      <trkpt lat="39.7669010" lon="2.6599430">
        <ele>136.9</ele>
        <time>2021-06-17T16:26:57Z</time>
      </trkpt>
      <trkpt lat="39.7669880" lon="2.6602920">
        <ele>138.3</ele>
        <time>2021-06-17T16:27:04Z</time>
      </trkpt>
      <trkpt lat="39.7670840" lon="2.6606330">
        <ele>139.6</ele>
        <time>2021-06-17T16:27:10Z</time>
      </trkpt>
      <trkpt lat="39.7671180" lon="2.6607220">
        <ele>140.0</ele>
        <time>2021-06-17T16:27:12Z</time>
      </trkpt>
      <trkpt lat="39.7672140" lon="2.6608450">
        <ele>140.5</ele>
        <time>2021-06-17T16:27:15Z</time>
      </trkpt>
      <trkpt lat="39.7673290" lon="2.6609290">
        <ele>141.0</ele>
        <time>2021-06-17T16:27:18Z</time>
      </trkpt>
      <trkpt lat="39.7674170" lon="2.6609620">
        <ele>141.4</ele>
        <time>2021-06-17T16:27:20Z</time>
      </trkpt>
      <trkpt lat="39.7675450" lon="2.6610260">
        <ele>142.1</ele>
        <time>2021-06-17T16:27:23Z</time>
      </trkpt>
      <trkpt lat="39.7676220" lon="2.6610840">
        <ele>142.5</ele>
        <time>2021-06-17T16:27:25Z</time>
      </trkpt>
      <trkpt lat="39.7676540" lon="2.6611210">
        <ele>142.7</ele>
        <time>2021-06-17T16:27:26Z</time>
      </trkpt>
      <trkpt lat="39.7678190" lon="2.6613240">
        <ele>143.6</ele>
        <time>2021-06-17T16:27:31Z</time>
      </trkpt>
      <trkpt lat="39.7679360" lon="2.6614240">
        <ele>144.2</ele>
        <time>2021-06-17T16:27:34Z</time>
      </trkpt>
      <trkpt lat="39.7681840" lon="2.6615470">
        <ele>145.5</ele>
        <time>2021-06-17T16:27:40Z</time>
      </trkpt>
      <trkpt lat="39.7682330" lon="2.6615660">
        <ele>145.7</ele>
        <time>2021-06-17T16:27:41Z</time>
      </trkpt>
      <trkpt lat="39.7683180" lon="2.6616080">
        <ele>146.1</ele>
        <time>2021-06-17T16:27:43Z</time>
      </trkpt>
      <trkpt lat="39.7684020" lon="2.6616680">
        <ele>146.6</ele>
        <time>2021-06-17T16:27:45Z</time>
      </trkpt>
      <trkpt lat="39.7684750" lon="2.6617350">
        <ele>147.0</ele>
        <time>2021-06-17T16:27:47Z</time>
      </trkpt>
      <trkpt lat="39.7685420" lon="2.6618150">
        <ele>147.4</ele>
        <time>2021-06-17T16:27:49Z</time>
      </trkpt>
      <trkpt lat="39.7685780" lon="2.6619200">
        <ele>147.7</ele>
        <time>2021-06-17T16:27:51Z</time>
      </trkpt>
      <trkpt lat="39.7686170" lon="2.6623140">
        <ele>149.0</ele>
        <time>2021-06-17T16:27:58Z</time>
      </trkpt>
      <trkpt lat="39.7686140" lon="2.6623730">
        <ele>149.2</ele>
        <time>2021-06-17T16:27:59Z</time>
      </trkpt>
      <trkpt lat="39.7686230" lon="2.6626310">
        <ele>150.1</ele>
        <time>2021-06-17T16:28:04Z</time>
      </trkpt>
      <trkpt lat="39.7686290" lon="2.6626810">
        <ele>150.3</ele>
        <time>2021-06-17T16:28:05Z</time>
      </trkpt>
      <trkpt lat="39.7686630" lon="2.6628280">
        <ele>150.9</ele>
        <time>2021-06-17T16:28:08Z</time>
      </trkpt>
      <trkpt lat="39.7686820" lon="2.6628720">
        <ele>151.1</ele>
        <time>2021-06-17T16:28:09Z</time>
      </trkpt>
      <trkpt lat="39.7687350" lon="2.6629570">
        <ele>151.5</ele>
        <time>2021-06-17T16:28:11Z</time>
      </trkpt>
      <trkpt lat="39.7688470" lon="2.6631200">
        <ele>152.2</ele>
        <time>2021-06-17T16:28:15Z</time>
      </trkpt>
      <trkpt lat="39.7690280" lon="2.6633160">
        <ele>153.3</ele>
        <time>2021-06-17T16:28:21Z</time>
      </trkpt>
      <trkpt lat="39.7690670" lon="2.6633370">
        <ele>153.5</ele>
        <time>2021-06-17T16:28:22Z</time>
      </trkpt>
      <trkpt lat="39.7691530" lon="2.6633680">
        <ele>154.0</ele>
        <time>2021-06-17T16:28:24Z</time>
      </trkpt>
      <trkpt lat="39.7692420" lon="2.6633760">
        <ele>154.4</ele>
        <time>2021-06-17T16:28:26Z</time>
      </trkpt>
      <trkpt lat="39.7692840" lon="2.6633720">
        <ele>154.6</ele>
        <time>2021-06-17T16:28:27Z</time>
      </trkpt>
      <trkpt lat="39.7693260" lon="2.6633630">
        <ele>154.8</ele>
        <time>2021-06-17T16:28:28Z</time>
      </trkpt>
      <trkpt lat="39.7694060" lon="2.6633540">
        <ele>155.2</ele>
        <time>2021-06-17T16:28:30Z</time>
      </trkpt>
      <trkpt lat="39.7694850" lon="2.6633720">
        <ele>155.5</ele>
        <time>2021-06-17T16:28:32Z</time>
      </trkpt>
      <trkpt lat="39.7695640" lon="2.6634090">
        <ele>155.9</ele>
        <time>2021-06-17T16:28:34Z</time>
      </trkpt>
      <trkpt lat="39.7696650" lon="2.6634980">
        <ele>156.3</ele>
        <time>2021-06-17T16:28:37Z</time>
      </trkpt>
      <trkpt lat="39.7697290" lon="2.6635690">
        <ele>156.6</ele>
        <time>2021-06-17T16:28:39Z</time>
      </trkpt>
      <trkpt lat="39.7697960" lon="2.6636390">
        <ele>157.0</ele>
        <time>2021-06-17T16:28:41Z</time>
      </trkpt>
      <trkpt lat="39.7698690" lon="2.6636870">
        <ele>157.3</ele>
        <time>2021-06-17T16:28:43Z</time>
      </trkpt>
      <trkpt lat="39.7699710" lon="2.6637370">
        <ele>157.6</ele>
        <time>2021-06-17T16:28:46Z</time>
      </trkpt>
      <trkpt lat="39.7700520" lon="2.6637700">
        <ele>157.7</ele>
        <time>2021-06-17T16:28:49Z</time>
      </trkpt>
      <trkpt lat="39.7702150" lon="2.6639030">
        <ele>157.8</ele>
        <time>2021-06-17T16:28:54Z</time>
      </trkpt>
      <trkpt lat="39.7702920" lon="2.6639780">
        <ele>157.9</ele>
        <time>2021-06-17T16:28:56Z</time>
      </trkpt>
      <trkpt lat="39.7703890" lon="2.6641050">
        <ele>157.9</ele>
        <time>2021-06-17T16:28:59Z</time>
      </trkpt>
      <trkpt lat="39.7704200" lon="2.6641360">
        <ele>157.9</ele>
        <time>2021-06-17T16:29:00Z</time>
      </trkpt>
      <trkpt lat="39.7705650" lon="2.6642420">
        <ele>158.0</ele>
        <time>2021-06-17T16:29:04Z</time>
      </trkpt>
      <trkpt lat="39.7706080" lon="2.6642720">
        <ele>158.1</ele>
        <time>2021-06-17T16:29:05Z</time>
      </trkpt>
      <trkpt lat="39.7708210" lon="2.6644380">
        <ele>158.4</ele>
        <time>2021-06-17T16:29:10Z</time>
      </trkpt>
      <trkpt lat="39.7708630" lon="2.6644730">
        <ele>158.5</ele>
        <time>2021-06-17T16:29:11Z</time>
      </trkpt>
      <trkpt lat="39.7709420" lon="2.6645810">
        <ele>158.6</ele>
        <time>2021-06-17T16:29:13Z</time>
      </trkpt>
      <trkpt lat="39.7709590" lon="2.6646300">
        <ele>158.7</ele>
        <time>2021-06-17T16:29:14Z</time>
      </trkpt>
      <trkpt lat="39.7709700" lon="2.6646960">
        <ele>158.8</ele>
        <time>2021-06-17T16:29:15Z</time>
      </trkpt>
      <trkpt lat="39.7709770" lon="2.6648910">
        <ele>159.1</ele>
        <time>2021-06-17T16:29:18Z</time>
      </trkpt>
      <trkpt lat="39.7710120" lon="2.6652210">
        <ele>159.6</ele>
        <time>2021-06-17T16:29:24Z</time>
      </trkpt>
      <trkpt lat="39.7710170" lon="2.6654590">
        <ele>160.1</ele>
        <time>2021-06-17T16:29:29Z</time>
      </trkpt>
      <trkpt lat="39.7710100" lon="2.6655010">
        <ele>160.1</ele>
        <time>2021-06-17T16:29:30Z</time>
      </trkpt>
      <trkpt lat="39.7709950" lon="2.6657360">
        <ele>160.6</ele>
        <time>2021-06-17T16:29:35Z</time>
      </trkpt>
      <trkpt lat="39.7709740" lon="2.6660750">
        <ele>161.3</ele>
        <time>2021-06-17T16:29:42Z</time>
      </trkpt>
      <trkpt lat="39.7709190" lon="2.6663980">
        <ele>162.2</ele>
        <time>2021-06-17T16:29:48Z</time>
      </trkpt>
      <trkpt lat="39.7709050" lon="2.6664500">
        <ele>162.4</ele>
        <time>2021-06-17T16:29:49Z</time>
      </trkpt>
      <trkpt lat="39.7708660" lon="2.6665420">
        <ele>162.7</ele>
        <time>2021-06-17T16:29:51Z</time>
      </trkpt>
      <trkpt lat="39.7708050" lon="2.6666230">
        <ele>163.0</ele>
        <time>2021-06-17T16:29:53Z</time>
      </trkpt>
      <trkpt lat="39.7707000" lon="2.6667210">
        <ele>163.4</ele>
        <time>2021-06-17T16:29:56Z</time>
      </trkpt>
      <trkpt lat="39.7705330" lon="2.6668480">
        <ele>163.9</ele>
        <time>2021-06-17T16:30:00Z</time>
      </trkpt>
      <trkpt lat="39.7703370" lon="2.6670230">
        <ele>164.7</ele>
        <time>2021-06-17T16:30:06Z</time>
      </trkpt>
      <trkpt lat="39.7702090" lon="2.6672280">
        <ele>165.5</ele>
        <time>2021-06-17T16:30:12Z</time>
      </trkpt>
      <trkpt lat="39.7701390" lon="2.6674270">
        <ele>166.2</ele>
        <time>2021-06-17T16:30:17Z</time>
      </trkpt>
      <trkpt lat="39.7701580" lon="2.6676460">
        <ele>166.9</ele>
        <time>2021-06-17T16:30:22Z</time>
      </trkpt>
      <trkpt lat="39.7702700" lon="2.6679580">
        <ele>168.1</ele>
        <time>2021-06-17T16:30:29Z</time>
      </trkpt>
      <trkpt lat="39.7703670" lon="2.6679910">
        <ele>168.5</ele>
        <time>2021-06-17T16:30:32Z</time>
      </trkpt>
      <trkpt lat="39.7704910" lon="2.6679680">
        <ele>168.9</ele>
        <time>2021-06-17T16:30:36Z</time>
      </trkpt>
      <trkpt lat="39.7706700" lon="2.6678870">
        <ele>169.7</ele>
        <time>2021-06-17T16:30:42Z</time>
      </trkpt>
      <trkpt lat="39.7708250" lon="2.6679560">
        <ele>170.2</ele>
        <time>2021-06-17T16:30:47Z</time>
      </trkpt>
      <trkpt lat="39.7710710" lon="2.6682210">
        <ele>171.1</ele>
        <time>2021-06-17T16:30:55Z</time>
      </trkpt>
      <trkpt lat="39.7711390" lon="2.6682820">
        <ele>171.4</ele>
        <time>2021-06-17T16:30:57Z</time>
      </trkpt>
      <trkpt lat="39.7712150" lon="2.6683150">
        <ele>171.7</ele>
        <time>2021-06-17T16:30:59Z</time>
      </trkpt>
      <trkpt lat="39.7712560" lon="2.6683230">
        <ele>171.9</ele>
        <time>2021-06-17T16:31:00Z</time>
      </trkpt>
      <trkpt lat="39.7714190" lon="2.6683380">
        <ele>172.6</ele>
        <time>2021-06-17T16:31:04Z</time>
      </trkpt>
      <trkpt lat="39.7715400" lon="2.6683470">
        <ele>173.1</ele>
        <time>2021-06-17T16:31:07Z</time>
      </trkpt>
      <trkpt lat="39.7717060" lon="2.6684400">
        <ele>173.9</ele>
        <time>2021-06-17T16:31:12Z</time>
      </trkpt>
      <trkpt lat="39.7718930" lon="2.6686020">
        <ele>175.0</ele>
        <time>2021-06-17T16:31:18Z</time>
      </trkpt>
      <trkpt lat="39.7719560" lon="2.6686620">
        <ele>175.3</ele>
        <time>2021-06-17T16:31:20Z</time>
      </trkpt>
      <trkpt lat="39.7720440" lon="2.6687430">
        <ele>175.9</ele>
        <time>2021-06-17T16:31:23Z</time>
      </trkpt>
      <trkpt lat="39.7722080" lon="2.6688890">
        <ele>176.8</ele>
        <time>2021-06-17T16:31:28Z</time>
      </trkpt>
      <trkpt lat="39.7723660" lon="2.6690850">
        <ele>177.9</ele>
        <time>2021-06-17T16:31:34Z</time>
      </trkpt>
      <trkpt lat="39.7725100" lon="2.6692480">
        <ele>178.8</ele>
        <time>2021-06-17T16:31:40Z</time>
      </trkpt>
      <trkpt lat="39.7726850" lon="2.6694400">
        <ele>180.0</ele>
        <time>2021-06-17T16:31:47Z</time>
      </trkpt>
      <trkpt lat="39.7728760" lon="2.6696790">
        <ele>181.3</ele>
        <time>2021-06-17T16:31:54Z</time>
      </trkpt>
      <trkpt lat="39.7730590" lon="2.6697700">
        <ele>182.2</ele>
        <time>2021-06-17T16:31:59Z</time>
      </trkpt>
      <trkpt lat="39.7733060" lon="2.6699200">
        <ele>183.5</ele>
        <time>2021-06-17T16:32:06Z</time>
      </trkpt>
      <trkpt lat="39.7733960" lon="2.6701390">
        <ele>184.3</ele>
        <time>2021-06-17T16:32:11Z</time>
      </trkpt>
      <trkpt lat="39.7734430" lon="2.6702750">
        <ele>184.8</ele>
        <time>2021-06-17T16:32:14Z</time>
      </trkpt>
      <trkpt lat="39.7734620" lon="2.6703760">
        <ele>185.2</ele>
        <time>2021-06-17T16:32:16Z</time>
      </trkpt>
      <trkpt lat="39.7734770" lon="2.6707230">
        <ele>186.4</ele>
        <time>2021-06-17T16:32:23Z</time>
      </trkpt>
      <trkpt lat="39.7735500" lon="2.6709480">
        <ele>187.3</ele>
        <time>2021-06-17T16:32:29Z</time>
      </trkpt>
      <trkpt lat="39.7736740" lon="2.6712060">
        <ele>188.4</ele>
        <time>2021-06-17T16:32:36Z</time>
      </trkpt>
      <trkpt lat="39.7736950" lon="2.6713750">
        <ele>189.1</ele>
        <time>2021-06-17T16:32:40Z</time>
      </trkpt>
      <trkpt lat="39.7737540" lon="2.6716790">
        <ele>190.2</ele>
        <time>2021-06-17T16:32:47Z</time>
      </trkpt>
      <trkpt lat="39.7739070" lon="2.6719820">
        <ele>191.4</ele>
        <time>2021-06-17T16:32:55Z</time>
      </trkpt>
      <trkpt lat="39.7739500" lon="2.6721580">
        <ele>192.0</ele>
        <time>2021-06-17T16:33:00Z</time>
      </trkpt>
      <trkpt lat="39.7739790" lon="2.6723630">
        <ele>192.8</ele>
        <time>2021-06-17T16:33:05Z</time>
      </trkpt>
      <trkpt lat="39.7740070" lon="2.6725750">
        <ele>193.7</ele>
        <time>2021-06-17T16:33:10Z</time>
      </trkpt>
      <trkpt lat="39.7740140" lon="2.6726200">
        <ele>193.9</ele>
        <time>2021-06-17T16:33:11Z</time>
      </trkpt>
      <trkpt lat="39.7740310" lon="2.6727170">
        <ele>194.4</ele>
        <time>2021-06-17T16:33:13Z</time>
      </trkpt>
      <trkpt lat="39.7740800" lon="2.6728890">
        <ele>195.2</ele>
        <time>2021-06-17T16:33:18Z</time>
      </trkpt>
      <trkpt lat="39.7742250" lon="2.6730680">
        <ele>196.2</ele>
        <time>2021-06-17T16:33:24Z</time>
      </trkpt>
      <trkpt lat="39.7743780" lon="2.6732700">
        <ele>197.4</ele>
        <time>2021-06-17T16:33:30Z</time>
      </trkpt>
      <trkpt lat="39.7744300" lon="2.6735450">
        <ele>198.6</ele>
        <time>2021-06-17T16:33:36Z</time>
      </trkpt>
      <trkpt lat="39.7744580" lon="2.6738300">
        <ele>199.7</ele>
        <time>2021-06-17T16:33:42Z</time>
      </trkpt>
      <trkpt lat="39.7744600" lon="2.6739200">
        <ele>200.1</ele>
        <time>2021-06-17T16:33:44Z</time>
      </trkpt>
      <trkpt lat="39.7744490" lon="2.6741180">
        <ele>201.0</ele>
        <time>2021-06-17T16:33:48Z</time>
      </trkpt>
      <trkpt lat="39.7744400" lon="2.6744200">
        <ele>202.5</ele>
        <time>2021-06-17T16:33:55Z</time>
      </trkpt>
      <trkpt lat="39.7743590" lon="2.6745410">
        <ele>203.2</ele>
        <time>2021-06-17T16:34:00Z</time>
      </trkpt>
      <trkpt lat="39.7742880" lon="2.6747760">
        <ele>204.4</ele>
        <time>2021-06-17T16:34:07Z</time>
      </trkpt>
      <trkpt lat="39.7742610" lon="2.6750770">
        <ele>205.8</ele>
        <time>2021-06-17T16:34:15Z</time>
      </trkpt>
      <trkpt lat="39.7742220" lon="2.6753000">
        <ele>206.9</ele>
        <time>2021-06-17T16:34:21Z</time>
      </trkpt>
      <trkpt lat="39.7741870" lon="2.6754550">
        <ele>207.7</ele>
        <time>2021-06-17T16:34:25Z</time>
      </trkpt>
      <trkpt lat="39.7741550" lon="2.6756070">
        <ele>208.5</ele>
        <time>2021-06-17T16:34:29Z</time>
      </trkpt>
      <trkpt lat="39.7741290" lon="2.6759110">
        <ele>210.1</ele>
        <time>2021-06-17T16:34:37Z</time>
      </trkpt>
      <trkpt lat="39.7742130" lon="2.6760710">
        <ele>211.0</ele>
        <time>2021-06-17T16:34:42Z</time>
      </trkpt>
      <trkpt lat="39.7743670" lon="2.6761330">
        <ele>212.0</ele>
        <time>2021-06-17T16:34:48Z</time>
      </trkpt>
      <trkpt lat="39.7745260" lon="2.6761390">
        <ele>213.1</ele>
        <time>2021-06-17T16:34:53Z</time>
      </trkpt>
      <trkpt lat="39.7746310" lon="2.6762160">
        <ele>214.2</ele>
        <time>2021-06-17T16:34:57Z</time>
      </trkpt>
      <trkpt lat="39.7746420" lon="2.6762420">
        <ele>214.4</ele>
        <time>2021-06-17T16:34:58Z</time>
      </trkpt>
      <trkpt lat="39.7746320" lon="2.6762800">
        <ele>214.7</ele>
        <time>2021-06-17T16:35:00Z</time>
      </trkpt>
      <trkpt lat="39.7744930" lon="2.6763090">
        <ele>215.6</ele>
        <time>2021-06-17T16:35:06Z</time>
      </trkpt>
      <trkpt lat="39.7743340" lon="2.6762920">
        <ele>216.6</ele>
        <time>2021-06-17T16:35:13Z</time>
      </trkpt>
      <trkpt lat="39.7741590" lon="2.6763160">
        <ele>217.7</ele>
        <time>2021-06-17T16:35:20Z</time>
      </trkpt>
      <trkpt lat="39.7740400" lon="2.6763410">
        <ele>218.6</ele>
        <time>2021-06-17T16:35:26Z</time>
      </trkpt>
      <trkpt lat="39.7739060" lon="2.6764290">
        <ele>219.6</ele>
        <time>2021-06-17T16:35:32Z</time>
      </trkpt>
      <trkpt lat="39.7737700" lon="2.6765290">
        <ele>220.6</ele>
        <time>2021-06-17T16:35:39Z</time>
      </trkpt>
      <trkpt lat="39.7736350" lon="2.6765450">
        <ele>221.4</ele>
        <time>2021-06-17T16:35:44Z</time>
      </trkpt>
      <trkpt lat="39.7734520" lon="2.6765780">
        <ele>221.8</ele>
        <time>2021-06-17T16:35:51Z</time>
      </trkpt>
      <trkpt lat="39.7733650" lon="2.6765670">
        <ele>221.6</ele>
        <time>2021-06-17T16:35:56Z</time>
      </trkpt>
      <trkpt lat="39.7732270" lon="2.6765740">
        <ele>221.1</ele>
        <time>2021-06-17T16:36:01Z</time>
      </trkpt>
      <trkpt lat="39.7731580" lon="2.6765820">
        <ele>220.9</ele>
        <time>2021-06-17T16:36:03Z</time>
      </trkpt>
      <trkpt lat="39.7729870" lon="2.6766010">
        <ele>220.2</ele>
        <time>2021-06-17T16:36:08Z</time>
      </trkpt>
      <trkpt lat="39.7728820" lon="2.6766000">
        <ele>219.8</ele>
        <time>2021-06-17T16:36:11Z</time>
      </trkpt>
      <trkpt lat="39.7727600" lon="2.6766100">
        <ele>219.4</ele>
        <time>2021-06-17T16:36:14Z</time>
      </trkpt>
      <trkpt lat="39.7727160" lon="2.6766180">
        <ele>219.2</ele>
        <time>2021-06-17T16:36:15Z</time>
      </trkpt>
      <trkpt lat="39.7725380" lon="2.6766210">
        <ele>218.6</ele>
        <time>2021-06-17T16:36:19Z</time>
      </trkpt>
      <trkpt lat="39.7724890" lon="2.6766370">
        <ele>218.4</ele>
        <time>2021-06-17T16:36:20Z</time>
      </trkpt>
      <trkpt lat="39.7724430" lon="2.6766590">
        <ele>218.2</ele>
        <time>2021-06-17T16:36:21Z</time>
      </trkpt>
      <trkpt lat="39.7723790" lon="2.6767260">
        <ele>217.9</ele>
        <time>2021-06-17T16:36:23Z</time>
      </trkpt>
      <trkpt lat="39.7723630" lon="2.6767740">
        <ele>217.7</ele>
        <time>2021-06-17T16:36:24Z</time>
      </trkpt>
      <trkpt lat="39.7723410" lon="2.6768880">
        <ele>217.3</ele>
        <time>2021-06-17T16:36:26Z</time>
      </trkpt>
      <trkpt lat="39.7723330" lon="2.6769480">
        <ele>217.0</ele>
        <time>2021-06-17T16:36:27Z</time>
      </trkpt>
      <trkpt lat="39.7723350" lon="2.6770730">
        <ele>216.5</ele>
        <time>2021-06-17T16:36:29Z</time>
      </trkpt>
      <trkpt lat="39.7723900" lon="2.6772420">
        <ele>215.7</ele>
        <time>2021-06-17T16:36:32Z</time>
      </trkpt>
      <trkpt lat="39.7724120" lon="2.6772920">
        <ele>215.5</ele>
        <time>2021-06-17T16:36:33Z</time>
      </trkpt>
      <trkpt lat="39.7724320" lon="2.6773430">
        <ele>215.2</ele>
        <time>2021-06-17T16:36:34Z</time>
      </trkpt>
      <trkpt lat="39.7724820" lon="2.6775100">
        <ele>214.4</ele>
        <time>2021-06-17T16:36:38Z</time>
      </trkpt>
      <trkpt lat="39.7724940" lon="2.6776010">
        <ele>214.0</ele>
        <time>2021-06-17T16:36:41Z</time>
      </trkpt>
      <trkpt lat="39.7724900" lon="2.6777100">
        <ele>213.5</ele>
        <time>2021-06-17T16:36:44Z</time>
      </trkpt>
      <trkpt lat="39.7724830" lon="2.6779810">
        <ele>212.4</ele>
        <time>2021-06-17T16:36:50Z</time>
      </trkpt>
      <trkpt lat="39.7725190" lon="2.6783020">
        <ele>211.1</ele>
        <time>2021-06-17T16:36:55Z</time>
      </trkpt>
      <trkpt lat="39.7725980" lon="2.6786920">
        <ele>209.5</ele>
        <time>2021-06-17T16:37:00Z</time>
      </trkpt>
      <trkpt lat="39.7726270" lon="2.6788770">
        <ele>208.7</ele>
        <time>2021-06-17T16:37:02Z</time>
      </trkpt>
      <trkpt lat="39.7726580" lon="2.6791780">
        <ele>207.5</ele>
        <time>2021-06-17T16:37:05Z</time>
      </trkpt>
      <trkpt lat="39.7726620" lon="2.6795000">
        <ele>206.5</ele>
        <time>2021-06-17T16:37:08Z</time>
      </trkpt>
      <trkpt lat="39.7726810" lon="2.6798310">
        <ele>205.4</ele>
        <time>2021-06-17T16:37:11Z</time>
      </trkpt>
      <trkpt lat="39.7727520" lon="2.6799960">
        <ele>204.8</ele>
        <time>2021-06-17T16:37:13Z</time>
      </trkpt>
      <trkpt lat="39.7728180" lon="2.6800540">
        <ele>204.3</ele>
        <time>2021-06-17T16:37:14Z</time>
      </trkpt>
      <trkpt lat="39.7729670" lon="2.6801560">
        <ele>203.3</ele>
        <time>2021-06-17T16:37:16Z</time>
      </trkpt>
      <trkpt lat="39.7730240" lon="2.6802400">
        <ele>202.7</ele>
        <time>2021-06-17T16:37:17Z</time>
      </trkpt>
      <trkpt lat="39.7730640" lon="2.6803450">
        <ele>202.2</ele>
        <time>2021-06-17T16:37:18Z</time>
      </trkpt>
      <trkpt lat="39.7730910" lon="2.6805670">
        <ele>201.2</ele>
        <time>2021-06-17T16:37:20Z</time>
      </trkpt>
      <trkpt lat="39.7731230" lon="2.6807440">
        <ele>200.5</ele>
        <time>2021-06-17T16:37:22Z</time>
      </trkpt>
      <trkpt lat="39.7732570" lon="2.6809760">
        <ele>199.2</ele>
        <time>2021-06-17T16:37:25Z</time>
      </trkpt>
      <trkpt lat="39.7732870" lon="2.6810740">
        <ele>198.7</ele>
        <time>2021-06-17T16:37:26Z</time>
      </trkpt>
      <trkpt lat="39.7732950" lon="2.6811800">
        <ele>198.2</ele>
        <time>2021-06-17T16:37:27Z</time>
      </trkpt>
      <trkpt lat="39.7732800" lon="2.6813870">
        <ele>197.2</ele>
        <time>2021-06-17T16:37:29Z</time>
      </trkpt>
      <trkpt lat="39.7732580" lon="2.6816670">
        <ele>195.8</ele>
        <time>2021-06-17T16:37:32Z</time>
      </trkpt>
      <trkpt lat="39.7732720" lon="2.6818470">
        <ele>195.0</ele>
        <time>2021-06-17T16:37:34Z</time>
      </trkpt>
      <trkpt lat="39.7733140" lon="2.6820170">
        <ele>194.2</ele>
        <time>2021-06-17T16:37:36Z</time>
      </trkpt>
      <trkpt lat="39.7733360" lon="2.6821010">
        <ele>193.8</ele>
        <time>2021-06-17T16:37:37Z</time>
      </trkpt>
      <trkpt lat="39.7733480" lon="2.6821860">
        <ele>193.4</ele>
        <time>2021-06-17T16:37:38Z</time>
      </trkpt>
      <trkpt lat="39.7733840" lon="2.6825720">
        <ele>191.7</ele>
        <time>2021-06-17T16:37:42Z</time>
      </trkpt>
      <trkpt lat="39.7733960" lon="2.6826650">
        <ele>191.3</ele>
        <time>2021-06-17T16:37:43Z</time>
      </trkpt>
      <trkpt lat="39.7734220" lon="2.6828450">
        <ele>190.5</ele>
        <time>2021-06-17T16:37:45Z</time>
      </trkpt>
      <trkpt lat="39.7734300" lon="2.6829370">
        <ele>190.1</ele>
        <time>2021-06-17T16:37:46Z</time>
      </trkpt>
      <trkpt lat="39.7734640" lon="2.6831210">
        <ele>189.4</ele>
        <time>2021-06-17T16:37:48Z</time>
      </trkpt>
      <trkpt lat="39.7735400" lon="2.6832780">
        <ele>188.7</ele>
        <time>2021-06-17T16:37:50Z</time>
      </trkpt>
      <trkpt lat="39.7736460" lon="2.6833820">
        <ele>188.1</ele>
        <time>2021-06-17T16:37:52Z</time>
      </trkpt>
      <trkpt lat="39.7737590" lon="2.6834680">
        <ele>187.5</ele>
        <time>2021-06-17T16:37:54Z</time>
      </trkpt>
      <trkpt lat="39.7738140" lon="2.6835230">
        <ele>187.2</ele>
        <time>2021-06-17T16:37:55Z</time>
      </trkpt>
      <trkpt lat="39.7739530" lon="2.6837360">
        <ele>186.1</ele>
        <time>2021-06-17T16:37:58Z</time>
      </trkpt>
      <trkpt lat="39.7740040" lon="2.6839220">
        <ele>185.3</ele>
        <time>2021-06-17T16:38:00Z</time>
      </trkpt>
      <trkpt lat="39.7740000" lon="2.6840270">
        <ele>184.9</ele>
        <time>2021-06-17T16:38:01Z</time>
      </trkpt>
      <trkpt lat="39.7739930" lon="2.6841340">
        <ele>184.4</ele>
        <time>2021-06-17T16:38:02Z</time>
      </trkpt>
      <trkpt lat="39.7739590" lon="2.6845780">
        <ele>182.5</ele>
        <time>2021-06-17T16:38:06Z</time>
      </trkpt>
      <trkpt lat="39.7739770" lon="2.6849790">
        <ele>181.0</ele>
        <time>2021-06-17T16:38:10Z</time>
      </trkpt>
      <trkpt lat="39.7740410" lon="2.6851500">
        <ele>180.3</ele>
        <time>2021-06-17T16:38:11Z</time>
      </trkpt>
      <trkpt lat="39.7741380" lon="2.6853030">
        <ele>179.5</ele>
        <time>2021-06-17T16:38:14Z</time>
      </trkpt>
      <trkpt lat="39.7742990" lon="2.6855300">
        <ele>178.3</ele>
        <time>2021-06-17T16:38:17Z</time>
      </trkpt>
      <trkpt lat="39.7743390" lon="2.6856980">
        <ele>177.5</ele>
        <time>2021-06-17T16:38:19Z</time>
      </trkpt>
      <trkpt lat="39.7742640" lon="2.6858000">
        <ele>176.7</ele>
        <time>2021-06-17T16:38:21Z</time>
      </trkpt>
      <trkpt lat="39.7742030" lon="2.6858290">
        <ele>176.3</ele>
        <time>2021-06-17T16:38:22Z</time>
      </trkpt>
      <trkpt lat="39.7740720" lon="2.6858840">
        <ele>175.4</ele>
        <time>2021-06-17T16:38:24Z</time>
      </trkpt>
      <trkpt lat="39.7740240" lon="2.6859430">
        <ele>175.0</ele>
        <time>2021-06-17T16:38:25Z</time>
      </trkpt>
      <trkpt lat="39.7740380" lon="2.6860730">
        <ele>174.4</ele>
        <time>2021-06-17T16:38:27Z</time>
      </trkpt>
      <trkpt lat="39.7740860" lon="2.6861010">
        <ele>174.1</ele>
        <time>2021-06-17T16:38:28Z</time>
      </trkpt>
      <trkpt lat="39.7741510" lon="2.6860970">
        <ele>173.7</ele>
        <time>2021-06-17T16:38:29Z</time>
      </trkpt>
      <trkpt lat="39.7744720" lon="2.6860350">
        <ele>172.0</ele>
        <time>2021-06-17T16:38:34Z</time>
      </trkpt>
      <trkpt lat="39.7745280" lon="2.6859930">
        <ele>171.7</ele>
        <time>2021-06-17T16:38:35Z</time>
      </trkpt>
      <trkpt lat="39.7745690" lon="2.6859250">
        <ele>171.5</ele>
        <time>2021-06-17T16:38:36Z</time>
      </trkpt>
      <trkpt lat="39.7745920" lon="2.6858410">
        <ele>171.2</ele>
        <time>2021-06-17T16:38:37Z</time>
      </trkpt>
      <trkpt lat="39.7745940" lon="2.6857570">
        <ele>170.9</ele>
        <time>2021-06-17T16:38:38Z</time>
      </trkpt>
      <trkpt lat="39.7745820" lon="2.6856700">
        <ele>170.6</ele>
        <time>2021-06-17T16:38:39Z</time>
      </trkpt>
      <trkpt lat="39.7745610" lon="2.6855820">
        <ele>170.3</ele>
        <time>2021-06-17T16:38:40Z</time>
      </trkpt>
      <trkpt lat="39.7745270" lon="2.6854040">
        <ele>169.6</ele>
        <time>2021-06-17T16:38:42Z</time>
      </trkpt>
      <trkpt lat="39.7745370" lon="2.6853080">
        <ele>169.2</ele>
        <time>2021-06-17T16:38:43Z</time>
      </trkpt>
      <trkpt lat="39.7745700" lon="2.6852210">
        <ele>168.9</ele>
        <time>2021-06-17T16:38:44Z</time>
      </trkpt>
      <trkpt lat="39.7746270" lon="2.6850530">
        <ele>168.1</ele>
        <time>2021-06-17T16:38:46Z</time>
      </trkpt>
      <trkpt lat="39.7746510" lon="2.6846550">
        <ele>166.5</ele>
        <time>2021-06-17T16:38:50Z</time>
      </trkpt>
      <trkpt lat="39.7746250" lon="2.6841190">
        <ele>164.5</ele>
        <time>2021-06-17T16:38:55Z</time>
      </trkpt>
      <trkpt lat="39.7746080" lon="2.6840170">
        <ele>164.1</ele>
        <time>2021-06-17T16:38:56Z</time>
      </trkpt>
      <trkpt lat="39.7745470" lon="2.6838390">
        <ele>163.4</ele>
        <time>2021-06-17T16:38:58Z</time>
      </trkpt>
      <trkpt lat="39.7744260" lon="2.6836460">
        <ele>162.3</ele>
        <time>2021-06-17T16:39:01Z</time>
      </trkpt>
      <trkpt lat="39.7744150" lon="2.6835840">
        <ele>162.0</ele>
        <time>2021-06-17T16:39:02Z</time>
      </trkpt>
      <trkpt lat="39.7744800" lon="2.6835300">
        <ele>161.5</ele>
        <time>2021-06-17T16:39:04Z</time>
      </trkpt>
      <trkpt lat="39.7745280" lon="2.6835610">
        <ele>161.2</ele>
        <time>2021-06-17T16:39:05Z</time>
      </trkpt>
      <trkpt lat="39.7745670" lon="2.6836150">
        <ele>160.8</ele>
        <time>2021-06-17T16:39:06Z</time>
      </trkpt>
      <trkpt lat="39.7746360" lon="2.6837580">
        <ele>160.0</ele>
        <time>2021-06-17T16:39:08Z</time>
      </trkpt>
      <trkpt lat="39.7746900" lon="2.6839260">
        <ele>159.3</ele>
        <time>2021-06-17T16:39:10Z</time>
      </trkpt>
      <trkpt lat="39.7747950" lon="2.6841950">
        <ele>158.1</ele>
        <time>2021-06-17T16:39:13Z</time>
      </trkpt>
      <trkpt lat="39.7748420" lon="2.6842790">
        <ele>157.7</ele>
        <time>2021-06-17T16:39:14Z</time>
      </trkpt>
      <trkpt lat="39.7748870" lon="2.6843640">
        <ele>157.3</ele>
        <time>2021-06-17T16:39:15Z</time>
      </trkpt>
      <trkpt lat="39.7749500" lon="2.6845660">
        <ele>156.4</ele>
        <time>2021-06-17T16:39:17Z</time>
      </trkpt>
      <trkpt lat="39.7749570" lon="2.6849100">
        <ele>155.0</ele>
        <time>2021-06-17T16:39:20Z</time>
      </trkpt>
      <trkpt lat="39.7749720" lon="2.6852650">
        <ele>153.5</ele>
        <time>2021-06-17T16:39:23Z</time>
      </trkpt>
      <trkpt lat="39.7749830" lon="2.6853730">
        <ele>153.0</ele>
        <time>2021-06-17T16:39:24Z</time>
      </trkpt>
      <trkpt lat="39.7750070" lon="2.6854830">
        <ele>152.5</ele>
        <time>2021-06-17T16:39:25Z</time>
      </trkpt>
      <trkpt lat="39.7751600" lon="2.6859040">
        <ele>150.3</ele>
        <time>2021-06-17T16:39:29Z</time>
      </trkpt>
      <trkpt lat="39.7752220" lon="2.6859970">
        <ele>149.7</ele>
        <time>2021-06-17T16:39:30Z</time>
      </trkpt>
      <trkpt lat="39.7754640" lon="2.6863340">
        <ele>147.4</ele>
        <time>2021-06-17T16:39:34Z</time>
      </trkpt>
      <trkpt lat="39.7754910" lon="2.6864300">
        <ele>146.8</ele>
        <time>2021-06-17T16:39:35Z</time>
      </trkpt>
      <trkpt lat="39.7754960" lon="2.6865360">
        <ele>146.2</ele>
        <time>2021-06-17T16:39:36Z</time>
      </trkpt>
      <trkpt lat="39.7754330" lon="2.6867330">
        <ele>144.9</ele>
        <time>2021-06-17T16:39:38Z</time>
      </trkpt>
      <trkpt lat="39.7753160" lon="2.6868870">
        <ele>143.9</ele>
        <time>2021-06-17T16:39:40Z</time>
      </trkpt>
      <trkpt lat="39.7752420" lon="2.6869380">
        <ele>143.3</ele>
        <time>2021-06-17T16:39:41Z</time>
      </trkpt>
      <trkpt lat="39.7751560" lon="2.6869670">
        <ele>142.8</ele>
        <time>2021-06-17T16:39:42Z</time>
      </trkpt>
      <trkpt lat="39.7749750" lon="2.6869940">
        <ele>141.7</ele>
        <time>2021-06-17T16:39:44Z</time>
      </trkpt>
      <trkpt lat="39.7748850" lon="2.6870170">
        <ele>141.1</ele>
        <time>2021-06-17T16:39:45Z</time>
      </trkpt>
      <trkpt lat="39.7746180" lon="2.6871330">
        <ele>139.5</ele>
        <time>2021-06-17T16:39:48Z</time>
      </trkpt>
      <trkpt lat="39.7742810" lon="2.6873530">
        <ele>136.8</ele>
        <time>2021-06-17T16:39:52Z</time>
      </trkpt>
      <trkpt lat="39.7742140" lon="2.6874200">
        <ele>136.1</ele>
        <time>2021-06-17T16:39:53Z</time>
      </trkpt>
      <trkpt lat="39.7741560" lon="2.6875000">
        <ele>135.2</ele>
        <time>2021-06-17T16:39:54Z</time>
      </trkpt>
      <trkpt lat="39.7741230" lon="2.6876280">
        <ele>134.1</ele>
        <time>2021-06-17T16:39:55Z</time>
      </trkpt>
      <trkpt lat="39.7741160" lon="2.6877370">
        <ele>133.2</ele>
        <time>2021-06-17T16:39:56Z</time>
      </trkpt>
      <trkpt lat="39.7741590" lon="2.6879300">
        <ele>131.8</ele>
        <time>2021-06-17T16:39:58Z</time>
      </trkpt>
      <trkpt lat="39.7743350" lon="2.6882310">
        <ele>129.7</ele>
        <time>2021-06-17T16:40:01Z</time>
      </trkpt>
      <trkpt lat="39.7744050" lon="2.6884750">
        <ele>128.5</ele>
        <time>2021-06-17T16:40:03Z</time>
      </trkpt>
      <trkpt lat="39.7744030" lon="2.6885980">
        <ele>127.8</ele>
        <time>2021-06-17T16:40:04Z</time>
      </trkpt>
      <trkpt lat="39.7743680" lon="2.6889740">
        <ele>126.0</ele>
        <time>2021-06-17T16:40:07Z</time>
      </trkpt>
      <trkpt lat="39.7743730" lon="2.6891060">
        <ele>125.3</ele>
        <time>2021-06-17T16:40:08Z</time>
      </trkpt>
      <trkpt lat="39.7743920" lon="2.6892340">
        <ele>124.7</ele>
        <time>2021-06-17T16:40:09Z</time>
      </trkpt>
      <trkpt lat="39.7744690" lon="2.6894850">
        <ele>123.5</ele>
        <time>2021-06-17T16:40:11Z</time>
      </trkpt>
      <trkpt lat="39.7746230" lon="2.6898650">
        <ele>121.4</ele>
        <time>2021-06-17T16:40:14Z</time>
      </trkpt>
      <trkpt lat="39.7747580" lon="2.6900840">
        <ele>120.0</ele>
        <time>2021-06-17T16:40:16Z</time>
      </trkpt>
      <trkpt lat="39.7748330" lon="2.6901840">
        <ele>119.3</ele>
        <time>2021-06-17T16:40:17Z</time>
      </trkpt>
      <trkpt lat="39.7749980" lon="2.6903430">
        <ele>118.0</ele>
        <time>2021-06-17T16:40:19Z</time>
      </trkpt>
      <trkpt lat="39.7751570" lon="2.6904510">
        <ele>116.8</ele>
        <time>2021-06-17T16:40:21Z</time>
      </trkpt>
      <trkpt lat="39.7753220" lon="2.6905370">
        <ele>115.5</ele>
        <time>2021-06-17T16:40:23Z</time>
      </trkpt>
      <trkpt lat="39.7754050" lon="2.6905870">
        <ele>114.9</ele>
        <time>2021-06-17T16:40:24Z</time>
      </trkpt>
      <trkpt lat="39.7755350" lon="2.6907180">
        <ele>113.7</ele>
        <time>2021-06-17T16:40:26Z</time>
      </trkpt>
      <trkpt lat="39.7756380" lon="2.6909250">
        <ele>112.4</ele>
        <time>2021-06-17T16:40:28Z</time>
      </trkpt>
      <trkpt lat="39.7756700" lon="2.6910390">
        <ele>111.9</ele>
        <time>2021-06-17T16:40:29Z</time>
      </trkpt>
      <trkpt lat="39.7756890" lon="2.6911550">
        <ele>111.5</ele>
        <time>2021-06-17T16:40:30Z</time>
      </trkpt>
      <trkpt lat="39.7756900" lon="2.6913890">
        <ele>110.4</ele>
        <time>2021-06-17T16:40:32Z</time>
      </trkpt>
      <trkpt lat="39.7756140" lon="2.6916100">
        <ele>109.3</ele>
        <time>2021-06-17T16:40:34Z</time>
      </trkpt>
      <trkpt lat="39.7755540" lon="2.6917000">
        <ele>108.7</ele>
        <time>2021-06-17T16:40:35Z</time>
      </trkpt>
      <trkpt lat="39.7751900" lon="2.6920690">
        <ele>106.1</ele>
        <time>2021-06-17T16:40:40Z</time>
      </trkpt>
      <trkpt lat="39.7749450" lon="2.6922570">
        <ele>104.5</ele>
        <time>2021-06-17T16:40:43Z</time>
      </trkpt>
      <trkpt lat="39.7747610" lon="2.6923280">
        <ele>103.5</ele>
        <time>2021-06-17T16:40:45Z</time>
      </trkpt>
      <trkpt lat="39.7745660" lon="2.6923500">
        <ele>102.2</ele>
        <time>2021-06-17T16:40:47Z</time>
      </trkpt>
      <trkpt lat="39.7743790" lon="2.6923610">
        <ele>100.8</ele>
        <time>2021-06-17T16:40:49Z</time>
      </trkpt>
      <trkpt lat="39.7742890" lon="2.6923760">
        <ele>100.0</ele>
        <time>2021-06-17T16:40:50Z</time>
      </trkpt>
      <trkpt lat="39.7741310" lon="2.6924700">
        <ele>98.8</ele>
        <time>2021-06-17T16:40:52Z</time>
      </trkpt>
      <trkpt lat="39.7740140" lon="2.6926400">
        <ele>97.4</ele>
        <time>2021-06-17T16:40:54Z</time>
      </trkpt>
      <trkpt lat="39.7739790" lon="2.6927470">
        <ele>96.5</ele>
        <time>2021-06-17T16:40:55Z</time>
      </trkpt>
      <trkpt lat="39.7739530" lon="2.6928590">
        <ele>95.7</ele>
        <time>2021-06-17T16:40:56Z</time>
      </trkpt>
      <trkpt lat="39.7739330" lon="2.6931010">
        <ele>94.5</ele>
        <time>2021-06-17T16:40:58Z</time>
      </trkpt>
      <trkpt lat="39.7739490" lon="2.6932520">
        <ele>93.8</ele>
        <time>2021-06-17T16:40:59Z</time>
      </trkpt>
      <trkpt lat="39.7739780" lon="2.6933440">
        <ele>93.4</ele>
        <time>2021-06-17T16:41:00Z</time>
      </trkpt>
      <trkpt lat="39.7740830" lon="2.6935410">
        <ele>92.4</ele>
        <time>2021-06-17T16:41:02Z</time>
      </trkpt>
      <trkpt lat="39.7742240" lon="2.6936990">
        <ele>91.4</ele>
        <time>2021-06-17T16:41:04Z</time>
      </trkpt>
      <trkpt lat="39.7743070" lon="2.6937720">
        <ele>90.8</ele>
        <time>2021-06-17T16:41:05Z</time>
      </trkpt>
      <trkpt lat="39.7743770" lon="2.6938540">
        <ele>90.3</ele>
        <time>2021-06-17T16:41:06Z</time>
      </trkpt>
      <trkpt lat="39.7744840" lon="2.6940310">
        <ele>89.3</ele>
        <time>2021-06-17T16:41:08Z</time>
      </trkpt>
      <trkpt lat="39.7746590" lon="2.6943750">
        <ele>87.6</ele>
        <time>2021-06-17T16:41:12Z</time>
      </trkpt>
      <trkpt lat="39.7747110" lon="2.6944540">
        <ele>87.1</ele>
        <time>2021-06-17T16:41:13Z</time>
      </trkpt>
      <trkpt lat="39.7748250" lon="2.6946010">
        <ele>86.3</ele>
        <time>2021-06-17T16:41:15Z</time>
      </trkpt>
      <trkpt lat="39.7749550" lon="2.6947110">
        <ele>85.5</ele>
        <time>2021-06-17T16:41:17Z</time>
      </trkpt>
      <trkpt lat="39.7752250" lon="2.6949410">
        <ele>83.9</ele>
        <time>2021-06-17T16:41:21Z</time>
      </trkpt>
      <trkpt lat="39.7752770" lon="2.6950260">
        <ele>83.5</ele>
        <time>2021-06-17T16:41:22Z</time>
      </trkpt>
      <trkpt lat="39.7753150" lon="2.6951230">
        <ele>83.1</ele>
        <time>2021-06-17T16:41:23Z</time>
      </trkpt>
      <trkpt lat="39.7753580" lon="2.6953450">
        <ele>82.3</ele>
        <time>2021-06-17T16:41:25Z</time>
      </trkpt>
      <trkpt lat="39.7753520" lon="2.6955590">
        <ele>81.6</ele>
        <time>2021-06-17T16:41:27Z</time>
      </trkpt>
      <trkpt lat="39.7753250" lon="2.6956600">
        <ele>81.2</ele>
        <time>2021-06-17T16:41:28Z</time>
      </trkpt>
      <trkpt lat="39.7752850" lon="2.6957510">
        <ele>80.8</ele>
        <time>2021-06-17T16:41:29Z</time>
      </trkpt>
      <trkpt lat="39.7751770" lon="2.6958950">
        <ele>80.0</ele>
        <time>2021-06-17T16:41:31Z</time>
      </trkpt>
      <trkpt lat="39.7750340" lon="2.6959850">
        <ele>79.2</ele>
        <time>2021-06-17T16:41:33Z</time>
      </trkpt>
      <trkpt lat="39.7749530" lon="2.6960040">
        <ele>78.8</ele>
        <time>2021-06-17T16:41:34Z</time>
      </trkpt>
      <trkpt lat="39.7747840" lon="2.6960500">
        <ele>77.9</ele>
        <time>2021-06-17T16:41:36Z</time>
      </trkpt>
      <trkpt lat="39.7746640" lon="2.6961730">
        <ele>77.0</ele>
        <time>2021-06-17T16:41:38Z</time>
      </trkpt>
      <trkpt lat="39.7746160" lon="2.6963840">
        <ele>76.0</ele>
        <time>2021-06-17T16:41:40Z</time>
      </trkpt>
      <trkpt lat="39.7746020" lon="2.6969920">
        <ele>73.4</ele>
        <time>2021-06-17T16:41:45Z</time>
      </trkpt>
      <trkpt lat="39.7745060" lon="2.6976270">
        <ele>70.6</ele>
        <time>2021-06-17T16:41:50Z</time>
      </trkpt>
      <trkpt lat="39.7743310" lon="2.6981650">
        <ele>67.7</ele>
        <time>2021-06-17T16:41:55Z</time>
      </trkpt>
      <trkpt lat="39.7742210" lon="2.6984550">
        <ele>66.4</ele>
        <time>2021-06-17T16:41:58Z</time>
      </trkpt>
      <trkpt lat="39.7742080" lon="2.6985470">
        <ele>66.1</ele>
        <time>2021-06-17T16:41:59Z</time>
      </trkpt>
      <trkpt lat="39.7742220" lon="2.6986340">
        <ele>65.7</ele>
        <time>2021-06-17T16:42:00Z</time>
      </trkpt>
      <trkpt lat="39.7742580" lon="2.6987080">
        <ele>65.3</ele>
        <time>2021-06-17T16:42:01Z</time>
      </trkpt>
      <trkpt lat="39.7743090" lon="2.6987530">
        <ele>64.9</ele>
        <time>2021-06-17T16:42:02Z</time>
      </trkpt>
      <trkpt lat="39.7743710" lon="2.6987670">
        <ele>64.5</ele>
        <time>2021-06-17T16:42:03Z</time>
      </trkpt>
      <trkpt lat="39.7744400" lon="2.6987410">
        <ele>64.0</ele>
        <time>2021-06-17T16:42:04Z</time>
      </trkpt>
      <trkpt lat="39.7745020" lon="2.6986750">
        <ele>63.6</ele>
        <time>2021-06-17T16:42:05Z</time>
      </trkpt>
      <trkpt lat="39.7745500" lon="2.6985880">
        <ele>63.1</ele>
        <time>2021-06-17T16:42:06Z</time>
      </trkpt>
      <trkpt lat="39.7746170" lon="2.6983960">
        <ele>62.4</ele>
        <time>2021-06-17T16:42:08Z</time>
      </trkpt>
      <trkpt lat="39.7748390" lon="2.6976590">
        <ele>60.2</ele>
        <time>2021-06-17T16:42:15Z</time>
      </trkpt>
      <trkpt lat="39.7748690" lon="2.6974280">
        <ele>60.0</ele>
        <time>2021-06-17T16:42:17Z</time>
      </trkpt>
      <trkpt lat="39.7748830" lon="2.6971950">
        <ele>59.8</ele>
        <time>2021-06-17T16:42:19Z</time>
      </trkpt>
      <trkpt lat="39.7749740" lon="2.6970420">
        <ele>59.5</ele>
        <time>2021-06-17T16:42:21Z</time>
      </trkpt>
      <trkpt lat="39.7750980" lon="2.6970390">
        <ele>59.0</ele>
        <time>2021-06-17T16:42:23Z</time>
      </trkpt>
      <trkpt lat="39.7751440" lon="2.6971820">
        <ele>58.5</ele>
        <time>2021-06-17T16:42:25Z</time>
      </trkpt>
      <trkpt lat="39.7751390" lon="2.6973020">
        <ele>58.0</ele>
        <time>2021-06-17T16:42:26Z</time>
      </trkpt>
      <trkpt lat="39.7750990" lon="2.6975050">
        <ele>57.2</ele>
        <time>2021-06-17T16:42:28Z</time>
      </trkpt>
      <trkpt lat="39.7750760" lon="2.6976150">
        <ele>56.8</ele>
        <time>2021-06-17T16:42:29Z</time>
      </trkpt>
      <trkpt lat="39.7749020" lon="2.6982310">
        <ele>54.2</ele>
        <time>2021-06-17T16:42:35Z</time>
      </trkpt>
      <trkpt lat="39.7747200" lon="2.6987620">
        <ele>51.8</ele>
        <time>2021-06-17T16:42:40Z</time>
      </trkpt>
      <trkpt lat="39.7743910" lon="2.6994030">
        <ele>48.4</ele>
        <time>2021-06-17T16:42:46Z</time>
      </trkpt>
      <trkpt lat="39.7740090" lon="2.6999640">
        <ele>45.4</ele>
        <time>2021-06-17T16:42:52Z</time>
      </trkpt>
      <trkpt lat="39.7738470" lon="2.7002090">
        <ele>44.2</ele>
        <time>2021-06-17T16:42:55Z</time>
      </trkpt>
      <trkpt lat="39.7738180" lon="2.7002590">
        <ele>44.0</ele>
        <time>2021-06-17T16:42:56Z</time>
      </trkpt>
      <trkpt lat="39.7736790" lon="2.7004740">
        <ele>43.0</ele>
        <time>2021-06-17T16:43:01Z</time>
      </trkpt>
      <trkpt lat="39.7734480" lon="2.7007930">
        <ele>41.3</ele>
        <time>2021-06-17T16:43:07Z</time>
      </trkpt>
      <trkpt lat="39.7731200" lon="2.7012460">
        <ele>39.1</ele>
        <time>2021-06-17T16:43:14Z</time>
      </trkpt>
      <trkpt lat="39.7730660" lon="2.7013100">
        <ele>38.8</ele>
        <time>2021-06-17T16:43:15Z</time>
      </trkpt>
      <trkpt lat="39.7728580" lon="2.7014820">
        <ele>37.6</ele>
        <time>2021-06-17T16:43:18Z</time>
      </trkpt>
      <trkpt lat="39.7726760" lon="2.7016100">
        <ele>36.5</ele>
        <time>2021-06-17T16:43:21Z</time>
      </trkpt>
      <trkpt lat="39.7724780" lon="2.7017560">
        <ele>35.5</ele>
        <time>2021-06-17T16:43:24Z</time>
      </trkpt>
      <trkpt lat="39.7723950" lon="2.7018160">
        <ele>35.1</ele>
        <time>2021-06-17T16:43:25Z</time>
      </trkpt>
      <trkpt lat="39.7721360" lon="2.7020410">
        <ele>34.1</ele>
        <time>2021-06-17T16:43:29Z</time>
      </trkpt>
      <trkpt lat="39.7720820" lon="2.7021150">
        <ele>33.8</ele>
        <time>2021-06-17T16:43:30Z</time>
      </trkpt>
      <trkpt lat="39.7720380" lon="2.7021950">
        <ele>33.5</ele>
        <time>2021-06-17T16:43:31Z</time>
      </trkpt>
      <trkpt lat="39.7719370" lon="2.7024390">
        <ele>32.8</ele>
        <time>2021-06-17T16:43:34Z</time>
      </trkpt>
      <trkpt lat="39.7717740" lon="2.7028750">
        <ele>32.0</ele>
        <time>2021-06-17T16:43:40Z</time>
      </trkpt>
      <trkpt lat="39.7715930" lon="2.7033490">
        <ele>31.9</ele>
        <time>2021-06-17T16:43:47Z</time>
      </trkpt>
      <trkpt lat="39.7714770" lon="2.7036460">
        <ele>31.7</ele>
        <time>2021-06-17T16:43:51Z</time>
      </trkpt>
      <trkpt lat="39.7713920" lon="2.7038740">
        <ele>31.4</ele>
        <time>2021-06-17T16:43:54Z</time>
      </trkpt>
      <trkpt lat="39.7712090" lon="2.7043580">
        <ele>30.6</ele>
        <time>2021-06-17T16:44:00Z</time>
      </trkpt>
      <trkpt lat="39.7711510" lon="2.7045180">
        <ele>30.3</ele>
        <time>2021-06-17T16:44:02Z</time>
      </trkpt>
      <trkpt lat="39.7709230" lon="2.7051290">
        <ele>29.3</ele>
        <time>2021-06-17T16:44:10Z</time>
      </trkpt>
      <trkpt lat="39.7707710" lon="2.7055540">
        <ele>28.6</ele>
        <time>2021-06-17T16:44:16Z</time>
      </trkpt>
      <trkpt lat="39.7707680" lon="2.7056230">
        <ele>28.2</ele>
        <time>2021-06-17T16:44:17Z</time>
      </trkpt>
      <trkpt lat="39.7707840" lon="2.7056860">
        <ele>27.9</ele>
        <time>2021-06-17T16:44:18Z</time>
      </trkpt>
      <trkpt lat="39.7708560" lon="2.7057960">
        <ele>27.4</ele>
        <time>2021-06-17T16:44:20Z</time>
      </trkpt>
      <trkpt lat="39.7708880" lon="2.7058490">
        <ele>27.1</ele>
        <time>2021-06-17T16:44:21Z</time>
      </trkpt>
      <trkpt lat="39.7709200" lon="2.7059680">
        <ele>26.5</ele>
        <time>2021-06-17T16:44:23Z</time>
      </trkpt>
      <trkpt lat="39.7709290" lon="2.7061370">
        <ele>26.3</ele>
        <time>2021-06-17T16:44:26Z</time>
      </trkpt>
      <trkpt lat="39.7709420" lon="2.7061890">
        <ele>26.5</ele>
        <time>2021-06-17T16:44:27Z</time>
      </trkpt>
      <trkpt lat="39.7709630" lon="2.7062310">
        <ele>26.7</ele>
        <time>2021-06-17T16:44:28Z</time>
      </trkpt>
      <trkpt lat="39.7710310" lon="2.7062670">
        <ele>26.9</ele>
        <time>2021-06-17T16:44:30Z</time>
      </trkpt>
      <trkpt lat="39.7712070" lon="2.7061850">
        <ele>26.6</ele>
        <time>2021-06-17T16:44:34Z</time>
      </trkpt>
      <trkpt lat="39.7712610" lon="2.7061600">
        <ele>26.3</ele>
        <time>2021-06-17T16:44:35Z</time>
      </trkpt>
      <trkpt lat="39.7716190" lon="2.7060140">
        <ele>24.8</ele>
        <time>2021-06-17T16:44:41Z</time>
      </trkpt>
      <trkpt lat="39.7718740" lon="2.7059090">
        <ele>23.8</ele>
        <time>2021-06-17T16:44:45Z</time>
      </trkpt>
      <trkpt lat="39.7721400" lon="2.7058160">
        <ele>22.9</ele>
        <time>2021-06-17T16:44:49Z</time>
      </trkpt>
      <trkpt lat="39.7722090" lon="2.7057900">
        <ele>22.7</ele>
        <time>2021-06-17T16:44:50Z</time>
      </trkpt>
      <trkpt lat="39.7724930" lon="2.7056910">
        <ele>22.1</ele>
        <time>2021-06-17T16:44:54Z</time>
      </trkpt>
      <trkpt lat="39.7727120" lon="2.7056210">
        <ele>21.5</ele>
        <time>2021-06-17T16:44:57Z</time>
      </trkpt>
      <trkpt lat="39.7732380" lon="2.7055220">
        <ele>20.3</ele>
        <time>2021-06-17T16:45:04Z</time>
      </trkpt>
      <trkpt lat="39.7733160" lon="2.7055150">
        <ele>20.1</ele>
        <time>2021-06-17T16:45:05Z</time>
      </trkpt>
      <trkpt lat="39.7737170" lon="2.7054990">
        <ele>19.5</ele>
        <time>2021-06-17T16:45:10Z</time>
      </trkpt>
      <trkpt lat="39.7739230" lon="2.7055170">
        <ele>19.2</ele>
        <time>2021-06-17T16:45:13Z</time>
      </trkpt>
      <trkpt lat="39.7745350" lon="2.7055490">
        <ele>18.3</ele>
        <time>2021-06-17T16:45:21Z</time>
      </trkpt>
      <trkpt lat="39.7746080" lon="2.7055530">
        <ele>18.2</ele>
        <time>2021-06-17T16:45:22Z</time>
      </trkpt>
      <trkpt lat="39.7750580" lon="2.7055850">
        <ele>17.5</ele>
        <time>2021-06-17T16:45:28Z</time>
      </trkpt>
      <trkpt lat="39.7752480" lon="2.7056010">
        <ele>17.0</ele>
        <time>2021-06-17T16:45:31Z</time>
      </trkpt>
      <trkpt lat="39.7756040" lon="2.7056310">
        <ele>15.8</ele>
        <time>2021-06-17T16:45:36Z</time>
      </trkpt>
      <trkpt lat="39.7757550" lon="2.7056440">
        <ele>15.2</ele>
        <time>2021-06-17T16:45:38Z</time>
      </trkpt>
      <trkpt lat="39.7758360" lon="2.7056520">
        <ele>15.0</ele>
        <time>2021-06-17T16:45:39Z</time>
      </trkpt>
      <trkpt lat="39.7764120" lon="2.7056850">
        <ele>13.0</ele>
        <time>2021-06-17T16:45:46Z</time>
      </trkpt>
      <trkpt lat="39.7764850" lon="2.7056800">
        <ele>12.8</ele>
        <time>2021-06-17T16:45:47Z</time>
      </trkpt>
      <trkpt lat="39.7768110" lon="2.7056720">
        <ele>12.4</ele>
        <time>2021-06-17T16:45:52Z</time>
      </trkpt>
      <trkpt lat="39.7768720" lon="2.7056760">
        <ele>12.3</ele>
        <time>2021-06-17T16:45:53Z</time>
      </trkpt>
      <trkpt lat="39.7769850" lon="2.7056410">
        <ele>12.3</ele>
        <time>2021-06-17T16:45:55Z</time>
      </trkpt>
      <trkpt lat="39.7770310" lon="2.7056050">
        <ele>12.3</ele>
        <time>2021-06-17T16:45:56Z</time>
      </trkpt>
      <trkpt lat="39.7772480" lon="2.7053800">
        <ele>11.9</ele>
        <time>2021-06-17T16:46:01Z</time>
      </trkpt>
      <trkpt lat="39.7773440" lon="2.7052910">
        <ele>11.8</ele>
        <time>2021-06-17T16:46:03Z</time>
      </trkpt>
      <trkpt lat="39.7775430" lon="2.7051330">
        <ele>11.6</ele>
        <time>2021-06-17T16:46:07Z</time>
      </trkpt>
      <trkpt lat="39.7776860" lon="2.7050040">
        <ele>11.6</ele>
        <time>2021-06-17T16:46:10Z</time>
      </trkpt>
      <trkpt lat="39.7778400" lon="2.7048620">
        <ele>11.5</ele>
        <time>2021-06-17T16:46:13Z</time>
      </trkpt>
      <trkpt lat="39.7781620" lon="2.7045980">
        <ele>11.6</ele>
        <time>2021-06-17T16:46:19Z</time>
      </trkpt>
      <trkpt lat="39.7782080" lon="2.7045760">
        <ele>11.6</ele>
        <time>2021-06-17T16:46:20Z</time>
      </trkpt>
      <trkpt lat="39.7783290" lon="2.7045310">
        <ele>11.7</ele>
        <time>2021-06-17T16:46:22Z</time>
      </trkpt>
      <trkpt lat="39.7783680" lon="2.7045310">
        <ele>11.7</ele>
        <time>2021-06-17T16:46:23Z</time>
      </trkpt>
      <trkpt lat="39.7784360" lon="2.7045260">
        <ele>11.8</ele>
        <time>2021-06-17T16:46:26Z</time>
      </trkpt>
      <trkpt lat="39.7785320" lon="2.7044300">
        <ele>11.7</ele>
        <time>2021-06-17T16:46:30Z</time>
      </trkpt>
      <trkpt lat="39.7785540" lon="2.7043670">
        <ele>11.7</ele>
        <time>2021-06-17T16:46:31Z</time>
      </trkpt>
      <trkpt lat="39.7785850" lon="2.7041570">
        <ele>11.4</ele>
        <time>2021-06-17T16:46:34Z</time>
      </trkpt>
      <trkpt lat="39.7786010" lon="2.7040820">
        <ele>11.3</ele>
        <time>2021-06-17T16:46:35Z</time>
      </trkpt>
      <trkpt lat="39.7786480" lon="2.7039330">
        <ele>11.0</ele>
        <time>2021-06-17T16:46:37Z</time>
      </trkpt>
      <trkpt lat="39.7786830" lon="2.7038690">
        <ele>11.0</ele>
        <time>2021-06-17T16:46:38Z</time>
      </trkpt>
      <trkpt lat="39.7788050" lon="2.7036930">
        <ele>10.9</ele>
        <time>2021-06-17T16:46:41Z</time>
      </trkpt>
      <trkpt lat="39.7789950" lon="2.7034470">
        <ele>10.7</ele>
        <time>2021-06-17T16:46:45Z</time>
      </trkpt>
      <trkpt lat="39.7793270" lon="2.7029790">
        <ele>10.6</ele>
        <time>2021-06-17T16:46:52Z</time>
      </trkpt>
      <trkpt lat="39.7793660" lon="2.7029270">
        <ele>10.6</ele>
        <time>2021-06-17T16:46:53Z</time>
      </trkpt>
      <trkpt lat="39.7794250" lon="2.7028500">
        <ele>10.6</ele>
        <time>2021-06-17T16:46:54Z</time>
      </trkpt>
      <trkpt lat="39.7794720" lon="2.7027880">
        <ele>10.5</ele>
        <time>2021-06-17T16:46:55Z</time>
      </trkpt>
      <trkpt lat="39.7796140" lon="2.7025930">
        <ele>10.5</ele>
        <time>2021-06-17T16:46:58Z</time>
      </trkpt>
      <trkpt lat="39.7797580" lon="2.7023990">
        <ele>10.5</ele>
        <time>2021-06-17T16:47:01Z</time>
      </trkpt>
      <trkpt lat="39.7801470" lon="2.7018690">
        <ele>10.7</ele>
        <time>2021-06-17T16:47:10Z</time>
      </trkpt>
      <trkpt lat="39.7802290" lon="2.7017530">
        <ele>10.7</ele>
        <time>2021-06-17T16:47:12Z</time>
      </trkpt>
      <trkpt lat="39.7805140" lon="2.7013640">
        <ele>10.6</ele>
        <time>2021-06-17T16:47:19Z</time>
      </trkpt>
      <trkpt lat="39.7808720" lon="2.7010240">
        <ele>10.2</ele>
        <time>2021-06-17T16:47:26Z</time>
      </trkpt>
      <trkpt lat="39.7811570" lon="2.7008140">
        <ele>10.0</ele>
        <time>2021-06-17T16:47:31Z</time>
      </trkpt>
      <trkpt lat="39.7812840" lon="2.7007300">
        <ele>10.0</ele>
        <time>2021-06-17T16:47:33Z</time>
      </trkpt>
      <trkpt lat="39.7813420" lon="2.7006960">
        <ele>9.9</ele>
        <time>2021-06-17T16:47:34Z</time>
      </trkpt>
      <trkpt lat="39.7816540" lon="2.7004900">
        <ele>9.8</ele>
        <time>2021-06-17T16:47:40Z</time>
      </trkpt>
      <trkpt lat="39.7817680" lon="2.7004160">
        <ele>9.8</ele>
        <time>2021-06-17T16:47:42Z</time>
      </trkpt>
      <trkpt lat="39.7820110" lon="2.7002640">
        <ele>9.8</ele>
        <time>2021-06-17T16:47:47Z</time>
      </trkpt>
      <trkpt lat="39.7821520" lon="2.7001620">
        <ele>9.7</ele>
        <time>2021-06-17T16:47:50Z</time>
      </trkpt>
      <trkpt lat="39.7822080" lon="2.7001240">
        <ele>9.7</ele>
        <time>2021-06-17T16:47:51Z</time>
      </trkpt>
      <trkpt lat="39.7825730" lon="2.6999230">
        <ele>9.5</ele>
        <time>2021-06-17T16:47:58Z</time>
      </trkpt>
      <trkpt lat="39.7827760" lon="2.6998170">
        <ele>9.4</ele>
        <time>2021-06-17T16:48:02Z</time>
      </trkpt>
      <trkpt lat="39.7829130" lon="2.6997470">
        <ele>9.2</ele>
        <time>2021-06-17T16:48:05Z</time>
      </trkpt>
      <trkpt lat="39.7830680" lon="2.6996680">
        <ele>9.1</ele>
        <time>2021-06-17T16:48:09Z</time>
      </trkpt>
      <trkpt lat="39.7831840" lon="2.6996080">
        <ele>9.1</ele>
        <time>2021-06-17T16:48:12Z</time>
      </trkpt>
      <trkpt lat="39.7835530" lon="2.6994660">
        <ele>9.5</ele>
        <time>2021-06-17T16:48:20Z</time>
      </trkpt>
      <trkpt lat="39.7836900" lon="2.6994120">
        <ele>9.6</ele>
        <time>2021-06-17T16:48:23Z</time>
      </trkpt>
      <trkpt lat="39.7838220" lon="2.6993620">
        <ele>9.7</ele>
        <time>2021-06-17T16:48:26Z</time>
      </trkpt>
      <trkpt lat="39.7839580" lon="2.6993120">
        <ele>9.7</ele>
        <time>2021-06-17T16:48:29Z</time>
      </trkpt>
      <trkpt lat="39.7840460" lon="2.6992770">
        <ele>9.7</ele>
        <time>2021-06-17T16:48:31Z</time>
      </trkpt>
      <trkpt lat="39.7842930" lon="2.6991650">
        <ele>9.4</ele>
        <time>2021-06-17T16:48:36Z</time>
      </trkpt>
      <trkpt lat="39.7844530" lon="2.6990580">
        <ele>9.2</ele>
        <time>2021-06-17T16:48:39Z</time>
      </trkpt>
      <trkpt lat="39.7845610" lon="2.6989730">
        <ele>9.0</ele>
        <time>2021-06-17T16:48:41Z</time>
      </trkpt>
      <trkpt lat="39.7846550" lon="2.6988720">
        <ele>8.9</ele>
        <time>2021-06-17T16:48:43Z</time>
      </trkpt>
      <trkpt lat="39.7848300" lon="2.6986640">
        <ele>8.6</ele>
        <time>2021-06-17T16:48:47Z</time>
      </trkpt>
      <trkpt lat="39.7848640" lon="2.6986150">
        <ele>8.6</ele>
        <time>2021-06-17T16:48:51Z</time>
      </trkpt>
      <trkpt lat="39.7848980" lon="2.6985670">
        <ele>8.5</ele>
        <time>2021-06-17T16:48:54Z</time>
      </trkpt>
      <trkpt lat="39.7849320" lon="2.6985180">
        <ele>8.4</ele>
        <time>2021-06-17T16:48:55Z</time>
      </trkpt>
      <trkpt lat="39.7853390" lon="2.6979360">
        <ele>7.5</ele>
        <time>2021-06-17T16:48:59Z</time>
      </trkpt>
      <trkpt lat="39.7857260" lon="2.6974750">
        <ele>6.9</ele>
        <time>2021-06-17T16:49:06Z</time>
      </trkpt>
      <trkpt lat="39.7858430" lon="2.6973530">
        <ele>6.7</ele>
        <time>2021-06-17T16:49:08Z</time>
      </trkpt>
      <trkpt lat="39.7860100" lon="2.6971450">
        <ele>6.5</ele>
        <time>2021-06-17T16:49:11Z</time>
      </trkpt>
      <trkpt lat="39.7861780" lon="2.6969500">
        <ele>6.4</ele>
        <time>2021-06-17T16:49:14Z</time>
      </trkpt>
      <trkpt lat="39.7865880" lon="2.6964450">
        <ele>6.0</ele>
        <time>2021-06-17T16:49:22Z</time>
      </trkpt>
      <trkpt lat="39.7866890" lon="2.6963250">
        <ele>6.0</ele>
        <time>2021-06-17T16:49:24Z</time>
      </trkpt>
      <trkpt lat="39.7870620" lon="2.6960000">
        <ele>5.7</ele>
        <time>2021-06-17T16:49:31Z</time>
      </trkpt>
      <trkpt lat="39.7874570" lon="2.6958090">
        <ele>5.5</ele>
        <time>2021-06-17T16:49:37Z</time>
      </trkpt>
      <trkpt lat="39.7878010" lon="2.6956890">
        <ele>5.4</ele>
        <time>2021-06-17T16:49:43Z</time>
      </trkpt>
      <trkpt lat="39.7881830" lon="2.6955600">
        <ele>5.4</ele>
        <time>2021-06-17T16:49:50Z</time>
      </trkpt>
      <trkpt lat="39.7882910" lon="2.6955150">
        <ele>5.4</ele>
        <time>2021-06-17T16:49:52Z</time>
      </trkpt>
      <trkpt lat="39.7885070" lon="2.6954140">
        <ele>5.4</ele>
        <time>2021-06-17T16:49:56Z</time>
      </trkpt>
      <trkpt lat="39.7885660" lon="2.6953870">
        <ele>5.4</ele>
        <time>2021-06-17T16:49:57Z</time>
      </trkpt>
      <trkpt lat="39.7890040" lon="2.6951820">
        <ele>5.4</ele>
        <time>2021-06-17T16:50:05Z</time>
      </trkpt>
      <trkpt lat="39.7890610" lon="2.6951600">
        <ele>5.4</ele>
        <time>2021-06-17T16:50:06Z</time>
      </trkpt>
      <trkpt lat="39.7891730" lon="2.6951000">
        <ele>5.4</ele>
        <time>2021-06-17T16:50:08Z</time>
      </trkpt>
      <trkpt lat="39.7893930" lon="2.6950060">
        <ele>5.4</ele>
        <time>2021-06-17T16:50:12Z</time>
      </trkpt>
      <trkpt lat="39.7896180" lon="2.6949040">
        <ele>5.3</ele>
        <time>2021-06-17T16:50:17Z</time>
      </trkpt>
      <trkpt lat="39.7899080" lon="2.6947920">
        <ele>4.9</ele>
        <time>2021-06-17T16:50:23Z</time>
      </trkpt>
      <trkpt lat="39.7899610" lon="2.6947810">
        <ele>4.9</ele>
        <time>2021-06-17T16:50:24Z</time>
      </trkpt>
      <trkpt lat="39.7900550" lon="2.6947570">
        <ele>4.8</ele>
        <time>2021-06-17T16:50:26Z</time>
      </trkpt>
      <trkpt lat="39.7902530" lon="2.6947080">
        <ele>4.7</ele>
        <time>2021-06-17T16:50:30Z</time>
      </trkpt>
      <trkpt lat="39.7905890" lon="2.6946570">
        <ele>4.9</ele>
        <time>2021-06-17T16:50:37Z</time>
      </trkpt>
      <trkpt lat="39.7907150" lon="2.6946420">
        <ele>5.1</ele>
        <time>2021-06-17T16:50:40Z</time>
      </trkpt>
      <trkpt lat="39.7908270" lon="2.6946230">
        <ele>5.2</ele>
        <time>2021-06-17T16:50:43Z</time>
      </trkpt>
      <trkpt lat="39.7910030" lon="2.6946690">
        <ele>5.3</ele>
        <time>2021-06-17T16:50:48Z</time>
      </trkpt>
      <trkpt lat="39.7911150" lon="2.6946880">
        <ele>5.3</ele>
        <time>2021-06-17T16:50:52Z</time>
      </trkpt>
      <trkpt lat="39.7911560" lon="2.6946830">
        <ele>5.4</ele>
        <time>2021-06-17T16:50:57Z</time>
      </trkpt>
      <trkpt lat="39.7911560" lon="2.6946830">
        <ele>5.4</ele>
        <time>2021-06-17T16:51:03Z</time>
      </trkpt>
      <trkpt lat="39.7911560" lon="2.6946830">
        <ele>5.4</ele>
        <time>2021-06-17T16:51:04Z</time>
      </trkpt>
      <trkpt lat="39.7911560" lon="2.6946830">
        <ele>5.4</ele>
        <time>2021-06-17T16:51:23Z</time>
      </trkpt>
      <trkpt lat="39.7911560" lon="2.6946830">
        <ele>5.4</ele>
        <time>2021-06-17T16:51:25Z</time>
      </trkpt>
      <trkpt lat="39.7922320" lon="2.6903060">
        <ele>10.2</ele>
        <time>2021-06-18T07:40:53Z</time>
      </trkpt>
      <trkpt lat="39.7922320" lon="2.6903060">
        <ele>10.2</ele>
        <time>2021-06-18T07:40:54Z</time>
      </trkpt>
      <trkpt lat="39.7922320" lon="2.6903060">
        <ele>10.2</ele>
        <time>2021-06-18T07:41:02Z</time>
      </trkpt>
      <trkpt lat="39.7922300" lon="2.6902960">
        <ele>10.2</ele>
        <time>2021-06-18T07:41:03Z</time>
      </trkpt>
      <trkpt lat="39.7921980" lon="2.6902840">
        <ele>10.1</ele>
        <time>2021-06-18T07:41:09Z</time>
      </trkpt>
      <trkpt lat="39.7921900" lon="2.6902780">
        <ele>10.1</ele>
        <time>2021-06-18T07:41:11Z</time>
      </trkpt>
      <trkpt lat="39.7921800" lon="2.6903110">
        <ele>10.1</ele>
        <time>2021-06-18T07:41:21Z</time>
      </trkpt>
      <trkpt lat="39.7921920" lon="2.6903040">
        <ele>10.1</ele>
        <time>2021-06-18T07:41:29Z</time>
      </trkpt>
      <trkpt lat="39.7921890" lon="2.6902890">
        <ele>10.1</ele>
        <time>2021-06-18T07:41:56Z</time>
      </trkpt>
      <trkpt lat="39.7921800" lon="2.6902840">
        <ele>10.1</ele>
        <time>2021-06-18T07:41:57Z</time>
      </trkpt>
      <trkpt lat="39.7921590" lon="2.6902660">
        <ele>10.0</ele>
        <time>2021-06-18T07:41:59Z</time>
      </trkpt>
      <trkpt lat="39.7921150" lon="2.6902320">
        <ele>10.0</ele>
        <time>2021-06-18T07:42:01Z</time>
      </trkpt>
      <trkpt lat="39.7920740" lon="2.6902060">
        <ele>9.9</ele>
        <time>2021-06-18T07:42:03Z</time>
      </trkpt>
      <trkpt lat="39.7919550" lon="2.6901400">
        <ele>9.8</ele>
        <time>2021-06-18T07:42:09Z</time>
      </trkpt>
      <trkpt lat="39.7919150" lon="2.6901240">
        <ele>9.8</ele>
        <time>2021-06-18T07:42:11Z</time>
      </trkpt>
      <trkpt lat="39.7918650" lon="2.6901070">
        <ele>9.7</ele>
        <time>2021-06-18T07:42:14Z</time>
      </trkpt>
      <trkpt lat="39.7917950" lon="2.6900940">
        <ele>9.6</ele>
        <time>2021-06-18T07:42:19Z</time>
      </trkpt>
      <trkpt lat="39.7917810" lon="2.6900930">
        <ele>9.5</ele>
        <time>2021-06-18T07:42:20Z</time>
      </trkpt>
      <trkpt lat="39.7917170" lon="2.6901170">
        <ele>9.3</ele>
        <time>2021-06-18T07:42:24Z</time>
      </trkpt>
      <trkpt lat="39.7915890" lon="2.6901110">
        <ele>8.9</ele>
        <time>2021-06-18T07:42:29Z</time>
      </trkpt>
      <trkpt lat="39.7913680" lon="2.6901160">
        <ele>7.5</ele>
        <time>2021-06-18T07:42:35Z</time>
      </trkpt>
      <trkpt lat="39.7911510" lon="2.6901460">
        <ele>6.3</ele>
        <time>2021-06-18T07:42:41Z</time>
      </trkpt>
      <trkpt lat="39.7910280" lon="2.6901480">
        <ele>5.5</ele>
        <time>2021-06-18T07:42:45Z</time>
      </trkpt>
      <trkpt lat="39.7908080" lon="2.6902370">
        <ele>4.5</ele>
        <time>2021-06-18T07:42:51Z</time>
      </trkpt>
      <trkpt lat="39.7905220" lon="2.6904880">
        <ele>3.6</ele>
        <time>2021-06-18T07:42:58Z</time>
      </trkpt>
      <trkpt lat="39.7904640" lon="2.6905920">
        <ele>3.5</ele>
        <time>2021-06-18T07:43:00Z</time>
      </trkpt>
      <trkpt lat="39.7904350" lon="2.6907000">
        <ele>3.4</ele>
        <time>2021-06-18T07:43:02Z</time>
      </trkpt>
      <trkpt lat="39.7904150" lon="2.6907830">
        <ele>3.4</ele>
        <time>2021-06-18T07:43:04Z</time>
      </trkpt>
      <trkpt lat="39.7903950" lon="2.6908060">
        <ele>3.4</ele>
        <time>2021-06-18T07:43:05Z</time>
      </trkpt>
      <trkpt lat="39.7903710" lon="2.6908140">
        <ele>3.4</ele>
        <time>2021-06-18T07:43:06Z</time>
      </trkpt>
      <trkpt lat="39.7902930" lon="2.6908030">
        <ele>3.4</ele>
        <time>2021-06-18T07:43:09Z</time>
      </trkpt>
      <trkpt lat="39.7901360" lon="2.6907740">
        <ele>3.4</ele>
        <time>2021-06-18T07:43:13Z</time>
      </trkpt>
      <trkpt lat="39.7901360" lon="2.6907740">
        <ele>3.4</ele>
        <time>2021-06-18T07:43:14Z</time>
      </trkpt>
      <trkpt lat="39.7899340" lon="2.6907570">
        <ele>3.5</ele>
        <time>2021-06-18T07:43:19Z</time>
      </trkpt>
      <trkpt lat="39.7898990" lon="2.6908660">
        <ele>3.3</ele>
        <time>2021-06-18T07:43:23Z</time>
      </trkpt>
      <trkpt lat="39.7898930" lon="2.6910130">
        <ele>3.3</ele>
        <time>2021-06-18T07:43:28Z</time>
      </trkpt>
      <trkpt lat="39.7898420" lon="2.6911960">
        <ele>3.3</ele>
        <time>2021-06-18T07:43:32Z</time>
      </trkpt>
      <trkpt lat="39.7898580" lon="2.6914230">
        <ele>3.4</ele>
        <time>2021-06-18T07:43:38Z</time>
      </trkpt>
      <trkpt lat="39.7898410" lon="2.6916140">
        <ele>3.6</ele>
        <time>2021-06-18T07:43:42Z</time>
      </trkpt>
      <trkpt lat="39.7897730" lon="2.6916350">
        <ele>3.6</ele>
        <time>2021-06-18T07:43:44Z</time>
      </trkpt>
      <trkpt lat="39.7897460" lon="2.6916340">
        <ele>3.7</ele>
        <time>2021-06-18T07:43:45Z</time>
      </trkpt>
      <trkpt lat="39.7896590" lon="2.6916470">
        <ele>3.7</ele>
        <time>2021-06-18T07:43:48Z</time>
      </trkpt>
      <trkpt lat="39.7896170" lon="2.6916730">
        <ele>3.8</ele>
        <time>2021-06-18T07:43:50Z</time>
      </trkpt>
      <trkpt lat="39.7896090" lon="2.6916910">
        <ele>3.8</ele>
        <time>2021-06-18T07:43:51Z</time>
      </trkpt>
      <trkpt lat="39.7896150" lon="2.6917470">
        <ele>3.8</ele>
        <time>2021-06-18T07:43:53Z</time>
      </trkpt>
      <trkpt lat="39.7896270" lon="2.6917730">
        <ele>3.8</ele>
        <time>2021-06-18T07:43:54Z</time>
      </trkpt>
      <trkpt lat="39.7896950" lon="2.6920280">
        <ele>3.8</ele>
        <time>2021-06-18T07:44:02Z</time>
      </trkpt>
      <trkpt lat="39.7897070" lon="2.6921450">
        <ele>3.8</ele>
        <time>2021-06-18T07:44:06Z</time>
      </trkpt>
      <trkpt lat="39.7897150" lon="2.6921740">
        <ele>3.8</ele>
        <time>2021-06-18T07:44:07Z</time>
      </trkpt>
      <trkpt lat="39.7897780" lon="2.6924220">
        <ele>4.0</ele>
        <time>2021-06-18T07:44:14Z</time>
      </trkpt>
      <trkpt lat="39.7898390" lon="2.6926380">
        <ele>4.1</ele>
        <time>2021-06-18T07:44:19Z</time>
      </trkpt>
      <trkpt lat="39.7898680" lon="2.6927720">
        <ele>4.3</ele>
        <time>2021-06-18T07:44:22Z</time>
      </trkpt>
      <trkpt lat="39.7898980" lon="2.6929710">
        <ele>4.3</ele>
        <time>2021-06-18T07:44:27Z</time>
      </trkpt>
      <trkpt lat="39.7899070" lon="2.6930120">
        <ele>4.3</ele>
        <time>2021-06-18T07:44:28Z</time>
      </trkpt>
      <trkpt lat="39.7899510" lon="2.6931900">
        <ele>4.2</ele>
        <time>2021-06-18T07:44:32Z</time>
      </trkpt>
      <trkpt lat="39.7899870" lon="2.6933640">
        <ele>4.1</ele>
        <time>2021-06-18T07:44:36Z</time>
      </trkpt>
      <trkpt lat="39.7900330" lon="2.6935300">
        <ele>4.1</ele>
        <time>2021-06-18T07:44:42Z</time>
      </trkpt>
      <trkpt lat="39.7900590" lon="2.6935660">
        <ele>4.0</ele>
        <time>2021-06-18T07:44:44Z</time>
      </trkpt>
      <trkpt lat="39.7901020" lon="2.6935610">
        <ele>4.0</ele>
        <time>2021-06-18T07:44:46Z</time>
      </trkpt>
      <trkpt lat="39.7901660" lon="2.6935490">
        <ele>3.9</ele>
        <time>2021-06-18T07:44:50Z</time>
      </trkpt>
      <trkpt lat="39.7901890" lon="2.6935220">
        <ele>3.9</ele>
        <time>2021-06-18T07:44:52Z</time>
      </trkpt>
      <trkpt lat="39.7901930" lon="2.6935150">
        <ele>3.9</ele>
        <time>2021-06-18T07:44:58Z</time>
      </trkpt>
      <trkpt lat="39.7901980" lon="2.6935220">
        <ele>3.9</ele>
        <time>2021-06-18T07:45:05Z</time>
      </trkpt>
      <trkpt lat="39.7901980" lon="2.6935220">
        <ele>3.9</ele>
        <time>2021-06-18T07:45:08Z</time>
      </trkpt>
      <trkpt lat="39.7901980" lon="2.6935220">
        <ele>3.9</ele>
        <time>2021-06-18T07:45:13Z</time>
      </trkpt>
      <trkpt lat="39.7901980" lon="2.6935220">
        <ele>3.9</ele>
        <time>2021-06-18T07:45:15Z</time>
      </trkpt>
      <trkpt lat="39.7901980" lon="2.6935220">
        <ele>3.9</ele>
        <time>2021-06-18T07:46:04Z</time>
      </trkpt>
      <trkpt lat="39.7901900" lon="2.6935130">
        <ele>3.9</ele>
        <time>2021-06-18T07:46:41Z</time>
      </trkpt>
      <trkpt lat="39.7901900" lon="2.6935120">
        <ele>3.9</ele>
        <time>2021-06-18T07:46:47Z</time>
      </trkpt>
      <trkpt lat="39.7901900" lon="2.6935120">
        <ele>3.9</ele>
        <time>2021-06-18T07:47:11Z</time>
      </trkpt>
      <trkpt lat="39.7901900" lon="2.6935120">
        <ele>3.9</ele>
        <time>2021-06-18T07:47:15Z</time>
      </trkpt>
      <trkpt lat="39.7901890" lon="2.6935110">
        <ele>3.9</ele>
        <time>2021-06-18T07:47:18Z</time>
      </trkpt>
      <trkpt lat="39.7901860" lon="2.6935070">
        <ele>3.9</ele>
        <time>2021-06-18T07:47:27Z</time>
      </trkpt>
      <trkpt lat="39.7901860" lon="2.6935060">
        <ele>3.9</ele>
        <time>2021-06-18T07:47:32Z</time>
      </trkpt>
      <trkpt lat="39.7902330" lon="2.6934840">
        <ele>3.9</ele>
        <time>2021-06-18T07:47:36Z</time>
      </trkpt>
      <trkpt lat="39.7903140" lon="2.6934570">
        <ele>3.8</ele>
        <time>2021-06-18T07:47:39Z</time>
      </trkpt>
      <trkpt lat="39.7903650" lon="2.6934220">
        <ele>3.8</ele>
        <time>2021-06-18T07:47:41Z</time>
      </trkpt>
      <trkpt lat="39.7905290" lon="2.6933480">
        <ele>3.9</ele>
        <time>2021-06-18T07:47:47Z</time>
      </trkpt>
      <trkpt lat="39.7905790" lon="2.6933290">
        <ele>3.9</ele>
        <time>2021-06-18T07:47:49Z</time>
      </trkpt>
      <trkpt lat="39.7906130" lon="2.6933310">
        <ele>3.9</ele>
        <time>2021-06-18T07:47:50Z</time>
      </trkpt>
      <trkpt lat="39.7906360" lon="2.6933630">
        <ele>4.0</ele>
        <time>2021-06-18T07:47:52Z</time>
      </trkpt>
      <trkpt lat="39.7906770" lon="2.6934490">
        <ele>4.1</ele>
        <time>2021-06-18T07:47:55Z</time>
      </trkpt>
      <trkpt lat="39.7907320" lon="2.6934890">
        <ele>4.2</ele>
        <time>2021-06-18T07:47:57Z</time>
      </trkpt>
      <trkpt lat="39.7908540" lon="2.6935540">
        <ele>4.4</ele>
        <time>2021-06-18T07:48:01Z</time>
      </trkpt>
      <trkpt lat="39.7908550" lon="2.6936020">
        <ele>4.5</ele>
        <time>2021-06-18T07:48:03Z</time>
      </trkpt>
      <trkpt lat="39.7907790" lon="2.6936680">
        <ele>4.6</ele>
        <time>2021-06-18T07:48:08Z</time>
      </trkpt>
      <trkpt lat="39.7907840" lon="2.6937400">
        <ele>4.7</ele>
        <time>2021-06-18T07:48:12Z</time>
      </trkpt>
      <trkpt lat="39.7907940" lon="2.6937810">
        <ele>4.7</ele>
        <time>2021-06-18T07:48:14Z</time>
      </trkpt>
      <trkpt lat="39.7908510" lon="2.6939370">
        <ele>4.8</ele>
        <time>2021-06-18T07:48:20Z</time>
      </trkpt>
      <trkpt lat="39.7908710" lon="2.6941540">
        <ele>4.9</ele>
        <time>2021-06-18T07:48:25Z</time>
      </trkpt>
      <trkpt lat="39.7909140" lon="2.6943380">
        <ele>5.0</ele>
        <time>2021-06-18T07:48:31Z</time>
      </trkpt>
      <trkpt lat="39.7909230" lon="2.6944090">
        <ele>5.1</ele>
        <time>2021-06-18T07:48:33Z</time>
      </trkpt>
      <trkpt lat="39.7910150" lon="2.6946640">
        <ele>5.3</ele>
        <time>2021-06-18T07:48:41Z</time>
      </trkpt>
      <trkpt lat="39.7910810" lon="2.6947660">
        <ele>5.3</ele>
        <time>2021-06-18T07:48:45Z</time>
      </trkpt>
      <trkpt lat="39.7910960" lon="2.6947810">
        <ele>5.3</ele>
        <time>2021-06-18T07:48:46Z</time>
      </trkpt>
      <trkpt lat="39.7912780" lon="2.6949430">
        <ele>5.7</ele>
        <time>2021-06-18T07:48:53Z</time>
      </trkpt>
      <trkpt lat="39.7915270" lon="2.6951610">
        <ele>6.1</ele>
        <time>2021-06-18T07:49:02Z</time>
      </trkpt>
      <trkpt lat="39.7916790" lon="2.6952860">
        <ele>6.1</ele>
        <time>2021-06-18T07:49:09Z</time>
      </trkpt>
      <trkpt lat="39.7917290" lon="2.6953260">
        <ele>6.0</ele>
        <time>2021-06-18T07:49:11Z</time>
      </trkpt>
      <trkpt lat="39.7918360" lon="2.6954240">
        <ele>5.8</ele>
        <time>2021-06-18T07:49:15Z</time>
      </trkpt>
      <trkpt lat="39.7919160" lon="2.6955120">
        <ele>5.7</ele>
        <time>2021-06-18T07:49:18Z</time>
      </trkpt>
      <trkpt lat="39.7919840" lon="2.6955780">
        <ele>5.6</ele>
        <time>2021-06-18T07:49:20Z</time>
      </trkpt>
      <trkpt lat="39.7922670" lon="2.6958140">
        <ele>5.3</ele>
        <time>2021-06-18T07:49:29Z</time>
      </trkpt>
      <trkpt lat="39.7923010" lon="2.6958380">
        <ele>5.3</ele>
        <time>2021-06-18T07:49:30Z</time>
      </trkpt>
      <trkpt lat="39.7925260" lon="2.6960110">
        <ele>5.1</ele>
        <time>2021-06-18T07:49:37Z</time>
      </trkpt>
      <trkpt lat="39.7926780" lon="2.6961380">
        <ele>4.9</ele>
        <time>2021-06-18T07:49:42Z</time>
      </trkpt>
      <trkpt lat="39.7927730" lon="2.6962140">
        <ele>4.8</ele>
        <time>2021-06-18T07:49:45Z</time>
      </trkpt>
      <trkpt lat="39.7929110" lon="2.6963000">
        <ele>4.7</ele>
        <time>2021-06-18T07:49:50Z</time>
      </trkpt>
      <trkpt lat="39.7930190" lon="2.6963430">
        <ele>4.7</ele>
        <time>2021-06-18T07:49:53Z</time>
      </trkpt>
      <trkpt lat="39.7930520" lon="2.6963620">
        <ele>4.6</ele>
        <time>2021-06-18T07:49:54Z</time>
      </trkpt>
      <trkpt lat="39.7932320" lon="2.6964750">
        <ele>4.5</ele>
        <time>2021-06-18T07:50:00Z</time>
      </trkpt>
      <trkpt lat="39.7934730" lon="2.6966250">
        <ele>4.5</ele>
        <time>2021-06-18T07:50:08Z</time>
      </trkpt>
      <trkpt lat="39.7936680" lon="2.6966890">
        <ele>4.5</ele>
        <time>2021-06-18T07:50:13Z</time>
      </trkpt>
      <trkpt lat="39.7938120" lon="2.6967520">
        <ele>4.4</ele>
        <time>2021-06-18T07:50:18Z</time>
      </trkpt>
      <trkpt lat="39.7941150" lon="2.6968290">
        <ele>4.4</ele>
        <time>2021-06-18T07:50:28Z</time>
      </trkpt>
      <trkpt lat="39.7941400" lon="2.6968360">
        <ele>4.4</ele>
        <time>2021-06-18T07:50:29Z</time>
      </trkpt>
      <trkpt lat="39.7942190" lon="2.6968470">
        <ele>4.4</ele>
        <time>2021-06-18T07:50:32Z</time>
      </trkpt>
      <trkpt lat="39.7944840" lon="2.6968660">
        <ele>4.4</ele>
        <time>2021-06-18T07:50:40Z</time>
      </trkpt>
      <trkpt lat="39.7948990" lon="2.6968850">
        <ele>4.5</ele>
        <time>2021-06-18T07:50:51Z</time>
      </trkpt>
      <trkpt lat="39.7950320" lon="2.6968930">
        <ele>4.5</ele>
        <time>2021-06-18T07:50:54Z</time>
      </trkpt>
      <trkpt lat="39.7952230" lon="2.6968950">
        <ele>4.6</ele>
        <time>2021-06-18T07:51:00Z</time>
      </trkpt>
      <trkpt lat="39.7953180" lon="2.6968930">
        <ele>4.6</ele>
        <time>2021-06-18T07:51:02Z</time>
      </trkpt>
      <trkpt lat="39.7956050" lon="2.6968730">
        <ele>4.6</ele>
        <time>2021-06-18T07:51:11Z</time>
      </trkpt>
      <trkpt lat="39.7958430" lon="2.6968370">
        <ele>4.6</ele>
        <time>2021-06-18T07:51:19Z</time>
      </trkpt>
      <trkpt lat="39.7960370" lon="2.6967610">
        <ele>4.5</ele>
        <time>2021-06-18T07:51:26Z</time>
      </trkpt>
      <trkpt lat="39.7960670" lon="2.6967570">
        <ele>4.5</ele>
        <time>2021-06-18T07:51:27Z</time>
      </trkpt>
      <trkpt lat="39.7962310" lon="2.6966960">
        <ele>4.5</ele>
        <time>2021-06-18T07:51:34Z</time>
      </trkpt>
      <trkpt lat="39.7962960" lon="2.6967040">
        <ele>4.5</ele>
        <time>2021-06-18T07:51:38Z</time>
      </trkpt>
      <trkpt lat="39.7963100" lon="2.6967150">
        <ele>4.5</ele>
        <time>2021-06-18T07:51:39Z</time>
      </trkpt>
      <trkpt lat="39.7963540" lon="2.6968130">
        <ele>4.5</ele>
        <time>2021-06-18T07:51:43Z</time>
      </trkpt>
      <trkpt lat="39.7963670" lon="2.6968400">
        <ele>4.5</ele>
        <time>2021-06-18T07:51:44Z</time>
      </trkpt>
      <trkpt lat="39.7963820" lon="2.6968830">
        <ele>4.5</ele>
        <time>2021-06-18T07:51:47Z</time>
      </trkpt>
      <trkpt lat="39.7964450" lon="2.6970670">
        <ele>4.6</ele>
        <time>2021-06-18T07:51:53Z</time>
      </trkpt>
      <trkpt lat="39.7964550" lon="2.6971570">
        <ele>4.7</ele>
        <time>2021-06-18T07:51:56Z</time>
      </trkpt>
      <trkpt lat="39.7965090" lon="2.6972630">
        <ele>4.9</ele>
        <time>2021-06-18T07:51:59Z</time>
      </trkpt>
      <trkpt lat="39.7965310" lon="2.6972970">
        <ele>5.0</ele>
        <time>2021-06-18T07:52:00Z</time>
      </trkpt>
      <trkpt lat="39.7965810" lon="2.6973700">
        <ele>5.2</ele>
        <time>2021-06-18T07:52:03Z</time>
      </trkpt>
      <trkpt lat="39.7965830" lon="2.6973760">
        <ele>5.2</ele>
        <time>2021-06-18T07:52:07Z</time>
      </trkpt>
      <trkpt lat="39.7966120" lon="2.6973820">
        <ele>5.2</ele>
        <time>2021-06-18T07:52:16Z</time>
      </trkpt>
      <trkpt lat="39.7966120" lon="2.6973820">
        <ele>5.2</ele>
        <time>2021-06-18T07:52:22Z</time>
      </trkpt>
      <trkpt lat="39.7966120" lon="2.6973820">
        <ele>5.2</ele>
        <time>2021-06-18T07:52:26Z</time>
      </trkpt>
      <trkpt lat="39.7966120" lon="2.6973820">
        <ele>5.2</ele>
        <time>2021-06-18T07:52:33Z</time>
      </trkpt>
      <trkpt lat="39.7966120" lon="2.6973820">
        <ele>5.2</ele>
        <time>2021-06-18T07:52:36Z</time>
      </trkpt>
      <trkpt lat="39.7966120" lon="2.6973820">
        <ele>5.2</ele>
        <time>2021-06-18T07:52:40Z</time>
      </trkpt>
      <trkpt lat="39.7966120" lon="2.6973820">
        <ele>5.2</ele>
        <time>2021-06-18T07:52:44Z</time>
      </trkpt>
      <trkpt lat="39.7966120" lon="2.6973820">
        <ele>5.2</ele>
        <time>2021-06-18T07:52:47Z</time>
      </trkpt>
      <trkpt lat="39.7966120" lon="2.6973820">
        <ele>5.2</ele>
        <time>2021-06-18T07:53:03Z</time>
      </trkpt>
      <trkpt lat="39.7966250" lon="2.6973890">
        <ele>5.3</ele>
        <time>2021-06-18T07:53:25Z</time>
      </trkpt>
      <trkpt lat="39.7966250" lon="2.6973890">
        <ele>5.3</ele>
        <time>2021-06-18T07:53:49Z</time>
      </trkpt>
      <trkpt lat="39.7966250" lon="2.6973890">
        <ele>5.3</ele>
        <time>2021-06-18T07:53:52Z</time>
      </trkpt>
      <trkpt lat="39.7966250" lon="2.6973890">
        <ele>5.3</ele>
        <time>2021-06-18T07:54:01Z</time>
      </trkpt>
      <trkpt lat="39.7966250" lon="2.6973890">
        <ele>5.3</ele>
        <time>2021-06-18T07:54:08Z</time>
      </trkpt>
      <trkpt lat="39.7966250" lon="2.6973890">
        <ele>5.3</ele>
        <time>2021-06-18T07:54:12Z</time>
      </trkpt>
      <trkpt lat="39.7966250" lon="2.6973890">
        <ele>5.3</ele>
        <time>2021-06-18T07:54:14Z</time>
      </trkpt>
      <trkpt lat="39.7966250" lon="2.6973890">
        <ele>5.3</ele>
        <time>2021-06-18T07:54:24Z</time>
      </trkpt>
      <trkpt lat="39.7966250" lon="2.6973890">
        <ele>5.3</ele>
        <time>2021-06-18T07:54:25Z</time>
      </trkpt>
      <trkpt lat="39.7966260" lon="2.6973910">
        <ele>5.3</ele>
        <time>2021-06-18T07:54:27Z</time>
      </trkpt>
      <trkpt lat="39.7966390" lon="2.6974250">
        <ele>5.3</ele>
        <time>2021-06-18T07:54:30Z</time>
      </trkpt>
      <trkpt lat="39.7966900" lon="2.6975420">
        <ele>5.5</ele>
        <time>2021-06-18T07:54:36Z</time>
      </trkpt>
      <trkpt lat="39.7967040" lon="2.6975910">
        <ele>5.5</ele>
        <time>2021-06-18T07:54:38Z</time>
      </trkpt>
      <trkpt lat="39.7967460" lon="2.6977390">
        <ele>5.6</ele>
        <time>2021-06-18T07:54:43Z</time>
      </trkpt>
      <trkpt lat="39.7968310" lon="2.6979070">
        <ele>5.7</ele>
        <time>2021-06-18T07:54:48Z</time>
      </trkpt>
      <trkpt lat="39.7969760" lon="2.6981160">
        <ele>5.8</ele>
        <time>2021-06-18T07:54:55Z</time>
      </trkpt>
      <trkpt lat="39.7970170" lon="2.6982390">
        <ele>5.9</ele>
        <time>2021-06-18T07:54:59Z</time>
      </trkpt>
      <trkpt lat="39.7970370" lon="2.6982610">
        <ele>5.9</ele>
        <time>2021-06-18T07:55:01Z</time>
      </trkpt>
      <trkpt lat="39.7970800" lon="2.6983310">
        <ele>6.0</ele>
        <time>2021-06-18T07:55:03Z</time>
      </trkpt>
      <trkpt lat="39.7971090" lon="2.6983750">
        <ele>6.0</ele>
        <time>2021-06-18T07:55:05Z</time>
      </trkpt>
      <trkpt lat="39.7971270" lon="2.6983980">
        <ele>6.0</ele>
        <time>2021-06-18T07:55:06Z</time>
      </trkpt>
      <trkpt lat="39.7973150" lon="2.6986770">
        <ele>6.3</ele>
        <time>2021-06-18T07:55:14Z</time>
      </trkpt>
      <trkpt lat="39.7973610" lon="2.6988000">
        <ele>6.5</ele>
        <time>2021-06-18T07:55:18Z</time>
      </trkpt>
      <trkpt lat="39.7973660" lon="2.6989210">
        <ele>6.6</ele>
        <time>2021-06-18T07:55:20Z</time>
      </trkpt>
      <trkpt lat="39.7973340" lon="2.6991140">
        <ele>6.8</ele>
        <time>2021-06-18T07:55:25Z</time>
      </trkpt>
      <trkpt lat="39.7973380" lon="2.6991560">
        <ele>6.8</ele>
        <time>2021-06-18T07:55:26Z</time>
      </trkpt>
      <trkpt lat="39.7974320" lon="2.6993270">
        <ele>7.1</ele>
        <time>2021-06-18T07:55:31Z</time>
      </trkpt>
      <trkpt lat="39.7974900" lon="2.6993620">
        <ele>7.2</ele>
        <time>2021-06-18T07:55:34Z</time>
      </trkpt>
      <trkpt lat="39.7975880" lon="2.6993880">
        <ele>7.6</ele>
        <time>2021-06-18T07:55:37Z</time>
      </trkpt>
      <trkpt lat="39.7976430" lon="2.6994290">
        <ele>7.8</ele>
        <time>2021-06-18T07:55:38Z</time>
      </trkpt>
      <trkpt lat="39.7976910" lon="2.6994910">
        <ele>8.0</ele>
        <time>2021-06-18T07:55:41Z</time>
      </trkpt>
      <trkpt lat="39.7978060" lon="2.6997630">
        <ele>8.8</ele>
        <time>2021-06-18T07:55:47Z</time>
      </trkpt>
      <trkpt lat="39.7978840" lon="2.6999480">
        <ele>9.2</ele>
        <time>2021-06-18T07:55:52Z</time>
      </trkpt>
      <trkpt lat="39.7979160" lon="2.7000290">
        <ele>9.4</ele>
        <time>2021-06-18T07:55:54Z</time>
      </trkpt>
      <trkpt lat="39.7979960" lon="2.7002060">
        <ele>9.9</ele>
        <time>2021-06-18T07:55:59Z</time>
      </trkpt>
      <trkpt lat="39.7980330" lon="2.7002760">
        <ele>10.1</ele>
        <time>2021-06-18T07:56:01Z</time>
      </trkpt>
      <trkpt lat="39.7982610" lon="2.7005700">
        <ele>10.4</ele>
        <time>2021-06-18T07:56:10Z</time>
      </trkpt>
      <trkpt lat="39.7982930" lon="2.7006460">
        <ele>10.5</ele>
        <time>2021-06-18T07:56:12Z</time>
      </trkpt>
      <trkpt lat="39.7983060" lon="2.7007310">
        <ele>10.6</ele>
        <time>2021-06-18T07:56:15Z</time>
      </trkpt>
      <trkpt lat="39.7982730" lon="2.7009980">
        <ele>11.0</ele>
        <time>2021-06-18T07:56:21Z</time>
      </trkpt>
      <trkpt lat="39.7981680" lon="2.7011600">
        <ele>11.3</ele>
        <time>2021-06-18T07:56:26Z</time>
      </trkpt>
      <trkpt lat="39.7981550" lon="2.7011690">
        <ele>11.3</ele>
        <time>2021-06-18T07:56:30Z</time>
      </trkpt>
      <trkpt lat="39.7981550" lon="2.7011690">
        <ele>11.3</ele>
        <time>2021-06-18T07:56:34Z</time>
      </trkpt>
      <trkpt lat="39.7981720" lon="2.7011770">
        <ele>11.3</ele>
        <time>2021-06-18T07:56:42Z</time>
      </trkpt>
      <trkpt lat="39.7983230" lon="2.7011500">
        <ele>11.4</ele>
        <time>2021-06-18T07:56:48Z</time>
      </trkpt>
      <trkpt lat="39.7984730" lon="2.7011380">
        <ele>11.6</ele>
        <time>2021-06-18T07:56:52Z</time>
      </trkpt>
      <trkpt lat="39.7986750" lon="2.7011140">
        <ele>12.5</ele>
        <time>2021-06-18T07:56:58Z</time>
      </trkpt>
      <trkpt lat="39.7987780" lon="2.7010080">
        <ele>13.2</ele>
        <time>2021-06-18T07:57:02Z</time>
      </trkpt>
      <trkpt lat="39.7988080" lon="2.7007990">
        <ele>13.3</ele>
        <time>2021-06-18T07:57:07Z</time>
      </trkpt>
      <trkpt lat="39.7987800" lon="2.7007080">
        <ele>13.2</ele>
        <time>2021-06-18T07:57:09Z</time>
      </trkpt>
      <trkpt lat="39.7987010" lon="2.7006390">
        <ele>13.0</ele>
        <time>2021-06-18T07:57:11Z</time>
      </trkpt>
      <trkpt lat="39.7985340" lon="2.7005950">
        <ele>12.6</ele>
        <time>2021-06-18T07:57:14Z</time>
      </trkpt>
      <trkpt lat="39.7984210" lon="2.7005650">
        <ele>12.1</ele>
        <time>2021-06-18T07:57:16Z</time>
      </trkpt>
      <trkpt lat="39.7983010" lon="2.7004980">
        <ele>11.3</ele>
        <time>2021-06-18T07:57:18Z</time>
      </trkpt>
      <trkpt lat="39.7981920" lon="2.7004060">
        <ele>10.6</ele>
        <time>2021-06-18T07:57:20Z</time>
      </trkpt>
      <trkpt lat="39.7981530" lon="2.7003630">
        <ele>10.4</ele>
        <time>2021-06-18T07:57:22Z</time>
      </trkpt>
      <trkpt lat="39.7981030" lon="2.7002980">
        <ele>10.3</ele>
        <time>2021-06-18T07:57:23Z</time>
      </trkpt>
      <trkpt lat="39.7980020" lon="2.7001680">
        <ele>9.8</ele>
        <time>2021-06-18T07:57:25Z</time>
      </trkpt>
      <trkpt lat="39.7979890" lon="2.7001360">
        <ele>9.7</ele>
        <time>2021-06-18T07:57:27Z</time>
      </trkpt>
      <trkpt lat="39.7979390" lon="2.6999760">
        <ele>9.4</ele>
        <time>2021-06-18T07:57:29Z</time>
      </trkpt>
      <trkpt lat="39.7978780" lon="2.6998040">
        <ele>9.0</ele>
        <time>2021-06-18T07:57:32Z</time>
      </trkpt>
      <trkpt lat="39.7977340" lon="2.6994100">
        <ele>8.0</ele>
        <time>2021-06-18T07:57:38Z</time>
      </trkpt>
      <trkpt lat="39.7977060" lon="2.6993350">
        <ele>7.9</ele>
        <time>2021-06-18T07:57:39Z</time>
      </trkpt>
      <trkpt lat="39.7976790" lon="2.6991620">
        <ele>7.7</ele>
        <time>2021-06-18T07:57:41Z</time>
      </trkpt>
      <trkpt lat="39.7976800" lon="2.6990930">
        <ele>7.6</ele>
        <time>2021-06-18T07:57:42Z</time>
      </trkpt>
      <trkpt lat="39.7976700" lon="2.6989960">
        <ele>7.4</ele>
        <time>2021-06-18T07:57:43Z</time>
      </trkpt>
      <trkpt lat="39.7976220" lon="2.6988530">
        <ele>7.2</ele>
        <time>2021-06-18T07:57:45Z</time>
      </trkpt>
      <trkpt lat="39.7974780" lon="2.6986260">
        <ele>6.9</ele>
        <time>2021-06-18T07:57:49Z</time>
      </trkpt>
      <trkpt lat="39.7973870" lon="2.6985090">
        <ele>6.7</ele>
        <time>2021-06-18T07:57:51Z</time>
      </trkpt>
      <trkpt lat="39.7972090" lon="2.6982660">
        <ele>6.5</ele>
        <time>2021-06-18T07:57:56Z</time>
      </trkpt>
      <trkpt lat="39.7971690" lon="2.6982050">
        <ele>6.5</ele>
        <time>2021-06-18T07:57:57Z</time>
      </trkpt>
      <trkpt lat="39.7970140" lon="2.6978920">
        <ele>6.2</ele>
        <time>2021-06-18T07:58:03Z</time>
      </trkpt>
      <trkpt lat="39.7968270" lon="2.6975240">
        <ele>6.0</ele>
        <time>2021-06-18T07:58:10Z</time>
      </trkpt>
      <trkpt lat="39.7967950" lon="2.6974820">
        <ele>6.0</ele>
        <time>2021-06-18T07:58:11Z</time>
      </trkpt>
      <trkpt lat="39.7967140" lon="2.6974630">
        <ele>5.7</ele>
        <time>2021-06-18T07:58:14Z</time>
      </trkpt>
      <trkpt lat="39.7966440" lon="2.6975080">
        <ele>5.5</ele>
        <time>2021-06-18T07:58:17Z</time>
      </trkpt>
      <trkpt lat="39.7966220" lon="2.6975330">
        <ele>5.5</ele>
        <time>2021-06-18T07:58:19Z</time>
      </trkpt>
      <trkpt lat="39.7964080" lon="2.6977620">
        <ele>5.4</ele>
        <time>2021-06-18T07:58:26Z</time>
      </trkpt>
      <trkpt lat="39.7963730" lon="2.6977650">
        <ele>5.4</ele>
        <time>2021-06-18T07:58:27Z</time>
      </trkpt>
      <trkpt lat="39.7961900" lon="2.6977330">
        <ele>5.4</ele>
        <time>2021-06-18T07:58:32Z</time>
      </trkpt>
      <trkpt lat="39.7960820" lon="2.6977180">
        <ele>5.5</ele>
        <time>2021-06-18T07:58:35Z</time>
      </trkpt>
      <trkpt lat="39.7959320" lon="2.6976860">
        <ele>5.6</ele>
        <time>2021-06-18T07:58:40Z</time>
      </trkpt>
      <trkpt lat="39.7958480" lon="2.6976650">
        <ele>5.6</ele>
        <time>2021-06-18T07:58:42Z</time>
      </trkpt>
      <trkpt lat="39.7957090" lon="2.6976380">
        <ele>5.8</ele>
        <time>2021-06-18T07:58:48Z</time>
      </trkpt>
      <trkpt lat="39.7957030" lon="2.6976470">
        <ele>5.9</ele>
        <time>2021-06-18T07:58:49Z</time>
      </trkpt>
      <trkpt lat="39.7957220" lon="2.6976820">
        <ele>5.9</ele>
        <time>2021-06-18T07:58:51Z</time>
      </trkpt>
      <trkpt lat="39.7957230" lon="2.6977000">
        <ele>5.9</ele>
        <time>2021-06-18T07:58:54Z</time>
      </trkpt>
      <trkpt lat="39.7957280" lon="2.6976870">
        <ele>5.9</ele>
        <time>2021-06-18T07:58:55Z</time>
      </trkpt>
      <trkpt lat="39.7957470" lon="2.6976320">
        <ele>6.0</ele>
        <time>2021-06-18T07:58:58Z</time>
      </trkpt>
      <trkpt lat="39.7957400" lon="2.6975860">
        <ele>6.1</ele>
        <time>2021-06-18T07:59:00Z</time>
      </trkpt>
      <trkpt lat="39.7956850" lon="2.6975530">
        <ele>6.0</ele>
        <time>2021-06-18T07:59:01Z</time>
      </trkpt>
      <trkpt lat="39.7956460" lon="2.6973580">
        <ele>5.7</ele>
        <time>2021-06-18T07:59:05Z</time>
      </trkpt>
      <trkpt lat="39.7956380" lon="2.6972470">
        <ele>5.4</ele>
        <time>2021-06-18T07:59:07Z</time>
      </trkpt>
      <trkpt lat="39.7956300" lon="2.6971100">
        <ele>5.1</ele>
        <time>2021-06-18T07:59:09Z</time>
      </trkpt>
      <trkpt lat="39.7956240" lon="2.6969960">
        <ele>4.8</ele>
        <time>2021-06-18T07:59:11Z</time>
      </trkpt>
      <trkpt lat="39.7956090" lon="2.6969460">
        <ele>4.6</ele>
        <time>2021-06-18T07:59:12Z</time>
      </trkpt>
      <trkpt lat="39.7955560" lon="2.6969000">
        <ele>4.6</ele>
        <time>2021-06-18T07:59:14Z</time>
      </trkpt>
      <trkpt lat="39.7953660" lon="2.6968960">
        <ele>4.6</ele>
        <time>2021-06-18T07:59:19Z</time>
      </trkpt>
      <trkpt lat="39.7950540" lon="2.6969040">
        <ele>4.5</ele>
        <time>2021-06-18T07:59:27Z</time>
      </trkpt>
      <trkpt lat="39.7947420" lon="2.6968780">
        <ele>4.5</ele>
        <time>2021-06-18T07:59:35Z</time>
      </trkpt>
      <trkpt lat="39.7944410" lon="2.6968710">
        <ele>4.4</ele>
        <time>2021-06-18T07:59:43Z</time>
      </trkpt>
      <trkpt lat="39.7943170" lon="2.6968700">
        <ele>4.4</ele>
        <time>2021-06-18T07:59:45Z</time>
      </trkpt>
      <trkpt lat="39.7942670" lon="2.6968700">
        <ele>4.4</ele>
        <time>2021-06-18T07:59:46Z</time>
      </trkpt>
      <trkpt lat="39.7941810" lon="2.6968580">
        <ele>4.4</ele>
        <time>2021-06-18T07:59:48Z</time>
      </trkpt>
      <trkpt lat="39.7941810" lon="2.6968580">
        <ele>4.4</ele>
        <time>2021-06-18T07:59:49Z</time>
      </trkpt>
      <trkpt lat="39.7940650" lon="2.6968380">
        <ele>4.4</ele>
        <time>2021-06-18T07:59:51Z</time>
      </trkpt>
      <trkpt lat="39.7939850" lon="2.6968270">
        <ele>4.4</ele>
        <time>2021-06-18T07:59:53Z</time>
      </trkpt>
      <trkpt lat="39.7939440" lon="2.6968190">
        <ele>4.4</ele>
        <time>2021-06-18T07:59:54Z</time>
      </trkpt>
      <trkpt lat="39.7936350" lon="2.6967200">
        <ele>4.5</ele>
        <time>2021-06-18T08:00:01Z</time>
      </trkpt>
      <trkpt lat="39.7935700" lon="2.6966890">
        <ele>4.5</ele>
        <time>2021-06-18T08:00:03Z</time>
      </trkpt>
      <trkpt lat="39.7935010" lon="2.6966560">
        <ele>4.5</ele>
        <time>2021-06-18T08:00:05Z</time>
      </trkpt>
      <trkpt lat="39.7932400" lon="2.6965310">
        <ele>4.5</ele>
        <time>2021-06-18T08:00:11Z</time>
      </trkpt>
      <trkpt lat="39.7930630" lon="2.6964160">
        <ele>4.6</ele>
        <time>2021-06-18T08:00:16Z</time>
      </trkpt>
      <trkpt lat="39.7929610" lon="2.6963490">
        <ele>4.7</ele>
        <time>2021-06-18T08:00:19Z</time>
      </trkpt>
      <trkpt lat="39.7927310" lon="2.6961820">
        <ele>4.8</ele>
        <time>2021-06-18T08:00:25Z</time>
      </trkpt>
      <trkpt lat="39.7925910" lon="2.6960890">
        <ele>5.0</ele>
        <time>2021-06-18T08:00:29Z</time>
      </trkpt>
      <trkpt lat="39.7922990" lon="2.6958460">
        <ele>5.3</ele>
        <time>2021-06-18T08:00:37Z</time>
      </trkpt>
      <trkpt lat="39.7921550" lon="2.6957180">
        <ele>5.4</ele>
        <time>2021-06-18T08:00:41Z</time>
      </trkpt>
      <trkpt lat="39.7920450" lon="2.6956170">
        <ele>5.5</ele>
        <time>2021-06-18T08:00:44Z</time>
      </trkpt>
      <trkpt lat="39.7919490" lon="2.6955200">
        <ele>5.7</ele>
        <time>2021-06-18T08:00:48Z</time>
      </trkpt>
      <trkpt lat="39.7917670" lon="2.6953310">
        <ele>5.9</ele>
        <time>2021-06-18T08:00:53Z</time>
      </trkpt>
      <trkpt lat="39.7916610" lon="2.6952400">
        <ele>6.1</ele>
        <time>2021-06-18T08:00:56Z</time>
      </trkpt>
      <trkpt lat="39.7914710" lon="2.6950850">
        <ele>6.1</ele>
        <time>2021-06-18T08:01:02Z</time>
      </trkpt>
      <trkpt lat="39.7912950" lon="2.6949420">
        <ele>5.7</ele>
        <time>2021-06-18T08:01:07Z</time>
      </trkpt>
      <trkpt lat="39.7909470" lon="2.6946890">
        <ele>5.3</ele>
        <time>2021-06-18T08:01:15Z</time>
      </trkpt>
      <trkpt lat="39.7908490" lon="2.6946580">
        <ele>5.2</ele>
        <time>2021-06-18T08:01:17Z</time>
      </trkpt>
      <trkpt lat="39.7906950" lon="2.6946550">
        <ele>5.0</ele>
        <time>2021-06-18T08:01:20Z</time>
      </trkpt>
      <trkpt lat="39.7904190" lon="2.6946840">
        <ele>4.8</ele>
        <time>2021-06-18T08:01:25Z</time>
      </trkpt>
      <trkpt lat="39.7902550" lon="2.6946920">
        <ele>4.7</ele>
        <time>2021-06-18T08:01:28Z</time>
      </trkpt>
      <trkpt lat="39.7901460" lon="2.6947110">
        <ele>4.7</ele>
        <time>2021-06-18T08:01:30Z</time>
      </trkpt>
      <trkpt lat="39.7899340" lon="2.6947650">
        <ele>4.9</ele>
        <time>2021-06-18T08:01:34Z</time>
      </trkpt>
      <trkpt lat="39.7898780" lon="2.6947820">
        <ele>5.0</ele>
        <time>2021-06-18T08:01:35Z</time>
      </trkpt>
      <trkpt lat="39.7897420" lon="2.6948210">
        <ele>5.1</ele>
        <time>2021-06-18T08:01:39Z</time>
      </trkpt>
      <trkpt lat="39.7895470" lon="2.6948910">
        <ele>5.4</ele>
        <time>2021-06-18T08:01:42Z</time>
      </trkpt>
      <trkpt lat="39.7894610" lon="2.6949310">
        <ele>5.4</ele>
        <time>2021-06-18T08:01:44Z</time>
      </trkpt>
      <trkpt lat="39.7893770" lon="2.6949700">
        <ele>5.4</ele>
        <time>2021-06-18T08:01:46Z</time>
      </trkpt>
      <trkpt lat="39.7892880" lon="2.6950090">
        <ele>5.4</ele>
        <time>2021-06-18T08:01:48Z</time>
      </trkpt>
      <trkpt lat="39.7891590" lon="2.6950670">
        <ele>5.4</ele>
        <time>2021-06-18T08:01:51Z</time>
      </trkpt>
      <trkpt lat="39.7889540" lon="2.6951670">
        <ele>5.4</ele>
        <time>2021-06-18T08:01:57Z</time>
      </trkpt>
      <trkpt lat="39.7888700" lon="2.6952030">
        <ele>5.4</ele>
        <time>2021-06-18T08:01:58Z</time>
      </trkpt>
      <trkpt lat="39.7887810" lon="2.6952450">
        <ele>5.4</ele>
        <time>2021-06-18T08:02:00Z</time>
      </trkpt>
      <trkpt lat="39.7885600" lon="2.6953620">
        <ele>5.4</ele>
        <time>2021-06-18T08:02:06Z</time>
      </trkpt>
      <trkpt lat="39.7882810" lon="2.6954820">
        <ele>5.4</ele>
        <time>2021-06-18T08:02:12Z</time>
      </trkpt>
      <trkpt lat="39.7882810" lon="2.6954820">
        <ele>5.4</ele>
        <time>2021-06-18T08:02:13Z</time>
      </trkpt>
      <trkpt lat="39.7881670" lon="2.6955260">
        <ele>5.4</ele>
        <time>2021-06-18T08:02:16Z</time>
      </trkpt>
      <trkpt lat="39.7879790" lon="2.6956020">
        <ele>5.4</ele>
        <time>2021-06-18T08:02:20Z</time>
      </trkpt>
      <trkpt lat="39.7878910" lon="2.6956300">
        <ele>5.4</ele>
        <time>2021-06-18T08:02:21Z</time>
      </trkpt>
      <trkpt lat="39.7875040" lon="2.6957580">
        <ele>5.5</ele>
        <time>2021-06-18T08:02:29Z</time>
      </trkpt>
      <trkpt lat="39.7873650" lon="2.6957990">
        <ele>5.6</ele>
        <time>2021-06-18T08:02:32Z</time>
      </trkpt>
      <trkpt lat="39.7871550" lon="2.6958830">
        <ele>5.7</ele>
        <time>2021-06-18T08:02:36Z</time>
      </trkpt>
      <trkpt lat="39.7868570" lon="2.6960800">
        <ele>5.8</ele>
        <time>2021-06-18T08:02:42Z</time>
      </trkpt>
      <trkpt lat="39.7864990" lon="2.6964670">
        <ele>6.1</ele>
        <time>2021-06-18T08:02:50Z</time>
      </trkpt>
      <trkpt lat="39.7861720" lon="2.6968780">
        <ele>6.4</ele>
        <time>2021-06-18T08:02:58Z</time>
      </trkpt>
      <trkpt lat="39.7860040" lon="2.6970990">
        <ele>6.5</ele>
        <time>2021-06-18T08:03:02Z</time>
      </trkpt>
      <trkpt lat="39.7858350" lon="2.6973050">
        <ele>6.7</ele>
        <time>2021-06-18T08:03:07Z</time>
      </trkpt>
      <trkpt lat="39.7857630" lon="2.6973910">
        <ele>6.8</ele>
        <time>2021-06-18T08:03:08Z</time>
      </trkpt>
      <trkpt lat="39.7855000" lon="2.6977000">
        <ele>7.2</ele>
        <time>2021-06-18T08:03:15Z</time>
      </trkpt>
      <trkpt lat="39.7854650" lon="2.6977410">
        <ele>7.2</ele>
        <time>2021-06-18T08:03:16Z</time>
      </trkpt>
      <trkpt lat="39.7853980" lon="2.6978210">
        <ele>7.3</ele>
        <time>2021-06-18T08:03:18Z</time>
      </trkpt>
      <trkpt lat="39.7853690" lon="2.6978610">
        <ele>7.4</ele>
        <time>2021-06-18T08:03:19Z</time>
      </trkpt>
      <trkpt lat="39.7853420" lon="2.6978990">
        <ele>7.4</ele>
        <time>2021-06-18T08:03:20Z</time>
      </trkpt>
      <trkpt lat="39.7851480" lon="2.6981390">
        <ele>7.5</ele>
        <time>2021-06-18T08:03:26Z</time>
      </trkpt>
      <trkpt lat="39.7850240" lon="2.6982490">
        <ele>7.6</ele>
        <time>2021-06-18T08:03:29Z</time>
      </trkpt>
      <trkpt lat="39.7848840" lon="2.6983470">
        <ele>7.6</ele>
        <time>2021-06-18T08:03:32Z</time>
      </trkpt>
      <trkpt lat="39.7844390" lon="2.6986380">
        <ele>7.9</ele>
        <time>2021-06-18T08:03:41Z</time>
      </trkpt>
      <trkpt lat="39.7840140" lon="2.6989150">
        <ele>8.3</ele>
        <time>2021-06-18T08:03:50Z</time>
      </trkpt>
      <trkpt lat="39.7838130" lon="2.6990330">
        <ele>8.5</ele>
        <time>2021-06-18T08:03:54Z</time>
      </trkpt>
      <trkpt lat="39.7835720" lon="2.6991870">
        <ele>8.9</ele>
        <time>2021-06-18T08:03:59Z</time>
      </trkpt>
      <trkpt lat="39.7834810" lon="2.6992460">
        <ele>9.0</ele>
        <time>2021-06-18T08:04:01Z</time>
      </trkpt>
      <trkpt lat="39.7833490" lon="2.6993380">
        <ele>9.1</ele>
        <time>2021-06-18T08:04:04Z</time>
      </trkpt>
      <trkpt lat="39.7831020" lon="2.6994920">
        <ele>9.2</ele>
        <time>2021-06-18T08:04:10Z</time>
      </trkpt>
      <trkpt lat="39.7828410" lon="2.6996630">
        <ele>9.3</ele>
        <time>2021-06-18T08:04:14Z</time>
      </trkpt>
      <trkpt lat="39.7827460" lon="2.6997300">
        <ele>9.4</ele>
        <time>2021-06-18T08:04:16Z</time>
      </trkpt>
      <trkpt lat="39.7827010" lon="2.6997590">
        <ele>9.4</ele>
        <time>2021-06-18T08:04:17Z</time>
      </trkpt>
      <trkpt lat="39.7826070" lon="2.6998200">
        <ele>9.5</ele>
        <time>2021-06-18T08:04:19Z</time>
      </trkpt>
      <trkpt lat="39.7822550" lon="2.7000380">
        <ele>9.7</ele>
        <time>2021-06-18T08:04:26Z</time>
      </trkpt>
      <trkpt lat="39.7818420" lon="2.7002990">
        <ele>9.8</ele>
        <time>2021-06-18T08:04:34Z</time>
      </trkpt>
      <trkpt lat="39.7817900" lon="2.7003320">
        <ele>9.8</ele>
        <time>2021-06-18T08:04:35Z</time>
      </trkpt>
      <trkpt lat="39.7815370" lon="2.7005060">
        <ele>9.8</ele>
        <time>2021-06-18T08:04:41Z</time>
      </trkpt>
      <trkpt lat="39.7812630" lon="2.7006820">
        <ele>10.0</ele>
        <time>2021-06-18T08:04:46Z</time>
      </trkpt>
      <trkpt lat="39.7807700" lon="2.7010030">
        <ele>10.3</ele>
        <time>2021-06-18T08:04:56Z</time>
      </trkpt>
      <trkpt lat="39.7806270" lon="2.7011230">
        <ele>10.4</ele>
        <time>2021-06-18T08:04:59Z</time>
      </trkpt>
      <trkpt lat="39.7804070" lon="2.7013640">
        <ele>10.6</ele>
        <time>2021-06-18T08:05:04Z</time>
      </trkpt>
      <trkpt lat="39.7802510" lon="2.7015690">
        <ele>10.6</ele>
        <time>2021-06-18T08:05:08Z</time>
      </trkpt>
      <trkpt lat="39.7801710" lon="2.7016840">
        <ele>10.7</ele>
        <time>2021-06-18T08:05:10Z</time>
      </trkpt>
      <trkpt lat="39.7800010" lon="2.7019290">
        <ele>10.6</ele>
        <time>2021-06-18T08:05:15Z</time>
      </trkpt>
      <trkpt lat="39.7796540" lon="2.7023900">
        <ele>10.5</ele>
        <time>2021-06-18T08:05:23Z</time>
      </trkpt>
      <trkpt lat="39.7794040" lon="2.7027460">
        <ele>10.5</ele>
        <time>2021-06-18T08:05:28Z</time>
      </trkpt>
      <trkpt lat="39.7793190" lon="2.7028620">
        <ele>10.6</ele>
        <time>2021-06-18T08:05:30Z</time>
      </trkpt>
      <trkpt lat="39.7792320" lon="2.7029790">
        <ele>10.6</ele>
        <time>2021-06-18T08:05:32Z</time>
      </trkpt>
      <trkpt lat="39.7789630" lon="2.7033590">
        <ele>10.7</ele>
        <time>2021-06-18T08:05:38Z</time>
      </trkpt>
      <trkpt lat="39.7787100" lon="2.7037080">
        <ele>10.9</ele>
        <time>2021-06-18T08:05:44Z</time>
      </trkpt>
      <trkpt lat="39.7786340" lon="2.7038020">
        <ele>11.0</ele>
        <time>2021-06-18T08:05:46Z</time>
      </trkpt>
      <trkpt lat="39.7785970" lon="2.7038520">
        <ele>11.0</ele>
        <time>2021-06-18T08:05:48Z</time>
      </trkpt>
      <trkpt lat="39.7784360" lon="2.7041520">
        <ele>11.4</ele>
        <time>2021-06-18T08:05:53Z</time>
      </trkpt>
      <trkpt lat="39.7783830" lon="2.7042410">
        <ele>11.6</ele>
        <time>2021-06-18T08:05:54Z</time>
      </trkpt>
      <trkpt lat="39.7783570" lon="2.7042950">
        <ele>11.6</ele>
        <time>2021-06-18T08:05:55Z</time>
      </trkpt>
      <trkpt lat="39.7783420" lon="2.7044150">
        <ele>11.7</ele>
        <time>2021-06-18T08:05:57Z</time>
      </trkpt>
      <trkpt lat="39.7783950" lon="2.7044850">
        <ele>11.7</ele>
        <time>2021-06-18T08:05:59Z</time>
      </trkpt>
      <trkpt lat="39.7784370" lon="2.7045070">
        <ele>11.7</ele>
        <time>2021-06-18T08:06:00Z</time>
      </trkpt>
      <trkpt lat="39.7785320" lon="2.7045480">
        <ele>11.8</ele>
        <time>2021-06-18T08:06:02Z</time>
      </trkpt>
      <trkpt lat="39.7786840" lon="2.7046640">
        <ele>11.8</ele>
        <time>2021-06-18T08:06:06Z</time>
      </trkpt>
      <trkpt lat="39.7790560" lon="2.7050170">
        <ele>11.8</ele>
        <time>2021-06-18T08:06:16Z</time>
      </trkpt>
      <trkpt lat="39.7792030" lon="2.7051540">
        <ele>11.9</ele>
        <time>2021-06-18T08:06:20Z</time>
      </trkpt>
      <trkpt lat="39.7793910" lon="2.7053380">
        <ele>12.0</ele>
        <time>2021-06-18T08:06:25Z</time>
      </trkpt>
      <trkpt lat="39.7797010" lon="2.7056280">
        <ele>12.0</ele>
        <time>2021-06-18T08:06:33Z</time>
      </trkpt>
      <trkpt lat="39.7798790" lon="2.7057860">
        <ele>12.1</ele>
        <time>2021-06-18T08:06:38Z</time>
      </trkpt>
      <trkpt lat="39.7799450" lon="2.7058430">
        <ele>12.1</ele>
        <time>2021-06-18T08:06:41Z</time>
      </trkpt>
      <trkpt lat="39.7802070" lon="2.7060880">
        <ele>12.5</ele>
        <time>2021-06-18T08:06:47Z</time>
      </trkpt>
      <trkpt lat="39.7802790" lon="2.7061620">
        <ele>12.7</ele>
        <time>2021-06-18T08:06:49Z</time>
      </trkpt>
      <trkpt lat="39.7805520" lon="2.7064290">
        <ele>13.8</ele>
        <time>2021-06-18T08:06:58Z</time>
      </trkpt>
      <trkpt lat="39.7807160" lon="2.7065870">
        <ele>14.8</ele>
        <time>2021-06-18T08:07:02Z</time>
      </trkpt>
      <trkpt lat="39.7808350" lon="2.7066950">
        <ele>15.7</ele>
        <time>2021-06-18T08:07:06Z</time>
      </trkpt>
      <trkpt lat="39.7808630" lon="2.7067210">
        <ele>15.9</ele>
        <time>2021-06-18T08:07:07Z</time>
      </trkpt>
      <trkpt lat="39.7809740" lon="2.7068260">
        <ele>16.6</ele>
        <time>2021-06-18T08:07:12Z</time>
      </trkpt>
      <trkpt lat="39.7810530" lon="2.7069060">
        <ele>17.2</ele>
        <time>2021-06-18T08:07:14Z</time>
      </trkpt>
      <trkpt lat="39.7811330" lon="2.7069920">
        <ele>17.5</ele>
        <time>2021-06-18T08:07:17Z</time>
      </trkpt>
      <trkpt lat="39.7812110" lon="2.7070870">
        <ele>17.7</ele>
        <time>2021-06-18T08:07:20Z</time>
      </trkpt>
      <trkpt lat="39.7812670" lon="2.7072060">
        <ele>18.4</ele>
        <time>2021-06-18T08:07:23Z</time>
      </trkpt>
      <trkpt lat="39.7813530" lon="2.7075490">
        <ele>20.1</ele>
        <time>2021-06-18T08:07:31Z</time>
      </trkpt>
      <trkpt lat="39.7813770" lon="2.7077620">
        <ele>21.2</ele>
        <time>2021-06-18T08:07:37Z</time>
      </trkpt>
      <trkpt lat="39.7814170" lon="2.7080220">
        <ele>22.5</ele>
        <time>2021-06-18T08:07:42Z</time>
      </trkpt>
      <trkpt lat="39.7814610" lon="2.7083370">
        <ele>24.2</ele>
        <time>2021-06-18T08:07:50Z</time>
      </trkpt>
      <trkpt lat="39.7815260" lon="2.7087180">
        <ele>26.5</ele>
        <time>2021-06-18T08:07:59Z</time>
      </trkpt>
      <trkpt lat="39.7815350" lon="2.7089090">
        <ele>27.7</ele>
        <time>2021-06-18T08:08:05Z</time>
      </trkpt>
      <trkpt lat="39.7815270" lon="2.7089970">
        <ele>28.3</ele>
        <time>2021-06-18T08:08:06Z</time>
      </trkpt>
      <trkpt lat="39.7814790" lon="2.7092040">
        <ele>29.7</ele>
        <time>2021-06-18T08:08:12Z</time>
      </trkpt>
      <trkpt lat="39.7814610" lon="2.7092760">
        <ele>30.2</ele>
        <time>2021-06-18T08:08:14Z</time>
      </trkpt>
      <trkpt lat="39.7814300" lon="2.7094450">
        <ele>31.3</ele>
        <time>2021-06-18T08:08:19Z</time>
      </trkpt>
      <trkpt lat="39.7813390" lon="2.7095810">
        <ele>32.3</ele>
        <time>2021-06-18T08:08:23Z</time>
      </trkpt>
      <trkpt lat="39.7812600" lon="2.7096770">
        <ele>33.1</ele>
        <time>2021-06-18T08:08:26Z</time>
      </trkpt>
      <trkpt lat="39.7812350" lon="2.7097280">
        <ele>33.5</ele>
        <time>2021-06-18T08:08:29Z</time>
      </trkpt>
      <trkpt lat="39.7810800" lon="2.7100660">
        <ele>35.8</ele>
        <time>2021-06-18T08:08:39Z</time>
      </trkpt>
      <trkpt lat="39.7810130" lon="2.7102380">
        <ele>37.0</ele>
        <time>2021-06-18T08:08:45Z</time>
      </trkpt>
      <trkpt lat="39.7808870" lon="2.7105340">
        <ele>38.9</ele>
        <time>2021-06-18T08:08:55Z</time>
      </trkpt>
      <trkpt lat="39.7808190" lon="2.7108570">
        <ele>40.8</ele>
        <time>2021-06-18T08:09:04Z</time>
      </trkpt>
      <trkpt lat="39.7808480" lon="2.7111380">
        <ele>42.3</ele>
        <time>2021-06-18T08:09:12Z</time>
      </trkpt>
      <trkpt lat="39.7809740" lon="2.7113070">
        <ele>42.9</ele>
        <time>2021-06-18T08:09:19Z</time>
      </trkpt>
      <trkpt lat="39.7810700" lon="2.7114140">
        <ele>43.7</ele>
        <time>2021-06-18T08:09:24Z</time>
      </trkpt>
      <trkpt lat="39.7811810" lon="2.7115560">
        <ele>44.6</ele>
        <time>2021-06-18T08:09:30Z</time>
      </trkpt>
      <trkpt lat="39.7813470" lon="2.7117540">
        <ele>46.1</ele>
        <time>2021-06-18T08:09:39Z</time>
      </trkpt>
      <trkpt lat="39.7814020" lon="2.7118180">
        <ele>46.6</ele>
        <time>2021-06-18T08:09:42Z</time>
      </trkpt>
      <trkpt lat="39.7815930" lon="2.7119070">
        <ele>48.1</ele>
        <time>2021-06-18T08:09:50Z</time>
      </trkpt>
      <trkpt lat="39.7817640" lon="2.7118700">
        <ele>49.3</ele>
        <time>2021-06-18T08:09:57Z</time>
      </trkpt>
      <trkpt lat="39.7819010" lon="2.7117130">
        <ele>50.3</ele>
        <time>2021-06-18T08:10:04Z</time>
      </trkpt>
      <trkpt lat="39.7820280" lon="2.7114870">
        <ele>51.4</ele>
        <time>2021-06-18T08:10:13Z</time>
      </trkpt>
      <trkpt lat="39.7821370" lon="2.7112770">
        <ele>52.7</ele>
        <time>2021-06-18T08:10:22Z</time>
      </trkpt>
      <trkpt lat="39.7822280" lon="2.7110930">
        <ele>53.9</ele>
        <time>2021-06-18T08:10:30Z</time>
      </trkpt>
      <trkpt lat="39.7823770" lon="2.7108610">
        <ele>55.6</ele>
        <time>2021-06-18T08:10:40Z</time>
      </trkpt>
      <trkpt lat="39.7825240" lon="2.7107160">
        <ele>57.0</ele>
        <time>2021-06-18T08:10:48Z</time>
      </trkpt>
      <trkpt lat="39.7826660" lon="2.7107110">
        <ele>58.0</ele>
        <time>2021-06-18T08:10:54Z</time>
      </trkpt>
      <trkpt lat="39.7828820" lon="2.7107260">
        <ele>59.6</ele>
        <time>2021-06-18T08:11:03Z</time>
      </trkpt>
      <trkpt lat="39.7830230" lon="2.7107540">
        <ele>60.6</ele>
        <time>2021-06-18T08:11:10Z</time>
      </trkpt>
      <trkpt lat="39.7832020" lon="2.7107720">
        <ele>61.8</ele>
        <time>2021-06-18T08:11:18Z</time>
      </trkpt>
      <trkpt lat="39.7833310" lon="2.7107490">
        <ele>62.6</ele>
        <time>2021-06-18T08:11:24Z</time>
      </trkpt>
      <trkpt lat="39.7834220" lon="2.7107130">
        <ele>63.2</ele>
        <time>2021-06-18T08:11:28Z</time>
      </trkpt>
      <trkpt lat="39.7835890" lon="2.7106360">
        <ele>64.4</ele>
        <time>2021-06-18T08:11:36Z</time>
      </trkpt>
      <trkpt lat="39.7837820" lon="2.7105900">
        <ele>65.8</ele>
        <time>2021-06-18T08:11:44Z</time>
      </trkpt>
      <trkpt lat="39.7839230" lon="2.7106290">
        <ele>66.9</ele>
        <time>2021-06-18T08:11:50Z</time>
      </trkpt>
      <trkpt lat="39.7840150" lon="2.7107670">
        <ele>68.0</ele>
        <time>2021-06-18T08:11:55Z</time>
      </trkpt>
      <trkpt lat="39.7840230" lon="2.7108310">
        <ele>68.4</ele>
        <time>2021-06-18T08:11:57Z</time>
      </trkpt>
      <trkpt lat="39.7839880" lon="2.7109940">
        <ele>69.9</ele>
        <time>2021-06-18T08:12:02Z</time>
      </trkpt>
      <trkpt lat="39.7839780" lon="2.7110250">
        <ele>70.1</ele>
        <time>2021-06-18T08:12:03Z</time>
      </trkpt>
      <trkpt lat="39.7839290" lon="2.7111030">
        <ele>70.8</ele>
        <time>2021-06-18T08:12:06Z</time>
      </trkpt>
      <trkpt lat="39.7838720" lon="2.7111360">
        <ele>71.2</ele>
        <time>2021-06-18T08:12:08Z</time>
      </trkpt>
      <trkpt lat="39.7838250" lon="2.7111630">
        <ele>71.6</ele>
        <time>2021-06-18T08:12:10Z</time>
      </trkpt>
      <trkpt lat="39.7837140" lon="2.7111680">
        <ele>72.3</ele>
        <time>2021-06-18T08:12:14Z</time>
      </trkpt>
      <trkpt lat="39.7834360" lon="2.7111260">
        <ele>73.8</ele>
        <time>2021-06-18T08:12:24Z</time>
      </trkpt>
      <trkpt lat="39.7831990" lon="2.7111200">
        <ele>75.3</ele>
        <time>2021-06-18T08:12:33Z</time>
      </trkpt>
      <trkpt lat="39.7830630" lon="2.7111450">
        <ele>76.0</ele>
        <time>2021-06-18T08:12:38Z</time>
      </trkpt>
      <trkpt lat="39.7830120" lon="2.7111670">
        <ele>76.3</ele>
        <time>2021-06-18T08:12:40Z</time>
      </trkpt>
      <trkpt lat="39.7828460" lon="2.7113090">
        <ele>77.2</ele>
        <time>2021-06-18T08:12:47Z</time>
      </trkpt>
      <trkpt lat="39.7827270" lon="2.7115050">
        <ele>78.1</ele>
        <time>2021-06-18T08:12:55Z</time>
      </trkpt>
      <trkpt lat="39.7826670" lon="2.7117660">
        <ele>79.2</ele>
        <time>2021-06-18T08:13:01Z</time>
      </trkpt>
      <trkpt lat="39.7826670" lon="2.7118480">
        <ele>79.6</ele>
        <time>2021-06-18T08:13:03Z</time>
      </trkpt>
      <trkpt lat="39.7827100" lon="2.7121540">
        <ele>80.9</ele>
        <time>2021-06-18T08:13:11Z</time>
      </trkpt>
      <trkpt lat="39.7828030" lon="2.7124200">
        <ele>82.0</ele>
        <time>2021-06-18T08:13:18Z</time>
      </trkpt>
      <trkpt lat="39.7828920" lon="2.7126740">
        <ele>83.0</ele>
        <time>2021-06-18T08:13:25Z</time>
      </trkpt>
      <trkpt lat="39.7828920" lon="2.7126740">
        <ele>83.0</ele>
        <time>2021-06-18T08:13:26Z</time>
      </trkpt>
      <trkpt lat="39.7829870" lon="2.7130290">
        <ele>85.0</ele>
        <time>2021-06-18T08:13:35Z</time>
      </trkpt>
      <trkpt lat="39.7831040" lon="2.7133760">
        <ele>87.2</ele>
        <time>2021-06-18T08:13:45Z</time>
      </trkpt>
      <trkpt lat="39.7831150" lon="2.7134130">
        <ele>87.4</ele>
        <time>2021-06-18T08:13:46Z</time>
      </trkpt>
      <trkpt lat="39.7831430" lon="2.7136740">
        <ele>88.8</ele>
        <time>2021-06-18T08:13:53Z</time>
      </trkpt>
      <trkpt lat="39.7830560" lon="2.7139670">
        <ele>90.5</ele>
        <time>2021-06-18T08:14:01Z</time>
      </trkpt>
      <trkpt lat="39.7829540" lon="2.7141080">
        <ele>91.6</ele>
        <time>2021-06-18T08:14:08Z</time>
      </trkpt>
      <trkpt lat="39.7828150" lon="2.7142900">
        <ele>93.2</ele>
        <time>2021-06-18T08:14:14Z</time>
      </trkpt>
      <trkpt lat="39.7826580" lon="2.7145240">
        <ele>95.0</ele>
        <time>2021-06-18T08:14:23Z</time>
      </trkpt>
      <trkpt lat="39.7825270" lon="2.7147840">
        <ele>96.4</ele>
        <time>2021-06-18T08:14:33Z</time>
      </trkpt>
      <trkpt lat="39.7825130" lon="2.7150630">
        <ele>97.8</ele>
        <time>2021-06-18T08:14:42Z</time>
      </trkpt>
      <trkpt lat="39.7826150" lon="2.7153130">
        <ele>99.2</ele>
        <time>2021-06-18T08:14:50Z</time>
      </trkpt>
      <trkpt lat="39.7826610" lon="2.7153910">
        <ele>99.7</ele>
        <time>2021-06-18T08:14:53Z</time>
      </trkpt>
      <trkpt lat="39.7827290" lon="2.7154930">
        <ele>100.4</ele>
        <time>2021-06-18T08:14:58Z</time>
      </trkpt>
      <trkpt lat="39.7827420" lon="2.7155020">
        <ele>100.5</ele>
        <time>2021-06-18T08:14:59Z</time>
      </trkpt>
      <trkpt lat="39.7827850" lon="2.7156050">
        <ele>101.1</ele>
        <time>2021-06-18T08:15:06Z</time>
      </trkpt>
      <trkpt lat="39.7828450" lon="2.7156830">
        <ele>101.7</ele>
        <time>2021-06-18T08:15:09Z</time>
      </trkpt>
      <trkpt lat="39.7828640" lon="2.7157180">
        <ele>102.0</ele>
        <time>2021-06-18T08:15:11Z</time>
      </trkpt>
      <trkpt lat="39.7828850" lon="2.7157510">
        <ele>102.2</ele>
        <time>2021-06-18T08:15:13Z</time>
      </trkpt>
      <trkpt lat="39.7829090" lon="2.7158590">
        <ele>102.9</ele>
        <time>2021-06-18T08:15:17Z</time>
      </trkpt>
      <trkpt lat="39.7829240" lon="2.7160150">
        <ele>103.8</ele>
        <time>2021-06-18T08:15:24Z</time>
      </trkpt>
      <trkpt lat="39.7828800" lon="2.7162140">
        <ele>105.0</ele>
        <time>2021-06-18T08:15:31Z</time>
      </trkpt>
      <trkpt lat="39.7828670" lon="2.7162350">
        <ele>105.1</ele>
        <time>2021-06-18T08:15:32Z</time>
      </trkpt>
      <trkpt lat="39.7828470" lon="2.7162800">
        <ele>105.4</ele>
        <time>2021-06-18T08:15:35Z</time>
      </trkpt>
      <trkpt lat="39.7828120" lon="2.7163530">
        <ele>105.9</ele>
        <time>2021-06-18T08:15:37Z</time>
      </trkpt>
      <trkpt lat="39.7827480" lon="2.7163940">
        <ele>106.4</ele>
        <time>2021-06-18T08:15:40Z</time>
      </trkpt>
      <trkpt lat="39.7827220" lon="2.7164120">
        <ele>106.6</ele>
        <time>2021-06-18T08:15:42Z</time>
      </trkpt>
      <trkpt lat="39.7825690" lon="2.7164460">
        <ele>107.6</ele>
        <time>2021-06-18T08:15:48Z</time>
      </trkpt>
      <trkpt lat="39.7824990" lon="2.7164510">
        <ele>108.2</ele>
        <time>2021-06-18T08:15:51Z</time>
      </trkpt>
      <trkpt lat="39.7824250" lon="2.7164560">
        <ele>108.8</ele>
        <time>2021-06-18T08:15:55Z</time>
      </trkpt>
      <trkpt lat="39.7823030" lon="2.7164660">
        <ele>109.7</ele>
        <time>2021-06-18T08:16:01Z</time>
      </trkpt>
      <trkpt lat="39.7822620" lon="2.7164700">
        <ele>110.0</ele>
        <time>2021-06-18T08:16:03Z</time>
      </trkpt>
      <trkpt lat="39.7821710" lon="2.7165000">
        <ele>110.6</ele>
        <time>2021-06-18T08:16:08Z</time>
      </trkpt>
      <trkpt lat="39.7819830" lon="2.7166310">
        <ele>111.9</ele>
        <time>2021-06-18T08:16:17Z</time>
      </trkpt>
      <trkpt lat="39.7817640" lon="2.7168090">
        <ele>113.2</ele>
        <time>2021-06-18T08:16:28Z</time>
      </trkpt>
      <trkpt lat="39.7815190" lon="2.7169850">
        <ele>114.9</ele>
        <time>2021-06-18T08:16:40Z</time>
      </trkpt>
      <trkpt lat="39.7814400" lon="2.7170480">
        <ele>115.5</ele>
        <time>2021-06-18T08:16:45Z</time>
      </trkpt>
      <trkpt lat="39.7813940" lon="2.7171160">
        <ele>115.9</ele>
        <time>2021-06-18T08:16:48Z</time>
      </trkpt>
      <trkpt lat="39.7812570" lon="2.7173140">
        <ele>117.1</ele>
        <time>2021-06-18T08:16:57Z</time>
      </trkpt>
      <trkpt lat="39.7812260" lon="2.7173590">
        <ele>117.4</ele>
        <time>2021-06-18T08:16:59Z</time>
      </trkpt>
      <trkpt lat="39.7811290" lon="2.7175300">
        <ele>118.3</ele>
        <time>2021-06-18T08:17:06Z</time>
      </trkpt>
      <trkpt lat="39.7809850" lon="2.7177380">
        <ele>119.6</ele>
        <time>2021-06-18T08:17:16Z</time>
      </trkpt>
      <trkpt lat="39.7809130" lon="2.7178350">
        <ele>120.3</ele>
        <time>2021-06-18T08:17:19Z</time>
      </trkpt>
      <trkpt lat="39.7808160" lon="2.7179410">
        <ele>121.2</ele>
        <time>2021-06-18T08:17:24Z</time>
      </trkpt>
      <trkpt lat="39.7806600" lon="2.7180880">
        <ele>122.5</ele>
        <time>2021-06-18T08:17:32Z</time>
      </trkpt>
      <trkpt lat="39.7805190" lon="2.7181950">
        <ele>123.7</ele>
        <time>2021-06-18T08:17:39Z</time>
      </trkpt>
      <trkpt lat="39.7804960" lon="2.7182100">
        <ele>123.8</ele>
        <time>2021-06-18T08:17:40Z</time>
      </trkpt>
      <trkpt lat="39.7803430" lon="2.7182360">
        <ele>124.9</ele>
        <time>2021-06-18T08:17:46Z</time>
      </trkpt>
      <trkpt lat="39.7801220" lon="2.7181420">
        <ele>126.5</ele>
        <time>2021-06-18T08:17:55Z</time>
      </trkpt>
      <trkpt lat="39.7799790" lon="2.7180240">
        <ele>127.8</ele>
        <time>2021-06-18T08:18:03Z</time>
      </trkpt>
      <trkpt lat="39.7798270" lon="2.7179700">
        <ele>128.9</ele>
        <time>2021-06-18T08:18:10Z</time>
      </trkpt>
      <trkpt lat="39.7797010" lon="2.7179380">
        <ele>129.8</ele>
        <time>2021-06-18T08:18:15Z</time>
      </trkpt>
      <trkpt lat="39.7795690" lon="2.7179190">
        <ele>130.7</ele>
        <time>2021-06-18T08:18:21Z</time>
      </trkpt>
      <trkpt lat="39.7793600" lon="2.7179050">
        <ele>132.2</ele>
        <time>2021-06-18T08:18:30Z</time>
      </trkpt>
      <trkpt lat="39.7792620" lon="2.7179130">
        <ele>132.9</ele>
        <time>2021-06-18T08:18:34Z</time>
      </trkpt>
      <trkpt lat="39.7792170" lon="2.7179310">
        <ele>133.3</ele>
        <time>2021-06-18T08:18:37Z</time>
      </trkpt>
      <trkpt lat="39.7790380" lon="2.7180710">
        <ele>134.7</ele>
        <time>2021-06-18T08:18:44Z</time>
      </trkpt>
      <trkpt lat="39.7789640" lon="2.7181740">
        <ele>135.4</ele>
        <time>2021-06-18T08:18:48Z</time>
      </trkpt>
      <trkpt lat="39.7789240" lon="2.7182630">
        <ele>135.9</ele>
        <time>2021-06-18T08:18:52Z</time>
      </trkpt>
      <trkpt lat="39.7787610" lon="2.7184150">
        <ele>137.2</ele>
        <time>2021-06-18T08:19:01Z</time>
      </trkpt>
      <trkpt lat="39.7787090" lon="2.7186880">
        <ele>138.6</ele>
        <time>2021-06-18T08:19:09Z</time>
      </trkpt>
      <trkpt lat="39.7786970" lon="2.7188390">
        <ele>139.2</ele>
        <time>2021-06-18T08:19:13Z</time>
      </trkpt>
      <trkpt lat="39.7786830" lon="2.7190320">
        <ele>140.0</ele>
        <time>2021-06-18T08:19:18Z</time>
      </trkpt>
      <trkpt lat="39.7786860" lon="2.7192430">
        <ele>141.0</ele>
        <time>2021-06-18T08:19:26Z</time>
      </trkpt>
      <trkpt lat="39.7786820" lon="2.7194730">
        <ele>142.0</ele>
        <time>2021-06-18T08:19:32Z</time>
      </trkpt>
      <trkpt lat="39.7786790" lon="2.7195580">
        <ele>142.5</ele>
        <time>2021-06-18T08:19:35Z</time>
      </trkpt>
      <trkpt lat="39.7786800" lon="2.7195870">
        <ele>142.6</ele>
        <time>2021-06-18T08:19:36Z</time>
      </trkpt>
      <trkpt lat="39.7786850" lon="2.7197410">
        <ele>143.4</ele>
        <time>2021-06-18T08:19:41Z</time>
      </trkpt>
      <trkpt lat="39.7786840" lon="2.7198040">
        <ele>143.7</ele>
        <time>2021-06-18T08:19:43Z</time>
      </trkpt>
      <trkpt lat="39.7786810" lon="2.7198340">
        <ele>143.9</ele>
        <time>2021-06-18T08:19:44Z</time>
      </trkpt>
      <trkpt lat="39.7787510" lon="2.7200790">
        <ele>145.1</ele>
        <time>2021-06-18T08:19:52Z</time>
      </trkpt>
      <trkpt lat="39.7788780" lon="2.7201910">
        <ele>146.0</ele>
        <time>2021-06-18T08:19:58Z</time>
      </trkpt>
      <trkpt lat="39.7790370" lon="2.7202470">
        <ele>146.9</ele>
        <time>2021-06-18T08:20:04Z</time>
      </trkpt>
      <trkpt lat="39.7792220" lon="2.7203400">
        <ele>147.9</ele>
        <time>2021-06-18T08:20:11Z</time>
      </trkpt>
      <trkpt lat="39.7793390" lon="2.7204970">
        <ele>148.9</ele>
        <time>2021-06-18T08:20:19Z</time>
      </trkpt>
      <trkpt lat="39.7794180" lon="2.7207770">
        <ele>150.3</ele>
        <time>2021-06-18T08:20:27Z</time>
      </trkpt>
      <trkpt lat="39.7793770" lon="2.7209790">
        <ele>151.4</ele>
        <time>2021-06-18T08:20:33Z</time>
      </trkpt>
      <trkpt lat="39.7792440" lon="2.7211460">
        <ele>152.5</ele>
        <time>2021-06-18T08:20:40Z</time>
      </trkpt>
      <trkpt lat="39.7791740" lon="2.7211950">
        <ele>153.2</ele>
        <time>2021-06-18T08:20:43Z</time>
      </trkpt>
      <trkpt lat="39.7791150" lon="2.7212560">
        <ele>153.7</ele>
        <time>2021-06-18T08:20:46Z</time>
      </trkpt>
      <trkpt lat="39.7790480" lon="2.7213460">
        <ele>154.6</ele>
        <time>2021-06-18T08:20:50Z</time>
      </trkpt>
      <trkpt lat="39.7789570" lon="2.7214560">
        <ele>155.8</ele>
        <time>2021-06-18T08:20:56Z</time>
      </trkpt>
      <trkpt lat="39.7789290" lon="2.7214920">
        <ele>156.2</ele>
        <time>2021-06-18T08:20:58Z</time>
      </trkpt>
      <trkpt lat="39.7788990" lon="2.7215290">
        <ele>156.6</ele>
        <time>2021-06-18T08:21:00Z</time>
      </trkpt>
      <trkpt lat="39.7788260" lon="2.7216630">
        <ele>157.9</ele>
        <time>2021-06-18T08:21:06Z</time>
      </trkpt>
      <trkpt lat="39.7787860" lon="2.7219120">
        <ele>159.7</ele>
        <time>2021-06-18T08:21:15Z</time>
      </trkpt>
      <trkpt lat="39.7787580" lon="2.7221200">
        <ele>160.0</ele>
        <time>2021-06-18T08:21:22Z</time>
      </trkpt>
      <trkpt lat="39.7787400" lon="2.7223290">
        <ele>161.2</ele>
        <time>2021-06-18T08:21:30Z</time>
      </trkpt>
      <trkpt lat="39.7787440" lon="2.7224610">
        <ele>161.9</ele>
        <time>2021-06-18T08:21:35Z</time>
      </trkpt>
      <trkpt lat="39.7787590" lon="2.7225110">
        <ele>162.2</ele>
        <time>2021-06-18T08:21:37Z</time>
      </trkpt>
      <trkpt lat="39.7788750" lon="2.7227340">
        <ele>163.6</ele>
        <time>2021-06-18T08:21:47Z</time>
      </trkpt>
      <trkpt lat="39.7789930" lon="2.7228970">
        <ele>164.7</ele>
        <time>2021-06-18T08:21:55Z</time>
      </trkpt>
      <trkpt lat="39.7791560" lon="2.7230730">
        <ele>166.1</ele>
        <time>2021-06-18T08:22:05Z</time>
      </trkpt>
      <trkpt lat="39.7792690" lon="2.7231830">
        <ele>167.0</ele>
        <time>2021-06-18T08:22:12Z</time>
      </trkpt>
      <trkpt lat="39.7793430" lon="2.7232330">
        <ele>167.6</ele>
        <time>2021-06-18T08:22:16Z</time>
      </trkpt>
      <trkpt lat="39.7794280" lon="2.7232850">
        <ele>168.3</ele>
        <time>2021-06-18T08:22:21Z</time>
      </trkpt>
      <trkpt lat="39.7794830" lon="2.7233180">
        <ele>168.8</ele>
        <time>2021-06-18T08:22:25Z</time>
      </trkpt>
      <trkpt lat="39.7795590" lon="2.7233600">
        <ele>169.4</ele>
        <time>2021-06-18T08:22:28Z</time>
      </trkpt>
      <trkpt lat="39.7796670" lon="2.7234200">
        <ele>170.4</ele>
        <time>2021-06-18T08:22:33Z</time>
      </trkpt>
      <trkpt lat="39.7798450" lon="2.7235320">
        <ele>172.0</ele>
        <time>2021-06-18T08:22:42Z</time>
      </trkpt>
      <trkpt lat="39.7799680" lon="2.7235680">
        <ele>173.1</ele>
        <time>2021-06-18T08:22:49Z</time>
      </trkpt>
      <trkpt lat="39.7800100" lon="2.7235900">
        <ele>173.5</ele>
        <time>2021-06-18T08:22:50Z</time>
      </trkpt>
      <trkpt lat="39.7801780" lon="2.7236900">
        <ele>175.1</ele>
        <time>2021-06-18T08:22:57Z</time>
      </trkpt>
      <trkpt lat="39.7802410" lon="2.7237410">
        <ele>175.7</ele>
        <time>2021-06-18T08:23:00Z</time>
      </trkpt>
      <trkpt lat="39.7803400" lon="2.7238180">
        <ele>176.7</ele>
        <time>2021-06-18T08:23:05Z</time>
      </trkpt>
      <trkpt lat="39.7803660" lon="2.7238580">
        <ele>177.0</ele>
        <time>2021-06-18T08:23:07Z</time>
      </trkpt>
      <trkpt lat="39.7803890" lon="2.7239050">
        <ele>177.4</ele>
        <time>2021-06-18T08:23:09Z</time>
      </trkpt>
      <trkpt lat="39.7803970" lon="2.7239330">
        <ele>177.6</ele>
        <time>2021-06-18T08:23:10Z</time>
      </trkpt>
      <trkpt lat="39.7803890" lon="2.7241810">
        <ele>179.3</ele>
        <time>2021-06-18T08:23:18Z</time>
      </trkpt>
      <trkpt lat="39.7803530" lon="2.7243520">
        <ele>180.5</ele>
        <time>2021-06-18T08:23:24Z</time>
      </trkpt>
      <trkpt lat="39.7803150" lon="2.7244670">
        <ele>181.3</ele>
        <time>2021-06-18T08:23:29Z</time>
      </trkpt>
      <trkpt lat="39.7802990" lon="2.7246620">
        <ele>182.5</ele>
        <time>2021-06-18T08:23:36Z</time>
      </trkpt>
      <trkpt lat="39.7803220" lon="2.7248800">
        <ele>183.9</ele>
        <time>2021-06-18T08:23:44Z</time>
      </trkpt>
      <trkpt lat="39.7803610" lon="2.7249700">
        <ele>184.4</ele>
        <time>2021-06-18T08:23:47Z</time>
      </trkpt>
      <trkpt lat="39.7803910" lon="2.7250170">
        <ele>184.8</ele>
        <time>2021-06-18T08:23:49Z</time>
      </trkpt>
      <trkpt lat="39.7804390" lon="2.7250900">
        <ele>185.3</ele>
        <time>2021-06-18T08:23:52Z</time>
      </trkpt>
      <trkpt lat="39.7805800" lon="2.7252620">
        <ele>186.5</ele>
        <time>2021-06-18T08:24:00Z</time>
      </trkpt>
      <trkpt lat="39.7806240" lon="2.7253250">
        <ele>186.9</ele>
        <time>2021-06-18T08:24:02Z</time>
      </trkpt>
      <trkpt lat="39.7807600" lon="2.7254300">
        <ele>188.0</ele>
        <time>2021-06-18T08:24:08Z</time>
      </trkpt>
      <trkpt lat="39.7809420" lon="2.7255880">
        <ele>189.5</ele>
        <time>2021-06-18T08:24:16Z</time>
      </trkpt>
      <trkpt lat="39.7811080" lon="2.7257120">
        <ele>191.0</ele>
        <time>2021-06-18T08:24:23Z</time>
      </trkpt>
      <trkpt lat="39.7812100" lon="2.7258370">
        <ele>192.1</ele>
        <time>2021-06-18T08:24:30Z</time>
      </trkpt>
      <trkpt lat="39.7812710" lon="2.7259340">
        <ele>192.8</ele>
        <time>2021-06-18T08:24:34Z</time>
      </trkpt>
      <trkpt lat="39.7813190" lon="2.7260720">
        <ele>193.7</ele>
        <time>2021-06-18T08:24:39Z</time>
      </trkpt>
      <trkpt lat="39.7813750" lon="2.7263210">
        <ele>195.2</ele>
        <time>2021-06-18T08:24:48Z</time>
      </trkpt>
      <trkpt lat="39.7813700" lon="2.7264750">
        <ele>196.1</ele>
        <time>2021-06-18T08:24:54Z</time>
      </trkpt>
      <trkpt lat="39.7813710" lon="2.7265030">
        <ele>196.2</ele>
        <time>2021-06-18T08:24:55Z</time>
      </trkpt>
      <trkpt lat="39.7813280" lon="2.7267180">
        <ele>197.5</ele>
        <time>2021-06-18T08:25:03Z</time>
      </trkpt>
      <trkpt lat="39.7812390" lon="2.7269950">
        <ele>199.5</ele>
        <time>2021-06-18T08:25:13Z</time>
      </trkpt>
      <trkpt lat="39.7811980" lon="2.7272150">
        <ele>201.0</ele>
        <time>2021-06-18T08:25:21Z</time>
      </trkpt>
      <trkpt lat="39.7811610" lon="2.7274810">
        <ele>202.6</ele>
        <time>2021-06-18T08:25:29Z</time>
      </trkpt>
      <trkpt lat="39.7811180" lon="2.7277920">
        <ele>204.3</ele>
        <time>2021-06-18T08:25:38Z</time>
      </trkpt>
      <trkpt lat="39.7811070" lon="2.7280150">
        <ele>205.5</ele>
        <time>2021-06-18T08:25:45Z</time>
      </trkpt>
      <trkpt lat="39.7810910" lon="2.7281950">
        <ele>206.7</ele>
        <time>2021-06-18T08:25:51Z</time>
      </trkpt>
      <trkpt lat="39.7810870" lon="2.7282180">
        <ele>206.8</ele>
        <time>2021-06-18T08:25:52Z</time>
      </trkpt>
      <trkpt lat="39.7810850" lon="2.7283900">
        <ele>208.0</ele>
        <time>2021-06-18T08:25:57Z</time>
      </trkpt>
      <trkpt lat="39.7810800" lon="2.7285630">
        <ele>209.1</ele>
        <time>2021-06-18T08:26:02Z</time>
      </trkpt>
      <trkpt lat="39.7810930" lon="2.7286340">
        <ele>209.5</ele>
        <time>2021-06-18T08:26:04Z</time>
      </trkpt>
      <trkpt lat="39.7810850" lon="2.7287600">
        <ele>210.3</ele>
        <time>2021-06-18T08:26:08Z</time>
      </trkpt>
      <trkpt lat="39.7810930" lon="2.7287890">
        <ele>210.5</ele>
        <time>2021-06-18T08:26:09Z</time>
      </trkpt>
      <trkpt lat="39.7811850" lon="2.7290210">
        <ele>212.1</ele>
        <time>2021-06-18T08:26:17Z</time>
      </trkpt>
      <trkpt lat="39.7812280" lon="2.7290640">
        <ele>212.5</ele>
        <time>2021-06-18T08:26:19Z</time>
      </trkpt>
      <trkpt lat="39.7813430" lon="2.7292100">
        <ele>213.6</ele>
        <time>2021-06-18T08:26:25Z</time>
      </trkpt>
      <trkpt lat="39.7814030" lon="2.7293710">
        <ele>214.5</ele>
        <time>2021-06-18T08:26:30Z</time>
      </trkpt>
      <trkpt lat="39.7814210" lon="2.7294460">
        <ele>215.0</ele>
        <time>2021-06-18T08:26:32Z</time>
      </trkpt>
      <trkpt lat="39.7814180" lon="2.7297550">
        <ele>216.7</ele>
        <time>2021-06-18T08:26:42Z</time>
      </trkpt>
      <trkpt lat="39.7814170" lon="2.7300410">
        <ele>218.4</ele>
        <time>2021-06-18T08:26:51Z</time>
      </trkpt>
      <trkpt lat="39.7814090" lon="2.7303290">
        <ele>220.2</ele>
        <time>2021-06-18T08:27:01Z</time>
      </trkpt>
      <trkpt lat="39.7814420" lon="2.7305330">
        <ele>221.6</ele>
        <time>2021-06-18T08:27:10Z</time>
      </trkpt>
      <trkpt lat="39.7814940" lon="2.7307870">
        <ele>223.2</ele>
        <time>2021-06-18T08:27:19Z</time>
      </trkpt>
      <trkpt lat="39.7815830" lon="2.7309080">
        <ele>224.2</ele>
        <time>2021-06-18T08:27:25Z</time>
      </trkpt>
      <trkpt lat="39.7816320" lon="2.7309570">
        <ele>224.6</ele>
        <time>2021-06-18T08:27:28Z</time>
      </trkpt>
      <trkpt lat="39.7817530" lon="2.7310620">
        <ele>225.8</ele>
        <time>2021-06-18T08:27:35Z</time>
      </trkpt>
      <trkpt lat="39.7818850" lon="2.7311280">
        <ele>226.9</ele>
        <time>2021-06-18T08:27:42Z</time>
      </trkpt>
      <trkpt lat="39.7820430" lon="2.7311480">
        <ele>228.2</ele>
        <time>2021-06-18T08:27:50Z</time>
      </trkpt>
      <trkpt lat="39.7821230" lon="2.7311280">
        <ele>228.7</ele>
        <time>2021-06-18T08:27:54Z</time>
      </trkpt>
      <trkpt lat="39.7821570" lon="2.7311010">
        <ele>229.0</ele>
        <time>2021-06-18T08:27:56Z</time>
      </trkpt>
      <trkpt lat="39.7822540" lon="2.7310930">
        <ele>229.7</ele>
        <time>2021-06-18T08:28:01Z</time>
      </trkpt>
      <trkpt lat="39.7823990" lon="2.7310310">
        <ele>230.7</ele>
        <time>2021-06-18T08:28:08Z</time>
      </trkpt>
      <trkpt lat="39.7825410" lon="2.7309270">
        <ele>231.8</ele>
        <time>2021-06-18T08:28:15Z</time>
      </trkpt>
      <trkpt lat="39.7826870" lon="2.7308170">
        <ele>232.9</ele>
        <time>2021-06-18T08:28:22Z</time>
      </trkpt>
      <trkpt lat="39.7827080" lon="2.7308010">
        <ele>233.0</ele>
        <time>2021-06-18T08:28:23Z</time>
      </trkpt>
      <trkpt lat="39.7828720" lon="2.7306680">
        <ele>234.5</ele>
        <time>2021-06-18T08:28:31Z</time>
      </trkpt>
      <trkpt lat="39.7830320" lon="2.7305280">
        <ele>236.0</ele>
        <time>2021-06-18T08:28:39Z</time>
      </trkpt>
      <trkpt lat="39.7831710" lon="2.7303980">
        <ele>237.3</ele>
        <time>2021-06-18T08:28:46Z</time>
      </trkpt>
      <trkpt lat="39.7833510" lon="2.7302940">
        <ele>238.7</ele>
        <time>2021-06-18T08:28:53Z</time>
      </trkpt>
      <trkpt lat="39.7834850" lon="2.7302720">
        <ele>239.6</ele>
        <time>2021-06-18T08:28:58Z</time>
      </trkpt>
      <trkpt lat="39.7835350" lon="2.7302790">
        <ele>239.9</ele>
        <time>2021-06-18T08:29:00Z</time>
      </trkpt>
      <trkpt lat="39.7835840" lon="2.7303020">
        <ele>240.3</ele>
        <time>2021-06-18T08:29:02Z</time>
      </trkpt>
      <trkpt lat="39.7836790" lon="2.7303760">
        <ele>241.0</ele>
        <time>2021-06-18T08:29:06Z</time>
      </trkpt>
      <trkpt lat="39.7837400" lon="2.7304470">
        <ele>241.6</ele>
        <time>2021-06-18T08:29:09Z</time>
      </trkpt>
      <trkpt lat="39.7837860" lon="2.7305350">
        <ele>242.1</ele>
        <time>2021-06-18T08:29:12Z</time>
      </trkpt>
      <trkpt lat="39.7837950" lon="2.7305680">
        <ele>242.3</ele>
        <time>2021-06-18T08:29:13Z</time>
      </trkpt>
      <trkpt lat="39.7838150" lon="2.7307100">
        <ele>243.1</ele>
        <time>2021-06-18T08:29:17Z</time>
      </trkpt>
      <trkpt lat="39.7838130" lon="2.7307740">
        <ele>243.5</ele>
        <time>2021-06-18T08:29:20Z</time>
      </trkpt>
      <trkpt lat="39.7837640" lon="2.7310060">
        <ele>244.9</ele>
        <time>2021-06-18T08:29:26Z</time>
      </trkpt>
      <trkpt lat="39.7837510" lon="2.7310340">
        <ele>245.1</ele>
        <time>2021-06-18T08:29:27Z</time>
      </trkpt>
      <trkpt lat="39.7836610" lon="2.7311510">
        <ele>246.2</ele>
        <time>2021-06-18T08:29:32Z</time>
      </trkpt>
      <trkpt lat="39.7836250" lon="2.7311850">
        <ele>246.6</ele>
        <time>2021-06-18T08:29:34Z</time>
      </trkpt>
      <trkpt lat="39.7835270" lon="2.7313730">
        <ele>248.1</ele>
        <time>2021-06-18T08:29:41Z</time>
      </trkpt>
      <trkpt lat="39.7835210" lon="2.7313970">
        <ele>248.3</ele>
        <time>2021-06-18T08:29:43Z</time>
      </trkpt>
      <trkpt lat="39.7834940" lon="2.7315820">
        <ele>249.5</ele>
        <time>2021-06-18T08:29:48Z</time>
      </trkpt>
      <trkpt lat="39.7835130" lon="2.7317910">
        <ele>250.6</ele>
        <time>2021-06-18T08:29:55Z</time>
      </trkpt>
      <trkpt lat="39.7836160" lon="2.7319890">
        <ele>251.7</ele>
        <time>2021-06-18T08:30:03Z</time>
      </trkpt>
      <trkpt lat="39.7837980" lon="2.7322330">
        <ele>253.5</ele>
        <time>2021-06-18T08:30:13Z</time>
      </trkpt>
      <trkpt lat="39.7838960" lon="2.7324700">
        <ele>255.1</ele>
        <time>2021-06-18T08:30:22Z</time>
      </trkpt>
      <trkpt lat="39.7839790" lon="2.7327790">
        <ele>256.8</ele>
        <time>2021-06-18T08:30:31Z</time>
      </trkpt>
      <trkpt lat="39.7840700" lon="2.7330410">
        <ele>257.7</ele>
        <time>2021-06-18T08:30:40Z</time>
      </trkpt>
      <trkpt lat="39.7841350" lon="2.7332650">
        <ele>259.2</ele>
        <time>2021-06-18T08:30:49Z</time>
      </trkpt>
      <trkpt lat="39.7841970" lon="2.7334650">
        <ele>260.7</ele>
        <time>2021-06-18T08:30:56Z</time>
      </trkpt>
      <trkpt lat="39.7842750" lon="2.7336210">
        <ele>261.8</ele>
        <time>2021-06-18T08:31:02Z</time>
      </trkpt>
      <trkpt lat="39.7842870" lon="2.7336470">
        <ele>262.0</ele>
        <time>2021-06-18T08:31:03Z</time>
      </trkpt>
      <trkpt lat="39.7843890" lon="2.7337840">
        <ele>263.1</ele>
        <time>2021-06-18T08:31:10Z</time>
      </trkpt>
      <trkpt lat="39.7845330" lon="2.7339140">
        <ele>264.4</ele>
        <time>2021-06-18T08:31:17Z</time>
      </trkpt>
      <trkpt lat="39.7845620" lon="2.7339410">
        <ele>264.7</ele>
        <time>2021-06-18T08:31:19Z</time>
      </trkpt>
      <trkpt lat="39.7847180" lon="2.7340130">
        <ele>265.8</ele>
        <time>2021-06-18T08:31:26Z</time>
      </trkpt>
      <trkpt lat="39.7848750" lon="2.7341010">
        <ele>267.0</ele>
        <time>2021-06-18T08:31:33Z</time>
      </trkpt>
      <trkpt lat="39.7850610" lon="2.7342000">
        <ele>268.3</ele>
        <time>2021-06-18T08:31:42Z</time>
      </trkpt>
      <trkpt lat="39.7851380" lon="2.7343430">
        <ele>269.2</ele>
        <time>2021-06-18T08:31:49Z</time>
      </trkpt>
      <trkpt lat="39.7851610" lon="2.7345850">
        <ele>270.6</ele>
        <time>2021-06-18T08:31:58Z</time>
      </trkpt>
      <trkpt lat="39.7851750" lon="2.7349680">
        <ele>272.7</ele>
        <time>2021-06-18T08:32:10Z</time>
      </trkpt>
      <trkpt lat="39.7851820" lon="2.7351490">
        <ele>273.8</ele>
        <time>2021-06-18T08:32:18Z</time>
      </trkpt>
      <trkpt lat="39.7851960" lon="2.7353620">
        <ele>275.0</ele>
        <time>2021-06-18T08:32:25Z</time>
      </trkpt>
      <trkpt lat="39.7852600" lon="2.7355600">
        <ele>276.1</ele>
        <time>2021-06-18T08:32:33Z</time>
      </trkpt>
      <trkpt lat="39.7852760" lon="2.7356220">
        <ele>276.4</ele>
        <time>2021-06-18T08:32:37Z</time>
      </trkpt>
      <trkpt lat="39.7852790" lon="2.7356330">
        <ele>276.5</ele>
        <time>2021-06-18T08:32:38Z</time>
      </trkpt>
      <trkpt lat="39.7853180" lon="2.7356880">
        <ele>276.9</ele>
        <time>2021-06-18T08:32:41Z</time>
      </trkpt>
      <trkpt lat="39.7853400" lon="2.7357260">
        <ele>277.1</ele>
        <time>2021-06-18T08:32:43Z</time>
      </trkpt>
      <trkpt lat="39.7853560" lon="2.7357750">
        <ele>277.3</ele>
        <time>2021-06-18T08:32:46Z</time>
      </trkpt>
      <trkpt lat="39.7853600" lon="2.7358010">
        <ele>277.5</ele>
        <time>2021-06-18T08:32:48Z</time>
      </trkpt>
      <trkpt lat="39.7853710" lon="2.7358180">
        <ele>277.6</ele>
        <time>2021-06-18T08:32:49Z</time>
      </trkpt>
      <trkpt lat="39.7853970" lon="2.7358440">
        <ele>277.8</ele>
        <time>2021-06-18T08:32:52Z</time>
      </trkpt>
      <trkpt lat="39.7854280" lon="2.7359020">
        <ele>278.1</ele>
        <time>2021-06-18T08:32:54Z</time>
      </trkpt>
      <trkpt lat="39.7854380" lon="2.7359380">
        <ele>278.3</ele>
        <time>2021-06-18T08:32:56Z</time>
      </trkpt>
      <trkpt lat="39.7854380" lon="2.7359380">
        <ele>278.3</ele>
        <time>2021-06-18T08:32:57Z</time>
      </trkpt>
      <trkpt lat="39.7854490" lon="2.7359810">
        <ele>278.5</ele>
        <time>2021-06-18T08:32:58Z</time>
      </trkpt>
      <trkpt lat="39.7854990" lon="2.7360780">
        <ele>279.1</ele>
        <time>2021-06-18T08:33:03Z</time>
      </trkpt>
      <trkpt lat="39.7855410" lon="2.7361650">
        <ele>279.6</ele>
        <time>2021-06-18T08:33:08Z</time>
      </trkpt>
      <trkpt lat="39.7855740" lon="2.7362410">
        <ele>280.1</ele>
        <time>2021-06-18T08:33:12Z</time>
      </trkpt>
      <trkpt lat="39.7856470" lon="2.7363970">
        <ele>281.1</ele>
        <time>2021-06-18T08:33:20Z</time>
      </trkpt>
      <trkpt lat="39.7857340" lon="2.7365860">
        <ele>282.4</ele>
        <time>2021-06-18T08:33:30Z</time>
      </trkpt>
      <trkpt lat="39.7857840" lon="2.7367190">
        <ele>283.2</ele>
        <time>2021-06-18T08:33:36Z</time>
      </trkpt>
      <trkpt lat="39.7858140" lon="2.7367990">
        <ele>283.8</ele>
        <time>2021-06-18T08:33:40Z</time>
      </trkpt>
      <trkpt lat="39.7858650" lon="2.7369110">
        <ele>284.5</ele>
        <time>2021-06-18T08:33:45Z</time>
      </trkpt>
      <trkpt lat="39.7858890" lon="2.7369760">
        <ele>285.0</ele>
        <time>2021-06-18T08:33:48Z</time>
      </trkpt>
      <trkpt lat="39.7859930" lon="2.7371720">
        <ele>286.5</ele>
        <time>2021-06-18T08:33:57Z</time>
      </trkpt>
      <trkpt lat="39.7860300" lon="2.7372630">
        <ele>287.2</ele>
        <time>2021-06-18T08:34:01Z</time>
      </trkpt>
      <trkpt lat="39.7860590" lon="2.7373480">
        <ele>287.8</ele>
        <time>2021-06-18T08:34:05Z</time>
      </trkpt>
      <trkpt lat="39.7861290" lon="2.7374610">
        <ele>288.6</ele>
        <time>2021-06-18T08:34:11Z</time>
      </trkpt>
      <trkpt lat="39.7861520" lon="2.7374900">
        <ele>288.9</ele>
        <time>2021-06-18T08:34:13Z</time>
      </trkpt>
      <trkpt lat="39.7862150" lon="2.7375730">
        <ele>289.5</ele>
        <time>2021-06-18T08:34:18Z</time>
      </trkpt>
      <trkpt lat="39.7862690" lon="2.7376190">
        <ele>290.0</ele>
        <time>2021-06-18T08:34:21Z</time>
      </trkpt>
      <trkpt lat="39.7863800" lon="2.7376870">
        <ele>290.8</ele>
        <time>2021-06-18T08:34:28Z</time>
      </trkpt>
      <trkpt lat="39.7864570" lon="2.7377100">
        <ele>291.3</ele>
        <time>2021-06-18T08:34:33Z</time>
      </trkpt>
      <trkpt lat="39.7865320" lon="2.7377530">
        <ele>291.8</ele>
        <time>2021-06-18T08:34:38Z</time>
      </trkpt>
      <trkpt lat="39.7865950" lon="2.7377910">
        <ele>292.3</ele>
        <time>2021-06-18T08:34:42Z</time>
      </trkpt>
      <trkpt lat="39.7866120" lon="2.7377980">
        <ele>292.4</ele>
        <time>2021-06-18T08:34:44Z</time>
      </trkpt>
      <trkpt lat="39.7866980" lon="2.7378510">
        <ele>293.0</ele>
        <time>2021-06-18T08:34:48Z</time>
      </trkpt>
      <trkpt lat="39.7867520" lon="2.7378810">
        <ele>293.4</ele>
        <time>2021-06-18T08:34:51Z</time>
      </trkpt>
      <trkpt lat="39.7870010" lon="2.7380160">
        <ele>295.4</ele>
        <time>2021-06-18T08:35:03Z</time>
      </trkpt>
      <trkpt lat="39.7870850" lon="2.7380580">
        <ele>296.0</ele>
        <time>2021-06-18T08:35:07Z</time>
      </trkpt>
      <trkpt lat="39.7872360" lon="2.7381370">
        <ele>297.3</ele>
        <time>2021-06-18T08:35:15Z</time>
      </trkpt>
      <trkpt lat="39.7874120" lon="2.7382270">
        <ele>298.8</ele>
        <time>2021-06-18T08:35:24Z</time>
      </trkpt>
      <trkpt lat="39.7876100" lon="2.7383410">
        <ele>300.7</ele>
        <time>2021-06-18T08:35:34Z</time>
      </trkpt>
      <trkpt lat="39.7877590" lon="2.7384030">
        <ele>302.1</ele>
        <time>2021-06-18T08:35:42Z</time>
      </trkpt>
      <trkpt lat="39.7879430" lon="2.7383320">
        <ele>303.7</ele>
        <time>2021-06-18T08:35:51Z</time>
      </trkpt>
      <trkpt lat="39.7880070" lon="2.7381750">
        <ele>304.8</ele>
        <time>2021-06-18T08:35:57Z</time>
      </trkpt>
      <trkpt lat="39.7879890" lon="2.7379270">
        <ele>306.3</ele>
        <time>2021-06-18T08:36:06Z</time>
      </trkpt>
      <trkpt lat="39.7878560" lon="2.7377740">
        <ele>307.6</ele>
        <time>2021-06-18T08:36:13Z</time>
      </trkpt>
      <trkpt lat="39.7876610" lon="2.7376660">
        <ele>309.1</ele>
        <time>2021-06-18T08:36:21Z</time>
      </trkpt>
      <trkpt lat="39.7875910" lon="2.7376380">
        <ele>309.7</ele>
        <time>2021-06-18T08:36:24Z</time>
      </trkpt>
      <trkpt lat="39.7875160" lon="2.7376050">
        <ele>310.3</ele>
        <time>2021-06-18T08:36:27Z</time>
      </trkpt>
      <trkpt lat="39.7873160" lon="2.7374780">
        <ele>311.9</ele>
        <time>2021-06-18T08:36:36Z</time>
      </trkpt>
      <trkpt lat="39.7870860" lon="2.7372960">
        <ele>313.8</ele>
        <time>2021-06-18T08:36:46Z</time>
      </trkpt>
      <trkpt lat="39.7869900" lon="2.7371610">
        <ele>314.9</ele>
        <time>2021-06-18T08:36:52Z</time>
      </trkpt>
      <trkpt lat="39.7869600" lon="2.7369700">
        <ele>316.1</ele>
        <time>2021-06-18T08:36:58Z</time>
      </trkpt>
      <trkpt lat="39.7869510" lon="2.7368720">
        <ele>316.7</ele>
        <time>2021-06-18T08:37:01Z</time>
      </trkpt>
      <trkpt lat="39.7869310" lon="2.7366930">
        <ele>317.7</ele>
        <time>2021-06-18T08:37:07Z</time>
      </trkpt>
      <trkpt lat="39.7869170" lon="2.7364880">
        <ele>318.9</ele>
        <time>2021-06-18T08:37:13Z</time>
      </trkpt>
      <trkpt lat="39.7869120" lon="2.7364200">
        <ele>319.3</ele>
        <time>2021-06-18T08:37:15Z</time>
      </trkpt>
      <trkpt lat="39.7868680" lon="2.7360940">
        <ele>321.3</ele>
        <time>2021-06-18T08:37:25Z</time>
      </trkpt>
      <trkpt lat="39.7868030" lon="2.7358380">
        <ele>322.9</ele>
        <time>2021-06-18T08:37:33Z</time>
      </trkpt>
      <trkpt lat="39.7867640" lon="2.7355900">
        <ele>324.3</ele>
        <time>2021-06-18T08:37:42Z</time>
      </trkpt>
      <trkpt lat="39.7867640" lon="2.7355900">
        <ele>324.3</ele>
        <time>2021-06-18T08:37:49Z</time>
      </trkpt>
      <trkpt lat="39.7867640" lon="2.7355900">
        <ele>324.3</ele>
        <time>2021-06-18T08:37:52Z</time>
      </trkpt>
      <trkpt lat="39.7867640" lon="2.7355900">
        <ele>324.3</ele>
        <time>2021-06-18T08:37:58Z</time>
      </trkpt>
      <trkpt lat="39.7867640" lon="2.7355900">
        <ele>324.3</ele>
        <time>2021-06-18T08:38:03Z</time>
      </trkpt>
      <trkpt lat="39.7867640" lon="2.7355900">
        <ele>324.3</ele>
        <time>2021-06-18T08:38:11Z</time>
      </trkpt>
      <trkpt lat="39.7867640" lon="2.7355900">
        <ele>324.3</ele>
        <time>2021-06-18T08:38:15Z</time>
      </trkpt>
      <trkpt lat="39.7867640" lon="2.7355900">
        <ele>324.3</ele>
        <time>2021-06-18T08:38:17Z</time>
      </trkpt>
      <trkpt lat="39.7867640" lon="2.7355900">
        <ele>324.3</ele>
        <time>2021-06-18T08:38:21Z</time>
      </trkpt>
      <trkpt lat="39.7867640" lon="2.7355900">
        <ele>324.3</ele>
        <time>2021-06-18T08:38:27Z</time>
      </trkpt>
      <trkpt lat="39.7867640" lon="2.7355900">
        <ele>324.3</ele>
        <time>2021-06-18T08:38:29Z</time>
      </trkpt>
      <trkpt lat="39.7867650" lon="2.7355880">
        <ele>324.3</ele>
        <time>2021-06-18T08:38:30Z</time>
      </trkpt>
      <trkpt lat="39.7867860" lon="2.7355320">
        <ele>324.6</ele>
        <time>2021-06-18T08:38:33Z</time>
      </trkpt>
      <trkpt lat="39.7867810" lon="2.7353120">
        <ele>325.8</ele>
        <time>2021-06-18T08:38:41Z</time>
      </trkpt>
      <trkpt lat="39.7867680" lon="2.7351010">
        <ele>327.0</ele>
        <time>2021-06-18T08:38:48Z</time>
      </trkpt>
      <trkpt lat="39.7867670" lon="2.7350500">
        <ele>327.3</ele>
        <time>2021-06-18T08:38:50Z</time>
      </trkpt>
      <trkpt lat="39.7867570" lon="2.7349080">
        <ele>328.1</ele>
        <time>2021-06-18T08:38:55Z</time>
      </trkpt>
      <trkpt lat="39.7867420" lon="2.7347070">
        <ele>329.3</ele>
        <time>2021-06-18T08:39:03Z</time>
      </trkpt>
      <trkpt lat="39.7867220" lon="2.7345200">
        <ele>330.4</ele>
        <time>2021-06-18T08:39:10Z</time>
      </trkpt>
      <trkpt lat="39.7867200" lon="2.7344660">
        <ele>330.7</ele>
        <time>2021-06-18T08:39:12Z</time>
      </trkpt>
      <trkpt lat="39.7867150" lon="2.7344130">
        <ele>331.0</ele>
        <time>2021-06-18T08:39:14Z</time>
      </trkpt>
      <trkpt lat="39.7867150" lon="2.7343590">
        <ele>331.3</ele>
        <time>2021-06-18T08:39:16Z</time>
      </trkpt>
      <trkpt lat="39.7867250" lon="2.7342320">
        <ele>332.0</ele>
        <time>2021-06-18T08:39:21Z</time>
      </trkpt>
      <trkpt lat="39.7867340" lon="2.7341300">
        <ele>332.5</ele>
        <time>2021-06-18T08:39:25Z</time>
      </trkpt>
      <trkpt lat="39.7867490" lon="2.7338810">
        <ele>333.8</ele>
        <time>2021-06-18T08:39:33Z</time>
      </trkpt>
      <trkpt lat="39.7867520" lon="2.7338310">
        <ele>334.0</ele>
        <time>2021-06-18T08:39:35Z</time>
      </trkpt>
      <trkpt lat="39.7867640" lon="2.7336240">
        <ele>335.1</ele>
        <time>2021-06-18T08:39:43Z</time>
      </trkpt>
      <trkpt lat="39.7867630" lon="2.7335730">
        <ele>335.4</ele>
        <time>2021-06-18T08:39:45Z</time>
      </trkpt>
      <trkpt lat="39.7867650" lon="2.7334720">
        <ele>335.9</ele>
        <time>2021-06-18T08:39:49Z</time>
      </trkpt>
      <trkpt lat="39.7867770" lon="2.7332490">
        <ele>337.0</ele>
        <time>2021-06-18T08:39:57Z</time>
      </trkpt>
      <trkpt lat="39.7867840" lon="2.7332000">
        <ele>337.2</ele>
        <time>2021-06-18T08:39:59Z</time>
      </trkpt>
      <trkpt lat="39.7867880" lon="2.7331140">
        <ele>337.6</ele>
        <time>2021-06-18T08:40:02Z</time>
      </trkpt>
      <trkpt lat="39.7867880" lon="2.7330600">
        <ele>337.9</ele>
        <time>2021-06-18T08:40:04Z</time>
      </trkpt>
      <trkpt lat="39.7868200" lon="2.7327890">
        <ele>339.1</ele>
        <time>2021-06-18T08:40:13Z</time>
      </trkpt>
      <trkpt lat="39.7868470" lon="2.7325420">
        <ele>340.4</ele>
        <time>2021-06-18T08:40:23Z</time>
      </trkpt>
      <trkpt lat="39.7868520" lon="2.7323940">
        <ele>341.2</ele>
        <time>2021-06-18T08:40:28Z</time>
      </trkpt>
      <trkpt lat="39.7868480" lon="2.7322880">
        <ele>341.7</ele>
        <time>2021-06-18T08:40:33Z</time>
      </trkpt>
      <trkpt lat="39.7868480" lon="2.7322410">
        <ele>341.9</ele>
        <time>2021-06-18T08:40:35Z</time>
      </trkpt>
      <trkpt lat="39.7868880" lon="2.7320910">
        <ele>342.7</ele>
        <time>2021-06-18T08:40:41Z</time>
      </trkpt>
      <trkpt lat="39.7869230" lon="2.7319990">
        <ele>343.2</ele>
        <time>2021-06-18T08:40:45Z</time>
      </trkpt>
      <trkpt lat="39.7869360" lon="2.7319490">
        <ele>343.5</ele>
        <time>2021-06-18T08:40:47Z</time>
      </trkpt>
      <trkpt lat="39.7870000" lon="2.7318660">
        <ele>344.3</ele>
        <time>2021-06-18T08:40:52Z</time>
      </trkpt>
      <trkpt lat="39.7870180" lon="2.7318430">
        <ele>344.5</ele>
        <time>2021-06-18T08:40:53Z</time>
      </trkpt>
      <trkpt lat="39.7870420" lon="2.7317770">
        <ele>345.0</ele>
        <time>2021-06-18T08:40:56Z</time>
      </trkpt>
      <trkpt lat="39.7870630" lon="2.7317390">
        <ele>345.3</ele>
        <time>2021-06-18T08:40:58Z</time>
      </trkpt>
      <trkpt lat="39.7871270" lon="2.7315460">
        <ele>346.8</ele>
        <time>2021-06-18T08:41:06Z</time>
      </trkpt>
      <trkpt lat="39.7871470" lon="2.7314200">
        <ele>347.6</ele>
        <time>2021-06-18T08:41:12Z</time>
      </trkpt>
      <trkpt lat="39.7871570" lon="2.7313110">
        <ele>348.2</ele>
        <time>2021-06-18T08:41:17Z</time>
      </trkpt>
      <trkpt lat="39.7871260" lon="2.7312130">
        <ele>348.8</ele>
        <time>2021-06-18T08:41:22Z</time>
      </trkpt>
      <trkpt lat="39.7871270" lon="2.7311950">
        <ele>348.9</ele>
        <time>2021-06-18T08:41:23Z</time>
      </trkpt>
      <trkpt lat="39.7870860" lon="2.7310330">
        <ele>349.7</ele>
        <time>2021-06-18T08:41:31Z</time>
      </trkpt>
      <trkpt lat="39.7870460" lon="2.7309110">
        <ele>350.3</ele>
        <time>2021-06-18T08:41:35Z</time>
      </trkpt>
      <trkpt lat="39.7870470" lon="2.7308900">
        <ele>350.4</ele>
        <time>2021-06-18T08:41:36Z</time>
      </trkpt>
      <trkpt lat="39.7870460" lon="2.7308830">
        <ele>350.4</ele>
        <time>2021-06-18T08:41:41Z</time>
      </trkpt>
      <trkpt lat="39.7870460" lon="2.7308830">
        <ele>350.4</ele>
        <time>2021-06-18T08:41:45Z</time>
      </trkpt>
      <trkpt lat="39.7870460" lon="2.7308830">
        <ele>350.4</ele>
        <time>2021-06-18T08:41:48Z</time>
      </trkpt>
      <trkpt lat="39.7870460" lon="2.7308830">
        <ele>350.4</ele>
        <time>2021-06-18T08:41:54Z</time>
      </trkpt>
      <trkpt lat="39.7870460" lon="2.7308830">
        <ele>350.4</ele>
        <time>2021-06-18T08:41:56Z</time>
      </trkpt>
      <trkpt lat="39.7870460" lon="2.7308830">
        <ele>350.4</ele>
        <time>2021-06-18T08:41:58Z</time>
      </trkpt>
      <trkpt lat="39.7870460" lon="2.7308830">
        <ele>350.4</ele>
        <time>2021-06-18T08:41:59Z</time>
      </trkpt>
      <trkpt lat="39.7870460" lon="2.7308830">
        <ele>350.4</ele>
        <time>2021-06-18T08:42:01Z</time>
      </trkpt>
      <trkpt lat="39.7870460" lon="2.7308830">
        <ele>350.4</ele>
        <time>2021-06-18T08:42:08Z</time>
      </trkpt>
      <trkpt lat="39.7870460" lon="2.7308830">
        <ele>350.4</ele>
        <time>2021-06-18T08:42:12Z</time>
      </trkpt>
      <trkpt lat="39.7870460" lon="2.7308830">
        <ele>350.4</ele>
        <time>2021-06-18T08:42:13Z</time>
      </trkpt>
      <trkpt lat="39.7870460" lon="2.7308830">
        <ele>350.4</ele>
        <time>2021-06-18T08:42:18Z</time>
      </trkpt>
      <trkpt lat="39.7870460" lon="2.7308830">
        <ele>350.4</ele>
        <time>2021-06-18T08:42:26Z</time>
      </trkpt>
      <trkpt lat="39.7870460" lon="2.7308830">
        <ele>350.4</ele>
        <time>2021-06-18T08:42:28Z</time>
      </trkpt>
      <trkpt lat="39.7870460" lon="2.7308830">
        <ele>350.4</ele>
        <time>2021-06-18T08:42:37Z</time>
      </trkpt>
      <trkpt lat="39.7870460" lon="2.7308830">
        <ele>350.4</ele>
        <time>2021-06-18T08:42:55Z</time>
      </trkpt>
      <trkpt lat="39.7870460" lon="2.7308830">
        <ele>350.4</ele>
        <time>2021-06-18T08:42:57Z</time>
      </trkpt>
      <trkpt lat="39.7870460" lon="2.7308830">
        <ele>350.4</ele>
        <time>2021-06-18T08:43:09Z</time>
      </trkpt>
      <trkpt lat="39.7870460" lon="2.7308830">
        <ele>350.4</ele>
        <time>2021-06-18T08:43:12Z</time>
      </trkpt>
      <trkpt lat="39.7870460" lon="2.7308830">
        <ele>350.4</ele>
        <time>2021-06-18T08:43:28Z</time>
      </trkpt>
      <trkpt lat="39.7870460" lon="2.7308830">
        <ele>350.4</ele>
        <time>2021-06-18T08:43:30Z</time>
      </trkpt>
      <trkpt lat="39.7870460" lon="2.7308830">
        <ele>350.4</ele>
        <time>2021-06-18T08:43:36Z</time>
      </trkpt>
      <trkpt lat="39.7870460" lon="2.7308830">
        <ele>350.4</ele>
        <time>2021-06-18T08:43:38Z</time>
      </trkpt>
      <trkpt lat="39.7870430" lon="2.7308830">
        <ele>350.5</ele>
        <time>2021-06-18T08:43:45Z</time>
      </trkpt>
      <trkpt lat="39.7870430" lon="2.7308830">
        <ele>350.5</ele>
        <time>2021-06-18T08:43:54Z</time>
      </trkpt>
      <trkpt lat="39.7870430" lon="2.7308830">
        <ele>350.5</ele>
        <time>2021-06-18T08:44:04Z</time>
      </trkpt>
      <trkpt lat="39.7870420" lon="2.7308820">
        <ele>350.5</ele>
        <time>2021-06-18T08:44:13Z</time>
      </trkpt>
      <trkpt lat="39.7870260" lon="2.7308760">
        <ele>350.6</ele>
        <time>2021-06-18T08:44:26Z</time>
      </trkpt>
      <trkpt lat="39.7870220" lon="2.7308750">
        <ele>350.6</ele>
        <time>2021-06-18T08:44:46Z</time>
      </trkpt>
      <trkpt lat="39.7870220" lon="2.7308750">
        <ele>350.6</ele>
        <time>2021-06-18T08:44:51Z</time>
      </trkpt>
      <trkpt lat="39.7870220" lon="2.7308750">
        <ele>350.6</ele>
        <time>2021-06-18T08:44:54Z</time>
      </trkpt>
      <trkpt lat="39.7870220" lon="2.7308720">
        <ele>350.6</ele>
        <time>2021-06-18T08:44:55Z</time>
      </trkpt>
      <trkpt lat="39.7870220" lon="2.7308700">
        <ele>350.6</ele>
        <time>2021-06-18T08:44:57Z</time>
      </trkpt>
      <trkpt lat="39.7870420" lon="2.7308540">
        <ele>350.8</ele>
        <time>2021-06-18T08:45:23Z</time>
      </trkpt>
      <trkpt lat="39.7870420" lon="2.7308540">
        <ele>350.8</ele>
        <time>2021-06-18T08:45:25Z</time>
      </trkpt>
      <trkpt lat="39.7870420" lon="2.7308540">
        <ele>350.8</ele>
        <time>2021-06-18T08:45:28Z</time>
      </trkpt>
      <trkpt lat="39.7870420" lon="2.7308540">
        <ele>350.8</ele>
        <time>2021-06-18T08:45:31Z</time>
      </trkpt>
      <trkpt lat="39.7870420" lon="2.7308540">
        <ele>350.8</ele>
        <time>2021-06-18T08:45:44Z</time>
      </trkpt>
      <trkpt lat="39.7870420" lon="2.7308540">
        <ele>350.8</ele>
        <time>2021-06-18T08:45:52Z</time>
      </trkpt>
      <trkpt lat="39.7870420" lon="2.7308540">
        <ele>350.8</ele>
        <time>2021-06-18T08:45:58Z</time>
      </trkpt>
      <trkpt lat="39.7870420" lon="2.7308540">
        <ele>350.8</ele>
        <time>2021-06-18T08:46:00Z</time>
      </trkpt>
      <trkpt lat="39.7870420" lon="2.7308540">
        <ele>350.8</ele>
        <time>2021-06-18T08:46:08Z</time>
      </trkpt>
      <trkpt lat="39.7870420" lon="2.7308540">
        <ele>350.8</ele>
        <time>2021-06-18T08:46:10Z</time>
      </trkpt>
      <trkpt lat="39.7870420" lon="2.7308540">
        <ele>350.8</ele>
        <time>2021-06-18T08:46:15Z</time>
      </trkpt>
      <trkpt lat="39.7870420" lon="2.7308540">
        <ele>350.8</ele>
        <time>2021-06-18T08:46:18Z</time>
      </trkpt>
      <trkpt lat="39.7870420" lon="2.7308540">
        <ele>350.8</ele>
        <time>2021-06-18T08:46:24Z</time>
      </trkpt>
      <trkpt lat="39.7870470" lon="2.7308480">
        <ele>350.8</ele>
        <time>2021-06-18T08:46:37Z</time>
      </trkpt>
      <trkpt lat="39.7870490" lon="2.7308460">
        <ele>350.8</ele>
        <time>2021-06-18T08:46:38Z</time>
      </trkpt>
      <trkpt lat="39.7870550" lon="2.7308380">
        <ele>350.9</ele>
        <time>2021-06-18T08:46:41Z</time>
      </trkpt>
      <trkpt lat="39.7870590" lon="2.7308010">
        <ele>351.2</ele>
        <time>2021-06-18T08:46:45Z</time>
      </trkpt>
      <trkpt lat="39.7870470" lon="2.7305350">
        <ele>352.6</ele>
        <time>2021-06-18T08:46:53Z</time>
      </trkpt>
      <trkpt lat="39.7870310" lon="2.7303830">
        <ele>353.5</ele>
        <time>2021-06-18T08:46:57Z</time>
      </trkpt>
      <trkpt lat="39.7870210" lon="2.7303070">
        <ele>353.9</ele>
        <time>2021-06-18T08:46:59Z</time>
      </trkpt>
      <trkpt lat="39.7870180" lon="2.7302730">
        <ele>354.1</ele>
        <time>2021-06-18T08:47:00Z</time>
      </trkpt>
      <trkpt lat="39.7870100" lon="2.7301710">
        <ele>354.7</ele>
        <time>2021-06-18T08:47:03Z</time>
      </trkpt>
      <trkpt lat="39.7869980" lon="2.7300350">
        <ele>355.5</ele>
        <time>2021-06-18T08:47:07Z</time>
      </trkpt>
      <trkpt lat="39.7870300" lon="2.7297470">
        <ele>357.1</ele>
        <time>2021-06-18T08:47:15Z</time>
      </trkpt>
      <trkpt lat="39.7870680" lon="2.7295810">
        <ele>358.1</ele>
        <time>2021-06-18T08:47:20Z</time>
      </trkpt>
      <trkpt lat="39.7871160" lon="2.7294280">
        <ele>359.2</ele>
        <time>2021-06-18T08:47:25Z</time>
      </trkpt>
      <trkpt lat="39.7871340" lon="2.7293400">
        <ele>359.8</ele>
        <time>2021-06-18T08:47:28Z</time>
      </trkpt>
      <trkpt lat="39.7871500" lon="2.7292750">
        <ele>360.3</ele>
        <time>2021-06-18T08:47:30Z</time>
      </trkpt>
      <trkpt lat="39.7871560" lon="2.7292420">
        <ele>360.5</ele>
        <time>2021-06-18T08:47:31Z</time>
      </trkpt>
      <trkpt lat="39.7871630" lon="2.7292110">
        <ele>360.7</ele>
        <time>2021-06-18T08:47:32Z</time>
      </trkpt>
      <trkpt lat="39.7871740" lon="2.7291450">
        <ele>361.2</ele>
        <time>2021-06-18T08:47:34Z</time>
      </trkpt>
      <trkpt lat="39.7871700" lon="2.7290730">
        <ele>361.6</ele>
        <time>2021-06-18T08:47:36Z</time>
      </trkpt>
      <trkpt lat="39.7871610" lon="2.7290070">
        <ele>362.1</ele>
        <time>2021-06-18T08:47:38Z</time>
      </trkpt>
      <trkpt lat="39.7871260" lon="2.7289210">
        <ele>362.6</ele>
        <time>2021-06-18T08:47:41Z</time>
      </trkpt>
      <trkpt lat="39.7871140" lon="2.7288970">
        <ele>362.8</ele>
        <time>2021-06-18T08:47:42Z</time>
      </trkpt>
      <trkpt lat="39.7870950" lon="2.7288750">
        <ele>362.9</ele>
        <time>2021-06-18T08:47:43Z</time>
      </trkpt>
      <trkpt lat="39.7870190" lon="2.7287800">
        <ele>363.6</ele>
        <time>2021-06-18T08:47:47Z</time>
      </trkpt>
      <trkpt lat="39.7869530" lon="2.7287100">
        <ele>364.1</ele>
        <time>2021-06-18T08:47:50Z</time>
      </trkpt>
      <trkpt lat="39.7868570" lon="2.7286280">
        <ele>364.8</ele>
        <time>2021-06-18T08:47:54Z</time>
      </trkpt>
      <trkpt lat="39.7868020" lon="2.7285930">
        <ele>365.1</ele>
        <time>2021-06-18T08:47:56Z</time>
      </trkpt>
      <trkpt lat="39.7867840" lon="2.7285790">
        <ele>365.3</ele>
        <time>2021-06-18T08:47:57Z</time>
      </trkpt>
      <trkpt lat="39.7867410" lon="2.7285340">
        <ele>365.6</ele>
        <time>2021-06-18T08:47:59Z</time>
      </trkpt>
      <trkpt lat="39.7867190" lon="2.7285150">
        <ele>365.8</ele>
        <time>2021-06-18T08:48:00Z</time>
      </trkpt>
      <trkpt lat="39.7866970" lon="2.7284960">
        <ele>365.9</ele>
        <time>2021-06-18T08:48:01Z</time>
      </trkpt>
      <trkpt lat="39.7866780" lon="2.7284800">
        <ele>366.1</ele>
        <time>2021-06-18T08:48:02Z</time>
      </trkpt>
      <trkpt lat="39.7866550" lon="2.7284660">
        <ele>366.2</ele>
        <time>2021-06-18T08:48:03Z</time>
      </trkpt>
      <trkpt lat="39.7866320" lon="2.7284530">
        <ele>366.4</ele>
        <time>2021-06-18T08:48:04Z</time>
      </trkpt>
      <trkpt lat="39.7866110" lon="2.7284350">
        <ele>366.6</ele>
        <time>2021-06-18T08:48:05Z</time>
      </trkpt>
      <trkpt lat="39.7865720" lon="2.7283970">
        <ele>366.9</ele>
        <time>2021-06-18T08:48:07Z</time>
      </trkpt>
      <trkpt lat="39.7864660" lon="2.7282460">
        <ele>368.1</ele>
        <time>2021-06-18T08:48:14Z</time>
      </trkpt>
      <trkpt lat="39.7863430" lon="2.7281200">
        <ele>369.3</ele>
        <time>2021-06-18T08:48:20Z</time>
      </trkpt>
      <trkpt lat="39.7861030" lon="2.7279010">
        <ele>371.5</ele>
        <time>2021-06-18T08:48:30Z</time>
      </trkpt>
      <trkpt lat="39.7859800" lon="2.7277610">
        <ele>372.7</ele>
        <time>2021-06-18T08:48:36Z</time>
      </trkpt>
      <trkpt lat="39.7858870" lon="2.7276760">
        <ele>373.6</ele>
        <time>2021-06-18T08:48:40Z</time>
      </trkpt>
      <trkpt lat="39.7857820" lon="2.7274460">
        <ele>375.1</ele>
        <time>2021-06-18T08:48:48Z</time>
      </trkpt>
      <trkpt lat="39.7857400" lon="2.7273430">
        <ele>375.8</ele>
        <time>2021-06-18T08:48:51Z</time>
      </trkpt>
      <trkpt lat="39.7857330" lon="2.7272570">
        <ele>376.3</ele>
        <time>2021-06-18T08:48:54Z</time>
      </trkpt>
      <trkpt lat="39.7857250" lon="2.7270030">
        <ele>377.8</ele>
        <time>2021-06-18T08:49:01Z</time>
      </trkpt>
      <trkpt lat="39.7857280" lon="2.7268930">
        <ele>378.5</ele>
        <time>2021-06-18T08:49:04Z</time>
      </trkpt>
      <trkpt lat="39.7857330" lon="2.7267900">
        <ele>379.1</ele>
        <time>2021-06-18T08:49:07Z</time>
      </trkpt>
      <trkpt lat="39.7858600" lon="2.7264670">
        <ele>381.2</ele>
        <time>2021-06-18T08:49:17Z</time>
      </trkpt>
      <trkpt lat="39.7860350" lon="2.7262540">
        <ele>383.0</ele>
        <time>2021-06-18T08:49:26Z</time>
      </trkpt>
      <trkpt lat="39.7861500" lon="2.7261820">
        <ele>384.0</ele>
        <time>2021-06-18T08:49:31Z</time>
      </trkpt>
      <trkpt lat="39.7862270" lon="2.7261600">
        <ele>384.6</ele>
        <time>2021-06-18T08:49:34Z</time>
      </trkpt>
      <trkpt lat="39.7863990" lon="2.7261360">
        <ele>385.9</ele>
        <time>2021-06-18T08:49:40Z</time>
      </trkpt>
      <trkpt lat="39.7865660" lon="2.7261420">
        <ele>387.2</ele>
        <time>2021-06-18T08:49:46Z</time>
      </trkpt>
      <trkpt lat="39.7865960" lon="2.7261540">
        <ele>387.4</ele>
        <time>2021-06-18T08:49:47Z</time>
      </trkpt>
      <trkpt lat="39.7867940" lon="2.7262260">
        <ele>388.7</ele>
        <time>2021-06-18T08:49:54Z</time>
      </trkpt>
      <trkpt lat="39.7868260" lon="2.7262440">
        <ele>388.9</ele>
        <time>2021-06-18T08:49:55Z</time>
      </trkpt>
      <trkpt lat="39.7869440" lon="2.7262950">
        <ele>389.5</ele>
        <time>2021-06-18T08:49:59Z</time>
      </trkpt>
      <trkpt lat="39.7871140" lon="2.7263660">
        <ele>390.0</ele>
        <time>2021-06-18T08:50:05Z</time>
      </trkpt>
      <trkpt lat="39.7872740" lon="2.7264360">
        <ele>390.3</ele>
        <time>2021-06-18T08:50:10Z</time>
      </trkpt>
      <trkpt lat="39.7873900" lon="2.7264920">
        <ele>390.5</ele>
        <time>2021-06-18T08:50:14Z</time>
      </trkpt>
      <trkpt lat="39.7875690" lon="2.7265590">
        <ele>390.6</ele>
        <time>2021-06-18T08:50:20Z</time>
      </trkpt>
      <trkpt lat="39.7876670" lon="2.7265780">
        <ele>390.7</ele>
        <time>2021-06-18T08:50:23Z</time>
      </trkpt>
      <trkpt lat="39.7877290" lon="2.7265860">
        <ele>390.7</ele>
        <time>2021-06-18T08:50:28Z</time>
      </trkpt>
      <trkpt lat="39.7877290" lon="2.7265860">
        <ele>390.7</ele>
        <time>2021-06-18T08:50:31Z</time>
      </trkpt>
      <trkpt lat="39.7877290" lon="2.7265860">
        <ele>390.7</ele>
        <time>2021-06-18T08:50:37Z</time>
      </trkpt>
      <trkpt lat="39.7877290" lon="2.7265860">
        <ele>390.7</ele>
        <time>2021-06-18T08:50:41Z</time>
      </trkpt>
      <trkpt lat="39.7877290" lon="2.7265860">
        <ele>390.7</ele>
        <time>2021-06-18T08:50:43Z</time>
      </trkpt>
      <trkpt lat="39.7877290" lon="2.7265860">
        <ele>390.7</ele>
        <time>2021-06-18T08:50:44Z</time>
      </trkpt>
      <trkpt lat="39.7877290" lon="2.7265860">
        <ele>390.7</ele>
        <time>2021-06-18T08:50:46Z</time>
      </trkpt>
      <trkpt lat="39.7877290" lon="2.7265860">
        <ele>390.7</ele>
        <time>2021-06-18T08:50:56Z</time>
      </trkpt>
      <trkpt lat="39.7877290" lon="2.7265860">
        <ele>390.7</ele>
        <time>2021-06-18T08:50:58Z</time>
      </trkpt>
      <trkpt lat="39.7877290" lon="2.7265860">
        <ele>390.7</ele>
        <time>2021-06-18T08:51:00Z</time>
      </trkpt>
      <trkpt lat="39.7877290" lon="2.7265860">
        <ele>390.7</ele>
        <time>2021-06-18T08:51:04Z</time>
      </trkpt>
      <trkpt lat="39.7877290" lon="2.7265860">
        <ele>390.7</ele>
        <time>2021-06-18T08:51:26Z</time>
      </trkpt>
      <trkpt lat="39.7877290" lon="2.7265860">
        <ele>390.7</ele>
        <time>2021-06-18T08:51:44Z</time>
      </trkpt>
      <trkpt lat="39.7877290" lon="2.7265860">
        <ele>390.7</ele>
        <time>2021-06-18T08:51:51Z</time>
      </trkpt>
      <trkpt lat="39.7877290" lon="2.7265860">
        <ele>390.7</ele>
        <time>2021-06-18T08:52:05Z</time>
      </trkpt>
      <trkpt lat="39.7877290" lon="2.7265860">
        <ele>390.7</ele>
        <time>2021-06-18T08:52:10Z</time>
      </trkpt>
      <trkpt lat="39.7877290" lon="2.7265860">
        <ele>390.7</ele>
        <time>2021-06-18T08:52:12Z</time>
      </trkpt>
      <trkpt lat="39.7877290" lon="2.7265860">
        <ele>390.7</ele>
        <time>2021-06-18T08:52:19Z</time>
      </trkpt>
      <trkpt lat="39.7877290" lon="2.7265860">
        <ele>390.7</ele>
        <time>2021-06-18T08:52:25Z</time>
      </trkpt>
      <trkpt lat="39.7877290" lon="2.7265860">
        <ele>390.7</ele>
        <time>2021-06-18T08:52:32Z</time>
      </trkpt>
      <trkpt lat="39.7877290" lon="2.7265860">
        <ele>390.7</ele>
        <time>2021-06-18T08:52:34Z</time>
      </trkpt>
      <trkpt lat="39.7877290" lon="2.7265860">
        <ele>390.7</ele>
        <time>2021-06-18T08:52:38Z</time>
      </trkpt>
      <trkpt lat="39.7877280" lon="2.7265870">
        <ele>390.7</ele>
        <time>2021-06-18T08:52:48Z</time>
      </trkpt>
      <trkpt lat="39.7877280" lon="2.7265880">
        <ele>390.7</ele>
        <time>2021-06-18T08:52:49Z</time>
      </trkpt>
      <trkpt lat="39.7877280" lon="2.7265880">
        <ele>390.7</ele>
        <time>2021-06-18T08:52:54Z</time>
      </trkpt>
      <trkpt lat="39.7877530" lon="2.7265880">
        <ele>390.7</ele>
        <time>2021-06-18T08:53:04Z</time>
      </trkpt>
      <trkpt lat="39.7878120" lon="2.7265900">
        <ele>390.6</ele>
        <time>2021-06-18T08:53:06Z</time>
      </trkpt>
      <trkpt lat="39.7880330" lon="2.7265920">
        <ele>390.5</ele>
        <time>2021-06-18T08:53:13Z</time>
      </trkpt>
      <trkpt lat="39.7882720" lon="2.7266070">
        <ele>390.4</ele>
        <time>2021-06-18T08:53:21Z</time>
      </trkpt>
      <trkpt lat="39.7885040" lon="2.7266340">
        <ele>390.4</ele>
        <time>2021-06-18T08:53:28Z</time>
      </trkpt>
      <trkpt lat="39.7886750" lon="2.7266360">
        <ele>390.3</ele>
        <time>2021-06-18T08:53:33Z</time>
      </trkpt>
      <trkpt lat="39.7887820" lon="2.7266380">
        <ele>390.3</ele>
        <time>2021-06-18T08:53:36Z</time>
      </trkpt>
      <trkpt lat="39.7890560" lon="2.7266590">
        <ele>390.2</ele>
        <time>2021-06-18T08:53:43Z</time>
      </trkpt>
      <trkpt lat="39.7893410" lon="2.7266740">
        <ele>390.4</ele>
        <time>2021-06-18T08:53:51Z</time>
      </trkpt>
      <trkpt lat="39.7896550" lon="2.7266950">
        <ele>391.0</ele>
        <time>2021-06-18T08:54:00Z</time>
      </trkpt>
      <trkpt lat="39.7896860" lon="2.7266960">
        <ele>391.0</ele>
        <time>2021-06-18T08:54:01Z</time>
      </trkpt>
      <trkpt lat="39.7897550" lon="2.7266950">
        <ele>391.2</ele>
        <time>2021-06-18T08:54:03Z</time>
      </trkpt>
      <trkpt lat="39.7898590" lon="2.7266740">
        <ele>391.4</ele>
        <time>2021-06-18T08:54:06Z</time>
      </trkpt>
      <trkpt lat="39.7899310" lon="2.7266440">
        <ele>391.6</ele>
        <time>2021-06-18T08:54:08Z</time>
      </trkpt>
      <trkpt lat="39.7900410" lon="2.7265360">
        <ele>392.1</ele>
        <time>2021-06-18T08:54:12Z</time>
      </trkpt>
      <trkpt lat="39.7901020" lon="2.7264230">
        <ele>392.5</ele>
        <time>2021-06-18T08:54:15Z</time>
      </trkpt>
      <trkpt lat="39.7901310" lon="2.7263420">
        <ele>392.8</ele>
        <time>2021-06-18T08:54:18Z</time>
      </trkpt>
      <trkpt lat="39.7901720" lon="2.7260500">
        <ele>393.8</ele>
        <time>2021-06-18T08:54:24Z</time>
      </trkpt>
      <trkpt lat="39.7902140" lon="2.7258070">
        <ele>395.0</ele>
        <time>2021-06-18T08:54:30Z</time>
      </trkpt>
      <trkpt lat="39.7902340" lon="2.7256260">
        <ele>396.1</ele>
        <time>2021-06-18T08:54:35Z</time>
      </trkpt>
      <trkpt lat="39.7902720" lon="2.7254330">
        <ele>397.3</ele>
        <time>2021-06-18T08:54:41Z</time>
      </trkpt>
      <trkpt lat="39.7903460" lon="2.7252660">
        <ele>398.6</ele>
        <time>2021-06-18T08:54:46Z</time>
      </trkpt>
      <trkpt lat="39.7903680" lon="2.7252410">
        <ele>398.9</ele>
        <time>2021-06-18T08:54:47Z</time>
      </trkpt>
      <trkpt lat="39.7905260" lon="2.7251890">
        <ele>400.4</ele>
        <time>2021-06-18T08:54:53Z</time>
      </trkpt>
      <trkpt lat="39.7906670" lon="2.7252880">
        <ele>402.1</ele>
        <time>2021-06-18T08:55:00Z</time>
      </trkpt>
      <trkpt lat="39.7907020" lon="2.7253190">
        <ele>402.3</ele>
        <time>2021-06-18T08:55:03Z</time>
      </trkpt>
      <trkpt lat="39.7907180" lon="2.7253920">
        <ele>402.7</ele>
        <time>2021-06-18T08:55:05Z</time>
      </trkpt>
      <trkpt lat="39.7907050" lon="2.7254100">
        <ele>403.1</ele>
        <time>2021-06-18T08:55:06Z</time>
      </trkpt>
      <trkpt lat="39.7906810" lon="2.7254490">
        <ele>403.4</ele>
        <time>2021-06-18T08:55:08Z</time>
      </trkpt>
      <trkpt lat="39.7906860" lon="2.7254920">
        <ele>403.6</ele>
        <time>2021-06-18T08:55:10Z</time>
      </trkpt>
      <trkpt lat="39.7907360" lon="2.7255660">
        <ele>404.2</ele>
        <time>2021-06-18T08:55:14Z</time>
      </trkpt>
      <trkpt lat="39.7907320" lon="2.7255930">
        <ele>404.4</ele>
        <time>2021-06-18T08:55:15Z</time>
      </trkpt>
      <trkpt lat="39.7907140" lon="2.7257030">
        <ele>405.1</ele>
        <time>2021-06-18T08:55:19Z</time>
      </trkpt>
      <trkpt lat="39.7907270" lon="2.7257210">
        <ele>405.3</ele>
        <time>2021-06-18T08:55:20Z</time>
      </trkpt>
      <trkpt lat="39.7907440" lon="2.7257670">
        <ele>405.6</ele>
        <time>2021-06-18T08:55:22Z</time>
      </trkpt>
      <trkpt lat="39.7907310" lon="2.7258200">
        <ele>406.0</ele>
        <time>2021-06-18T08:55:24Z</time>
      </trkpt>
      <trkpt lat="39.7907130" lon="2.7259610">
        <ele>407.0</ele>
        <time>2021-06-18T08:55:29Z</time>
      </trkpt>
      <trkpt lat="39.7907190" lon="2.7259880">
        <ele>407.2</ele>
        <time>2021-06-18T08:55:30Z</time>
      </trkpt>
      <trkpt lat="39.7906990" lon="2.7261460">
        <ele>408.3</ele>
        <time>2021-06-18T08:55:36Z</time>
      </trkpt>
      <trkpt lat="39.7906750" lon="2.7264140">
        <ele>410.0</ele>
        <time>2021-06-18T08:55:45Z</time>
      </trkpt>
      <trkpt lat="39.7906810" lon="2.7266480">
        <ele>411.3</ele>
        <time>2021-06-18T08:55:53Z</time>
      </trkpt>
      <trkpt lat="39.7907170" lon="2.7268560">
        <ele>412.5</ele>
        <time>2021-06-18T08:56:00Z</time>
      </trkpt>
      <trkpt lat="39.7907210" lon="2.7268940">
        <ele>412.7</ele>
        <time>2021-06-18T08:56:01Z</time>
      </trkpt>
      <trkpt lat="39.7907610" lon="2.7269980">
        <ele>413.3</ele>
        <time>2021-06-18T08:56:05Z</time>
      </trkpt>
      <trkpt lat="39.7907680" lon="2.7270270">
        <ele>413.5</ele>
        <time>2021-06-18T08:56:06Z</time>
      </trkpt>
      <trkpt lat="39.7907700" lon="2.7271420">
        <ele>414.2</ele>
        <time>2021-06-18T08:56:10Z</time>
      </trkpt>
      <trkpt lat="39.7907890" lon="2.7273260">
        <ele>415.3</ele>
        <time>2021-06-18T08:56:16Z</time>
      </trkpt>
      <trkpt lat="39.7907840" lon="2.7273570">
        <ele>415.5</ele>
        <time>2021-06-18T08:56:17Z</time>
      </trkpt>
      <trkpt lat="39.7907590" lon="2.7274250">
        <ele>416.0</ele>
        <time>2021-06-18T08:56:20Z</time>
      </trkpt>
      <trkpt lat="39.7907260" lon="2.7275200">
        <ele>416.6</ele>
        <time>2021-06-18T08:56:24Z</time>
      </trkpt>
      <trkpt lat="39.7906870" lon="2.7275610">
        <ele>417.0</ele>
        <time>2021-06-18T08:56:26Z</time>
      </trkpt>
      <trkpt lat="39.7906030" lon="2.7276150">
        <ele>417.8</ele>
        <time>2021-06-18T08:56:30Z</time>
      </trkpt>
      <trkpt lat="39.7905540" lon="2.7276210">
        <ele>418.2</ele>
        <time>2021-06-18T08:56:32Z</time>
      </trkpt>
      <trkpt lat="39.7904600" lon="2.7276740">
        <ele>419.1</ele>
        <time>2021-06-18T08:56:37Z</time>
      </trkpt>
      <trkpt lat="39.7902660" lon="2.7277280">
        <ele>420.9</ele>
        <time>2021-06-18T08:56:45Z</time>
      </trkpt>
      <trkpt lat="39.7902220" lon="2.7277460">
        <ele>421.3</ele>
        <time>2021-06-18T08:56:47Z</time>
      </trkpt>
      <trkpt lat="39.7901570" lon="2.7277760">
        <ele>421.9</ele>
        <time>2021-06-18T08:56:50Z</time>
      </trkpt>
      <trkpt lat="39.7900120" lon="2.7278280">
        <ele>423.1</ele>
        <time>2021-06-18T08:56:56Z</time>
      </trkpt>
      <trkpt lat="39.7898140" lon="2.7278840">
        <ele>424.8</ele>
        <time>2021-06-18T08:57:04Z</time>
      </trkpt>
      <trkpt lat="39.7896750" lon="2.7279340">
        <ele>426.0</ele>
        <time>2021-06-18T08:57:10Z</time>
      </trkpt>
      <trkpt lat="39.7895280" lon="2.7279760">
        <ele>427.2</ele>
        <time>2021-06-18T08:57:16Z</time>
      </trkpt>
      <trkpt lat="39.7893520" lon="2.7279710">
        <ele>428.6</ele>
        <time>2021-06-18T08:57:23Z</time>
      </trkpt>
      <trkpt lat="39.7891800" lon="2.7279910">
        <ele>430.0</ele>
        <time>2021-06-18T08:57:30Z</time>
      </trkpt>
      <trkpt lat="39.7890430" lon="2.7280830">
        <ele>431.3</ele>
        <time>2021-06-18T08:57:37Z</time>
      </trkpt>
      <trkpt lat="39.7889520" lon="2.7282210">
        <ele>432.3</ele>
        <time>2021-06-18T08:57:43Z</time>
      </trkpt>
      <trkpt lat="39.7889180" lon="2.7284080">
        <ele>433.3</ele>
        <time>2021-06-18T08:57:49Z</time>
      </trkpt>
      <trkpt lat="39.7888850" lon="2.7287180">
        <ele>434.8</ele>
        <time>2021-06-18T08:57:58Z</time>
      </trkpt>
      <trkpt lat="39.7888810" lon="2.7287430">
        <ele>434.9</ele>
        <time>2021-06-18T08:58:02Z</time>
      </trkpt>
      <trkpt lat="39.7888810" lon="2.7287430">
        <ele>434.9</ele>
        <time>2021-06-18T08:58:07Z</time>
      </trkpt>
      <trkpt lat="39.7888810" lon="2.7287430">
        <ele>434.9</ele>
        <time>2021-06-18T08:58:20Z</time>
      </trkpt>
      <trkpt lat="39.7888810" lon="2.7287430">
        <ele>434.9</ele>
        <time>2021-06-18T08:58:23Z</time>
      </trkpt>
      <trkpt lat="39.7888810" lon="2.7287430">
        <ele>434.9</ele>
        <time>2021-06-18T08:58:31Z</time>
      </trkpt>
      <trkpt lat="39.7888810" lon="2.7287430">
        <ele>434.9</ele>
        <time>2021-06-18T08:58:34Z</time>
      </trkpt>
      <trkpt lat="39.7888810" lon="2.7287430">
        <ele>434.9</ele>
        <time>2021-06-18T08:58:37Z</time>
      </trkpt>
      <trkpt lat="39.7888810" lon="2.7287430">
        <ele>434.9</ele>
        <time>2021-06-18T08:58:40Z</time>
      </trkpt>
      <trkpt lat="39.7888810" lon="2.7287430">
        <ele>434.9</ele>
        <time>2021-06-18T08:58:42Z</time>
      </trkpt>
      <trkpt lat="39.7888810" lon="2.7287430">
        <ele>434.9</ele>
        <time>2021-06-18T08:58:47Z</time>
      </trkpt>
      <trkpt lat="39.7888810" lon="2.7287430">
        <ele>434.9</ele>
        <time>2021-06-18T08:58:51Z</time>
      </trkpt>
      <trkpt lat="39.7888810" lon="2.7287430">
        <ele>434.9</ele>
        <time>2021-06-18T08:59:07Z</time>
      </trkpt>
      <trkpt lat="39.7888810" lon="2.7287430">
        <ele>434.9</ele>
        <time>2021-06-18T08:59:13Z</time>
      </trkpt>
      <trkpt lat="39.7888810" lon="2.7287430">
        <ele>434.9</ele>
        <time>2021-06-18T08:59:20Z</time>
      </trkpt>
      <trkpt lat="39.7888810" lon="2.7287430">
        <ele>434.9</ele>
        <time>2021-06-18T08:59:31Z</time>
      </trkpt>
      <trkpt lat="39.7888810" lon="2.7287430">
        <ele>434.9</ele>
        <time>2021-06-18T08:59:34Z</time>
      </trkpt>
      <trkpt lat="39.7888820" lon="2.7287330">
        <ele>435.0</ele>
        <time>2021-06-18T09:00:00Z</time>
      </trkpt>
      <trkpt lat="39.7888820" lon="2.7287330">
        <ele>435.0</ele>
        <time>2021-06-18T09:00:04Z</time>
      </trkpt>
      <trkpt lat="39.7888820" lon="2.7287330">
        <ele>435.0</ele>
        <time>2021-06-18T09:00:09Z</time>
      </trkpt>
      <trkpt lat="39.7888820" lon="2.7287330">
        <ele>435.0</ele>
        <time>2021-06-18T09:00:15Z</time>
      </trkpt>
      <trkpt lat="39.7888780" lon="2.7287530">
        <ele>435.1</ele>
        <time>2021-06-18T09:00:18Z</time>
      </trkpt>
      <trkpt lat="39.7888760" lon="2.7288000">
        <ele>435.4</ele>
        <time>2021-06-18T09:00:21Z</time>
      </trkpt>
      <trkpt lat="39.7888630" lon="2.7289510">
        <ele>436.2</ele>
        <time>2021-06-18T09:00:27Z</time>
      </trkpt>
      <trkpt lat="39.7888480" lon="2.7291060">
        <ele>437.0</ele>
        <time>2021-06-18T09:00:32Z</time>
      </trkpt>
      <trkpt lat="39.7888440" lon="2.7291390">
        <ele>437.2</ele>
        <time>2021-06-18T09:00:33Z</time>
      </trkpt>
      <trkpt lat="39.7888070" lon="2.7294130">
        <ele>438.7</ele>
        <time>2021-06-18T09:00:41Z</time>
      </trkpt>
      <trkpt lat="39.7887820" lon="2.7296600">
        <ele>440.2</ele>
        <time>2021-06-18T09:00:48Z</time>
      </trkpt>
      <trkpt lat="39.7887680" lon="2.7297830">
        <ele>441.0</ele>
        <time>2021-06-18T09:00:52Z</time>
      </trkpt>
      <trkpt lat="39.7887630" lon="2.7298440">
        <ele>441.4</ele>
        <time>2021-06-18T09:00:54Z</time>
      </trkpt>
      <trkpt lat="39.7887610" lon="2.7299390">
        <ele>442.0</ele>
        <time>2021-06-18T09:00:57Z</time>
      </trkpt>
      <trkpt lat="39.7887790" lon="2.7301880">
        <ele>443.7</ele>
        <time>2021-06-18T09:01:05Z</time>
      </trkpt>
      <trkpt lat="39.7887790" lon="2.7301880">
        <ele>443.7</ele>
        <time>2021-06-18T09:01:06Z</time>
      </trkpt>
      <trkpt lat="39.7888020" lon="2.7302760">
        <ele>444.3</ele>
        <time>2021-06-18T09:01:08Z</time>
      </trkpt>
      <trkpt lat="39.7888280" lon="2.7303310">
        <ele>444.7</ele>
        <time>2021-06-18T09:01:11Z</time>
      </trkpt>
      <trkpt lat="39.7888650" lon="2.7304260">
        <ele>445.3</ele>
        <time>2021-06-18T09:01:13Z</time>
      </trkpt>
      <trkpt lat="39.7889150" lon="2.7305100">
        <ele>445.8</ele>
        <time>2021-06-18T09:01:16Z</time>
      </trkpt>
      <trkpt lat="39.7890060" lon="2.7306300">
        <ele>446.6</ele>
        <time>2021-06-18T09:01:21Z</time>
      </trkpt>
      <trkpt lat="39.7891180" lon="2.7308180">
        <ele>447.7</ele>
        <time>2021-06-18T09:01:28Z</time>
      </trkpt>
      <trkpt lat="39.7892740" lon="2.7310930">
        <ele>449.4</ele>
        <time>2021-06-18T09:01:39Z</time>
      </trkpt>
      <trkpt lat="39.7893540" lon="2.7312310">
        <ele>450.3</ele>
        <time>2021-06-18T09:01:44Z</time>
      </trkpt>
      <trkpt lat="39.7894350" lon="2.7313650">
        <ele>451.2</ele>
        <time>2021-06-18T09:01:49Z</time>
      </trkpt>
      <trkpt lat="39.7895670" lon="2.7316210">
        <ele>452.9</ele>
        <time>2021-06-18T09:01:58Z</time>
      </trkpt>
      <trkpt lat="39.7896180" lon="2.7317360">
        <ele>453.6</ele>
        <time>2021-06-18T09:02:02Z</time>
      </trkpt>
      <trkpt lat="39.7896610" lon="2.7318310">
        <ele>454.1</ele>
        <time>2021-06-18T09:02:05Z</time>
      </trkpt>
      <trkpt lat="39.7896860" lon="2.7318850">
        <ele>454.5</ele>
        <time>2021-06-18T09:02:07Z</time>
      </trkpt>
      <trkpt lat="39.7897000" lon="2.7319150">
        <ele>454.6</ele>
        <time>2021-06-18T09:02:08Z</time>
      </trkpt>
      <trkpt lat="39.7898210" lon="2.7322220">
        <ele>456.6</ele>
        <time>2021-06-18T09:02:18Z</time>
      </trkpt>
      <trkpt lat="39.7899790" lon="2.7325490">
        <ele>459.0</ele>
        <time>2021-06-18T09:02:29Z</time>
      </trkpt>
      <trkpt lat="39.7901280" lon="2.7327130">
        <ele>460.6</ele>
        <time>2021-06-18T09:02:37Z</time>
      </trkpt>
      <trkpt lat="39.7902800" lon="2.7327350">
        <ele>461.8</ele>
        <time>2021-06-18T09:02:43Z</time>
      </trkpt>
      <trkpt lat="39.7904370" lon="2.7326360">
        <ele>463.1</ele>
        <time>2021-06-18T09:02:49Z</time>
      </trkpt>
      <trkpt lat="39.7905680" lon="2.7324650">
        <ele>464.3</ele>
        <time>2021-06-18T09:02:55Z</time>
      </trkpt>
      <trkpt lat="39.7907440" lon="2.7321650">
        <ele>465.9</ele>
        <time>2021-06-18T09:03:05Z</time>
      </trkpt>
      <trkpt lat="39.7909450" lon="2.7318350">
        <ele>467.6</ele>
        <time>2021-06-18T09:03:14Z</time>
      </trkpt>
      <trkpt lat="39.7911260" lon="2.7316580">
        <ele>468.5</ele>
        <time>2021-06-18T09:03:21Z</time>
      </trkpt>
      <trkpt lat="39.7913830" lon="2.7315600">
        <ele>469.4</ele>
        <time>2021-06-18T09:03:28Z</time>
      </trkpt>
      <trkpt lat="39.7916440" lon="2.7316130">
        <ele>470.2</ele>
        <time>2021-06-18T09:03:35Z</time>
      </trkpt>
      <trkpt lat="39.7917180" lon="2.7316350">
        <ele>470.5</ele>
        <time>2021-06-18T09:03:37Z</time>
      </trkpt>
      <trkpt lat="39.7918230" lon="2.7316820">
        <ele>470.8</ele>
        <time>2021-06-18T09:03:40Z</time>
      </trkpt>
      <trkpt lat="39.7919180" lon="2.7317310">
        <ele>471.1</ele>
        <time>2021-06-18T09:03:43Z</time>
      </trkpt>
      <trkpt lat="39.7922280" lon="2.7318700">
        <ele>472.1</ele>
        <time>2021-06-18T09:03:52Z</time>
      </trkpt>
      <trkpt lat="39.7924670" lon="2.7320050">
        <ele>472.8</ele>
        <time>2021-06-18T09:03:59Z</time>
      </trkpt>
      <trkpt lat="39.7925260" lon="2.7321190">
        <ele>473.0</ele>
        <time>2021-06-18T09:04:02Z</time>
      </trkpt>
      <trkpt lat="39.7925650" lon="2.7322320">
        <ele>473.3</ele>
        <time>2021-06-18T09:04:05Z</time>
      </trkpt>
      <trkpt lat="39.7925410" lon="2.7324300">
        <ele>473.7</ele>
        <time>2021-06-18T09:04:10Z</time>
      </trkpt>
      <trkpt lat="39.7924370" lon="2.7325990">
        <ele>474.1</ele>
        <time>2021-06-18T09:04:16Z</time>
      </trkpt>
      <trkpt lat="39.7922660" lon="2.7327880">
        <ele>474.7</ele>
        <time>2021-06-18T09:04:25Z</time>
      </trkpt>
      <trkpt lat="39.7921020" lon="2.7329960">
        <ele>475.3</ele>
        <time>2021-06-18T09:04:34Z</time>
      </trkpt>
      <trkpt lat="39.7920040" lon="2.7331680">
        <ele>475.7</ele>
        <time>2021-06-18T09:04:41Z</time>
      </trkpt>
      <trkpt lat="39.7919480" lon="2.7333650">
        <ele>476.1</ele>
        <time>2021-06-18T09:04:48Z</time>
      </trkpt>
      <trkpt lat="39.7919450" lon="2.7334300">
        <ele>476.2</ele>
        <time>2021-06-18T09:04:51Z</time>
      </trkpt>
      <trkpt lat="39.7919270" lon="2.7337410">
        <ele>476.6</ele>
        <time>2021-06-18T09:04:58Z</time>
      </trkpt>
      <trkpt lat="39.7919310" lon="2.7339090">
        <ele>476.8</ele>
        <time>2021-06-18T09:05:03Z</time>
      </trkpt>
      <trkpt lat="39.7919160" lon="2.7341400">
        <ele>477.2</ele>
        <time>2021-06-18T09:05:09Z</time>
      </trkpt>
      <trkpt lat="39.7919180" lon="2.7342110">
        <ele>477.4</ele>
        <time>2021-06-18T09:05:11Z</time>
      </trkpt>
      <trkpt lat="39.7918990" lon="2.7344530">
        <ele>478.2</ele>
        <time>2021-06-18T09:05:18Z</time>
      </trkpt>
      <trkpt lat="39.7918940" lon="2.7345200">
        <ele>478.4</ele>
        <time>2021-06-18T09:05:20Z</time>
      </trkpt>
      <trkpt lat="39.7918830" lon="2.7346930">
        <ele>479.1</ele>
        <time>2021-06-18T09:05:25Z</time>
      </trkpt>
      <trkpt lat="39.7918730" lon="2.7348940">
        <ele>480.2</ele>
        <time>2021-06-18T09:05:31Z</time>
      </trkpt>
      <trkpt lat="39.7918630" lon="2.7351870">
        <ele>482.0</ele>
        <time>2021-06-18T09:05:41Z</time>
      </trkpt>
      <trkpt lat="39.7918530" lon="2.7352850">
        <ele>482.7</ele>
        <time>2021-06-18T09:05:44Z</time>
      </trkpt>
      <trkpt lat="39.7918520" lon="2.7353840">
        <ele>483.4</ele>
        <time>2021-06-18T09:05:46Z</time>
      </trkpt>
      <trkpt lat="39.7918530" lon="2.7354480">
        <ele>483.9</ele>
        <time>2021-06-18T09:05:48Z</time>
      </trkpt>
      <trkpt lat="39.7918370" lon="2.7356270">
        <ele>485.1</ele>
        <time>2021-06-18T09:05:54Z</time>
      </trkpt>
      <trkpt lat="39.7918340" lon="2.7356620">
        <ele>485.4</ele>
        <time>2021-06-18T09:05:55Z</time>
      </trkpt>
      <trkpt lat="39.7918320" lon="2.7357230">
        <ele>485.8</ele>
        <time>2021-06-18T09:05:57Z</time>
      </trkpt>
      <trkpt lat="39.7918310" lon="2.7358410">
        <ele>486.6</ele>
        <time>2021-06-18T09:06:01Z</time>
      </trkpt>
      <trkpt lat="39.7918280" lon="2.7359790">
        <ele>487.6</ele>
        <time>2021-06-18T09:06:05Z</time>
      </trkpt>
      <trkpt lat="39.7918250" lon="2.7361180">
        <ele>488.6</ele>
        <time>2021-06-18T09:06:09Z</time>
      </trkpt>
      <trkpt lat="39.7917990" lon="2.7362650">
        <ele>489.6</ele>
        <time>2021-06-18T09:06:14Z</time>
      </trkpt>
      <trkpt lat="39.7917920" lon="2.7362900">
        <ele>489.8</ele>
        <time>2021-06-18T09:06:15Z</time>
      </trkpt>
      <trkpt lat="39.7917900" lon="2.7364440">
        <ele>490.8</ele>
        <time>2021-06-18T09:06:20Z</time>
      </trkpt>
      <trkpt lat="39.7918010" lon="2.7365790">
        <ele>491.6</ele>
        <time>2021-06-18T09:06:24Z</time>
      </trkpt>
      <trkpt lat="39.7917910" lon="2.7367540">
        <ele>492.8</ele>
        <time>2021-06-18T09:06:29Z</time>
      </trkpt>
      <trkpt lat="39.7917960" lon="2.7369270">
        <ele>493.9</ele>
        <time>2021-06-18T09:06:34Z</time>
      </trkpt>
      <trkpt lat="39.7918010" lon="2.7370300">
        <ele>494.5</ele>
        <time>2021-06-18T09:06:37Z</time>
      </trkpt>
      <trkpt lat="39.7917810" lon="2.7372180">
        <ele>495.8</ele>
        <time>2021-06-18T09:06:43Z</time>
      </trkpt>
      <trkpt lat="39.7917830" lon="2.7374730">
        <ele>497.0</ele>
        <time>2021-06-18T09:06:51Z</time>
      </trkpt>
      <trkpt lat="39.7917170" lon="2.7377790">
        <ele>498.4</ele>
        <time>2021-06-18T09:06:59Z</time>
      </trkpt>
      <trkpt lat="39.7916760" lon="2.7379310">
        <ele>499.4</ele>
        <time>2021-06-18T09:07:04Z</time>
      </trkpt>
      <trkpt lat="39.7915770" lon="2.7382560">
        <ele>501.8</ele>
        <time>2021-06-18T09:07:15Z</time>
      </trkpt>
      <trkpt lat="39.7915790" lon="2.7384570">
        <ele>503.1</ele>
        <time>2021-06-18T09:07:21Z</time>
      </trkpt>
      <trkpt lat="39.7915980" lon="2.7386710">
        <ele>504.4</ele>
        <time>2021-06-18T09:07:27Z</time>
      </trkpt>
      <trkpt lat="39.7916070" lon="2.7387410">
        <ele>504.8</ele>
        <time>2021-06-18T09:07:30Z</time>
      </trkpt>
      <trkpt lat="39.7916220" lon="2.7388800">
        <ele>505.6</ele>
        <time>2021-06-18T09:07:33Z</time>
      </trkpt>
      <trkpt lat="39.7916400" lon="2.7389550">
        <ele>506.1</ele>
        <time>2021-06-18T09:07:35Z</time>
      </trkpt>
      <trkpt lat="39.7916740" lon="2.7390600">
        <ele>506.7</ele>
        <time>2021-06-18T09:07:38Z</time>
      </trkpt>
      <trkpt lat="39.7916940" lon="2.7391660">
        <ele>507.3</ele>
        <time>2021-06-18T09:07:41Z</time>
      </trkpt>
      <trkpt lat="39.7916990" lon="2.7392020">
        <ele>507.5</ele>
        <time>2021-06-18T09:07:42Z</time>
      </trkpt>
      <trkpt lat="39.7917150" lon="2.7393090">
        <ele>508.2</ele>
        <time>2021-06-18T09:07:45Z</time>
      </trkpt>
      <trkpt lat="39.7917640" lon="2.7394860">
        <ele>509.3</ele>
        <time>2021-06-18T09:07:50Z</time>
      </trkpt>
      <trkpt lat="39.7917830" lon="2.7395550">
        <ele>509.7</ele>
        <time>2021-06-18T09:07:52Z</time>
      </trkpt>
      <trkpt lat="39.7918060" lon="2.7396580">
        <ele>510.3</ele>
        <time>2021-06-18T09:07:55Z</time>
      </trkpt>
      <trkpt lat="39.7918250" lon="2.7397720">
        <ele>511.0</ele>
        <time>2021-06-18T09:07:58Z</time>
      </trkpt>
      <trkpt lat="39.7918760" lon="2.7400560">
        <ele>513.0</ele>
        <time>2021-06-18T09:08:06Z</time>
      </trkpt>
      <trkpt lat="39.7918900" lon="2.7401180">
        <ele>513.4</ele>
        <time>2021-06-18T09:08:08Z</time>
      </trkpt>
      <trkpt lat="39.7919200" lon="2.7402670">
        <ele>514.5</ele>
        <time>2021-06-18T09:08:13Z</time>
      </trkpt>
      <trkpt lat="39.7919470" lon="2.7403620">
        <ele>515.1</ele>
        <time>2021-06-18T09:08:17Z</time>
      </trkpt>
      <trkpt lat="39.7919560" lon="2.7403930">
        <ele>515.3</ele>
        <time>2021-06-18T09:08:18Z</time>
      </trkpt>
      <trkpt lat="39.7919710" lon="2.7404760">
        <ele>515.9</ele>
        <time>2021-06-18T09:08:20Z</time>
      </trkpt>
      <trkpt lat="39.7919980" lon="2.7405490">
        <ele>516.4</ele>
        <time>2021-06-18T09:08:22Z</time>
      </trkpt>
      <trkpt lat="39.7920560" lon="2.7407280">
        <ele>517.5</ele>
        <time>2021-06-18T09:08:29Z</time>
      </trkpt>
      <trkpt lat="39.7920880" lon="2.7408730">
        <ele>518.4</ele>
        <time>2021-06-18T09:08:34Z</time>
      </trkpt>
      <trkpt lat="39.7921590" lon="2.7410550">
        <ele>519.7</ele>
        <time>2021-06-18T09:08:38Z</time>
      </trkpt>
      <trkpt lat="39.7922220" lon="2.7412060">
        <ele>520.8</ele>
        <time>2021-06-18T09:08:42Z</time>
      </trkpt>
      <trkpt lat="39.7923790" lon="2.7416100">
        <ele>523.6</ele>
        <time>2021-06-18T09:08:52Z</time>
      </trkpt>
      <trkpt lat="39.7925210" lon="2.7419890">
        <ele>525.9</ele>
        <time>2021-06-18T09:09:01Z</time>
      </trkpt>
      <trkpt lat="39.7925970" lon="2.7423080">
        <ele>527.4</ele>
        <time>2021-06-18T09:09:08Z</time>
      </trkpt>
      <trkpt lat="39.7926410" lon="2.7426640">
        <ele>528.9</ele>
        <time>2021-06-18T09:09:15Z</time>
      </trkpt>
      <trkpt lat="39.7925710" lon="2.7431110">
        <ele>530.0</ele>
        <time>2021-06-18T09:09:24Z</time>
      </trkpt>
      <trkpt lat="39.7925160" lon="2.7434520">
        <ele>530.5</ele>
        <time>2021-06-18T09:09:30Z</time>
      </trkpt>
      <trkpt lat="39.7925080" lon="2.7435090">
        <ele>530.6</ele>
        <time>2021-06-18T09:09:31Z</time>
      </trkpt>
      <trkpt lat="39.7924230" lon="2.7439080">
        <ele>530.4</ele>
        <time>2021-06-18T09:09:38Z</time>
      </trkpt>
      <trkpt lat="39.7923840" lon="2.7440730">
        <ele>530.1</ele>
        <time>2021-06-18T09:09:41Z</time>
      </trkpt>
      <trkpt lat="39.7923780" lon="2.7441990">
        <ele>529.9</ele>
        <time>2021-06-18T09:09:43Z</time>
      </trkpt>
      <trkpt lat="39.7923750" lon="2.7442630">
        <ele>529.7</ele>
        <time>2021-06-18T09:09:44Z</time>
      </trkpt>
      <trkpt lat="39.7923720" lon="2.7443900">
        <ele>529.4</ele>
        <time>2021-06-18T09:09:46Z</time>
      </trkpt>
      <trkpt lat="39.7923750" lon="2.7445310">
        <ele>529.1</ele>
        <time>2021-06-18T09:09:48Z</time>
      </trkpt>
      <trkpt lat="39.7924070" lon="2.7447520">
        <ele>528.5</ele>
        <time>2021-06-18T09:09:51Z</time>
      </trkpt>
      <trkpt lat="39.7924260" lon="2.7448270">
        <ele>528.3</ele>
        <time>2021-06-18T09:09:52Z</time>
      </trkpt>
      <trkpt lat="39.7924820" lon="2.7449760">
        <ele>527.9</ele>
        <time>2021-06-18T09:09:54Z</time>
      </trkpt>
      <trkpt lat="39.7925170" lon="2.7450470">
        <ele>527.6</ele>
        <time>2021-06-18T09:09:55Z</time>
      </trkpt>
      <trkpt lat="39.7925550" lon="2.7451130">
        <ele>527.4</ele>
        <time>2021-06-18T09:09:56Z</time>
      </trkpt>
      <trkpt lat="39.7927510" lon="2.7453660">
        <ele>526.2</ele>
        <time>2021-06-18T09:10:00Z</time>
      </trkpt>
      <trkpt lat="39.7929500" lon="2.7455240">
        <ele>525.2</ele>
        <time>2021-06-18T09:10:03Z</time>
      </trkpt>
      <trkpt lat="39.7930140" lon="2.7455800">
        <ele>524.9</ele>
        <time>2021-06-18T09:10:04Z</time>
      </trkpt>
      <trkpt lat="39.7930800" lon="2.7456370">
        <ele>524.6</ele>
        <time>2021-06-18T09:10:06Z</time>
      </trkpt>
      <trkpt lat="39.7931830" lon="2.7457210">
        <ele>524.1</ele>
        <time>2021-06-18T09:10:07Z</time>
      </trkpt>
      <trkpt lat="39.7932850" lon="2.7458050">
        <ele>523.7</ele>
        <time>2021-06-18T09:10:08Z</time>
      </trkpt>
      <trkpt lat="39.7934130" lon="2.7459180">
        <ele>523.2</ele>
        <time>2021-06-18T09:10:10Z</time>
      </trkpt>
      <trkpt lat="39.7934780" lon="2.7459720">
        <ele>522.9</ele>
        <time>2021-06-18T09:10:11Z</time>
      </trkpt>
      <trkpt lat="39.7936730" lon="2.7461340">
        <ele>522.2</ele>
        <time>2021-06-18T09:10:14Z</time>
      </trkpt>
      <trkpt lat="39.7940540" lon="2.7464440">
        <ele>521.5</ele>
        <time>2021-06-18T09:10:20Z</time>
      </trkpt>
      <trkpt lat="39.7943010" lon="2.7466460">
        <ele>521.5</ele>
        <time>2021-06-18T09:10:24Z</time>
      </trkpt>
      <trkpt lat="39.7945210" lon="2.7468300">
        <ele>521.7</ele>
        <time>2021-06-18T09:10:28Z</time>
      </trkpt>
      <trkpt lat="39.7947070" lon="2.7469830">
        <ele>522.4</ele>
        <time>2021-06-18T09:10:32Z</time>
      </trkpt>
      <trkpt lat="39.7948000" lon="2.7470480">
        <ele>522.7</ele>
        <time>2021-06-18T09:10:34Z</time>
      </trkpt>
      <trkpt lat="39.7948440" lon="2.7470840">
        <ele>522.9</ele>
        <time>2021-06-18T09:10:35Z</time>
      </trkpt>
      <trkpt lat="39.7950110" lon="2.7472370">
        <ele>523.9</ele>
        <time>2021-06-18T09:10:39Z</time>
      </trkpt>
      <trkpt lat="39.7950490" lon="2.7472750">
        <ele>524.1</ele>
        <time>2021-06-18T09:10:40Z</time>
      </trkpt>
      <trkpt lat="39.7951080" lon="2.7473590">
        <ele>524.5</ele>
        <time>2021-06-18T09:10:42Z</time>
      </trkpt>
      <trkpt lat="39.7951670" lon="2.7475150">
        <ele>525.2</ele>
        <time>2021-06-18T09:10:45Z</time>
      </trkpt>
      <trkpt lat="39.7951710" lon="2.7475720">
        <ele>525.4</ele>
        <time>2021-06-18T09:10:46Z</time>
      </trkpt>
      <trkpt lat="39.7951600" lon="2.7476910">
        <ele>525.8</ele>
        <time>2021-06-18T09:10:48Z</time>
      </trkpt>
      <trkpt lat="39.7950980" lon="2.7478680">
        <ele>526.4</ele>
        <time>2021-06-18T09:10:51Z</time>
      </trkpt>
      <trkpt lat="39.7949370" lon="2.7481190">
        <ele>527.3</ele>
        <time>2021-06-18T09:10:57Z</time>
      </trkpt>
      <trkpt lat="39.7947040" lon="2.7484720">
        <ele>529.0</ele>
        <time>2021-06-18T09:11:05Z</time>
      </trkpt>
      <trkpt lat="39.7945860" lon="2.7486770">
        <ele>530.4</ele>
        <time>2021-06-18T09:11:10Z</time>
      </trkpt>
      <trkpt lat="39.7945680" lon="2.7487160">
        <ele>530.7</ele>
        <time>2021-06-18T09:11:11Z</time>
      </trkpt>
      <trkpt lat="39.7945340" lon="2.7487970">
        <ele>531.3</ele>
        <time>2021-06-18T09:11:14Z</time>
      </trkpt>
      <trkpt lat="39.7944390" lon="2.7490590">
        <ele>533.0</ele>
        <time>2021-06-18T09:11:19Z</time>
      </trkpt>
      <trkpt lat="39.7943190" lon="2.7494110">
        <ele>535.0</ele>
        <time>2021-06-18T09:11:27Z</time>
      </trkpt>
      <trkpt lat="39.7941900" lon="2.7497250">
        <ele>537.0</ele>
        <time>2021-06-18T09:11:35Z</time>
      </trkpt>
      <trkpt lat="39.7941290" lon="2.7499190">
        <ele>538.3</ele>
        <time>2021-06-18T09:11:40Z</time>
      </trkpt>
      <trkpt lat="39.7941000" lon="2.7499980">
        <ele>538.9</ele>
        <time>2021-06-18T09:11:42Z</time>
      </trkpt>
      <trkpt lat="39.7939990" lon="2.7503280">
        <ele>541.1</ele>
        <time>2021-06-18T09:11:50Z</time>
      </trkpt>
      <trkpt lat="39.7939650" lon="2.7505340">
        <ele>542.3</ele>
        <time>2021-06-18T09:11:55Z</time>
      </trkpt>
      <trkpt lat="39.7939680" lon="2.7506620">
        <ele>543.0</ele>
        <time>2021-06-18T09:11:58Z</time>
      </trkpt>
      <trkpt lat="39.7940040" lon="2.7508890">
        <ele>544.3</ele>
        <time>2021-06-18T09:12:04Z</time>
      </trkpt>
      <trkpt lat="39.7940870" lon="2.7511490">
        <ele>545.7</ele>
        <time>2021-06-18T09:12:11Z</time>
      </trkpt>
      <trkpt lat="39.7941820" lon="2.7514680">
        <ele>547.3</ele>
        <time>2021-06-18T09:12:19Z</time>
      </trkpt>
      <trkpt lat="39.7943030" lon="2.7518390">
        <ele>549.4</ele>
        <time>2021-06-18T09:12:30Z</time>
      </trkpt>
      <trkpt lat="39.7943030" lon="2.7518390">
        <ele>549.4</ele>
        <time>2021-06-18T09:12:34Z</time>
      </trkpt>
      <trkpt lat="39.7942820" lon="2.7518380">
        <ele>549.6</ele>
        <time>2021-06-18T09:12:38Z</time>
      </trkpt>
      <trkpt lat="39.7942780" lon="2.7518400">
        <ele>549.6</ele>
        <time>2021-06-18T09:12:40Z</time>
      </trkpt>
      <trkpt lat="39.7942780" lon="2.7518400">
        <ele>549.6</ele>
        <time>2021-06-18T09:12:53Z</time>
      </trkpt>
      <trkpt lat="39.7942780" lon="2.7518400">
        <ele>549.6</ele>
        <time>2021-06-18T09:12:55Z</time>
      </trkpt>
      <trkpt lat="39.7942780" lon="2.7518400">
        <ele>549.6</ele>
        <time>2021-06-18T09:12:56Z</time>
      </trkpt>
      <trkpt lat="39.7942780" lon="2.7518400">
        <ele>549.6</ele>
        <time>2021-06-18T09:12:57Z</time>
      </trkpt>
      <trkpt lat="39.7942780" lon="2.7518400">
        <ele>549.6</ele>
        <time>2021-06-18T09:12:58Z</time>
      </trkpt>
      <trkpt lat="39.7942780" lon="2.7518400">
        <ele>549.6</ele>
        <time>2021-06-18T09:13:00Z</time>
      </trkpt>
      <trkpt lat="39.7942780" lon="2.7518410">
        <ele>549.6</ele>
        <time>2021-06-18T09:13:03Z</time>
      </trkpt>
      <trkpt lat="39.7942780" lon="2.7518410">
        <ele>549.6</ele>
        <time>2021-06-18T09:13:06Z</time>
      </trkpt>
      <trkpt lat="39.7942780" lon="2.7518410">
        <ele>549.6</ele>
        <time>2021-06-18T09:13:08Z</time>
      </trkpt>
      <trkpt lat="39.7942780" lon="2.7518460">
        <ele>549.6</ele>
        <time>2021-06-18T09:13:09Z</time>
      </trkpt>
      <trkpt lat="39.7942780" lon="2.7518470">
        <ele>549.6</ele>
        <time>2021-06-18T09:13:11Z</time>
      </trkpt>
      <trkpt lat="39.7942780" lon="2.7518480">
        <ele>549.7</ele>
        <time>2021-06-18T09:13:12Z</time>
      </trkpt>
      <trkpt lat="39.7942780" lon="2.7518480">
        <ele>549.7</ele>
        <time>2021-06-18T09:13:15Z</time>
      </trkpt>
      <trkpt lat="39.7942790" lon="2.7518560">
        <ele>549.7</ele>
        <time>2021-06-18T09:13:20Z</time>
      </trkpt>
      <trkpt lat="39.7942790" lon="2.7518580">
        <ele>549.7</ele>
        <time>2021-06-18T09:13:27Z</time>
      </trkpt>
      <trkpt lat="39.7942790" lon="2.7518580">
        <ele>549.7</ele>
        <time>2021-06-18T09:13:30Z</time>
      </trkpt>
      <trkpt lat="39.7942790" lon="2.7518580">
        <ele>549.7</ele>
        <time>2021-06-18T09:13:33Z</time>
      </trkpt>
      <trkpt lat="39.7942780" lon="2.7518660">
        <ele>549.8</ele>
        <time>2021-06-18T09:13:50Z</time>
      </trkpt>
      <trkpt lat="39.7942780" lon="2.7518660">
        <ele>549.8</ele>
        <time>2021-06-18T09:13:54Z</time>
      </trkpt>
      <trkpt lat="39.7942780" lon="2.7518660">
        <ele>549.8</ele>
        <time>2021-06-18T09:13:56Z</time>
      </trkpt>
      <trkpt lat="39.7942780" lon="2.7518660">
        <ele>549.8</ele>
        <time>2021-06-18T09:14:14Z</time>
      </trkpt>
      <trkpt lat="39.7942780" lon="2.7518660">
        <ele>549.8</ele>
        <time>2021-06-18T09:14:23Z</time>
      </trkpt>
      <trkpt lat="39.7942780" lon="2.7518660">
        <ele>549.8</ele>
        <time>2021-06-18T09:14:33Z</time>
      </trkpt>
      <trkpt lat="39.7942780" lon="2.7518660">
        <ele>549.8</ele>
        <time>2021-06-18T09:14:46Z</time>
      </trkpt>
      <trkpt lat="39.7942780" lon="2.7518660">
        <ele>549.8</ele>
        <time>2021-06-18T09:14:55Z</time>
      </trkpt>
      <trkpt lat="39.7942780" lon="2.7518660">
        <ele>549.8</ele>
        <time>2021-06-18T09:15:07Z</time>
      </trkpt>
      <trkpt lat="39.7942780" lon="2.7518660">
        <ele>549.8</ele>
        <time>2021-06-18T09:15:09Z</time>
      </trkpt>
      <trkpt lat="39.7942780" lon="2.7518660">
        <ele>549.8</ele>
        <time>2021-06-18T09:15:12Z</time>
      </trkpt>
      <trkpt lat="39.7942780" lon="2.7518660">
        <ele>549.8</ele>
        <time>2021-06-18T09:15:15Z</time>
      </trkpt>
      <trkpt lat="39.7942780" lon="2.7518660">
        <ele>549.8</ele>
        <time>2021-06-18T09:15:19Z</time>
      </trkpt>
      <trkpt lat="39.7942780" lon="2.7518660">
        <ele>549.8</ele>
        <time>2021-06-18T09:15:22Z</time>
      </trkpt>
      <trkpt lat="39.7942720" lon="2.7518670">
        <ele>549.8</ele>
        <time>2021-06-18T09:15:46Z</time>
      </trkpt>
      <trkpt lat="39.7942710" lon="2.7518670">
        <ele>549.8</ele>
        <time>2021-06-18T09:15:48Z</time>
      </trkpt>
      <trkpt lat="39.7942710" lon="2.7518670">
        <ele>549.8</ele>
        <time>2021-06-18T09:16:03Z</time>
      </trkpt>
      <trkpt lat="39.7942710" lon="2.7518670">
        <ele>549.8</ele>
        <time>2021-06-18T09:16:13Z</time>
      </trkpt>
      <trkpt lat="39.7942710" lon="2.7518670">
        <ele>549.8</ele>
        <time>2021-06-18T09:16:20Z</time>
      </trkpt>
      <trkpt lat="39.7942710" lon="2.7518670">
        <ele>549.8</ele>
        <time>2021-06-18T09:16:37Z</time>
      </trkpt>
      <trkpt lat="39.7942710" lon="2.7518670">
        <ele>549.8</ele>
        <time>2021-06-18T09:16:56Z</time>
      </trkpt>
      <trkpt lat="39.7942710" lon="2.7518670">
        <ele>549.8</ele>
        <time>2021-06-18T09:17:08Z</time>
      </trkpt>
      <trkpt lat="39.7942710" lon="2.7518670">
        <ele>549.8</ele>
        <time>2021-06-18T09:17:10Z</time>
      </trkpt>
      <trkpt lat="39.7942710" lon="2.7518670">
        <ele>549.8</ele>
        <time>2021-06-18T09:17:16Z</time>
      </trkpt>
      <trkpt lat="39.7942710" lon="2.7518670">
        <ele>549.8</ele>
        <time>2021-06-18T09:17:42Z</time>
      </trkpt>
      <trkpt lat="39.7942710" lon="2.7518670">
        <ele>549.8</ele>
        <time>2021-06-18T09:17:50Z</time>
      </trkpt>
      <trkpt lat="39.7942710" lon="2.7518670">
        <ele>549.8</ele>
        <time>2021-06-18T09:17:54Z</time>
      </trkpt>
      <trkpt lat="39.7942710" lon="2.7518670">
        <ele>549.8</ele>
        <time>2021-06-18T09:18:02Z</time>
      </trkpt>
      <trkpt lat="39.7942710" lon="2.7518670">
        <ele>549.8</ele>
        <time>2021-06-18T09:18:07Z</time>
      </trkpt>
      <trkpt lat="39.7942710" lon="2.7518670">
        <ele>549.8</ele>
        <time>2021-06-18T09:18:24Z</time>
      </trkpt>
      <trkpt lat="39.7942710" lon="2.7518660">
        <ele>549.8</ele>
        <time>2021-06-18T09:18:29Z</time>
      </trkpt>
      <trkpt lat="39.7942710" lon="2.7518660">
        <ele>549.8</ele>
        <time>2021-06-18T09:18:32Z</time>
      </trkpt>
      <trkpt lat="39.7942710" lon="2.7518660">
        <ele>549.8</ele>
        <time>2021-06-18T09:18:34Z</time>
      </trkpt>
      <trkpt lat="39.7942710" lon="2.7518650">
        <ele>549.8</ele>
        <time>2021-06-18T09:18:55Z</time>
      </trkpt>
      <trkpt lat="39.7942710" lon="2.7518650">
        <ele>549.8</ele>
        <time>2021-06-18T09:18:57Z</time>
      </trkpt>
      <trkpt lat="39.7942710" lon="2.7518650">
        <ele>549.8</ele>
        <time>2021-06-18T09:19:19Z</time>
      </trkpt>
      <trkpt lat="39.7942710" lon="2.7518650">
        <ele>549.8</ele>
        <time>2021-06-18T09:19:45Z</time>
      </trkpt>
      <trkpt lat="39.7942710" lon="2.7518650">
        <ele>549.8</ele>
        <time>2021-06-18T09:19:53Z</time>
      </trkpt>
      <trkpt lat="39.7942710" lon="2.7518650">
        <ele>549.8</ele>
        <time>2021-06-18T09:20:12Z</time>
      </trkpt>
      <trkpt lat="39.7942710" lon="2.7518650">
        <ele>549.8</ele>
        <time>2021-06-18T09:20:17Z</time>
      </trkpt>
      <trkpt lat="39.7942710" lon="2.7518650">
        <ele>549.8</ele>
        <time>2021-06-18T09:20:21Z</time>
      </trkpt>
      <trkpt lat="39.7942710" lon="2.7518650">
        <ele>549.8</ele>
        <time>2021-06-18T09:20:25Z</time>
      </trkpt>
      <trkpt lat="39.7942710" lon="2.7518650">
        <ele>549.8</ele>
        <time>2021-06-18T09:20:42Z</time>
      </trkpt>
      <trkpt lat="39.7942710" lon="2.7518650">
        <ele>549.8</ele>
        <time>2021-06-18T09:20:47Z</time>
      </trkpt>
      <trkpt lat="39.7942710" lon="2.7518650">
        <ele>549.8</ele>
        <time>2021-06-18T09:21:08Z</time>
      </trkpt>
      <trkpt lat="39.7942710" lon="2.7518650">
        <ele>549.8</ele>
        <time>2021-06-18T09:21:18Z</time>
      </trkpt>
      <trkpt lat="39.7942700" lon="2.7518590">
        <ele>549.9</ele>
        <time>2021-06-18T09:21:21Z</time>
      </trkpt>
      <trkpt lat="39.7942700" lon="2.7518590">
        <ele>549.9</ele>
        <time>2021-06-18T09:21:23Z</time>
      </trkpt>
      <trkpt lat="39.7942610" lon="2.7518590">
        <ele>549.9</ele>
        <time>2021-06-18T09:21:35Z</time>
      </trkpt>
      <trkpt lat="39.7942600" lon="2.7518540">
        <ele>550.0</ele>
        <time>2021-06-18T09:21:40Z</time>
      </trkpt>
      <trkpt lat="39.7942590" lon="2.7518540">
        <ele>550.0</ele>
        <time>2021-06-18T09:21:44Z</time>
      </trkpt>
      <trkpt lat="39.7942590" lon="2.7518540">
        <ele>550.0</ele>
        <time>2021-06-18T09:21:48Z</time>
      </trkpt>
      <trkpt lat="39.7942610" lon="2.7518560">
        <ele>550.0</ele>
        <time>2021-06-18T09:22:04Z</time>
      </trkpt>
      <trkpt lat="39.7942700" lon="2.7518640">
        <ele>550.1</ele>
        <time>2021-06-18T09:22:17Z</time>
      </trkpt>
      <trkpt lat="39.7942700" lon="2.7518640">
        <ele>550.1</ele>
        <time>2021-06-18T09:22:24Z</time>
      </trkpt>
      <trkpt lat="39.7942700" lon="2.7518640">
        <ele>550.1</ele>
        <time>2021-06-18T09:22:32Z</time>
      </trkpt>
      <trkpt lat="39.7942700" lon="2.7518640">
        <ele>550.1</ele>
        <time>2021-06-18T09:22:47Z</time>
      </trkpt>
      <trkpt lat="39.7942700" lon="2.7518640">
        <ele>550.1</ele>
        <time>2021-06-18T09:23:23Z</time>
      </trkpt>
      <trkpt lat="39.7942700" lon="2.7518640">
        <ele>550.1</ele>
        <time>2021-06-18T09:23:38Z</time>
      </trkpt>
      <trkpt lat="39.7942780" lon="2.7518750">
        <ele>550.2</ele>
        <time>2021-06-18T09:24:00Z</time>
      </trkpt>
      <trkpt lat="39.7942780" lon="2.7518750">
        <ele>550.2</ele>
        <time>2021-06-18T09:24:02Z</time>
      </trkpt>
      <trkpt lat="39.7942790" lon="2.7518790">
        <ele>550.2</ele>
        <time>2021-06-18T09:24:22Z</time>
      </trkpt>
      <trkpt lat="39.7942790" lon="2.7518790">
        <ele>550.2</ele>
        <time>2021-06-18T09:24:23Z</time>
      </trkpt>
      <trkpt lat="39.7942790" lon="2.7518850">
        <ele>550.2</ele>
        <time>2021-06-18T09:24:33Z</time>
      </trkpt>
      <trkpt lat="39.7942790" lon="2.7518850">
        <ele>550.2</ele>
        <time>2021-06-18T09:24:37Z</time>
      </trkpt>
      <trkpt lat="39.7942790" lon="2.7518850">
        <ele>550.2</ele>
        <time>2021-06-18T09:25:07Z</time>
      </trkpt>
      <trkpt lat="39.7942790" lon="2.7518850">
        <ele>550.2</ele>
        <time>2021-06-18T09:25:12Z</time>
      </trkpt>
      <trkpt lat="39.7942790" lon="2.7518850">
        <ele>550.2</ele>
        <time>2021-06-18T09:25:18Z</time>
      </trkpt>
      <trkpt lat="39.7942790" lon="2.7518850">
        <ele>550.2</ele>
        <time>2021-06-18T09:25:28Z</time>
      </trkpt>
      <trkpt lat="39.7942790" lon="2.7518850">
        <ele>550.2</ele>
        <time>2021-06-18T09:25:36Z</time>
      </trkpt>
      <trkpt lat="39.7942790" lon="2.7518850">
        <ele>550.2</ele>
        <time>2021-06-18T09:25:41Z</time>
      </trkpt>
      <trkpt lat="39.7942790" lon="2.7518850">
        <ele>550.2</ele>
        <time>2021-06-18T09:26:06Z</time>
      </trkpt>
      <trkpt lat="39.7942790" lon="2.7518850">
        <ele>550.2</ele>
        <time>2021-06-18T09:26:25Z</time>
      </trkpt>
      <trkpt lat="39.7942790" lon="2.7518850">
        <ele>550.2</ele>
        <time>2021-06-18T09:26:31Z</time>
      </trkpt>
      <trkpt lat="39.7942750" lon="2.7518850">
        <ele>550.3</ele>
        <time>2021-06-18T09:27:08Z</time>
      </trkpt>
      <trkpt lat="39.7942750" lon="2.7518850">
        <ele>550.3</ele>
        <time>2021-06-18T09:27:40Z</time>
      </trkpt>
      <trkpt lat="39.7942750" lon="2.7518850">
        <ele>550.3</ele>
        <time>2021-06-18T09:27:42Z</time>
      </trkpt>
      <trkpt lat="39.7942750" lon="2.7518850">
        <ele>550.3</ele>
        <time>2021-06-18T09:27:47Z</time>
      </trkpt>
      <trkpt lat="39.7942750" lon="2.7518850">
        <ele>550.3</ele>
        <time>2021-06-18T09:27:57Z</time>
      </trkpt>
      <trkpt lat="39.7942750" lon="2.7518850">
        <ele>550.3</ele>
        <time>2021-06-18T09:27:59Z</time>
      </trkpt>
      <trkpt lat="39.7942750" lon="2.7518850">
        <ele>550.3</ele>
        <time>2021-06-18T09:28:01Z</time>
      </trkpt>
      <trkpt lat="39.7942750" lon="2.7518850">
        <ele>550.3</ele>
        <time>2021-06-18T09:28:15Z</time>
      </trkpt>
      <trkpt lat="39.7942750" lon="2.7518850">
        <ele>550.3</ele>
        <time>2021-06-18T09:28:16Z</time>
      </trkpt>
      <trkpt lat="39.7942750" lon="2.7518850">
        <ele>550.3</ele>
        <time>2021-06-18T09:28:19Z</time>
      </trkpt>
      <trkpt lat="39.7942750" lon="2.7518850">
        <ele>550.3</ele>
        <time>2021-06-18T09:28:29Z</time>
      </trkpt>
      <trkpt lat="39.7942750" lon="2.7518850">
        <ele>550.3</ele>
        <time>2021-06-18T09:28:38Z</time>
      </trkpt>
      <trkpt lat="39.7942750" lon="2.7518850">
        <ele>550.3</ele>
        <time>2021-06-18T09:28:43Z</time>
      </trkpt>
      <trkpt lat="39.7942750" lon="2.7518850">
        <ele>550.3</ele>
        <time>2021-06-18T09:28:47Z</time>
      </trkpt>
      <trkpt lat="39.7942750" lon="2.7518850">
        <ele>550.3</ele>
        <time>2021-06-18T09:29:01Z</time>
      </trkpt>
      <trkpt lat="39.7942750" lon="2.7518860">
        <ele>550.3</ele>
        <time>2021-06-18T09:29:20Z</time>
      </trkpt>
      <trkpt lat="39.7942750" lon="2.7518860">
        <ele>550.3</ele>
        <time>2021-06-18T09:29:25Z</time>
      </trkpt>
      <trkpt lat="39.7942750" lon="2.7518860">
        <ele>550.3</ele>
        <time>2021-06-18T09:29:35Z</time>
      </trkpt>
      <trkpt lat="39.7942750" lon="2.7518860">
        <ele>550.3</ele>
        <time>2021-06-18T09:30:00Z</time>
      </trkpt>
      <trkpt lat="39.7942750" lon="2.7518860">
        <ele>550.3</ele>
        <time>2021-06-18T09:30:07Z</time>
      </trkpt>
      <trkpt lat="39.7942750" lon="2.7518880">
        <ele>550.3</ele>
        <time>2021-06-18T09:30:10Z</time>
      </trkpt>
      <trkpt lat="39.7942650" lon="2.7518910">
        <ele>550.4</ele>
        <time>2021-06-18T09:30:14Z</time>
      </trkpt>
      <trkpt lat="39.7942660" lon="2.7518950">
        <ele>550.4</ele>
        <time>2021-06-18T09:30:26Z</time>
      </trkpt>
      <trkpt lat="39.7942660" lon="2.7518950">
        <ele>550.4</ele>
        <time>2021-06-18T09:30:33Z</time>
      </trkpt>
      <trkpt lat="39.7942680" lon="2.7518960">
        <ele>550.4</ele>
        <time>2021-06-18T09:30:36Z</time>
      </trkpt>
      <trkpt lat="39.7943230" lon="2.7519090">
        <ele>550.8</ele>
        <time>2021-06-18T09:30:39Z</time>
      </trkpt>
      <trkpt lat="39.7943570" lon="2.7520530">
        <ele>551.7</ele>
        <time>2021-06-18T09:30:45Z</time>
      </trkpt>
      <trkpt lat="39.7944060" lon="2.7521680">
        <ele>552.5</ele>
        <time>2021-06-18T09:30:50Z</time>
      </trkpt>
      <trkpt lat="39.7944430" lon="2.7523130">
        <ele>553.5</ele>
        <time>2021-06-18T09:30:55Z</time>
      </trkpt>
      <trkpt lat="39.7944700" lon="2.7524040">
        <ele>554.1</ele>
        <time>2021-06-18T09:30:58Z</time>
      </trkpt>
      <trkpt lat="39.7944850" lon="2.7524560">
        <ele>554.5</ele>
        <time>2021-06-18T09:31:00Z</time>
      </trkpt>
      <trkpt lat="39.7945220" lon="2.7525880">
        <ele>555.4</ele>
        <time>2021-06-18T09:31:05Z</time>
      </trkpt>
      <trkpt lat="39.7945820" lon="2.7527610">
        <ele>556.7</ele>
        <time>2021-06-18T09:31:11Z</time>
      </trkpt>
      <trkpt lat="39.7946090" lon="2.7528320">
        <ele>557.1</ele>
        <time>2021-06-18T09:31:14Z</time>
      </trkpt>
      <trkpt lat="39.7946620" lon="2.7529290">
        <ele>557.8</ele>
        <time>2021-06-18T09:31:18Z</time>
      </trkpt>
      <trkpt lat="39.7947030" lon="2.7530150">
        <ele>558.3</ele>
        <time>2021-06-18T09:31:21Z</time>
      </trkpt>
      <trkpt lat="39.7948290" lon="2.7531810">
        <ele>559.5</ele>
        <time>2021-06-18T09:31:28Z</time>
      </trkpt>
      <trkpt lat="39.7948890" lon="2.7532570">
        <ele>560.0</ele>
        <time>2021-06-18T09:31:31Z</time>
      </trkpt>
      <trkpt lat="39.7950110" lon="2.7534690">
        <ele>561.4</ele>
        <time>2021-06-18T09:31:39Z</time>
      </trkpt>
      <trkpt lat="39.7950700" lon="2.7535490">
        <ele>562.0</ele>
        <time>2021-06-18T09:31:42Z</time>
      </trkpt>
      <trkpt lat="39.7951530" lon="2.7536750">
        <ele>562.9</ele>
        <time>2021-06-18T09:31:47Z</time>
      </trkpt>
      <trkpt lat="39.7951690" lon="2.7536990">
        <ele>563.0</ele>
        <time>2021-06-18T09:31:48Z</time>
      </trkpt>
      <trkpt lat="39.7952280" lon="2.7538220">
        <ele>563.8</ele>
        <time>2021-06-18T09:31:52Z</time>
      </trkpt>
      <trkpt lat="39.7953010" lon="2.7539900">
        <ele>564.9</ele>
        <time>2021-06-18T09:31:58Z</time>
      </trkpt>
      <trkpt lat="39.7953310" lon="2.7540840">
        <ele>565.4</ele>
        <time>2021-06-18T09:32:01Z</time>
      </trkpt>
      <trkpt lat="39.7953820" lon="2.7542470">
        <ele>566.4</ele>
        <time>2021-06-18T09:32:06Z</time>
      </trkpt>
      <trkpt lat="39.7954070" lon="2.7543110">
        <ele>566.8</ele>
        <time>2021-06-18T09:32:08Z</time>
      </trkpt>
      <trkpt lat="39.7954780" lon="2.7545250">
        <ele>568.1</ele>
        <time>2021-06-18T09:32:15Z</time>
      </trkpt>
      <trkpt lat="39.7955800" lon="2.7548270">
        <ele>570.1</ele>
        <time>2021-06-18T09:32:25Z</time>
      </trkpt>
      <trkpt lat="39.7956320" lon="2.7549780">
        <ele>571.1</ele>
        <time>2021-06-18T09:32:30Z</time>
      </trkpt>
      <trkpt lat="39.7956680" lon="2.7550610">
        <ele>571.6</ele>
        <time>2021-06-18T09:32:33Z</time>
      </trkpt>
      <trkpt lat="39.7956860" lon="2.7551130">
        <ele>572.0</ele>
        <time>2021-06-18T09:32:35Z</time>
      </trkpt>
      <trkpt lat="39.7957180" lon="2.7551960">
        <ele>572.6</ele>
        <time>2021-06-18T09:32:38Z</time>
      </trkpt>
      <trkpt lat="39.7957360" lon="2.7552520">
        <ele>572.9</ele>
        <time>2021-06-18T09:32:40Z</time>
      </trkpt>
      <trkpt lat="39.7957460" lon="2.7552820">
        <ele>573.1</ele>
        <time>2021-06-18T09:32:41Z</time>
      </trkpt>
      <trkpt lat="39.7958560" lon="2.7555500">
        <ele>574.9</ele>
        <time>2021-06-18T09:32:50Z</time>
      </trkpt>
      <trkpt lat="39.7959740" lon="2.7557680">
        <ele>576.4</ele>
        <time>2021-06-18T09:32:58Z</time>
      </trkpt>
      <trkpt lat="39.7960310" lon="2.7558530">
        <ele>577.0</ele>
        <time>2021-06-18T09:33:01Z</time>
      </trkpt>
      <trkpt lat="39.7961090" lon="2.7559840">
        <ele>577.9</ele>
        <time>2021-06-18T09:33:06Z</time>
      </trkpt>
      <trkpt lat="39.7961640" lon="2.7560750">
        <ele>578.5</ele>
        <time>2021-06-18T09:33:09Z</time>
      </trkpt>
      <trkpt lat="39.7962310" lon="2.7561900">
        <ele>579.3</ele>
        <time>2021-06-18T09:33:13Z</time>
      </trkpt>
      <trkpt lat="39.7963300" lon="2.7563710">
        <ele>580.5</ele>
        <time>2021-06-18T09:33:19Z</time>
      </trkpt>
      <trkpt lat="39.7964620" lon="2.7567550">
        <ele>582.5</ele>
        <time>2021-06-18T09:33:30Z</time>
      </trkpt>
      <trkpt lat="39.7964760" lon="2.7568270">
        <ele>582.8</ele>
        <time>2021-06-18T09:33:32Z</time>
      </trkpt>
      <trkpt lat="39.7964910" lon="2.7569010">
        <ele>583.1</ele>
        <time>2021-06-18T09:33:34Z</time>
      </trkpt>
      <trkpt lat="39.7965050" lon="2.7569680">
        <ele>583.4</ele>
        <time>2021-06-18T09:33:36Z</time>
      </trkpt>
      <trkpt lat="39.7965290" lon="2.7570730">
        <ele>583.8</ele>
        <time>2021-06-18T09:33:39Z</time>
      </trkpt>
      <trkpt lat="39.7965890" lon="2.7573190">
        <ele>584.7</ele>
        <time>2021-06-18T09:33:46Z</time>
      </trkpt>
      <trkpt lat="39.7966530" lon="2.7575970">
        <ele>585.7</ele>
        <time>2021-06-18T09:33:54Z</time>
      </trkpt>
      <trkpt lat="39.7966700" lon="2.7576730">
        <ele>586.0</ele>
        <time>2021-06-18T09:33:56Z</time>
      </trkpt>
      <trkpt lat="39.7966860" lon="2.7577480">
        <ele>586.3</ele>
        <time>2021-06-18T09:33:58Z</time>
      </trkpt>
      <trkpt lat="39.7967450" lon="2.7580040">
        <ele>587.4</ele>
        <time>2021-06-18T09:34:05Z</time>
      </trkpt>
      <trkpt lat="39.7967940" lon="2.7582470">
        <ele>588.7</ele>
        <time>2021-06-18T09:34:12Z</time>
      </trkpt>
      <trkpt lat="39.7968170" lon="2.7584370">
        <ele>589.9</ele>
        <time>2021-06-18T09:34:17Z</time>
      </trkpt>
      <trkpt lat="39.7968090" lon="2.7585440">
        <ele>590.6</ele>
        <time>2021-06-18T09:34:19Z</time>
      </trkpt>
      <trkpt lat="39.7968090" lon="2.7585440">
        <ele>590.6</ele>
        <time>2021-06-18T09:34:20Z</time>
      </trkpt>
      <trkpt lat="39.7967130" lon="2.7588810">
        <ele>592.6</ele>
        <time>2021-06-18T09:34:30Z</time>
      </trkpt>
      <trkpt lat="39.7965910" lon="2.7592470">
        <ele>594.9</ele>
        <time>2021-06-18T09:34:41Z</time>
      </trkpt>
      <trkpt lat="39.7965580" lon="2.7593510">
        <ele>595.6</ele>
        <time>2021-06-18T09:34:44Z</time>
      </trkpt>
      <trkpt lat="39.7964760" lon="2.7595910">
        <ele>597.1</ele>
        <time>2021-06-18T09:34:51Z</time>
      </trkpt>
      <trkpt lat="39.7963510" lon="2.7599920">
        <ele>599.7</ele>
        <time>2021-06-18T09:35:03Z</time>
      </trkpt>
      <trkpt lat="39.7962740" lon="2.7602610">
        <ele>601.3</ele>
        <time>2021-06-18T09:35:11Z</time>
      </trkpt>
      <trkpt lat="39.7961980" lon="2.7604860">
        <ele>602.9</ele>
        <time>2021-06-18T09:35:18Z</time>
      </trkpt>
      <trkpt lat="39.7960720" lon="2.7606890">
        <ele>604.3</ele>
        <time>2021-06-18T09:35:25Z</time>
      </trkpt>
      <trkpt lat="39.7959350" lon="2.7608330">
        <ele>605.5</ele>
        <time>2021-06-18T09:35:31Z</time>
      </trkpt>
      <trkpt lat="39.7957880" lon="2.7609900">
        <ele>606.7</ele>
        <time>2021-06-18T09:35:37Z</time>
      </trkpt>
      <trkpt lat="39.7956190" lon="2.7611730">
        <ele>607.7</ele>
        <time>2021-06-18T09:35:44Z</time>
      </trkpt>
      <trkpt lat="39.7954670" lon="2.7614070">
        <ele>608.2</ele>
        <time>2021-06-18T09:35:51Z</time>
      </trkpt>
      <trkpt lat="39.7954110" lon="2.7615610">
        <ele>608.3</ele>
        <time>2021-06-18T09:35:54Z</time>
      </trkpt>
      <trkpt lat="39.7953920" lon="2.7616660">
        <ele>608.4</ele>
        <time>2021-06-18T09:35:56Z</time>
      </trkpt>
      <trkpt lat="39.7953570" lon="2.7618570">
        <ele>608.5</ele>
        <time>2021-06-18T09:36:00Z</time>
      </trkpt>
      <trkpt lat="39.7953310" lon="2.7619610">
        <ele>608.5</ele>
        <time>2021-06-18T09:36:02Z</time>
      </trkpt>
      <trkpt lat="39.7953200" lon="2.7620150">
        <ele>608.6</ele>
        <time>2021-06-18T09:36:03Z</time>
      </trkpt>
      <trkpt lat="39.7953070" lon="2.7621210">
        <ele>608.7</ele>
        <time>2021-06-18T09:36:06Z</time>
      </trkpt>
      <trkpt lat="39.7952990" lon="2.7622740">
        <ele>609.0</ele>
        <time>2021-06-18T09:36:08Z</time>
      </trkpt>
      <trkpt lat="39.7952760" lon="2.7625060">
        <ele>609.5</ele>
        <time>2021-06-18T09:36:13Z</time>
      </trkpt>
      <trkpt lat="39.7953040" lon="2.7628920">
        <ele>610.9</ele>
        <time>2021-06-18T09:36:21Z</time>
      </trkpt>
      <trkpt lat="39.7953830" lon="2.7632840">
        <ele>612.7</ele>
        <time>2021-06-18T09:36:30Z</time>
      </trkpt>
      <trkpt lat="39.7954230" lon="2.7636250">
        <ele>614.3</ele>
        <time>2021-06-18T09:36:38Z</time>
      </trkpt>
      <trkpt lat="39.7954180" lon="2.7639130">
        <ele>615.7</ele>
        <time>2021-06-18T09:36:44Z</time>
      </trkpt>
      <trkpt lat="39.7954150" lon="2.7639610">
        <ele>615.9</ele>
        <time>2021-06-18T09:36:45Z</time>
      </trkpt>
      <trkpt lat="39.7953790" lon="2.7644160">
        <ele>618.4</ele>
        <time>2021-06-18T09:36:56Z</time>
      </trkpt>
      <trkpt lat="39.7953600" lon="2.7645190">
        <ele>619.1</ele>
        <time>2021-06-18T09:36:59Z</time>
      </trkpt>
      <trkpt lat="39.7953540" lon="2.7645420">
        <ele>619.2</ele>
        <time>2021-06-18T09:37:00Z</time>
      </trkpt>
      <trkpt lat="39.7953320" lon="2.7647850">
        <ele>620.8</ele>
        <time>2021-06-18T09:37:07Z</time>
      </trkpt>
      <trkpt lat="39.7953340" lon="2.7650480">
        <ele>622.4</ele>
        <time>2021-06-18T09:37:14Z</time>
      </trkpt>
      <trkpt lat="39.7953820" lon="2.7653740">
        <ele>624.1</ele>
        <time>2021-06-18T09:37:22Z</time>
      </trkpt>
      <trkpt lat="39.7954470" lon="2.7657140">
        <ele>625.9</ele>
        <time>2021-06-18T09:37:31Z</time>
      </trkpt>
      <trkpt lat="39.7954840" lon="2.7660150">
        <ele>627.6</ele>
        <time>2021-06-18T09:37:39Z</time>
      </trkpt>
      <trkpt lat="39.7955300" lon="2.7663440">
        <ele>629.6</ele>
        <time>2021-06-18T09:37:49Z</time>
      </trkpt>
      <trkpt lat="39.7955410" lon="2.7664930">
        <ele>630.5</ele>
        <time>2021-06-18T09:37:52Z</time>
      </trkpt>
      <trkpt lat="39.7955180" lon="2.7667110">
        <ele>631.9</ele>
        <time>2021-06-18T09:37:58Z</time>
      </trkpt>
      <trkpt lat="39.7954220" lon="2.7670500">
        <ele>634.1</ele>
        <time>2021-06-18T09:38:08Z</time>
      </trkpt>
      <trkpt lat="39.7953640" lon="2.7671880">
        <ele>635.3</ele>
        <time>2021-06-18T09:38:13Z</time>
      </trkpt>
      <trkpt lat="39.7953300" lon="2.7673470">
        <ele>636.5</ele>
        <time>2021-06-18T09:38:18Z</time>
      </trkpt>
      <trkpt lat="39.7953290" lon="2.7674130">
        <ele>637.0</ele>
        <time>2021-06-18T09:38:20Z</time>
      </trkpt>
      <trkpt lat="39.7953350" lon="2.7674800">
        <ele>637.5</ele>
        <time>2021-06-18T09:38:22Z</time>
      </trkpt>
      <trkpt lat="39.7953620" lon="2.7675860">
        <ele>638.3</ele>
        <time>2021-06-18T09:38:25Z</time>
      </trkpt>
      <trkpt lat="39.7954810" lon="2.7677450">
        <ele>639.6</ele>
        <time>2021-06-18T09:38:31Z</time>
      </trkpt>
      <trkpt lat="39.7957470" lon="2.7677930">
        <ele>641.8</ele>
        <time>2021-06-18T09:38:40Z</time>
      </trkpt>
      <trkpt lat="39.7958550" lon="2.7676810">
        <ele>642.8</ele>
        <time>2021-06-18T09:38:45Z</time>
      </trkpt>
      <trkpt lat="39.7958950" lon="2.7676260">
        <ele>643.2</ele>
        <time>2021-06-18T09:38:47Z</time>
      </trkpt>
      <trkpt lat="39.7959470" lon="2.7675310">
        <ele>643.8</ele>
        <time>2021-06-18T09:38:50Z</time>
      </trkpt>
      <trkpt lat="39.7959890" lon="2.7674170">
        <ele>644.4</ele>
        <time>2021-06-18T09:38:53Z</time>
      </trkpt>
      <trkpt lat="39.7960410" lon="2.7673210">
        <ele>644.9</ele>
        <time>2021-06-18T09:38:56Z</time>
      </trkpt>
      <trkpt lat="39.7960700" lon="2.7672480">
        <ele>645.3</ele>
        <time>2021-06-18T09:38:58Z</time>
      </trkpt>
      <trkpt lat="39.7961890" lon="2.7670180">
        <ele>646.8</ele>
        <time>2021-06-18T09:39:05Z</time>
      </trkpt>
      <trkpt lat="39.7963240" lon="2.7667290">
        <ele>648.8</ele>
        <time>2021-06-18T09:39:14Z</time>
      </trkpt>
      <trkpt lat="39.7964070" lon="2.7665740">
        <ele>650.1</ele>
        <time>2021-06-18T09:39:20Z</time>
      </trkpt>
      <trkpt lat="39.7965640" lon="2.7665140">
        <ele>651.6</ele>
        <time>2021-06-18T09:39:26Z</time>
      </trkpt>
      <trkpt lat="39.7966920" lon="2.7665950">
        <ele>652.9</ele>
        <time>2021-06-18T09:39:32Z</time>
      </trkpt>
      <trkpt lat="39.7967330" lon="2.7666550">
        <ele>653.4</ele>
        <time>2021-06-18T09:39:33Z</time>
      </trkpt>
      <trkpt lat="39.7967640" lon="2.7667600">
        <ele>654.2</ele>
        <time>2021-06-18T09:39:36Z</time>
      </trkpt>
      <trkpt lat="39.7967470" lon="2.7669320">
        <ele>655.3</ele>
        <time>2021-06-18T09:39:41Z</time>
      </trkpt>
      <trkpt lat="39.7966550" lon="2.7671180">
        <ele>656.6</ele>
        <time>2021-06-18T09:39:47Z</time>
      </trkpt>
      <trkpt lat="39.7965040" lon="2.7672330">
        <ele>657.8</ele>
        <time>2021-06-18T09:39:53Z</time>
      </trkpt>
      <trkpt lat="39.7964140" lon="2.7673310">
        <ele>658.8</ele>
        <time>2021-06-18T09:39:58Z</time>
      </trkpt>
      <trkpt lat="39.7962260" lon="2.7675320">
        <ele>660.8</ele>
        <time>2021-06-18T09:40:06Z</time>
      </trkpt>
      <trkpt lat="39.7961230" lon="2.7677710">
        <ele>662.4</ele>
        <time>2021-06-18T09:40:14Z</time>
      </trkpt>
      <trkpt lat="39.7960900" lon="2.7679350">
        <ele>663.4</ele>
        <time>2021-06-18T09:40:19Z</time>
      </trkpt>
      <trkpt lat="39.7960690" lon="2.7681480">
        <ele>664.6</ele>
        <time>2021-06-18T09:40:25Z</time>
      </trkpt>
      <trkpt lat="39.7960900" lon="2.7683900">
        <ele>666.0</ele>
        <time>2021-06-18T09:40:31Z</time>
      </trkpt>
      <trkpt lat="39.7960810" lon="2.7685770">
        <ele>667.0</ele>
        <time>2021-06-18T09:40:36Z</time>
      </trkpt>
      <trkpt lat="39.7960790" lon="2.7688800">
        <ele>668.5</ele>
        <time>2021-06-18T09:40:44Z</time>
      </trkpt>
      <trkpt lat="39.7961170" lon="2.7692340">
        <ele>670.4</ele>
        <time>2021-06-18T09:40:52Z</time>
      </trkpt>
      <trkpt lat="39.7961120" lon="2.7693710">
        <ele>671.1</ele>
        <time>2021-06-18T09:40:56Z</time>
      </trkpt>
      <trkpt lat="39.7961120" lon="2.7694550">
        <ele>671.5</ele>
        <time>2021-06-18T09:40:58Z</time>
      </trkpt>
      <trkpt lat="39.7961160" lon="2.7697590">
        <ele>673.2</ele>
        <time>2021-06-18T09:41:06Z</time>
      </trkpt>
      <trkpt lat="39.7961040" lon="2.7700710">
        <ele>675.0</ele>
        <time>2021-06-18T09:41:14Z</time>
      </trkpt>
      <trkpt lat="39.7961000" lon="2.7703320">
        <ele>676.7</ele>
        <time>2021-06-18T09:41:21Z</time>
      </trkpt>
      <trkpt lat="39.7960880" lon="2.7704030">
        <ele>677.1</ele>
        <time>2021-06-18T09:41:23Z</time>
      </trkpt>
      <trkpt lat="39.7960580" lon="2.7705970">
        <ele>678.4</ele>
        <time>2021-06-18T09:41:28Z</time>
      </trkpt>
      <trkpt lat="39.7960110" lon="2.7707720">
        <ele>679.6</ele>
        <time>2021-06-18T09:41:33Z</time>
      </trkpt>
      <trkpt lat="39.7959600" lon="2.7708980">
        <ele>680.6</ele>
        <time>2021-06-18T09:41:37Z</time>
      </trkpt>
      <trkpt lat="39.7958130" lon="2.7711380">
        <ele>682.5</ele>
        <time>2021-06-18T09:41:45Z</time>
      </trkpt>
      <trkpt lat="39.7955820" lon="2.7713750">
        <ele>684.9</ele>
        <time>2021-06-18T09:41:55Z</time>
      </trkpt>
      <trkpt lat="39.7954030" lon="2.7714730">
        <ele>686.4</ele>
        <time>2021-06-18T09:42:02Z</time>
      </trkpt>
      <trkpt lat="39.7952380" lon="2.7715360">
        <ele>687.7</ele>
        <time>2021-06-18T09:42:08Z</time>
      </trkpt>
      <trkpt lat="39.7951160" lon="2.7715470">
        <ele>688.5</ele>
        <time>2021-06-18T09:42:12Z</time>
      </trkpt>
      <trkpt lat="39.7950340" lon="2.7715420">
        <ele>689.1</ele>
        <time>2021-06-18T09:42:15Z</time>
      </trkpt>
      <trkpt lat="39.7949120" lon="2.7715040">
        <ele>690.1</ele>
        <time>2021-06-18T09:42:19Z</time>
      </trkpt>
      <trkpt lat="39.7948320" lon="2.7714630">
        <ele>690.7</ele>
        <time>2021-06-18T09:42:23Z</time>
      </trkpt>
      <trkpt lat="39.7945450" lon="2.7712820">
        <ele>692.9</ele>
        <time>2021-06-18T09:42:33Z</time>
      </trkpt>
      <trkpt lat="39.7943420" lon="2.7711170">
        <ele>694.6</ele>
        <time>2021-06-18T09:42:41Z</time>
      </trkpt>
      <trkpt lat="39.7940690" lon="2.7708890">
        <ele>697.1</ele>
        <time>2021-06-18T09:42:52Z</time>
      </trkpt>
      <trkpt lat="39.7937670" lon="2.7706510">
        <ele>699.7</ele>
        <time>2021-06-18T09:43:04Z</time>
      </trkpt>
      <trkpt lat="39.7937140" lon="2.7706110">
        <ele>700.1</ele>
        <time>2021-06-18T09:43:06Z</time>
      </trkpt>
      <trkpt lat="39.7935850" lon="2.7705140">
        <ele>701.2</ele>
        <time>2021-06-18T09:43:11Z</time>
      </trkpt>
      <trkpt lat="39.7933950" lon="2.7703610">
        <ele>702.9</ele>
        <time>2021-06-18T09:43:19Z</time>
      </trkpt>
      <trkpt lat="39.7933520" lon="2.7703240">
        <ele>703.4</ele>
        <time>2021-06-18T09:43:21Z</time>
      </trkpt>
      <trkpt lat="39.7931800" lon="2.7702320">
        <ele>704.9</ele>
        <time>2021-06-18T09:43:28Z</time>
      </trkpt>
      <trkpt lat="39.7930180" lon="2.7702580">
        <ele>706.1</ele>
        <time>2021-06-18T09:43:34Z</time>
      </trkpt>
      <trkpt lat="39.7928550" lon="2.7704280">
        <ele>707.7</ele>
        <time>2021-06-18T09:43:41Z</time>
      </trkpt>
      <trkpt lat="39.7927950" lon="2.7706720">
        <ele>709.2</ele>
        <time>2021-06-18T09:43:48Z</time>
      </trkpt>
      <trkpt lat="39.7928290" lon="2.7708550">
        <ele>710.2</ele>
        <time>2021-06-18T09:43:53Z</time>
      </trkpt>
      <trkpt lat="39.7928460" lon="2.7708850">
        <ele>710.4</ele>
        <time>2021-06-18T09:43:54Z</time>
      </trkpt>
      <trkpt lat="39.7929890" lon="2.7711040">
        <ele>711.9</ele>
        <time>2021-06-18T09:44:02Z</time>
      </trkpt>
      <trkpt lat="39.7931790" lon="2.7713450">
        <ele>713.6</ele>
        <time>2021-06-18T09:44:10Z</time>
      </trkpt>
      <trkpt lat="39.7932230" lon="2.7713930">
        <ele>714.0</ele>
        <time>2021-06-18T09:44:12Z</time>
      </trkpt>
      <trkpt lat="39.7934270" lon="2.7716400">
        <ele>715.9</ele>
        <time>2021-06-18T09:44:22Z</time>
      </trkpt>
      <trkpt lat="39.7934930" lon="2.7717410">
        <ele>716.6</ele>
        <time>2021-06-18T09:44:26Z</time>
      </trkpt>
      <trkpt lat="39.7935120" lon="2.7717640">
        <ele>716.9</ele>
        <time>2021-06-18T09:44:27Z</time>
      </trkpt>
      <trkpt lat="39.7936620" lon="2.7719280">
        <ele>718.5</ele>
        <time>2021-06-18T09:44:34Z</time>
      </trkpt>
      <trkpt lat="39.7938010" lon="2.7721200">
        <ele>720.2</ele>
        <time>2021-06-18T09:44:41Z</time>
      </trkpt>
      <trkpt lat="39.7939540" lon="2.7722910">
        <ele>721.9</ele>
        <time>2021-06-18T09:44:48Z</time>
      </trkpt>
      <trkpt lat="39.7940870" lon="2.7724510">
        <ele>723.4</ele>
        <time>2021-06-18T09:44:55Z</time>
      </trkpt>
      <trkpt lat="39.7943250" lon="2.7726370">
        <ele>725.5</ele>
        <time>2021-06-18T09:45:04Z</time>
      </trkpt>
      <trkpt lat="39.7945440" lon="2.7727850">
        <ele>727.4</ele>
        <time>2021-06-18T09:45:12Z</time>
      </trkpt>
      <trkpt lat="39.7947790" lon="2.7730210">
        <ele>729.8</ele>
        <time>2021-06-18T09:45:22Z</time>
      </trkpt>
      <trkpt lat="39.7948450" lon="2.7732370">
        <ele>731.3</ele>
        <time>2021-06-18T09:45:28Z</time>
      </trkpt>
      <trkpt lat="39.7948480" lon="2.7734800">
        <ele>732.9</ele>
        <time>2021-06-18T09:45:35Z</time>
      </trkpt>
      <trkpt lat="39.7948280" lon="2.7738190">
        <ele>735.2</ele>
        <time>2021-06-18T09:45:44Z</time>
      </trkpt>
      <trkpt lat="39.7948100" lon="2.7741400">
        <ele>737.3</ele>
        <time>2021-06-18T09:45:53Z</time>
      </trkpt>
      <trkpt lat="39.7948930" lon="2.7743240">
        <ele>738.6</ele>
        <time>2021-06-18T09:45:59Z</time>
      </trkpt>
      <trkpt lat="39.7950400" lon="2.7744360">
        <ele>739.9</ele>
        <time>2021-06-18T09:46:05Z</time>
      </trkpt>
      <trkpt lat="39.7953720" lon="2.7744960">
        <ele>742.1</ele>
        <time>2021-06-18T09:46:16Z</time>
      </trkpt>
      <trkpt lat="39.7954620" lon="2.7744970">
        <ele>742.7</ele>
        <time>2021-06-18T09:46:19Z</time>
      </trkpt>
      <trkpt lat="39.7955460" lon="2.7744940">
        <ele>743.4</ele>
        <time>2021-06-18T09:46:22Z</time>
      </trkpt>
      <trkpt lat="39.7957450" lon="2.7744770">
        <ele>745.1</ele>
        <time>2021-06-18T09:46:29Z</time>
      </trkpt>
      <trkpt lat="39.7959630" lon="2.7744880">
        <ele>747.1</ele>
        <time>2021-06-18T09:46:37Z</time>
      </trkpt>
      <trkpt lat="39.7961450" lon="2.7745110">
        <ele>748.8</ele>
        <time>2021-06-18T09:46:44Z</time>
      </trkpt>
      <trkpt lat="39.7963640" lon="2.7745300">
        <ele>750.7</ele>
        <time>2021-06-18T09:46:52Z</time>
      </trkpt>
      <trkpt lat="39.7966320" lon="2.7744210">
        <ele>752.9</ele>
        <time>2021-06-18T09:47:02Z</time>
      </trkpt>
      <trkpt lat="39.7969100" lon="2.7742790">
        <ele>755.1</ele>
        <time>2021-06-18T09:47:12Z</time>
      </trkpt>
      <trkpt lat="39.7971400" lon="2.7741300">
        <ele>757.1</ele>
        <time>2021-06-18T09:47:21Z</time>
      </trkpt>
      <trkpt lat="39.7972050" lon="2.7740690">
        <ele>757.8</ele>
        <time>2021-06-18T09:47:24Z</time>
      </trkpt>
      <trkpt lat="39.7972890" lon="2.7739710">
        <ele>758.8</ele>
        <time>2021-06-18T09:47:28Z</time>
      </trkpt>
      <trkpt lat="39.7974240" lon="2.7737960">
        <ele>760.5</ele>
        <time>2021-06-18T09:47:35Z</time>
      </trkpt>
      <trkpt lat="39.7975520" lon="2.7735550">
        <ele>762.2</ele>
        <time>2021-06-18T09:47:43Z</time>
      </trkpt>
      <trkpt lat="39.7976360" lon="2.7733570">
        <ele>763.5</ele>
        <time>2021-06-18T09:47:49Z</time>
      </trkpt>
      <trkpt lat="39.7977620" lon="2.7730640">
        <ele>765.4</ele>
        <time>2021-06-18T09:47:58Z</time>
      </trkpt>
      <trkpt lat="39.7978890" lon="2.7729630">
        <ele>766.6</ele>
        <time>2021-06-18T09:48:03Z</time>
      </trkpt>
      <trkpt lat="39.7979970" lon="2.7729520">
        <ele>767.5</ele>
        <time>2021-06-18T09:48:08Z</time>
      </trkpt>
      <trkpt lat="39.7981400" lon="2.7730510">
        <ele>769.0</ele>
        <time>2021-06-18T09:48:14Z</time>
      </trkpt>
      <trkpt lat="39.7982070" lon="2.7732360">
        <ele>770.5</ele>
        <time>2021-06-18T09:48:20Z</time>
      </trkpt>
      <trkpt lat="39.7982080" lon="2.7732720">
        <ele>770.7</ele>
        <time>2021-06-18T09:48:21Z</time>
      </trkpt>
      <trkpt lat="39.7981840" lon="2.7734430">
        <ele>771.9</ele>
        <time>2021-06-18T09:48:26Z</time>
      </trkpt>
      <trkpt lat="39.7981620" lon="2.7734690">
        <ele>772.2</ele>
        <time>2021-06-18T09:48:27Z</time>
      </trkpt>
      <trkpt lat="39.7980480" lon="2.7736050">
        <ele>773.6</ele>
        <time>2021-06-18T09:48:33Z</time>
      </trkpt>
      <trkpt lat="39.7978940" lon="2.7737240">
        <ele>775.2</ele>
        <time>2021-06-18T09:48:40Z</time>
      </trkpt>
      <trkpt lat="39.7977710" lon="2.7738500">
        <ele>776.6</ele>
        <time>2021-06-18T09:48:46Z</time>
      </trkpt>
      <trkpt lat="39.7977150" lon="2.7740000">
        <ele>777.7</ele>
        <time>2021-06-18T09:48:51Z</time>
      </trkpt>
      <trkpt lat="39.7976640" lon="2.7742810">
        <ele>779.3</ele>
        <time>2021-06-18T09:48:59Z</time>
      </trkpt>
      <trkpt lat="39.7976510" lon="2.7744600">
        <ele>780.2</ele>
        <time>2021-06-18T09:49:05Z</time>
      </trkpt>
      <trkpt lat="39.7976450" lon="2.7744810">
        <ele>780.4</ele>
        <time>2021-06-18T09:49:06Z</time>
      </trkpt>
      <trkpt lat="39.7976180" lon="2.7746290">
        <ele>781.1</ele>
        <time>2021-06-18T09:49:11Z</time>
      </trkpt>
      <trkpt lat="39.7975770" lon="2.7747860">
        <ele>782.0</ele>
        <time>2021-06-18T09:49:16Z</time>
      </trkpt>
      <trkpt lat="39.7974870" lon="2.7749450">
        <ele>783.2</ele>
        <time>2021-06-18T09:49:23Z</time>
      </trkpt>
      <trkpt lat="39.7973870" lon="2.7750650">
        <ele>784.2</ele>
        <time>2021-06-18T09:49:29Z</time>
      </trkpt>
      <trkpt lat="39.7972140" lon="2.7751960">
        <ele>785.7</ele>
        <time>2021-06-18T09:49:37Z</time>
      </trkpt>
      <trkpt lat="39.7970030" lon="2.7753100">
        <ele>787.3</ele>
        <time>2021-06-18T09:49:46Z</time>
      </trkpt>
      <trkpt lat="39.7967920" lon="2.7754550">
        <ele>788.9</ele>
        <time>2021-06-18T09:49:55Z</time>
      </trkpt>
      <trkpt lat="39.7966910" lon="2.7755690">
        <ele>789.9</ele>
        <time>2021-06-18T09:50:00Z</time>
      </trkpt>
      <trkpt lat="39.7966520" lon="2.7756190">
        <ele>790.2</ele>
        <time>2021-06-18T09:50:02Z</time>
      </trkpt>
      <trkpt lat="39.7966190" lon="2.7756750">
        <ele>790.5</ele>
        <time>2021-06-18T09:50:04Z</time>
      </trkpt>
      <trkpt lat="39.7964940" lon="2.7759020">
        <ele>791.9</ele>
        <time>2021-06-18T09:50:12Z</time>
      </trkpt>
      <trkpt lat="39.7964040" lon="2.7760720">
        <ele>792.9</ele>
        <time>2021-06-18T09:50:18Z</time>
      </trkpt>
      <trkpt lat="39.7963050" lon="2.7762560">
        <ele>793.9</ele>
        <time>2021-06-18T09:50:24Z</time>
      </trkpt>
      <trkpt lat="39.7962580" lon="2.7763050">
        <ele>794.3</ele>
        <time>2021-06-18T09:50:26Z</time>
      </trkpt>
      <trkpt lat="39.7961050" lon="2.7764410">
        <ele>795.4</ele>
        <time>2021-06-18T09:50:32Z</time>
      </trkpt>
      <trkpt lat="39.7958210" lon="2.7766070">
        <ele>797.5</ele>
        <time>2021-06-18T09:50:43Z</time>
      </trkpt>
      <trkpt lat="39.7956510" lon="2.7767160">
        <ele>798.9</ele>
        <time>2021-06-18T09:50:50Z</time>
      </trkpt>
      <trkpt lat="39.7955120" lon="2.7768340">
        <ele>800.0</ele>
        <time>2021-06-18T09:50:56Z</time>
      </trkpt>
      <trkpt lat="39.7953600" lon="2.7769890">
        <ele>801.2</ele>
        <time>2021-06-18T09:51:03Z</time>
      </trkpt>
      <trkpt lat="39.7952690" lon="2.7770880">
        <ele>802.0</ele>
        <time>2021-06-18T09:51:07Z</time>
      </trkpt>
      <trkpt lat="39.7951330" lon="2.7771800">
        <ele>802.8</ele>
        <time>2021-06-18T09:51:12Z</time>
      </trkpt>
      <trkpt lat="39.7950630" lon="2.7772020">
        <ele>803.1</ele>
        <time>2021-06-18T09:51:14Z</time>
      </trkpt>
      <trkpt lat="39.7949380" lon="2.7772070">
        <ele>803.7</ele>
        <time>2021-06-18T09:51:18Z</time>
      </trkpt>
      <trkpt lat="39.7947280" lon="2.7771490">
        <ele>804.5</ele>
        <time>2021-06-18T09:51:25Z</time>
      </trkpt>
      <trkpt lat="39.7944950" lon="2.7770590">
        <ele>805.4</ele>
        <time>2021-06-18T09:51:33Z</time>
      </trkpt>
      <trkpt lat="39.7942530" lon="2.7769680">
        <ele>806.6</ele>
        <time>2021-06-18T09:51:41Z</time>
      </trkpt>
      <trkpt lat="39.7940610" lon="2.7768390">
        <ele>807.9</ele>
        <time>2021-06-18T09:51:49Z</time>
      </trkpt>
      <trkpt lat="39.7939450" lon="2.7767300">
        <ele>808.9</ele>
        <time>2021-06-18T09:51:54Z</time>
      </trkpt>
      <trkpt lat="39.7937910" lon="2.7765890">
        <ele>810.2</ele>
        <time>2021-06-18T09:52:01Z</time>
      </trkpt>
      <trkpt lat="39.7936660" lon="2.7764620">
        <ele>811.3</ele>
        <time>2021-06-18T09:52:07Z</time>
      </trkpt>
      <trkpt lat="39.7934980" lon="2.7762410">
        <ele>813.0</ele>
        <time>2021-06-18T09:52:15Z</time>
      </trkpt>
      <trkpt lat="39.7933410" lon="2.7759520">
        <ele>814.9</ele>
        <time>2021-06-18T09:52:24Z</time>
      </trkpt>
      <trkpt lat="39.7932790" lon="2.7758350">
        <ele>815.7</ele>
        <time>2021-06-18T09:52:28Z</time>
      </trkpt>
      <trkpt lat="39.7931990" lon="2.7756940">
        <ele>816.8</ele>
        <time>2021-06-18T09:52:33Z</time>
      </trkpt>
      <trkpt lat="39.7931350" lon="2.7756090">
        <ele>817.5</ele>
        <time>2021-06-18T09:52:36Z</time>
      </trkpt>
      <trkpt lat="39.7930330" lon="2.7755430">
        <ele>818.4</ele>
        <time>2021-06-18T09:52:40Z</time>
      </trkpt>
      <trkpt lat="39.7929110" lon="2.7755260">
        <ele>819.4</ele>
        <time>2021-06-18T09:52:44Z</time>
      </trkpt>
      <trkpt lat="39.7927900" lon="2.7755130">
        <ele>820.5</ele>
        <time>2021-06-18T09:52:48Z</time>
      </trkpt>
      <trkpt lat="39.7925290" lon="2.7754750">
        <ele>822.7</ele>
        <time>2021-06-18T09:52:57Z</time>
      </trkpt>
      <trkpt lat="39.7923090" lon="2.7754320">
        <ele>824.6</ele>
        <time>2021-06-18T09:53:04Z</time>
      </trkpt>
      <trkpt lat="39.7920040" lon="2.7752890">
        <ele>827.3</ele>
        <time>2021-06-18T09:53:14Z</time>
      </trkpt>
      <trkpt lat="39.7916020" lon="2.7751230">
        <ele>831.0</ele>
        <time>2021-06-18T09:53:27Z</time>
      </trkpt>
      <trkpt lat="39.7913610" lon="2.7750080">
        <ele>833.2</ele>
        <time>2021-06-18T09:53:35Z</time>
      </trkpt>
      <trkpt lat="39.7911570" lon="2.7748680">
        <ele>834.9</ele>
        <time>2021-06-18T09:53:42Z</time>
      </trkpt>
      <trkpt lat="39.7909210" lon="2.7746950">
        <ele>836.8</ele>
        <time>2021-06-18T09:53:50Z</time>
      </trkpt>
      <trkpt lat="39.7906920" lon="2.7745310">
        <ele>838.9</ele>
        <time>2021-06-18T09:53:58Z</time>
      </trkpt>
      <trkpt lat="39.7906380" lon="2.7744960">
        <ele>839.2</ele>
        <time>2021-06-18T09:54:00Z</time>
      </trkpt>
      <trkpt lat="39.7905690" lon="2.7744450">
        <ele>839.5</ele>
        <time>2021-06-18T09:54:03Z</time>
      </trkpt>
      <trkpt lat="39.7904830" lon="2.7743890">
        <ele>840.1</ele>
        <time>2021-06-18T09:54:07Z</time>
      </trkpt>
      <trkpt lat="39.7904530" lon="2.7743730">
        <ele>840.2</ele>
        <time>2021-06-18T09:54:09Z</time>
      </trkpt>
      <trkpt lat="39.7904140" lon="2.7743620">
        <ele>840.5</ele>
        <time>2021-06-18T09:54:13Z</time>
      </trkpt>
      <trkpt lat="39.7904150" lon="2.7743420">
        <ele>840.6</ele>
        <time>2021-06-18T09:54:19Z</time>
      </trkpt>
      <trkpt lat="39.7904300" lon="2.7743350">
        <ele>840.6</ele>
        <time>2021-06-18T09:54:25Z</time>
      </trkpt>
      <trkpt lat="39.7904300" lon="2.7743350">
        <ele>840.6</ele>
        <time>2021-06-18T09:54:28Z</time>
      </trkpt>
      <trkpt lat="39.7904150" lon="2.7743240">
        <ele>840.7</ele>
        <time>2021-06-18T09:54:33Z</time>
      </trkpt>
      <trkpt lat="39.7904140" lon="2.7743230">
        <ele>840.8</ele>
        <time>2021-06-18T09:54:37Z</time>
      </trkpt>
      <trkpt lat="39.7904110" lon="2.7743220">
        <ele>840.8</ele>
        <time>2021-06-18T09:54:39Z</time>
      </trkpt>
      <trkpt lat="39.7904090" lon="2.7743200">
        <ele>840.8</ele>
        <time>2021-06-18T09:54:46Z</time>
      </trkpt>
      <trkpt lat="39.7904090" lon="2.7743200">
        <ele>840.8</ele>
        <time>2021-06-18T09:54:47Z</time>
      </trkpt>
      <trkpt lat="39.7904000" lon="2.7743140">
        <ele>840.8</ele>
        <time>2021-06-18T09:54:50Z</time>
      </trkpt>
      <trkpt lat="39.7903920" lon="2.7743110">
        <ele>840.9</ele>
        <time>2021-06-18T09:54:54Z</time>
      </trkpt>
      <trkpt lat="39.7903780" lon="2.7743030">
        <ele>841.0</ele>
        <time>2021-06-18T09:55:14Z</time>
      </trkpt>
      <trkpt lat="39.7903780" lon="2.7743030">
        <ele>841.0</ele>
        <time>2021-06-18T09:55:15Z</time>
      </trkpt>
      <trkpt lat="39.7903780" lon="2.7743030">
        <ele>841.0</ele>
        <time>2021-06-18T09:55:16Z</time>
      </trkpt>
      <trkpt lat="39.7903780" lon="2.7743030">
        <ele>841.0</ele>
        <time>2021-06-18T09:55:17Z</time>
      </trkpt>
      <trkpt lat="39.7903780" lon="2.7743030">
        <ele>841.0</ele>
        <time>2021-06-18T09:55:18Z</time>
      </trkpt>
      <trkpt lat="39.7903780" lon="2.7743030">
        <ele>841.0</ele>
        <time>2021-06-18T09:55:19Z</time>
      </trkpt>
      <trkpt lat="39.7903780" lon="2.7743030">
        <ele>841.0</ele>
        <time>2021-06-18T09:55:21Z</time>
      </trkpt>
      <trkpt lat="39.7903780" lon="2.7743030">
        <ele>841.0</ele>
        <time>2021-06-18T09:55:24Z</time>
      </trkpt>
      <trkpt lat="39.7903780" lon="2.7743030">
        <ele>841.0</ele>
        <time>2021-06-18T09:55:29Z</time>
      </trkpt>
      <trkpt lat="39.7903780" lon="2.7743030">
        <ele>841.0</ele>
        <time>2021-06-18T09:55:37Z</time>
      </trkpt>
      <trkpt lat="39.7903780" lon="2.7743030">
        <ele>841.0</ele>
        <time>2021-06-18T09:56:05Z</time>
      </trkpt>
      <trkpt lat="39.7903780" lon="2.7743030">
        <ele>841.0</ele>
        <time>2021-06-18T09:56:16Z</time>
      </trkpt>
      <trkpt lat="39.7903780" lon="2.7743030">
        <ele>841.0</ele>
        <time>2021-06-18T09:56:20Z</time>
      </trkpt>
      <trkpt lat="39.7903780" lon="2.7743030">
        <ele>841.0</ele>
        <time>2021-06-18T09:56:27Z</time>
      </trkpt>
      <trkpt lat="39.7903780" lon="2.7743030">
        <ele>841.0</ele>
        <time>2021-06-18T09:56:30Z</time>
      </trkpt>
      <trkpt lat="39.7903780" lon="2.7743030">
        <ele>841.0</ele>
        <time>2021-06-18T09:56:39Z</time>
      </trkpt>
      <trkpt lat="39.7903820" lon="2.7743020">
        <ele>841.0</ele>
        <time>2021-06-18T09:56:54Z</time>
      </trkpt>
      <trkpt lat="39.7903820" lon="2.7743020">
        <ele>841.0</ele>
        <time>2021-06-18T09:57:24Z</time>
      </trkpt>
      <trkpt lat="39.7903820" lon="2.7743020">
        <ele>841.0</ele>
        <time>2021-06-18T09:57:33Z</time>
      </trkpt>
      <trkpt lat="39.7903820" lon="2.7743020">
        <ele>841.0</ele>
        <time>2021-06-18T09:57:40Z</time>
      </trkpt>
      <trkpt lat="39.7903820" lon="2.7743020">
        <ele>841.0</ele>
        <time>2021-06-18T09:57:45Z</time>
      </trkpt>
      <trkpt lat="39.7903820" lon="2.7743020">
        <ele>841.0</ele>
        <time>2021-06-18T09:57:47Z</time>
      </trkpt>
      <trkpt lat="39.7903810" lon="2.7743070">
        <ele>841.0</ele>
        <time>2021-06-18T09:58:09Z</time>
      </trkpt>
      <trkpt lat="39.7903810" lon="2.7743070">
        <ele>841.0</ele>
        <time>2021-06-18T09:58:12Z</time>
      </trkpt>
      <trkpt lat="39.7903810" lon="2.7743090">
        <ele>841.0</ele>
        <time>2021-06-18T09:58:17Z</time>
      </trkpt>
      <trkpt lat="39.7903810" lon="2.7743100">
        <ele>841.0</ele>
        <time>2021-06-18T09:58:25Z</time>
      </trkpt>
      <trkpt lat="39.7903780" lon="2.7743100">
        <ele>841.1</ele>
        <time>2021-06-18T09:58:49Z</time>
      </trkpt>
      <trkpt lat="39.7903780" lon="2.7743100">
        <ele>841.1</ele>
        <time>2021-06-18T09:58:56Z</time>
      </trkpt>
      <trkpt lat="39.7903780" lon="2.7743100">
        <ele>841.1</ele>
        <time>2021-06-18T09:59:03Z</time>
      </trkpt>
      <trkpt lat="39.7903780" lon="2.7743100">
        <ele>841.1</ele>
        <time>2021-06-18T09:59:20Z</time>
      </trkpt>
      <trkpt lat="39.7903780" lon="2.7743100">
        <ele>841.1</ele>
        <time>2021-06-18T09:59:23Z</time>
      </trkpt>
      <trkpt lat="39.7903780" lon="2.7743100">
        <ele>841.1</ele>
        <time>2021-06-18T09:59:38Z</time>
      </trkpt>
      <trkpt lat="39.7903780" lon="2.7743100">
        <ele>841.1</ele>
        <time>2021-06-18T09:59:43Z</time>
      </trkpt>
      <trkpt lat="39.7903780" lon="2.7743100">
        <ele>841.1</ele>
        <time>2021-06-18T09:59:45Z</time>
      </trkpt>
      <trkpt lat="39.7903740" lon="2.7743090">
        <ele>841.1</ele>
        <time>2021-06-18T10:00:12Z</time>
      </trkpt>
      <trkpt lat="39.7903740" lon="2.7743090">
        <ele>841.1</ele>
        <time>2021-06-18T10:00:23Z</time>
      </trkpt>
      <trkpt lat="39.7903740" lon="2.7743090">
        <ele>841.1</ele>
        <time>2021-06-18T10:00:30Z</time>
      </trkpt>
      <trkpt lat="39.7903740" lon="2.7743090">
        <ele>841.1</ele>
        <time>2021-06-18T10:00:43Z</time>
      </trkpt>
      <trkpt lat="39.7903740" lon="2.7743090">
        <ele>841.1</ele>
        <time>2021-06-18T10:01:46Z</time>
      </trkpt>
      <trkpt lat="39.7903730" lon="2.7743080">
        <ele>841.1</ele>
        <time>2021-06-18T10:02:05Z</time>
      </trkpt>
      <trkpt lat="39.7903730" lon="2.7743080">
        <ele>841.1</ele>
        <time>2021-06-18T10:02:07Z</time>
      </trkpt>
      <trkpt lat="39.7903730" lon="2.7743080">
        <ele>841.1</ele>
        <time>2021-06-18T10:02:12Z</time>
      </trkpt>
      <trkpt lat="39.7903730" lon="2.7743080">
        <ele>841.1</ele>
        <time>2021-06-18T10:02:22Z</time>
      </trkpt>
      <trkpt lat="39.7903730" lon="2.7743080">
        <ele>841.1</ele>
        <time>2021-06-18T10:02:44Z</time>
      </trkpt>
      <trkpt lat="39.7903730" lon="2.7743080">
        <ele>841.1</ele>
        <time>2021-06-18T10:02:47Z</time>
      </trkpt>
      <trkpt lat="39.7903730" lon="2.7743080">
        <ele>841.1</ele>
        <time>2021-06-18T10:02:59Z</time>
      </trkpt>
      <trkpt lat="39.7903730" lon="2.7743080">
        <ele>841.1</ele>
        <time>2021-06-18T10:03:03Z</time>
      </trkpt>
      <trkpt lat="39.7903720" lon="2.7743070">
        <ele>841.1</ele>
        <time>2021-06-18T10:03:06Z</time>
      </trkpt>
      <trkpt lat="39.7903720" lon="2.7743070">
        <ele>841.1</ele>
        <time>2021-06-18T10:03:08Z</time>
      </trkpt>
      <trkpt lat="39.7903720" lon="2.7743070">
        <ele>841.1</ele>
        <time>2021-06-18T10:03:10Z</time>
      </trkpt>
      <trkpt lat="39.7903700" lon="2.7743040">
        <ele>841.1</ele>
        <time>2021-06-18T10:03:12Z</time>
      </trkpt>
      <trkpt lat="39.7903690" lon="2.7743040">
        <ele>841.1</ele>
        <time>2021-06-18T10:03:13Z</time>
      </trkpt>
      <trkpt lat="39.7903860" lon="2.7743030">
        <ele>841.2</ele>
        <time>2021-06-18T10:03:53Z</time>
      </trkpt>
      <trkpt lat="39.7903850" lon="2.7743050">
        <ele>841.2</ele>
        <time>2021-06-18T10:03:55Z</time>
      </trkpt>
      <trkpt lat="39.7903850" lon="2.7743050">
        <ele>841.2</ele>
        <time>2021-06-18T10:04:00Z</time>
      </trkpt>
      <trkpt lat="39.7903860" lon="2.7743050">
        <ele>841.2</ele>
        <time>2021-06-18T10:04:09Z</time>
      </trkpt>
      <trkpt lat="39.7903860" lon="2.7743030">
        <ele>841.2</ele>
        <time>2021-06-18T10:04:14Z</time>
      </trkpt>
      <trkpt lat="39.7903860" lon="2.7743030">
        <ele>841.2</ele>
        <time>2021-06-18T10:04:20Z</time>
      </trkpt>
      <trkpt lat="39.7903860" lon="2.7743030">
        <ele>841.2</ele>
        <time>2021-06-18T10:04:22Z</time>
      </trkpt>
      <trkpt lat="39.7903860" lon="2.7743030">
        <ele>841.2</ele>
        <time>2021-06-18T10:04:26Z</time>
      </trkpt>
      <trkpt lat="39.7903860" lon="2.7743030">
        <ele>841.2</ele>
        <time>2021-06-18T10:04:35Z</time>
      </trkpt>
      <trkpt lat="39.7903860" lon="2.7743030">
        <ele>841.2</ele>
        <time>2021-06-18T10:04:50Z</time>
      </trkpt>
      <trkpt lat="39.7903860" lon="2.7743030">
        <ele>841.2</ele>
        <time>2021-06-18T10:04:52Z</time>
      </trkpt>
      <trkpt lat="39.7903860" lon="2.7743030">
        <ele>841.2</ele>
        <time>2021-06-18T10:04:56Z</time>
      </trkpt>
      <trkpt lat="39.7903860" lon="2.7743030">
        <ele>841.2</ele>
        <time>2021-06-18T10:04:57Z</time>
      </trkpt>
      <trkpt lat="39.7903860" lon="2.7743030">
        <ele>841.2</ele>
        <time>2021-06-18T10:05:04Z</time>
      </trkpt>
      <trkpt lat="39.7903860" lon="2.7743030">
        <ele>841.2</ele>
        <time>2021-06-18T10:05:10Z</time>
      </trkpt>
      <trkpt lat="39.7903860" lon="2.7743030">
        <ele>841.2</ele>
        <time>2021-06-18T10:05:18Z</time>
      </trkpt>
      <trkpt lat="39.7903860" lon="2.7743030">
        <ele>841.2</ele>
        <time>2021-06-18T10:05:22Z</time>
      </trkpt>
      <trkpt lat="39.7903860" lon="2.7743030">
        <ele>841.2</ele>
        <time>2021-06-18T10:05:24Z</time>
      </trkpt>
      <trkpt lat="39.7903860" lon="2.7743030">
        <ele>841.2</ele>
        <time>2021-06-18T10:05:34Z</time>
      </trkpt>
      <trkpt lat="39.7903860" lon="2.7743030">
        <ele>841.2</ele>
        <time>2021-06-18T10:05:45Z</time>
      </trkpt>
      <trkpt lat="39.7903860" lon="2.7743030">
        <ele>841.2</ele>
        <time>2021-06-18T10:05:50Z</time>
      </trkpt>
      <trkpt lat="39.7903840" lon="2.7743030">
        <ele>841.2</ele>
        <time>2021-06-18T10:05:53Z</time>
      </trkpt>
      <trkpt lat="39.7903830" lon="2.7743100">
        <ele>841.3</ele>
        <time>2021-06-18T10:05:56Z</time>
      </trkpt>
      <trkpt lat="39.7903820" lon="2.7743110">
        <ele>841.3</ele>
        <time>2021-06-18T10:05:57Z</time>
      </trkpt>
      <trkpt lat="39.7904200" lon="2.7743470">
        <ele>841.6</ele>
        <time>2021-06-18T10:06:01Z</time>
      </trkpt>
      <trkpt lat="39.7904240" lon="2.7743490">
        <ele>841.6</ele>
        <time>2021-06-18T10:06:04Z</time>
      </trkpt>
      <trkpt lat="39.7904240" lon="2.7743490">
        <ele>841.6</ele>
        <time>2021-06-18T10:06:07Z</time>
      </trkpt>
      <trkpt lat="39.7904160" lon="2.7743810">
        <ele>841.7</ele>
        <time>2021-06-18T10:06:16Z</time>
      </trkpt>
      <trkpt lat="39.7904160" lon="2.7743810">
        <ele>841.7</ele>
        <time>2021-06-18T10:06:17Z</time>
      </trkpt>
      <trkpt lat="39.7904160" lon="2.7743810">
        <ele>841.7</ele>
        <time>2021-06-18T10:06:23Z</time>
      </trkpt>
      <trkpt lat="39.7904160" lon="2.7743810">
        <ele>841.7</ele>
        <time>2021-06-18T10:06:25Z</time>
      </trkpt>
      <trkpt lat="39.7904120" lon="2.7743810">
        <ele>841.8</ele>
        <time>2021-06-18T10:06:28Z</time>
      </trkpt>
      <trkpt lat="39.7904090" lon="2.7743840">
        <ele>841.8</ele>
        <time>2021-06-18T10:06:31Z</time>
      </trkpt>
      <trkpt lat="39.7903970" lon="2.7743980">
        <ele>841.9</ele>
        <time>2021-06-18T10:06:35Z</time>
      </trkpt>
      <trkpt lat="39.7903670" lon="2.7744140">
        <ele>842.1</ele>
        <time>2021-06-18T10:06:37Z</time>
      </trkpt>
      <trkpt lat="39.7902990" lon="2.7744960">
        <ele>842.6</ele>
        <time>2021-06-18T10:06:42Z</time>
      </trkpt>
      <trkpt lat="39.7902900" lon="2.7745200">
        <ele>842.8</ele>
        <time>2021-06-18T10:06:43Z</time>
      </trkpt>
      <trkpt lat="39.7902340" lon="2.7746060">
        <ele>843.3</ele>
        <time>2021-06-18T10:06:47Z</time>
      </trkpt>
      <trkpt lat="39.7901770" lon="2.7746990">
        <ele>843.8</ele>
        <time>2021-06-18T10:06:51Z</time>
      </trkpt>
      <trkpt lat="39.7901670" lon="2.7747190">
        <ele>843.9</ele>
        <time>2021-06-18T10:06:58Z</time>
      </trkpt>
      <trkpt lat="39.7901570" lon="2.7747390">
        <ele>844.1</ele>
        <time>2021-06-18T10:07:00Z</time>
      </trkpt>
      <trkpt lat="39.7901480" lon="2.7747590">
        <ele>844.2</ele>
        <time>2021-06-18T10:07:01Z</time>
      </trkpt>
      <trkpt lat="39.7901380" lon="2.7747790">
        <ele>844.3</ele>
        <time>2021-06-18T10:07:02Z</time>
      </trkpt>
      <trkpt lat="39.7901280" lon="2.7747990">
        <ele>844.4</ele>
        <time>2021-06-18T10:07:03Z</time>
      </trkpt>
      <trkpt lat="39.7901180" lon="2.7748190">
        <ele>844.5</ele>
        <time>2021-06-18T10:07:04Z</time>
      </trkpt>
      <trkpt lat="39.7901090" lon="2.7748400">
        <ele>844.6</ele>
        <time>2021-06-18T10:07:05Z</time>
      </trkpt>
      <trkpt lat="39.7900990" lon="2.7748600">
        <ele>844.7</ele>
        <time>2021-06-18T10:07:07Z</time>
      </trkpt>
      <trkpt lat="39.7900890" lon="2.7748800">
        <ele>844.8</ele>
        <time>2021-06-18T10:07:08Z</time>
      </trkpt>
      <trkpt lat="39.7900790" lon="2.7749000">
        <ele>844.9</ele>
        <time>2021-06-18T10:07:10Z</time>
      </trkpt>
      <trkpt lat="39.7900700" lon="2.7749200">
        <ele>845.0</ele>
        <time>2021-06-18T10:07:12Z</time>
      </trkpt>
      <trkpt lat="39.7900600" lon="2.7749400">
        <ele>845.1</ele>
        <time>2021-06-18T10:07:19Z</time>
      </trkpt>
      <trkpt lat="39.7900500" lon="2.7749600">
        <ele>845.2</ele>
        <time>2021-06-18T10:07:21Z</time>
      </trkpt>
      <trkpt lat="39.7900400" lon="2.7749800">
        <ele>845.3</ele>
        <time>2021-06-18T10:07:24Z</time>
      </trkpt>
      <trkpt lat="39.7900300" lon="2.7750000">
        <ele>845.4</ele>
        <time>2021-06-18T10:07:26Z</time>
      </trkpt>
      <trkpt lat="39.7900210" lon="2.7750200">
        <ele>845.5</ele>
        <time>2021-06-18T10:07:27Z</time>
      </trkpt>
      <trkpt lat="39.7900110" lon="2.7750400">
        <ele>845.6</ele>
        <time>2021-06-18T10:07:28Z</time>
      </trkpt>
      <trkpt lat="39.7900010" lon="2.7750600">
        <ele>845.7</ele>
        <time>2021-06-18T10:07:29Z</time>
      </trkpt>
      <trkpt lat="39.7899910" lon="2.7750800">
        <ele>845.8</ele>
        <time>2021-06-18T10:07:30Z</time>
      </trkpt>
      <trkpt lat="39.7899820" lon="2.7751010">
        <ele>846.0</ele>
        <time>2021-06-18T10:07:31Z</time>
      </trkpt>
      <trkpt lat="39.7899720" lon="2.7751210">
        <ele>846.1</ele>
        <time>2021-06-18T10:07:33Z</time>
      </trkpt>
      <trkpt lat="39.7899620" lon="2.7751410">
        <ele>846.2</ele>
        <time>2021-06-18T10:07:35Z</time>
      </trkpt>
      <trkpt lat="39.7899520" lon="2.7751610">
        <ele>846.3</ele>
        <time>2021-06-18T10:07:36Z</time>
      </trkpt>
      <trkpt lat="39.7899420" lon="2.7751810">
        <ele>846.4</ele>
        <time>2021-06-18T10:07:39Z</time>
      </trkpt>
      <trkpt lat="39.7899330" lon="2.7752010">
        <ele>846.5</ele>
        <time>2021-06-18T10:07:40Z</time>
      </trkpt>
      <trkpt lat="39.7899230" lon="2.7752210">
        <ele>846.6</ele>
        <time>2021-06-18T10:07:43Z</time>
      </trkpt>
      <trkpt lat="39.7899130" lon="2.7752410">
        <ele>846.7</ele>
        <time>2021-06-18T10:07:46Z</time>
      </trkpt>
      <trkpt lat="39.7899030" lon="2.7752610">
        <ele>846.9</ele>
        <time>2021-06-18T10:07:49Z</time>
      </trkpt>
      <trkpt lat="39.7898940" lon="2.7752810">
        <ele>847.0</ele>
        <time>2021-06-18T10:07:50Z</time>
      </trkpt>
      <trkpt lat="39.7898840" lon="2.7753010">
        <ele>847.1</ele>
        <time>2021-06-18T10:07:51Z</time>
      </trkpt>
      <trkpt lat="39.7898740" lon="2.7753210">
        <ele>847.2</ele>
        <time>2021-06-18T10:07:53Z</time>
      </trkpt>
      <trkpt lat="39.7898640" lon="2.7753410">
        <ele>847.3</ele>
        <time>2021-06-18T10:07:56Z</time>
      </trkpt>
      <trkpt lat="39.7898550" lon="2.7753620">
        <ele>847.4</ele>
        <time>2021-06-18T10:07:59Z</time>
      </trkpt>
      <trkpt lat="39.7898450" lon="2.7753820">
        <ele>847.6</ele>
        <time>2021-06-18T10:08:02Z</time>
      </trkpt>
      <trkpt lat="39.7898350" lon="2.7754020">
        <ele>847.7</ele>
        <time>2021-06-18T10:08:05Z</time>
      </trkpt>
      <trkpt lat="39.7898250" lon="2.7754220">
        <ele>847.8</ele>
        <time>2021-06-18T10:08:08Z</time>
      </trkpt>
      <trkpt lat="39.7898150" lon="2.7754420">
        <ele>847.9</ele>
        <time>2021-06-18T10:08:10Z</time>
      </trkpt>
      <trkpt lat="39.7898060" lon="2.7754620">
        <ele>848.0</ele>
        <time>2021-06-18T10:08:13Z</time>
      </trkpt>
      <trkpt lat="39.7897960" lon="2.7754820">
        <ele>848.2</ele>
        <time>2021-06-18T10:08:14Z</time>
      </trkpt>
      <trkpt lat="39.7897860" lon="2.7755020">
        <ele>848.3</ele>
        <time>2021-06-18T10:08:16Z</time>
      </trkpt>
      <trkpt lat="39.7897760" lon="2.7755220">
        <ele>848.4</ele>
        <time>2021-06-18T10:08:17Z</time>
      </trkpt>
      <trkpt lat="39.7897670" lon="2.7755420">
        <ele>848.5</ele>
        <time>2021-06-18T10:08:18Z</time>
      </trkpt>
      <trkpt lat="39.7897570" lon="2.7755620">
        <ele>848.7</ele>
        <time>2021-06-18T10:08:19Z</time>
      </trkpt>
      <trkpt lat="39.7897470" lon="2.7755820">
        <ele>848.8</ele>
        <time>2021-06-18T10:08:20Z</time>
      </trkpt>
      <trkpt lat="39.7897370" lon="2.7756020">
        <ele>848.9</ele>
        <time>2021-06-18T10:08:21Z</time>
      </trkpt>
      <trkpt lat="39.7897270" lon="2.7756220">
        <ele>849.1</ele>
        <time>2021-06-18T10:08:22Z</time>
      </trkpt>
      <trkpt lat="39.7897180" lon="2.7756430">
        <ele>849.2</ele>
        <time>2021-06-18T10:08:23Z</time>
      </trkpt>
      <trkpt lat="39.7897080" lon="2.7756630">
        <ele>849.3</ele>
        <time>2021-06-18T10:08:24Z</time>
      </trkpt>
      <trkpt lat="39.7896980" lon="2.7756830">
        <ele>849.4</ele>
        <time>2021-06-18T10:08:25Z</time>
      </trkpt>
      <trkpt lat="39.7896880" lon="2.7757030">
        <ele>849.6</ele>
        <time>2021-06-18T10:08:26Z</time>
      </trkpt>
      <trkpt lat="39.7896790" lon="2.7757230">
        <ele>849.7</ele>
        <time>2021-06-18T10:08:28Z</time>
      </trkpt>
      <trkpt lat="39.7896690" lon="2.7757430">
        <ele>849.8</ele>
        <time>2021-06-18T10:08:31Z</time>
      </trkpt>
      <trkpt lat="39.7896590" lon="2.7757630">
        <ele>849.9</ele>
        <time>2021-06-18T10:08:32Z</time>
      </trkpt>
      <trkpt lat="39.7896490" lon="2.7757830">
        <ele>850.1</ele>
        <time>2021-06-18T10:08:34Z</time>
      </trkpt>
      <trkpt lat="39.7896400" lon="2.7758030">
        <ele>850.2</ele>
        <time>2021-06-18T10:08:35Z</time>
      </trkpt>
      <trkpt lat="39.7896300" lon="2.7758230">
        <ele>850.3</ele>
        <time>2021-06-18T10:08:36Z</time>
      </trkpt>
      <trkpt lat="39.7896200" lon="2.7758430">
        <ele>850.4</ele>
        <time>2021-06-18T10:08:37Z</time>
      </trkpt>
      <trkpt lat="39.7896100" lon="2.7758630">
        <ele>850.6</ele>
        <time>2021-06-18T10:08:40Z</time>
      </trkpt>
      <trkpt lat="39.7896000" lon="2.7758830">
        <ele>850.7</ele>
        <time>2021-06-18T10:08:42Z</time>
      </trkpt>
      <trkpt lat="39.7895910" lon="2.7759040">
        <ele>850.8</ele>
        <time>2021-06-18T10:08:44Z</time>
      </trkpt>
      <trkpt lat="39.7895810" lon="2.7759240">
        <ele>850.9</ele>
        <time>2021-06-18T10:08:45Z</time>
      </trkpt>
      <trkpt lat="39.7895710" lon="2.7759440">
        <ele>851.1</ele>
        <time>2021-06-18T10:08:46Z</time>
      </trkpt>
      <trkpt lat="39.7895610" lon="2.7759640">
        <ele>851.2</ele>
        <time>2021-06-18T10:08:52Z</time>
      </trkpt>
      <trkpt lat="39.7895520" lon="2.7759840">
        <ele>851.3</ele>
        <time>2021-06-18T10:08:53Z</time>
      </trkpt>
      <trkpt lat="39.7895420" lon="2.7760040">
        <ele>851.4</ele>
        <time>2021-06-18T10:08:55Z</time>
      </trkpt>
      <trkpt lat="39.7895320" lon="2.7760240">
        <ele>851.6</ele>
        <time>2021-06-18T10:08:56Z</time>
      </trkpt>
      <trkpt lat="39.7895220" lon="2.7760440">
        <ele>851.7</ele>
        <time>2021-06-18T10:08:58Z</time>
      </trkpt>
      <trkpt lat="39.7895120" lon="2.7760640">
        <ele>851.8</ele>
        <time>2021-06-18T10:08:59Z</time>
      </trkpt>
      <trkpt lat="39.7895030" lon="2.7760840">
        <ele>851.9</ele>
        <time>2021-06-18T10:09:02Z</time>
      </trkpt>
      <trkpt lat="39.7894930" lon="2.7761040">
        <ele>852.0</ele>
        <time>2021-06-18T10:09:03Z</time>
      </trkpt>
      <trkpt lat="39.7894830" lon="2.7761240">
        <ele>852.2</ele>
        <time>2021-06-18T10:09:05Z</time>
      </trkpt>
      <trkpt lat="39.7894730" lon="2.7761440">
        <ele>852.3</ele>
        <time>2021-06-18T10:09:06Z</time>
      </trkpt>
      <trkpt lat="39.7894640" lon="2.7761650">
        <ele>852.4</ele>
        <time>2021-06-18T10:09:07Z</time>
      </trkpt>
      <trkpt lat="39.7894540" lon="2.7761850">
        <ele>852.5</ele>
        <time>2021-06-18T10:09:08Z</time>
      </trkpt>
      <trkpt lat="39.7894440" lon="2.7762050">
        <ele>852.6</ele>
        <time>2021-06-18T10:09:09Z</time>
      </trkpt>
      <trkpt lat="39.7894340" lon="2.7762250">
        <ele>852.8</ele>
        <time>2021-06-18T10:09:11Z</time>
      </trkpt>
      <trkpt lat="39.7894250" lon="2.7762450">
        <ele>852.9</ele>
        <time>2021-06-18T10:09:12Z</time>
      </trkpt>
      <trkpt lat="39.7894150" lon="2.7762650">
        <ele>853.0</ele>
        <time>2021-06-18T10:09:13Z</time>
      </trkpt>
      <trkpt lat="39.7894050" lon="2.7762850">
        <ele>853.1</ele>
        <time>2021-06-18T10:09:15Z</time>
      </trkpt>
      <trkpt lat="39.7882480" lon="2.7786640">
        <ele>866.0</ele>
        <time>2021-06-18T10:09:18Z</time>
      </trkpt>
      <trkpt lat="39.7883170" lon="2.7788650">
        <ele>865.6</ele>
        <time>2021-06-18T10:09:23Z</time>
      </trkpt>
      <trkpt lat="39.7884280" lon="2.7790060">
        <ele>865.2</ele>
        <time>2021-06-18T10:09:28Z</time>
      </trkpt>
      <trkpt lat="39.7886760" lon="2.7792270">
        <ele>864.4</ele>
        <time>2021-06-18T10:09:36Z</time>
      </trkpt>
      <trkpt lat="39.7889010" lon="2.7794510">
        <ele>863.3</ele>
        <time>2021-06-18T10:09:42Z</time>
      </trkpt>
      <trkpt lat="39.7890140" lon="2.7796520">
        <ele>862.3</ele>
        <time>2021-06-18T10:09:46Z</time>
      </trkpt>
      <trkpt lat="39.7890570" lon="2.7797690">
        <ele>861.6</ele>
        <time>2021-06-18T10:09:48Z</time>
      </trkpt>
      <trkpt lat="39.7892040" lon="2.7801620">
        <ele>859.4</ele>
        <time>2021-06-18T10:09:54Z</time>
      </trkpt>
      <trkpt lat="39.7892890" lon="2.7803730">
        <ele>858.1</ele>
        <time>2021-06-18T10:09:57Z</time>
      </trkpt>
      <trkpt lat="39.7893360" lon="2.7805210">
        <ele>857.2</ele>
        <time>2021-06-18T10:09:59Z</time>
      </trkpt>
      <trkpt lat="39.7894920" lon="2.7809320">
        <ele>854.4</ele>
        <time>2021-06-18T10:10:04Z</time>
      </trkpt>
      <trkpt lat="39.7895310" lon="2.7810270">
        <ele>853.8</ele>
        <time>2021-06-18T10:10:05Z</time>
      </trkpt>
      <trkpt lat="39.7895710" lon="2.7811250">
        <ele>853.1</ele>
        <time>2021-06-18T10:10:06Z</time>
      </trkpt>
      <trkpt lat="39.7896540" lon="2.7813300">
        <ele>851.8</ele>
        <time>2021-06-18T10:10:08Z</time>
      </trkpt>
      <trkpt lat="39.7897730" lon="2.7816640">
        <ele>849.8</ele>
        <time>2021-06-18T10:10:11Z</time>
      </trkpt>
      <trkpt lat="39.7900110" lon="2.7822310">
        <ele>846.6</ele>
        <time>2021-06-18T10:10:16Z</time>
      </trkpt>
      <trkpt lat="39.7903270" lon="2.7829630">
        <ele>843.4</ele>
        <time>2021-06-18T10:10:22Z</time>
      </trkpt>
      <trkpt lat="39.7903710" lon="2.7830580">
        <ele>843.0</ele>
        <time>2021-06-18T10:10:23Z</time>
      </trkpt>
      <trkpt lat="39.7905270" lon="2.7834310">
        <ele>841.6</ele>
        <time>2021-06-18T10:10:26Z</time>
      </trkpt>
      <trkpt lat="39.7906380" lon="2.7836300">
        <ele>840.7</ele>
        <time>2021-06-18T10:10:28Z</time>
      </trkpt>
      <trkpt lat="39.7908400" lon="2.7839540">
        <ele>839.1</ele>
        <time>2021-06-18T10:10:31Z</time>
      </trkpt>
      <trkpt lat="39.7912070" lon="2.7845420">
        <ele>836.1</ele>
        <time>2021-06-18T10:10:36Z</time>
      </trkpt>
      <trkpt lat="39.7915730" lon="2.7851210">
        <ele>833.2</ele>
        <time>2021-06-18T10:10:42Z</time>
      </trkpt>
      <trkpt lat="39.7918600" lon="2.7855680">
        <ele>831.2</ele>
        <time>2021-06-18T10:10:47Z</time>
      </trkpt>
      <trkpt lat="39.7919720" lon="2.7857490">
        <ele>830.4</ele>
        <time>2021-06-18T10:10:49Z</time>
      </trkpt>
      <trkpt lat="39.7923490" lon="2.7863140">
        <ele>828.2</ele>
        <time>2021-06-18T10:10:55Z</time>
      </trkpt>
      <trkpt lat="39.7926960" lon="2.7866590">
        <ele>827.2</ele>
        <time>2021-06-18T10:11:00Z</time>
      </trkpt>
      <trkpt lat="39.7930830" lon="2.7869680">
        <ele>826.7</ele>
        <time>2021-06-18T10:11:05Z</time>
      </trkpt>
      <trkpt lat="39.7931540" lon="2.7870370">
        <ele>826.6</ele>
        <time>2021-06-18T10:11:06Z</time>
      </trkpt>
      <trkpt lat="39.7932720" lon="2.7871950">
        <ele>826.3</ele>
        <time>2021-06-18T10:11:08Z</time>
      </trkpt>
      <trkpt lat="39.7933150" lon="2.7872830">
        <ele>826.1</ele>
        <time>2021-06-18T10:11:09Z</time>
      </trkpt>
      <trkpt lat="39.7935620" lon="2.7878380">
        <ele>825.2</ele>
        <time>2021-06-18T10:11:15Z</time>
      </trkpt>
      <trkpt lat="39.7938480" lon="2.7884580">
        <ele>824.2</ele>
        <time>2021-06-18T10:11:22Z</time>
      </trkpt>
      <trkpt lat="39.7938910" lon="2.7885380">
        <ele>824.0</ele>
        <time>2021-06-18T10:11:23Z</time>
      </trkpt>
      <trkpt lat="39.7939710" lon="2.7887020">
        <ele>823.6</ele>
        <time>2021-06-18T10:11:25Z</time>
      </trkpt>
      <trkpt lat="39.7940750" lon="2.7888410">
        <ele>823.1</ele>
        <time>2021-06-18T10:11:27Z</time>
      </trkpt>
      <trkpt lat="39.7945080" lon="2.7892770">
        <ele>821.8</ele>
        <time>2021-06-18T10:11:34Z</time>
      </trkpt>
      <trkpt lat="39.7945650" lon="2.7893370">
        <ele>821.6</ele>
        <time>2021-06-18T10:11:35Z</time>
      </trkpt>
      <trkpt lat="39.7948120" lon="2.7896330">
        <ele>821.2</ele>
        <time>2021-06-18T10:11:39Z</time>
      </trkpt>
      <trkpt lat="39.7949710" lon="2.7898360">
        <ele>820.9</ele>
        <time>2021-06-18T10:11:42Z</time>
      </trkpt>
      <trkpt lat="39.7950520" lon="2.7900090">
        <ele>820.8</ele>
        <time>2021-06-18T10:11:44Z</time>
      </trkpt>
      <trkpt lat="39.7950360" lon="2.7901890">
        <ele>820.6</ele>
        <time>2021-06-18T10:11:46Z</time>
      </trkpt>
      <trkpt lat="39.7949270" lon="2.7903220">
        <ele>820.2</ele>
        <time>2021-06-18T10:11:48Z</time>
      </trkpt>
      <trkpt lat="39.7947970" lon="2.7903770">
        <ele>819.8</ele>
        <time>2021-06-18T10:11:50Z</time>
      </trkpt>
      <trkpt lat="39.7947230" lon="2.7903710">
        <ele>819.6</ele>
        <time>2021-06-18T10:11:51Z</time>
      </trkpt>
      <trkpt lat="39.7942740" lon="2.7902730">
        <ele>818.3</ele>
        <time>2021-06-18T10:11:57Z</time>
      </trkpt>
      <trkpt lat="39.7941230" lon="2.7902410">
        <ele>817.9</ele>
        <time>2021-06-18T10:11:59Z</time>
      </trkpt>
      <trkpt lat="39.7939730" lon="2.7902130">
        <ele>817.5</ele>
        <time>2021-06-18T10:12:01Z</time>
      </trkpt>
      <trkpt lat="39.7938220" lon="2.7901870">
        <ele>817.0</ele>
        <time>2021-06-18T10:12:03Z</time>
      </trkpt>
      <trkpt lat="39.7936720" lon="2.7901600">
        <ele>816.5</ele>
        <time>2021-06-18T10:12:05Z</time>
      </trkpt>
      <trkpt lat="39.7934450" lon="2.7901510">
        <ele>815.9</ele>
        <time>2021-06-18T10:12:08Z</time>
      </trkpt>
      <trkpt lat="39.7933050" lon="2.7901790">
        <ele>815.5</ele>
        <time>2021-06-18T10:12:10Z</time>
      </trkpt>
      <trkpt lat="39.7932380" lon="2.7902100">
        <ele>815.3</ele>
        <time>2021-06-18T10:12:11Z</time>
      </trkpt>
      <trkpt lat="39.7930980" lon="2.7903230">
        <ele>814.9</ele>
        <time>2021-06-18T10:12:13Z</time>
      </trkpt>
      <trkpt lat="39.7927190" lon="2.7906100">
        <ele>814.8</ele>
        <time>2021-06-18T10:12:19Z</time>
      </trkpt>
      <trkpt lat="39.7926640" lon="2.7906540">
        <ele>814.9</ele>
        <time>2021-06-18T10:12:20Z</time>
      </trkpt>
      <trkpt lat="39.7925160" lon="2.7908200">
        <ele>815.2</ele>
        <time>2021-06-18T10:12:23Z</time>
      </trkpt>
      <trkpt lat="39.7924400" lon="2.7909340">
        <ele>815.5</ele>
        <time>2021-06-18T10:12:25Z</time>
      </trkpt>
      <trkpt lat="39.7922470" lon="2.7911980">
        <ele>816.4</ele>
        <time>2021-06-18T10:12:31Z</time>
      </trkpt>
      <trkpt lat="39.7922160" lon="2.7912410">
        <ele>816.6</ele>
        <time>2021-06-18T10:12:32Z</time>
      </trkpt>
      <trkpt lat="39.7921450" lon="2.7912950">
        <ele>816.9</ele>
        <time>2021-06-18T10:12:34Z</time>
      </trkpt>
      <trkpt lat="39.7920970" lon="2.7913170">
        <ele>817.2</ele>
        <time>2021-06-18T10:12:35Z</time>
      </trkpt>
      <trkpt lat="39.7919650" lon="2.7913560">
        <ele>817.7</ele>
        <time>2021-06-18T10:12:38Z</time>
      </trkpt>
      <trkpt lat="39.7918850" lon="2.7913740">
        <ele>818.1</ele>
        <time>2021-06-18T10:12:40Z</time>
      </trkpt>
      <trkpt lat="39.7918510" lon="2.7913910">
        <ele>818.2</ele>
        <time>2021-06-18T10:12:41Z</time>
      </trkpt>
      <trkpt lat="39.7917300" lon="2.7914270">
        <ele>818.7</ele>
        <time>2021-06-18T10:12:45Z</time>
      </trkpt>
      <trkpt lat="39.7917070" lon="2.7914410">
        <ele>818.8</ele>
        <time>2021-06-18T10:12:46Z</time>
      </trkpt>
      <trkpt lat="39.7916320" lon="2.7915690">
        <ele>819.2</ele>
        <time>2021-06-18T10:12:50Z</time>
      </trkpt>
      <trkpt lat="39.7916120" lon="2.7917220">
        <ele>819.7</ele>
        <time>2021-06-18T10:12:55Z</time>
      </trkpt>
      <trkpt lat="39.7916300" lon="2.7918290">
        <ele>819.9</ele>
        <time>2021-06-18T10:13:00Z</time>
      </trkpt>
      <trkpt lat="39.7916280" lon="2.7918700">
        <ele>820.0</ele>
        <time>2021-06-18T10:13:02Z</time>
      </trkpt>
      <trkpt lat="39.7916280" lon="2.7918750">
        <ele>820.1</ele>
        <time>2021-06-18T10:13:04Z</time>
      </trkpt>
      <trkpt lat="39.7916280" lon="2.7918750">
        <ele>820.1</ele>
        <time>2021-06-18T10:13:06Z</time>
      </trkpt>
      <trkpt lat="39.7916250" lon="2.7918680">
        <ele>820.1</ele>
        <time>2021-06-18T10:13:10Z</time>
      </trkpt>
      <trkpt lat="39.7916330" lon="2.7918430">
        <ele>820.1</ele>
        <time>2021-06-18T10:13:15Z</time>
      </trkpt>
      <trkpt lat="39.7916450" lon="2.7917980">
        <ele>820.2</ele>
        <time>2021-06-18T10:13:17Z</time>
      </trkpt>
      <trkpt lat="39.7916210" lon="2.7916450">
        <ele>820.5</ele>
        <time>2021-06-18T10:13:22Z</time>
      </trkpt>
      <trkpt lat="39.7916110" lon="2.7916150">
        <ele>820.5</ele>
        <time>2021-06-18T10:13:25Z</time>
      </trkpt>
      <trkpt lat="39.7916110" lon="2.7916150">
        <ele>820.5</ele>
        <time>2021-06-18T10:13:26Z</time>
      </trkpt>
      <trkpt lat="39.7916050" lon="2.7916130">
        <ele>820.5</ele>
        <time>2021-06-18T10:13:29Z</time>
      </trkpt>
      <trkpt lat="39.7916110" lon="2.7916160">
        <ele>820.5</ele>
        <time>2021-06-18T10:13:33Z</time>
      </trkpt>
      <trkpt lat="39.7916110" lon="2.7916160">
        <ele>820.5</ele>
        <time>2021-06-18T10:13:48Z</time>
      </trkpt>
      <trkpt lat="39.7916110" lon="2.7916160">
        <ele>820.5</ele>
        <time>2021-06-18T10:13:51Z</time>
      </trkpt>
      <trkpt lat="39.7916110" lon="2.7916160">
        <ele>820.5</ele>
        <time>2021-06-18T10:13:55Z</time>
      </trkpt>
      <trkpt lat="39.7916110" lon="2.7916160">
        <ele>820.5</ele>
        <time>2021-06-18T10:14:14Z</time>
      </trkpt>
      <trkpt lat="39.7916120" lon="2.7916200">
        <ele>820.5</ele>
        <time>2021-06-18T10:14:29Z</time>
      </trkpt>
      <trkpt lat="39.7916120" lon="2.7916210">
        <ele>820.5</ele>
        <time>2021-06-18T10:14:33Z</time>
      </trkpt>
      <trkpt lat="39.7916120" lon="2.7916220">
        <ele>820.5</ele>
        <time>2021-06-18T10:14:38Z</time>
      </trkpt>
      <trkpt lat="39.7916120" lon="2.7916220">
        <ele>820.5</ele>
        <time>2021-06-18T10:15:01Z</time>
      </trkpt>
      <trkpt lat="39.7916170" lon="2.7916220">
        <ele>820.5</ele>
        <time>2021-06-18T10:15:15Z</time>
      </trkpt>
      <trkpt lat="39.7916170" lon="2.7916220">
        <ele>820.5</ele>
        <time>2021-06-18T10:15:18Z</time>
      </trkpt>
      <trkpt lat="39.7916170" lon="2.7916190">
        <ele>820.5</ele>
        <time>2021-06-18T10:15:21Z</time>
      </trkpt>
      <trkpt lat="39.7916200" lon="2.7916160">
        <ele>820.5</ele>
        <time>2021-06-18T10:15:24Z</time>
      </trkpt>
      <trkpt lat="39.7916240" lon="2.7916150">
        <ele>820.6</ele>
        <time>2021-06-18T10:15:26Z</time>
      </trkpt>
      <trkpt lat="39.7916280" lon="2.7916180">
        <ele>820.6</ele>
        <time>2021-06-18T10:15:30Z</time>
      </trkpt>
      <trkpt lat="39.7916260" lon="2.7916690">
        <ele>820.6</ele>
        <time>2021-06-18T10:15:32Z</time>
      </trkpt>
      <trkpt lat="39.7916260" lon="2.7916750">
        <ele>820.6</ele>
        <time>2021-06-18T10:15:35Z</time>
      </trkpt>
      <trkpt lat="39.7916260" lon="2.7916750">
        <ele>820.6</ele>
        <time>2021-06-18T10:15:37Z</time>
      </trkpt>
      <trkpt lat="39.7916260" lon="2.7916750">
        <ele>820.6</ele>
        <time>2021-06-18T10:15:39Z</time>
      </trkpt>
      <trkpt lat="39.7916270" lon="2.7916750">
        <ele>820.6</ele>
        <time>2021-06-18T10:15:43Z</time>
      </trkpt>
      <trkpt lat="39.7916470" lon="2.7916930">
        <ele>820.7</ele>
        <time>2021-06-18T10:15:48Z</time>
      </trkpt>
      <trkpt lat="39.7916570" lon="2.7917790">
        <ele>820.7</ele>
        <time>2021-06-18T10:15:51Z</time>
      </trkpt>
      <trkpt lat="39.7916820" lon="2.7919490">
        <ele>820.8</ele>
        <time>2021-06-18T10:15:57Z</time>
      </trkpt>
      <trkpt lat="39.7916860" lon="2.7920100">
        <ele>820.8</ele>
        <time>2021-06-18T10:15:58Z</time>
      </trkpt>
      <trkpt lat="39.7917330" lon="2.7922900">
        <ele>820.6</ele>
        <time>2021-06-18T10:16:06Z</time>
      </trkpt>
      <trkpt lat="39.7917780" lon="2.7925910">
        <ele>819.9</ele>
        <time>2021-06-18T10:16:13Z</time>
      </trkpt>
      <trkpt lat="39.7918400" lon="2.7928590">
        <ele>818.9</ele>
        <time>2021-06-18T10:16:18Z</time>
      </trkpt>
      <trkpt lat="39.7918850" lon="2.7930610">
        <ele>817.9</ele>
        <time>2021-06-18T10:16:21Z</time>
      </trkpt>
      <trkpt lat="39.7919290" lon="2.7932880">
        <ele>816.6</ele>
        <time>2021-06-18T10:16:24Z</time>
      </trkpt>
      <trkpt lat="39.7919800" lon="2.7935410">
        <ele>815.2</ele>
        <time>2021-06-18T10:16:28Z</time>
      </trkpt>
      <trkpt lat="39.7919910" lon="2.7936670">
        <ele>814.5</ele>
        <time>2021-06-18T10:16:30Z</time>
      </trkpt>
      <trkpt lat="39.7920180" lon="2.7939160">
        <ele>813.1</ele>
        <time>2021-06-18T10:16:34Z</time>
      </trkpt>
      <trkpt lat="39.7920220" lon="2.7939770">
        <ele>812.7</ele>
        <time>2021-06-18T10:16:35Z</time>
      </trkpt>
      <trkpt lat="39.7920480" lon="2.7944210">
        <ele>810.2</ele>
        <time>2021-06-18T10:16:40Z</time>
      </trkpt>
      <trkpt lat="39.7920660" lon="2.7948970">
        <ele>807.3</ele>
        <time>2021-06-18T10:16:44Z</time>
      </trkpt>
      <trkpt lat="39.7920720" lon="2.7951560">
        <ele>805.7</ele>
        <time>2021-06-18T10:16:45Z</time>
      </trkpt>
      <trkpt lat="39.7920770" lon="2.7954150">
        <ele>804.2</ele>
        <time>2021-06-18T10:16:48Z</time>
      </trkpt>
      <trkpt lat="39.7920760" lon="2.7956700">
        <ele>802.7</ele>
        <time>2021-06-18T10:16:50Z</time>
      </trkpt>
      <trkpt lat="39.7920980" lon="2.7962790">
        <ele>799.6</ele>
        <time>2021-06-18T10:16:55Z</time>
      </trkpt>
      <trkpt lat="39.7920330" lon="2.7965200">
        <ele>798.3</ele>
        <time>2021-06-18T10:16:57Z</time>
      </trkpt>
      <trkpt lat="39.7918700" lon="2.7966330">
        <ele>797.0</ele>
        <time>2021-06-18T10:16:59Z</time>
      </trkpt>
      <trkpt lat="39.7916810" lon="2.7965710">
        <ele>795.4</ele>
        <time>2021-06-18T10:17:01Z</time>
      </trkpt>
      <trkpt lat="39.7915200" lon="2.7963450">
        <ele>793.3</ele>
        <time>2021-06-18T10:17:03Z</time>
      </trkpt>
      <trkpt lat="39.7911370" lon="2.7956690">
        <ele>787.6</ele>
        <time>2021-06-18T10:17:08Z</time>
      </trkpt>
      <trkpt lat="39.7907860" lon="2.7953320">
        <ele>784.2</ele>
        <time>2021-06-18T10:17:13Z</time>
      </trkpt>
      <trkpt lat="39.7906810" lon="2.7952730">
        <ele>783.4</ele>
        <time>2021-06-18T10:17:14Z</time>
      </trkpt>
      <trkpt lat="39.7901160" lon="2.7950520">
        <ele>779.5</ele>
        <time>2021-06-18T10:17:19Z</time>
      </trkpt>
      <trkpt lat="39.7898730" lon="2.7949250">
        <ele>777.7</ele>
        <time>2021-06-18T10:17:21Z</time>
      </trkpt>
      <trkpt lat="39.7896650" lon="2.7947820">
        <ele>775.8</ele>
        <time>2021-06-18T10:17:23Z</time>
      </trkpt>
      <trkpt lat="39.7894880" lon="2.7946690">
        <ele>774.0</ele>
        <time>2021-06-18T10:17:25Z</time>
      </trkpt>
      <trkpt lat="39.7893680" lon="2.7946190">
        <ele>772.8</ele>
        <time>2021-06-18T10:17:26Z</time>
      </trkpt>
      <trkpt lat="39.7892670" lon="2.7946070">
        <ele>772.0</ele>
        <time>2021-06-18T10:17:27Z</time>
      </trkpt>
      <trkpt lat="39.7891870" lon="2.7946220">
        <ele>771.3</ele>
        <time>2021-06-18T10:17:28Z</time>
      </trkpt>
      <trkpt lat="39.7889810" lon="2.7947410">
        <ele>769.7</ele>
        <time>2021-06-18T10:17:30Z</time>
      </trkpt>
      <trkpt lat="39.7888630" lon="2.7949320">
        <ele>768.3</ele>
        <time>2021-06-18T10:17:32Z</time>
      </trkpt>
      <trkpt lat="39.7888150" lon="2.7950550">
        <ele>767.6</ele>
        <time>2021-06-18T10:17:33Z</time>
      </trkpt>
      <trkpt lat="39.7887810" lon="2.7951920">
        <ele>766.9</ele>
        <time>2021-06-18T10:17:34Z</time>
      </trkpt>
      <trkpt lat="39.7887270" lon="2.7955040">
        <ele>765.2</ele>
        <time>2021-06-18T10:17:36Z</time>
      </trkpt>
      <trkpt lat="39.7886060" lon="2.7962440">
        <ele>761.1</ele>
        <time>2021-06-18T10:17:41Z</time>
      </trkpt>
      <trkpt lat="39.7885580" lon="2.7965260">
        <ele>760.0</ele>
        <time>2021-06-18T10:17:43Z</time>
      </trkpt>
      <trkpt lat="39.7884330" lon="2.7970890">
        <ele>758.6</ele>
        <time>2021-06-18T10:17:47Z</time>
      </trkpt>
      <trkpt lat="39.7882840" lon="2.7971910">
        <ele>758.1</ele>
        <time>2021-06-18T10:17:49Z</time>
      </trkpt>
      <trkpt lat="39.7881170" lon="2.7971380">
        <ele>757.6</ele>
        <time>2021-06-18T10:17:51Z</time>
      </trkpt>
      <trkpt lat="39.7880770" lon="2.7971050">
        <ele>757.5</ele>
        <time>2021-06-18T10:17:52Z</time>
      </trkpt>
      <trkpt lat="39.7880360" lon="2.7970730">
        <ele>757.4</ele>
        <time>2021-06-18T10:17:53Z</time>
      </trkpt>
      <trkpt lat="39.7878750" lon="2.7969420">
        <ele>757.1</ele>
        <time>2021-06-18T10:17:55Z</time>
      </trkpt>
      <trkpt lat="39.7876700" lon="2.7967880">
        <ele>757.0</ele>
        <time>2021-06-18T10:17:57Z</time>
      </trkpt>
      <trkpt lat="39.7875920" lon="2.7967710">
        <ele>756.9</ele>
        <time>2021-06-18T10:17:58Z</time>
      </trkpt>
      <trkpt lat="39.7875200" lon="2.7967780">
        <ele>756.8</ele>
        <time>2021-06-18T10:17:59Z</time>
      </trkpt>
      <trkpt lat="39.7874540" lon="2.7968150">
        <ele>756.7</ele>
        <time>2021-06-18T10:18:00Z</time>
      </trkpt>
      <trkpt lat="39.7873910" lon="2.7968730">
        <ele>756.6</ele>
        <time>2021-06-18T10:18:01Z</time>
      </trkpt>
      <trkpt lat="39.7872120" lon="2.7970770">
        <ele>756.2</ele>
        <time>2021-06-18T10:18:04Z</time>
      </trkpt>
      <trkpt lat="39.7869070" lon="2.7974140">
        <ele>755.1</ele>
        <time>2021-06-18T10:18:09Z</time>
      </trkpt>
      <trkpt lat="39.7868360" lon="2.7976050">
        <ele>754.6</ele>
        <time>2021-06-18T10:18:11Z</time>
      </trkpt>
      <trkpt lat="39.7868490" lon="2.7978220">
        <ele>753.8</ele>
        <time>2021-06-18T10:18:13Z</time>
      </trkpt>
      <trkpt lat="39.7870210" lon="2.7982220">
        <ele>751.9</ele>
        <time>2021-06-18T10:18:17Z</time>
      </trkpt>
      <trkpt lat="39.7870630" lon="2.7983280">
        <ele>751.3</ele>
        <time>2021-06-18T10:18:18Z</time>
      </trkpt>
      <trkpt lat="39.7871360" lon="2.7986660">
        <ele>749.4</ele>
        <time>2021-06-18T10:18:21Z</time>
      </trkpt>
      <trkpt lat="39.7871790" lon="2.7989020">
        <ele>748.0</ele>
        <time>2021-06-18T10:18:23Z</time>
      </trkpt>
      <trkpt lat="39.7872690" lon="2.7991270">
        <ele>746.7</ele>
        <time>2021-06-18T10:18:25Z</time>
      </trkpt>
      <trkpt lat="39.7875400" lon="2.7995330">
        <ele>743.5</ele>
        <time>2021-06-18T10:18:29Z</time>
      </trkpt>
      <trkpt lat="39.7878370" lon="2.7999870">
        <ele>739.7</ele>
        <time>2021-06-18T10:18:33Z</time>
      </trkpt>
      <trkpt lat="39.7879300" lon="2.8000830">
        <ele>738.7</ele>
        <time>2021-06-18T10:18:34Z</time>
      </trkpt>
      <trkpt lat="39.7884510" lon="2.8005240">
        <ele>733.2</ele>
        <time>2021-06-18T10:18:39Z</time>
      </trkpt>
      <trkpt lat="39.7886590" lon="2.8007400">
        <ele>731.3</ele>
        <time>2021-06-18T10:18:41Z</time>
      </trkpt>
      <trkpt lat="39.7888540" lon="2.8009590">
        <ele>729.9</ele>
        <time>2021-06-18T10:18:43Z</time>
      </trkpt>
      <trkpt lat="39.7890270" lon="2.8011640">
        <ele>728.8</ele>
        <time>2021-06-18T10:18:45Z</time>
      </trkpt>
      <trkpt lat="39.7891100" lon="2.8012520">
        <ele>728.2</ele>
        <time>2021-06-18T10:18:46Z</time>
      </trkpt>
      <trkpt lat="39.7892020" lon="2.8013230">
        <ele>727.4</ele>
        <time>2021-06-18T10:18:47Z</time>
      </trkpt>
      <trkpt lat="39.7892970" lon="2.8013680">
        <ele>726.6</ele>
        <time>2021-06-18T10:18:48Z</time>
      </trkpt>
      <trkpt lat="39.7893960" lon="2.8013850">
        <ele>725.7</ele>
        <time>2021-06-18T10:18:49Z</time>
      </trkpt>
      <trkpt lat="39.7895020" lon="2.8013800">
        <ele>724.8</ele>
        <time>2021-06-18T10:18:50Z</time>
      </trkpt>
      <trkpt lat="39.7898640" lon="2.8013440">
        <ele>722.2</ele>
        <time>2021-06-18T10:18:53Z</time>
      </trkpt>
      <trkpt lat="39.7900310" lon="2.8014500">
        <ele>720.5</ele>
        <time>2021-06-18T10:18:55Z</time>
      </trkpt>
      <trkpt lat="39.7902370" lon="2.8018390">
        <ele>717.0</ele>
        <time>2021-06-18T10:18:58Z</time>
      </trkpt>
      <trkpt lat="39.7903810" lon="2.8020940">
        <ele>714.9</ele>
        <time>2021-06-18T10:19:00Z</time>
      </trkpt>
      <trkpt lat="39.7905830" lon="2.8024620">
        <ele>712.4</ele>
        <time>2021-06-18T10:19:03Z</time>
      </trkpt>
      <trkpt lat="39.7906610" lon="2.8025640">
        <ele>711.7</ele>
        <time>2021-06-18T10:19:04Z</time>
      </trkpt>
      <trkpt lat="39.7908250" lon="2.8027170">
        <ele>710.4</ele>
        <time>2021-06-18T10:19:06Z</time>
      </trkpt>
      <trkpt lat="39.7910310" lon="2.8028620">
        <ele>708.8</ele>
        <time>2021-06-18T10:19:08Z</time>
      </trkpt>
      <trkpt lat="39.7912320" lon="2.8028680">
        <ele>707.7</ele>
        <time>2021-06-18T10:19:10Z</time>
      </trkpt>
      <trkpt lat="39.7914820" lon="2.8028470">
        <ele>706.4</ele>
        <time>2021-06-18T10:19:12Z</time>
      </trkpt>
      <trkpt lat="39.7916930" lon="2.8029110">
        <ele>704.7</ele>
        <time>2021-06-18T10:19:14Z</time>
      </trkpt>
      <trkpt lat="39.7918510" lon="2.8031180">
        <ele>702.2</ele>
        <time>2021-06-18T10:19:16Z</time>
      </trkpt>
      <trkpt lat="39.7920810" lon="2.8036510">
        <ele>698.0</ele>
        <time>2021-06-18T10:19:20Z</time>
      </trkpt>
      <trkpt lat="39.7921960" lon="2.8039210">
        <ele>696.4</ele>
        <time>2021-06-18T10:19:22Z</time>
      </trkpt>
      <trkpt lat="39.7923340" lon="2.8041570">
        <ele>694.9</ele>
        <time>2021-06-18T10:19:24Z</time>
      </trkpt>
      <trkpt lat="39.7925410" lon="2.8043410">
        <ele>693.2</ele>
        <time>2021-06-18T10:19:26Z</time>
      </trkpt>
      <trkpt lat="39.7926190" lon="2.8043940">
        <ele>692.5</ele>
        <time>2021-06-18T10:19:27Z</time>
      </trkpt>
      <trkpt lat="39.7927350" lon="2.8044830">
        <ele>691.3</ele>
        <time>2021-06-18T10:19:28Z</time>
      </trkpt>
      <trkpt lat="39.7928590" lon="2.8046800">
        <ele>689.2</ele>
        <time>2021-06-18T10:19:30Z</time>
      </trkpt>
      <trkpt lat="39.7929020" lon="2.8049660">
        <ele>686.8</ele>
        <time>2021-06-18T10:19:32Z</time>
      </trkpt>
      <trkpt lat="39.7928500" lon="2.8052600">
        <ele>684.6</ele>
        <time>2021-06-18T10:19:34Z</time>
      </trkpt>
      <trkpt lat="39.7927780" lon="2.8055740">
        <ele>682.5</ele>
        <time>2021-06-18T10:19:36Z</time>
      </trkpt>
      <trkpt lat="39.7927820" lon="2.8057180">
        <ele>681.7</ele>
        <time>2021-06-18T10:19:37Z</time>
      </trkpt>
      <trkpt lat="39.7928680" lon="2.8065350">
        <ele>676.5</ele>
        <time>2021-06-18T10:19:43Z</time>
      </trkpt>
      <trkpt lat="39.7928810" lon="2.8066750">
        <ele>675.6</ele>
        <time>2021-06-18T10:19:44Z</time>
      </trkpt>
      <trkpt lat="39.7929000" lon="2.8068130">
        <ele>674.6</ele>
        <time>2021-06-18T10:19:45Z</time>
      </trkpt>
      <trkpt lat="39.7929940" lon="2.8070650">
        <ele>672.8</ele>
        <time>2021-06-18T10:19:47Z</time>
      </trkpt>
      <trkpt lat="39.7930650" lon="2.8071830">
        <ele>671.8</ele>
        <time>2021-06-18T10:19:48Z</time>
      </trkpt>
      <trkpt lat="39.7932400" lon="2.8073900">
        <ele>669.8</ele>
        <time>2021-06-18T10:19:50Z</time>
      </trkpt>
      <trkpt lat="39.7936880" lon="2.8079390">
        <ele>664.3</ele>
        <time>2021-06-18T10:19:55Z</time>
      </trkpt>
      <trkpt lat="39.7937890" lon="2.8080240">
        <ele>663.3</ele>
        <time>2021-06-18T10:19:56Z</time>
      </trkpt>
      <trkpt lat="39.7939200" lon="2.8081010">
        <ele>662.2</ele>
        <time>2021-06-18T10:19:57Z</time>
      </trkpt>
      <trkpt lat="39.7941280" lon="2.8081890">
        <ele>660.6</ele>
        <time>2021-06-18T10:19:59Z</time>
      </trkpt>
      <trkpt lat="39.7944890" lon="2.8083180">
        <ele>657.8</ele>
        <time>2021-06-18T10:20:02Z</time>
      </trkpt>
      <trkpt lat="39.7948430" lon="2.8085130">
        <ele>654.5</ele>
        <time>2021-06-18T10:20:05Z</time>
      </trkpt>
      <trkpt lat="39.7951810" lon="2.8087280">
        <ele>651.2</ele>
        <time>2021-06-18T10:20:08Z</time>
      </trkpt>
      <trkpt lat="39.7952780" lon="2.8088310">
        <ele>650.1</ele>
        <time>2021-06-18T10:20:09Z</time>
      </trkpt>
      <trkpt lat="39.7956260" lon="2.8093230">
        <ele>645.8</ele>
        <time>2021-06-18T10:20:13Z</time>
      </trkpt>
      <trkpt lat="39.7957970" lon="2.8095760">
        <ele>643.8</ele>
        <time>2021-06-18T10:20:15Z</time>
      </trkpt>
      <trkpt lat="39.7961250" lon="2.8100910">
        <ele>639.8</ele>
        <time>2021-06-18T10:20:19Z</time>
      </trkpt>
      <trkpt lat="39.7962900" lon="2.8103340">
        <ele>637.4</ele>
        <time>2021-06-18T10:20:21Z</time>
      </trkpt>
      <trkpt lat="39.7963720" lon="2.8104370">
        <ele>636.2</ele>
        <time>2021-06-18T10:20:22Z</time>
      </trkpt>
      <trkpt lat="39.7964580" lon="2.8105260">
        <ele>635.1</ele>
        <time>2021-06-18T10:20:23Z</time>
      </trkpt>
      <trkpt lat="39.7965470" lon="2.8106030">
        <ele>634.0</ele>
        <time>2021-06-18T10:20:24Z</time>
      </trkpt>
      <trkpt lat="39.7967500" lon="2.8107170">
        <ele>631.9</ele>
        <time>2021-06-18T10:20:26Z</time>
      </trkpt>
      <trkpt lat="39.7968630" lon="2.8107540">
        <ele>630.8</ele>
        <time>2021-06-18T10:20:27Z</time>
      </trkpt>
      <trkpt lat="39.7971080" lon="2.8108000">
        <ele>628.4</ele>
        <time>2021-06-18T10:20:29Z</time>
      </trkpt>
      <trkpt lat="39.7974830" lon="2.8108560">
        <ele>624.8</ele>
        <time>2021-06-18T10:20:32Z</time>
      </trkpt>
      <trkpt lat="39.7976080" lon="2.8108560">
        <ele>623.7</ele>
        <time>2021-06-18T10:20:33Z</time>
      </trkpt>
      <trkpt lat="39.7977350" lon="2.8108320">
        <ele>622.5</ele>
        <time>2021-06-18T10:20:34Z</time>
      </trkpt>
      <trkpt lat="39.7978570" lon="2.8107930">
        <ele>621.5</ele>
        <time>2021-06-18T10:20:35Z</time>
      </trkpt>
      <trkpt lat="39.7981040" lon="2.8106770">
        <ele>619.3</ele>
        <time>2021-06-18T10:20:37Z</time>
      </trkpt>
      <trkpt lat="39.7986010" lon="2.8103740">
        <ele>615.8</ele>
        <time>2021-06-18T10:20:41Z</time>
      </trkpt>
      <trkpt lat="39.7988420" lon="2.8102350">
        <ele>615.7</ele>
        <time>2021-06-18T10:20:43Z</time>
      </trkpt>
      <trkpt lat="39.7989650" lon="2.8101900">
        <ele>615.3</ele>
        <time>2021-06-18T10:20:44Z</time>
      </trkpt>
      <trkpt lat="39.7990880" lon="2.8101820">
        <ele>614.9</ele>
        <time>2021-06-18T10:20:45Z</time>
      </trkpt>
      <trkpt lat="39.7992090" lon="2.8102030">
        <ele>614.5</ele>
        <time>2021-06-18T10:20:46Z</time>
      </trkpt>
      <trkpt lat="39.7993210" lon="2.8102520">
        <ele>614.1</ele>
        <time>2021-06-18T10:20:47Z</time>
      </trkpt>
      <trkpt lat="39.7994210" lon="2.8103260">
        <ele>613.7</ele>
        <time>2021-06-18T10:20:48Z</time>
      </trkpt>
      <trkpt lat="39.7996070" lon="2.8105040">
        <ele>613.3</ele>
        <time>2021-06-18T10:20:50Z</time>
      </trkpt>
      <trkpt lat="39.8000050" lon="2.8109190">
        <ele>613.6</ele>
        <time>2021-06-18T10:20:55Z</time>
      </trkpt>
      <trkpt lat="39.8003930" lon="2.8112090">
        <ele>614.0</ele>
        <time>2021-06-18T10:21:00Z</time>
      </trkpt>
      <trkpt lat="39.8005330" lon="2.8113140">
        <ele>614.2</ele>
        <time>2021-06-18T10:21:02Z</time>
      </trkpt>
      <trkpt lat="39.8006020" lon="2.8113620">
        <ele>614.2</ele>
        <time>2021-06-18T10:21:03Z</time>
      </trkpt>
      <trkpt lat="39.8006650" lon="2.8114120">
        <ele>614.3</ele>
        <time>2021-06-18T10:21:04Z</time>
      </trkpt>
      <trkpt lat="39.8007880" lon="2.8115230">
        <ele>614.5</ele>
        <time>2021-06-18T10:21:06Z</time>
      </trkpt>
      <trkpt lat="39.8008970" lon="2.8116340">
        <ele>614.6</ele>
        <time>2021-06-18T10:21:08Z</time>
      </trkpt>
      <trkpt lat="39.8010500" lon="2.8117900">
        <ele>614.9</ele>
        <time>2021-06-18T10:21:11Z</time>
      </trkpt>
      <trkpt lat="39.8012730" lon="2.8120070">
        <ele>615.0</ele>
        <time>2021-06-18T10:21:16Z</time>
      </trkpt>
      <trkpt lat="39.8013150" lon="2.8120440">
        <ele>615.0</ele>
        <time>2021-06-18T10:21:17Z</time>
      </trkpt>
      <trkpt lat="39.8016670" lon="2.8124210">
        <ele>614.8</ele>
        <time>2021-06-18T10:21:25Z</time>
      </trkpt>
      <trkpt lat="39.8019070" lon="2.8127480">
        <ele>614.7</ele>
        <time>2021-06-18T10:21:31Z</time>
      </trkpt>
      <trkpt lat="39.8020010" lon="2.8128710">
        <ele>614.7</ele>
        <time>2021-06-18T10:21:33Z</time>
      </trkpt>
      <trkpt lat="39.8023650" lon="2.8133240">
        <ele>614.4</ele>
        <time>2021-06-18T10:21:42Z</time>
      </trkpt>
      <trkpt lat="39.8026450" lon="2.8136930">
        <ele>614.1</ele>
        <time>2021-06-18T10:21:49Z</time>
      </trkpt>
      <trkpt lat="39.8027530" lon="2.8138510">
        <ele>614.0</ele>
        <time>2021-06-18T10:21:52Z</time>
      </trkpt>
      <trkpt lat="39.8030190" lon="2.8142480">
        <ele>613.8</ele>
        <time>2021-06-18T10:21:59Z</time>
      </trkpt>
      <trkpt lat="39.8033830" lon="2.8147810">
        <ele>613.6</ele>
        <time>2021-06-18T10:22:08Z</time>
      </trkpt>
      <trkpt lat="39.8034250" lon="2.8148420">
        <ele>613.6</ele>
        <time>2021-06-18T10:22:09Z</time>
      </trkpt>
      <trkpt lat="39.8037460" lon="2.8153550">
        <ele>613.7</ele>
        <time>2021-06-18T10:22:17Z</time>
      </trkpt>
      <trkpt lat="39.8038190" lon="2.8154850">
        <ele>613.8</ele>
        <time>2021-06-18T10:22:19Z</time>
      </trkpt>
      <trkpt lat="39.8040820" lon="2.8158840">
        <ele>614.4</ele>
        <time>2021-06-18T10:22:26Z</time>
      </trkpt>
      <trkpt lat="39.8042980" lon="2.8161320">
        <ele>614.7</ele>
        <time>2021-06-18T10:22:31Z</time>
      </trkpt>
      <trkpt lat="39.8044980" lon="2.8163740">
        <ele>615.0</ele>
        <time>2021-06-18T10:22:36Z</time>
      </trkpt>
      <trkpt lat="39.8046630" lon="2.8165760">
        <ele>615.3</ele>
        <time>2021-06-18T10:22:40Z</time>
      </trkpt>
      <trkpt lat="39.8048440" lon="2.8167620">
        <ele>615.5</ele>
        <time>2021-06-18T10:22:44Z</time>
      </trkpt>
      <trkpt lat="39.8052670" lon="2.8171100">
        <ele>615.7</ele>
        <time>2021-06-18T10:22:53Z</time>
      </trkpt>
      <trkpt lat="39.8053130" lon="2.8171440">
        <ele>615.7</ele>
        <time>2021-06-18T10:22:54Z</time>
      </trkpt>
      <trkpt lat="39.8054400" lon="2.8172450">
        <ele>615.6</ele>
        <time>2021-06-18T10:22:58Z</time>
      </trkpt>
      <trkpt lat="39.8057230" lon="2.8175410">
        <ele>615.4</ele>
        <time>2021-06-18T10:23:04Z</time>
      </trkpt>
      <trkpt lat="39.8060070" lon="2.8179300">
        <ele>615.2</ele>
        <time>2021-06-18T10:23:12Z</time>
      </trkpt>
      <trkpt lat="39.8060740" lon="2.8180330">
        <ele>615.1</ele>
        <time>2021-06-18T10:23:14Z</time>
      </trkpt>
      <trkpt lat="39.8061330" lon="2.8181440">
        <ele>615.1</ele>
        <time>2021-06-18T10:23:16Z</time>
      </trkpt>
      <trkpt lat="39.8061890" lon="2.8182490">
        <ele>615.0</ele>
        <time>2021-06-18T10:23:18Z</time>
      </trkpt>
      <trkpt lat="39.8062820" lon="2.8184040">
        <ele>614.9</ele>
        <time>2021-06-18T10:23:21Z</time>
      </trkpt>
      <trkpt lat="39.8064180" lon="2.8185870">
        <ele>614.8</ele>
        <time>2021-06-18T10:23:25Z</time>
      </trkpt>
      <trkpt lat="39.8065780" lon="2.8187550">
        <ele>614.7</ele>
        <time>2021-06-18T10:23:29Z</time>
      </trkpt>
      <trkpt lat="39.8067540" lon="2.8189080">
        <ele>614.6</ele>
        <time>2021-06-18T10:23:33Z</time>
      </trkpt>
      <trkpt lat="39.8070830" lon="2.8192030">
        <ele>614.3</ele>
        <time>2021-06-18T10:23:40Z</time>
      </trkpt>
      <trkpt lat="39.8075260" lon="2.8196190">
        <ele>614.0</ele>
        <time>2021-06-18T10:23:49Z</time>
      </trkpt>
      <trkpt lat="39.8079940" lon="2.8200630">
        <ele>614.1</ele>
        <time>2021-06-18T10:23:59Z</time>
      </trkpt>
      <trkpt lat="39.8083610" lon="2.8204030">
        <ele>614.2</ele>
        <time>2021-06-18T10:24:07Z</time>
      </trkpt>
      <trkpt lat="39.8084980" lon="2.8205330">
        <ele>614.3</ele>
        <time>2021-06-18T10:24:10Z</time>
      </trkpt>
      <trkpt lat="39.8085950" lon="2.8206240">
        <ele>614.3</ele>
        <time>2021-06-18T10:24:12Z</time>
      </trkpt>
      <trkpt lat="39.8086900" lon="2.8207170">
        <ele>614.4</ele>
        <time>2021-06-18T10:24:14Z</time>
      </trkpt>
      <trkpt lat="39.8087770" lon="2.8208210">
        <ele>614.5</ele>
        <time>2021-06-18T10:24:16Z</time>
      </trkpt>
      <trkpt lat="39.8088230" lon="2.8208740">
        <ele>614.5</ele>
        <time>2021-06-18T10:24:17Z</time>
      </trkpt>
      <trkpt lat="39.8091870" lon="2.8213540">
        <ele>614.8</ele>
        <time>2021-06-18T10:24:26Z</time>
      </trkpt>
      <trkpt lat="39.8093300" lon="2.8214880">
        <ele>614.9</ele>
        <time>2021-06-18T10:24:29Z</time>
      </trkpt>
      <trkpt lat="39.8093820" lon="2.8215220">
        <ele>614.9</ele>
        <time>2021-06-18T10:24:30Z</time>
      </trkpt>
      <trkpt lat="39.8094920" lon="2.8215870">
        <ele>614.9</ele>
        <time>2021-06-18T10:24:32Z</time>
      </trkpt>
      <trkpt lat="39.8095950" lon="2.8216560">
        <ele>614.8</ele>
        <time>2021-06-18T10:24:35Z</time>
      </trkpt>
      <trkpt lat="39.8100230" lon="2.8219920">
        <ele>614.4</ele>
        <time>2021-06-18T10:24:42Z</time>
      </trkpt>
      <trkpt lat="39.8103530" lon="2.8222980">
        <ele>614.0</ele>
        <time>2021-06-18T10:24:49Z</time>
      </trkpt>
      <trkpt lat="39.8105640" lon="2.8224870">
        <ele>613.9</ele>
        <time>2021-06-18T10:24:54Z</time>
      </trkpt>
      <trkpt lat="39.8107150" lon="2.8226440">
        <ele>614.0</ele>
        <time>2021-06-18T10:24:58Z</time>
      </trkpt>
      <trkpt lat="39.8107390" lon="2.8227340">
        <ele>614.0</ele>
        <time>2021-06-18T10:25:00Z</time>
      </trkpt>
      <trkpt lat="39.8106590" lon="2.8228280">
        <ele>614.1</ele>
        <time>2021-06-18T10:25:03Z</time>
      </trkpt>
      <trkpt lat="39.8106050" lon="2.8228800">
        <ele>614.2</ele>
        <time>2021-06-18T10:25:07Z</time>
      </trkpt>
      <trkpt lat="39.8106050" lon="2.8228800">
        <ele>614.2</ele>
        <time>2021-06-18T10:25:11Z</time>
      </trkpt>
      <trkpt lat="39.8106100" lon="2.8228760">
        <ele>614.2</ele>
        <time>2021-06-18T10:25:17Z</time>
      </trkpt>
      <trkpt lat="39.8106100" lon="2.8228760">
        <ele>614.2</ele>
        <time>2021-06-18T10:25:23Z</time>
      </trkpt>
      <trkpt lat="39.8106100" lon="2.8228760">
        <ele>614.2</ele>
        <time>2021-06-18T10:25:33Z</time>
      </trkpt>
      <trkpt lat="39.8106100" lon="2.8228760">
        <ele>614.2</ele>
        <time>2021-06-18T10:25:38Z</time>
      </trkpt>
      <trkpt lat="39.8106100" lon="2.8228760">
        <ele>614.2</ele>
        <time>2021-06-18T10:25:39Z</time>
      </trkpt>
      <trkpt lat="39.8106100" lon="2.8228760">
        <ele>614.2</ele>
        <time>2021-06-18T10:25:47Z</time>
      </trkpt>
      <trkpt lat="39.8106100" lon="2.8228760">
        <ele>614.2</ele>
        <time>2021-06-18T10:25:52Z</time>
      </trkpt>
      <trkpt lat="39.8106100" lon="2.8228760">
        <ele>614.2</ele>
        <time>2021-06-18T10:25:55Z</time>
      </trkpt>
      <trkpt lat="39.8106100" lon="2.8228760">
        <ele>614.2</ele>
        <time>2021-06-18T10:26:06Z</time>
      </trkpt>
      <trkpt lat="39.8106080" lon="2.8228760">
        <ele>614.2</ele>
        <time>2021-06-18T10:26:17Z</time>
      </trkpt>
      <trkpt lat="39.8106070" lon="2.8228760">
        <ele>614.2</ele>
        <time>2021-06-18T10:26:20Z</time>
      </trkpt>
      <trkpt lat="39.8106060" lon="2.8228760">
        <ele>614.2</ele>
        <time>2021-06-18T10:26:22Z</time>
      </trkpt>
      <trkpt lat="39.8106030" lon="2.8228710">
        <ele>614.2</ele>
        <time>2021-06-18T10:26:24Z</time>
      </trkpt>
      <trkpt lat="39.8106030" lon="2.8228710">
        <ele>614.2</ele>
        <time>2021-06-18T10:26:26Z</time>
      </trkpt>
      <trkpt lat="39.8106030" lon="2.8228710">
        <ele>614.2</ele>
        <time>2021-06-18T10:26:28Z</time>
      </trkpt>
      <trkpt lat="39.8106030" lon="2.8228710">
        <ele>614.2</ele>
        <time>2021-06-18T10:26:30Z</time>
      </trkpt>
      <trkpt lat="39.8106030" lon="2.8228710">
        <ele>614.2</ele>
        <time>2021-06-18T10:26:32Z</time>
      </trkpt>
      <trkpt lat="39.8106030" lon="2.8228710">
        <ele>614.2</ele>
        <time>2021-06-18T10:26:45Z</time>
      </trkpt>
      <trkpt lat="39.8106030" lon="2.8228710">
        <ele>614.2</ele>
        <time>2021-06-18T10:26:53Z</time>
      </trkpt>
      <trkpt lat="39.8106030" lon="2.8228710">
        <ele>614.2</ele>
        <time>2021-06-18T10:27:02Z</time>
      </trkpt>
      <trkpt lat="39.8106020" lon="2.8228720">
        <ele>614.2</ele>
        <time>2021-06-18T10:27:20Z</time>
      </trkpt>
      <trkpt lat="39.8106020" lon="2.8228730">
        <ele>614.2</ele>
        <time>2021-06-18T10:27:23Z</time>
      </trkpt>
      <trkpt lat="39.8106020" lon="2.8228730">
        <ele>614.2</ele>
        <time>2021-06-18T10:27:27Z</time>
      </trkpt>
      <trkpt lat="39.8106020" lon="2.8228730">
        <ele>614.2</ele>
        <time>2021-06-18T10:27:38Z</time>
      </trkpt>
      <trkpt lat="39.8106020" lon="2.8228730">
        <ele>614.2</ele>
        <time>2021-06-18T10:27:40Z</time>
      </trkpt>
      <trkpt lat="39.8106020" lon="2.8228730">
        <ele>614.2</ele>
        <time>2021-06-18T10:27:49Z</time>
      </trkpt>
      <trkpt lat="39.8106020" lon="2.8228730">
        <ele>614.2</ele>
        <time>2021-06-18T10:27:54Z</time>
      </trkpt>
      <trkpt lat="39.8106020" lon="2.8228730">
        <ele>614.2</ele>
        <time>2021-06-18T10:28:08Z</time>
      </trkpt>
      <trkpt lat="39.8106020" lon="2.8228730">
        <ele>614.2</ele>
        <time>2021-06-18T10:28:19Z</time>
      </trkpt>
      <trkpt lat="39.8106020" lon="2.8228730">
        <ele>614.2</ele>
        <time>2021-06-18T10:28:23Z</time>
      </trkpt>
      <trkpt lat="39.8106020" lon="2.8228730">
        <ele>614.2</ele>
        <time>2021-06-18T10:28:25Z</time>
      </trkpt>
      <trkpt lat="39.8106020" lon="2.8228730">
        <ele>614.2</ele>
        <time>2021-06-18T10:28:27Z</time>
      </trkpt>
      <trkpt lat="39.8106040" lon="2.8228740">
        <ele>614.2</ele>
        <time>2021-06-18T10:28:40Z</time>
      </trkpt>
      <trkpt lat="39.8106060" lon="2.8228710">
        <ele>614.2</ele>
        <time>2021-06-18T10:28:50Z</time>
      </trkpt>
      <trkpt lat="39.8106400" lon="2.8228540">
        <ele>614.3</ele>
        <time>2021-06-18T10:28:52Z</time>
      </trkpt>
      <trkpt lat="39.8107380" lon="2.8228550">
        <ele>614.4</ele>
        <time>2021-06-18T10:28:57Z</time>
      </trkpt>
      <trkpt lat="39.8107580" lon="2.8228400">
        <ele>614.4</ele>
        <time>2021-06-18T10:28:58Z</time>
      </trkpt>
      <trkpt lat="39.8107840" lon="2.8227920">
        <ele>614.4</ele>
        <time>2021-06-18T10:29:00Z</time>
      </trkpt>
      <trkpt lat="39.8107670" lon="2.8227570">
        <ele>614.4</ele>
        <time>2021-06-18T10:29:02Z</time>
      </trkpt>
      <trkpt lat="39.8107290" lon="2.8227760">
        <ele>614.4</ele>
        <time>2021-06-18T10:29:04Z</time>
      </trkpt>
      <trkpt lat="39.8107190" lon="2.8227980">
        <ele>614.4</ele>
        <time>2021-06-18T10:29:05Z</time>
      </trkpt>
      <trkpt lat="39.8107300" lon="2.8228500">
        <ele>614.4</ele>
        <time>2021-06-18T10:29:07Z</time>
      </trkpt>
      <trkpt lat="39.8107480" lon="2.8228630">
        <ele>614.5</ele>
        <time>2021-06-18T10:29:08Z</time>
      </trkpt>
      <trkpt lat="39.8107710" lon="2.8228660">
        <ele>614.5</ele>
        <time>2021-06-18T10:29:09Z</time>
      </trkpt>
      <trkpt lat="39.8108150" lon="2.8228270">
        <ele>614.5</ele>
        <time>2021-06-18T10:29:11Z</time>
      </trkpt>
      <trkpt lat="39.8108790" lon="2.8227030">
        <ele>614.6</ele>
        <time>2021-06-18T10:29:15Z</time>
      </trkpt>
      <trkpt lat="39.8109190" lon="2.8226900">
        <ele>614.6</ele>
        <time>2021-06-18T10:29:16Z</time>
      </trkpt>
      <trkpt lat="39.8109190" lon="2.8226900">
        <ele>614.6</ele>
        <time>2021-06-18T10:29:19Z</time>
      </trkpt>
      <trkpt lat="39.8109550" lon="2.8226240">
        <ele>614.7</ele>
        <time>2021-06-18T10:29:20Z</time>
      </trkpt>
      <trkpt lat="39.8109900" lon="2.8225590">
        <ele>614.7</ele>
        <time>2021-06-18T10:29:21Z</time>
      </trkpt>
      <trkpt lat="39.8110260" lon="2.8224930">
        <ele>614.8</ele>
        <time>2021-06-18T10:29:25Z</time>
      </trkpt>
      <trkpt lat="39.8110620" lon="2.8224280">
        <ele>614.7</ele>
        <time>2021-06-18T10:29:37Z</time>
      </trkpt>
      <trkpt lat="39.8110980" lon="2.8223620">
        <ele>614.7</ele>
        <time>2021-06-18T10:29:39Z</time>
      </trkpt>
      <trkpt lat="39.8111330" lon="2.8222970">
        <ele>614.7</ele>
        <time>2021-06-18T10:29:43Z</time>
      </trkpt>
      <trkpt lat="39.8111690" lon="2.8222310">
        <ele>614.6</ele>
        <time>2021-06-18T10:29:45Z</time>
      </trkpt>
      <trkpt lat="39.8112050" lon="2.8221660">
        <ele>614.5</ele>
        <time>2021-06-18T10:29:54Z</time>
      </trkpt>
      <trkpt lat="39.8112400" lon="2.8221000">
        <ele>614.4</ele>
        <time>2021-06-18T10:29:56Z</time>
      </trkpt>
      <trkpt lat="39.8112760" lon="2.8220350">
        <ele>614.3</ele>
        <time>2021-06-18T10:29:58Z</time>
      </trkpt>
      <trkpt lat="39.8113120" lon="2.8219690">
        <ele>614.1</ele>
        <time>2021-06-18T10:29:59Z</time>
      </trkpt>
      <trkpt lat="39.8113470" lon="2.8219040">
        <ele>613.9</ele>
        <time>2021-06-18T10:30:04Z</time>
      </trkpt>
      <trkpt lat="39.8113830" lon="2.8218380">
        <ele>613.7</ele>
        <time>2021-06-18T10:30:05Z</time>
      </trkpt>
      <trkpt lat="39.8114190" lon="2.8217730">
        <ele>613.4</ele>
        <time>2021-06-18T10:30:06Z</time>
      </trkpt>
      <trkpt lat="39.8114550" lon="2.8217070">
        <ele>613.2</ele>
        <time>2021-06-18T10:30:08Z</time>
      </trkpt>
      <trkpt lat="39.8114900" lon="2.8216420">
        <ele>613.0</ele>
        <time>2021-06-18T10:30:11Z</time>
      </trkpt>
      <trkpt lat="39.8115260" lon="2.8215760">
        <ele>612.8</ele>
        <time>2021-06-18T10:30:14Z</time>
      </trkpt>
      <trkpt lat="39.8129420" lon="2.8189750">
        <ele>601.8</ele>
        <time>2021-06-18T10:30:21Z</time>
      </trkpt>
      <trkpt lat="39.8130140" lon="2.8187580">
        <ele>600.5</ele>
        <time>2021-06-18T10:30:23Z</time>
      </trkpt>
      <trkpt lat="39.8131540" lon="2.8186350">
        <ele>599.1</ele>
        <time>2021-06-18T10:30:25Z</time>
      </trkpt>
      <trkpt lat="39.8132680" lon="2.8186250">
        <ele>598.2</ele>
        <time>2021-06-18T10:30:26Z</time>
      </trkpt>
      <trkpt lat="39.8133630" lon="2.8186610">
        <ele>597.4</ele>
        <time>2021-06-18T10:30:27Z</time>
      </trkpt>
      <trkpt lat="39.8134460" lon="2.8187370">
        <ele>596.6</ele>
        <time>2021-06-18T10:30:28Z</time>
      </trkpt>
      <trkpt lat="39.8134940" lon="2.8188200">
        <ele>596.0</ele>
        <time>2021-06-18T10:30:29Z</time>
      </trkpt>
      <trkpt lat="39.8135790" lon="2.8190720">
        <ele>594.2</ele>
        <time>2021-06-18T10:30:31Z</time>
      </trkpt>
      <trkpt lat="39.8135850" lon="2.8193110">
        <ele>592.4</ele>
        <time>2021-06-18T10:30:33Z</time>
      </trkpt>
      <trkpt lat="39.8135840" lon="2.8195470">
        <ele>590.7</ele>
        <time>2021-06-18T10:30:35Z</time>
      </trkpt>
      <trkpt lat="39.8135830" lon="2.8202840">
        <ele>586.1</ele>
        <time>2021-06-18T10:30:41Z</time>
      </trkpt>
      <trkpt lat="39.8135970" lon="2.8203650">
        <ele>585.6</ele>
        <time>2021-06-18T10:30:42Z</time>
      </trkpt>
      <trkpt lat="39.8136220" lon="2.8204610">
        <ele>585.0</ele>
        <time>2021-06-18T10:30:43Z</time>
      </trkpt>
      <trkpt lat="39.8137270" lon="2.8207520">
        <ele>583.0</ele>
        <time>2021-06-18T10:30:46Z</time>
      </trkpt>
      <trkpt lat="39.8138580" lon="2.8210220">
        <ele>581.0</ele>
        <time>2021-06-18T10:30:50Z</time>
      </trkpt>
      <trkpt lat="39.8139170" lon="2.8211570">
        <ele>580.1</ele>
        <time>2021-06-18T10:30:51Z</time>
      </trkpt>
      <trkpt lat="39.8142700" lon="2.8219680">
        <ele>574.4</ele>
        <time>2021-06-18T10:30:57Z</time>
      </trkpt>
      <trkpt lat="39.8144530" lon="2.8223110">
        <ele>572.0</ele>
        <time>2021-06-18T10:31:00Z</time>
      </trkpt>
      <trkpt lat="39.8145100" lon="2.8223900">
        <ele>571.3</ele>
        <time>2021-06-18T10:31:01Z</time>
      </trkpt>
      <trkpt lat="39.8148610" lon="2.8227290">
        <ele>567.8</ele>
        <time>2021-06-18T10:31:05Z</time>
      </trkpt>
      <trkpt lat="39.8153150" lon="2.8231390">
        <ele>563.7</ele>
        <time>2021-06-18T10:31:11Z</time>
      </trkpt>
      <trkpt lat="39.8156900" lon="2.8234940">
        <ele>560.7</ele>
        <time>2021-06-18T10:31:17Z</time>
      </trkpt>
      <trkpt lat="39.8157460" lon="2.8235590">
        <ele>560.1</ele>
        <time>2021-06-18T10:31:18Z</time>
      </trkpt>
      <trkpt lat="39.8158020" lon="2.8236330">
        <ele>559.6</ele>
        <time>2021-06-18T10:31:19Z</time>
      </trkpt>
      <trkpt lat="39.8159330" lon="2.8238540">
        <ele>558.2</ele>
        <time>2021-06-18T10:31:22Z</time>
      </trkpt>
      <trkpt lat="39.8160700" lon="2.8241230">
        <ele>557.3</ele>
        <time>2021-06-18T10:31:26Z</time>
      </trkpt>
      <trkpt lat="39.8161530" lon="2.8241410">
        <ele>557.1</ele>
        <time>2021-06-18T10:31:28Z</time>
      </trkpt>
      <trkpt lat="39.8161960" lon="2.8241180">
        <ele>557.0</ele>
        <time>2021-06-18T10:31:29Z</time>
      </trkpt>
      <trkpt lat="39.8162170" lon="2.8240740">
        <ele>557.0</ele>
        <time>2021-06-18T10:31:30Z</time>
      </trkpt>
      <trkpt lat="39.8162210" lon="2.8240200">
        <ele>556.9</ele>
        <time>2021-06-18T10:31:31Z</time>
      </trkpt>
      <trkpt lat="39.8161960" lon="2.8239190">
        <ele>557.0</ele>
        <time>2021-06-18T10:31:33Z</time>
      </trkpt>
      <trkpt lat="39.8161530" lon="2.8238410">
        <ele>557.1</ele>
        <time>2021-06-18T10:31:35Z</time>
      </trkpt>
      <trkpt lat="39.8161180" lon="2.8237770">
        <ele>557.2</ele>
        <time>2021-06-18T10:31:37Z</time>
      </trkpt>
      <trkpt lat="39.8160740" lon="2.8236860">
        <ele>557.4</ele>
        <time>2021-06-18T10:31:40Z</time>
      </trkpt>
      <trkpt lat="39.8160390" lon="2.8236360">
        <ele>557.5</ele>
        <time>2021-06-18T10:31:42Z</time>
      </trkpt>
      <trkpt lat="39.8159940" lon="2.8235820">
        <ele>557.6</ele>
        <time>2021-06-18T10:31:44Z</time>
      </trkpt>
      <trkpt lat="39.8159220" lon="2.8235180">
        <ele>557.6</ele>
        <time>2021-06-18T10:31:47Z</time>
      </trkpt>
      <trkpt lat="39.8158790" lon="2.8234700">
        <ele>557.6</ele>
        <time>2021-06-18T10:31:49Z</time>
      </trkpt>
      <trkpt lat="39.8158380" lon="2.8234240">
        <ele>557.6</ele>
        <time>2021-06-18T10:31:51Z</time>
      </trkpt>
      <trkpt lat="39.8158080" lon="2.8233790">
        <ele>557.6</ele>
        <time>2021-06-18T10:31:53Z</time>
      </trkpt>
      <trkpt lat="39.8157060" lon="2.8232710">
        <ele>557.6</ele>
        <time>2021-06-18T10:31:57Z</time>
      </trkpt>
      <trkpt lat="39.8155840" lon="2.8231170">
        <ele>557.6</ele>
        <time>2021-06-18T10:32:02Z</time>
      </trkpt>
      <trkpt lat="39.8154450" lon="2.8229780">
        <ele>557.6</ele>
        <time>2021-06-18T10:32:07Z</time>
      </trkpt>
      <trkpt lat="39.8153780" lon="2.8229110">
        <ele>557.6</ele>
        <time>2021-06-18T10:32:09Z</time>
      </trkpt>
      <trkpt lat="39.8151870" lon="2.8226650">
        <ele>557.7</ele>
        <time>2021-06-18T10:32:15Z</time>
      </trkpt>
      <trkpt lat="39.8151610" lon="2.8226160">
        <ele>557.7</ele>
        <time>2021-06-18T10:32:16Z</time>
      </trkpt>
      <trkpt lat="39.8151420" lon="2.8224940">
        <ele>557.8</ele>
        <time>2021-06-18T10:32:18Z</time>
      </trkpt>
      <trkpt lat="39.8151850" lon="2.8223940">
        <ele>557.8</ele>
        <time>2021-06-18T10:32:20Z</time>
      </trkpt>
      <trkpt lat="39.8152170" lon="2.8223520">
        <ele>557.8</ele>
        <time>2021-06-18T10:32:21Z</time>
      </trkpt>
      <trkpt lat="39.8153820" lon="2.8221300">
        <ele>557.8</ele>
        <time>2021-06-18T10:32:26Z</time>
      </trkpt>
      <trkpt lat="39.8154100" lon="2.8220910">
        <ele>557.9</ele>
        <time>2021-06-18T10:32:27Z</time>
      </trkpt>
      <trkpt lat="39.8154410" lon="2.8220530">
        <ele>557.9</ele>
        <time>2021-06-18T10:32:28Z</time>
      </trkpt>
      <trkpt lat="39.8155870" lon="2.8219890">
        <ele>558.1</ele>
        <time>2021-06-18T10:32:32Z</time>
      </trkpt>
      <trkpt lat="39.8157840" lon="2.8220150">
        <ele>558.4</ele>
        <time>2021-06-18T10:32:37Z</time>
      </trkpt>
      <trkpt lat="39.8158590" lon="2.8220660">
        <ele>558.5</ele>
        <time>2021-06-18T10:32:39Z</time>
      </trkpt>
      <trkpt lat="39.8159740" lon="2.8221460">
        <ele>558.6</ele>
        <time>2021-06-18T10:32:42Z</time>
      </trkpt>
      <trkpt lat="39.8160520" lon="2.8221570">
        <ele>558.6</ele>
        <time>2021-06-18T10:32:44Z</time>
      </trkpt>
      <trkpt lat="39.8161290" lon="2.8221480">
        <ele>558.5</ele>
        <time>2021-06-18T10:32:46Z</time>
      </trkpt>
      <trkpt lat="39.8161660" lon="2.8221330">
        <ele>558.5</ele>
        <time>2021-06-18T10:32:47Z</time>
      </trkpt>
      <trkpt lat="39.8163110" lon="2.8220530">
        <ele>558.3</ele>
        <time>2021-06-18T10:32:51Z</time>
      </trkpt>
      <trkpt lat="39.8164140" lon="2.8219640">
        <ele>558.2</ele>
        <time>2021-06-18T10:32:54Z</time>
      </trkpt>
      <trkpt lat="39.8166530" lon="2.8217550">
        <ele>558.0</ele>
        <time>2021-06-18T10:33:01Z</time>
      </trkpt>
      <trkpt lat="39.8167510" lon="2.8216550">
        <ele>558.1</ele>
        <time>2021-06-18T10:33:04Z</time>
      </trkpt>
      <trkpt lat="39.8167820" lon="2.8216260">
        <ele>558.1</ele>
        <time>2021-06-18T10:33:05Z</time>
      </trkpt>
      <trkpt lat="39.8168150" lon="2.8215970">
        <ele>558.2</ele>
        <time>2021-06-18T10:33:06Z</time>
      </trkpt>
      <trkpt lat="39.8168740" lon="2.8215360">
        <ele>558.4</ele>
        <time>2021-06-18T10:33:08Z</time>
      </trkpt>
      <trkpt lat="39.8169020" lon="2.8215020">
        <ele>558.5</ele>
        <time>2021-06-18T10:33:09Z</time>
      </trkpt>
      <trkpt lat="39.8169600" lon="2.8214340">
        <ele>558.7</ele>
        <time>2021-06-18T10:33:11Z</time>
      </trkpt>
      <trkpt lat="39.8170920" lon="2.8212700">
        <ele>559.5</ele>
        <time>2021-06-18T10:33:16Z</time>
      </trkpt>
      <trkpt lat="39.8172540" lon="2.8210900">
        <ele>560.6</ele>
        <time>2021-06-18T10:33:23Z</time>
      </trkpt>
      <trkpt lat="39.8173140" lon="2.8210100">
        <ele>561.0</ele>
        <time>2021-06-18T10:33:26Z</time>
      </trkpt>
      <trkpt lat="39.8173540" lon="2.8209600">
        <ele>561.3</ele>
        <time>2021-06-18T10:33:28Z</time>
      </trkpt>
      <trkpt lat="39.8173760" lon="2.8209100">
        <ele>561.5</ele>
        <time>2021-06-18T10:33:30Z</time>
      </trkpt>
      <trkpt lat="39.8174070" lon="2.8208370">
        <ele>561.7</ele>
        <time>2021-06-18T10:33:33Z</time>
      </trkpt>
      <trkpt lat="39.8174220" lon="2.8208110">
        <ele>561.8</ele>
        <time>2021-06-18T10:33:34Z</time>
      </trkpt>
      <trkpt lat="39.8174500" lon="2.8207580">
        <ele>562.0</ele>
        <time>2021-06-18T10:33:36Z</time>
      </trkpt>
      <trkpt lat="39.8174720" lon="2.8207000">
        <ele>562.1</ele>
        <time>2021-06-18T10:33:38Z</time>
      </trkpt>
      <trkpt lat="39.8175100" lon="2.8204460">
        <ele>562.8</ele>
        <time>2021-06-18T10:33:45Z</time>
      </trkpt>
      <trkpt lat="39.8175300" lon="2.8202500">
        <ele>563.3</ele>
        <time>2021-06-18T10:33:50Z</time>
      </trkpt>
      <trkpt lat="39.8175460" lon="2.8201390">
        <ele>563.6</ele>
        <time>2021-06-18T10:33:53Z</time>
      </trkpt>
      <trkpt lat="39.8175600" lon="2.8199840">
        <ele>564.0</ele>
        <time>2021-06-18T10:33:57Z</time>
      </trkpt>
      <trkpt lat="39.8175690" lon="2.8199040">
        <ele>564.3</ele>
        <time>2021-06-18T10:33:59Z</time>
      </trkpt>
      <trkpt lat="39.8175840" lon="2.8197880">
        <ele>564.7</ele>
        <time>2021-06-18T10:34:02Z</time>
      </trkpt>
      <trkpt lat="39.8175900" lon="2.8197080">
        <ele>565.0</ele>
        <time>2021-06-18T10:34:04Z</time>
      </trkpt>
      <trkpt lat="39.8176160" lon="2.8195170">
        <ele>565.8</ele>
        <time>2021-06-18T10:34:09Z</time>
      </trkpt>
      <trkpt lat="39.8176780" lon="2.8193010">
        <ele>566.7</ele>
        <time>2021-06-18T10:34:15Z</time>
      </trkpt>
      <trkpt lat="39.8176910" lon="2.8192660">
        <ele>566.8</ele>
        <time>2021-06-18T10:34:16Z</time>
      </trkpt>
      <trkpt lat="39.8177380" lon="2.8191330">
        <ele>567.4</ele>
        <time>2021-06-18T10:34:20Z</time>
      </trkpt>
      <trkpt lat="39.8178060" lon="2.8189710">
        <ele>568.2</ele>
        <time>2021-06-18T10:34:25Z</time>
      </trkpt>
      <trkpt lat="39.8179080" lon="2.8187640">
        <ele>569.3</ele>
        <time>2021-06-18T10:34:32Z</time>
      </trkpt>
      <trkpt lat="39.8179340" lon="2.8187010">
        <ele>569.7</ele>
        <time>2021-06-18T10:34:34Z</time>
      </trkpt>
      <trkpt lat="39.8180150" lon="2.8184410">
        <ele>571.1</ele>
        <time>2021-06-18T10:34:42Z</time>
      </trkpt>
      <trkpt lat="39.8180860" lon="2.8183070">
        <ele>572.0</ele>
        <time>2021-06-18T10:34:48Z</time>
      </trkpt>
      <trkpt lat="39.8180930" lon="2.8182850">
        <ele>572.1</ele>
        <time>2021-06-18T10:34:49Z</time>
      </trkpt>
      <trkpt lat="39.8181250" lon="2.8181560">
        <ele>572.9</ele>
        <time>2021-06-18T10:34:55Z</time>
      </trkpt>
      <trkpt lat="39.8181770" lon="2.8180120">
        <ele>574.0</ele>
        <time>2021-06-18T10:35:01Z</time>
      </trkpt>
      <trkpt lat="39.8181890" lon="2.8179910">
        <ele>574.2</ele>
        <time>2021-06-18T10:35:03Z</time>
      </trkpt>
      <trkpt lat="39.8182570" lon="2.8178260">
        <ele>575.6</ele>
        <time>2021-06-18T10:35:11Z</time>
      </trkpt>
      <trkpt lat="39.8182920" lon="2.8177470">
        <ele>576.2</ele>
        <time>2021-06-18T10:35:15Z</time>
      </trkpt>
      <trkpt lat="39.8183060" lon="2.8177010">
        <ele>576.6</ele>
        <time>2021-06-18T10:35:17Z</time>
      </trkpt>
      <trkpt lat="39.8183560" lon="2.8175520">
        <ele>577.7</ele>
        <time>2021-06-18T10:35:24Z</time>
      </trkpt>
      <trkpt lat="39.8184070" lon="2.8173650">
        <ele>579.2</ele>
        <time>2021-06-18T10:35:32Z</time>
      </trkpt>
      <trkpt lat="39.8184590" lon="2.8171290">
        <ele>581.1</ele>
        <time>2021-06-18T10:35:41Z</time>
      </trkpt>
      <trkpt lat="39.8184770" lon="2.8169950">
        <ele>582.1</ele>
        <time>2021-06-18T10:35:47Z</time>
      </trkpt>
      <trkpt lat="39.8185050" lon="2.8168850">
        <ele>583.0</ele>
        <time>2021-06-18T10:35:52Z</time>
      </trkpt>
      <trkpt lat="39.8185100" lon="2.8168660">
        <ele>583.2</ele>
        <time>2021-06-18T10:35:53Z</time>
      </trkpt>
      <trkpt lat="39.8185420" lon="2.8167320">
        <ele>584.3</ele>
        <time>2021-06-18T10:35:59Z</time>
      </trkpt>
      <trkpt lat="39.8185470" lon="2.8167120">
        <ele>584.5</ele>
        <time>2021-06-18T10:36:00Z</time>
      </trkpt>
      <trkpt lat="39.8185640" lon="2.8166750">
        <ele>584.8</ele>
        <time>2021-06-18T10:36:02Z</time>
      </trkpt>
      <trkpt lat="39.8185860" lon="2.8165840">
        <ele>585.5</ele>
        <time>2021-06-18T10:36:06Z</time>
      </trkpt>
      <trkpt lat="39.8186350" lon="2.8163550">
        <ele>587.2</ele>
        <time>2021-06-18T10:36:15Z</time>
      </trkpt>
      <trkpt lat="39.8186410" lon="2.8163300">
        <ele>587.5</ele>
        <time>2021-06-18T10:36:16Z</time>
      </trkpt>
      <trkpt lat="39.8186610" lon="2.8162860">
        <ele>587.9</ele>
        <time>2021-06-18T10:36:18Z</time>
      </trkpt>
      <trkpt lat="39.8186700" lon="2.8162370">
        <ele>588.3</ele>
        <time>2021-06-18T10:36:20Z</time>
      </trkpt>
      <trkpt lat="39.8186810" lon="2.8161550">
        <ele>589.1</ele>
        <time>2021-06-18T10:36:23Z</time>
      </trkpt>
      <trkpt lat="39.8186950" lon="2.8159890">
        <ele>590.6</ele>
        <time>2021-06-18T10:36:29Z</time>
      </trkpt>
      <trkpt lat="39.8186990" lon="2.8158120">
        <ele>592.1</ele>
        <time>2021-06-18T10:36:35Z</time>
      </trkpt>
      <trkpt lat="39.8187020" lon="2.8157830">
        <ele>592.3</ele>
        <time>2021-06-18T10:36:36Z</time>
      </trkpt>
      <trkpt lat="39.8187050" lon="2.8156870">
        <ele>593.1</ele>
        <time>2021-06-18T10:36:39Z</time>
      </trkpt>
      <trkpt lat="39.8187180" lon="2.8155320">
        <ele>594.3</ele>
        <time>2021-06-18T10:36:44Z</time>
      </trkpt>
      <trkpt lat="39.8187220" lon="2.8154660">
        <ele>594.8</ele>
        <time>2021-06-18T10:36:46Z</time>
      </trkpt>
      <trkpt lat="39.8187230" lon="2.8153950">
        <ele>595.2</ele>
        <time>2021-06-18T10:36:48Z</time>
      </trkpt>
      <trkpt lat="39.8187390" lon="2.8153360">
        <ele>595.7</ele>
        <time>2021-06-18T10:36:50Z</time>
      </trkpt>
      <trkpt lat="39.8187600" lon="2.8152540">
        <ele>596.3</ele>
        <time>2021-06-18T10:36:53Z</time>
      </trkpt>
      <trkpt lat="39.8187730" lon="2.8152160">
        <ele>596.6</ele>
        <time>2021-06-18T10:36:55Z</time>
      </trkpt>
      <trkpt lat="39.8187700" lon="2.8151990">
        <ele>596.7</ele>
        <time>2021-06-18T10:36:57Z</time>
      </trkpt>
      <trkpt lat="39.8187410" lon="2.8152190">
        <ele>597.1</ele>
        <time>2021-06-18T10:37:00Z</time>
      </trkpt>
      <trkpt lat="39.8187380" lon="2.8152250">
        <ele>597.2</ele>
        <time>2021-06-18T10:37:02Z</time>
      </trkpt>
      <trkpt lat="39.8187250" lon="2.8152260">
        <ele>597.3</ele>
        <time>2021-06-18T10:37:10Z</time>
      </trkpt>
      <trkpt lat="39.8187250" lon="2.8152260">
        <ele>597.3</ele>
        <time>2021-06-18T10:37:15Z</time>
      </trkpt>
      <trkpt lat="39.8187240" lon="2.8152250">
        <ele>597.3</ele>
        <time>2021-06-18T10:37:22Z</time>
      </trkpt>
      <trkpt lat="39.8187230" lon="2.8152230">
        <ele>597.3</ele>
        <time>2021-06-18T10:37:34Z</time>
      </trkpt>
      <trkpt lat="39.8187230" lon="2.8152220">
        <ele>597.3</ele>
        <time>2021-06-18T10:37:40Z</time>
      </trkpt>
      <trkpt lat="39.8187300" lon="2.8152190">
        <ele>597.4</ele>
        <time>2021-06-18T10:37:49Z</time>
      </trkpt>
      <trkpt lat="39.8187290" lon="2.8152170">
        <ele>597.5</ele>
        <time>2021-06-18T10:37:52Z</time>
      </trkpt>
      <trkpt lat="39.8187070" lon="2.8151640">
        <ele>597.9</ele>
        <time>2021-06-18T10:37:56Z</time>
      </trkpt>
      <trkpt lat="39.8187070" lon="2.8151640">
        <ele>597.9</ele>
        <time>2021-06-18T10:38:02Z</time>
      </trkpt>
      <trkpt lat="39.8187070" lon="2.8151640">
        <ele>597.9</ele>
        <time>2021-06-18T10:38:06Z</time>
      </trkpt>
      <trkpt lat="39.8187030" lon="2.8151560">
        <ele>598.0</ele>
        <time>2021-06-18T10:38:10Z</time>
      </trkpt>
      <trkpt lat="39.8186970" lon="2.8151550">
        <ele>598.1</ele>
        <time>2021-06-18T10:38:19Z</time>
      </trkpt>
      <trkpt lat="39.8186950" lon="2.8151550">
        <ele>598.1</ele>
        <time>2021-06-18T10:38:20Z</time>
      </trkpt>
      <trkpt lat="39.8186750" lon="2.8151310">
        <ele>598.3</ele>
        <time>2021-06-18T10:38:23Z</time>
      </trkpt>
      <trkpt lat="39.8186680" lon="2.8151290">
        <ele>598.4</ele>
        <time>2021-06-18T10:38:30Z</time>
      </trkpt>
      <trkpt lat="39.8186680" lon="2.8151270">
        <ele>598.4</ele>
        <time>2021-06-18T10:38:37Z</time>
      </trkpt>
      <trkpt lat="39.8186630" lon="2.8151100">
        <ele>598.6</ele>
        <time>2021-06-18T10:38:48Z</time>
      </trkpt>
      <trkpt lat="39.8186560" lon="2.8151010">
        <ele>598.6</ele>
        <time>2021-06-18T10:38:52Z</time>
      </trkpt>
      <trkpt lat="39.8186540" lon="2.8150960">
        <ele>598.7</ele>
        <time>2021-06-18T10:38:54Z</time>
      </trkpt>
      <trkpt lat="39.8186540" lon="2.8150960">
        <ele>598.7</ele>
        <time>2021-06-18T10:38:56Z</time>
      </trkpt>
      <trkpt lat="39.8186280" lon="2.8150860">
        <ele>598.9</ele>
        <time>2021-06-18T10:39:00Z</time>
      </trkpt>
      <trkpt lat="39.8186050" lon="2.8150490">
        <ele>599.3</ele>
        <time>2021-06-18T10:39:05Z</time>
      </trkpt>
      <trkpt lat="39.8185970" lon="2.8150390">
        <ele>599.4</ele>
        <time>2021-06-18T10:39:11Z</time>
      </trkpt>
      <trkpt lat="39.8185970" lon="2.8150390">
        <ele>599.4</ele>
        <time>2021-06-18T10:39:16Z</time>
      </trkpt>
      <trkpt lat="39.8185970" lon="2.8150390">
        <ele>599.4</ele>
        <time>2021-06-18T10:39:18Z</time>
      </trkpt>
      <trkpt lat="39.8185970" lon="2.8150390">
        <ele>599.4</ele>
        <time>2021-06-18T10:39:22Z</time>
      </trkpt>
      <trkpt lat="39.8185970" lon="2.8150390">
        <ele>599.4</ele>
        <time>2021-06-18T10:39:29Z</time>
      </trkpt>
      <trkpt lat="39.8185970" lon="2.8150390">
        <ele>599.4</ele>
        <time>2021-06-18T10:39:31Z</time>
      </trkpt>
      <trkpt lat="39.8185970" lon="2.8150390">
        <ele>599.4</ele>
        <time>2021-06-18T10:39:34Z</time>
      </trkpt>
      <trkpt lat="39.8185940" lon="2.8150440">
        <ele>599.4</ele>
        <time>2021-06-18T10:39:39Z</time>
      </trkpt>
      <trkpt lat="39.8185940" lon="2.8150440">
        <ele>599.4</ele>
        <time>2021-06-18T10:39:42Z</time>
      </trkpt>
      <trkpt lat="39.8185940" lon="2.8150430">
        <ele>599.4</ele>
        <time>2021-06-18T10:39:50Z</time>
      </trkpt>
      <trkpt lat="39.8185940" lon="2.8150430">
        <ele>599.4</ele>
        <time>2021-06-18T10:39:59Z</time>
      </trkpt>
      <trkpt lat="39.8185940" lon="2.8150430">
        <ele>599.4</ele>
        <time>2021-06-18T10:40:03Z</time>
      </trkpt>
      <trkpt lat="39.8185940" lon="2.8150430">
        <ele>599.4</ele>
        <time>2021-06-18T10:40:08Z</time>
      </trkpt>
      <trkpt lat="39.8185840" lon="2.8150340">
        <ele>599.5</ele>
        <time>2021-06-18T10:40:14Z</time>
      </trkpt>
      <trkpt lat="39.8185840" lon="2.8150340">
        <ele>599.5</ele>
        <time>2021-06-18T10:40:22Z</time>
      </trkpt>
      <trkpt lat="39.8185840" lon="2.8150320">
        <ele>599.6</ele>
        <time>2021-06-18T10:40:31Z</time>
      </trkpt>
      <trkpt lat="39.8185840" lon="2.8150300">
        <ele>599.6</ele>
        <time>2021-06-18T10:40:33Z</time>
      </trkpt>
      <trkpt lat="39.8185840" lon="2.8150300">
        <ele>599.6</ele>
        <time>2021-06-18T10:40:36Z</time>
      </trkpt>
      <trkpt lat="39.8185860" lon="2.8150320">
        <ele>599.6</ele>
        <time>2021-06-18T10:40:42Z</time>
      </trkpt>
      <trkpt lat="39.8185950" lon="2.8150400">
        <ele>599.7</ele>
        <time>2021-06-18T10:40:45Z</time>
      </trkpt>
      <trkpt lat="39.8186060" lon="2.8150470">
        <ele>599.8</ele>
        <time>2021-06-18T10:40:48Z</time>
      </trkpt>
      <trkpt lat="39.8186060" lon="2.8150470">
        <ele>599.8</ele>
        <time>2021-06-18T10:40:51Z</time>
      </trkpt>
      <trkpt lat="39.8186160" lon="2.8150500">
        <ele>600.0</ele>
        <time>2021-06-18T10:40:54Z</time>
      </trkpt>
      <trkpt lat="39.8186410" lon="2.8150650">
        <ele>600.2</ele>
        <time>2021-06-18T10:40:56Z</time>
      </trkpt>
      <trkpt lat="39.8186460" lon="2.8150690">
        <ele>600.3</ele>
        <time>2021-06-18T10:40:57Z</time>
      </trkpt>
      <trkpt lat="39.8186840" lon="2.8151120">
        <ele>600.8</ele>
        <time>2021-06-18T10:41:00Z</time>
      </trkpt>
      <trkpt lat="39.8186920" lon="2.8151300">
        <ele>601.0</ele>
        <time>2021-06-18T10:41:04Z</time>
      </trkpt>
      <trkpt lat="39.8186710" lon="2.8151390">
        <ele>601.2</ele>
        <time>2021-06-18T10:41:10Z</time>
      </trkpt>
      <trkpt lat="39.8186570" lon="2.8151480">
        <ele>601.4</ele>
        <time>2021-06-18T10:41:16Z</time>
      </trkpt>
      <trkpt lat="39.8186570" lon="2.8151480">
        <ele>601.4</ele>
        <time>2021-06-18T10:41:20Z</time>
      </trkpt>
      <trkpt lat="39.8186570" lon="2.8151480">
        <ele>601.4</ele>
        <time>2021-06-18T10:41:26Z</time>
      </trkpt>
      <trkpt lat="39.8186550" lon="2.8151470">
        <ele>601.4</ele>
        <time>2021-06-18T10:41:31Z</time>
      </trkpt>
      <trkpt lat="39.8186590" lon="2.8151460">
        <ele>601.4</ele>
        <time>2021-06-18T10:41:35Z</time>
      </trkpt>
      <trkpt lat="39.8186590" lon="2.8151460">
        <ele>601.4</ele>
        <time>2021-06-18T10:41:45Z</time>
      </trkpt>
      <trkpt lat="39.8186650" lon="2.8151460">
        <ele>601.5</ele>
        <time>2021-06-18T10:41:48Z</time>
      </trkpt>
      <trkpt lat="39.8186730" lon="2.8151480">
        <ele>601.6</ele>
        <time>2021-06-18T10:41:51Z</time>
      </trkpt>
      <trkpt lat="39.8186810" lon="2.8151660">
        <ele>601.7</ele>
        <time>2021-06-18T10:41:57Z</time>
      </trkpt>
      <trkpt lat="39.8186920" lon="2.8151700">
        <ele>601.8</ele>
        <time>2021-06-18T10:42:11Z</time>
      </trkpt>
      <trkpt lat="39.8186980" lon="2.8152020">
        <ele>602.1</ele>
        <time>2021-06-18T10:42:14Z</time>
      </trkpt>
      <trkpt lat="39.8187000" lon="2.8152050">
        <ele>602.1</ele>
        <time>2021-06-18T10:42:20Z</time>
      </trkpt>
      <trkpt lat="39.8187080" lon="2.8152050">
        <ele>602.2</ele>
        <time>2021-06-18T10:42:27Z</time>
      </trkpt>
      <trkpt lat="39.8187090" lon="2.8152070">
        <ele>602.2</ele>
        <time>2021-06-18T10:42:33Z</time>
      </trkpt>
      <trkpt lat="39.8187290" lon="2.8151970">
        <ele>602.4</ele>
        <time>2021-06-18T10:42:38Z</time>
      </trkpt>
      <trkpt lat="39.8188390" lon="2.8151410">
        <ele>603.3</ele>
        <time>2021-06-18T10:42:44Z</time>
      </trkpt>
      <trkpt lat="39.8189220" lon="2.8151290">
        <ele>604.0</ele>
        <time>2021-06-18T10:42:47Z</time>
      </trkpt>
      <trkpt lat="39.8189870" lon="2.8151240">
        <ele>604.4</ele>
        <time>2021-06-18T10:42:50Z</time>
      </trkpt>
      <trkpt lat="39.8191220" lon="2.8151450">
        <ele>605.6</ele>
        <time>2021-06-18T10:42:56Z</time>
      </trkpt>
      <trkpt lat="39.8192480" lon="2.8151800">
        <ele>606.9</ele>
        <time>2021-06-18T10:43:02Z</time>
      </trkpt>
      <trkpt lat="39.8192650" lon="2.8151760">
        <ele>607.1</ele>
        <time>2021-06-18T10:43:03Z</time>
      </trkpt>
      <trkpt lat="39.8193300" lon="2.8151980">
        <ele>607.9</ele>
        <time>2021-06-18T10:43:06Z</time>
      </trkpt>
      <trkpt lat="39.8193550" lon="2.8152170">
        <ele>608.2</ele>
        <time>2021-06-18T10:43:07Z</time>
      </trkpt>
      <trkpt lat="39.8194190" lon="2.8152580">
        <ele>609.1</ele>
        <time>2021-06-18T10:43:10Z</time>
      </trkpt>
      <trkpt lat="39.8195260" lon="2.8153590">
        <ele>610.4</ele>
        <time>2021-06-18T10:43:15Z</time>
      </trkpt>
      <trkpt lat="39.8196290" lon="2.8154940">
        <ele>611.8</ele>
        <time>2021-06-18T10:43:22Z</time>
      </trkpt>
      <trkpt lat="39.8197750" lon="2.8157050">
        <ele>613.6</ele>
        <time>2021-06-18T10:43:31Z</time>
      </trkpt>
      <trkpt lat="39.8198780" lon="2.8158660">
        <ele>614.8</ele>
        <time>2021-06-18T10:43:38Z</time>
      </trkpt>
      <trkpt lat="39.8199970" lon="2.8160690">
        <ele>616.2</ele>
        <time>2021-06-18T10:43:47Z</time>
      </trkpt>
      <trkpt lat="39.8201350" lon="2.8161050">
        <ele>617.3</ele>
        <time>2021-06-18T10:43:55Z</time>
      </trkpt>
      <trkpt lat="39.8202030" lon="2.8160920">
        <ele>617.9</ele>
        <time>2021-06-18T10:43:59Z</time>
      </trkpt>
      <trkpt lat="39.8202300" lon="2.8160600">
        <ele>618.2</ele>
        <time>2021-06-18T10:44:01Z</time>
      </trkpt>
      <trkpt lat="39.8203000" lon="2.8159780">
        <ele>618.9</ele>
        <time>2021-06-18T10:44:05Z</time>
      </trkpt>
      <trkpt lat="39.8203310" lon="2.8159240">
        <ele>619.3</ele>
        <time>2021-06-18T10:44:08Z</time>
      </trkpt>
      <trkpt lat="39.8204060" lon="2.8158390">
        <ele>620.2</ele>
        <time>2021-06-18T10:44:13Z</time>
      </trkpt>
      <trkpt lat="39.8205370" lon="2.8156800">
        <ele>621.9</ele>
        <time>2021-06-18T10:44:21Z</time>
      </trkpt>
      <trkpt lat="39.8205540" lon="2.8156600">
        <ele>622.1</ele>
        <time>2021-06-18T10:44:22Z</time>
      </trkpt>
      <trkpt lat="39.8206730" lon="2.8155190">
        <ele>623.6</ele>
        <time>2021-06-18T10:44:29Z</time>
      </trkpt>
      <trkpt lat="39.8208660" lon="2.8152770">
        <ele>625.9</ele>
        <time>2021-06-18T10:44:39Z</time>
      </trkpt>
      <trkpt lat="39.8210140" lon="2.8151770">
        <ele>627.4</ele>
        <time>2021-06-18T10:44:45Z</time>
      </trkpt>
      <trkpt lat="39.8210370" lon="2.8151660">
        <ele>627.6</ele>
        <time>2021-06-18T10:44:46Z</time>
      </trkpt>
      <trkpt lat="39.8211160" lon="2.8151400">
        <ele>628.4</ele>
        <time>2021-06-18T10:44:49Z</time>
      </trkpt>
      <trkpt lat="39.8211710" lon="2.8151500">
        <ele>629.0</ele>
        <time>2021-06-18T10:44:51Z</time>
      </trkpt>
      <trkpt lat="39.8214130" lon="2.8151980">
        <ele>631.9</ele>
        <time>2021-06-18T10:45:00Z</time>
      </trkpt>
      <trkpt lat="39.8216100" lon="2.8152710">
        <ele>634.2</ele>
        <time>2021-06-18T10:45:08Z</time>
      </trkpt>
      <trkpt lat="39.8217910" lon="2.8153270">
        <ele>635.7</ele>
        <time>2021-06-18T10:45:15Z</time>
      </trkpt>
      <trkpt lat="39.8218750" lon="2.8152780">
        <ele>636.4</ele>
        <time>2021-06-18T10:45:19Z</time>
      </trkpt>
      <trkpt lat="39.8218870" lon="2.8152480">
        <ele>636.6</ele>
        <time>2021-06-18T10:45:20Z</time>
      </trkpt>
      <trkpt lat="39.8218740" lon="2.8151260">
        <ele>637.3</ele>
        <time>2021-06-18T10:45:24Z</time>
      </trkpt>
      <trkpt lat="39.8218370" lon="2.8150800">
        <ele>637.6</ele>
        <time>2021-06-18T10:45:26Z</time>
      </trkpt>
      <trkpt lat="39.8217660" lon="2.8150310">
        <ele>638.2</ele>
        <time>2021-06-18T10:45:29Z</time>
      </trkpt>
      <trkpt lat="39.8216010" lon="2.8150100">
        <ele>639.8</ele>
        <time>2021-06-18T10:45:35Z</time>
      </trkpt>
      <trkpt lat="39.8215490" lon="2.8149950">
        <ele>640.3</ele>
        <time>2021-06-18T10:45:37Z</time>
      </trkpt>
      <trkpt lat="39.8214510" lon="2.8149110">
        <ele>641.2</ele>
        <time>2021-06-18T10:45:42Z</time>
      </trkpt>
      <trkpt lat="39.8213820" lon="2.8148030">
        <ele>641.6</ele>
        <time>2021-06-18T10:45:46Z</time>
      </trkpt>
      <trkpt lat="39.8212560" lon="2.8146600">
        <ele>642.5</ele>
        <time>2021-06-18T10:45:52Z</time>
      </trkpt>
      <trkpt lat="39.8210970" lon="2.8145690">
        <ele>643.4</ele>
        <time>2021-06-18T10:45:58Z</time>
      </trkpt>
      <trkpt lat="39.8210060" lon="2.8145450">
        <ele>643.5</ele>
        <time>2021-06-18T10:46:01Z</time>
      </trkpt>
      <trkpt lat="39.8207690" lon="2.8145750">
        <ele>644.0</ele>
        <time>2021-06-18T10:46:09Z</time>
      </trkpt>
      <trkpt lat="39.8206040" lon="2.8145650">
        <ele>644.7</ele>
        <time>2021-06-18T10:46:15Z</time>
      </trkpt>
      <trkpt lat="39.8205370" lon="2.8144510">
        <ele>645.4</ele>
        <time>2021-06-18T10:46:19Z</time>
      </trkpt>
      <trkpt lat="39.8205690" lon="2.8143390">
        <ele>645.9</ele>
        <time>2021-06-18T10:46:22Z</time>
      </trkpt>
      <trkpt lat="39.8205940" lon="2.8143090">
        <ele>646.1</ele>
        <time>2021-06-18T10:46:23Z</time>
      </trkpt>
      <trkpt lat="39.8207100" lon="2.8142740">
        <ele>646.8</ele>
        <time>2021-06-18T10:46:27Z</time>
      </trkpt>
      <trkpt lat="39.8208720" lon="2.8143360">
        <ele>648.1</ele>
        <time>2021-06-18T10:46:32Z</time>
      </trkpt>
      <trkpt lat="39.8210170" lon="2.8143850">
        <ele>649.2</ele>
        <time>2021-06-18T10:46:37Z</time>
      </trkpt>
      <trkpt lat="39.8212950" lon="2.8144240">
        <ele>651.8</ele>
        <time>2021-06-18T10:46:47Z</time>
      </trkpt>
      <trkpt lat="39.8215060" lon="2.8144470">
        <ele>653.6</ele>
        <time>2021-06-18T10:46:55Z</time>
      </trkpt>
      <trkpt lat="39.8217840" lon="2.8145800">
        <ele>656.2</ele>
        <time>2021-06-18T10:47:05Z</time>
      </trkpt>
      <trkpt lat="39.8219360" lon="2.8145880">
        <ele>656.8</ele>
        <time>2021-06-18T10:47:10Z</time>
      </trkpt>
      <trkpt lat="39.8219980" lon="2.8145710">
        <ele>657.1</ele>
        <time>2021-06-18T10:47:12Z</time>
      </trkpt>
      <trkpt lat="39.8222070" lon="2.8145770">
        <ele>658.1</ele>
        <time>2021-06-18T10:47:19Z</time>
      </trkpt>
      <trkpt lat="39.8222890" lon="2.8147060">
        <ele>658.8</ele>
        <time>2021-06-18T10:47:23Z</time>
      </trkpt>
      <trkpt lat="39.8223350" lon="2.8149000">
        <ele>660.2</ele>
        <time>2021-06-18T10:47:28Z</time>
      </trkpt>
      <trkpt lat="39.8223490" lon="2.8149750">
        <ele>660.6</ele>
        <time>2021-06-18T10:47:30Z</time>
      </trkpt>
      <trkpt lat="39.8224260" lon="2.8151540">
        <ele>661.8</ele>
        <time>2021-06-18T10:47:36Z</time>
      </trkpt>
      <trkpt lat="39.8225740" lon="2.8153450">
        <ele>663.3</ele>
        <time>2021-06-18T10:47:43Z</time>
      </trkpt>
      <trkpt lat="39.8226220" lon="2.8154010">
        <ele>663.7</ele>
        <time>2021-06-18T10:47:45Z</time>
      </trkpt>
      <trkpt lat="39.8228040" lon="2.8155620">
        <ele>665.4</ele>
        <time>2021-06-18T10:47:52Z</time>
      </trkpt>
      <trkpt lat="39.8229340" lon="2.8156830">
        <ele>666.7</ele>
        <time>2021-06-18T10:47:57Z</time>
      </trkpt>
      <trkpt lat="39.8229850" lon="2.8157240">
        <ele>667.2</ele>
        <time>2021-06-18T10:47:59Z</time>
      </trkpt>
      <trkpt lat="39.8230600" lon="2.8157900">
        <ele>668.0</ele>
        <time>2021-06-18T10:48:02Z</time>
      </trkpt>
      <trkpt lat="39.8232650" lon="2.8158780">
        <ele>669.8</ele>
        <time>2021-06-18T10:48:09Z</time>
      </trkpt>
      <trkpt lat="39.8233530" lon="2.8158830">
        <ele>670.5</ele>
        <time>2021-06-18T10:48:12Z</time>
      </trkpt>
      <trkpt lat="39.8234720" lon="2.8158620">
        <ele>671.4</ele>
        <time>2021-06-18T10:48:16Z</time>
      </trkpt>
      <trkpt lat="39.8235330" lon="2.8158440">
        <ele>671.9</ele>
        <time>2021-06-18T10:48:18Z</time>
      </trkpt>
      <trkpt lat="39.8238120" lon="2.8156940">
        <ele>674.3</ele>
        <time>2021-06-18T10:48:28Z</time>
      </trkpt>
      <trkpt lat="39.8240660" lon="2.8154600">
        <ele>676.8</ele>
        <time>2021-06-18T10:48:38Z</time>
      </trkpt>
      <trkpt lat="39.8242450" lon="2.8152370">
        <ele>678.6</ele>
        <time>2021-06-18T10:48:46Z</time>
      </trkpt>
      <trkpt lat="39.8242920" lon="2.8151870">
        <ele>679.1</ele>
        <time>2021-06-18T10:48:48Z</time>
      </trkpt>
      <trkpt lat="39.8243180" lon="2.8151670">
        <ele>679.3</ele>
        <time>2021-06-18T10:48:49Z</time>
      </trkpt>
      <trkpt lat="39.8244390" lon="2.8150590">
        <ele>680.5</ele>
        <time>2021-06-18T10:48:54Z</time>
      </trkpt>
      <trkpt lat="39.8246050" lon="2.8149010">
        <ele>682.1</ele>
        <time>2021-06-18T10:49:01Z</time>
      </trkpt>
      <trkpt lat="39.8246570" lon="2.8148600">
        <ele>682.5</ele>
        <time>2021-06-18T10:49:03Z</time>
      </trkpt>
      <trkpt lat="39.8247310" lon="2.8147990">
        <ele>683.2</ele>
        <time>2021-06-18T10:49:06Z</time>
      </trkpt>
      <trkpt lat="39.8247760" lon="2.8147570">
        <ele>683.7</ele>
        <time>2021-06-18T10:49:08Z</time>
      </trkpt>
      <trkpt lat="39.8248920" lon="2.8146990">
        <ele>684.6</ele>
        <time>2021-06-18T10:49:12Z</time>
      </trkpt>
      <trkpt lat="39.8249510" lon="2.8147140">
        <ele>685.1</ele>
        <time>2021-06-18T10:49:14Z</time>
      </trkpt>
      <trkpt lat="39.8250250" lon="2.8148470">
        <ele>686.0</ele>
        <time>2021-06-18T10:49:18Z</time>
      </trkpt>
      <trkpt lat="39.8250070" lon="2.8150940">
        <ele>687.5</ele>
        <time>2021-06-18T10:49:24Z</time>
      </trkpt>
      <trkpt lat="39.8249750" lon="2.8152860">
        <ele>688.7</ele>
        <time>2021-06-18T10:49:29Z</time>
      </trkpt>
      <trkpt lat="39.8249780" lon="2.8154540">
        <ele>689.6</ele>
        <time>2021-06-18T10:49:33Z</time>
      </trkpt>
      <trkpt lat="39.8250510" lon="2.8156300">
        <ele>690.7</ele>
        <time>2021-06-18T10:49:38Z</time>
      </trkpt>
      <trkpt lat="39.8252090" lon="2.8159200">
        <ele>692.7</ele>
        <time>2021-06-18T10:49:47Z</time>
      </trkpt>
      <trkpt lat="39.8252170" lon="2.8161930">
        <ele>694.4</ele>
        <time>2021-06-18T10:49:54Z</time>
      </trkpt>
      <trkpt lat="39.8252250" lon="2.8164600">
        <ele>696.1</ele>
        <time>2021-06-18T10:50:01Z</time>
      </trkpt>
      <trkpt lat="39.8253550" lon="2.8167010">
        <ele>697.7</ele>
        <time>2021-06-18T10:50:08Z</time>
      </trkpt>
      <trkpt lat="39.8255570" lon="2.8169620">
        <ele>699.8</ele>
        <time>2021-06-18T10:50:17Z</time>
      </trkpt>
      <trkpt lat="39.8257570" lon="2.8171430">
        <ele>701.6</ele>
        <time>2021-06-18T10:50:25Z</time>
      </trkpt>
      <trkpt lat="39.8259820" lon="2.8172970">
        <ele>703.6</ele>
        <time>2021-06-18T10:50:33Z</time>
      </trkpt>
      <trkpt lat="39.8261140" lon="2.8173520">
        <ele>704.7</ele>
        <time>2021-06-18T10:50:38Z</time>
      </trkpt>
      <trkpt lat="39.8261420" lon="2.8173640">
        <ele>704.9</ele>
        <time>2021-06-18T10:50:39Z</time>
      </trkpt>
      <trkpt lat="39.8262020" lon="2.8173770">
        <ele>705.4</ele>
        <time>2021-06-18T10:50:41Z</time>
      </trkpt>
      <trkpt lat="39.8262320" lon="2.8173810">
        <ele>705.6</ele>
        <time>2021-06-18T10:50:42Z</time>
      </trkpt>
      <trkpt lat="39.8264180" lon="2.8173950">
        <ele>707.1</ele>
        <time>2021-06-18T10:50:48Z</time>
      </trkpt>
      <trkpt lat="39.8264800" lon="2.8173930">
        <ele>707.5</ele>
        <time>2021-06-18T10:50:50Z</time>
      </trkpt>
      <trkpt lat="39.8266020" lon="2.8174220">
        <ele>708.5</ele>
        <time>2021-06-18T10:50:54Z</time>
      </trkpt>
      <trkpt lat="39.8266890" lon="2.8174780">
        <ele>709.2</ele>
        <time>2021-06-18T10:50:57Z</time>
      </trkpt>
      <trkpt lat="39.8267680" lon="2.8175430">
        <ele>710.0</ele>
        <time>2021-06-18T10:51:00Z</time>
      </trkpt>
      <trkpt lat="39.8268150" lon="2.8176020">
        <ele>710.5</ele>
        <time>2021-06-18T10:51:02Z</time>
      </trkpt>
      <trkpt lat="39.8268360" lon="2.8176350">
        <ele>710.7</ele>
        <time>2021-06-18T10:51:03Z</time>
      </trkpt>
      <trkpt lat="39.8268900" lon="2.8177340">
        <ele>711.5</ele>
        <time>2021-06-18T10:51:06Z</time>
      </trkpt>
      <trkpt lat="39.8270220" lon="2.8179020">
        <ele>713.0</ele>
        <time>2021-06-18T10:51:12Z</time>
      </trkpt>
      <trkpt lat="39.8272470" lon="2.8180300">
        <ele>714.6</ele>
        <time>2021-06-18T10:51:20Z</time>
      </trkpt>
      <trkpt lat="39.8274620" lon="2.8180380">
        <ele>715.1</ele>
        <time>2021-06-18T10:51:28Z</time>
      </trkpt>
      <trkpt lat="39.8275460" lon="2.8180040">
        <ele>715.0</ele>
        <time>2021-06-18T10:51:31Z</time>
      </trkpt>
      <trkpt lat="39.8276690" lon="2.8179200">
        <ele>714.4</ele>
        <time>2021-06-18T10:51:35Z</time>
      </trkpt>
      <trkpt lat="39.8277670" lon="2.8178530">
        <ele>713.5</ele>
        <time>2021-06-18T10:51:38Z</time>
      </trkpt>
      <trkpt lat="39.8278700" lon="2.8178000">
        <ele>712.6</ele>
        <time>2021-06-18T10:51:41Z</time>
      </trkpt>
      <trkpt lat="39.8280390" lon="2.8176950">
        <ele>710.7</ele>
        <time>2021-06-18T10:51:46Z</time>
      </trkpt>
      <trkpt lat="39.8282020" lon="2.8175440">
        <ele>708.4</ele>
        <time>2021-06-18T10:51:50Z</time>
      </trkpt>
      <trkpt lat="39.8282890" lon="2.8174640">
        <ele>707.2</ele>
        <time>2021-06-18T10:51:52Z</time>
      </trkpt>
      <trkpt lat="39.8283920" lon="2.8173860">
        <ele>705.9</ele>
        <time>2021-06-18T10:51:54Z</time>
      </trkpt>
      <trkpt lat="39.8285930" lon="2.8172480">
        <ele>703.4</ele>
        <time>2021-06-18T10:51:58Z</time>
      </trkpt>
      <trkpt lat="39.8286680" lon="2.8172110">
        <ele>702.6</ele>
        <time>2021-06-18T10:52:00Z</time>
      </trkpt>
      <trkpt lat="39.8287230" lon="2.8171900">
        <ele>701.9</ele>
        <time>2021-06-18T10:52:02Z</time>
      </trkpt>
      <trkpt lat="39.8287650" lon="2.8171660">
        <ele>701.5</ele>
        <time>2021-06-18T10:52:06Z</time>
      </trkpt>
      <trkpt lat="39.8287650" lon="2.8171660">
        <ele>701.5</ele>
        <time>2021-06-18T10:52:17Z</time>
      </trkpt>
      <trkpt lat="39.8287650" lon="2.8171660">
        <ele>701.5</ele>
        <time>2021-06-18T10:52:38Z</time>
      </trkpt>
      <trkpt lat="39.8287630" lon="2.8171660">
        <ele>701.5</ele>
        <time>2021-06-18T10:52:52Z</time>
      </trkpt>
      <trkpt lat="39.8287080" lon="2.8171910">
        <ele>702.2</ele>
        <time>2021-06-18T10:52:57Z</time>
      </trkpt>
      <trkpt lat="39.8286790" lon="2.8172010">
        <ele>702.5</ele>
        <time>2021-06-18T10:52:59Z</time>
      </trkpt>
      <trkpt lat="39.8286050" lon="2.8172260">
        <ele>703.3</ele>
        <time>2021-06-18T10:53:05Z</time>
      </trkpt>
      <trkpt lat="39.8285770" lon="2.8172400">
        <ele>703.6</ele>
        <time>2021-06-18T10:53:08Z</time>
      </trkpt>
      <trkpt lat="39.8284770" lon="2.8173070">
        <ele>704.8</ele>
        <time>2021-06-18T10:53:18Z</time>
      </trkpt>
      <trkpt lat="39.8284260" lon="2.8173700">
        <ele>705.6</ele>
        <time>2021-06-18T10:53:23Z</time>
      </trkpt>
      <trkpt lat="39.8284080" lon="2.8173850">
        <ele>705.8</ele>
        <time>2021-06-18T10:53:25Z</time>
      </trkpt>
      <trkpt lat="39.8283510" lon="2.8174280">
        <ele>706.5</ele>
        <time>2021-06-18T10:53:30Z</time>
      </trkpt>
      <trkpt lat="39.8283420" lon="2.8174360">
        <ele>706.6</ele>
        <time>2021-06-18T10:53:31Z</time>
      </trkpt>
      <trkpt lat="39.8283310" lon="2.8174430">
        <ele>706.8</ele>
        <time>2021-06-18T10:53:32Z</time>
      </trkpt>
      <trkpt lat="39.8282580" lon="2.8174940">
        <ele>707.7</ele>
        <time>2021-06-18T10:53:39Z</time>
      </trkpt>
      <trkpt lat="39.8282040" lon="2.8175280">
        <ele>708.3</ele>
        <time>2021-06-18T10:53:44Z</time>
      </trkpt>
      <trkpt lat="39.8281490" lon="2.8175910">
        <ele>709.1</ele>
        <time>2021-06-18T10:53:50Z</time>
      </trkpt>
      <trkpt lat="39.8281430" lon="2.8176010">
        <ele>709.3</ele>
        <time>2021-06-18T10:53:51Z</time>
      </trkpt>
      <trkpt lat="39.8281030" lon="2.8176520">
        <ele>709.9</ele>
        <time>2021-06-18T10:53:56Z</time>
      </trkpt>
      <trkpt lat="39.8280860" lon="2.8176820">
        <ele>710.2</ele>
        <time>2021-06-18T10:53:59Z</time>
      </trkpt>
      <trkpt lat="39.8280560" lon="2.8177050">
        <ele>710.5</ele>
        <time>2021-06-18T10:54:02Z</time>
      </trkpt>
      <trkpt lat="39.8280470" lon="2.8177180">
        <ele>710.6</ele>
        <time>2021-06-18T10:54:03Z</time>
      </trkpt>
      <trkpt lat="39.8280210" lon="2.8177460">
        <ele>711.0</ele>
        <time>2021-06-18T10:54:07Z</time>
      </trkpt>
      <trkpt lat="39.8279960" lon="2.8177550">
        <ele>711.3</ele>
        <time>2021-06-18T10:54:09Z</time>
      </trkpt>
      <trkpt lat="39.8279170" lon="2.8178110">
        <ele>712.1</ele>
        <time>2021-06-18T10:54:16Z</time>
      </trkpt>
      <trkpt lat="39.8278890" lon="2.8178290">
        <ele>712.4</ele>
        <time>2021-06-18T10:54:19Z</time>
      </trkpt>
      <trkpt lat="39.8278560" lon="2.8178430">
        <ele>712.7</ele>
        <time>2021-06-18T10:54:22Z</time>
      </trkpt>
      <trkpt lat="39.8277830" lon="2.8178580">
        <ele>713.3</ele>
        <time>2021-06-18T10:54:28Z</time>
      </trkpt>
      <trkpt lat="39.8277410" lon="2.8178750">
        <ele>713.7</ele>
        <time>2021-06-18T10:54:32Z</time>
      </trkpt>
      <trkpt lat="39.8277300" lon="2.8178830">
        <ele>713.7</ele>
        <time>2021-06-18T10:54:33Z</time>
      </trkpt>
      <trkpt lat="39.8277130" lon="2.8178990">
        <ele>713.9</ele>
        <time>2021-06-18T10:54:35Z</time>
      </trkpt>
      <trkpt lat="39.8277070" lon="2.8179160">
        <ele>714.0</ele>
        <time>2021-06-18T10:54:37Z</time>
      </trkpt>
      <trkpt lat="39.8276730" lon="2.8179400">
        <ele>714.3</ele>
        <time>2021-06-18T10:54:40Z</time>
      </trkpt>
      <trkpt lat="39.8276530" lon="2.8179670">
        <ele>714.4</ele>
        <time>2021-06-18T10:54:42Z</time>
      </trkpt>
      <trkpt lat="39.8276420" lon="2.8179700">
        <ele>714.5</ele>
        <time>2021-06-18T10:54:43Z</time>
      </trkpt>
      <trkpt lat="39.8275790" lon="2.8179820">
        <ele>714.8</ele>
        <time>2021-06-18T10:54:48Z</time>
      </trkpt>
      <trkpt lat="39.8275390" lon="2.8179910">
        <ele>714.9</ele>
        <time>2021-06-18T10:54:51Z</time>
      </trkpt>
      <trkpt lat="39.8275160" lon="2.8180130">
        <ele>715.0</ele>
        <time>2021-06-18T10:54:53Z</time>
      </trkpt>
      <trkpt lat="39.8275090" lon="2.8180280">
        <ele>715.0</ele>
        <time>2021-06-18T10:54:54Z</time>
      </trkpt>
      <trkpt lat="39.8275020" lon="2.8180300">
        <ele>715.1</ele>
        <time>2021-06-18T10:54:57Z</time>
      </trkpt>
      <trkpt lat="39.8274790" lon="2.8180380">
        <ele>715.1</ele>
        <time>2021-06-18T10:54:59Z</time>
      </trkpt>
      <trkpt lat="39.8274520" lon="2.8180540">
        <ele>715.1</ele>
        <time>2021-06-18T10:55:01Z</time>
      </trkpt>
      <trkpt lat="39.8273900" lon="2.8180720">
        <ele>715.1</ele>
        <time>2021-06-18T10:55:07Z</time>
      </trkpt>
      <trkpt lat="39.8273530" lon="2.8180630">
        <ele>715.0</ele>
        <time>2021-06-18T10:55:12Z</time>
      </trkpt>
      <trkpt lat="39.8273050" lon="2.8180640">
        <ele>714.9</ele>
        <time>2021-06-18T10:55:15Z</time>
      </trkpt>
      <trkpt lat="39.8272880" lon="2.8180620">
        <ele>714.8</ele>
        <time>2021-06-18T10:55:18Z</time>
      </trkpt>
      <trkpt lat="39.8272880" lon="2.8180620">
        <ele>714.8</ele>
        <time>2021-06-18T10:55:21Z</time>
      </trkpt>
      <trkpt lat="39.8272880" lon="2.8180620">
        <ele>714.8</ele>
        <time>2021-06-18T10:55:23Z</time>
      </trkpt>
      <trkpt lat="39.8272880" lon="2.8180620">
        <ele>714.8</ele>
        <time>2021-06-18T10:55:25Z</time>
      </trkpt>
      <trkpt lat="39.8272880" lon="2.8180620">
        <ele>714.8</ele>
        <time>2021-06-18T10:55:27Z</time>
      </trkpt>
      <trkpt lat="39.8272880" lon="2.8180620">
        <ele>714.8</ele>
        <time>2021-06-18T10:55:30Z</time>
      </trkpt>
      <trkpt lat="39.8272880" lon="2.8180630">
        <ele>714.8</ele>
        <time>2021-06-18T10:55:47Z</time>
      </trkpt>
      <trkpt lat="39.8272900" lon="2.8180630">
        <ele>714.9</ele>
        <time>2021-06-18T10:55:52Z</time>
      </trkpt>
      <trkpt lat="39.8273090" lon="2.8180690">
        <ele>714.9</ele>
        <time>2021-06-18T10:55:54Z</time>
      </trkpt>
      <trkpt lat="39.8273330" lon="2.8180720">
        <ele>715.0</ele>
        <time>2021-06-18T10:55:56Z</time>
      </trkpt>
      <trkpt lat="39.8273420" lon="2.8180730">
        <ele>715.0</ele>
        <time>2021-06-18T10:56:01Z</time>
      </trkpt>
      <trkpt lat="39.8273610" lon="2.8180630">
        <ele>715.0</ele>
        <time>2021-06-18T10:56:02Z</time>
      </trkpt>
      <trkpt lat="39.8275150" lon="2.8180170">
        <ele>715.0</ele>
        <time>2021-06-18T10:56:07Z</time>
      </trkpt>
      <trkpt lat="39.8276850" lon="2.8179100">
        <ele>714.2</ele>
        <time>2021-06-18T10:56:12Z</time>
      </trkpt>
      <trkpt lat="39.8279360" lon="2.8177330">
        <ele>711.8</ele>
        <time>2021-06-18T10:56:18Z</time>
      </trkpt>
      <trkpt lat="39.8281140" lon="2.8176060">
        <ele>709.6</ele>
        <time>2021-06-18T10:56:22Z</time>
      </trkpt>
      <trkpt lat="39.8282120" lon="2.8175170">
        <ele>708.2</ele>
        <time>2021-06-18T10:56:24Z</time>
      </trkpt>
      <trkpt lat="39.8284890" lon="2.8173050">
        <ele>704.7</ele>
        <time>2021-06-18T10:56:29Z</time>
      </trkpt>
      <trkpt lat="39.8285480" lon="2.8172650">
        <ele>704.0</ele>
        <time>2021-06-18T10:56:30Z</time>
      </trkpt>
      <trkpt lat="39.8286070" lon="2.8172320">
        <ele>703.3</ele>
        <time>2021-06-18T10:56:31Z</time>
      </trkpt>
      <trkpt lat="39.8287400" lon="2.8172060">
        <ele>701.9</ele>
        <time>2021-06-18T10:56:33Z</time>
      </trkpt>
      <trkpt lat="39.8288110" lon="2.8172080">
        <ele>701.1</ele>
        <time>2021-06-18T10:56:34Z</time>
      </trkpt>
      <trkpt lat="39.8291960" lon="2.8172080">
        <ele>696.9</ele>
        <time>2021-06-18T10:56:39Z</time>
      </trkpt>
      <trkpt lat="39.8295870" lon="2.8171020">
        <ele>692.7</ele>
        <time>2021-06-18T10:56:44Z</time>
      </trkpt>
      <trkpt lat="39.8299100" lon="2.8169440">
        <ele>689.0</ele>
        <time>2021-06-18T10:56:48Z</time>
      </trkpt>
      <trkpt lat="39.8301580" lon="2.8168270">
        <ele>685.9</ele>
        <time>2021-06-18T10:56:51Z</time>
      </trkpt>
      <trkpt lat="39.8306750" lon="2.8166630">
        <ele>679.7</ele>
        <time>2021-06-18T10:56:57Z</time>
      </trkpt>
      <trkpt lat="39.8312550" lon="2.8165070">
        <ele>672.8</ele>
        <time>2021-06-18T10:57:04Z</time>
      </trkpt>
      <trkpt lat="39.8315790" lon="2.8164120">
        <ele>669.3</ele>
        <time>2021-06-18T10:57:09Z</time>
      </trkpt>
      <trkpt lat="39.8317550" lon="2.8163250">
        <ele>667.4</ele>
        <time>2021-06-18T10:57:12Z</time>
      </trkpt>
      <trkpt lat="39.8318080" lon="2.8162760">
        <ele>666.8</ele>
        <time>2021-06-18T10:57:13Z</time>
      </trkpt>
      <trkpt lat="39.8320400" lon="2.8160060">
        <ele>665.0</ele>
        <time>2021-06-18T10:57:18Z</time>
      </trkpt>
      <trkpt lat="39.8321070" lon="2.8159140">
        <ele>664.9</ele>
        <time>2021-06-18T10:57:20Z</time>
      </trkpt>
      <trkpt lat="39.8321690" lon="2.8158010">
        <ele>664.5</ele>
        <time>2021-06-18T10:57:23Z</time>
      </trkpt>
      <trkpt lat="39.8322690" lon="2.8157240">
        <ele>664.2</ele>
        <time>2021-06-18T10:57:27Z</time>
      </trkpt>
      <trkpt lat="39.8323710" lon="2.8157110">
        <ele>663.8</ele>
        <time>2021-06-18T10:57:31Z</time>
      </trkpt>
      <trkpt lat="39.8323920" lon="2.8157040">
        <ele>663.7</ele>
        <time>2021-06-18T10:57:35Z</time>
      </trkpt>
      <trkpt lat="39.8323920" lon="2.8157040">
        <ele>663.7</ele>
        <time>2021-06-18T10:57:40Z</time>
      </trkpt>
      <trkpt lat="39.8323950" lon="2.8157090">
        <ele>663.7</ele>
        <time>2021-06-18T10:57:44Z</time>
      </trkpt>
      <trkpt lat="39.8323950" lon="2.8157090">
        <ele>663.7</ele>
        <time>2021-06-18T10:57:45Z</time>
      </trkpt>
      <trkpt lat="39.8323950" lon="2.8157090">
        <ele>663.7</ele>
        <time>2021-06-18T10:57:48Z</time>
      </trkpt>
      <trkpt lat="39.8323950" lon="2.8157090">
        <ele>663.7</ele>
        <time>2021-06-18T10:58:04Z</time>
      </trkpt>
      <trkpt lat="39.8324030" lon="2.8156780">
        <ele>663.6</ele>
        <time>2021-06-18T10:58:13Z</time>
      </trkpt>
      <trkpt lat="39.8324070" lon="2.8155930">
        <ele>663.4</ele>
        <time>2021-06-18T10:58:19Z</time>
      </trkpt>
      <trkpt lat="39.8324060" lon="2.8155770">
        <ele>663.3</ele>
        <time>2021-06-18T10:58:21Z</time>
      </trkpt>
      <trkpt lat="39.8324110" lon="2.8155410">
        <ele>663.2</ele>
        <time>2021-06-18T10:58:26Z</time>
      </trkpt>
      <trkpt lat="39.8324030" lon="2.8154980">
        <ele>663.1</ele>
        <time>2021-06-18T10:58:33Z</time>
      </trkpt>
      <trkpt lat="39.8323850" lon="2.8154650">
        <ele>663.0</ele>
        <time>2021-06-18T10:58:40Z</time>
      </trkpt>
      <trkpt lat="39.8323850" lon="2.8154650">
        <ele>663.0</ele>
        <time>2021-06-18T10:58:41Z</time>
      </trkpt>
      <trkpt lat="39.8323680" lon="2.8154690">
        <ele>662.9</ele>
        <time>2021-06-18T10:58:48Z</time>
      </trkpt>
      <trkpt lat="39.8323650" lon="2.8154670">
        <ele>662.9</ele>
        <time>2021-06-18T10:58:56Z</time>
      </trkpt>
      <trkpt lat="39.8323710" lon="2.8154690">
        <ele>662.9</ele>
        <time>2021-06-18T10:59:11Z</time>
      </trkpt>
      <trkpt lat="39.8323710" lon="2.8154690">
        <ele>662.9</ele>
        <time>2021-06-18T10:59:24Z</time>
      </trkpt>
      <trkpt lat="39.8323710" lon="2.8154690">
        <ele>662.9</ele>
        <time>2021-06-18T10:59:26Z</time>
      </trkpt>
      <trkpt lat="39.8323710" lon="2.8154690">
        <ele>662.9</ele>
        <time>2021-06-18T10:59:28Z</time>
      </trkpt>
      <trkpt lat="39.8323710" lon="2.8154690">
        <ele>662.9</ele>
        <time>2021-06-18T10:59:31Z</time>
      </trkpt>
      <trkpt lat="39.8323710" lon="2.8154690">
        <ele>662.9</ele>
        <time>2021-06-18T10:59:42Z</time>
      </trkpt>
      <trkpt lat="39.8323710" lon="2.8154690">
        <ele>662.9</ele>
        <time>2021-06-18T10:59:47Z</time>
      </trkpt>
      <trkpt lat="39.8323710" lon="2.8154690">
        <ele>662.9</ele>
        <time>2021-06-18T10:59:49Z</time>
      </trkpt>
      <trkpt lat="39.8323710" lon="2.8154690">
        <ele>662.9</ele>
        <time>2021-06-18T10:59:53Z</time>
      </trkpt>
      <trkpt lat="39.8323710" lon="2.8154690">
        <ele>662.9</ele>
        <time>2021-06-18T11:00:03Z</time>
      </trkpt>
      <trkpt lat="39.8323710" lon="2.8154690">
        <ele>662.9</ele>
        <time>2021-06-18T11:00:12Z</time>
      </trkpt>
      <trkpt lat="39.8323710" lon="2.8154690">
        <ele>662.9</ele>
        <time>2021-06-18T11:00:14Z</time>
      </trkpt>
      <trkpt lat="39.8323700" lon="2.8154690">
        <ele>662.9</ele>
        <time>2021-06-18T11:00:16Z</time>
      </trkpt>
      <trkpt lat="39.8323660" lon="2.8154710">
        <ele>662.9</ele>
        <time>2021-06-18T11:00:21Z</time>
      </trkpt>
      <trkpt lat="39.8323660" lon="2.8154710">
        <ele>662.9</ele>
        <time>2021-06-18T11:00:25Z</time>
      </trkpt>
      <trkpt lat="39.8323660" lon="2.8154690">
        <ele>662.9</ele>
        <time>2021-06-18T11:00:29Z</time>
      </trkpt>
      <trkpt lat="39.8323620" lon="2.8154690">
        <ele>662.8</ele>
        <time>2021-06-18T11:00:31Z</time>
      </trkpt>
      <trkpt lat="39.8323600" lon="2.8154670">
        <ele>662.8</ele>
        <time>2021-06-18T11:00:40Z</time>
      </trkpt>
      <trkpt lat="39.8323600" lon="2.8154670">
        <ele>662.8</ele>
        <time>2021-06-18T11:00:46Z</time>
      </trkpt>
      <trkpt lat="39.8323600" lon="2.8154670">
        <ele>662.8</ele>
        <time>2021-06-18T11:00:58Z</time>
      </trkpt>
      <trkpt lat="39.8323600" lon="2.8154670">
        <ele>662.8</ele>
        <time>2021-06-18T11:01:03Z</time>
      </trkpt>
      <trkpt lat="39.8323600" lon="2.8154670">
        <ele>662.8</ele>
        <time>2021-06-18T11:01:16Z</time>
      </trkpt>
      <trkpt lat="39.8323600" lon="2.8154670">
        <ele>662.8</ele>
        <time>2021-06-18T11:01:29Z</time>
      </trkpt>
      <trkpt lat="39.8323600" lon="2.8154670">
        <ele>662.8</ele>
        <time>2021-06-18T11:01:39Z</time>
      </trkpt>
      <trkpt lat="39.8323600" lon="2.8154670">
        <ele>662.8</ele>
        <time>2021-06-18T11:01:42Z</time>
      </trkpt>
      <trkpt lat="39.8323570" lon="2.8154690">
        <ele>662.8</ele>
        <time>2021-06-18T11:01:58Z</time>
      </trkpt>
      <trkpt lat="39.8323570" lon="2.8154700">
        <ele>662.8</ele>
        <time>2021-06-18T11:02:16Z</time>
      </trkpt>
      <trkpt lat="39.8323690" lon="2.8154780">
        <ele>662.8</ele>
        <time>2021-06-18T11:02:17Z</time>
      </trkpt>
      <trkpt lat="39.8323720" lon="2.8154820">
        <ele>662.8</ele>
        <time>2021-06-18T11:02:19Z</time>
      </trkpt>
      <trkpt lat="39.8323740" lon="2.8154830">
        <ele>662.7</ele>
        <time>2021-06-18T11:02:20Z</time>
      </trkpt>
      <trkpt lat="39.8323750" lon="2.8155110">
        <ele>662.7</ele>
        <time>2021-06-18T11:02:23Z</time>
      </trkpt>
      <trkpt lat="39.8323800" lon="2.8155340">
        <ele>662.6</ele>
        <time>2021-06-18T11:02:29Z</time>
      </trkpt>
      <trkpt lat="39.8323800" lon="2.8155340">
        <ele>662.6</ele>
        <time>2021-06-18T11:02:32Z</time>
      </trkpt>
      <trkpt lat="39.8323970" lon="2.8155560">
        <ele>662.5</ele>
        <time>2021-06-18T11:02:37Z</time>
      </trkpt>
      <trkpt lat="39.8323970" lon="2.8155560">
        <ele>662.5</ele>
        <time>2021-06-18T11:02:39Z</time>
      </trkpt>
      <trkpt lat="39.8323970" lon="2.8155560">
        <ele>662.5</ele>
        <time>2021-06-18T11:02:41Z</time>
      </trkpt>
      <trkpt lat="39.8323970" lon="2.8155560">
        <ele>662.5</ele>
        <time>2021-06-18T11:02:43Z</time>
      </trkpt>
      <trkpt lat="39.8324090" lon="2.8155950">
        <ele>662.4</ele>
        <time>2021-06-18T11:02:48Z</time>
      </trkpt>
      <trkpt lat="39.8324100" lon="2.8156290">
        <ele>662.4</ele>
        <time>2021-06-18T11:02:51Z</time>
      </trkpt>
      <trkpt lat="39.8324140" lon="2.8156430">
        <ele>662.5</ele>
        <time>2021-06-18T11:02:53Z</time>
      </trkpt>
      <trkpt lat="39.8324250" lon="2.8156650">
        <ele>662.6</ele>
        <time>2021-06-18T11:02:58Z</time>
      </trkpt>
      <trkpt lat="39.8324260" lon="2.8156720">
        <ele>662.6</ele>
        <time>2021-06-18T11:03:15Z</time>
      </trkpt>
      <trkpt lat="39.8324260" lon="2.8156720">
        <ele>662.6</ele>
        <time>2021-06-18T11:03:18Z</time>
      </trkpt>
      <trkpt lat="39.8324260" lon="2.8156720">
        <ele>662.6</ele>
        <time>2021-06-18T11:03:22Z</time>
      </trkpt>
      <trkpt lat="39.8324260" lon="2.8156720">
        <ele>662.6</ele>
        <time>2021-06-18T11:03:50Z</time>
      </trkpt>
      <trkpt lat="39.8324230" lon="2.8156730">
        <ele>662.7</ele>
        <time>2021-06-18T11:03:56Z</time>
      </trkpt>
      <trkpt lat="39.8324230" lon="2.8156740">
        <ele>662.7</ele>
        <time>2021-06-18T11:04:02Z</time>
      </trkpt>
      <trkpt lat="39.8324220" lon="2.8156740">
        <ele>662.7</ele>
        <time>2021-06-18T11:04:05Z</time>
      </trkpt>
      <trkpt lat="39.8324120" lon="2.8156720">
        <ele>662.7</ele>
        <time>2021-06-18T11:04:11Z</time>
      </trkpt>
      <trkpt lat="39.8324120" lon="2.8156720">
        <ele>662.7</ele>
        <time>2021-06-18T11:04:14Z</time>
      </trkpt>
      <trkpt lat="39.8324120" lon="2.8156720">
        <ele>662.7</ele>
        <time>2021-06-18T11:04:18Z</time>
      </trkpt>
      <trkpt lat="39.8323920" lon="2.8156730">
        <ele>662.8</ele>
        <time>2021-06-18T11:04:26Z</time>
      </trkpt>
      <trkpt lat="39.8323920" lon="2.8156730">
        <ele>662.8</ele>
        <time>2021-06-18T11:04:28Z</time>
      </trkpt>
      <trkpt lat="39.8323920" lon="2.8156730">
        <ele>662.8</ele>
        <time>2021-06-18T11:04:31Z</time>
      </trkpt>
      <trkpt lat="39.8323920" lon="2.8156730">
        <ele>662.8</ele>
        <time>2021-06-18T11:04:35Z</time>
      </trkpt>
      <trkpt lat="39.8323920" lon="2.8156730">
        <ele>662.8</ele>
        <time>2021-06-18T11:04:37Z</time>
      </trkpt>
      <trkpt lat="39.8323920" lon="2.8156730">
        <ele>662.8</ele>
        <time>2021-06-18T11:04:39Z</time>
      </trkpt>
      <trkpt lat="39.8323920" lon="2.8156730">
        <ele>662.8</ele>
        <time>2021-06-18T11:04:42Z</time>
      </trkpt>
      <trkpt lat="39.8323640" lon="2.8156810">
        <ele>663.0</ele>
        <time>2021-06-18T11:05:01Z</time>
      </trkpt>
      <trkpt lat="39.8323450" lon="2.8156820">
        <ele>663.1</ele>
        <time>2021-06-18T11:05:03Z</time>
      </trkpt>
      <trkpt lat="39.8322030" lon="2.8157030">
        <ele>664.0</ele>
        <time>2021-06-18T11:05:09Z</time>
      </trkpt>
      <trkpt lat="39.8320730" lon="2.8158520">
        <ele>664.9</ele>
        <time>2021-06-18T11:05:15Z</time>
      </trkpt>
      <trkpt lat="39.8320340" lon="2.8159040">
        <ele>665.0</ele>
        <time>2021-06-18T11:05:17Z</time>
      </trkpt>
      <trkpt lat="39.8319400" lon="2.8160350">
        <ele>665.2</ele>
        <time>2021-06-18T11:05:21Z</time>
      </trkpt>
      <trkpt lat="39.8317930" lon="2.8162290">
        <ele>666.7</ele>
        <time>2021-06-18T11:05:29Z</time>
      </trkpt>
      <trkpt lat="39.8316020" lon="2.8163620">
        <ele>668.8</ele>
        <time>2021-06-18T11:05:37Z</time>
      </trkpt>
      <trkpt lat="39.8314750" lon="2.8163930">
        <ele>670.1</ele>
        <time>2021-06-18T11:05:41Z</time>
      </trkpt>
      <trkpt lat="39.8313690" lon="2.8164230">
        <ele>671.2</ele>
        <time>2021-06-18T11:05:44Z</time>
      </trkpt>
      <trkpt lat="39.8313320" lon="2.8164390">
        <ele>671.7</ele>
        <time>2021-06-18T11:05:45Z</time>
      </trkpt>
      <trkpt lat="39.8310660" lon="2.8165300">
        <ele>674.7</ele>
        <time>2021-06-18T11:05:52Z</time>
      </trkpt>
      <trkpt lat="39.8308780" lon="2.8165900">
        <ele>677.0</ele>
        <time>2021-06-18T11:05:58Z</time>
      </trkpt>
      <trkpt lat="39.8308140" lon="2.8166150">
        <ele>677.8</ele>
        <time>2021-06-18T11:06:01Z</time>
      </trkpt>
      <trkpt lat="39.8307400" lon="2.8166340">
        <ele>678.7</ele>
        <time>2021-06-18T11:06:04Z</time>
      </trkpt>
      <trkpt lat="39.8305830" lon="2.8166720">
        <ele>680.6</ele>
        <time>2021-06-18T11:06:10Z</time>
      </trkpt>
      <trkpt lat="39.8305330" lon="2.8166850">
        <ele>681.1</ele>
        <time>2021-06-18T11:06:12Z</time>
      </trkpt>
      <trkpt lat="39.8304270" lon="2.8167140">
        <ele>682.4</ele>
        <time>2021-06-18T11:06:16Z</time>
      </trkpt>
      <trkpt lat="39.8303340" lon="2.8167460">
        <ele>683.5</ele>
        <time>2021-06-18T11:06:20Z</time>
      </trkpt>
      <trkpt lat="39.8302100" lon="2.8167830">
        <ele>685.1</ele>
        <time>2021-06-18T11:06:25Z</time>
      </trkpt>
      <trkpt lat="39.8301850" lon="2.8167930">
        <ele>685.4</ele>
        <time>2021-06-18T11:06:26Z</time>
      </trkpt>
      <trkpt lat="39.8299920" lon="2.8168830">
        <ele>687.7</ele>
        <time>2021-06-18T11:06:34Z</time>
      </trkpt>
      <trkpt lat="39.8298110" lon="2.8169730">
        <ele>690.0</ele>
        <time>2021-06-18T11:06:42Z</time>
      </trkpt>
      <trkpt lat="39.8295790" lon="2.8170670">
        <ele>692.6</ele>
        <time>2021-06-18T11:06:51Z</time>
      </trkpt>
      <trkpt lat="39.8294890" lon="2.8171180">
        <ele>693.6</ele>
        <time>2021-06-18T11:06:55Z</time>
      </trkpt>
      <trkpt lat="39.8294390" lon="2.8171270">
        <ele>694.1</ele>
        <time>2021-06-18T11:06:57Z</time>
      </trkpt>
      <trkpt lat="39.8293660" lon="2.8171520">
        <ele>694.9</ele>
        <time>2021-06-18T11:07:00Z</time>
      </trkpt>
      <trkpt lat="39.8293120" lon="2.8171550">
        <ele>695.5</ele>
        <time>2021-06-18T11:07:02Z</time>
      </trkpt>
      <trkpt lat="39.8292860" lon="2.8171630">
        <ele>695.8</ele>
        <time>2021-06-18T11:07:03Z</time>
      </trkpt>
      <trkpt lat="39.8291700" lon="2.8171900">
        <ele>697.0</ele>
        <time>2021-06-18T11:07:07Z</time>
      </trkpt>
      <trkpt lat="39.8290570" lon="2.8172000">
        <ele>698.2</ele>
        <time>2021-06-18T11:07:11Z</time>
      </trkpt>
      <trkpt lat="39.8287480" lon="2.8171810">
        <ele>701.6</ele>
        <time>2021-06-18T11:07:22Z</time>
      </trkpt>
      <trkpt lat="39.8285300" lon="2.8172600">
        <ele>704.1</ele>
        <time>2021-06-18T11:07:30Z</time>
      </trkpt>
      <trkpt lat="39.8284710" lon="2.8173060">
        <ele>704.8</ele>
        <time>2021-06-18T11:07:33Z</time>
      </trkpt>
      <trkpt lat="39.8284340" lon="2.8173520">
        <ele>705.4</ele>
        <time>2021-06-18T11:07:36Z</time>
      </trkpt>
      <trkpt lat="39.8283450" lon="2.8174500">
        <ele>706.6</ele>
        <time>2021-06-18T11:07:41Z</time>
      </trkpt>
      <trkpt lat="39.8283030" lon="2.8174890">
        <ele>707.2</ele>
        <time>2021-06-18T11:07:43Z</time>
      </trkpt>
      <trkpt lat="39.8281780" lon="2.8175320">
        <ele>708.6</ele>
        <time>2021-06-18T11:07:48Z</time>
      </trkpt>
      <trkpt lat="39.8279930" lon="2.8176690">
        <ele>711.0</ele>
        <time>2021-06-18T11:07:56Z</time>
      </trkpt>
      <trkpt lat="39.8279300" lon="2.8177290">
        <ele>711.8</ele>
        <time>2021-06-18T11:07:59Z</time>
      </trkpt>
      <trkpt lat="39.8278510" lon="2.8177820">
        <ele>712.7</ele>
        <time>2021-06-18T11:08:02Z</time>
      </trkpt>
      <trkpt lat="39.8278220" lon="2.8178020">
        <ele>713.0</ele>
        <time>2021-06-18T11:08:03Z</time>
      </trkpt>
      <trkpt lat="39.8277230" lon="2.8178700">
        <ele>713.9</ele>
        <time>2021-06-18T11:08:07Z</time>
      </trkpt>
      <trkpt lat="39.8276250" lon="2.8179300">
        <ele>714.6</ele>
        <time>2021-06-18T11:08:11Z</time>
      </trkpt>
      <trkpt lat="39.8274230" lon="2.8180070">
        <ele>715.1</ele>
        <time>2021-06-18T11:08:20Z</time>
      </trkpt>
      <trkpt lat="39.8273850" lon="2.8180140">
        <ele>715.1</ele>
        <time>2021-06-18T11:08:22Z</time>
      </trkpt>
      <trkpt lat="39.8273530" lon="2.8180270">
        <ele>715.0</ele>
        <time>2021-06-18T11:08:24Z</time>
      </trkpt>
      <trkpt lat="39.8273230" lon="2.8180380">
        <ele>714.9</ele>
        <time>2021-06-18T11:08:26Z</time>
      </trkpt>
      <trkpt lat="39.8272890" lon="2.8180420">
        <ele>714.8</ele>
        <time>2021-06-18T11:08:28Z</time>
      </trkpt>
      <trkpt lat="39.8272590" lon="2.8180440">
        <ele>714.7</ele>
        <time>2021-06-18T11:08:33Z</time>
      </trkpt>
      <trkpt lat="39.8272590" lon="2.8180440">
        <ele>714.7</ele>
        <time>2021-06-18T11:08:39Z</time>
      </trkpt>
      <trkpt lat="39.8272710" lon="2.8180480">
        <ele>714.6</ele>
        <time>2021-06-18T11:08:44Z</time>
      </trkpt>
      <trkpt lat="39.8272710" lon="2.8180480">
        <ele>714.6</ele>
        <time>2021-06-18T11:08:48Z</time>
      </trkpt>
      <trkpt lat="39.8272710" lon="2.8180480">
        <ele>714.6</ele>
        <time>2021-06-18T11:08:50Z</time>
      </trkpt>
      <trkpt lat="39.8272710" lon="2.8180480">
        <ele>714.6</ele>
        <time>2021-06-18T11:08:52Z</time>
      </trkpt>
      <trkpt lat="39.8272710" lon="2.8180480">
        <ele>714.6</ele>
        <time>2021-06-18T11:08:59Z</time>
      </trkpt>
      <trkpt lat="39.8272710" lon="2.8180480">
        <ele>714.6</ele>
        <time>2021-06-18T11:09:01Z</time>
      </trkpt>
      <trkpt lat="39.8272710" lon="2.8180480">
        <ele>714.6</ele>
        <time>2021-06-18T11:09:03Z</time>
      </trkpt>
      <trkpt lat="39.8272710" lon="2.8180480">
        <ele>714.6</ele>
        <time>2021-06-18T11:09:04Z</time>
      </trkpt>
      <trkpt lat="39.8272710" lon="2.8180480">
        <ele>714.6</ele>
        <time>2021-06-18T11:09:07Z</time>
      </trkpt>
      <trkpt lat="39.8272710" lon="2.8180480">
        <ele>714.6</ele>
        <time>2021-06-18T11:09:11Z</time>
      </trkpt>
      <trkpt lat="39.8272710" lon="2.8180480">
        <ele>714.6</ele>
        <time>2021-06-18T11:09:16Z</time>
      </trkpt>
      <trkpt lat="39.8272710" lon="2.8180480">
        <ele>714.6</ele>
        <time>2021-06-18T11:09:20Z</time>
      </trkpt>
      <trkpt lat="39.8272710" lon="2.8180480">
        <ele>714.6</ele>
        <time>2021-06-18T11:09:23Z</time>
      </trkpt>
      <trkpt lat="39.8272710" lon="2.8180480">
        <ele>714.6</ele>
        <time>2021-06-18T11:09:26Z</time>
      </trkpt>
      <trkpt lat="39.8272710" lon="2.8180480">
        <ele>714.6</ele>
        <time>2021-06-18T11:09:33Z</time>
      </trkpt>
      <trkpt lat="39.8272810" lon="2.8180510">
        <ele>714.6</ele>
        <time>2021-06-18T11:10:15Z</time>
      </trkpt>
      <trkpt lat="39.8272810" lon="2.8180510">
        <ele>714.6</ele>
        <time>2021-06-18T11:10:19Z</time>
      </trkpt>
      <trkpt lat="39.8272560" lon="2.8180460">
        <ele>714.5</ele>
        <time>2021-06-18T11:10:34Z</time>
      </trkpt>
      <trkpt lat="39.8272290" lon="2.8180250">
        <ele>714.3</ele>
        <time>2021-06-18T11:10:36Z</time>
      </trkpt>
      <trkpt lat="39.8271580" lon="2.8179960">
        <ele>713.9</ele>
        <time>2021-06-18T11:10:40Z</time>
      </trkpt>
      <trkpt lat="39.8270930" lon="2.8179400">
        <ele>713.3</ele>
        <time>2021-06-18T11:10:43Z</time>
      </trkpt>
      <trkpt lat="39.8269630" lon="2.8177850">
        <ele>711.9</ele>
        <time>2021-06-18T11:10:47Z</time>
      </trkpt>
      <trkpt lat="39.8268750" lon="2.8176450">
        <ele>710.8</ele>
        <time>2021-06-18T11:10:50Z</time>
      </trkpt>
      <trkpt lat="39.8267710" lon="2.8175070">
        <ele>709.6</ele>
        <time>2021-06-18T11:10:53Z</time>
      </trkpt>
      <trkpt lat="39.8267240" lon="2.8174680">
        <ele>709.2</ele>
        <time>2021-06-18T11:10:54Z</time>
      </trkpt>
      <trkpt lat="39.8266690" lon="2.8174330">
        <ele>708.7</ele>
        <time>2021-06-18T11:10:55Z</time>
      </trkpt>
      <trkpt lat="39.8265370" lon="2.8173750">
        <ele>707.7</ele>
        <time>2021-06-18T11:10:57Z</time>
      </trkpt>
      <trkpt lat="39.8264630" lon="2.8173590">
        <ele>707.1</ele>
        <time>2021-06-18T11:10:58Z</time>
      </trkpt>
      <trkpt lat="39.8261550" lon="2.8173280">
        <ele>704.7</ele>
        <time>2021-06-18T11:11:02Z</time>
      </trkpt>
      <trkpt lat="39.8260720" lon="2.8172990">
        <ele>704.0</ele>
        <time>2021-06-18T11:11:03Z</time>
      </trkpt>
      <trkpt lat="39.8259890" lon="2.8172540">
        <ele>703.3</ele>
        <time>2021-06-18T11:11:04Z</time>
      </trkpt>
      <trkpt lat="39.8257510" lon="2.8170890">
        <ele>701.2</ele>
        <time>2021-06-18T11:11:07Z</time>
      </trkpt>
      <trkpt lat="39.8256760" lon="2.8170220">
        <ele>700.5</ele>
        <time>2021-06-18T11:11:08Z</time>
      </trkpt>
      <trkpt lat="39.8254600" lon="2.8167690">
        <ele>698.4</ele>
        <time>2021-06-18T11:11:11Z</time>
      </trkpt>
      <trkpt lat="39.8253210" lon="2.8165810">
        <ele>697.0</ele>
        <time>2021-06-18T11:11:13Z</time>
      </trkpt>
      <trkpt lat="39.8252260" lon="2.8163770">
        <ele>695.6</ele>
        <time>2021-06-18T11:11:15Z</time>
      </trkpt>
      <trkpt lat="39.8252120" lon="2.8161500">
        <ele>694.1</ele>
        <time>2021-06-18T11:11:17Z</time>
      </trkpt>
      <trkpt lat="39.8252090" lon="2.8160370">
        <ele>693.4</ele>
        <time>2021-06-18T11:11:18Z</time>
      </trkpt>
      <trkpt lat="39.8251800" lon="2.8158310">
        <ele>692.2</ele>
        <time>2021-06-18T11:11:20Z</time>
      </trkpt>
      <trkpt lat="39.8251390" lon="2.8157410">
        <ele>691.6</ele>
        <time>2021-06-18T11:11:21Z</time>
      </trkpt>
      <trkpt lat="39.8250840" lon="2.8156640">
        <ele>691.0</ele>
        <time>2021-06-18T11:11:22Z</time>
      </trkpt>
      <trkpt lat="39.8249810" lon="2.8155020">
        <ele>689.9</ele>
        <time>2021-06-18T11:11:24Z</time>
      </trkpt>
      <trkpt lat="39.8249430" lon="2.8152820">
        <ele>688.7</ele>
        <time>2021-06-18T11:11:26Z</time>
      </trkpt>
      <trkpt lat="39.8249570" lon="2.8151730">
        <ele>688.0</ele>
        <time>2021-06-18T11:11:27Z</time>
      </trkpt>
      <trkpt lat="39.8249930" lon="2.8149660">
        <ele>686.7</ele>
        <time>2021-06-18T11:11:29Z</time>
      </trkpt>
      <trkpt lat="39.8249950" lon="2.8147890">
        <ele>685.7</ele>
        <time>2021-06-18T11:11:31Z</time>
      </trkpt>
      <trkpt lat="39.8249310" lon="2.8146730">
        <ele>684.8</ele>
        <time>2021-06-18T11:11:33Z</time>
      </trkpt>
      <trkpt lat="39.8248100" lon="2.8146860">
        <ele>683.9</ele>
        <time>2021-06-18T11:11:35Z</time>
      </trkpt>
      <trkpt lat="39.8246810" lon="2.8147750">
        <ele>682.7</ele>
        <time>2021-06-18T11:11:37Z</time>
      </trkpt>
      <trkpt lat="39.8245500" lon="2.8148980">
        <ele>681.5</ele>
        <time>2021-06-18T11:11:39Z</time>
      </trkpt>
      <trkpt lat="39.8243300" lon="2.8150860">
        <ele>679.4</ele>
        <time>2021-06-18T11:11:42Z</time>
      </trkpt>
      <trkpt lat="39.8241990" lon="2.8152230">
        <ele>678.2</ele>
        <time>2021-06-18T11:11:44Z</time>
      </trkpt>
      <trkpt lat="39.8241360" lon="2.8152990">
        <ele>677.6</ele>
        <time>2021-06-18T11:11:45Z</time>
      </trkpt>
      <trkpt lat="39.8240230" lon="2.8154580">
        <ele>676.3</ele>
        <time>2021-06-18T11:11:47Z</time>
      </trkpt>
      <trkpt lat="39.8239640" lon="2.8155330">
        <ele>675.6</ele>
        <time>2021-06-18T11:11:48Z</time>
      </trkpt>
      <trkpt lat="39.8238950" lon="2.8156010">
        <ele>674.9</ele>
        <time>2021-06-18T11:11:49Z</time>
      </trkpt>
      <trkpt lat="39.8235580" lon="2.8158020">
        <ele>672.0</ele>
        <time>2021-06-18T11:11:53Z</time>
      </trkpt>
      <trkpt lat="39.8232100" lon="2.8158680">
        <ele>669.3</ele>
        <time>2021-06-18T11:11:57Z</time>
      </trkpt>
      <trkpt lat="39.8230570" lon="2.8157940">
        <ele>667.9</ele>
        <time>2021-06-18T11:11:59Z</time>
      </trkpt>
      <trkpt lat="39.8229800" lon="2.8157330">
        <ele>667.1</ele>
        <time>2021-06-18T11:12:00Z</time>
      </trkpt>
      <trkpt lat="39.8226620" lon="2.8154380">
        <ele>664.0</ele>
        <time>2021-06-18T11:12:04Z</time>
      </trkpt>
      <trkpt lat="39.8224560" lon="2.8151800">
        <ele>662.0</ele>
        <time>2021-06-18T11:12:07Z</time>
      </trkpt>
      <trkpt lat="39.8223580" lon="2.8149720">
        <ele>660.6</ele>
        <time>2021-06-18T11:12:09Z</time>
      </trkpt>
      <trkpt lat="39.8223080" lon="2.8147430">
        <ele>659.0</ele>
        <time>2021-06-18T11:12:11Z</time>
      </trkpt>
      <trkpt lat="39.8222710" lon="2.8146510">
        <ele>658.4</ele>
        <time>2021-06-18T11:12:12Z</time>
      </trkpt>
      <trkpt lat="39.8222140" lon="2.8145720">
        <ele>658.0</ele>
        <time>2021-06-18T11:12:13Z</time>
      </trkpt>
      <trkpt lat="39.8221340" lon="2.8145200">
        <ele>657.5</ele>
        <time>2021-06-18T11:12:14Z</time>
      </trkpt>
      <trkpt lat="39.8220420" lon="2.8145090">
        <ele>657.1</ele>
        <time>2021-06-18T11:12:15Z</time>
      </trkpt>
      <trkpt lat="39.8218490" lon="2.8145260">
        <ele>656.3</ele>
        <time>2021-06-18T11:12:17Z</time>
      </trkpt>
      <trkpt lat="39.8216630" lon="2.8144760">
        <ele>654.7</ele>
        <time>2021-06-18T11:12:19Z</time>
      </trkpt>
      <trkpt lat="39.8215720" lon="2.8144320">
        <ele>653.6</ele>
        <time>2021-06-18T11:12:20Z</time>
      </trkpt>
      <trkpt lat="39.8214810" lon="2.8143970">
        <ele>652.8</ele>
        <time>2021-06-18T11:12:21Z</time>
      </trkpt>
      <trkpt lat="39.8212860" lon="2.8143670">
        <ele>650.9</ele>
        <time>2021-06-18T11:12:23Z</time>
      </trkpt>
      <trkpt lat="39.8208570" lon="2.8142960">
        <ele>647.3</ele>
        <time>2021-06-18T11:12:27Z</time>
      </trkpt>
      <trkpt lat="39.8206780" lon="2.8142510">
        <ele>646.0</ele>
        <time>2021-06-18T11:12:29Z</time>
      </trkpt>
      <trkpt lat="39.8205960" lon="2.8142580">
        <ele>645.5</ele>
        <time>2021-06-18T11:12:30Z</time>
      </trkpt>
      <trkpt lat="39.8205370" lon="2.8142920">
        <ele>645.1</ele>
        <time>2021-06-18T11:12:31Z</time>
      </trkpt>
      <trkpt lat="39.8205070" lon="2.8143410">
        <ele>644.8</ele>
        <time>2021-06-18T11:12:32Z</time>
      </trkpt>
      <trkpt lat="39.8204860" lon="2.8144280">
        <ele>644.4</ele>
        <time>2021-06-18T11:12:33Z</time>
      </trkpt>
      <trkpt lat="39.8205230" lon="2.8145100">
        <ele>644.1</ele>
        <time>2021-06-18T11:12:34Z</time>
      </trkpt>
      <trkpt lat="39.8206530" lon="2.8146030">
        <ele>643.7</ele>
        <time>2021-06-18T11:12:36Z</time>
      </trkpt>
      <trkpt lat="39.8208420" lon="2.8146100">
        <ele>643.4</ele>
        <time>2021-06-18T11:12:38Z</time>
      </trkpt>
      <trkpt lat="39.8209500" lon="2.8146480">
        <ele>643.0</ele>
        <time>2021-06-18T11:12:39Z</time>
      </trkpt>
      <trkpt lat="39.8211650" lon="2.8147240">
        <ele>641.6</ele>
        <time>2021-06-18T11:12:41Z</time>
      </trkpt>
      <trkpt lat="39.8213580" lon="2.8148890">
        <ele>640.2</ele>
        <time>2021-06-18T11:12:43Z</time>
      </trkpt>
      <trkpt lat="39.8215140" lon="2.8150140">
        <ele>638.4</ele>
        <time>2021-06-18T11:12:45Z</time>
      </trkpt>
      <trkpt lat="39.8215950" lon="2.8150420">
        <ele>637.7</ele>
        <time>2021-06-18T11:12:46Z</time>
      </trkpt>
      <trkpt lat="39.8217380" lon="2.8150830">
        <ele>636.6</ele>
        <time>2021-06-18T11:12:48Z</time>
      </trkpt>
      <trkpt lat="39.8217880" lon="2.8151350">
        <ele>636.1</ele>
        <time>2021-06-18T11:12:49Z</time>
      </trkpt>
      <trkpt lat="39.8217950" lon="2.8151950">
        <ele>635.7</ele>
        <time>2021-06-18T11:12:50Z</time>
      </trkpt>
      <trkpt lat="39.8217630" lon="2.8152520">
        <ele>635.3</ele>
        <time>2021-06-18T11:12:51Z</time>
      </trkpt>
      <trkpt lat="39.8217110" lon="2.8152780">
        <ele>634.9</ele>
        <time>2021-06-18T11:12:52Z</time>
      </trkpt>
      <trkpt lat="39.8216470" lon="2.8152590">
        <ele>634.3</ele>
        <time>2021-06-18T11:12:53Z</time>
      </trkpt>
      <trkpt lat="39.8214130" lon="2.8151670">
        <ele>631.4</ele>
        <time>2021-06-18T11:12:56Z</time>
      </trkpt>
      <trkpt lat="39.8211560" lon="2.8151150">
        <ele>628.3</ele>
        <time>2021-06-18T11:12:59Z</time>
      </trkpt>
      <trkpt lat="39.8210480" lon="2.8151230">
        <ele>627.2</ele>
        <time>2021-06-18T11:13:00Z</time>
      </trkpt>
      <trkpt lat="39.8209730" lon="2.8151460">
        <ele>626.5</ele>
        <time>2021-06-18T11:13:01Z</time>
      </trkpt>
      <trkpt lat="39.8207900" lon="2.8152800">
        <ele>624.5</ele>
        <time>2021-06-18T11:13:03Z</time>
      </trkpt>
      <trkpt lat="39.8205430" lon="2.8156040">
        <ele>621.3</ele>
        <time>2021-06-18T11:13:07Z</time>
      </trkpt>
      <trkpt lat="39.8204790" lon="2.8156930">
        <ele>620.4</ele>
        <time>2021-06-18T11:13:08Z</time>
      </trkpt>
      <trkpt lat="39.8202130" lon="2.8160250">
        <ele>617.1</ele>
        <time>2021-06-18T11:13:12Z</time>
      </trkpt>
      <trkpt lat="39.8201420" lon="2.8160790">
        <ele>616.5</ele>
        <time>2021-06-18T11:13:13Z</time>
      </trkpt>
      <trkpt lat="39.8200650" lon="2.8161000">
        <ele>615.9</ele>
        <time>2021-06-18T11:13:14Z</time>
      </trkpt>
      <trkpt lat="39.8199860" lon="2.8160990">
        <ele>615.3</ele>
        <time>2021-06-18T11:13:15Z</time>
      </trkpt>
      <trkpt lat="39.8199180" lon="2.8160170">
        <ele>614.6</ele>
        <time>2021-06-18T11:13:16Z</time>
      </trkpt>
      <trkpt lat="39.8198560" lon="2.8159260">
        <ele>613.8</ele>
        <time>2021-06-18T11:13:17Z</time>
      </trkpt>
      <trkpt lat="39.8196110" lon="2.8155020">
        <ele>610.1</ele>
        <time>2021-06-18T11:13:21Z</time>
      </trkpt>
      <trkpt lat="39.8193880" lon="2.8152730">
        <ele>606.8</ele>
        <time>2021-06-18T11:13:24Z</time>
      </trkpt>
      <trkpt lat="39.8193090" lon="2.8152220">
        <ele>605.9</ele>
        <time>2021-06-18T11:13:25Z</time>
      </trkpt>
      <trkpt lat="39.8191530" lon="2.8151410">
        <ele>604.3</ele>
        <time>2021-06-18T11:13:27Z</time>
      </trkpt>
      <trkpt lat="39.8190810" lon="2.8151230">
        <ele>603.8</ele>
        <time>2021-06-18T11:13:28Z</time>
      </trkpt>
      <trkpt lat="39.8189610" lon="2.8151000">
        <ele>602.8</ele>
        <time>2021-06-18T11:13:30Z</time>
      </trkpt>
      <trkpt lat="39.8188670" lon="2.8151070">
        <ele>602.0</ele>
        <time>2021-06-18T11:13:32Z</time>
      </trkpt>
      <trkpt lat="39.8187560" lon="2.8151750">
        <ele>600.7</ele>
        <time>2021-06-18T11:13:36Z</time>
      </trkpt>
      <trkpt lat="39.8187420" lon="2.8151940">
        <ele>600.5</ele>
        <time>2021-06-18T11:13:40Z</time>
      </trkpt>
      <trkpt lat="39.8187420" lon="2.8151940">
        <ele>600.5</ele>
        <time>2021-06-18T11:13:44Z</time>
      </trkpt>
      <trkpt lat="39.8187360" lon="2.8151970">
        <ele>600.4</ele>
        <time>2021-06-18T11:13:47Z</time>
      </trkpt>
      <trkpt lat="39.8187270" lon="2.8151930">
        <ele>600.3</ele>
        <time>2021-06-18T11:13:51Z</time>
      </trkpt>
      <trkpt lat="39.8187260" lon="2.8151910">
        <ele>600.3</ele>
        <time>2021-06-18T11:14:00Z</time>
      </trkpt>
      <trkpt lat="39.8187260" lon="2.8151910">
        <ele>600.3</ele>
        <time>2021-06-18T11:14:04Z</time>
      </trkpt>
      <trkpt lat="39.8187250" lon="2.8151840">
        <ele>600.2</ele>
        <time>2021-06-18T11:14:06Z</time>
      </trkpt>
      <trkpt lat="39.8187230" lon="2.8151770">
        <ele>600.2</ele>
        <time>2021-06-18T11:14:09Z</time>
      </trkpt>
      <trkpt lat="39.8187230" lon="2.8151770">
        <ele>600.2</ele>
        <time>2021-06-18T11:14:10Z</time>
      </trkpt>
      <trkpt lat="39.8187230" lon="2.8151770">
        <ele>600.2</ele>
        <time>2021-06-18T11:14:11Z</time>
      </trkpt>
      <trkpt lat="39.8187230" lon="2.8151770">
        <ele>600.2</ele>
        <time>2021-06-18T11:14:12Z</time>
      </trkpt>
      <trkpt lat="39.8187230" lon="2.8151770">
        <ele>600.2</ele>
        <time>2021-06-18T11:14:15Z</time>
      </trkpt>
      <trkpt lat="39.8187230" lon="2.8151760">
        <ele>600.1</ele>
        <time>2021-06-18T11:14:17Z</time>
      </trkpt>
      <trkpt lat="39.8187250" lon="2.8151720">
        <ele>600.1</ele>
        <time>2021-06-18T11:14:25Z</time>
      </trkpt>
      <trkpt lat="39.8187280" lon="2.8151690">
        <ele>600.1</ele>
        <time>2021-06-18T11:14:35Z</time>
      </trkpt>
      <trkpt lat="39.8187280" lon="2.8151690">
        <ele>600.1</ele>
        <time>2021-06-18T11:14:38Z</time>
      </trkpt>
      <trkpt lat="39.8187280" lon="2.8151690">
        <ele>600.1</ele>
        <time>2021-06-18T11:14:41Z</time>
      </trkpt>
      <trkpt lat="39.8187260" lon="2.8151670">
        <ele>600.0</ele>
        <time>2021-06-18T11:14:43Z</time>
      </trkpt>
      <trkpt lat="39.8186930" lon="2.8151310">
        <ele>599.6</ele>
        <time>2021-06-18T11:14:48Z</time>
      </trkpt>
      <trkpt lat="39.8186860" lon="2.8151160">
        <ele>599.4</ele>
        <time>2021-06-18T11:14:54Z</time>
      </trkpt>
      <trkpt lat="39.8186810" lon="2.8151160">
        <ele>599.4</ele>
        <time>2021-06-18T11:14:59Z</time>
      </trkpt>
      <trkpt lat="39.8186780" lon="2.8151140">
        <ele>599.3</ele>
        <time>2021-06-18T11:15:00Z</time>
      </trkpt>
      <trkpt lat="39.8186770" lon="2.8151120">
        <ele>599.3</ele>
        <time>2021-06-18T11:15:09Z</time>
      </trkpt>
      <trkpt lat="39.8186590" lon="2.8150990">
        <ele>599.1</ele>
        <time>2021-06-18T11:15:16Z</time>
      </trkpt>
      <trkpt lat="39.8186590" lon="2.8150990">
        <ele>599.1</ele>
        <time>2021-06-18T11:15:20Z</time>
      </trkpt>
      <trkpt lat="39.8186590" lon="2.8150880">
        <ele>599.0</ele>
        <time>2021-06-18T11:15:23Z</time>
      </trkpt>
      <trkpt lat="39.8186590" lon="2.8150880">
        <ele>599.0</ele>
        <time>2021-06-18T11:15:35Z</time>
      </trkpt>
      <trkpt lat="39.8186590" lon="2.8150870">
        <ele>599.0</ele>
        <time>2021-06-18T11:15:45Z</time>
      </trkpt>
      <trkpt lat="39.8186590" lon="2.8150870">
        <ele>599.0</ele>
        <time>2021-06-18T11:15:56Z</time>
      </trkpt>
      <trkpt lat="39.8186610" lon="2.8150870">
        <ele>599.0</ele>
        <time>2021-06-18T11:16:00Z</time>
      </trkpt>
      <trkpt lat="39.8186670" lon="2.8150890">
        <ele>599.0</ele>
        <time>2021-06-18T11:16:09Z</time>
      </trkpt>
      <trkpt lat="39.8186850" lon="2.8151070">
        <ele>598.7</ele>
        <time>2021-06-18T11:16:17Z</time>
      </trkpt>
      <trkpt lat="39.8186900" lon="2.8151110">
        <ele>598.7</ele>
        <time>2021-06-18T11:16:22Z</time>
      </trkpt>
      <trkpt lat="39.8186860" lon="2.8151200">
        <ele>598.6</ele>
        <time>2021-06-18T11:16:23Z</time>
      </trkpt>
      <trkpt lat="39.8186830" lon="2.8151250">
        <ele>598.6</ele>
        <time>2021-06-18T11:16:29Z</time>
      </trkpt>
      <trkpt lat="39.8186980" lon="2.8151250">
        <ele>598.4</ele>
        <time>2021-06-18T11:16:32Z</time>
      </trkpt>
      <trkpt lat="39.8187030" lon="2.8151250">
        <ele>598.4</ele>
        <time>2021-06-18T11:16:35Z</time>
      </trkpt>
      <trkpt lat="39.8187160" lon="2.8151750">
        <ele>598.0</ele>
        <time>2021-06-18T11:16:46Z</time>
      </trkpt>
      <trkpt lat="39.8187160" lon="2.8151780">
        <ele>597.9</ele>
        <time>2021-06-18T11:16:55Z</time>
      </trkpt>
      <trkpt lat="39.8187120" lon="2.8151770">
        <ele>597.9</ele>
        <time>2021-06-18T11:17:22Z</time>
      </trkpt>
      <trkpt lat="39.8187120" lon="2.8151770">
        <ele>597.9</ele>
        <time>2021-06-18T11:17:27Z</time>
      </trkpt>
      <trkpt lat="39.8187140" lon="2.8151800">
        <ele>597.9</ele>
        <time>2021-06-18T11:17:40Z</time>
      </trkpt>
      <trkpt lat="39.8187140" lon="2.8151800">
        <ele>597.9</ele>
        <time>2021-06-18T11:17:43Z</time>
      </trkpt>
      <trkpt lat="39.8187150" lon="2.8151810">
        <ele>597.9</ele>
        <time>2021-06-18T11:17:55Z</time>
      </trkpt>
      <trkpt lat="39.8187150" lon="2.8151810">
        <ele>597.9</ele>
        <time>2021-06-18T11:17:56Z</time>
      </trkpt>
      <trkpt lat="39.8187240" lon="2.8151890">
        <ele>597.7</ele>
        <time>2021-06-18T11:17:59Z</time>
      </trkpt>
      <trkpt lat="39.8187240" lon="2.8151890">
        <ele>597.7</ele>
        <time>2021-06-18T11:18:01Z</time>
      </trkpt>
      <trkpt lat="39.8187240" lon="2.8151890">
        <ele>597.7</ele>
        <time>2021-06-18T11:18:07Z</time>
      </trkpt>
      <trkpt lat="39.8187240" lon="2.8151890">
        <ele>597.7</ele>
        <time>2021-06-18T11:18:08Z</time>
      </trkpt>
      <trkpt lat="39.8187240" lon="2.8151890">
        <ele>597.7</ele>
        <time>2021-06-18T11:18:10Z</time>
      </trkpt>
      <trkpt lat="39.8187280" lon="2.8151900">
        <ele>597.7</ele>
        <time>2021-06-18T11:18:14Z</time>
      </trkpt>
      <trkpt lat="39.8187280" lon="2.8151900">
        <ele>597.7</ele>
        <time>2021-06-18T11:18:22Z</time>
      </trkpt>
      <trkpt lat="39.8187280" lon="2.8151900">
        <ele>597.7</ele>
        <time>2021-06-18T11:18:26Z</time>
      </trkpt>
      <trkpt lat="39.8187280" lon="2.8151900">
        <ele>597.7</ele>
        <time>2021-06-18T11:18:30Z</time>
      </trkpt>
      <trkpt lat="39.8187280" lon="2.8151900">
        <ele>597.7</ele>
        <time>2021-06-18T11:18:32Z</time>
      </trkpt>
      <trkpt lat="39.8187280" lon="2.8151900">
        <ele>597.7</ele>
        <time>2021-06-18T11:18:34Z</time>
      </trkpt>
      <trkpt lat="39.8187280" lon="2.8151900">
        <ele>597.7</ele>
        <time>2021-06-18T11:18:38Z</time>
      </trkpt>
      <trkpt lat="39.8187280" lon="2.8151900">
        <ele>597.7</ele>
        <time>2021-06-18T11:18:42Z</time>
      </trkpt>
      <trkpt lat="39.8187280" lon="2.8151900">
        <ele>597.7</ele>
        <time>2021-06-18T11:18:55Z</time>
      </trkpt>
      <trkpt lat="39.8187280" lon="2.8151900">
        <ele>597.7</ele>
        <time>2021-06-18T11:18:57Z</time>
      </trkpt>
      <trkpt lat="39.8187280" lon="2.8151900">
        <ele>597.7</ele>
        <time>2021-06-18T11:19:01Z</time>
      </trkpt>
      <trkpt lat="39.8187280" lon="2.8151900">
        <ele>597.7</ele>
        <time>2021-06-18T11:19:06Z</time>
      </trkpt>
      <trkpt lat="39.8187280" lon="2.8151900">
        <ele>597.7</ele>
        <time>2021-06-18T11:19:09Z</time>
      </trkpt>
      <trkpt lat="39.8187280" lon="2.8151900">
        <ele>597.7</ele>
        <time>2021-06-18T11:19:14Z</time>
      </trkpt>
      <trkpt lat="39.8187230" lon="2.8151910">
        <ele>597.6</ele>
        <time>2021-06-18T11:19:33Z</time>
      </trkpt>
      <trkpt lat="39.8187230" lon="2.8151910">
        <ele>597.6</ele>
        <time>2021-06-18T11:19:46Z</time>
      </trkpt>
      <trkpt lat="39.8187240" lon="2.8151800">
        <ele>597.5</ele>
        <time>2021-06-18T11:20:01Z</time>
      </trkpt>
      <trkpt lat="39.8187240" lon="2.8151800">
        <ele>597.5</ele>
        <time>2021-06-18T11:20:16Z</time>
      </trkpt>
      <trkpt lat="39.8187210" lon="2.8151840">
        <ele>597.5</ele>
        <time>2021-06-18T11:20:24Z</time>
      </trkpt>
      <trkpt lat="39.8187210" lon="2.8151840">
        <ele>597.5</ele>
        <time>2021-06-18T11:20:26Z</time>
      </trkpt>
      <trkpt lat="39.8187210" lon="2.8151840">
        <ele>597.5</ele>
        <time>2021-06-18T11:20:28Z</time>
      </trkpt>
      <trkpt lat="39.8187210" lon="2.8151840">
        <ele>597.5</ele>
        <time>2021-06-18T11:20:31Z</time>
      </trkpt>
      <trkpt lat="39.8187210" lon="2.8151840">
        <ele>597.5</ele>
        <time>2021-06-18T11:20:33Z</time>
      </trkpt>
      <trkpt lat="39.8187210" lon="2.8151840">
        <ele>597.5</ele>
        <time>2021-06-18T11:20:48Z</time>
      </trkpt>
      <trkpt lat="39.8187210" lon="2.8151840">
        <ele>597.5</ele>
        <time>2021-06-18T11:20:55Z</time>
      </trkpt>
      <trkpt lat="39.8187210" lon="2.8151840">
        <ele>597.5</ele>
        <time>2021-06-18T11:20:58Z</time>
      </trkpt>
      <trkpt lat="39.8187210" lon="2.8151840">
        <ele>597.5</ele>
        <time>2021-06-18T11:21:15Z</time>
      </trkpt>
      <trkpt lat="39.8187250" lon="2.8151890">
        <ele>597.4</ele>
        <time>2021-06-18T11:21:31Z</time>
      </trkpt>
      <trkpt lat="39.8187330" lon="2.8152020">
        <ele>597.3</ele>
        <time>2021-06-18T11:21:42Z</time>
      </trkpt>
      <trkpt lat="39.8187370" lon="2.8152070">
        <ele>597.2</ele>
        <time>2021-06-18T11:21:44Z</time>
      </trkpt>
      <trkpt lat="39.8187400" lon="2.8152840">
        <ele>596.6</ele>
        <time>2021-06-18T11:21:58Z</time>
      </trkpt>
      <trkpt lat="39.8187400" lon="2.8153230">
        <ele>596.2</ele>
        <time>2021-06-18T11:21:59Z</time>
      </trkpt>
      <trkpt lat="39.8187210" lon="2.8154690">
        <ele>595.2</ele>
        <time>2021-06-18T11:22:03Z</time>
      </trkpt>
      <trkpt lat="39.8187230" lon="2.8154990">
        <ele>595.0</ele>
        <time>2021-06-18T11:22:04Z</time>
      </trkpt>
      <trkpt lat="39.8187130" lon="2.8157010">
        <ele>593.4</ele>
        <time>2021-06-18T11:22:08Z</time>
      </trkpt>
      <trkpt lat="39.8186870" lon="2.8160590">
        <ele>590.3</ele>
        <time>2021-06-18T11:22:13Z</time>
      </trkpt>
      <trkpt lat="39.8186710" lon="2.8162090">
        <ele>588.9</ele>
        <time>2021-06-18T11:22:15Z</time>
      </trkpt>
      <trkpt lat="39.8186080" lon="2.8165200">
        <ele>586.1</ele>
        <time>2021-06-18T11:22:19Z</time>
      </trkpt>
      <trkpt lat="39.8184990" lon="2.8170250">
        <ele>581.9</ele>
        <time>2021-06-18T11:22:24Z</time>
      </trkpt>
      <trkpt lat="39.8184420" lon="2.8173310">
        <ele>579.6</ele>
        <time>2021-06-18T11:22:27Z</time>
      </trkpt>
      <trkpt lat="39.8183810" lon="2.8175610">
        <ele>577.8</ele>
        <time>2021-06-18T11:22:29Z</time>
      </trkpt>
      <trkpt lat="39.8181630" lon="2.8181250">
        <ele>573.3</ele>
        <time>2021-06-18T11:22:34Z</time>
      </trkpt>
      <trkpt lat="39.8178780" lon="2.8188370">
        <ele>568.9</ele>
        <time>2021-06-18T11:22:40Z</time>
      </trkpt>
      <trkpt lat="39.8177430" lon="2.8191580">
        <ele>567.3</ele>
        <time>2021-06-18T11:22:43Z</time>
      </trkpt>
      <trkpt lat="39.8176650" lon="2.8193610">
        <ele>566.4</ele>
        <time>2021-06-18T11:22:45Z</time>
      </trkpt>
      <trkpt lat="39.8176340" lon="2.8194690">
        <ele>565.9</ele>
        <time>2021-06-18T11:22:46Z</time>
      </trkpt>
      <trkpt lat="39.8175420" lon="2.8200460">
        <ele>563.8</ele>
        <time>2021-06-18T11:22:51Z</time>
      </trkpt>
      <trkpt lat="39.8174210" lon="2.8207660">
        <ele>561.9</ele>
        <time>2021-06-18T11:22:57Z</time>
      </trkpt>
      <trkpt lat="39.8173420" lon="2.8209490">
        <ele>561.3</ele>
        <time>2021-06-18T11:22:59Z</time>
      </trkpt>
      <trkpt lat="39.8172780" lon="2.8210380">
        <ele>560.8</ele>
        <time>2021-06-18T11:23:00Z</time>
      </trkpt>
      <trkpt lat="39.8169920" lon="2.8213660">
        <ele>558.9</ele>
        <time>2021-06-18T11:23:04Z</time>
      </trkpt>
      <trkpt lat="39.8167530" lon="2.8216380">
        <ele>558.1</ele>
        <time>2021-06-18T11:23:07Z</time>
      </trkpt>
      <trkpt lat="39.8163720" lon="2.8219690">
        <ele>558.2</ele>
        <time>2021-06-18T11:23:12Z</time>
      </trkpt>
      <trkpt lat="39.8162240" lon="2.8220790">
        <ele>558.4</ele>
        <time>2021-06-18T11:23:14Z</time>
      </trkpt>
      <trkpt lat="39.8160690" lon="2.8221240">
        <ele>558.6</ele>
        <time>2021-06-18T11:23:16Z</time>
      </trkpt>
      <trkpt lat="39.8159070" lon="2.8221050">
        <ele>558.6</ele>
        <time>2021-06-18T11:23:18Z</time>
      </trkpt>
      <trkpt lat="39.8158350" lon="2.8220660">
        <ele>558.5</ele>
        <time>2021-06-18T11:23:19Z</time>
      </trkpt>
      <trkpt lat="39.8157670" lon="2.8220270">
        <ele>558.4</ele>
        <time>2021-06-18T11:23:20Z</time>
      </trkpt>
      <trkpt lat="39.8156240" lon="2.8219850">
        <ele>558.2</ele>
        <time>2021-06-18T11:23:22Z</time>
      </trkpt>
      <trkpt lat="39.8155520" lon="2.8219920">
        <ele>558.1</ele>
        <time>2021-06-18T11:23:23Z</time>
      </trkpt>
      <trkpt lat="39.8154220" lon="2.8220430">
        <ele>557.9</ele>
        <time>2021-06-18T11:23:25Z</time>
      </trkpt>
      <trkpt lat="39.8153200" lon="2.8221620">
        <ele>557.8</ele>
        <time>2021-06-18T11:23:27Z</time>
      </trkpt>
      <trkpt lat="39.8152760" lon="2.8222320">
        <ele>557.8</ele>
        <time>2021-06-18T11:23:28Z</time>
      </trkpt>
      <trkpt lat="39.8151270" lon="2.8225000">
        <ele>557.8</ele>
        <time>2021-06-18T11:23:32Z</time>
      </trkpt>
      <trkpt lat="39.8151270" lon="2.8225760">
        <ele>557.7</ele>
        <time>2021-06-18T11:23:33Z</time>
      </trkpt>
      <trkpt lat="39.8151400" lon="2.8226340">
        <ele>557.7</ele>
        <time>2021-06-18T11:23:34Z</time>
      </trkpt>
      <trkpt lat="39.8152090" lon="2.8227620">
        <ele>557.6</ele>
        <time>2021-06-18T11:23:36Z</time>
      </trkpt>
      <trkpt lat="39.8155540" lon="2.8231290">
        <ele>557.6</ele>
        <time>2021-06-18T11:23:44Z</time>
      </trkpt>
      <trkpt lat="39.8157920" lon="2.8234030">
        <ele>557.6</ele>
        <time>2021-06-18T11:23:50Z</time>
      </trkpt>
      <trkpt lat="39.8160360" lon="2.8237120">
        <ele>557.5</ele>
        <time>2021-06-18T11:23:57Z</time>
      </trkpt>
      <trkpt lat="39.8160860" lon="2.8238170">
        <ele>557.5</ele>
        <time>2021-06-18T11:23:59Z</time>
      </trkpt>
      <trkpt lat="39.8161020" lon="2.8239180">
        <ele>557.5</ele>
        <time>2021-06-18T11:24:01Z</time>
      </trkpt>
      <trkpt lat="39.8160640" lon="2.8240120">
        <ele>557.4</ele>
        <time>2021-06-18T11:24:04Z</time>
      </trkpt>
      <trkpt lat="39.8160430" lon="2.8240960">
        <ele>557.3</ele>
        <time>2021-06-18T11:24:07Z</time>
      </trkpt>
      <trkpt lat="39.8160540" lon="2.8241670">
        <ele>557.3</ele>
        <time>2021-06-18T11:24:09Z</time>
      </trkpt>
      <trkpt lat="39.8161090" lon="2.8244470">
        <ele>555.7</ele>
        <time>2021-06-18T11:24:15Z</time>
      </trkpt>
      <trkpt lat="39.8160840" lon="2.8245980">
        <ele>554.6</ele>
        <time>2021-06-18T11:24:18Z</time>
      </trkpt>
      <trkpt lat="39.8160290" lon="2.8246880">
        <ele>553.7</ele>
        <time>2021-06-18T11:24:20Z</time>
      </trkpt>
      <trkpt lat="39.8158550" lon="2.8248860">
        <ele>551.3</ele>
        <time>2021-06-18T11:24:24Z</time>
      </trkpt>
      <trkpt lat="39.8155000" lon="2.8252070">
        <ele>547.1</ele>
        <time>2021-06-18T11:24:30Z</time>
      </trkpt>
      <trkpt lat="39.8151020" lon="2.8254430">
        <ele>543.9</ele>
        <time>2021-06-18T11:24:35Z</time>
      </trkpt>
      <trkpt lat="39.8149510" lon="2.8255790">
        <ele>542.6</ele>
        <time>2021-06-18T11:24:37Z</time>
      </trkpt>
      <trkpt lat="39.8149110" lon="2.8256460">
        <ele>542.3</ele>
        <time>2021-06-18T11:24:38Z</time>
      </trkpt>
      <trkpt lat="39.8148780" lon="2.8257500">
        <ele>542.0</ele>
        <time>2021-06-18T11:24:39Z</time>
      </trkpt>
      <trkpt lat="39.8148600" lon="2.8259930">
        <ele>541.3</ele>
        <time>2021-06-18T11:24:41Z</time>
      </trkpt>
      <trkpt lat="39.8149830" lon="2.8263180">
        <ele>539.9</ele>
        <time>2021-06-18T11:24:44Z</time>
      </trkpt>
      <trkpt lat="39.8151330" lon="2.8266230">
        <ele>538.3</ele>
        <time>2021-06-18T11:24:47Z</time>
      </trkpt>
      <trkpt lat="39.8151830" lon="2.8267310">
        <ele>537.6</ele>
        <time>2021-06-18T11:24:48Z</time>
      </trkpt>
      <trkpt lat="39.8152490" lon="2.8268570">
        <ele>536.8</ele>
        <time>2021-06-18T11:24:49Z</time>
      </trkpt>
      <trkpt lat="39.8153810" lon="2.8270400">
        <ele>535.3</ele>
        <time>2021-06-18T11:24:51Z</time>
      </trkpt>
      <trkpt lat="39.8158670" lon="2.8274990">
        <ele>531.6</ele>
        <time>2021-06-18T11:24:57Z</time>
      </trkpt>
      <trkpt lat="39.8159670" lon="2.8276910">
        <ele>530.9</ele>
        <time>2021-06-18T11:24:59Z</time>
      </trkpt>
      <trkpt lat="39.8159940" lon="2.8277970">
        <ele>530.5</ele>
        <time>2021-06-18T11:25:00Z</time>
      </trkpt>
      <trkpt lat="39.8161270" lon="2.8285830">
        <ele>528.0</ele>
        <time>2021-06-18T11:25:07Z</time>
      </trkpt>
      <trkpt lat="39.8162180" lon="2.8293730">
        <ele>525.7</ele>
        <time>2021-06-18T11:25:14Z</time>
      </trkpt>
      <trkpt lat="39.8162710" lon="2.8297850">
        <ele>524.5</ele>
        <time>2021-06-18T11:25:18Z</time>
      </trkpt>
      <trkpt lat="39.8163080" lon="2.8298640">
        <ele>524.3</ele>
        <time>2021-06-18T11:25:19Z</time>
      </trkpt>
      <trkpt lat="39.8163710" lon="2.8299220">
        <ele>524.1</ele>
        <time>2021-06-18T11:25:20Z</time>
      </trkpt>
      <trkpt lat="39.8164290" lon="2.8299480">
        <ele>524.1</ele>
        <time>2021-06-18T11:25:21Z</time>
      </trkpt>
      <trkpt lat="39.8165090" lon="2.8299580">
        <ele>524.1</ele>
        <time>2021-06-18T11:25:22Z</time>
      </trkpt>
      <trkpt lat="39.8166840" lon="2.8299100">
        <ele>524.5</ele>
        <time>2021-06-18T11:25:24Z</time>
      </trkpt>
      <trkpt lat="39.8167880" lon="2.8298280">
        <ele>525.0</ele>
        <time>2021-06-18T11:25:26Z</time>
      </trkpt>
      <trkpt lat="39.8168420" lon="2.8297700">
        <ele>525.2</ele>
        <time>2021-06-18T11:25:27Z</time>
      </trkpt>
      <trkpt lat="39.8170360" lon="2.8295680">
        <ele>526.4</ele>
        <time>2021-06-18T11:25:32Z</time>
      </trkpt>
      <trkpt lat="39.8171480" lon="2.8294240">
        <ele>527.4</ele>
        <time>2021-06-18T11:25:37Z</time>
      </trkpt>
      <trkpt lat="39.8172530" lon="2.8293000">
        <ele>528.3</ele>
        <time>2021-06-18T11:25:42Z</time>
      </trkpt>
      <trkpt lat="39.8173220" lon="2.8291810">
        <ele>529.1</ele>
        <time>2021-06-18T11:25:45Z</time>
      </trkpt>
      <trkpt lat="39.8173950" lon="2.8291050">
        <ele>529.8</ele>
        <time>2021-06-18T11:25:48Z</time>
      </trkpt>
      <trkpt lat="39.8174630" lon="2.8290730">
        <ele>530.3</ele>
        <time>2021-06-18T11:25:50Z</time>
      </trkpt>
      <trkpt lat="39.8174980" lon="2.8290260">
        <ele>530.7</ele>
        <time>2021-06-18T11:25:52Z</time>
      </trkpt>
      <trkpt lat="39.8175350" lon="2.8289650">
        <ele>531.1</ele>
        <time>2021-06-18T11:25:54Z</time>
      </trkpt>
      <trkpt lat="39.8176340" lon="2.8288810">
        <ele>532.0</ele>
        <time>2021-06-18T11:25:59Z</time>
      </trkpt>
      <trkpt lat="39.8177510" lon="2.8287910">
        <ele>533.2</ele>
        <time>2021-06-18T11:26:05Z</time>
      </trkpt>
      <trkpt lat="39.8178240" lon="2.8287420">
        <ele>533.9</ele>
        <time>2021-06-18T11:26:08Z</time>
      </trkpt>
      <trkpt lat="39.8179070" lon="2.8287470">
        <ele>534.6</ele>
        <time>2021-06-18T11:26:11Z</time>
      </trkpt>
      <trkpt lat="39.8179810" lon="2.8287700">
        <ele>535.3</ele>
        <time>2021-06-18T11:26:14Z</time>
      </trkpt>
      <trkpt lat="39.8180280" lon="2.8287850">
        <ele>535.7</ele>
        <time>2021-06-18T11:26:16Z</time>
      </trkpt>
      <trkpt lat="39.8180960" lon="2.8288150">
        <ele>536.4</ele>
        <time>2021-06-18T11:26:19Z</time>
      </trkpt>
      <trkpt lat="39.8181240" lon="2.8288620">
        <ele>536.8</ele>
        <time>2021-06-18T11:26:21Z</time>
      </trkpt>
      <trkpt lat="39.8182130" lon="2.8289220">
        <ele>537.6</ele>
        <time>2021-06-18T11:26:26Z</time>
      </trkpt>
      <trkpt lat="39.8183150" lon="2.8290890">
        <ele>538.8</ele>
        <time>2021-06-18T11:26:33Z</time>
      </trkpt>
      <trkpt lat="39.8183220" lon="2.8291560">
        <ele>539.2</ele>
        <time>2021-06-18T11:26:36Z</time>
      </trkpt>
      <trkpt lat="39.8183410" lon="2.8292370">
        <ele>539.7</ele>
        <time>2021-06-18T11:26:39Z</time>
      </trkpt>
      <trkpt lat="39.8183900" lon="2.8295130">
        <ele>541.6</ele>
        <time>2021-06-18T11:26:48Z</time>
      </trkpt>
      <trkpt lat="39.8184380" lon="2.8297390">
        <ele>543.4</ele>
        <time>2021-06-18T11:26:55Z</time>
      </trkpt>
      <trkpt lat="39.8185430" lon="2.8298870">
        <ele>544.7</ele>
        <time>2021-06-18T11:27:01Z</time>
      </trkpt>
      <trkpt lat="39.8186430" lon="2.8299010">
        <ele>545.1</ele>
        <time>2021-06-18T11:27:05Z</time>
      </trkpt>
      <trkpt lat="39.8186700" lon="2.8298940">
        <ele>545.3</ele>
        <time>2021-06-18T11:27:06Z</time>
      </trkpt>
      <trkpt lat="39.8188450" lon="2.8297740">
        <ele>546.3</ele>
        <time>2021-06-18T11:27:13Z</time>
      </trkpt>
      <trkpt lat="39.8189620" lon="2.8296350">
        <ele>547.4</ele>
        <time>2021-06-18T11:27:19Z</time>
      </trkpt>
      <trkpt lat="39.8190980" lon="2.8295430">
        <ele>548.4</ele>
        <time>2021-06-18T11:27:25Z</time>
      </trkpt>
      <trkpt lat="39.8192350" lon="2.8295940">
        <ele>549.2</ele>
        <time>2021-06-18T11:27:31Z</time>
      </trkpt>
      <trkpt lat="39.8193710" lon="2.8297390">
        <ele>549.9</ele>
        <time>2021-06-18T11:27:38Z</time>
      </trkpt>
      <trkpt lat="39.8195140" lon="2.8298910">
        <ele>550.5</ele>
        <time>2021-06-18T11:27:45Z</time>
      </trkpt>
      <trkpt lat="39.8196600" lon="2.8300330">
        <ele>551.2</ele>
        <time>2021-06-18T11:27:52Z</time>
      </trkpt>
      <trkpt lat="39.8197650" lon="2.8300620">
        <ele>551.5</ele>
        <time>2021-06-18T11:27:56Z</time>
      </trkpt>
      <trkpt lat="39.8198150" lon="2.8300780">
        <ele>551.7</ele>
        <time>2021-06-18T11:27:58Z</time>
      </trkpt>
      <trkpt lat="39.8199170" lon="2.8300970">
        <ele>552.0</ele>
        <time>2021-06-18T11:28:02Z</time>
      </trkpt>
      <trkpt lat="39.8200030" lon="2.8301060">
        <ele>552.3</ele>
        <time>2021-06-18T11:28:05Z</time>
      </trkpt>
      <trkpt lat="39.8200640" lon="2.8301000">
        <ele>552.6</ele>
        <time>2021-06-18T11:28:07Z</time>
      </trkpt>
      <trkpt lat="39.8201170" lon="2.8300940">
        <ele>552.8</ele>
        <time>2021-06-18T11:28:09Z</time>
      </trkpt>
      <trkpt lat="39.8201690" lon="2.8300870">
        <ele>553.0</ele>
        <time>2021-06-18T11:28:11Z</time>
      </trkpt>
      <trkpt lat="39.8202390" lon="2.8300700">
        <ele>553.2</ele>
        <time>2021-06-18T11:28:14Z</time>
      </trkpt>
      <trkpt lat="39.8203890" lon="2.8300420">
        <ele>553.9</ele>
        <time>2021-06-18T11:28:19Z</time>
      </trkpt>
      <trkpt lat="39.8205100" lon="2.8299840">
        <ele>554.4</ele>
        <time>2021-06-18T11:28:23Z</time>
      </trkpt>
      <trkpt lat="39.8205920" lon="2.8299290">
        <ele>554.8</ele>
        <time>2021-06-18T11:28:26Z</time>
      </trkpt>
      <trkpt lat="39.8206490" lon="2.8298870">
        <ele>555.1</ele>
        <time>2021-06-18T11:28:28Z</time>
      </trkpt>
      <trkpt lat="39.8207330" lon="2.8297610">
        <ele>555.5</ele>
        <time>2021-06-18T11:28:32Z</time>
      </trkpt>
      <trkpt lat="39.8208650" lon="2.8294950">
        <ele>556.2</ele>
        <time>2021-06-18T11:28:40Z</time>
      </trkpt>
      <trkpt lat="39.8209040" lon="2.8293710">
        <ele>556.3</ele>
        <time>2021-06-18T11:28:45Z</time>
      </trkpt>
      <trkpt lat="39.8209400" lon="2.8292320">
        <ele>556.4</ele>
        <time>2021-06-18T11:28:51Z</time>
      </trkpt>
      <trkpt lat="39.8209460" lon="2.8291870">
        <ele>556.3</ele>
        <time>2021-06-18T11:28:53Z</time>
      </trkpt>
      <trkpt lat="39.8209580" lon="2.8291110">
        <ele>556.2</ele>
        <time>2021-06-18T11:28:56Z</time>
      </trkpt>
      <trkpt lat="39.8210010" lon="2.8289880">
        <ele>555.9</ele>
        <time>2021-06-18T11:29:01Z</time>
      </trkpt>
      <trkpt lat="39.8210950" lon="2.8288340">
        <ele>555.6</ele>
        <time>2021-06-18T11:29:06Z</time>
      </trkpt>
      <trkpt lat="39.8212820" lon="2.8286520">
        <ele>555.2</ele>
        <time>2021-06-18T11:29:14Z</time>
      </trkpt>
      <trkpt lat="39.8213440" lon="2.8285920">
        <ele>555.2</ele>
        <time>2021-06-18T11:29:17Z</time>
      </trkpt>
      <trkpt lat="39.8213820" lon="2.8285610">
        <ele>555.2</ele>
        <time>2021-06-18T11:29:19Z</time>
      </trkpt>
      <trkpt lat="39.8214170" lon="2.8285280">
        <ele>555.1</ele>
        <time>2021-06-18T11:29:21Z</time>
      </trkpt>
      <trkpt lat="39.8214530" lon="2.8284910">
        <ele>555.1</ele>
        <time>2021-06-18T11:29:23Z</time>
      </trkpt>
      <trkpt lat="39.8215240" lon="2.8284380">
        <ele>555.1</ele>
        <time>2021-06-18T11:29:27Z</time>
      </trkpt>
      <trkpt lat="39.8216020" lon="2.8283570">
        <ele>555.0</ele>
        <time>2021-06-18T11:29:33Z</time>
      </trkpt>
      <trkpt lat="39.8216740" lon="2.8282840">
        <ele>554.8</ele>
        <time>2021-06-18T11:29:39Z</time>
      </trkpt>
      <trkpt lat="39.8216790" lon="2.8282790">
        <ele>554.7</ele>
        <time>2021-06-18T11:29:43Z</time>
      </trkpt>
      <trkpt lat="39.8216790" lon="2.8282790">
        <ele>554.7</ele>
        <time>2021-06-18T11:29:44Z</time>
      </trkpt>
      <trkpt lat="39.8216790" lon="2.8282790">
        <ele>554.7</ele>
        <time>2021-06-18T11:29:54Z</time>
      </trkpt>
      <trkpt lat="39.8216790" lon="2.8282790">
        <ele>554.7</ele>
        <time>2021-06-18T11:29:55Z</time>
      </trkpt>
      <trkpt lat="39.8216790" lon="2.8282790">
        <ele>554.7</ele>
        <time>2021-06-18T11:30:03Z</time>
      </trkpt>
      <trkpt lat="39.8216790" lon="2.8282790">
        <ele>554.7</ele>
        <time>2021-06-18T11:30:07Z</time>
      </trkpt>
      <trkpt lat="39.8216780" lon="2.8282860">
        <ele>554.7</ele>
        <time>2021-06-18T11:30:14Z</time>
      </trkpt>
      <trkpt lat="39.8216780" lon="2.8282860">
        <ele>554.7</ele>
        <time>2021-06-18T11:30:17Z</time>
      </trkpt>
      <trkpt lat="39.8216780" lon="2.8282860">
        <ele>554.7</ele>
        <time>2021-06-18T11:30:23Z</time>
      </trkpt>
      <trkpt lat="39.8216980" lon="2.8282420">
        <ele>554.6</ele>
        <time>2021-06-18T11:30:30Z</time>
      </trkpt>
      <trkpt lat="39.8217060" lon="2.8282170">
        <ele>554.5</ele>
        <time>2021-06-18T11:30:32Z</time>
      </trkpt>
      <trkpt lat="39.8217260" lon="2.8279790">
        <ele>553.8</ele>
        <time>2021-06-18T11:30:40Z</time>
      </trkpt>
      <trkpt lat="39.8217370" lon="2.8277410">
        <ele>552.8</ele>
        <time>2021-06-18T11:30:45Z</time>
      </trkpt>
      <trkpt lat="39.8217630" lon="2.8277050">
        <ele>552.4</ele>
        <time>2021-06-18T11:30:46Z</time>
      </trkpt>
      <trkpt lat="39.8218350" lon="2.8276710">
        <ele>551.7</ele>
        <time>2021-06-18T11:30:48Z</time>
      </trkpt>
      <trkpt lat="39.8221290" lon="2.8275910">
        <ele>549.0</ele>
        <time>2021-06-18T11:30:53Z</time>
      </trkpt>
      <trkpt lat="39.8222560" lon="2.8275330">
        <ele>548.7</ele>
        <time>2021-06-18T11:30:55Z</time>
      </trkpt>
      <trkpt lat="39.8223700" lon="2.8274660">
        <ele>548.8</ele>
        <time>2021-06-18T11:30:57Z</time>
      </trkpt>
      <trkpt lat="39.8224120" lon="2.8274480">
        <ele>548.9</ele>
        <time>2021-06-18T11:30:58Z</time>
      </trkpt>
      <trkpt lat="39.8224630" lon="2.8274320">
        <ele>549.1</ele>
        <time>2021-06-18T11:30:59Z</time>
      </trkpt>
      <trkpt lat="39.8226030" lon="2.8273830">
        <ele>549.7</ele>
        <time>2021-06-18T11:31:02Z</time>
      </trkpt>
      <trkpt lat="39.8227590" lon="2.8273470">
        <ele>550.4</ele>
        <time>2021-06-18T11:31:07Z</time>
      </trkpt>
      <trkpt lat="39.8228820" lon="2.8273650">
        <ele>550.8</ele>
        <time>2021-06-18T11:31:11Z</time>
      </trkpt>
      <trkpt lat="39.8229640" lon="2.8274030">
        <ele>551.1</ele>
        <time>2021-06-18T11:31:14Z</time>
      </trkpt>
      <trkpt lat="39.8232090" lon="2.8275350">
        <ele>551.9</ele>
        <time>2021-06-18T11:31:23Z</time>
      </trkpt>
      <trkpt lat="39.8232920" lon="2.8275830">
        <ele>552.3</ele>
        <time>2021-06-18T11:31:26Z</time>
      </trkpt>
      <trkpt lat="39.8233460" lon="2.8276230">
        <ele>552.5</ele>
        <time>2021-06-18T11:31:28Z</time>
      </trkpt>
      <trkpt lat="39.8234240" lon="2.8276960">
        <ele>552.9</ele>
        <time>2021-06-18T11:31:31Z</time>
      </trkpt>
      <trkpt lat="39.8235200" lon="2.8277880">
        <ele>553.6</ele>
        <time>2021-06-18T11:31:35Z</time>
      </trkpt>
      <trkpt lat="39.8235760" lon="2.8278570">
        <ele>554.0</ele>
        <time>2021-06-18T11:31:38Z</time>
      </trkpt>
      <trkpt lat="39.8236990" lon="2.8279640">
        <ele>554.8</ele>
        <time>2021-06-18T11:31:44Z</time>
      </trkpt>
      <trkpt lat="39.8238980" lon="2.8281430">
        <ele>556.2</ele>
        <time>2021-06-18T11:31:52Z</time>
      </trkpt>
      <trkpt lat="39.8240110" lon="2.8282360">
        <ele>556.9</ele>
        <time>2021-06-18T11:31:57Z</time>
      </trkpt>
      <trkpt lat="39.8240370" lon="2.8282620">
        <ele>557.1</ele>
        <time>2021-06-18T11:31:58Z</time>
      </trkpt>
      <trkpt lat="39.8241750" lon="2.8284970">
        <ele>558.4</ele>
        <time>2021-06-18T11:32:07Z</time>
      </trkpt>
      <trkpt lat="39.8241970" lon="2.8285250">
        <ele>558.6</ele>
        <time>2021-06-18T11:32:08Z</time>
      </trkpt>
      <trkpt lat="39.8243030" lon="2.8286240">
        <ele>559.4</ele>
        <time>2021-06-18T11:32:13Z</time>
      </trkpt>
      <trkpt lat="39.8243720" lon="2.8286900">
        <ele>559.9</ele>
        <time>2021-06-18T11:32:16Z</time>
      </trkpt>
      <trkpt lat="39.8243940" lon="2.8287120">
        <ele>560.1</ele>
        <time>2021-06-18T11:32:17Z</time>
      </trkpt>
      <trkpt lat="39.8245100" lon="2.8288250">
        <ele>561.0</ele>
        <time>2021-06-18T11:32:23Z</time>
      </trkpt>
      <trkpt lat="39.8245240" lon="2.8288390">
        <ele>561.2</ele>
        <time>2021-06-18T11:32:24Z</time>
      </trkpt>
      <trkpt lat="39.8245580" lon="2.8288800">
        <ele>561.5</ele>
        <time>2021-06-18T11:32:27Z</time>
      </trkpt>
      <trkpt lat="39.8246510" lon="2.8289690">
        <ele>562.4</ele>
        <time>2021-06-18T11:32:34Z</time>
      </trkpt>
      <trkpt lat="39.8247400" lon="2.8290740">
        <ele>563.3</ele>
        <time>2021-06-18T11:32:39Z</time>
      </trkpt>
      <trkpt lat="39.8247830" lon="2.8291190">
        <ele>563.8</ele>
        <time>2021-06-18T11:32:41Z</time>
      </trkpt>
      <trkpt lat="39.8248770" lon="2.8291880">
        <ele>564.5</ele>
        <time>2021-06-18T11:32:46Z</time>
      </trkpt>
      <trkpt lat="39.8248890" lon="2.8292050">
        <ele>564.7</ele>
        <time>2021-06-18T11:32:47Z</time>
      </trkpt>
      <trkpt lat="39.8250690" lon="2.8292990">
        <ele>565.6</ele>
        <time>2021-06-18T11:32:55Z</time>
      </trkpt>
      <trkpt lat="39.8252150" lon="2.8293670">
        <ele>566.0</ele>
        <time>2021-06-18T11:33:00Z</time>
      </trkpt>
      <trkpt lat="39.8252740" lon="2.8293900">
        <ele>566.1</ele>
        <time>2021-06-18T11:33:02Z</time>
      </trkpt>
      <trkpt lat="39.8253430" lon="2.8294210">
        <ele>566.2</ele>
        <time>2021-06-18T11:33:04Z</time>
      </trkpt>
      <trkpt lat="39.8254200" lon="2.8294600">
        <ele>566.4</ele>
        <time>2021-06-18T11:33:06Z</time>
      </trkpt>
      <trkpt lat="39.8254920" lon="2.8294970">
        <ele>566.5</ele>
        <time>2021-06-18T11:33:08Z</time>
      </trkpt>
      <trkpt lat="39.8255330" lon="2.8295070">
        <ele>566.6</ele>
        <time>2021-06-18T11:33:09Z</time>
      </trkpt>
      <trkpt lat="39.8257550" lon="2.8295690">
        <ele>567.0</ele>
        <time>2021-06-18T11:33:15Z</time>
      </trkpt>
      <trkpt lat="39.8259630" lon="2.8296370">
        <ele>567.5</ele>
        <time>2021-06-18T11:33:21Z</time>
      </trkpt>
      <trkpt lat="39.8259960" lon="2.8296460">
        <ele>567.6</ele>
        <time>2021-06-18T11:33:22Z</time>
      </trkpt>
      <trkpt lat="39.8260510" lon="2.8296570">
        <ele>567.8</ele>
        <time>2021-06-18T11:33:24Z</time>
      </trkpt>
      <trkpt lat="39.8261860" lon="2.8297000">
        <ele>568.0</ele>
        <time>2021-06-18T11:33:28Z</time>
      </trkpt>
      <trkpt lat="39.8262620" lon="2.8297410">
        <ele>568.2</ele>
        <time>2021-06-18T11:33:31Z</time>
      </trkpt>
      <trkpt lat="39.8263110" lon="2.8297720">
        <ele>568.3</ele>
        <time>2021-06-18T11:33:33Z</time>
      </trkpt>
      <trkpt lat="39.8263860" lon="2.8298190">
        <ele>568.4</ele>
        <time>2021-06-18T11:33:36Z</time>
      </trkpt>
      <trkpt lat="39.8264420" lon="2.8298580">
        <ele>568.5</ele>
        <time>2021-06-18T11:33:38Z</time>
      </trkpt>
      <trkpt lat="39.8266050" lon="2.8299690">
        <ele>568.7</ele>
        <time>2021-06-18T11:33:43Z</time>
      </trkpt>
      <trkpt lat="39.8266270" lon="2.8299870">
        <ele>568.7</ele>
        <time>2021-06-18T11:33:44Z</time>
      </trkpt>
      <trkpt lat="39.8267300" lon="2.8301130">
        <ele>568.7</ele>
        <time>2021-06-18T11:33:49Z</time>
      </trkpt>
      <trkpt lat="39.8268440" lon="2.8302440">
        <ele>568.5</ele>
        <time>2021-06-18T11:33:54Z</time>
      </trkpt>
      <trkpt lat="39.8268750" lon="2.8302750">
        <ele>568.4</ele>
        <time>2021-06-18T11:33:55Z</time>
      </trkpt>
      <trkpt lat="39.8269370" lon="2.8303370">
        <ele>568.3</ele>
        <time>2021-06-18T11:33:57Z</time>
      </trkpt>
      <trkpt lat="39.8270430" lon="2.8304510">
        <ele>568.0</ele>
        <time>2021-06-18T11:34:01Z</time>
      </trkpt>
      <trkpt lat="39.8271020" lon="2.8305160">
        <ele>567.9</ele>
        <time>2021-06-18T11:34:03Z</time>
      </trkpt>
      <trkpt lat="39.8272300" lon="2.8306560">
        <ele>567.7</ele>
        <time>2021-06-18T11:34:07Z</time>
      </trkpt>
      <trkpt lat="39.8274060" lon="2.8308820">
        <ele>567.6</ele>
        <time>2021-06-18T11:34:12Z</time>
      </trkpt>
      <trkpt lat="39.8274410" lon="2.8309370">
        <ele>567.7</ele>
        <time>2021-06-18T11:34:13Z</time>
      </trkpt>
      <trkpt lat="39.8275060" lon="2.8310380">
        <ele>568.0</ele>
        <time>2021-06-18T11:34:15Z</time>
      </trkpt>
      <trkpt lat="39.8275460" lon="2.8310830">
        <ele>568.2</ele>
        <time>2021-06-18T11:34:16Z</time>
      </trkpt>
      <trkpt lat="39.8275750" lon="2.8311260">
        <ele>568.3</ele>
        <time>2021-06-18T11:34:17Z</time>
      </trkpt>
      <trkpt lat="39.8276360" lon="2.8312210">
        <ele>568.7</ele>
        <time>2021-06-18T11:34:20Z</time>
      </trkpt>
      <trkpt lat="39.8276890" lon="2.8312890">
        <ele>569.1</ele>
        <time>2021-06-18T11:34:23Z</time>
      </trkpt>
      <trkpt lat="39.8276960" lon="2.8313180">
        <ele>569.2</ele>
        <time>2021-06-18T11:34:24Z</time>
      </trkpt>
      <trkpt lat="39.8277760" lon="2.8314360">
        <ele>569.8</ele>
        <time>2021-06-18T11:34:29Z</time>
      </trkpt>
      <trkpt lat="39.8278550" lon="2.8316290">
        <ele>570.8</ele>
        <time>2021-06-18T11:34:36Z</time>
      </trkpt>
      <trkpt lat="39.8278740" lon="2.8318550">
        <ele>572.0</ele>
        <time>2021-06-18T11:34:43Z</time>
      </trkpt>
      <trkpt lat="39.8279130" lon="2.8322240">
        <ele>574.5</ele>
        <time>2021-06-18T11:34:53Z</time>
      </trkpt>
      <trkpt lat="39.8279750" lon="2.8325540">
        <ele>577.0</ele>
        <time>2021-06-18T11:35:02Z</time>
      </trkpt>
      <trkpt lat="39.8280260" lon="2.8327900">
        <ele>578.5</ele>
        <time>2021-06-18T11:35:08Z</time>
      </trkpt>
      <trkpt lat="39.8280440" lon="2.8328620">
        <ele>579.0</ele>
        <time>2021-06-18T11:35:11Z</time>
      </trkpt>
      <trkpt lat="39.8280810" lon="2.8329990">
        <ele>579.8</ele>
        <time>2021-06-18T11:35:15Z</time>
      </trkpt>
      <trkpt lat="39.8281150" lon="2.8331370">
        <ele>580.5</ele>
        <time>2021-06-18T11:35:19Z</time>
      </trkpt>
      <trkpt lat="39.8282490" lon="2.8334470">
        <ele>582.1</ele>
        <time>2021-06-18T11:35:28Z</time>
      </trkpt>
      <trkpt lat="39.8283580" lon="2.8336480">
        <ele>583.2</ele>
        <time>2021-06-18T11:35:34Z</time>
      </trkpt>
      <trkpt lat="39.8283840" lon="2.8337170">
        <ele>583.6</ele>
        <time>2021-06-18T11:35:36Z</time>
      </trkpt>
      <trkpt lat="39.8284060" lon="2.8338260">
        <ele>584.2</ele>
        <time>2021-06-18T11:35:39Z</time>
      </trkpt>
      <trkpt lat="39.8284400" lon="2.8340060">
        <ele>585.1</ele>
        <time>2021-06-18T11:35:44Z</time>
      </trkpt>
      <trkpt lat="39.8284550" lon="2.8341830">
        <ele>585.9</ele>
        <time>2021-06-18T11:35:49Z</time>
      </trkpt>
      <trkpt lat="39.8284500" lon="2.8343720">
        <ele>586.8</ele>
        <time>2021-06-18T11:35:54Z</time>
      </trkpt>
      <trkpt lat="39.8284440" lon="2.8344050">
        <ele>586.9</ele>
        <time>2021-06-18T11:35:55Z</time>
      </trkpt>
      <trkpt lat="39.8284130" lon="2.8345770">
        <ele>587.8</ele>
        <time>2021-06-18T11:36:00Z</time>
      </trkpt>
      <trkpt lat="39.8283830" lon="2.8347360">
        <ele>588.5</ele>
        <time>2021-06-18T11:36:05Z</time>
      </trkpt>
      <trkpt lat="39.8283660" lon="2.8347680">
        <ele>588.6</ele>
        <time>2021-06-18T11:36:08Z</time>
      </trkpt>
      <trkpt lat="39.8283670" lon="2.8347690">
        <ele>588.6</ele>
        <time>2021-06-18T11:36:12Z</time>
      </trkpt>
      <trkpt lat="39.8283670" lon="2.8347690">
        <ele>588.6</ele>
        <time>2021-06-18T11:36:13Z</time>
      </trkpt>
      <trkpt lat="39.8283670" lon="2.8347690">
        <ele>588.6</ele>
        <time>2021-06-18T11:36:15Z</time>
      </trkpt>
      <trkpt lat="39.8283670" lon="2.8347690">
        <ele>588.6</ele>
        <time>2021-06-18T11:36:17Z</time>
      </trkpt>
      <trkpt lat="39.8283620" lon="2.8347710">
        <ele>588.6</ele>
        <time>2021-06-18T11:36:21Z</time>
      </trkpt>
      <trkpt lat="39.8283620" lon="2.8347710">
        <ele>588.6</ele>
        <time>2021-06-18T11:36:25Z</time>
      </trkpt>
      <trkpt lat="39.8283620" lon="2.8347710">
        <ele>588.6</ele>
        <time>2021-06-18T11:36:30Z</time>
      </trkpt>
      <trkpt lat="39.8283610" lon="2.8347680">
        <ele>588.6</ele>
        <time>2021-06-18T11:36:39Z</time>
      </trkpt>
      <trkpt lat="39.8283560" lon="2.8347690">
        <ele>588.7</ele>
        <time>2021-06-18T11:36:42Z</time>
      </trkpt>
      <trkpt lat="39.8283560" lon="2.8347690">
        <ele>588.7</ele>
        <time>2021-06-18T11:36:44Z</time>
      </trkpt>
      <trkpt lat="39.8283510" lon="2.8347690">
        <ele>588.7</ele>
        <time>2021-06-18T11:37:06Z</time>
      </trkpt>
      <trkpt lat="39.8283510" lon="2.8347690">
        <ele>588.7</ele>
        <time>2021-06-18T11:37:08Z</time>
      </trkpt>
      <trkpt lat="39.8283460" lon="2.8347670">
        <ele>588.7</ele>
        <time>2021-06-18T11:37:11Z</time>
      </trkpt>
      <trkpt lat="39.8283460" lon="2.8347670">
        <ele>588.7</ele>
        <time>2021-06-18T11:37:18Z</time>
      </trkpt>
      <trkpt lat="39.8283460" lon="2.8347670">
        <ele>588.7</ele>
        <time>2021-06-18T11:37:21Z</time>
      </trkpt>
      <trkpt lat="39.8283460" lon="2.8347670">
        <ele>588.7</ele>
        <time>2021-06-18T11:37:25Z</time>
      </trkpt>
      <trkpt lat="39.8283460" lon="2.8347670">
        <ele>588.7</ele>
        <time>2021-06-18T11:37:28Z</time>
      </trkpt>
      <trkpt lat="39.8283450" lon="2.8347670">
        <ele>588.7</ele>
        <time>2021-06-18T11:37:44Z</time>
      </trkpt>
      <trkpt lat="39.8283380" lon="2.8347680">
        <ele>588.8</ele>
        <time>2021-06-18T11:37:53Z</time>
      </trkpt>
      <trkpt lat="39.8283330" lon="2.8347680">
        <ele>588.8</ele>
        <time>2021-06-18T11:37:58Z</time>
      </trkpt>
      <trkpt lat="39.8283330" lon="2.8347680">
        <ele>588.8</ele>
        <time>2021-06-18T11:38:00Z</time>
      </trkpt>
      <trkpt lat="39.8283330" lon="2.8347680">
        <ele>588.8</ele>
        <time>2021-06-18T11:38:02Z</time>
      </trkpt>
      <trkpt lat="39.8283330" lon="2.8347680">
        <ele>588.8</ele>
        <time>2021-06-18T11:38:04Z</time>
      </trkpt>
      <trkpt lat="39.8283330" lon="2.8347680">
        <ele>588.8</ele>
        <time>2021-06-18T11:38:10Z</time>
      </trkpt>
      <trkpt lat="39.8283330" lon="2.8347680">
        <ele>588.8</ele>
        <time>2021-06-18T11:38:15Z</time>
      </trkpt>
      <trkpt lat="39.8283360" lon="2.8347680">
        <ele>588.8</ele>
        <time>2021-06-18T11:38:27Z</time>
      </trkpt>
      <trkpt lat="39.8283360" lon="2.8347680">
        <ele>588.8</ele>
        <time>2021-06-18T11:38:30Z</time>
      </trkpt>
      <trkpt lat="39.8283330" lon="2.8347680">
        <ele>588.8</ele>
        <time>2021-06-18T11:38:57Z</time>
      </trkpt>
      <trkpt lat="39.8283330" lon="2.8347680">
        <ele>588.8</ele>
        <time>2021-06-18T11:39:00Z</time>
      </trkpt>
      <trkpt lat="39.8283330" lon="2.8347680">
        <ele>588.8</ele>
        <time>2021-06-18T11:39:02Z</time>
      </trkpt>
      <trkpt lat="39.8283130" lon="2.8347680">
        <ele>588.9</ele>
        <time>2021-06-18T11:39:05Z</time>
      </trkpt>
      <trkpt lat="39.8283130" lon="2.8347680">
        <ele>588.9</ele>
        <time>2021-06-18T11:39:13Z</time>
      </trkpt>
      <trkpt lat="39.8283110" lon="2.8347710">
        <ele>588.9</ele>
        <time>2021-06-18T11:39:19Z</time>
      </trkpt>
      <trkpt lat="39.8283110" lon="2.8347880">
        <ele>589.0</ele>
        <time>2021-06-18T11:39:31Z</time>
      </trkpt>
      <trkpt lat="39.8283150" lon="2.8348140">
        <ele>589.1</ele>
        <time>2021-06-18T11:39:33Z</time>
      </trkpt>
      <trkpt lat="39.8283080" lon="2.8348870">
        <ele>589.4</ele>
        <time>2021-06-18T11:39:36Z</time>
      </trkpt>
      <trkpt lat="39.8283230" lon="2.8349670">
        <ele>589.7</ele>
        <time>2021-06-18T11:39:39Z</time>
      </trkpt>
      <trkpt lat="39.8283610" lon="2.8350900">
        <ele>590.2</ele>
        <time>2021-06-18T11:39:43Z</time>
      </trkpt>
      <trkpt lat="39.8283600" lon="2.8351950">
        <ele>590.6</ele>
        <time>2021-06-18T11:39:47Z</time>
      </trkpt>
      <trkpt lat="39.8283630" lon="2.8352430">
        <ele>590.7</ele>
        <time>2021-06-18T11:39:49Z</time>
      </trkpt>
      <trkpt lat="39.8283560" lon="2.8352760">
        <ele>590.9</ele>
        <time>2021-06-18T11:39:51Z</time>
      </trkpt>
      <trkpt lat="39.8283650" lon="2.8353080">
        <ele>591.0</ele>
        <time>2021-06-18T11:39:52Z</time>
      </trkpt>
      <trkpt lat="39.8282900" lon="2.8355160">
        <ele>591.9</ele>
        <time>2021-06-18T11:39:58Z</time>
      </trkpt>
      <trkpt lat="39.8282830" lon="2.8355540">
        <ele>592.0</ele>
        <time>2021-06-18T11:39:59Z</time>
      </trkpt>
      <trkpt lat="39.8282480" lon="2.8357290">
        <ele>592.8</ele>
        <time>2021-06-18T11:40:04Z</time>
      </trkpt>
      <trkpt lat="39.8282350" lon="2.8357940">
        <ele>593.1</ele>
        <time>2021-06-18T11:40:06Z</time>
      </trkpt>
      <trkpt lat="39.8282260" lon="2.8358580">
        <ele>593.4</ele>
        <time>2021-06-18T11:40:08Z</time>
      </trkpt>
      <trkpt lat="39.8282230" lon="2.8359160">
        <ele>593.7</ele>
        <time>2021-06-18T11:40:10Z</time>
      </trkpt>
      <trkpt lat="39.8282370" lon="2.8360190">
        <ele>594.1</ele>
        <time>2021-06-18T11:40:13Z</time>
      </trkpt>
      <trkpt lat="39.8282460" lon="2.8360930">
        <ele>594.5</ele>
        <time>2021-06-18T11:40:15Z</time>
      </trkpt>
      <trkpt lat="39.8282790" lon="2.8362190">
        <ele>595.0</ele>
        <time>2021-06-18T11:40:19Z</time>
      </trkpt>
      <trkpt lat="39.8283090" lon="2.8362820">
        <ele>595.3</ele>
        <time>2021-06-18T11:40:21Z</time>
      </trkpt>
      <trkpt lat="39.8283690" lon="2.8364820">
        <ele>596.1</ele>
        <time>2021-06-18T11:40:26Z</time>
      </trkpt>
      <trkpt lat="39.8283980" lon="2.8365540">
        <ele>596.4</ele>
        <time>2021-06-18T11:40:28Z</time>
      </trkpt>
      <trkpt lat="39.8284310" lon="2.8366240">
        <ele>596.8</ele>
        <time>2021-06-18T11:40:30Z</time>
      </trkpt>
      <trkpt lat="39.8284610" lon="2.8366900">
        <ele>597.2</ele>
        <time>2021-06-18T11:40:32Z</time>
      </trkpt>
      <trkpt lat="39.8284950" lon="2.8367510">
        <ele>597.5</ele>
        <time>2021-06-18T11:40:34Z</time>
      </trkpt>
      <trkpt lat="39.8285390" lon="2.8368000">
        <ele>597.9</ele>
        <time>2021-06-18T11:40:36Z</time>
      </trkpt>
      <trkpt lat="39.8286000" lon="2.8368910">
        <ele>598.6</ele>
        <time>2021-06-18T11:40:39Z</time>
      </trkpt>
      <trkpt lat="39.8286190" lon="2.8369190">
        <ele>598.8</ele>
        <time>2021-06-18T11:40:40Z</time>
      </trkpt>
      <trkpt lat="39.8286450" lon="2.8369800">
        <ele>599.2</ele>
        <time>2021-06-18T11:40:42Z</time>
      </trkpt>
      <trkpt lat="39.8286670" lon="2.8370540">
        <ele>599.6</ele>
        <time>2021-06-18T11:40:44Z</time>
      </trkpt>
      <trkpt lat="39.8286860" lon="2.8371230">
        <ele>600.0</ele>
        <time>2021-06-18T11:40:46Z</time>
      </trkpt>
      <trkpt lat="39.8287290" lon="2.8371930">
        <ele>600.2</ele>
        <time>2021-06-18T11:40:49Z</time>
      </trkpt>
      <trkpt lat="39.8287380" lon="2.8372030">
        <ele>600.3</ele>
        <time>2021-06-18T11:40:50Z</time>
      </trkpt>
      <trkpt lat="39.8287570" lon="2.8372140">
        <ele>600.4</ele>
        <time>2021-06-18T11:40:53Z</time>
      </trkpt>
      <trkpt lat="39.8287560" lon="2.8372110">
        <ele>600.4</ele>
        <time>2021-06-18T11:40:55Z</time>
      </trkpt>
      <trkpt lat="39.8287580" lon="2.8372090">
        <ele>600.4</ele>
        <time>2021-06-18T11:40:59Z</time>
      </trkpt>
      <trkpt lat="39.8287580" lon="2.8372090">
        <ele>600.4</ele>
        <time>2021-06-18T11:41:03Z</time>
      </trkpt>
      <trkpt lat="39.8287580" lon="2.8372090">
        <ele>600.4</ele>
        <time>2021-06-18T11:41:17Z</time>
      </trkpt>
      <trkpt lat="39.8287580" lon="2.8372090">
        <ele>600.4</ele>
        <time>2021-06-18T11:41:22Z</time>
      </trkpt>
      <trkpt lat="39.8287580" lon="2.8372090">
        <ele>600.4</ele>
        <time>2021-06-18T11:41:42Z</time>
      </trkpt>
      <trkpt lat="39.8287580" lon="2.8372090">
        <ele>600.4</ele>
        <time>2021-06-18T11:41:44Z</time>
      </trkpt>
      <trkpt lat="39.8287300" lon="2.8372290">
        <ele>600.6</ele>
        <time>2021-06-18T11:41:53Z</time>
      </trkpt>
      <trkpt lat="39.8287300" lon="2.8372290">
        <ele>600.6</ele>
        <time>2021-06-18T11:41:55Z</time>
      </trkpt>
      <trkpt lat="39.8287280" lon="2.8372300">
        <ele>600.6</ele>
        <time>2021-06-18T11:41:57Z</time>
      </trkpt>
      <trkpt lat="39.8287110" lon="2.8372430">
        <ele>600.7</ele>
        <time>2021-06-18T11:41:58Z</time>
      </trkpt>
      <trkpt lat="39.8287000" lon="2.8372630">
        <ele>600.8</ele>
        <time>2021-06-18T11:41:59Z</time>
      </trkpt>
      <trkpt lat="39.8286980" lon="2.8372830">
        <ele>600.9</ele>
        <time>2021-06-18T11:42:00Z</time>
      </trkpt>
      <trkpt lat="39.8286790" lon="2.8373770">
        <ele>601.1</ele>
        <time>2021-06-18T11:42:03Z</time>
      </trkpt>
      <trkpt lat="39.8286280" lon="2.8375520">
        <ele>601.3</ele>
        <time>2021-06-18T11:42:09Z</time>
      </trkpt>
      <trkpt lat="39.8286000" lon="2.8376500">
        <ele>601.2</ele>
        <time>2021-06-18T11:42:12Z</time>
      </trkpt>
      <trkpt lat="39.8285600" lon="2.8377610">
        <ele>600.9</ele>
        <time>2021-06-18T11:42:15Z</time>
      </trkpt>
      <trkpt lat="39.8284920" lon="2.8379480">
        <ele>600.3</ele>
        <time>2021-06-18T11:42:19Z</time>
      </trkpt>
      <trkpt lat="39.8284410" lon="2.8380520">
        <ele>599.9</ele>
        <time>2021-06-18T11:42:21Z</time>
      </trkpt>
      <trkpt lat="39.8283580" lon="2.8381360">
        <ele>599.4</ele>
        <time>2021-06-18T11:42:23Z</time>
      </trkpt>
      <trkpt lat="39.8282520" lon="2.8381890">
        <ele>598.8</ele>
        <time>2021-06-18T11:42:25Z</time>
      </trkpt>
      <trkpt lat="39.8278110" lon="2.8383930">
        <ele>597.5</ele>
        <time>2021-06-18T11:42:32Z</time>
      </trkpt>
      <trkpt lat="39.8276960" lon="2.8384640">
        <ele>597.8</ele>
        <time>2021-06-18T11:42:34Z</time>
      </trkpt>
      <trkpt lat="39.8275620" lon="2.8385600">
        <ele>598.5</ele>
        <time>2021-06-18T11:42:37Z</time>
      </trkpt>
      <trkpt lat="39.8273750" lon="2.8386880">
        <ele>599.9</ele>
        <time>2021-06-18T11:42:42Z</time>
      </trkpt>
      <trkpt lat="39.8273010" lon="2.8387320">
        <ele>600.5</ele>
        <time>2021-06-18T11:42:44Z</time>
      </trkpt>
      <trkpt lat="39.8271970" lon="2.8388120">
        <ele>601.3</ele>
        <time>2021-06-18T11:42:47Z</time>
      </trkpt>
      <trkpt lat="39.8271630" lon="2.8388340">
        <ele>601.5</ele>
        <time>2021-06-18T11:42:48Z</time>
      </trkpt>
      <trkpt lat="39.8270350" lon="2.8388700">
        <ele>602.1</ele>
        <time>2021-06-18T11:42:52Z</time>
      </trkpt>
      <trkpt lat="39.8269980" lon="2.8388780">
        <ele>602.3</ele>
        <time>2021-06-18T11:42:53Z</time>
      </trkpt>
      <trkpt lat="39.8267450" lon="2.8389420">
        <ele>603.2</ele>
        <time>2021-06-18T11:43:00Z</time>
      </trkpt>
      <trkpt lat="39.8265270" lon="2.8390090">
        <ele>604.1</ele>
        <time>2021-06-18T11:43:06Z</time>
      </trkpt>
      <trkpt lat="39.8264220" lon="2.8390440">
        <ele>604.5</ele>
        <time>2021-06-18T11:43:09Z</time>
      </trkpt>
      <trkpt lat="39.8262920" lon="2.8390690">
        <ele>605.2</ele>
        <time>2021-06-18T11:43:13Z</time>
      </trkpt>
      <trkpt lat="39.8262590" lon="2.8390730">
        <ele>605.4</ele>
        <time>2021-06-18T11:43:14Z</time>
      </trkpt>
      <trkpt lat="39.8260690" lon="2.8391470">
        <ele>606.5</ele>
        <time>2021-06-18T11:43:20Z</time>
      </trkpt>
      <trkpt lat="39.8260440" lon="2.8391690">
        <ele>606.6</ele>
        <time>2021-06-18T11:43:21Z</time>
      </trkpt>
      <trkpt lat="39.8258650" lon="2.8394030">
        <ele>608.2</ele>
        <time>2021-06-18T11:43:29Z</time>
      </trkpt>
      <trkpt lat="39.8258250" lon="2.8396510">
        <ele>609.4</ele>
        <time>2021-06-18T11:43:35Z</time>
      </trkpt>
      <trkpt lat="39.8258140" lon="2.8397680">
        <ele>610.0</ele>
        <time>2021-06-18T11:43:38Z</time>
      </trkpt>
      <trkpt lat="39.8258050" lon="2.8398900">
        <ele>610.5</ele>
        <time>2021-06-18T11:43:41Z</time>
      </trkpt>
      <trkpt lat="39.8258050" lon="2.8399310">
        <ele>610.7</ele>
        <time>2021-06-18T11:43:42Z</time>
      </trkpt>
      <trkpt lat="39.8258250" lon="2.8401150">
        <ele>611.7</ele>
        <time>2021-06-18T11:43:47Z</time>
      </trkpt>
      <trkpt lat="39.8258160" lon="2.8402720">
        <ele>612.5</ele>
        <time>2021-06-18T11:43:52Z</time>
      </trkpt>
      <trkpt lat="39.8258210" lon="2.8405670">
        <ele>614.0</ele>
        <time>2021-06-18T11:44:00Z</time>
      </trkpt>
      <trkpt lat="39.8258190" lon="2.8406050">
        <ele>614.2</ele>
        <time>2021-06-18T11:44:01Z</time>
      </trkpt>
      <trkpt lat="39.8258080" lon="2.8407270">
        <ele>614.9</ele>
        <time>2021-06-18T11:44:04Z</time>
      </trkpt>
      <trkpt lat="39.8258140" lon="2.8408630">
        <ele>615.7</ele>
        <time>2021-06-18T11:44:08Z</time>
      </trkpt>
      <trkpt lat="39.8258340" lon="2.8411790">
        <ele>617.7</ele>
        <time>2021-06-18T11:44:16Z</time>
      </trkpt>
      <trkpt lat="39.8258480" lon="2.8413350">
        <ele>618.6</ele>
        <time>2021-06-18T11:44:20Z</time>
      </trkpt>
      <trkpt lat="39.8258670" lon="2.8414080">
        <ele>619.1</ele>
        <time>2021-06-18T11:44:22Z</time>
      </trkpt>
      <trkpt lat="39.8259190" lon="2.8415240">
        <ele>619.8</ele>
        <time>2021-06-18T11:44:26Z</time>
      </trkpt>
      <trkpt lat="39.8259410" lon="2.8415420">
        <ele>619.9</ele>
        <time>2021-06-18T11:44:27Z</time>
      </trkpt>
      <trkpt lat="39.8259630" lon="2.8415520">
        <ele>620.0</ele>
        <time>2021-06-18T11:44:28Z</time>
      </trkpt>
      <trkpt lat="39.8260500" lon="2.8415170">
        <ele>620.4</ele>
        <time>2021-06-18T11:44:31Z</time>
      </trkpt>
      <trkpt lat="39.8262180" lon="2.8413940">
        <ele>621.1</ele>
        <time>2021-06-18T11:44:37Z</time>
      </trkpt>
      <trkpt lat="39.8262500" lon="2.8413680">
        <ele>621.3</ele>
        <time>2021-06-18T11:44:38Z</time>
      </trkpt>
      <trkpt lat="39.8263180" lon="2.8413570">
        <ele>621.6</ele>
        <time>2021-06-18T11:44:40Z</time>
      </trkpt>
      <trkpt lat="39.8263860" lon="2.8413890">
        <ele>621.8</ele>
        <time>2021-06-18T11:44:42Z</time>
      </trkpt>
      <trkpt lat="39.8264410" lon="2.8414480">
        <ele>622.1</ele>
        <time>2021-06-18T11:44:44Z</time>
      </trkpt>
      <trkpt lat="39.8264920" lon="2.8415700">
        <ele>622.5</ele>
        <time>2021-06-18T11:44:47Z</time>
      </trkpt>
      <trkpt lat="39.8265740" lon="2.8418160">
        <ele>623.4</ele>
        <time>2021-06-18T11:44:53Z</time>
      </trkpt>
      <trkpt lat="39.8266010" lon="2.8421170">
        <ele>624.5</ele>
        <time>2021-06-18T11:45:00Z</time>
      </trkpt>
      <trkpt lat="39.8265830" lon="2.8423640">
        <ele>625.2</ele>
        <time>2021-06-18T11:45:06Z</time>
      </trkpt>
      <trkpt lat="39.8265730" lon="2.8424380">
        <ele>625.3</ele>
        <time>2021-06-18T11:45:08Z</time>
      </trkpt>
      <trkpt lat="39.8265610" lon="2.8427200">
        <ele>625.6</ele>
        <time>2021-06-18T11:45:15Z</time>
      </trkpt>
      <trkpt lat="39.8265410" lon="2.8430670">
        <ele>625.8</ele>
        <time>2021-06-18T11:45:22Z</time>
      </trkpt>
      <trkpt lat="39.8265130" lon="2.8434850">
        <ele>626.2</ele>
        <time>2021-06-18T11:45:30Z</time>
      </trkpt>
      <trkpt lat="39.8264860" lon="2.8438530">
        <ele>626.5</ele>
        <time>2021-06-18T11:45:37Z</time>
      </trkpt>
      <trkpt lat="39.8264430" lon="2.8441050">
        <ele>626.8</ele>
        <time>2021-06-18T11:45:42Z</time>
      </trkpt>
      <trkpt lat="39.8264330" lon="2.8441560">
        <ele>626.8</ele>
        <time>2021-06-18T11:45:43Z</time>
      </trkpt>
      <trkpt lat="39.8264020" lon="2.8443580">
        <ele>627.0</ele>
        <time>2021-06-18T11:45:47Z</time>
      </trkpt>
      <trkpt lat="39.8263910" lon="2.8444620">
        <ele>627.1</ele>
        <time>2021-06-18T11:45:49Z</time>
      </trkpt>
      <trkpt lat="39.8263690" lon="2.8446860">
        <ele>627.1</ele>
        <time>2021-06-18T11:45:54Z</time>
      </trkpt>
      <trkpt lat="39.8263570" lon="2.8447280">
        <ele>627.1</ele>
        <time>2021-06-18T11:45:55Z</time>
      </trkpt>
      <trkpt lat="39.8263210" lon="2.8449650">
        <ele>626.7</ele>
        <time>2021-06-18T11:46:00Z</time>
      </trkpt>
      <trkpt lat="39.8262600" lon="2.8452410">
        <ele>626.1</ele>
        <time>2021-06-18T11:46:05Z</time>
      </trkpt>
      <trkpt lat="39.8262420" lon="2.8452990">
        <ele>625.9</ele>
        <time>2021-06-18T11:46:06Z</time>
      </trkpt>
      <trkpt lat="39.8261690" lon="2.8456910">
        <ele>624.8</ele>
        <time>2021-06-18T11:46:12Z</time>
      </trkpt>
      <trkpt lat="39.8261250" lon="2.8459050">
        <ele>624.2</ele>
        <time>2021-06-18T11:46:15Z</time>
      </trkpt>
      <trkpt lat="39.8261090" lon="2.8462200">
        <ele>623.8</ele>
        <time>2021-06-18T11:46:19Z</time>
      </trkpt>
      <trkpt lat="39.8261400" lon="2.8466770">
        <ele>624.7</ele>
        <time>2021-06-18T11:46:26Z</time>
      </trkpt>
      <trkpt lat="39.8261700" lon="2.8469340">
        <ele>626.2</ele>
        <time>2021-06-18T11:46:31Z</time>
      </trkpt>
      <trkpt lat="39.8261750" lon="2.8470160">
        <ele>626.7</ele>
        <time>2021-06-18T11:46:33Z</time>
      </trkpt>
      <trkpt lat="39.8261900" lon="2.8471730">
        <ele>627.8</ele>
        <time>2021-06-18T11:46:37Z</time>
      </trkpt>
      <trkpt lat="39.8261910" lon="2.8472520">
        <ele>628.3</ele>
        <time>2021-06-18T11:46:39Z</time>
      </trkpt>
      <trkpt lat="39.8261620" lon="2.8474030">
        <ele>629.3</ele>
        <time>2021-06-18T11:46:43Z</time>
      </trkpt>
      <trkpt lat="39.8261210" lon="2.8475180">
        <ele>630.0</ele>
        <time>2021-06-18T11:46:46Z</time>
      </trkpt>
      <trkpt lat="39.8259580" lon="2.8477560">
        <ele>631.4</ele>
        <time>2021-06-18T11:46:53Z</time>
      </trkpt>
      <trkpt lat="39.8258300" lon="2.8478420">
        <ele>632.0</ele>
        <time>2021-06-18T11:46:57Z</time>
      </trkpt>
      <trkpt lat="39.8257060" lon="2.8479320">
        <ele>632.5</ele>
        <time>2021-06-18T11:47:01Z</time>
      </trkpt>
      <trkpt lat="39.8255660" lon="2.8481200">
        <ele>633.1</ele>
        <time>2021-06-18T11:47:07Z</time>
      </trkpt>
      <trkpt lat="39.8254520" lon="2.8483790">
        <ele>633.6</ele>
        <time>2021-06-18T11:47:14Z</time>
      </trkpt>
      <trkpt lat="39.8253410" lon="2.8486930">
        <ele>634.2</ele>
        <time>2021-06-18T11:47:22Z</time>
      </trkpt>
      <trkpt lat="39.8252500" lon="2.8489450">
        <ele>634.8</ele>
        <time>2021-06-18T11:47:29Z</time>
      </trkpt>
      <trkpt lat="39.8252160" lon="2.8490510">
        <ele>635.1</ele>
        <time>2021-06-18T11:47:33Z</time>
      </trkpt>
      <trkpt lat="39.8252020" lon="2.8490800">
        <ele>635.1</ele>
        <time>2021-06-18T11:47:34Z</time>
      </trkpt>
      <trkpt lat="39.8251070" lon="2.8493230">
        <ele>635.6</ele>
        <time>2021-06-18T11:47:42Z</time>
      </trkpt>
      <trkpt lat="39.8250730" lon="2.8494500">
        <ele>635.9</ele>
        <time>2021-06-18T11:47:46Z</time>
      </trkpt>
      <trkpt lat="39.8250400" lon="2.8495530">
        <ele>636.0</ele>
        <time>2021-06-18T11:47:49Z</time>
      </trkpt>
      <trkpt lat="39.8249910" lon="2.8498060">
        <ele>636.6</ele>
        <time>2021-06-18T11:47:55Z</time>
      </trkpt>
      <trkpt lat="39.8249590" lon="2.8499320">
        <ele>636.9</ele>
        <time>2021-06-18T11:47:59Z</time>
      </trkpt>
      <trkpt lat="39.8249690" lon="2.8499440">
        <ele>637.0</ele>
        <time>2021-06-18T11:48:00Z</time>
      </trkpt>
      <trkpt lat="39.8250100" lon="2.8498780">
        <ele>637.2</ele>
        <time>2021-06-18T11:48:04Z</time>
      </trkpt>
      <trkpt lat="39.8250200" lon="2.8497940">
        <ele>637.4</ele>
        <time>2021-06-18T11:48:08Z</time>
      </trkpt>
      <trkpt lat="39.8250110" lon="2.8497950">
        <ele>637.5</ele>
        <time>2021-06-18T11:48:09Z</time>
      </trkpt>
      <trkpt lat="39.8249750" lon="2.8499590">
        <ele>637.8</ele>
        <time>2021-06-18T11:48:14Z</time>
      </trkpt>
      <trkpt lat="39.8248890" lon="2.8502480">
        <ele>637.6</ele>
        <time>2021-06-18T11:48:21Z</time>
      </trkpt>
      <trkpt lat="39.8247810" lon="2.8504100">
        <ele>637.0</ele>
        <time>2021-06-18T11:48:26Z</time>
      </trkpt>
      <trkpt lat="39.8247200" lon="2.8504850">
        <ele>636.6</ele>
        <time>2021-06-18T11:48:28Z</time>
      </trkpt>
      <trkpt lat="39.8246490" lon="2.8505730">
        <ele>636.1</ele>
        <time>2021-06-18T11:48:30Z</time>
      </trkpt>
      <trkpt lat="39.8246100" lon="2.8506160">
        <ele>635.8</ele>
        <time>2021-06-18T11:48:31Z</time>
      </trkpt>
      <trkpt lat="39.8244460" lon="2.8508300">
        <ele>634.4</ele>
        <time>2021-06-18T11:48:35Z</time>
      </trkpt>
      <trkpt lat="39.8243980" lon="2.8508860">
        <ele>634.1</ele>
        <time>2021-06-18T11:48:36Z</time>
      </trkpt>
      <trkpt lat="39.8241210" lon="2.8511980">
        <ele>633.0</ele>
        <time>2021-06-18T11:48:41Z</time>
      </trkpt>
      <trkpt lat="39.8238950" lon="2.8514740">
        <ele>632.5</ele>
        <time>2021-06-18T11:48:45Z</time>
      </trkpt>
      <trkpt lat="39.8237730" lon="2.8515850">
        <ele>632.2</ele>
        <time>2021-06-18T11:48:47Z</time>
      </trkpt>
      <trkpt lat="39.8237090" lon="2.8516310">
        <ele>632.1</ele>
        <time>2021-06-18T11:48:48Z</time>
      </trkpt>
      <trkpt lat="39.8235870" lon="2.8517150">
        <ele>631.9</ele>
        <time>2021-06-18T11:48:50Z</time>
      </trkpt>
      <trkpt lat="39.8235280" lon="2.8517580">
        <ele>631.8</ele>
        <time>2021-06-18T11:48:51Z</time>
      </trkpt>
      <trkpt lat="39.8234330" lon="2.8518510">
        <ele>631.5</ele>
        <time>2021-06-18T11:48:53Z</time>
      </trkpt>
      <trkpt lat="39.8233200" lon="2.8520250">
        <ele>630.8</ele>
        <time>2021-06-18T11:48:56Z</time>
      </trkpt>
      <trkpt lat="39.8232930" lon="2.8520980">
        <ele>630.5</ele>
        <time>2021-06-18T11:48:57Z</time>
      </trkpt>
      <trkpt lat="39.8232430" lon="2.8522610">
        <ele>630.0</ele>
        <time>2021-06-18T11:48:59Z</time>
      </trkpt>
      <trkpt lat="39.8232310" lon="2.8523520">
        <ele>629.8</ele>
        <time>2021-06-18T11:49:00Z</time>
      </trkpt>
      <trkpt lat="39.8232010" lon="2.8526360">
        <ele>628.9</ele>
        <time>2021-06-18T11:49:03Z</time>
      </trkpt>
      <trkpt lat="39.8231430" lon="2.8528250">
        <ele>628.4</ele>
        <time>2021-06-18T11:49:05Z</time>
      </trkpt>
      <trkpt lat="39.8230960" lon="2.8529160">
        <ele>628.2</ele>
        <time>2021-06-18T11:49:06Z</time>
      </trkpt>
      <trkpt lat="39.8228140" lon="2.8534190">
        <ele>627.8</ele>
        <time>2021-06-18T11:49:12Z</time>
      </trkpt>
      <trkpt lat="39.8225520" lon="2.8538500">
        <ele>628.8</ele>
        <time>2021-06-18T11:49:18Z</time>
      </trkpt>
      <trkpt lat="39.8224860" lon="2.8539760">
        <ele>629.4</ele>
        <time>2021-06-18T11:49:20Z</time>
      </trkpt>
      <trkpt lat="39.8224720" lon="2.8541010">
        <ele>630.0</ele>
        <time>2021-06-18T11:49:22Z</time>
      </trkpt>
      <trkpt lat="39.8225430" lon="2.8544290">
        <ele>631.5</ele>
        <time>2021-06-18T11:49:28Z</time>
      </trkpt>
      <trkpt lat="39.8225540" lon="2.8545390">
        <ele>631.9</ele>
        <time>2021-06-18T11:49:30Z</time>
      </trkpt>
      <trkpt lat="39.8225440" lon="2.8546840">
        <ele>632.2</ele>
        <time>2021-06-18T11:49:33Z</time>
      </trkpt>
      <trkpt lat="39.8225240" lon="2.8548270">
        <ele>632.3</ele>
        <time>2021-06-18T11:49:36Z</time>
      </trkpt>
      <trkpt lat="39.8225040" lon="2.8549380">
        <ele>632.4</ele>
        <time>2021-06-18T11:49:39Z</time>
      </trkpt>
      <trkpt lat="39.8224340" lon="2.8552080">
        <ele>632.3</ele>
        <time>2021-06-18T11:49:45Z</time>
      </trkpt>
      <trkpt lat="39.8223850" lon="2.8554320">
        <ele>632.3</ele>
        <time>2021-06-18T11:49:49Z</time>
      </trkpt>
      <trkpt lat="39.8223780" lon="2.8555940">
        <ele>632.4</ele>
        <time>2021-06-18T11:49:52Z</time>
      </trkpt>
      <trkpt lat="39.8224000" lon="2.8557470">
        <ele>632.9</ele>
        <time>2021-06-18T11:49:55Z</time>
      </trkpt>
      <trkpt lat="39.8224190" lon="2.8558370">
        <ele>633.3</ele>
        <time>2021-06-18T11:49:57Z</time>
      </trkpt>
      <trkpt lat="39.8225130" lon="2.8559720">
        <ele>634.0</ele>
        <time>2021-06-18T11:50:01Z</time>
      </trkpt>
      <trkpt lat="39.8226650" lon="2.8560500">
        <ele>635.0</ele>
        <time>2021-06-18T11:50:06Z</time>
      </trkpt>
      <trkpt lat="39.8226890" lon="2.8560580">
        <ele>635.1</ele>
        <time>2021-06-18T11:50:07Z</time>
      </trkpt>
      <trkpt lat="39.8229200" lon="2.8561500">
        <ele>636.8</ele>
        <time>2021-06-18T11:50:15Z</time>
      </trkpt>
      <trkpt lat="39.8229500" lon="2.8561580">
        <ele>637.0</ele>
        <time>2021-06-18T11:50:19Z</time>
      </trkpt>
      <trkpt lat="39.8229500" lon="2.8561580">
        <ele>637.0</ele>
        <time>2021-06-18T11:50:26Z</time>
      </trkpt>
      <trkpt lat="39.8229500" lon="2.8561580">
        <ele>637.0</ele>
        <time>2021-06-18T11:50:29Z</time>
      </trkpt>
      <trkpt lat="39.8229500" lon="2.8561580">
        <ele>637.0</ele>
        <time>2021-06-18T11:50:40Z</time>
      </trkpt>
      <trkpt lat="39.8229500" lon="2.8561580">
        <ele>637.0</ele>
        <time>2021-06-18T11:50:44Z</time>
      </trkpt>
      <trkpt lat="39.8229500" lon="2.8561580">
        <ele>637.0</ele>
        <time>2021-06-18T11:51:05Z</time>
      </trkpt>
      <trkpt lat="39.8229500" lon="2.8561580">
        <ele>637.0</ele>
        <time>2021-06-18T11:51:13Z</time>
      </trkpt>
      <trkpt lat="39.8229500" lon="2.8561580">
        <ele>637.0</ele>
        <time>2021-06-18T11:51:20Z</time>
      </trkpt>
      <trkpt lat="39.8229500" lon="2.8561580">
        <ele>637.0</ele>
        <time>2021-06-18T11:51:27Z</time>
      </trkpt>
      <trkpt lat="39.8229500" lon="2.8561580">
        <ele>637.0</ele>
        <time>2021-06-18T11:51:37Z</time>
      </trkpt>
      <trkpt lat="39.8229500" lon="2.8561580">
        <ele>637.0</ele>
        <time>2021-06-18T11:51:41Z</time>
      </trkpt>
      <trkpt lat="39.8229500" lon="2.8561580">
        <ele>637.0</ele>
        <time>2021-06-18T11:51:49Z</time>
      </trkpt>
      <trkpt lat="39.8229500" lon="2.8561580">
        <ele>637.0</ele>
        <time>2021-06-18T11:51:52Z</time>
      </trkpt>
      <trkpt lat="39.8229500" lon="2.8561580">
        <ele>637.0</ele>
        <time>2021-06-18T11:52:16Z</time>
      </trkpt>
      <trkpt lat="39.8229500" lon="2.8561580">
        <ele>637.0</ele>
        <time>2021-06-18T11:52:40Z</time>
      </trkpt>
      <trkpt lat="39.8229500" lon="2.8561580">
        <ele>637.0</ele>
        <time>2021-06-18T11:52:45Z</time>
      </trkpt>
      <trkpt lat="39.8229500" lon="2.8561580">
        <ele>637.0</ele>
        <time>2021-06-18T11:52:52Z</time>
      </trkpt>
      <trkpt lat="39.8229500" lon="2.8561580">
        <ele>637.0</ele>
        <time>2021-06-18T11:52:57Z</time>
      </trkpt>
      <trkpt lat="39.8230140" lon="2.8561850">
        <ele>637.5</ele>
        <time>2021-06-18T11:53:01Z</time>
      </trkpt>
      <trkpt lat="39.8231230" lon="2.8562240">
        <ele>638.3</ele>
        <time>2021-06-18T11:53:06Z</time>
      </trkpt>
      <trkpt lat="39.8232910" lon="2.8562940">
        <ele>639.5</ele>
        <time>2021-06-18T11:53:12Z</time>
      </trkpt>
      <trkpt lat="39.8233250" lon="2.8563110">
        <ele>639.7</ele>
        <time>2021-06-18T11:53:13Z</time>
      </trkpt>
      <trkpt lat="39.8235120" lon="2.8563930">
        <ele>641.0</ele>
        <time>2021-06-18T11:53:19Z</time>
      </trkpt>
      <trkpt lat="39.8236290" lon="2.8564460">
        <ele>641.7</ele>
        <time>2021-06-18T11:53:24Z</time>
      </trkpt>
      <trkpt lat="39.8236520" lon="2.8564630">
        <ele>641.8</ele>
        <time>2021-06-18T11:53:25Z</time>
      </trkpt>
      <trkpt lat="39.8236950" lon="2.8565060">
        <ele>642.1</ele>
        <time>2021-06-18T11:53:27Z</time>
      </trkpt>
      <trkpt lat="39.8237210" lon="2.8565530">
        <ele>642.3</ele>
        <time>2021-06-18T11:53:29Z</time>
      </trkpt>
      <trkpt lat="39.8237380" lon="2.8565780">
        <ele>642.3</ele>
        <time>2021-06-18T11:53:30Z</time>
      </trkpt>
      <trkpt lat="39.8237660" lon="2.8566340">
        <ele>642.5</ele>
        <time>2021-06-18T11:53:32Z</time>
      </trkpt>
      <trkpt lat="39.8238290" lon="2.8567450">
        <ele>642.8</ele>
        <time>2021-06-18T11:53:36Z</time>
      </trkpt>
      <trkpt lat="39.8238740" lon="2.8568420">
        <ele>642.9</ele>
        <time>2021-06-18T11:53:39Z</time>
      </trkpt>
      <trkpt lat="39.8239120" lon="2.8569580">
        <ele>643.1</ele>
        <time>2021-06-18T11:53:42Z</time>
      </trkpt>
      <trkpt lat="39.8239290" lon="2.8569950">
        <ele>643.1</ele>
        <time>2021-06-18T11:53:43Z</time>
      </trkpt>
      <trkpt lat="39.8240230" lon="2.8572020">
        <ele>643.2</ele>
        <time>2021-06-18T11:53:49Z</time>
      </trkpt>
      <trkpt lat="39.8240360" lon="2.8572400">
        <ele>643.3</ele>
        <time>2021-06-18T11:53:50Z</time>
      </trkpt>
      <trkpt lat="39.8241400" lon="2.8574760">
        <ele>643.1</ele>
        <time>2021-06-18T11:53:56Z</time>
      </trkpt>
      <trkpt lat="39.8241740" lon="2.8577080">
        <ele>643.0</ele>
        <time>2021-06-18T11:54:00Z</time>
      </trkpt>
      <trkpt lat="39.8241970" lon="2.8578280">
        <ele>643.0</ele>
        <time>2021-06-18T11:54:02Z</time>
      </trkpt>
      <trkpt lat="39.8242530" lon="2.8579820">
        <ele>643.1</ele>
        <time>2021-06-18T11:54:05Z</time>
      </trkpt>
      <trkpt lat="39.8244380" lon="2.8582920">
        <ele>643.6</ele>
        <time>2021-06-18T11:54:12Z</time>
      </trkpt>
      <trkpt lat="39.8245980" lon="2.8585590">
        <ele>644.1</ele>
        <time>2021-06-18T11:54:18Z</time>
      </trkpt>
      <trkpt lat="39.8246500" lon="2.8586250">
        <ele>644.2</ele>
        <time>2021-06-18T11:54:20Z</time>
      </trkpt>
      <trkpt lat="39.8247380" lon="2.8588030">
        <ele>644.7</ele>
        <time>2021-06-18T11:54:25Z</time>
      </trkpt>
      <trkpt lat="39.8247530" lon="2.8588420">
        <ele>644.8</ele>
        <time>2021-06-18T11:54:26Z</time>
      </trkpt>
      <trkpt lat="39.8247980" lon="2.8589920">
        <ele>645.1</ele>
        <time>2021-06-18T11:54:30Z</time>
      </trkpt>
      <trkpt lat="39.8247990" lon="2.8590320">
        <ele>645.2</ele>
        <time>2021-06-18T11:54:31Z</time>
      </trkpt>
      <trkpt lat="39.8247600" lon="2.8592440">
        <ele>645.3</ele>
        <time>2021-06-18T11:54:36Z</time>
      </trkpt>
      <trkpt lat="39.8247170" lon="2.8593290">
        <ele>645.2</ele>
        <time>2021-06-18T11:54:38Z</time>
      </trkpt>
      <trkpt lat="39.8246190" lon="2.8595380">
        <ele>644.7</ele>
        <time>2021-06-18T11:54:42Z</time>
      </trkpt>
      <trkpt lat="39.8244360" lon="2.8599030">
        <ele>644.2</ele>
        <time>2021-06-18T11:54:49Z</time>
      </trkpt>
      <trkpt lat="39.8244120" lon="2.8599550">
        <ele>644.1</ele>
        <time>2021-06-18T11:54:50Z</time>
      </trkpt>
      <trkpt lat="39.8241800" lon="2.8604840">
        <ele>643.8</ele>
        <time>2021-06-18T11:54:59Z</time>
      </trkpt>
      <trkpt lat="39.8241520" lon="2.8605460">
        <ele>643.8</ele>
        <time>2021-06-18T11:55:00Z</time>
      </trkpt>
      <trkpt lat="39.8239120" lon="2.8610290">
        <ele>645.1</ele>
        <time>2021-06-18T11:55:09Z</time>
      </trkpt>
      <trkpt lat="39.8238030" lon="2.8611110">
        <ele>645.8</ele>
        <time>2021-06-18T11:55:12Z</time>
      </trkpt>
      <trkpt lat="39.8237640" lon="2.8611170">
        <ele>646.0</ele>
        <time>2021-06-18T11:55:13Z</time>
      </trkpt>
      <trkpt lat="39.8236010" lon="2.8610810">
        <ele>647.1</ele>
        <time>2021-06-18T11:55:18Z</time>
      </trkpt>
      <trkpt lat="39.8233800" lon="2.8610200">
        <ele>648.8</ele>
        <time>2021-06-18T11:55:25Z</time>
      </trkpt>
      <trkpt lat="39.8232670" lon="2.8611070">
        <ele>649.4</ele>
        <time>2021-06-18T11:55:29Z</time>
      </trkpt>
      <trkpt lat="39.8232440" lon="2.8612860">
        <ele>649.8</ele>
        <time>2021-06-18T11:55:33Z</time>
      </trkpt>
      <trkpt lat="39.8232840" lon="2.8615430">
        <ele>650.5</ele>
        <time>2021-06-18T11:55:39Z</time>
      </trkpt>
      <trkpt lat="39.8233030" lon="2.8616250">
        <ele>650.9</ele>
        <time>2021-06-18T11:55:41Z</time>
      </trkpt>
      <trkpt lat="39.8233490" lon="2.8617840">
        <ele>651.7</ele>
        <time>2021-06-18T11:55:45Z</time>
      </trkpt>
      <trkpt lat="39.8233520" lon="2.8618270">
        <ele>651.9</ele>
        <time>2021-06-18T11:55:46Z</time>
      </trkpt>
      <trkpt lat="39.8233220" lon="2.8619460">
        <ele>652.5</ele>
        <time>2021-06-18T11:55:49Z</time>
      </trkpt>
      <trkpt lat="39.8233080" lon="2.8619770">
        <ele>652.6</ele>
        <time>2021-06-18T11:55:50Z</time>
      </trkpt>
      <trkpt lat="39.8231720" lon="2.8621520">
        <ele>653.6</ele>
        <time>2021-06-18T11:55:56Z</time>
      </trkpt>
      <trkpt lat="39.8230910" lon="2.8623640">
        <ele>654.4</ele>
        <time>2021-06-18T11:56:02Z</time>
      </trkpt>
      <trkpt lat="39.8230840" lon="2.8626750">
        <ele>655.5</ele>
        <time>2021-06-18T11:56:09Z</time>
      </trkpt>
      <trkpt lat="39.8230680" lon="2.8629770">
        <ele>656.6</ele>
        <time>2021-06-18T11:56:16Z</time>
      </trkpt>
      <trkpt lat="39.8229400" lon="2.8632190">
        <ele>656.5</ele>
        <time>2021-06-18T11:56:22Z</time>
      </trkpt>
      <trkpt lat="39.8227690" lon="2.8635110">
        <ele>655.8</ele>
        <time>2021-06-18T11:56:28Z</time>
      </trkpt>
      <trkpt lat="39.8225730" lon="2.8638230">
        <ele>655.7</ele>
        <time>2021-06-18T11:56:34Z</time>
      </trkpt>
      <trkpt lat="39.8225440" lon="2.8638760">
        <ele>655.8</ele>
        <time>2021-06-18T11:56:35Z</time>
      </trkpt>
      <trkpt lat="39.8223900" lon="2.8641150">
        <ele>656.3</ele>
        <time>2021-06-18T11:56:40Z</time>
      </trkpt>
      <trkpt lat="39.8222690" lon="2.8643080">
        <ele>657.1</ele>
        <time>2021-06-18T11:56:44Z</time>
      </trkpt>
      <trkpt lat="39.8221500" lon="2.8644890">
        <ele>658.1</ele>
        <time>2021-06-18T11:56:48Z</time>
      </trkpt>
      <trkpt lat="39.8220810" lon="2.8646270">
        <ele>658.8</ele>
        <time>2021-06-18T11:56:51Z</time>
      </trkpt>
      <trkpt lat="39.8220030" lon="2.8648240">
        <ele>659.8</ele>
        <time>2021-06-18T11:56:56Z</time>
      </trkpt>
      <trkpt lat="39.8220010" lon="2.8650760">
        <ele>660.9</ele>
        <time>2021-06-18T11:57:02Z</time>
      </trkpt>
      <trkpt lat="39.8220780" lon="2.8652780">
        <ele>661.7</ele>
        <time>2021-06-18T11:57:07Z</time>
      </trkpt>
      <trkpt lat="39.8222040" lon="2.8655430">
        <ele>663.2</ele>
        <time>2021-06-18T11:57:14Z</time>
      </trkpt>
      <trkpt lat="39.8222160" lon="2.8656260">
        <ele>663.6</ele>
        <time>2021-06-18T11:57:16Z</time>
      </trkpt>
      <trkpt lat="39.8221850" lon="2.8657510">
        <ele>664.1</ele>
        <time>2021-06-18T11:57:19Z</time>
      </trkpt>
      <trkpt lat="39.8220730" lon="2.8659240">
        <ele>664.5</ele>
        <time>2021-06-18T11:57:24Z</time>
      </trkpt>
      <trkpt lat="39.8220220" lon="2.8660000">
        <ele>664.5</ele>
        <time>2021-06-18T11:57:26Z</time>
      </trkpt>
      <trkpt lat="39.8218950" lon="2.8662020">
        <ele>664.6</ele>
        <time>2021-06-18T11:57:31Z</time>
      </trkpt>
      <trkpt lat="39.8217970" lon="2.8663320">
        <ele>664.6</ele>
        <time>2021-06-18T11:57:34Z</time>
      </trkpt>
      <trkpt lat="39.8217290" lon="2.8664260">
        <ele>664.5</ele>
        <time>2021-06-18T11:57:36Z</time>
      </trkpt>
      <trkpt lat="39.8216180" lon="2.8666140">
        <ele>664.5</ele>
        <time>2021-06-18T11:57:40Z</time>
      </trkpt>
      <trkpt lat="39.8215920" lon="2.8666660">
        <ele>664.5</ele>
        <time>2021-06-18T11:57:41Z</time>
      </trkpt>
      <trkpt lat="39.8215650" lon="2.8667210">
        <ele>664.6</ele>
        <time>2021-06-18T11:57:42Z</time>
      </trkpt>
      <trkpt lat="39.8215260" lon="2.8668300">
        <ele>664.7</ele>
        <time>2021-06-18T11:57:44Z</time>
      </trkpt>
      <trkpt lat="39.8215100" lon="2.8669500">
        <ele>664.9</ele>
        <time>2021-06-18T11:57:46Z</time>
      </trkpt>
      <trkpt lat="39.8215120" lon="2.8670690">
        <ele>665.1</ele>
        <time>2021-06-18T11:57:48Z</time>
      </trkpt>
      <trkpt lat="39.8215350" lon="2.8672260">
        <ele>665.5</ele>
        <time>2021-06-18T11:57:51Z</time>
      </trkpt>
      <trkpt lat="39.8215940" lon="2.8674710">
        <ele>666.2</ele>
        <time>2021-06-18T11:57:56Z</time>
      </trkpt>
      <trkpt lat="39.8216280" lon="2.8675660">
        <ele>666.5</ele>
        <time>2021-06-18T11:57:58Z</time>
      </trkpt>
      <trkpt lat="39.8216620" lon="2.8676620">
        <ele>666.8</ele>
        <time>2021-06-18T11:58:00Z</time>
      </trkpt>
      <trkpt lat="39.8216950" lon="2.8677560">
        <ele>667.1</ele>
        <time>2021-06-18T11:58:02Z</time>
      </trkpt>
      <trkpt lat="39.8217190" lon="2.8678530">
        <ele>667.5</ele>
        <time>2021-06-18T11:58:04Z</time>
      </trkpt>
      <trkpt lat="39.8217460" lon="2.8679480">
        <ele>667.8</ele>
        <time>2021-06-18T11:58:06Z</time>
      </trkpt>
      <trkpt lat="39.8218090" lon="2.8682960">
        <ele>669.0</ele>
        <time>2021-06-18T11:58:13Z</time>
      </trkpt>
      <trkpt lat="39.8218560" lon="2.8686010">
        <ele>670.1</ele>
        <time>2021-06-18T11:58:19Z</time>
      </trkpt>
      <trkpt lat="39.8218670" lon="2.8689240">
        <ele>671.3</ele>
        <time>2021-06-18T11:58:25Z</time>
      </trkpt>
      <trkpt lat="39.8218610" lon="2.8690280">
        <ele>671.7</ele>
        <time>2021-06-18T11:58:27Z</time>
      </trkpt>
      <trkpt lat="39.8217940" lon="2.8695330">
        <ele>673.0</ele>
        <time>2021-06-18T11:58:37Z</time>
      </trkpt>
      <trkpt lat="39.8216820" lon="2.8699250">
        <ele>672.6</ele>
        <time>2021-06-18T11:58:44Z</time>
      </trkpt>
      <trkpt lat="39.8214770" lon="2.8703180">
        <ele>672.1</ele>
        <time>2021-06-18T11:58:51Z</time>
      </trkpt>
      <trkpt lat="39.8212630" lon="2.8708070">
        <ele>671.5</ele>
        <time>2021-06-18T11:58:59Z</time>
      </trkpt>
      <trkpt lat="39.8211130" lon="2.8711640">
        <ele>670.8</ele>
        <time>2021-06-18T11:59:04Z</time>
      </trkpt>
      <trkpt lat="39.8209000" lon="2.8716700">
        <ele>669.1</ele>
        <time>2021-06-18T11:59:11Z</time>
      </trkpt>
      <trkpt lat="39.8208680" lon="2.8717520">
        <ele>668.7</ele>
        <time>2021-06-18T11:59:12Z</time>
      </trkpt>
      <trkpt lat="39.8206480" lon="2.8722730">
        <ele>667.3</ele>
        <time>2021-06-18T11:59:18Z</time>
      </trkpt>
      <trkpt lat="39.8204150" lon="2.8727430">
        <ele>667.6</ele>
        <time>2021-06-18T11:59:24Z</time>
      </trkpt>
      <trkpt lat="39.8203910" lon="2.8728240">
        <ele>667.7</ele>
        <time>2021-06-18T11:59:25Z</time>
      </trkpt>
      <trkpt lat="39.8203660" lon="2.8730720">
        <ele>668.2</ele>
        <time>2021-06-18T11:59:28Z</time>
      </trkpt>
      <trkpt lat="39.8203950" lon="2.8733620">
        <ele>669.0</ele>
        <time>2021-06-18T11:59:32Z</time>
      </trkpt>
      <trkpt lat="39.8204860" lon="2.8738460">
        <ele>669.8</ele>
        <time>2021-06-18T11:59:39Z</time>
      </trkpt>
      <trkpt lat="39.8206150" lon="2.8742850">
        <ele>670.0</ele>
        <time>2021-06-18T11:59:46Z</time>
      </trkpt>
      <trkpt lat="39.8206220" lon="2.8743510">
        <ele>669.9</ele>
        <time>2021-06-18T11:59:47Z</time>
      </trkpt>
      <trkpt lat="39.8205850" lon="2.8744770">
        <ele>669.5</ele>
        <time>2021-06-18T11:59:49Z</time>
      </trkpt>
      <trkpt lat="39.8204050" lon="2.8747200">
        <ele>667.8</ele>
        <time>2021-06-18T11:59:53Z</time>
      </trkpt>
      <trkpt lat="39.8202970" lon="2.8748480">
        <ele>666.6</ele>
        <time>2021-06-18T11:59:55Z</time>
      </trkpt>
      <trkpt lat="39.8201930" lon="2.8749980">
        <ele>665.3</ele>
        <time>2021-06-18T11:59:57Z</time>
      </trkpt>
      <trkpt lat="39.8201650" lon="2.8751040">
        <ele>664.6</ele>
        <time>2021-06-18T11:59:58Z</time>
      </trkpt>
      <trkpt lat="39.8201520" lon="2.8752240">
        <ele>663.8</ele>
        <time>2021-06-18T11:59:59Z</time>
      </trkpt>
      <trkpt lat="39.8201040" lon="2.8755930">
        <ele>661.6</ele>
        <time>2021-06-18T12:00:02Z</time>
      </trkpt>
      <trkpt lat="39.8199820" lon="2.8759570">
        <ele>659.3</ele>
        <time>2021-06-18T12:00:05Z</time>
      </trkpt>
      <trkpt lat="39.8199210" lon="2.8760710">
        <ele>658.6</ele>
        <time>2021-06-18T12:00:06Z</time>
      </trkpt>
      <trkpt lat="39.8198500" lon="2.8761770">
        <ele>657.9</ele>
        <time>2021-06-18T12:00:07Z</time>
      </trkpt>
      <trkpt lat="39.8196770" lon="2.8763390">
        <ele>656.4</ele>
        <time>2021-06-18T12:00:09Z</time>
      </trkpt>
      <trkpt lat="39.8194710" lon="2.8764280">
        <ele>655.1</ele>
        <time>2021-06-18T12:00:11Z</time>
      </trkpt>
      <trkpt lat="39.8193630" lon="2.8764590">
        <ele>654.4</ele>
        <time>2021-06-18T12:00:12Z</time>
      </trkpt>
      <trkpt lat="39.8188320" lon="2.8765290">
        <ele>652.1</ele>
        <time>2021-06-18T12:00:17Z</time>
      </trkpt>
      <trkpt lat="39.8186300" lon="2.8765990">
        <ele>651.3</ele>
        <time>2021-06-18T12:00:19Z</time>
      </trkpt>
      <trkpt lat="39.8185360" lon="2.8766640">
        <ele>650.9</ele>
        <time>2021-06-18T12:00:20Z</time>
      </trkpt>
      <trkpt lat="39.8184520" lon="2.8767440">
        <ele>650.4</ele>
        <time>2021-06-18T12:00:21Z</time>
      </trkpt>
      <trkpt lat="39.8183130" lon="2.8769310">
        <ele>649.6</ele>
        <time>2021-06-18T12:00:23Z</time>
      </trkpt>
      <trkpt lat="39.8182020" lon="2.8771310">
        <ele>648.8</ele>
        <time>2021-06-18T12:00:25Z</time>
      </trkpt>
      <trkpt lat="39.8181230" lon="2.8772280">
        <ele>648.3</ele>
        <time>2021-06-18T12:00:26Z</time>
      </trkpt>
      <trkpt lat="39.8180610" lon="2.8772760">
        <ele>647.9</ele>
        <time>2021-06-18T12:00:27Z</time>
      </trkpt>
      <trkpt lat="39.8178790" lon="2.8773320">
        <ele>647.0</ele>
        <time>2021-06-18T12:00:29Z</time>
      </trkpt>
      <trkpt lat="39.8176870" lon="2.8773490">
        <ele>646.1</ele>
        <time>2021-06-18T12:00:31Z</time>
      </trkpt>
      <trkpt lat="39.8175030" lon="2.8773050">
        <ele>645.0</ele>
        <time>2021-06-18T12:00:33Z</time>
      </trkpt>
      <trkpt lat="39.8172150" lon="2.8772340">
        <ele>643.6</ele>
        <time>2021-06-18T12:00:36Z</time>
      </trkpt>
      <trkpt lat="39.8170450" lon="2.8772740">
        <ele>642.7</ele>
        <time>2021-06-18T12:00:38Z</time>
      </trkpt>
      <trkpt lat="39.8169410" lon="2.8774200">
        <ele>641.7</ele>
        <time>2021-06-18T12:00:40Z</time>
      </trkpt>
      <trkpt lat="39.8169090" lon="2.8776440">
        <ele>640.7</ele>
        <time>2021-06-18T12:00:42Z</time>
      </trkpt>
      <trkpt lat="39.8169180" lon="2.8777640">
        <ele>640.2</ele>
        <time>2021-06-18T12:00:43Z</time>
      </trkpt>
      <trkpt lat="39.8169400" lon="2.8778830">
        <ele>639.8</ele>
        <time>2021-06-18T12:00:44Z</time>
      </trkpt>
      <trkpt lat="39.8170000" lon="2.8780840">
        <ele>639.0</ele>
        <time>2021-06-18T12:00:46Z</time>
      </trkpt>
      <trkpt lat="39.8170160" lon="2.8781740">
        <ele>638.6</ele>
        <time>2021-06-18T12:00:47Z</time>
      </trkpt>
      <trkpt lat="39.8170050" lon="2.8782500">
        <ele>638.2</ele>
        <time>2021-06-18T12:00:48Z</time>
      </trkpt>
      <trkpt lat="39.8169590" lon="2.8782990">
        <ele>637.7</ele>
        <time>2021-06-18T12:00:49Z</time>
      </trkpt>
      <trkpt lat="39.8168930" lon="2.8783090">
        <ele>637.2</ele>
        <time>2021-06-18T12:00:50Z</time>
      </trkpt>
      <trkpt lat="39.8168250" lon="2.8782880">
        <ele>636.6</ele>
        <time>2021-06-18T12:00:51Z</time>
      </trkpt>
      <trkpt lat="39.8166820" lon="2.8782270">
        <ele>635.5</ele>
        <time>2021-06-18T12:00:53Z</time>
      </trkpt>
      <trkpt lat="39.8165230" lon="2.8782240">
        <ele>634.5</ele>
        <time>2021-06-18T12:00:55Z</time>
      </trkpt>
      <trkpt lat="39.8164440" lon="2.8782410">
        <ele>634.0</ele>
        <time>2021-06-18T12:00:56Z</time>
      </trkpt>
      <trkpt lat="39.8163660" lon="2.8782750">
        <ele>633.4</ele>
        <time>2021-06-18T12:00:57Z</time>
      </trkpt>
      <trkpt lat="39.8162080" lon="2.8783690">
        <ele>632.3</ele>
        <time>2021-06-18T12:00:59Z</time>
      </trkpt>
      <trkpt lat="39.8161360" lon="2.8784350">
        <ele>631.7</ele>
        <time>2021-06-18T12:01:00Z</time>
      </trkpt>
      <trkpt lat="39.8160680" lon="2.8785150">
        <ele>630.9</ele>
        <time>2021-06-18T12:01:01Z</time>
      </trkpt>
      <trkpt lat="39.8159570" lon="2.8787050">
        <ele>629.4</ele>
        <time>2021-06-18T12:01:03Z</time>
      </trkpt>
      <trkpt lat="39.8157100" lon="2.8792640">
        <ele>625.3</ele>
        <time>2021-06-18T12:01:08Z</time>
      </trkpt>
      <trkpt lat="39.8156800" lon="2.8795220">
        <ele>623.7</ele>
        <time>2021-06-18T12:01:10Z</time>
      </trkpt>
      <trkpt lat="39.8156900" lon="2.8796580">
        <ele>623.0</ele>
        <time>2021-06-18T12:01:11Z</time>
      </trkpt>
      <trkpt lat="39.8157650" lon="2.8802300">
        <ele>620.3</ele>
        <time>2021-06-18T12:01:15Z</time>
      </trkpt>
      <trkpt lat="39.8157830" lon="2.8803700">
        <ele>619.7</ele>
        <time>2021-06-18T12:01:16Z</time>
      </trkpt>
      <trkpt lat="39.8157930" lon="2.8805050">
        <ele>619.2</ele>
        <time>2021-06-18T12:01:17Z</time>
      </trkpt>
      <trkpt lat="39.8157780" lon="2.8807590">
        <ele>618.1</ele>
        <time>2021-06-18T12:01:19Z</time>
      </trkpt>
      <trkpt lat="39.8156570" lon="2.8809720">
        <ele>617.0</ele>
        <time>2021-06-18T12:01:21Z</time>
      </trkpt>
      <trkpt lat="39.8154650" lon="2.8812780">
        <ele>615.7</ele>
        <time>2021-06-18T12:01:24Z</time>
      </trkpt>
      <trkpt lat="39.8153910" lon="2.8815160">
        <ele>614.7</ele>
        <time>2021-06-18T12:01:26Z</time>
      </trkpt>
      <trkpt lat="39.8153780" lon="2.8817700">
        <ele>613.8</ele>
        <time>2021-06-18T12:01:28Z</time>
      </trkpt>
      <trkpt lat="39.8153940" lon="2.8818960">
        <ele>613.2</ele>
        <time>2021-06-18T12:01:29Z</time>
      </trkpt>
      <trkpt lat="39.8154200" lon="2.8820240">
        <ele>612.6</ele>
        <time>2021-06-18T12:01:30Z</time>
      </trkpt>
      <trkpt lat="39.8155130" lon="2.8824190">
        <ele>610.6</ele>
        <time>2021-06-18T12:01:33Z</time>
      </trkpt>
      <trkpt lat="39.8155310" lon="2.8825620">
        <ele>609.8</ele>
        <time>2021-06-18T12:01:34Z</time>
      </trkpt>
      <trkpt lat="39.8155360" lon="2.8828470">
        <ele>608.3</ele>
        <time>2021-06-18T12:01:36Z</time>
      </trkpt>
      <trkpt lat="39.8155110" lon="2.8832770">
        <ele>606.2</ele>
        <time>2021-06-18T12:01:39Z</time>
      </trkpt>
      <trkpt lat="39.8154810" lon="2.8835650">
        <ele>604.9</ele>
        <time>2021-06-18T12:01:41Z</time>
      </trkpt>
      <trkpt lat="39.8154450" lon="2.8841310">
        <ele>602.7</ele>
        <time>2021-06-18T12:01:45Z</time>
      </trkpt>
      <trkpt lat="39.8154240" lon="2.8844010">
        <ele>601.6</ele>
        <time>2021-06-18T12:01:47Z</time>
      </trkpt>
      <trkpt lat="39.8153710" lon="2.8846620">
        <ele>600.3</ele>
        <time>2021-06-18T12:01:49Z</time>
      </trkpt>
      <trkpt lat="39.8153460" lon="2.8847910">
        <ele>599.7</ele>
        <time>2021-06-18T12:01:50Z</time>
      </trkpt>
      <trkpt lat="39.8153550" lon="2.8850340">
        <ele>598.4</ele>
        <time>2021-06-18T12:01:52Z</time>
      </trkpt>
      <trkpt lat="39.8154500" lon="2.8852540">
        <ele>596.9</ele>
        <time>2021-06-18T12:01:54Z</time>
      </trkpt>
      <trkpt lat="39.8155190" lon="2.8853590">
        <ele>596.1</ele>
        <time>2021-06-18T12:01:55Z</time>
      </trkpt>
      <trkpt lat="39.8156400" lon="2.8855850">
        <ele>594.5</ele>
        <time>2021-06-18T12:01:57Z</time>
      </trkpt>
      <trkpt lat="39.8156800" lon="2.8857130">
        <ele>593.6</ele>
        <time>2021-06-18T12:01:58Z</time>
      </trkpt>
      <trkpt lat="39.8158450" lon="2.8862280">
        <ele>590.9</ele>
        <time>2021-06-18T12:02:02Z</time>
      </trkpt>
      <trkpt lat="39.8159040" lon="2.8863410">
        <ele>590.3</ele>
        <time>2021-06-18T12:02:03Z</time>
      </trkpt>
      <trkpt lat="39.8159550" lon="2.8864530">
        <ele>589.7</ele>
        <time>2021-06-18T12:02:04Z</time>
      </trkpt>
      <trkpt lat="39.8159840" lon="2.8866610">
        <ele>588.4</ele>
        <time>2021-06-18T12:02:06Z</time>
      </trkpt>
      <trkpt lat="39.8158980" lon="2.8868940">
        <ele>586.9</ele>
        <time>2021-06-18T12:02:08Z</time>
      </trkpt>
      <trkpt lat="39.8157230" lon="2.8871890">
        <ele>585.1</ele>
        <time>2021-06-18T12:02:11Z</time>
      </trkpt>
      <trkpt lat="39.8156110" lon="2.8874050">
        <ele>584.2</ele>
        <time>2021-06-18T12:02:13Z</time>
      </trkpt>
      <trkpt lat="39.8154270" lon="2.8878810">
        <ele>582.5</ele>
        <time>2021-06-18T12:02:17Z</time>
      </trkpt>
      <trkpt lat="39.8153670" lon="2.8879860">
        <ele>582.0</ele>
        <time>2021-06-18T12:02:18Z</time>
      </trkpt>
      <trkpt lat="39.8152960" lon="2.8880830">
        <ele>581.4</ele>
        <time>2021-06-18T12:02:19Z</time>
      </trkpt>
      <trkpt lat="39.8151340" lon="2.8882490">
        <ele>580.0</ele>
        <time>2021-06-18T12:02:21Z</time>
      </trkpt>
      <trkpt lat="39.8146610" lon="2.8886140">
        <ele>576.1</ele>
        <time>2021-06-18T12:02:26Z</time>
      </trkpt>
      <trkpt lat="39.8145640" lon="2.8886900">
        <ele>575.5</ele>
        <time>2021-06-18T12:02:27Z</time>
      </trkpt>
      <trkpt lat="39.8140940" lon="2.8890340">
        <ele>573.4</ele>
        <time>2021-06-18T12:02:32Z</time>
      </trkpt>
      <trkpt lat="39.8140150" lon="2.8890930">
        <ele>573.1</ele>
        <time>2021-06-18T12:02:33Z</time>
      </trkpt>
      <trkpt lat="39.8136280" lon="2.8893310">
        <ele>571.6</ele>
        <time>2021-06-18T12:02:38Z</time>
      </trkpt>
      <trkpt lat="39.8134780" lon="2.8894070">
        <ele>571.2</ele>
        <time>2021-06-18T12:02:40Z</time>
      </trkpt>
      <trkpt lat="39.8133670" lon="2.8894770">
        <ele>570.8</ele>
        <time>2021-06-18T12:02:42Z</time>
      </trkpt>
      <trkpt lat="39.8133430" lon="2.8895880">
        <ele>569.9</ele>
        <time>2021-06-18T12:02:44Z</time>
      </trkpt>
      <trkpt lat="39.8133560" lon="2.8896520">
        <ele>569.4</ele>
        <time>2021-06-18T12:02:45Z</time>
      </trkpt>
      <trkpt lat="39.8134200" lon="2.8897790">
        <ele>568.2</ele>
        <time>2021-06-18T12:02:47Z</time>
      </trkpt>
      <trkpt lat="39.8134620" lon="2.8898480">
        <ele>567.5</ele>
        <time>2021-06-18T12:02:48Z</time>
      </trkpt>
      <trkpt lat="39.8136280" lon="2.8900830">
        <ele>565.3</ele>
        <time>2021-06-18T12:02:51Z</time>
      </trkpt>
      <trkpt lat="39.8138710" lon="2.8904070">
        <ele>562.8</ele>
        <time>2021-06-18T12:02:55Z</time>
      </trkpt>
      <trkpt lat="39.8139460" lon="2.8904750">
        <ele>562.3</ele>
        <time>2021-06-18T12:02:56Z</time>
      </trkpt>
      <trkpt lat="39.8142730" lon="2.8906880">
        <ele>560.0</ele>
        <time>2021-06-18T12:03:00Z</time>
      </trkpt>
      <trkpt lat="39.8143600" lon="2.8907560">
        <ele>559.3</ele>
        <time>2021-06-18T12:03:01Z</time>
      </trkpt>
      <trkpt lat="39.8144230" lon="2.8908230">
        <ele>558.8</ele>
        <time>2021-06-18T12:03:02Z</time>
      </trkpt>
      <trkpt lat="39.8144860" lon="2.8909100">
        <ele>558.1</ele>
        <time>2021-06-18T12:03:03Z</time>
      </trkpt>
      <trkpt lat="39.8145460" lon="2.8910310">
        <ele>557.3</ele>
        <time>2021-06-18T12:03:04Z</time>
      </trkpt>
      <trkpt lat="39.8145840" lon="2.8911490">
        <ele>556.5</ele>
        <time>2021-06-18T12:03:05Z</time>
      </trkpt>
      <trkpt lat="39.8145950" lon="2.8912780">
        <ele>555.8</ele>
        <time>2021-06-18T12:03:06Z</time>
      </trkpt>
      <trkpt lat="39.8146070" lon="2.8913750">
        <ele>555.3</ele>
        <time>2021-06-18T12:03:07Z</time>
      </trkpt>
      <trkpt lat="39.8146410" lon="2.8916310">
        <ele>554.0</ele>
        <time>2021-06-18T12:03:09Z</time>
      </trkpt>
      <trkpt lat="39.8146760" lon="2.8917770">
        <ele>553.3</ele>
        <time>2021-06-18T12:03:10Z</time>
      </trkpt>
      <trkpt lat="39.8147370" lon="2.8919990">
        <ele>552.0</ele>
        <time>2021-06-18T12:03:12Z</time>
      </trkpt>
      <trkpt lat="39.8147910" lon="2.8921090">
        <ele>551.4</ele>
        <time>2021-06-18T12:03:13Z</time>
      </trkpt>
      <trkpt lat="39.8150650" lon="2.8926540">
        <ele>548.2</ele>
        <time>2021-06-18T12:03:18Z</time>
      </trkpt>
      <trkpt lat="39.8151210" lon="2.8927710">
        <ele>547.5</ele>
        <time>2021-06-18T12:03:19Z</time>
      </trkpt>
      <trkpt lat="39.8152080" lon="2.8930460">
        <ele>546.0</ele>
        <time>2021-06-18T12:03:21Z</time>
      </trkpt>
      <trkpt lat="39.8152860" lon="2.8936080">
        <ele>543.4</ele>
        <time>2021-06-18T12:03:25Z</time>
      </trkpt>
      <trkpt lat="39.8153710" lon="2.8941880">
        <ele>540.8</ele>
        <time>2021-06-18T12:03:29Z</time>
      </trkpt>
      <trkpt lat="39.8153940" lon="2.8943340">
        <ele>540.2</ele>
        <time>2021-06-18T12:03:30Z</time>
      </trkpt>
      <trkpt lat="39.8154300" lon="2.8946180">
        <ele>539.0</ele>
        <time>2021-06-18T12:03:32Z</time>
      </trkpt>
      <trkpt lat="39.8154490" lon="2.8947570">
        <ele>538.4</ele>
        <time>2021-06-18T12:03:33Z</time>
      </trkpt>
      <trkpt lat="39.8154920" lon="2.8950470">
        <ele>537.1</ele>
        <time>2021-06-18T12:03:35Z</time>
      </trkpt>
      <trkpt lat="39.8155150" lon="2.8951940">
        <ele>536.5</ele>
        <time>2021-06-18T12:03:36Z</time>
      </trkpt>
      <trkpt lat="39.8156260" lon="2.8960180">
        <ele>533.1</ele>
        <time>2021-06-18T12:03:42Z</time>
      </trkpt>
      <trkpt lat="39.8156510" lon="2.8961360">
        <ele>532.5</ele>
        <time>2021-06-18T12:03:43Z</time>
      </trkpt>
      <trkpt lat="39.8157410" lon="2.8963370">
        <ele>531.4</ele>
        <time>2021-06-18T12:03:45Z</time>
      </trkpt>
      <trkpt lat="39.8158970" lon="2.8964620">
        <ele>530.4</ele>
        <time>2021-06-18T12:03:47Z</time>
      </trkpt>
      <trkpt lat="39.8160720" lon="2.8964620">
        <ele>529.3</ele>
        <time>2021-06-18T12:03:49Z</time>
      </trkpt>
      <trkpt lat="39.8162480" lon="2.8963750">
        <ele>528.3</ele>
        <time>2021-06-18T12:03:51Z</time>
      </trkpt>
      <trkpt lat="39.8163160" lon="2.8962820">
        <ele>527.8</ele>
        <time>2021-06-18T12:03:52Z</time>
      </trkpt>
      <trkpt lat="39.8163590" lon="2.8961590">
        <ele>527.2</ele>
        <time>2021-06-18T12:03:53Z</time>
      </trkpt>
      <trkpt lat="39.8163880" lon="2.8960190">
        <ele>526.7</ele>
        <time>2021-06-18T12:03:54Z</time>
      </trkpt>
      <trkpt lat="39.8165190" lon="2.8953420">
        <ele>524.6</ele>
        <time>2021-06-18T12:03:59Z</time>
      </trkpt>
      <trkpt lat="39.8166690" lon="2.8945610">
        <ele>521.7</ele>
        <time>2021-06-18T12:04:05Z</time>
      </trkpt>
      <trkpt lat="39.8167250" lon="2.8943330">
        <ele>520.9</ele>
        <time>2021-06-18T12:04:07Z</time>
      </trkpt>
      <trkpt lat="39.8168240" lon="2.8940720">
        <ele>520.3</ele>
        <time>2021-06-18T12:04:09Z</time>
      </trkpt>
      <trkpt lat="39.8168870" lon="2.8939810">
        <ele>520.1</ele>
        <time>2021-06-18T12:04:10Z</time>
      </trkpt>
      <trkpt lat="39.8169610" lon="2.8939110">
        <ele>519.8</ele>
        <time>2021-06-18T12:04:11Z</time>
      </trkpt>
      <trkpt lat="39.8171290" lon="2.8938340">
        <ele>519.2</ele>
        <time>2021-06-18T12:04:13Z</time>
      </trkpt>
      <trkpt lat="39.8172840" lon="2.8937680">
        <ele>518.5</ele>
        <time>2021-06-18T12:04:15Z</time>
      </trkpt>
      <trkpt lat="39.8173330" lon="2.8937120">
        <ele>518.3</ele>
        <time>2021-06-18T12:04:16Z</time>
      </trkpt>
      <trkpt lat="39.8173970" lon="2.8936080">
        <ele>517.6</ele>
        <time>2021-06-18T12:04:17Z</time>
      </trkpt>
      <trkpt lat="39.8174680" lon="2.8933900">
        <ele>516.5</ele>
        <time>2021-06-18T12:04:19Z</time>
      </trkpt>
      <trkpt lat="39.8175250" lon="2.8931540">
        <ele>515.4</ele>
        <time>2021-06-18T12:04:21Z</time>
      </trkpt>
      <trkpt lat="39.8176440" lon="2.8926850">
        <ele>513.7</ele>
        <time>2021-06-18T12:04:25Z</time>
      </trkpt>
      <trkpt lat="39.8176750" lon="2.8925810">
        <ele>513.3</ele>
        <time>2021-06-18T12:04:26Z</time>
      </trkpt>
      <trkpt lat="39.8177770" lon="2.8924360">
        <ele>512.4</ele>
        <time>2021-06-18T12:04:28Z</time>
      </trkpt>
      <trkpt lat="39.8179290" lon="2.8924150">
        <ele>511.2</ele>
        <time>2021-06-18T12:04:30Z</time>
      </trkpt>
      <trkpt lat="39.8179970" lon="2.8924400">
        <ele>510.6</ele>
        <time>2021-06-18T12:04:31Z</time>
      </trkpt>
      <trkpt lat="39.8181920" lon="2.8925090">
        <ele>509.1</ele>
        <time>2021-06-18T12:04:33Z</time>
      </trkpt>
      <trkpt lat="39.8184830" lon="2.8926180">
        <ele>507.0</ele>
        <time>2021-06-18T12:04:36Z</time>
      </trkpt>
      <trkpt lat="39.8186890" lon="2.8926610">
        <ele>505.6</ele>
        <time>2021-06-18T12:04:38Z</time>
      </trkpt>
      <trkpt lat="39.8190140" lon="2.8926850">
        <ele>503.3</ele>
        <time>2021-06-18T12:04:41Z</time>
      </trkpt>
      <trkpt lat="39.8194680" lon="2.8927150">
        <ele>500.5</ele>
        <time>2021-06-18T12:04:45Z</time>
      </trkpt>
      <trkpt lat="39.8196720" lon="2.8927100">
        <ele>499.3</ele>
        <time>2021-06-18T12:04:47Z</time>
      </trkpt>
      <trkpt lat="39.8197640" lon="2.8926790">
        <ele>498.7</ele>
        <time>2021-06-18T12:04:48Z</time>
      </trkpt>
      <trkpt lat="39.8198380" lon="2.8926200">
        <ele>498.1</ele>
        <time>2021-06-18T12:04:49Z</time>
      </trkpt>
      <trkpt lat="39.8199030" lon="2.8925440">
        <ele>497.6</ele>
        <time>2021-06-18T12:04:50Z</time>
      </trkpt>
      <trkpt lat="39.8200770" lon="2.8923360">
        <ele>496.2</ele>
        <time>2021-06-18T12:04:53Z</time>
      </trkpt>
      <trkpt lat="39.8201400" lon="2.8922890">
        <ele>495.7</ele>
        <time>2021-06-18T12:04:54Z</time>
      </trkpt>
      <trkpt lat="39.8202120" lon="2.8922650">
        <ele>495.2</ele>
        <time>2021-06-18T12:04:55Z</time>
      </trkpt>
      <trkpt lat="39.8203750" lon="2.8923170">
        <ele>494.1</ele>
        <time>2021-06-18T12:04:57Z</time>
      </trkpt>
      <trkpt lat="39.8206880" lon="2.8923930">
        <ele>493.0</ele>
        <time>2021-06-18T12:05:02Z</time>
      </trkpt>
      <trkpt lat="39.8207260" lon="2.8924040">
        <ele>493.0</ele>
        <time>2021-06-18T12:05:03Z</time>
      </trkpt>
      <trkpt lat="39.8208210" lon="2.8924110">
        <ele>493.1</ele>
        <time>2021-06-18T12:05:06Z</time>
      </trkpt>
      <trkpt lat="39.8209030" lon="2.8923460">
        <ele>492.3</ele>
        <time>2021-06-18T12:05:09Z</time>
      </trkpt>
      <trkpt lat="39.8209290" lon="2.8922830">
        <ele>492.0</ele>
        <time>2021-06-18T12:05:10Z</time>
      </trkpt>
      <trkpt lat="39.8210050" lon="2.8920030">
        <ele>490.7</ele>
        <time>2021-06-18T12:05:14Z</time>
      </trkpt>
      <trkpt lat="39.8211720" lon="2.8913900">
        <ele>488.3</ele>
        <time>2021-06-18T12:05:21Z</time>
      </trkpt>
      <trkpt lat="39.8213460" lon="2.8908220">
        <ele>486.4</ele>
        <time>2021-06-18T12:05:27Z</time>
      </trkpt>
      <trkpt lat="39.8215670" lon="2.8900840">
        <ele>484.1</ele>
        <time>2021-06-18T12:05:34Z</time>
      </trkpt>
      <trkpt lat="39.8217240" lon="2.8895090">
        <ele>482.3</ele>
        <time>2021-06-18T12:05:39Z</time>
      </trkpt>
      <trkpt lat="39.8218510" lon="2.8889190">
        <ele>480.2</ele>
        <time>2021-06-18T12:05:44Z</time>
      </trkpt>
      <trkpt lat="39.8218660" lon="2.8888210">
        <ele>479.8</ele>
        <time>2021-06-18T12:05:45Z</time>
      </trkpt>
      <trkpt lat="39.8219600" lon="2.8880570">
        <ele>477.2</ele>
        <time>2021-06-18T12:05:51Z</time>
      </trkpt>
      <trkpt lat="39.8219880" lon="2.8878330">
        <ele>476.6</ele>
        <time>2021-06-18T12:05:53Z</time>
      </trkpt>
      <trkpt lat="39.8219950" lon="2.8877270">
        <ele>476.3</ele>
        <time>2021-06-18T12:05:54Z</time>
      </trkpt>
      <trkpt lat="39.8219880" lon="2.8875190">
        <ele>475.8</ele>
        <time>2021-06-18T12:05:56Z</time>
      </trkpt>
      <trkpt lat="39.8219700" lon="2.8874190">
        <ele>475.6</ele>
        <time>2021-06-18T12:05:57Z</time>
      </trkpt>
      <trkpt lat="39.8219420" lon="2.8873200">
        <ele>475.5</ele>
        <time>2021-06-18T12:05:58Z</time>
      </trkpt>
      <trkpt lat="39.8218330" lon="2.8870560">
        <ele>475.4</ele>
        <time>2021-06-18T12:06:01Z</time>
      </trkpt>
      <trkpt lat="39.8215860" lon="2.8865720">
        <ele>475.8</ele>
        <time>2021-06-18T12:06:07Z</time>
      </trkpt>
      <trkpt lat="39.8214960" lon="2.8863760">
        <ele>476.2</ele>
        <time>2021-06-18T12:06:10Z</time>
      </trkpt>
      <trkpt lat="39.8214020" lon="2.8862100">
        <ele>476.5</ele>
        <time>2021-06-18T12:06:13Z</time>
      </trkpt>
      <trkpt lat="39.8213550" lon="2.8861260">
        <ele>476.8</ele>
        <time>2021-06-18T12:06:15Z</time>
      </trkpt>
      <trkpt lat="39.8212800" lon="2.8859770">
        <ele>477.1</ele>
        <time>2021-06-18T12:06:18Z</time>
      </trkpt>
      <trkpt lat="39.8212570" lon="2.8859300">
        <ele>477.2</ele>
        <time>2021-06-18T12:06:19Z</time>
      </trkpt>
      <trkpt lat="39.8210930" lon="2.8856240">
        <ele>477.8</ele>
        <time>2021-06-18T12:06:26Z</time>
      </trkpt>
      <trkpt lat="39.8210730" lon="2.8855860">
        <ele>477.8</ele>
        <time>2021-06-18T12:06:27Z</time>
      </trkpt>
      <trkpt lat="39.8209930" lon="2.8853910">
        <ele>477.8</ele>
        <time>2021-06-18T12:06:32Z</time>
      </trkpt>
      <trkpt lat="39.8209800" lon="2.8853530">
        <ele>477.8</ele>
        <time>2021-06-18T12:06:33Z</time>
      </trkpt>
      <trkpt lat="39.8209530" lon="2.8852510">
        <ele>477.8</ele>
        <time>2021-06-18T12:06:35Z</time>
      </trkpt>
      <trkpt lat="39.8208930" lon="2.8850000">
        <ele>479.0</ele>
        <time>2021-06-18T12:06:40Z</time>
      </trkpt>
      <trkpt lat="39.8208430" lon="2.8847980">
        <ele>479.8</ele>
        <time>2021-06-18T12:06:46Z</time>
      </trkpt>
      <trkpt lat="39.8208540" lon="2.8847550">
        <ele>480.0</ele>
        <time>2021-06-18T12:06:48Z</time>
      </trkpt>
      <trkpt lat="39.8208720" lon="2.8847320">
        <ele>480.2</ele>
        <time>2021-06-18T12:06:50Z</time>
      </trkpt>
      <trkpt lat="39.8208730" lon="2.8847280">
        <ele>480.2</ele>
        <time>2021-06-18T12:06:53Z</time>
      </trkpt>
      <trkpt lat="39.8208730" lon="2.8847280">
        <ele>480.2</ele>
        <time>2021-06-18T12:06:55Z</time>
      </trkpt>
      <trkpt lat="39.8208730" lon="2.8847280">
        <ele>480.2</ele>
        <time>2021-06-18T12:06:56Z</time>
      </trkpt>
      <trkpt lat="39.8208730" lon="2.8847280">
        <ele>480.2</ele>
        <time>2021-06-18T12:06:58Z</time>
      </trkpt>
      <trkpt lat="39.8208730" lon="2.8847280">
        <ele>480.2</ele>
        <time>2021-06-18T12:07:00Z</time>
      </trkpt>
      <trkpt lat="39.8208980" lon="2.8847220">
        <ele>480.4</ele>
        <time>2021-06-18T12:07:04Z</time>
      </trkpt>
      <trkpt lat="39.8209010" lon="2.8847240">
        <ele>480.4</ele>
        <time>2021-06-18T12:07:12Z</time>
      </trkpt>
      <trkpt lat="39.8209010" lon="2.8847220">
        <ele>480.4</ele>
        <time>2021-06-18T12:07:20Z</time>
      </trkpt>
      <trkpt lat="39.8209040" lon="2.8847220">
        <ele>480.4</ele>
        <time>2021-06-18T12:07:21Z</time>
      </trkpt>
      <trkpt lat="39.8209060" lon="2.8847200">
        <ele>480.4</ele>
        <time>2021-06-18T12:07:23Z</time>
      </trkpt>
      <trkpt lat="39.8209060" lon="2.8847200">
        <ele>480.4</ele>
        <time>2021-06-18T12:07:26Z</time>
      </trkpt>
      <trkpt lat="39.8209060" lon="2.8847200">
        <ele>480.4</ele>
        <time>2021-06-18T12:07:33Z</time>
      </trkpt>
      <trkpt lat="39.8209060" lon="2.8847200">
        <ele>480.4</ele>
        <time>2021-06-18T12:07:35Z</time>
      </trkpt>
      <trkpt lat="39.8209060" lon="2.8847200">
        <ele>480.4</ele>
        <time>2021-06-18T12:07:37Z</time>
      </trkpt>
      <trkpt lat="39.8209060" lon="2.8847200">
        <ele>480.4</ele>
        <time>2021-06-18T12:07:40Z</time>
      </trkpt>
      <trkpt lat="39.8209060" lon="2.8847220">
        <ele>480.4</ele>
        <time>2021-06-18T12:07:50Z</time>
      </trkpt>
      <trkpt lat="39.8209080" lon="2.8847120">
        <ele>480.5</ele>
        <time>2021-06-18T12:07:58Z</time>
      </trkpt>
      <trkpt lat="39.8209180" lon="2.8846920">
        <ele>480.6</ele>
        <time>2021-06-18T12:07:59Z</time>
      </trkpt>
      <trkpt lat="39.8209560" lon="2.8846600">
        <ele>480.9</ele>
        <time>2021-06-18T12:08:02Z</time>
      </trkpt>
      <trkpt lat="39.8209830" lon="2.8846470">
        <ele>481.3</ele>
        <time>2021-06-18T12:08:04Z</time>
      </trkpt>
      <trkpt lat="39.8209940" lon="2.8846420">
        <ele>481.3</ele>
        <time>2021-06-18T12:08:05Z</time>
      </trkpt>
      <trkpt lat="39.8209970" lon="2.8846340">
        <ele>481.3</ele>
        <time>2021-06-18T12:08:14Z</time>
      </trkpt>
      <trkpt lat="39.8209710" lon="2.8846390">
        <ele>481.3</ele>
        <time>2021-06-18T12:08:17Z</time>
      </trkpt>
      <trkpt lat="39.8209340" lon="2.8846500">
        <ele>481.3</ele>
        <time>2021-06-18T12:08:21Z</time>
      </trkpt>
      <trkpt lat="39.8209310" lon="2.8846550">
        <ele>481.3</ele>
        <time>2021-06-18T12:08:26Z</time>
      </trkpt>
      <trkpt lat="39.8209290" lon="2.8846690">
        <ele>481.3</ele>
        <time>2021-06-18T12:08:27Z</time>
      </trkpt>
      <trkpt lat="39.8209190" lon="2.8846800">
        <ele>481.3</ele>
        <time>2021-06-18T12:08:33Z</time>
      </trkpt>
      <trkpt lat="39.8209230" lon="2.8846800">
        <ele>481.3</ele>
        <time>2021-06-18T12:08:40Z</time>
      </trkpt>
      <trkpt lat="39.8209250" lon="2.8846940">
        <ele>481.3</ele>
        <time>2021-06-18T12:08:56Z</time>
      </trkpt>
      <trkpt lat="39.8209310" lon="2.8846890">
        <ele>481.3</ele>
        <time>2021-06-18T12:08:59Z</time>
      </trkpt>
      <trkpt lat="39.8209310" lon="2.8846890">
        <ele>481.3</ele>
        <time>2021-06-18T12:09:03Z</time>
      </trkpt>
      <trkpt lat="39.8209310" lon="2.8846890">
        <ele>481.3</ele>
        <time>2021-06-18T12:09:04Z</time>
      </trkpt>
      <trkpt lat="39.8209310" lon="2.8846890">
        <ele>481.3</ele>
        <time>2021-06-18T12:09:06Z</time>
      </trkpt>
      <trkpt lat="39.8209310" lon="2.8846890">
        <ele>481.3</ele>
        <time>2021-06-18T12:09:08Z</time>
      </trkpt>
      <trkpt lat="39.8209360" lon="2.8846860">
        <ele>481.3</ele>
        <time>2021-06-18T12:09:10Z</time>
      </trkpt>
      <trkpt lat="39.8209480" lon="2.8846770">
        <ele>481.3</ele>
        <time>2021-06-18T12:09:13Z</time>
      </trkpt>
      <trkpt lat="39.8209470" lon="2.8846770">
        <ele>481.3</ele>
        <time>2021-06-18T12:09:24Z</time>
      </trkpt>
      <trkpt lat="39.8209480" lon="2.8846740">
        <ele>481.3</ele>
        <time>2021-06-18T12:09:30Z</time>
      </trkpt>
      <trkpt lat="39.8209640" lon="2.8846720">
        <ele>481.3</ele>
        <time>2021-06-18T12:09:32Z</time>
      </trkpt>
      <trkpt lat="39.8209780" lon="2.8846760">
        <ele>481.3</ele>
        <time>2021-06-18T12:09:36Z</time>
      </trkpt>
      <trkpt lat="39.8209820" lon="2.8846790">
        <ele>481.3</ele>
        <time>2021-06-18T12:09:37Z</time>
      </trkpt>
      <trkpt lat="39.8209820" lon="2.8846720">
        <ele>481.3</ele>
        <time>2021-06-18T12:09:47Z</time>
      </trkpt>
      <trkpt lat="39.8209830" lon="2.8846720">
        <ele>481.3</ele>
        <time>2021-06-18T12:09:49Z</time>
      </trkpt>
      <trkpt lat="39.8218940" lon="2.8874710">
        <ele>475.6</ele>
        <time>2021-06-19T08:21:48Z</time>
      </trkpt>
      <trkpt lat="39.8219050" lon="2.8875150">
        <ele>475.8</ele>
        <time>2021-06-19T08:21:49Z</time>
      </trkpt>
      <trkpt lat="39.8219270" lon="2.8876810">
        <ele>476.2</ele>
        <time>2021-06-19T08:21:53Z</time>
      </trkpt>
      <trkpt lat="39.8219180" lon="2.8879430">
        <ele>476.9</ele>
        <time>2021-06-19T08:21:59Z</time>
      </trkpt>
      <trkpt lat="39.8219100" lon="2.8879860">
        <ele>477.0</ele>
        <time>2021-06-19T08:22:00Z</time>
      </trkpt>
      <trkpt lat="39.8218650" lon="2.8884460">
        <ele>478.5</ele>
        <time>2021-06-19T08:22:09Z</time>
      </trkpt>
      <trkpt lat="39.8218200" lon="2.8887680">
        <ele>479.7</ele>
        <time>2021-06-19T08:22:17Z</time>
      </trkpt>
      <trkpt lat="39.8218130" lon="2.8888130">
        <ele>479.9</ele>
        <time>2021-06-19T08:22:18Z</time>
      </trkpt>
      <trkpt lat="39.8217510" lon="2.8891840">
        <ele>481.3</ele>
        <time>2021-06-19T08:22:27Z</time>
      </trkpt>
      <trkpt lat="39.8216510" lon="2.8895910">
        <ele>482.7</ele>
        <time>2021-06-19T08:22:37Z</time>
      </trkpt>
      <trkpt lat="39.8215850" lon="2.8897800">
        <ele>483.3</ele>
        <time>2021-06-19T08:22:42Z</time>
      </trkpt>
      <trkpt lat="39.8215580" lon="2.8898610">
        <ele>483.5</ele>
        <time>2021-06-19T08:22:44Z</time>
      </trkpt>
      <trkpt lat="39.8214940" lon="2.8900720">
        <ele>484.2</ele>
        <time>2021-06-19T08:22:49Z</time>
      </trkpt>
      <trkpt lat="39.8214690" lon="2.8901600">
        <ele>484.4</ele>
        <time>2021-06-19T08:22:51Z</time>
      </trkpt>
      <trkpt lat="39.8214570" lon="2.8902050">
        <ele>484.5</ele>
        <time>2021-06-19T08:22:52Z</time>
      </trkpt>
      <trkpt lat="39.8214010" lon="2.8904040">
        <ele>485.1</ele>
        <time>2021-06-19T08:22:57Z</time>
      </trkpt>
      <trkpt lat="39.8213370" lon="2.8906240">
        <ele>485.8</ele>
        <time>2021-06-19T08:23:02Z</time>
      </trkpt>
      <trkpt lat="39.8212150" lon="2.8910230">
        <ele>487.2</ele>
        <time>2021-06-19T08:23:11Z</time>
      </trkpt>
      <trkpt lat="39.8211310" lon="2.8913260">
        <ele>488.1</ele>
        <time>2021-06-19T08:23:18Z</time>
      </trkpt>
      <trkpt lat="39.8211180" lon="2.8913710">
        <ele>488.3</ele>
        <time>2021-06-19T08:23:19Z</time>
      </trkpt>
      <trkpt lat="39.8210220" lon="2.8917100">
        <ele>489.5</ele>
        <time>2021-06-19T08:23:27Z</time>
      </trkpt>
      <trkpt lat="39.8209340" lon="2.8920100">
        <ele>490.8</ele>
        <time>2021-06-19T08:23:34Z</time>
      </trkpt>
      <trkpt lat="39.8208850" lon="2.8921430">
        <ele>491.5</ele>
        <time>2021-06-19T08:23:37Z</time>
      </trkpt>
      <trkpt lat="39.8208430" lon="2.8922590">
        <ele>492.1</ele>
        <time>2021-06-19T08:23:40Z</time>
      </trkpt>
      <trkpt lat="39.8208110" lon="2.8923200">
        <ele>492.4</ele>
        <time>2021-06-19T08:23:42Z</time>
      </trkpt>
      <trkpt lat="39.8207580" lon="2.8924500">
        <ele>493.1</ele>
        <time>2021-06-19T08:23:46Z</time>
      </trkpt>
      <trkpt lat="39.8207410" lon="2.8925620">
        <ele>492.7</ele>
        <time>2021-06-19T08:23:49Z</time>
      </trkpt>
      <trkpt lat="39.8207130" lon="2.8928210">
        <ele>492.0</ele>
        <time>2021-06-19T08:23:55Z</time>
      </trkpt>
      <trkpt lat="39.8206300" lon="2.8930550">
        <ele>491.6</ele>
        <time>2021-06-19T08:24:01Z</time>
      </trkpt>
      <trkpt lat="39.8206040" lon="2.8931440">
        <ele>491.6</ele>
        <time>2021-06-19T08:24:03Z</time>
      </trkpt>
      <trkpt lat="39.8205760" lon="2.8932600">
        <ele>491.7</ele>
        <time>2021-06-19T08:24:06Z</time>
      </trkpt>
      <trkpt lat="39.8205360" lon="2.8933970">
        <ele>491.8</ele>
        <time>2021-06-19T08:24:09Z</time>
      </trkpt>
      <trkpt lat="39.8205230" lon="2.8934410">
        <ele>491.9</ele>
        <time>2021-06-19T08:24:10Z</time>
      </trkpt>
      <trkpt lat="39.8204810" lon="2.8937270">
        <ele>492.3</ele>
        <time>2021-06-19T08:24:16Z</time>
      </trkpt>
      <trkpt lat="39.8204870" lon="2.8938390">
        <ele>492.5</ele>
        <time>2021-06-19T08:24:18Z</time>
      </trkpt>
      <trkpt lat="39.8205580" lon="2.8941720">
        <ele>493.4</ele>
        <time>2021-06-19T08:24:25Z</time>
      </trkpt>
      <trkpt lat="39.8206040" lon="2.8943020">
        <ele>493.9</ele>
        <time>2021-06-19T08:24:28Z</time>
      </trkpt>
      <trkpt lat="39.8206570" lon="2.8944170">
        <ele>494.5</ele>
        <time>2021-06-19T08:24:31Z</time>
      </trkpt>
      <trkpt lat="39.8207040" lon="2.8944980">
        <ele>495.0</ele>
        <time>2021-06-19T08:24:33Z</time>
      </trkpt>
      <trkpt lat="39.8207600" lon="2.8946050">
        <ele>495.8</ele>
        <time>2021-06-19T08:24:36Z</time>
      </trkpt>
      <trkpt lat="39.8208940" lon="2.8947970">
        <ele>497.2</ele>
        <time>2021-06-19T08:24:42Z</time>
      </trkpt>
      <trkpt lat="39.8209560" lon="2.8948810">
        <ele>497.8</ele>
        <time>2021-06-19T08:24:45Z</time>
      </trkpt>
      <trkpt lat="39.8210450" lon="2.8950020">
        <ele>498.7</ele>
        <time>2021-06-19T08:24:49Z</time>
      </trkpt>
      <trkpt lat="39.8210780" lon="2.8950390">
        <ele>499.0</ele>
        <time>2021-06-19T08:24:50Z</time>
      </trkpt>
      <trkpt lat="39.8211260" lon="2.8951030">
        <ele>499.5</ele>
        <time>2021-06-19T08:24:52Z</time>
      </trkpt>
      <trkpt lat="39.8212030" lon="2.8951960">
        <ele>500.1</ele>
        <time>2021-06-19T08:24:55Z</time>
      </trkpt>
      <trkpt lat="39.8214080" lon="2.8954440">
        <ele>501.9</ele>
        <time>2021-06-19T08:25:03Z</time>
      </trkpt>
      <trkpt lat="39.8214550" lon="2.8955030">
        <ele>502.2</ele>
        <time>2021-06-19T08:25:05Z</time>
      </trkpt>
      <trkpt lat="39.8215100" lon="2.8955600">
        <ele>502.6</ele>
        <time>2021-06-19T08:25:07Z</time>
      </trkpt>
      <trkpt lat="39.8215370" lon="2.8955870">
        <ele>502.7</ele>
        <time>2021-06-19T08:25:08Z</time>
      </trkpt>
      <trkpt lat="39.8215990" lon="2.8956490">
        <ele>503.0</ele>
        <time>2021-06-19T08:25:09Z</time>
      </trkpt>
      <trkpt lat="39.8216160" lon="2.8956660">
        <ele>503.1</ele>
        <time>2021-06-19T08:25:10Z</time>
      </trkpt>
      <trkpt lat="39.8216330" lon="2.8956830">
        <ele>503.1</ele>
        <time>2021-06-19T08:25:11Z</time>
      </trkpt>
      <trkpt lat="39.8217220" lon="2.8958220">
        <ele>503.6</ele>
        <time>2021-06-19T08:25:15Z</time>
      </trkpt>
      <trkpt lat="39.8218260" lon="2.8959120">
        <ele>504.0</ele>
        <time>2021-06-19T08:25:18Z</time>
      </trkpt>
      <trkpt lat="39.8220150" lon="2.8961660">
        <ele>505.0</ele>
        <time>2021-06-19T08:25:25Z</time>
      </trkpt>
      <trkpt lat="39.8220750" lon="2.8962340">
        <ele>505.3</ele>
        <time>2021-06-19T08:25:27Z</time>
      </trkpt>
      <trkpt lat="39.8221900" lon="2.8963810">
        <ele>505.9</ele>
        <time>2021-06-19T08:25:31Z</time>
      </trkpt>
      <trkpt lat="39.8223860" lon="2.8966840">
        <ele>507.0</ele>
        <time>2021-06-19T08:25:39Z</time>
      </trkpt>
      <trkpt lat="39.8225690" lon="2.8969760">
        <ele>507.9</ele>
        <time>2021-06-19T08:25:47Z</time>
      </trkpt>
      <trkpt lat="39.8225950" lon="2.8970120">
        <ele>508.0</ele>
        <time>2021-06-19T08:25:48Z</time>
      </trkpt>
      <trkpt lat="39.8226700" lon="2.8971220">
        <ele>508.3</ele>
        <time>2021-06-19T08:25:51Z</time>
      </trkpt>
      <trkpt lat="39.8228020" lon="2.8973080">
        <ele>509.0</ele>
        <time>2021-06-19T08:25:56Z</time>
      </trkpt>
      <trkpt lat="39.8229120" lon="2.8974600">
        <ele>509.5</ele>
        <time>2021-06-19T08:26:00Z</time>
      </trkpt>
      <trkpt lat="39.8229960" lon="2.8975560">
        <ele>510.0</ele>
        <time>2021-06-19T08:26:03Z</time>
      </trkpt>
      <trkpt lat="39.8232240" lon="2.8978430">
        <ele>511.2</ele>
        <time>2021-06-19T08:26:11Z</time>
      </trkpt>
      <trkpt lat="39.8233770" lon="2.8980630">
        <ele>512.0</ele>
        <time>2021-06-19T08:26:17Z</time>
      </trkpt>
      <trkpt lat="39.8234890" lon="2.8981950">
        <ele>512.6</ele>
        <time>2021-06-19T08:26:21Z</time>
      </trkpt>
      <trkpt lat="39.8235970" lon="2.8983200">
        <ele>513.1</ele>
        <time>2021-06-19T08:26:25Z</time>
      </trkpt>
      <trkpt lat="39.8237670" lon="2.8984630">
        <ele>513.8</ele>
        <time>2021-06-19T08:26:30Z</time>
      </trkpt>
      <trkpt lat="39.8239870" lon="2.8986710">
        <ele>514.8</ele>
        <time>2021-06-19T08:26:36Z</time>
      </trkpt>
      <trkpt lat="39.8242250" lon="2.8989200">
        <ele>516.1</ele>
        <time>2021-06-19T08:26:44Z</time>
      </trkpt>
      <trkpt lat="39.8244380" lon="2.8991040">
        <ele>517.2</ele>
        <time>2021-06-19T08:26:51Z</time>
      </trkpt>
      <trkpt lat="39.8246700" lon="2.8992850">
        <ele>518.3</ele>
        <time>2021-06-19T08:26:58Z</time>
      </trkpt>
      <trkpt lat="39.8248020" lon="2.8993880">
        <ele>519.0</ele>
        <time>2021-06-19T08:27:02Z</time>
      </trkpt>
      <trkpt lat="39.8248720" lon="2.8994400">
        <ele>519.3</ele>
        <time>2021-06-19T08:27:04Z</time>
      </trkpt>
      <trkpt lat="39.8251100" lon="2.8996100">
        <ele>520.4</ele>
        <time>2021-06-19T08:27:11Z</time>
      </trkpt>
      <trkpt lat="39.8253490" lon="2.8997880">
        <ele>521.5</ele>
        <time>2021-06-19T08:27:18Z</time>
      </trkpt>
      <trkpt lat="39.8256010" lon="2.8999270">
        <ele>522.6</ele>
        <time>2021-06-19T08:27:25Z</time>
      </trkpt>
      <trkpt lat="39.8256380" lon="2.8999340">
        <ele>522.7</ele>
        <time>2021-06-19T08:27:26Z</time>
      </trkpt>
      <trkpt lat="39.8257420" lon="2.8999520">
        <ele>523.2</ele>
        <time>2021-06-19T08:27:29Z</time>
      </trkpt>
      <trkpt lat="39.8258920" lon="2.8999530">
        <ele>523.9</ele>
        <time>2021-06-19T08:27:33Z</time>
      </trkpt>
      <trkpt lat="39.8260410" lon="2.8999380">
        <ele>524.6</ele>
        <time>2021-06-19T08:27:37Z</time>
      </trkpt>
      <trkpt lat="39.8261730" lon="2.8999050">
        <ele>525.3</ele>
        <time>2021-06-19T08:27:41Z</time>
      </trkpt>
      <trkpt lat="39.8264790" lon="2.8998620">
        <ele>527.1</ele>
        <time>2021-06-19T08:27:50Z</time>
      </trkpt>
      <trkpt lat="39.8267540" lon="2.8998310">
        <ele>528.5</ele>
        <time>2021-06-19T08:27:58Z</time>
      </trkpt>
      <trkpt lat="39.8270090" lon="2.8997240">
        <ele>530.0</ele>
        <time>2021-06-19T08:28:06Z</time>
      </trkpt>
      <trkpt lat="39.8271370" lon="2.8995310">
        <ele>531.1</ele>
        <time>2021-06-19T08:28:12Z</time>
      </trkpt>
      <trkpt lat="39.8272540" lon="2.8992480">
        <ele>532.6</ele>
        <time>2021-06-19T08:28:19Z</time>
      </trkpt>
      <trkpt lat="39.8273630" lon="2.8989890">
        <ele>534.0</ele>
        <time>2021-06-19T08:28:26Z</time>
      </trkpt>
      <trkpt lat="39.8275140" lon="2.8986090">
        <ele>535.8</ele>
        <time>2021-06-19T08:28:36Z</time>
      </trkpt>
      <trkpt lat="39.8275430" lon="2.8985440">
        <ele>536.1</ele>
        <time>2021-06-19T08:28:38Z</time>
      </trkpt>
      <trkpt lat="39.8275610" lon="2.8984970">
        <ele>536.4</ele>
        <time>2021-06-19T08:28:39Z</time>
      </trkpt>
      <trkpt lat="39.8276540" lon="2.8982830">
        <ele>537.3</ele>
        <time>2021-06-19T08:28:45Z</time>
      </trkpt>
      <trkpt lat="39.8278120" lon="2.8980540">
        <ele>538.6</ele>
        <time>2021-06-19T08:28:52Z</time>
      </trkpt>
      <trkpt lat="39.8280290" lon="2.8979720">
        <ele>539.9</ele>
        <time>2021-06-19T08:28:59Z</time>
      </trkpt>
      <trkpt lat="39.8282330" lon="2.8980100">
        <ele>541.2</ele>
        <time>2021-06-19T08:29:06Z</time>
      </trkpt>
      <trkpt lat="39.8284460" lon="2.8980880">
        <ele>542.7</ele>
        <time>2021-06-19T08:29:14Z</time>
      </trkpt>
      <trkpt lat="39.8287040" lon="2.8981550">
        <ele>544.7</ele>
        <time>2021-06-19T08:29:23Z</time>
      </trkpt>
      <trkpt lat="39.8287950" lon="2.8981640">
        <ele>545.4</ele>
        <time>2021-06-19T08:29:26Z</time>
      </trkpt>
      <trkpt lat="39.8289410" lon="2.8981380">
        <ele>546.5</ele>
        <time>2021-06-19T08:29:31Z</time>
      </trkpt>
      <trkpt lat="39.8290970" lon="2.8980170">
        <ele>547.9</ele>
        <time>2021-06-19T08:29:37Z</time>
      </trkpt>
      <trkpt lat="39.8292440" lon="2.8978110">
        <ele>549.5</ele>
        <time>2021-06-19T08:29:44Z</time>
      </trkpt>
      <trkpt lat="39.8294220" lon="2.8974940">
        <ele>550.7</ele>
        <time>2021-06-19T08:29:53Z</time>
      </trkpt>
      <trkpt lat="39.8295750" lon="2.8972000">
        <ele>551.8</ele>
        <time>2021-06-19T08:30:01Z</time>
      </trkpt>
      <trkpt lat="39.8297050" lon="2.8969490">
        <ele>552.6</ele>
        <time>2021-06-19T08:30:08Z</time>
      </trkpt>
      <trkpt lat="39.8298550" lon="2.8966860">
        <ele>553.4</ele>
        <time>2021-06-19T08:30:15Z</time>
      </trkpt>
      <trkpt lat="39.8299040" lon="2.8966000">
        <ele>553.7</ele>
        <time>2021-06-19T08:30:17Z</time>
      </trkpt>
      <trkpt lat="39.8300510" lon="2.8963430">
        <ele>554.5</ele>
        <time>2021-06-19T08:30:24Z</time>
      </trkpt>
      <trkpt lat="39.8302000" lon="2.8961080">
        <ele>555.3</ele>
        <time>2021-06-19T08:30:30Z</time>
      </trkpt>
      <trkpt lat="39.8302720" lon="2.8959960">
        <ele>555.7</ele>
        <time>2021-06-19T08:30:33Z</time>
      </trkpt>
      <trkpt lat="39.8304880" lon="2.8958010">
        <ele>556.5</ele>
        <time>2021-06-19T08:30:40Z</time>
      </trkpt>
      <trkpt lat="39.8307290" lon="2.8957200">
        <ele>557.1</ele>
        <time>2021-06-19T08:30:47Z</time>
      </trkpt>
      <trkpt lat="39.8309910" lon="2.8956780">
        <ele>557.3</ele>
        <time>2021-06-19T08:30:54Z</time>
      </trkpt>
      <trkpt lat="39.8312210" lon="2.8956450">
        <ele>557.5</ele>
        <time>2021-06-19T08:31:00Z</time>
      </trkpt>
      <trkpt lat="39.8313780" lon="2.8956200">
        <ele>557.6</ele>
        <time>2021-06-19T08:31:04Z</time>
      </trkpt>
      <trkpt lat="39.8316240" lon="2.8956190">
        <ele>557.6</ele>
        <time>2021-06-19T08:31:10Z</time>
      </trkpt>
      <trkpt lat="39.8317480" lon="2.8956330">
        <ele>557.5</ele>
        <time>2021-06-19T08:31:13Z</time>
      </trkpt>
      <trkpt lat="39.8319310" lon="2.8956650">
        <ele>557.2</ele>
        <time>2021-06-19T08:31:17Z</time>
      </trkpt>
      <trkpt lat="39.8319800" lon="2.8956750">
        <ele>557.1</ele>
        <time>2021-06-19T08:31:18Z</time>
      </trkpt>
      <trkpt lat="39.8322300" lon="2.8957230">
        <ele>556.1</ele>
        <time>2021-06-19T08:31:23Z</time>
      </trkpt>
      <trkpt lat="39.8323910" lon="2.8957430">
        <ele>555.3</ele>
        <time>2021-06-19T08:31:26Z</time>
      </trkpt>
      <trkpt lat="39.8325810" lon="2.8957840">
        <ele>554.1</ele>
        <time>2021-06-19T08:31:29Z</time>
      </trkpt>
      <trkpt lat="39.8330450" lon="2.8958870">
        <ele>550.8</ele>
        <time>2021-06-19T08:31:35Z</time>
      </trkpt>
      <trkpt lat="39.8333190" lon="2.8959300">
        <ele>549.0</ele>
        <time>2021-06-19T08:31:38Z</time>
      </trkpt>
      <trkpt lat="39.8334890" lon="2.8959220">
        <ele>547.8</ele>
        <time>2021-06-19T08:31:40Z</time>
      </trkpt>
      <trkpt lat="39.8337100" lon="2.8958990">
        <ele>546.1</ele>
        <time>2021-06-19T08:31:42Z</time>
      </trkpt>
      <trkpt lat="39.8340030" lon="2.8958820">
        <ele>543.9</ele>
        <time>2021-06-19T08:31:45Z</time>
      </trkpt>
      <trkpt lat="39.8341070" lon="2.8958630">
        <ele>543.2</ele>
        <time>2021-06-19T08:31:46Z</time>
      </trkpt>
      <trkpt lat="39.8345310" lon="2.8958340">
        <ele>540.6</ele>
        <time>2021-06-19T08:31:50Z</time>
      </trkpt>
      <trkpt lat="39.8346360" lon="2.8958590">
        <ele>540.0</ele>
        <time>2021-06-19T08:31:51Z</time>
      </trkpt>
      <trkpt lat="39.8347390" lon="2.8959110">
        <ele>539.4</ele>
        <time>2021-06-19T08:31:52Z</time>
      </trkpt>
      <trkpt lat="39.8349440" lon="2.8960950">
        <ele>538.1</ele>
        <time>2021-06-19T08:31:54Z</time>
      </trkpt>
      <trkpt lat="39.8354280" lon="2.8966380">
        <ele>534.8</ele>
        <time>2021-06-19T08:32:00Z</time>
      </trkpt>
      <trkpt lat="39.8356190" lon="2.8967700">
        <ele>533.9</ele>
        <time>2021-06-19T08:32:02Z</time>
      </trkpt>
      <trkpt lat="39.8361600" lon="2.8969820">
        <ele>532.4</ele>
        <time>2021-06-19T08:32:07Z</time>
      </trkpt>
      <trkpt lat="39.8367950" lon="2.8971930">
        <ele>530.1</ele>
        <time>2021-06-19T08:32:13Z</time>
      </trkpt>
      <trkpt lat="39.8370600" lon="2.8972860">
        <ele>528.4</ele>
        <time>2021-06-19T08:32:16Z</time>
      </trkpt>
      <trkpt lat="39.8372710" lon="2.8973500">
        <ele>526.9</ele>
        <time>2021-06-19T08:32:18Z</time>
      </trkpt>
      <trkpt lat="39.8374820" lon="2.8973670">
        <ele>525.5</ele>
        <time>2021-06-19T08:32:20Z</time>
      </trkpt>
      <trkpt lat="39.8379090" lon="2.8972630">
        <ele>522.2</ele>
        <time>2021-06-19T08:32:24Z</time>
      </trkpt>
      <trkpt lat="39.8385190" lon="2.8970750">
        <ele>518.0</ele>
        <time>2021-06-19T08:32:29Z</time>
      </trkpt>
      <trkpt lat="39.8386480" lon="2.8970280">
        <ele>517.1</ele>
        <time>2021-06-19T08:32:30Z</time>
      </trkpt>
      <trkpt lat="39.8390230" lon="2.8969100">
        <ele>515.3</ele>
        <time>2021-06-19T08:32:33Z</time>
      </trkpt>
      <trkpt lat="39.8394030" lon="2.8967890">
        <ele>513.4</ele>
        <time>2021-06-19T08:32:36Z</time>
      </trkpt>
      <trkpt lat="39.8396530" lon="2.8967110">
        <ele>512.1</ele>
        <time>2021-06-19T08:32:38Z</time>
      </trkpt>
      <trkpt lat="39.8400320" lon="2.8965960">
        <ele>510.0</ele>
        <time>2021-06-19T08:32:41Z</time>
      </trkpt>
      <trkpt lat="39.8404130" lon="2.8964710">
        <ele>507.7</ele>
        <time>2021-06-19T08:32:44Z</time>
      </trkpt>
      <trkpt lat="39.8409340" lon="2.8963260">
        <ele>503.9</ele>
        <time>2021-06-19T08:32:48Z</time>
      </trkpt>
      <trkpt lat="39.8414930" lon="2.8961490">
        <ele>501.5</ele>
        <time>2021-06-19T08:32:52Z</time>
      </trkpt>
      <trkpt lat="39.8419820" lon="2.8960060">
        <ele>501.4</ele>
        <time>2021-06-19T08:32:56Z</time>
      </trkpt>
      <trkpt lat="39.8423990" lon="2.8958770">
        <ele>503.9</ele>
        <time>2021-06-19T08:33:00Z</time>
      </trkpt>
      <trkpt lat="39.8427970" lon="2.8957420">
        <ele>507.3</ele>
        <time>2021-06-19T08:33:05Z</time>
      </trkpt>
      <trkpt lat="39.8430000" lon="2.8956770">
        <ele>509.1</ele>
        <time>2021-06-19T08:33:08Z</time>
      </trkpt>
      <trkpt lat="39.8431230" lon="2.8956410">
        <ele>510.2</ele>
        <time>2021-06-19T08:33:10Z</time>
      </trkpt>
      <trkpt lat="39.8433290" lon="2.8955740">
        <ele>511.7</ele>
        <time>2021-06-19T08:33:14Z</time>
      </trkpt>
      <trkpt lat="39.8433780" lon="2.8955640">
        <ele>512.0</ele>
        <time>2021-06-19T08:33:15Z</time>
      </trkpt>
      <trkpt lat="39.8435940" lon="2.8954900">
        <ele>513.2</ele>
        <time>2021-06-19T08:33:20Z</time>
      </trkpt>
      <trkpt lat="39.8438930" lon="2.8954010">
        <ele>514.0</ele>
        <time>2021-06-19T08:33:27Z</time>
      </trkpt>
      <trkpt lat="39.8441130" lon="2.8953450">
        <ele>514.5</ele>
        <time>2021-06-19T08:33:32Z</time>
      </trkpt>
      <trkpt lat="39.8442500" lon="2.8953040">
        <ele>514.8</ele>
        <time>2021-06-19T08:33:35Z</time>
      </trkpt>
      <trkpt lat="39.8442950" lon="2.8952910">
        <ele>514.9</ele>
        <time>2021-06-19T08:33:36Z</time>
      </trkpt>
      <trkpt lat="39.8446140" lon="2.8952110">
        <ele>515.5</ele>
        <time>2021-06-19T08:33:43Z</time>
      </trkpt>
      <trkpt lat="39.8446740" lon="2.8951930">
        <ele>515.6</ele>
        <time>2021-06-19T08:33:44Z</time>
      </trkpt>
      <trkpt lat="39.8449130" lon="2.8951160">
        <ele>516.1</ele>
        <time>2021-06-19T08:33:49Z</time>
      </trkpt>
      <trkpt lat="39.8451620" lon="2.8950530">
        <ele>516.5</ele>
        <time>2021-06-19T08:33:54Z</time>
      </trkpt>
      <trkpt lat="39.8454070" lon="2.8949840">
        <ele>516.7</ele>
        <time>2021-06-19T08:33:59Z</time>
      </trkpt>
      <trkpt lat="39.8457440" lon="2.8949040">
        <ele>516.3</ele>
        <time>2021-06-19T08:34:05Z</time>
      </trkpt>
      <trkpt lat="39.8459960" lon="2.8948840">
        <ele>515.9</ele>
        <time>2021-06-19T08:34:09Z</time>
      </trkpt>
      <trkpt lat="39.8460480" lon="2.8948970">
        <ele>515.8</ele>
        <time>2021-06-19T08:34:10Z</time>
      </trkpt>
      <trkpt lat="39.8463110" lon="2.8950100">
        <ele>515.4</ele>
        <time>2021-06-19T08:34:14Z</time>
      </trkpt>
      <trkpt lat="39.8464430" lon="2.8950840">
        <ele>515.1</ele>
        <time>2021-06-19T08:34:16Z</time>
      </trkpt>
      <trkpt lat="39.8465790" lon="2.8951540">
        <ele>514.8</ele>
        <time>2021-06-19T08:34:18Z</time>
      </trkpt>
      <trkpt lat="39.8469400" lon="2.8953680">
        <ele>513.8</ele>
        <time>2021-06-19T08:34:23Z</time>
      </trkpt>
      <trkpt lat="39.8474700" lon="2.8957570">
        <ele>512.1</ele>
        <time>2021-06-19T08:34:30Z</time>
      </trkpt>
      <trkpt lat="39.8478340" lon="2.8960360">
        <ele>510.8</ele>
        <time>2021-06-19T08:34:35Z</time>
      </trkpt>
      <trkpt lat="39.8480810" lon="2.8962290">
        <ele>509.9</ele>
        <time>2021-06-19T08:34:38Z</time>
      </trkpt>
      <trkpt lat="39.8481590" lon="2.8962850">
        <ele>509.6</ele>
        <time>2021-06-19T08:34:39Z</time>
      </trkpt>
      <trkpt lat="39.8483030" lon="2.8963600">
        <ele>508.9</ele>
        <time>2021-06-19T08:34:41Z</time>
      </trkpt>
      <trkpt lat="39.8484080" lon="2.8963920">
        <ele>508.3</ele>
        <time>2021-06-19T08:34:42Z</time>
      </trkpt>
      <trkpt lat="39.8485820" lon="2.8964150">
        <ele>507.3</ele>
        <time>2021-06-19T08:34:44Z</time>
      </trkpt>
      <trkpt lat="39.8489070" lon="2.8964610">
        <ele>505.3</ele>
        <time>2021-06-19T08:34:47Z</time>
      </trkpt>
      <trkpt lat="39.8489920" lon="2.8964710">
        <ele>504.9</ele>
        <time>2021-06-19T08:34:48Z</time>
      </trkpt>
      <trkpt lat="39.8496170" lon="2.8965440">
        <ele>503.0</ele>
        <time>2021-06-19T08:34:54Z</time>
      </trkpt>
      <trkpt lat="39.8498140" lon="2.8965630">
        <ele>502.8</ele>
        <time>2021-06-19T08:34:56Z</time>
      </trkpt>
      <trkpt lat="39.8503340" lon="2.8966240">
        <ele>504.9</ele>
        <time>2021-06-19T08:35:01Z</time>
      </trkpt>
      <trkpt lat="39.8505970" lon="2.8966640">
        <ele>506.3</ele>
        <time>2021-06-19T08:35:06Z</time>
      </trkpt>
      <trkpt lat="39.8506580" lon="2.8966740">
        <ele>506.5</ele>
        <time>2021-06-19T08:35:07Z</time>
      </trkpt>
      <trkpt lat="39.8510020" lon="2.8967480">
        <ele>506.8</ele>
        <time>2021-06-19T08:35:12Z</time>
      </trkpt>
      <trkpt lat="39.8510750" lon="2.8967690">
        <ele>506.8</ele>
        <time>2021-06-19T08:35:13Z</time>
      </trkpt>
      <trkpt lat="39.8513850" lon="2.8968590">
        <ele>506.5</ele>
        <time>2021-06-19T08:35:17Z</time>
      </trkpt>
      <trkpt lat="39.8514650" lon="2.8968830">
        <ele>506.5</ele>
        <time>2021-06-19T08:35:18Z</time>
      </trkpt>
      <trkpt lat="39.8520560" lon="2.8970660">
        <ele>507.6</ele>
        <time>2021-06-19T08:35:26Z</time>
      </trkpt>
      <trkpt lat="39.8523380" lon="2.8971500">
        <ele>509.9</ele>
        <time>2021-06-19T08:35:31Z</time>
      </trkpt>
      <trkpt lat="39.8525740" lon="2.8972420">
        <ele>512.1</ele>
        <time>2021-06-19T08:35:37Z</time>
      </trkpt>
      <trkpt lat="39.8526960" lon="2.8972910">
        <ele>513.2</ele>
        <time>2021-06-19T08:35:40Z</time>
      </trkpt>
      <trkpt lat="39.8527380" lon="2.8973110">
        <ele>513.5</ele>
        <time>2021-06-19T08:35:41Z</time>
      </trkpt>
      <trkpt lat="39.8528180" lon="2.8973530">
        <ele>514.0</ele>
        <time>2021-06-19T08:35:43Z</time>
      </trkpt>
      <trkpt lat="39.8528870" lon="2.8973970">
        <ele>514.4</ele>
        <time>2021-06-19T08:35:45Z</time>
      </trkpt>
      <trkpt lat="39.8531320" lon="2.8975310">
        <ele>515.4</ele>
        <time>2021-06-19T08:35:51Z</time>
      </trkpt>
      <trkpt lat="39.8533030" lon="2.8976330">
        <ele>515.9</ele>
        <time>2021-06-19T08:35:55Z</time>
      </trkpt>
      <trkpt lat="39.8537310" lon="2.8979020">
        <ele>516.0</ele>
        <time>2021-06-19T08:36:04Z</time>
      </trkpt>
      <trkpt lat="39.8539670" lon="2.8981780">
        <ele>515.8</ele>
        <time>2021-06-19T08:36:09Z</time>
      </trkpt>
      <trkpt lat="39.8542170" lon="2.8986210">
        <ele>515.8</ele>
        <time>2021-06-19T08:36:16Z</time>
      </trkpt>
      <trkpt lat="39.8544930" lon="2.8991210">
        <ele>517.9</ele>
        <time>2021-06-19T08:36:25Z</time>
      </trkpt>
      <trkpt lat="39.8546610" lon="2.8994460">
        <ele>520.4</ele>
        <time>2021-06-19T08:36:32Z</time>
      </trkpt>
      <trkpt lat="39.8547860" lon="2.8996550">
        <ele>522.2</ele>
        <time>2021-06-19T08:36:39Z</time>
      </trkpt>
      <trkpt lat="39.8548070" lon="2.8996910">
        <ele>522.5</ele>
        <time>2021-06-19T08:36:40Z</time>
      </trkpt>
      <trkpt lat="39.8549270" lon="2.8999040">
        <ele>524.2</ele>
        <time>2021-06-19T08:36:46Z</time>
      </trkpt>
      <trkpt lat="39.8550280" lon="2.9000960">
        <ele>525.7</ele>
        <time>2021-06-19T08:36:51Z</time>
      </trkpt>
      <trkpt lat="39.8552300" lon="2.9004340">
        <ele>528.6</ele>
        <time>2021-06-19T08:37:01Z</time>
      </trkpt>
      <trkpt lat="39.8554090" lon="2.9007650">
        <ele>531.0</ele>
        <time>2021-06-19T08:37:10Z</time>
      </trkpt>
      <trkpt lat="39.8556190" lon="2.9010860">
        <ele>532.6</ele>
        <time>2021-06-19T08:37:19Z</time>
      </trkpt>
      <trkpt lat="39.8558160" lon="2.9014260">
        <ele>532.7</ele>
        <time>2021-06-19T08:37:27Z</time>
      </trkpt>
      <trkpt lat="39.8559150" lon="2.9015900">
        <ele>532.5</ele>
        <time>2021-06-19T08:37:30Z</time>
      </trkpt>
      <trkpt lat="39.8560040" lon="2.9017780">
        <ele>532.1</ele>
        <time>2021-06-19T08:37:33Z</time>
      </trkpt>
      <trkpt lat="39.8561170" lon="2.9021040">
        <ele>531.3</ele>
        <time>2021-06-19T08:37:37Z</time>
      </trkpt>
      <trkpt lat="39.8561340" lon="2.9022030">
        <ele>531.0</ele>
        <time>2021-06-19T08:37:38Z</time>
      </trkpt>
      <trkpt lat="39.8561630" lon="2.9025170">
        <ele>529.8</ele>
        <time>2021-06-19T08:37:41Z</time>
      </trkpt>
      <trkpt lat="39.8561700" lon="2.9029780">
        <ele>527.2</ele>
        <time>2021-06-19T08:37:45Z</time>
      </trkpt>
      <trkpt lat="39.8561500" lon="2.9032310">
        <ele>525.8</ele>
        <time>2021-06-19T08:37:47Z</time>
      </trkpt>
      <trkpt lat="39.8560650" lon="2.9036060">
        <ele>523.5</ele>
        <time>2021-06-19T08:37:50Z</time>
      </trkpt>
      <trkpt lat="39.8560210" lon="2.9037280">
        <ele>522.7</ele>
        <time>2021-06-19T08:37:51Z</time>
      </trkpt>
      <trkpt lat="39.8559710" lon="2.9038420">
        <ele>521.9</ele>
        <time>2021-06-19T08:37:52Z</time>
      </trkpt>
      <trkpt lat="39.8558270" lon="2.9040350">
        <ele>520.2</ele>
        <time>2021-06-19T08:37:54Z</time>
      </trkpt>
      <trkpt lat="39.8556350" lon="2.9041550">
        <ele>518.4</ele>
        <time>2021-06-19T08:37:56Z</time>
      </trkpt>
      <trkpt lat="39.8555330" lon="2.9041810">
        <ele>517.5</ele>
        <time>2021-06-19T08:37:57Z</time>
      </trkpt>
      <trkpt lat="39.8550460" lon="2.9042970">
        <ele>514.1</ele>
        <time>2021-06-19T08:38:01Z</time>
      </trkpt>
      <trkpt lat="39.8550100" lon="2.9043300">
        <ele>513.8</ele>
        <time>2021-06-19T08:38:02Z</time>
      </trkpt>
      <trkpt lat="39.8549730" lon="2.9043630">
        <ele>513.4</ele>
        <time>2021-06-19T08:38:03Z</time>
      </trkpt>
      <trkpt lat="39.8548390" lon="2.9045420">
        <ele>511.8</ele>
        <time>2021-06-19T08:38:05Z</time>
      </trkpt>
      <trkpt lat="39.8547060" lon="2.9047360">
        <ele>510.4</ele>
        <time>2021-06-19T08:38:07Z</time>
      </trkpt>
      <trkpt lat="39.8546430" lon="2.9048310">
        <ele>509.8</ele>
        <time>2021-06-19T08:38:08Z</time>
      </trkpt>
      <trkpt lat="39.8545810" lon="2.9049290">
        <ele>509.1</ele>
        <time>2021-06-19T08:38:09Z</time>
      </trkpt>
      <trkpt lat="39.8545320" lon="2.9050360">
        <ele>508.5</ele>
        <time>2021-06-19T08:38:10Z</time>
      </trkpt>
      <trkpt lat="39.8544990" lon="2.9051550">
        <ele>507.7</ele>
        <time>2021-06-19T08:38:11Z</time>
      </trkpt>
      <trkpt lat="39.8544140" lon="2.9056780">
        <ele>504.6</ele>
        <time>2021-06-19T08:38:15Z</time>
      </trkpt>
      <trkpt lat="39.8543440" lon="2.9059560">
        <ele>502.8</ele>
        <time>2021-06-19T08:38:17Z</time>
      </trkpt>
      <trkpt lat="39.8542840" lon="2.9060790">
        <ele>502.0</ele>
        <time>2021-06-19T08:38:18Z</time>
      </trkpt>
      <trkpt lat="39.8540530" lon="2.9065640">
        <ele>498.8</ele>
        <time>2021-06-19T08:38:22Z</time>
      </trkpt>
      <trkpt lat="39.8540240" lon="2.9066910">
        <ele>498.1</ele>
        <time>2021-06-19T08:38:23Z</time>
      </trkpt>
      <trkpt lat="39.8540160" lon="2.9068230">
        <ele>497.3</ele>
        <time>2021-06-19T08:38:24Z</time>
      </trkpt>
      <trkpt lat="39.8540550" lon="2.9070700">
        <ele>495.5</ele>
        <time>2021-06-19T08:38:26Z</time>
      </trkpt>
      <trkpt lat="39.8542590" lon="2.9076900">
        <ele>490.7</ele>
        <time>2021-06-19T08:38:31Z</time>
      </trkpt>
      <trkpt lat="39.8543190" lon="2.9078050">
        <ele>489.8</ele>
        <time>2021-06-19T08:38:32Z</time>
      </trkpt>
      <trkpt lat="39.8544750" lon="2.9079930">
        <ele>487.9</ele>
        <time>2021-06-19T08:38:34Z</time>
      </trkpt>
      <trkpt lat="39.8549790" lon="2.9084130">
        <ele>483.4</ele>
        <time>2021-06-19T08:38:39Z</time>
      </trkpt>
      <trkpt lat="39.8554830" lon="2.9088620">
        <ele>480.6</ele>
        <time>2021-06-19T08:38:44Z</time>
      </trkpt>
      <trkpt lat="39.8556580" lon="2.9090370">
        <ele>480.0</ele>
        <time>2021-06-19T08:38:46Z</time>
      </trkpt>
      <trkpt lat="39.8560450" lon="2.9094470">
        <ele>479.2</ele>
        <time>2021-06-19T08:38:51Z</time>
      </trkpt>
      <trkpt lat="39.8561900" lon="2.9096020">
        <ele>479.1</ele>
        <time>2021-06-19T08:38:53Z</time>
      </trkpt>
      <trkpt lat="39.8566180" lon="2.9100750">
        <ele>477.6</ele>
        <time>2021-06-19T08:38:59Z</time>
      </trkpt>
      <trkpt lat="39.8567800" lon="2.9102510">
        <ele>476.4</ele>
        <time>2021-06-19T08:39:01Z</time>
      </trkpt>
      <trkpt lat="39.8569720" lon="2.9103740">
        <ele>474.8</ele>
        <time>2021-06-19T08:39:03Z</time>
      </trkpt>
      <trkpt lat="39.8574180" lon="2.9104810">
        <ele>471.3</ele>
        <time>2021-06-19T08:39:07Z</time>
      </trkpt>
      <trkpt lat="39.8577600" lon="2.9105270">
        <ele>469.3</ele>
        <time>2021-06-19T08:39:10Z</time>
      </trkpt>
      <trkpt lat="39.8579860" lon="2.9105170">
        <ele>468.5</ele>
        <time>2021-06-19T08:39:12Z</time>
      </trkpt>
      <trkpt lat="39.8580870" lon="2.9105040">
        <ele>468.2</ele>
        <time>2021-06-19T08:39:13Z</time>
      </trkpt>
      <trkpt lat="39.8582660" lon="2.9104860">
        <ele>467.6</ele>
        <time>2021-06-19T08:39:15Z</time>
      </trkpt>
      <trkpt lat="39.8584210" lon="2.9105640">
        <ele>466.8</ele>
        <time>2021-06-19T08:39:17Z</time>
      </trkpt>
      <trkpt lat="39.8585030" lon="2.9107940">
        <ele>464.9</ele>
        <time>2021-06-19T08:39:19Z</time>
      </trkpt>
      <trkpt lat="39.8584300" lon="2.9109960">
        <ele>462.7</ele>
        <time>2021-06-19T08:39:21Z</time>
      </trkpt>
      <trkpt lat="39.8581990" lon="2.9112330">
        <ele>459.2</ele>
        <time>2021-06-19T08:39:24Z</time>
      </trkpt>
      <trkpt lat="39.8576860" lon="2.9117450">
        <ele>453.4</ele>
        <time>2021-06-19T08:39:30Z</time>
      </trkpt>
      <trkpt lat="39.8570910" lon="2.9123210">
        <ele>450.0</ele>
        <time>2021-06-19T08:39:36Z</time>
      </trkpt>
      <trkpt lat="39.8570910" lon="2.9123210">
        <ele>450.0</ele>
        <time>2021-06-19T08:39:37Z</time>
      </trkpt>
      <trkpt lat="39.8568790" lon="2.9125670">
        <ele>449.0</ele>
        <time>2021-06-19T08:39:40Z</time>
      </trkpt>
      <trkpt lat="39.8568260" lon="2.9126720">
        <ele>448.7</ele>
        <time>2021-06-19T08:39:41Z</time>
      </trkpt>
      <trkpt lat="39.8566700" lon="2.9130860">
        <ele>447.8</ele>
        <time>2021-06-19T08:39:45Z</time>
      </trkpt>
      <trkpt lat="39.8566460" lon="2.9132790">
        <ele>447.3</ele>
        <time>2021-06-19T08:39:47Z</time>
      </trkpt>
      <trkpt lat="39.8566620" lon="2.9133750">
        <ele>447.0</ele>
        <time>2021-06-19T08:39:48Z</time>
      </trkpt>
      <trkpt lat="39.8566940" lon="2.9134680">
        <ele>446.6</ele>
        <time>2021-06-19T08:39:49Z</time>
      </trkpt>
      <trkpt lat="39.8568310" lon="2.9137380">
        <ele>445.4</ele>
        <time>2021-06-19T08:39:52Z</time>
      </trkpt>
      <trkpt lat="39.8568960" lon="2.9138420">
        <ele>445.0</ele>
        <time>2021-06-19T08:39:53Z</time>
      </trkpt>
      <trkpt lat="39.8570460" lon="2.9140550">
        <ele>444.4</ele>
        <time>2021-06-19T08:39:56Z</time>
      </trkpt>
      <trkpt lat="39.8571130" lon="2.9140980">
        <ele>444.3</ele>
        <time>2021-06-19T08:39:57Z</time>
      </trkpt>
      <trkpt lat="39.8571990" lon="2.9141260">
        <ele>444.0</ele>
        <time>2021-06-19T08:39:58Z</time>
      </trkpt>
      <trkpt lat="39.8573550" lon="2.9141280">
        <ele>443.4</ele>
        <time>2021-06-19T08:40:00Z</time>
      </trkpt>
      <trkpt lat="39.8579340" lon="2.9140490">
        <ele>441.2</ele>
        <time>2021-06-19T08:40:07Z</time>
      </trkpt>
      <trkpt lat="39.8581130" lon="2.9140640">
        <ele>440.7</ele>
        <time>2021-06-19T08:40:09Z</time>
      </trkpt>
      <trkpt lat="39.8582850" lon="2.9141290">
        <ele>440.1</ele>
        <time>2021-06-19T08:40:11Z</time>
      </trkpt>
      <trkpt lat="39.8587530" lon="2.9144060">
        <ele>438.8</ele>
        <time>2021-06-19T08:40:17Z</time>
      </trkpt>
      <trkpt lat="39.8589690" lon="2.9145690">
        <ele>438.6</ele>
        <time>2021-06-19T08:40:20Z</time>
      </trkpt>
      <trkpt lat="39.8590930" lon="2.9146960">
        <ele>438.5</ele>
        <time>2021-06-19T08:40:22Z</time>
      </trkpt>
      <trkpt lat="39.8593730" lon="2.9151700">
        <ele>438.3</ele>
        <time>2021-06-19T08:40:28Z</time>
      </trkpt>
      <trkpt lat="39.8594860" lon="2.9154250">
        <ele>437.9</ele>
        <time>2021-06-19T08:40:31Z</time>
      </trkpt>
      <trkpt lat="39.8595380" lon="2.9154880">
        <ele>437.6</ele>
        <time>2021-06-19T08:40:32Z</time>
      </trkpt>
      <trkpt lat="39.8596030" lon="2.9155250">
        <ele>437.2</ele>
        <time>2021-06-19T08:40:33Z</time>
      </trkpt>
      <trkpt lat="39.8596710" lon="2.9155450">
        <ele>436.9</ele>
        <time>2021-06-19T08:40:34Z</time>
      </trkpt>
      <trkpt lat="39.8597470" lon="2.9155380">
        <ele>436.4</ele>
        <time>2021-06-19T08:40:35Z</time>
      </trkpt>
      <trkpt lat="39.8599140" lon="2.9154880">
        <ele>435.3</ele>
        <time>2021-06-19T08:40:37Z</time>
      </trkpt>
      <trkpt lat="39.8600000" lon="2.9154680">
        <ele>434.8</ele>
        <time>2021-06-19T08:40:38Z</time>
      </trkpt>
      <trkpt lat="39.8601820" lon="2.9154840">
        <ele>433.3</ele>
        <time>2021-06-19T08:40:40Z</time>
      </trkpt>
      <trkpt lat="39.8604670" lon="2.9156410">
        <ele>431.1</ele>
        <time>2021-06-19T08:40:43Z</time>
      </trkpt>
      <trkpt lat="39.8608410" lon="2.9159040">
        <ele>428.2</ele>
        <time>2021-06-19T08:40:47Z</time>
      </trkpt>
      <trkpt lat="39.8609180" lon="2.9159970">
        <ele>427.5</ele>
        <time>2021-06-19T08:40:48Z</time>
      </trkpt>
      <trkpt lat="39.8611380" lon="2.9164390">
        <ele>424.3</ele>
        <time>2021-06-19T08:40:52Z</time>
      </trkpt>
      <trkpt lat="39.8612930" lon="2.9165760">
        <ele>422.9</ele>
        <time>2021-06-19T08:40:54Z</time>
      </trkpt>
      <trkpt lat="39.8614930" lon="2.9166000">
        <ele>421.6</ele>
        <time>2021-06-19T08:40:56Z</time>
      </trkpt>
      <trkpt lat="39.8615940" lon="2.9165820">
        <ele>420.9</ele>
        <time>2021-06-19T08:40:57Z</time>
      </trkpt>
      <trkpt lat="39.8620930" lon="2.9164470">
        <ele>418.7</ele>
        <time>2021-06-19T08:41:02Z</time>
      </trkpt>
      <trkpt lat="39.8624870" lon="2.9163590">
        <ele>417.4</ele>
        <time>2021-06-19T08:41:06Z</time>
      </trkpt>
      <trkpt lat="39.8626770" lon="2.9163850">
        <ele>416.6</ele>
        <time>2021-06-19T08:41:08Z</time>
      </trkpt>
      <trkpt lat="39.8628510" lon="2.9164850">
        <ele>415.7</ele>
        <time>2021-06-19T08:41:10Z</time>
      </trkpt>
      <trkpt lat="39.8629290" lon="2.9165540">
        <ele>415.1</ele>
        <time>2021-06-19T08:41:11Z</time>
      </trkpt>
      <trkpt lat="39.8630010" lon="2.9166390">
        <ele>414.4</ele>
        <time>2021-06-19T08:41:12Z</time>
      </trkpt>
      <trkpt lat="39.8631150" lon="2.9168550">
        <ele>413.1</ele>
        <time>2021-06-19T08:41:14Z</time>
      </trkpt>
      <trkpt lat="39.8632220" lon="2.9170740">
        <ele>411.8</ele>
        <time>2021-06-19T08:41:16Z</time>
      </trkpt>
      <trkpt lat="39.8632990" lon="2.9171600">
        <ele>411.2</ele>
        <time>2021-06-19T08:41:17Z</time>
      </trkpt>
      <trkpt lat="39.8633880" lon="2.9172240">
        <ele>410.6</ele>
        <time>2021-06-19T08:41:18Z</time>
      </trkpt>
      <trkpt lat="39.8635850" lon="2.9173270">
        <ele>409.2</ele>
        <time>2021-06-19T08:41:20Z</time>
      </trkpt>
      <trkpt lat="39.8640780" lon="2.9175630">
        <ele>405.8</ele>
        <time>2021-06-19T08:41:25Z</time>
      </trkpt>
      <trkpt lat="39.8641580" lon="2.9176400">
        <ele>405.1</ele>
        <time>2021-06-19T08:41:26Z</time>
      </trkpt>
      <trkpt lat="39.8642250" lon="2.9177370">
        <ele>404.2</ele>
        <time>2021-06-19T08:41:27Z</time>
      </trkpt>
      <trkpt lat="39.8643180" lon="2.9179500">
        <ele>402.3</ele>
        <time>2021-06-19T08:41:29Z</time>
      </trkpt>
      <trkpt lat="39.8645120" lon="2.9186340">
        <ele>397.4</ele>
        <time>2021-06-19T08:41:34Z</time>
      </trkpt>
      <trkpt lat="39.8645610" lon="2.9187660">
        <ele>396.5</ele>
        <time>2021-06-19T08:41:35Z</time>
      </trkpt>
      <trkpt lat="39.8646290" lon="2.9188880">
        <ele>395.7</ele>
        <time>2021-06-19T08:41:36Z</time>
      </trkpt>
      <trkpt lat="39.8647910" lon="2.9191100">
        <ele>394.4</ele>
        <time>2021-06-19T08:41:38Z</time>
      </trkpt>
      <trkpt lat="39.8649540" lon="2.9193460">
        <ele>393.5</ele>
        <time>2021-06-19T08:41:40Z</time>
      </trkpt>
      <trkpt lat="39.8651710" lon="2.9197020">
        <ele>393.8</ele>
        <time>2021-06-19T08:41:43Z</time>
      </trkpt>
      <trkpt lat="39.8654000" lon="2.9200890">
        <ele>396.2</ele>
        <time>2021-06-19T08:41:47Z</time>
      </trkpt>
      <trkpt lat="39.8655900" lon="2.9203680">
        <ele>398.4</ele>
        <time>2021-06-19T08:41:51Z</time>
      </trkpt>
      <trkpt lat="39.8658440" lon="2.9207090">
        <ele>401.6</ele>
        <time>2021-06-19T08:41:57Z</time>
      </trkpt>
      <trkpt lat="39.8659730" lon="2.9209070">
        <ele>403.3</ele>
        <time>2021-06-19T08:42:01Z</time>
      </trkpt>
      <trkpt lat="39.8659950" lon="2.9209620">
        <ele>403.7</ele>
        <time>2021-06-19T08:42:02Z</time>
      </trkpt>
      <trkpt lat="39.8660100" lon="2.9210140">
        <ele>403.9</ele>
        <time>2021-06-19T08:42:03Z</time>
      </trkpt>
      <trkpt lat="39.8660320" lon="2.9211260">
        <ele>404.3</ele>
        <time>2021-06-19T08:42:05Z</time>
      </trkpt>
      <trkpt lat="39.8660330" lon="2.9211980">
        <ele>404.4</ele>
        <time>2021-06-19T08:42:06Z</time>
      </trkpt>
      <trkpt lat="39.8660000" lon="2.9216310">
        <ele>403.8</ele>
        <time>2021-06-19T08:42:12Z</time>
      </trkpt>
      <trkpt lat="39.8659800" lon="2.9219000">
        <ele>402.8</ele>
        <time>2021-06-19T08:42:15Z</time>
      </trkpt>
      <trkpt lat="39.8659700" lon="2.9221030">
        <ele>401.9</ele>
        <time>2021-06-19T08:42:17Z</time>
      </trkpt>
      <trkpt lat="39.8659700" lon="2.9222090">
        <ele>401.4</ele>
        <time>2021-06-19T08:42:18Z</time>
      </trkpt>
      <trkpt lat="39.8660070" lon="2.9225490">
        <ele>399.9</ele>
        <time>2021-06-19T08:42:21Z</time>
      </trkpt>
      <trkpt lat="39.8660310" lon="2.9226670">
        <ele>399.4</ele>
        <time>2021-06-19T08:42:22Z</time>
      </trkpt>
      <trkpt lat="39.8661290" lon="2.9231500">
        <ele>397.9</ele>
        <time>2021-06-19T08:42:26Z</time>
      </trkpt>
      <trkpt lat="39.8662270" lon="2.9236270">
        <ele>397.0</ele>
        <time>2021-06-19T08:42:30Z</time>
      </trkpt>
      <trkpt lat="39.8663350" lon="2.9241690">
        <ele>396.9</ele>
        <time>2021-06-19T08:42:35Z</time>
      </trkpt>
      <trkpt lat="39.8664120" lon="2.9243330">
        <ele>396.8</ele>
        <time>2021-06-19T08:42:37Z</time>
      </trkpt>
      <trkpt lat="39.8664660" lon="2.9243870">
        <ele>396.7</ele>
        <time>2021-06-19T08:42:38Z</time>
      </trkpt>
      <trkpt lat="39.8665310" lon="2.9244220">
        <ele>396.5</ele>
        <time>2021-06-19T08:42:39Z</time>
      </trkpt>
      <trkpt lat="39.8666850" lon="2.9244390">
        <ele>395.9</ele>
        <time>2021-06-19T08:42:41Z</time>
      </trkpt>
      <trkpt lat="39.8672110" lon="2.9244640">
        <ele>393.0</ele>
        <time>2021-06-19T08:42:47Z</time>
      </trkpt>
      <trkpt lat="39.8675030" lon="2.9245330">
        <ele>391.1</ele>
        <time>2021-06-19T08:42:50Z</time>
      </trkpt>
      <trkpt lat="39.8679040" lon="2.9246470">
        <ele>388.7</ele>
        <time>2021-06-19T08:42:54Z</time>
      </trkpt>
      <trkpt lat="39.8682980" lon="2.9247630">
        <ele>385.7</ele>
        <time>2021-06-19T08:42:58Z</time>
      </trkpt>
      <trkpt lat="39.8686160" lon="2.9248550">
        <ele>383.2</ele>
        <time>2021-06-19T08:43:01Z</time>
      </trkpt>
      <trkpt lat="39.8687280" lon="2.9248870">
        <ele>382.4</ele>
        <time>2021-06-19T08:43:02Z</time>
      </trkpt>
      <trkpt lat="39.8689460" lon="2.9249560">
        <ele>381.2</ele>
        <time>2021-06-19T08:43:04Z</time>
      </trkpt>
      <trkpt lat="39.8691320" lon="2.9250720">
        <ele>380.0</ele>
        <time>2021-06-19T08:43:06Z</time>
      </trkpt>
      <trkpt lat="39.8692850" lon="2.9252160">
        <ele>378.9</ele>
        <time>2021-06-19T08:43:08Z</time>
      </trkpt>
      <trkpt lat="39.8693510" lon="2.9253050">
        <ele>378.3</ele>
        <time>2021-06-19T08:43:09Z</time>
      </trkpt>
      <trkpt lat="39.8694110" lon="2.9254280">
        <ele>377.6</ele>
        <time>2021-06-19T08:43:10Z</time>
      </trkpt>
      <trkpt lat="39.8694390" lon="2.9255280">
        <ele>377.0</ele>
        <time>2021-06-19T08:43:11Z</time>
      </trkpt>
      <trkpt lat="39.8694510" lon="2.9256590">
        <ele>376.3</ele>
        <time>2021-06-19T08:43:12Z</time>
      </trkpt>
      <trkpt lat="39.8694380" lon="2.9258160">
        <ele>375.4</ele>
        <time>2021-06-19T08:43:13Z</time>
      </trkpt>
      <trkpt lat="39.8694010" lon="2.9259400">
        <ele>374.7</ele>
        <time>2021-06-19T08:43:14Z</time>
      </trkpt>
      <trkpt lat="39.8693020" lon="2.9261430">
        <ele>373.2</ele>
        <time>2021-06-19T08:43:16Z</time>
      </trkpt>
      <trkpt lat="39.8691710" lon="2.9263640">
        <ele>371.5</ele>
        <time>2021-06-19T08:43:18Z</time>
      </trkpt>
      <trkpt lat="39.8690200" lon="2.9265600">
        <ele>369.9</ele>
        <time>2021-06-19T08:43:20Z</time>
      </trkpt>
      <trkpt lat="39.8688750" lon="2.9267620">
        <ele>368.3</ele>
        <time>2021-06-19T08:43:22Z</time>
      </trkpt>
      <trkpt lat="39.8688090" lon="2.9269090">
        <ele>367.2</ele>
        <time>2021-06-19T08:43:23Z</time>
      </trkpt>
      <trkpt lat="39.8687650" lon="2.9270450">
        <ele>366.2</ele>
        <time>2021-06-19T08:43:24Z</time>
      </trkpt>
      <trkpt lat="39.8686940" lon="2.9273090">
        <ele>364.3</ele>
        <time>2021-06-19T08:43:26Z</time>
      </trkpt>
      <trkpt lat="39.8685160" lon="2.9280330">
        <ele>360.1</ele>
        <time>2021-06-19T08:43:31Z</time>
      </trkpt>
      <trkpt lat="39.8684550" lon="2.9282690">
        <ele>359.2</ele>
        <time>2021-06-19T08:43:33Z</time>
      </trkpt>
      <trkpt lat="39.8683880" lon="2.9285070">
        <ele>358.1</ele>
        <time>2021-06-19T08:43:35Z</time>
      </trkpt>
      <trkpt lat="39.8683490" lon="2.9285780">
        <ele>357.6</ele>
        <time>2021-06-19T08:43:36Z</time>
      </trkpt>
      <trkpt lat="39.8682780" lon="2.9286680">
        <ele>356.8</ele>
        <time>2021-06-19T08:43:37Z</time>
      </trkpt>
      <trkpt lat="39.8681940" lon="2.9287150">
        <ele>356.0</ele>
        <time>2021-06-19T08:43:38Z</time>
      </trkpt>
      <trkpt lat="39.8681030" lon="2.9287410">
        <ele>355.1</ele>
        <time>2021-06-19T08:43:39Z</time>
      </trkpt>
      <trkpt lat="39.8679290" lon="2.9286990">
        <ele>353.4</ele>
        <time>2021-06-19T08:43:41Z</time>
      </trkpt>
      <trkpt lat="39.8678460" lon="2.9285270">
        <ele>352.1</ele>
        <time>2021-06-19T08:43:43Z</time>
      </trkpt>
      <trkpt lat="39.8676730" lon="2.9279190">
        <ele>348.0</ele>
        <time>2021-06-19T08:43:48Z</time>
      </trkpt>
      <trkpt lat="39.8676270" lon="2.9278170">
        <ele>347.4</ele>
        <time>2021-06-19T08:43:49Z</time>
      </trkpt>
      <trkpt lat="39.8675770" lon="2.9277400">
        <ele>346.9</ele>
        <time>2021-06-19T08:43:50Z</time>
      </trkpt>
      <trkpt lat="39.8674270" lon="2.9276000">
        <ele>345.7</ele>
        <time>2021-06-19T08:43:52Z</time>
      </trkpt>
      <trkpt lat="39.8672740" lon="2.9276110">
        <ele>344.5</ele>
        <time>2021-06-19T08:43:54Z</time>
      </trkpt>
      <trkpt lat="39.8671410" lon="2.9277940">
        <ele>342.9</ele>
        <time>2021-06-19T08:43:56Z</time>
      </trkpt>
      <trkpt lat="39.8669110" lon="2.9283780">
        <ele>339.7</ele>
        <time>2021-06-19T08:44:01Z</time>
      </trkpt>
      <trkpt lat="39.8666390" lon="2.9290480">
        <ele>338.2</ele>
        <time>2021-06-19T08:44:07Z</time>
      </trkpt>
      <trkpt lat="39.8665860" lon="2.9291730">
        <ele>337.9</ele>
        <time>2021-06-19T08:44:08Z</time>
      </trkpt>
      <trkpt lat="39.8664870" lon="2.9293520">
        <ele>337.3</ele>
        <time>2021-06-19T08:44:10Z</time>
      </trkpt>
      <trkpt lat="39.8663300" lon="2.9295280">
        <ele>336.6</ele>
        <time>2021-06-19T08:44:12Z</time>
      </trkpt>
      <trkpt lat="39.8662060" lon="2.9296700">
        <ele>336.0</ele>
        <time>2021-06-19T08:44:14Z</time>
      </trkpt>
      <trkpt lat="39.8661140" lon="2.9298790">
        <ele>334.8</ele>
        <time>2021-06-19T08:44:16Z</time>
      </trkpt>
      <trkpt lat="39.8659430" lon="2.9305900">
        <ele>332.5</ele>
        <time>2021-06-19T08:44:22Z</time>
      </trkpt>
      <trkpt lat="39.8659070" lon="2.9307700">
        <ele>331.8</ele>
        <time>2021-06-19T08:44:24Z</time>
      </trkpt>
      <trkpt lat="39.8659660" lon="2.9309500">
        <ele>330.3</ele>
        <time>2021-06-19T08:44:26Z</time>
      </trkpt>
      <trkpt lat="39.8661190" lon="2.9311120">
        <ele>327.8</ele>
        <time>2021-06-19T08:44:28Z</time>
      </trkpt>
      <trkpt lat="39.8663210" lon="2.9311970">
        <ele>325.3</ele>
        <time>2021-06-19T08:44:30Z</time>
      </trkpt>
      <trkpt lat="39.8664320" lon="2.9312220">
        <ele>324.3</ele>
        <time>2021-06-19T08:44:31Z</time>
      </trkpt>
      <trkpt lat="39.8667370" lon="2.9313130">
        <ele>322.3</ele>
        <time>2021-06-19T08:44:34Z</time>
      </trkpt>
      <trkpt lat="39.8668240" lon="2.9313720">
        <ele>321.6</ele>
        <time>2021-06-19T08:44:35Z</time>
      </trkpt>
      <trkpt lat="39.8668970" lon="2.9314580">
        <ele>320.8</ele>
        <time>2021-06-19T08:44:36Z</time>
      </trkpt>
      <trkpt lat="39.8670030" lon="2.9316870">
        <ele>318.8</ele>
        <time>2021-06-19T08:44:38Z</time>
      </trkpt>
      <trkpt lat="39.8672250" lon="2.9323430">
        <ele>314.7</ele>
        <time>2021-06-19T08:44:43Z</time>
      </trkpt>
      <trkpt lat="39.8672910" lon="2.9325740">
        <ele>313.6</ele>
        <time>2021-06-19T08:44:45Z</time>
      </trkpt>
      <trkpt lat="39.8672970" lon="2.9326870">
        <ele>313.0</ele>
        <time>2021-06-19T08:44:46Z</time>
      </trkpt>
      <trkpt lat="39.8672680" lon="2.9327980">
        <ele>312.2</ele>
        <time>2021-06-19T08:44:47Z</time>
      </trkpt>
      <trkpt lat="39.8672240" lon="2.9329030">
        <ele>311.4</ele>
        <time>2021-06-19T08:44:48Z</time>
      </trkpt>
      <trkpt lat="39.8671650" lon="2.9329960">
        <ele>310.4</ele>
        <time>2021-06-19T08:44:49Z</time>
      </trkpt>
      <trkpt lat="39.8669440" lon="2.9332750">
        <ele>307.5</ele>
        <time>2021-06-19T08:44:52Z</time>
      </trkpt>
      <trkpt lat="39.8668260" lon="2.9334500">
        <ele>305.9</ele>
        <time>2021-06-19T08:44:54Z</time>
      </trkpt>
      <trkpt lat="39.8667310" lon="2.9336920">
        <ele>304.0</ele>
        <time>2021-06-19T08:44:56Z</time>
      </trkpt>
      <trkpt lat="39.8666760" lon="2.9341280">
        <ele>300.5</ele>
        <time>2021-06-19T08:44:59Z</time>
      </trkpt>
      <trkpt lat="39.8666240" lon="2.9349230">
        <ele>295.2</ele>
        <time>2021-06-19T08:45:04Z</time>
      </trkpt>
      <trkpt lat="39.8666120" lon="2.9350820">
        <ele>294.1</ele>
        <time>2021-06-19T08:45:05Z</time>
      </trkpt>
      <trkpt lat="39.8665880" lon="2.9355490">
        <ele>291.1</ele>
        <time>2021-06-19T08:45:08Z</time>
      </trkpt>
      <trkpt lat="39.8666200" lon="2.9358680">
        <ele>288.8</ele>
        <time>2021-06-19T08:45:10Z</time>
      </trkpt>
      <trkpt lat="39.8667680" lon="2.9366770">
        <ele>283.4</ele>
        <time>2021-06-19T08:45:15Z</time>
      </trkpt>
      <trkpt lat="39.8668150" lon="2.9369830">
        <ele>281.6</ele>
        <time>2021-06-19T08:45:17Z</time>
      </trkpt>
      <trkpt lat="39.8668920" lon="2.9374410">
        <ele>279.0</ele>
        <time>2021-06-19T08:45:20Z</time>
      </trkpt>
      <trkpt lat="39.8669630" lon="2.9377330">
        <ele>277.2</ele>
        <time>2021-06-19T08:45:22Z</time>
      </trkpt>
      <trkpt lat="39.8670070" lon="2.9378750">
        <ele>276.3</ele>
        <time>2021-06-19T08:45:23Z</time>
      </trkpt>
      <trkpt lat="39.8672240" lon="2.9385600">
        <ele>272.5</ele>
        <time>2021-06-19T08:45:28Z</time>
      </trkpt>
      <trkpt lat="39.8672480" lon="2.9387010">
        <ele>271.7</ele>
        <time>2021-06-19T08:45:29Z</time>
      </trkpt>
      <trkpt lat="39.8672740" lon="2.9392660">
        <ele>268.7</ele>
        <time>2021-06-19T08:45:33Z</time>
      </trkpt>
      <trkpt lat="39.8672920" lon="2.9393900">
        <ele>268.0</ele>
        <time>2021-06-19T08:45:34Z</time>
      </trkpt>
      <trkpt lat="39.8673850" lon="2.9396270">
        <ele>266.7</ele>
        <time>2021-06-19T08:45:36Z</time>
      </trkpt>
      <trkpt lat="39.8675120" lon="2.9398040">
        <ele>265.5</ele>
        <time>2021-06-19T08:45:38Z</time>
      </trkpt>
      <trkpt lat="39.8675990" lon="2.9399060">
        <ele>264.8</ele>
        <time>2021-06-19T08:45:39Z</time>
      </trkpt>
      <trkpt lat="39.8677950" lon="2.9401380">
        <ele>263.5</ele>
        <time>2021-06-19T08:45:42Z</time>
      </trkpt>
      <trkpt lat="39.8680730" lon="2.9404720">
        <ele>261.7</ele>
        <time>2021-06-19T08:45:46Z</time>
      </trkpt>
      <trkpt lat="39.8684330" lon="2.9407890">
        <ele>259.6</ele>
        <time>2021-06-19T08:45:51Z</time>
      </trkpt>
      <trkpt lat="39.8687000" lon="2.9409580">
        <ele>258.3</ele>
        <time>2021-06-19T08:45:54Z</time>
      </trkpt>
      <trkpt lat="39.8688720" lon="2.9410300">
        <ele>257.6</ele>
        <time>2021-06-19T08:45:56Z</time>
      </trkpt>
      <trkpt lat="39.8691610" lon="2.9411040">
        <ele>256.3</ele>
        <time>2021-06-19T08:46:00Z</time>
      </trkpt>
      <trkpt lat="39.8692850" lon="2.9412140">
        <ele>255.3</ele>
        <time>2021-06-19T08:46:02Z</time>
      </trkpt>
      <trkpt lat="39.8693280" lon="2.9414010">
        <ele>254.0</ele>
        <time>2021-06-19T08:46:04Z</time>
      </trkpt>
      <trkpt lat="39.8693600" lon="2.9417170">
        <ele>251.6</ele>
        <time>2021-06-19T08:46:07Z</time>
      </trkpt>
      <trkpt lat="39.8694150" lon="2.9419440">
        <ele>249.8</ele>
        <time>2021-06-19T08:46:09Z</time>
      </trkpt>
      <trkpt lat="39.8696500" lon="2.9426690">
        <ele>244.7</ele>
        <time>2021-06-19T08:46:15Z</time>
      </trkpt>
      <trkpt lat="39.8697760" lon="2.9431210">
        <ele>242.2</ele>
        <time>2021-06-19T08:46:19Z</time>
      </trkpt>
      <trkpt lat="39.8697810" lon="2.9432160">
        <ele>241.5</ele>
        <time>2021-06-19T08:46:20Z</time>
      </trkpt>
      <trkpt lat="39.8697620" lon="2.9433100">
        <ele>240.9</ele>
        <time>2021-06-19T08:46:21Z</time>
      </trkpt>
      <trkpt lat="39.8697210" lon="2.9433970">
        <ele>240.2</ele>
        <time>2021-06-19T08:46:22Z</time>
      </trkpt>
      <trkpt lat="39.8696620" lon="2.9434670">
        <ele>239.4</ele>
        <time>2021-06-19T08:46:23Z</time>
      </trkpt>
      <trkpt lat="39.8695130" lon="2.9435510">
        <ele>237.8</ele>
        <time>2021-06-19T08:46:25Z</time>
      </trkpt>
      <trkpt lat="39.8693490" lon="2.9435110">
        <ele>236.3</ele>
        <time>2021-06-19T08:46:27Z</time>
      </trkpt>
      <trkpt lat="39.8692250" lon="2.9433450">
        <ele>234.6</ele>
        <time>2021-06-19T08:46:29Z</time>
      </trkpt>
      <trkpt lat="39.8691830" lon="2.9432320">
        <ele>233.8</ele>
        <time>2021-06-19T08:46:30Z</time>
      </trkpt>
      <trkpt lat="39.8690310" lon="2.9426080">
        <ele>229.9</ele>
        <time>2021-06-19T08:46:35Z</time>
      </trkpt>
      <trkpt lat="39.8689670" lon="2.9422410">
        <ele>228.1</ele>
        <time>2021-06-19T08:46:38Z</time>
      </trkpt>
      <trkpt lat="39.8689560" lon="2.9419700">
        <ele>226.7</ele>
        <time>2021-06-19T08:46:40Z</time>
      </trkpt>
      <trkpt lat="39.8689710" lon="2.9416530">
        <ele>224.9</ele>
        <time>2021-06-19T08:46:43Z</time>
      </trkpt>
      <trkpt lat="39.8689370" lon="2.9415570">
        <ele>224.3</ele>
        <time>2021-06-19T08:46:44Z</time>
      </trkpt>
      <trkpt lat="39.8687920" lon="2.9413950">
        <ele>222.9</ele>
        <time>2021-06-19T08:46:46Z</time>
      </trkpt>
      <trkpt lat="39.8686840" lon="2.9413660">
        <ele>222.1</ele>
        <time>2021-06-19T08:46:47Z</time>
      </trkpt>
      <trkpt lat="39.8685780" lon="2.9413700">
        <ele>221.3</ele>
        <time>2021-06-19T08:46:48Z</time>
      </trkpt>
      <trkpt lat="39.8683390" lon="2.9413640">
        <ele>219.4</ele>
        <time>2021-06-19T08:46:50Z</time>
      </trkpt>
      <trkpt lat="39.8679270" lon="2.9412510">
        <ele>216.4</ele>
        <time>2021-06-19T08:46:54Z</time>
      </trkpt>
      <trkpt lat="39.8674270" lon="2.9410400">
        <ele>213.0</ele>
        <time>2021-06-19T08:46:59Z</time>
      </trkpt>
      <trkpt lat="39.8671660" lon="2.9409060">
        <ele>211.3</ele>
        <time>2021-06-19T08:47:02Z</time>
      </trkpt>
      <trkpt lat="39.8670850" lon="2.9408400">
        <ele>210.6</ele>
        <time>2021-06-19T08:47:03Z</time>
      </trkpt>
      <trkpt lat="39.8670100" lon="2.9407610">
        <ele>210.0</ele>
        <time>2021-06-19T08:47:04Z</time>
      </trkpt>
      <trkpt lat="39.8668730" lon="2.9405710">
        <ele>208.7</ele>
        <time>2021-06-19T08:47:06Z</time>
      </trkpt>
      <trkpt lat="39.8665310" lon="2.9400460">
        <ele>205.7</ele>
        <time>2021-06-19T08:47:11Z</time>
      </trkpt>
      <trkpt lat="39.8663460" lon="2.9397170">
        <ele>204.2</ele>
        <time>2021-06-19T08:47:14Z</time>
      </trkpt>
      <trkpt lat="39.8662930" lon="2.9395990">
        <ele>203.6</ele>
        <time>2021-06-19T08:47:15Z</time>
      </trkpt>
      <trkpt lat="39.8662520" lon="2.9394770">
        <ele>202.9</ele>
        <time>2021-06-19T08:47:16Z</time>
      </trkpt>
      <trkpt lat="39.8662300" lon="2.9393470">
        <ele>202.4</ele>
        <time>2021-06-19T08:47:17Z</time>
      </trkpt>
      <trkpt lat="39.8662150" lon="2.9390940">
        <ele>201.6</ele>
        <time>2021-06-19T08:47:19Z</time>
      </trkpt>
      <trkpt lat="39.8661940" lon="2.9388560">
        <ele>201.1</ele>
        <time>2021-06-19T08:47:21Z</time>
      </trkpt>
      <trkpt lat="39.8661280" lon="2.9386550">
        <ele>200.6</ele>
        <time>2021-06-19T08:47:23Z</time>
      </trkpt>
      <trkpt lat="39.8660050" lon="2.9385170">
        <ele>199.6</ele>
        <time>2021-06-19T08:47:25Z</time>
      </trkpt>
      <trkpt lat="39.8659270" lon="2.9385290">
        <ele>198.9</ele>
        <time>2021-06-19T08:47:26Z</time>
      </trkpt>
      <trkpt lat="39.8658570" lon="2.9385780">
        <ele>198.0</ele>
        <time>2021-06-19T08:47:27Z</time>
      </trkpt>
      <trkpt lat="39.8658000" lon="2.9386660">
        <ele>196.8</ele>
        <time>2021-06-19T08:47:28Z</time>
      </trkpt>
      <trkpt lat="39.8657770" lon="2.9387920">
        <ele>195.4</ele>
        <time>2021-06-19T08:47:29Z</time>
      </trkpt>
      <trkpt lat="39.8657850" lon="2.9389250">
        <ele>194.0</ele>
        <time>2021-06-19T08:47:30Z</time>
      </trkpt>
      <trkpt lat="39.8658070" lon="2.9390640">
        <ele>192.7</ele>
        <time>2021-06-19T08:47:31Z</time>
      </trkpt>
      <trkpt lat="39.8658700" lon="2.9393200">
        <ele>190.6</ele>
        <time>2021-06-19T08:47:33Z</time>
      </trkpt>
      <trkpt lat="39.8660540" lon="2.9400710">
        <ele>185.7</ele>
        <time>2021-06-19T08:47:38Z</time>
      </trkpt>
      <trkpt lat="39.8660940" lon="2.9402220">
        <ele>184.8</ele>
        <time>2021-06-19T08:47:39Z</time>
      </trkpt>
      <trkpt lat="39.8661420" lon="2.9403650">
        <ele>184.0</ele>
        <time>2021-06-19T08:47:40Z</time>
      </trkpt>
      <trkpt lat="39.8661970" lon="2.9405050">
        <ele>183.1</ele>
        <time>2021-06-19T08:47:41Z</time>
      </trkpt>
      <trkpt lat="39.8662570" lon="2.9406480">
        <ele>182.3</ele>
        <time>2021-06-19T08:47:42Z</time>
      </trkpt>
      <trkpt lat="39.8663190" lon="2.9407930">
        <ele>181.4</ele>
        <time>2021-06-19T08:47:43Z</time>
      </trkpt>
      <trkpt lat="39.8664320" lon="2.9410940">
        <ele>179.6</ele>
        <time>2021-06-19T08:47:45Z</time>
      </trkpt>
      <trkpt lat="39.8664990" lon="2.9414020">
        <ele>177.8</ele>
        <time>2021-06-19T08:47:47Z</time>
      </trkpt>
      <trkpt lat="39.8665280" lon="2.9417080">
        <ele>176.1</ele>
        <time>2021-06-19T08:47:49Z</time>
      </trkpt>
      <trkpt lat="39.8665920" lon="2.9419810">
        <ele>174.5</ele>
        <time>2021-06-19T08:47:51Z</time>
      </trkpt>
      <trkpt lat="39.8667890" lon="2.9423670">
        <ele>171.7</ele>
        <time>2021-06-19T08:47:53Z</time>
      </trkpt>
      <trkpt lat="39.8667890" lon="2.9423670">
        <ele>171.7</ele>
        <time>2021-06-19T08:47:54Z</time>
      </trkpt>
      <trkpt lat="39.8670840" lon="2.9428620">
        <ele>168.2</ele>
        <time>2021-06-19T08:47:58Z</time>
      </trkpt>
      <trkpt lat="39.8672550" lon="2.9430800">
        <ele>166.6</ele>
        <time>2021-06-19T08:48:00Z</time>
      </trkpt>
      <trkpt lat="39.8676710" lon="2.9434120">
        <ele>164.2</ele>
        <time>2021-06-19T08:48:04Z</time>
      </trkpt>
      <trkpt lat="39.8677650" lon="2.9434840">
        <ele>163.7</ele>
        <time>2021-06-19T08:48:05Z</time>
      </trkpt>
      <trkpt lat="39.8678500" lon="2.9435750">
        <ele>163.0</ele>
        <time>2021-06-19T08:48:06Z</time>
      </trkpt>
      <trkpt lat="39.8679050" lon="2.9436950">
        <ele>162.2</ele>
        <time>2021-06-19T08:48:07Z</time>
      </trkpt>
      <trkpt lat="39.8679350" lon="2.9438300">
        <ele>161.4</ele>
        <time>2021-06-19T08:48:08Z</time>
      </trkpt>
      <trkpt lat="39.8679750" lon="2.9441100">
        <ele>159.7</ele>
        <time>2021-06-19T08:48:10Z</time>
      </trkpt>
      <trkpt lat="39.8680080" lon="2.9442390">
        <ele>158.9</ele>
        <time>2021-06-19T08:48:11Z</time>
      </trkpt>
      <trkpt lat="39.8680960" lon="2.9444780">
        <ele>157.5</ele>
        <time>2021-06-19T08:48:13Z</time>
      </trkpt>
      <trkpt lat="39.8681320" lon="2.9446010">
        <ele>156.9</ele>
        <time>2021-06-19T08:48:14Z</time>
      </trkpt>
      <trkpt lat="39.8683290" lon="2.9451050">
        <ele>154.3</ele>
        <time>2021-06-19T08:48:18Z</time>
      </trkpt>
      <trkpt lat="39.8684390" lon="2.9452700">
        <ele>153.2</ele>
        <time>2021-06-19T08:48:20Z</time>
      </trkpt>
      <trkpt lat="39.8685760" lon="2.9454060">
        <ele>151.9</ele>
        <time>2021-06-19T08:48:22Z</time>
      </trkpt>
      <trkpt lat="39.8686460" lon="2.9454600">
        <ele>151.4</ele>
        <time>2021-06-19T08:48:23Z</time>
      </trkpt>
      <trkpt lat="39.8689040" lon="2.9456270">
        <ele>149.7</ele>
        <time>2021-06-19T08:48:27Z</time>
      </trkpt>
      <trkpt lat="39.8691940" lon="2.9458110">
        <ele>148.5</ele>
        <time>2021-06-19T08:48:31Z</time>
      </trkpt>
      <trkpt lat="39.8692690" lon="2.9458720">
        <ele>148.1</ele>
        <time>2021-06-19T08:48:32Z</time>
      </trkpt>
      <trkpt lat="39.8693330" lon="2.9459420">
        <ele>147.7</ele>
        <time>2021-06-19T08:48:33Z</time>
      </trkpt>
      <trkpt lat="39.8693810" lon="2.9460230">
        <ele>147.2</ele>
        <time>2021-06-19T08:48:34Z</time>
      </trkpt>
      <trkpt lat="39.8694180" lon="2.9462180">
        <ele>146.0</ele>
        <time>2021-06-19T08:48:36Z</time>
      </trkpt>
      <trkpt lat="39.8693690" lon="2.9464500">
        <ele>145.4</ele>
        <time>2021-06-19T08:48:38Z</time>
      </trkpt>
      <trkpt lat="39.8693170" lon="2.9465400">
        <ele>144.6</ele>
        <time>2021-06-19T08:48:39Z</time>
      </trkpt>
      <trkpt lat="39.8692260" lon="2.9467150">
        <ele>143.0</ele>
        <time>2021-06-19T08:48:41Z</time>
      </trkpt>
      <trkpt lat="39.8691810" lon="2.9469640">
        <ele>141.2</ele>
        <time>2021-06-19T08:48:43Z</time>
      </trkpt>
      <trkpt lat="39.8691740" lon="2.9476230">
        <ele>137.3</ele>
        <time>2021-06-19T08:48:48Z</time>
      </trkpt>
      <trkpt lat="39.8692030" lon="2.9484570">
        <ele>133.0</ele>
        <time>2021-06-19T08:48:54Z</time>
      </trkpt>
      <trkpt lat="39.8691830" lon="2.9488630">
        <ele>130.8</ele>
        <time>2021-06-19T08:48:57Z</time>
      </trkpt>
      <trkpt lat="39.8691580" lon="2.9489980">
        <ele>130.0</ele>
        <time>2021-06-19T08:48:58Z</time>
      </trkpt>
      <trkpt lat="39.8690050" lon="2.9496790">
        <ele>125.6</ele>
        <time>2021-06-19T08:49:03Z</time>
      </trkpt>
      <trkpt lat="39.8689700" lon="2.9498200">
        <ele>124.7</ele>
        <time>2021-06-19T08:49:04Z</time>
      </trkpt>
      <trkpt lat="39.8687820" lon="2.9505200">
        <ele>120.4</ele>
        <time>2021-06-19T08:49:09Z</time>
      </trkpt>
      <trkpt lat="39.8687290" lon="2.9506530">
        <ele>119.7</ele>
        <time>2021-06-19T08:49:10Z</time>
      </trkpt>
      <trkpt lat="39.8685120" lon="2.9511900">
        <ele>116.7</ele>
        <time>2021-06-19T08:49:14Z</time>
      </trkpt>
      <trkpt lat="39.8684820" lon="2.9513370">
        <ele>116.0</ele>
        <time>2021-06-19T08:49:15Z</time>
      </trkpt>
      <trkpt lat="39.8684450" lon="2.9516380">
        <ele>115.3</ele>
        <time>2021-06-19T08:49:17Z</time>
      </trkpt>
      <trkpt lat="39.8684310" lon="2.9517900">
        <ele>115.0</ele>
        <time>2021-06-19T08:49:18Z</time>
      </trkpt>
      <trkpt lat="39.8684070" lon="2.9520900">
        <ele>114.5</ele>
        <time>2021-06-19T08:49:20Z</time>
      </trkpt>
      <trkpt lat="39.8683930" lon="2.9522340">
        <ele>114.3</ele>
        <time>2021-06-19T08:49:21Z</time>
      </trkpt>
      <trkpt lat="39.8683810" lon="2.9523750">
        <ele>114.1</ele>
        <time>2021-06-19T08:49:22Z</time>
      </trkpt>
      <trkpt lat="39.8683570" lon="2.9526500">
        <ele>113.5</ele>
        <time>2021-06-19T08:49:24Z</time>
      </trkpt>
      <trkpt lat="39.8683440" lon="2.9527830">
        <ele>113.2</ele>
        <time>2021-06-19T08:49:25Z</time>
      </trkpt>
      <trkpt lat="39.8683110" lon="2.9533270">
        <ele>112.2</ele>
        <time>2021-06-19T08:49:29Z</time>
      </trkpt>
      <trkpt lat="39.8683220" lon="2.9534270">
        <ele>112.0</ele>
        <time>2021-06-19T08:49:30Z</time>
      </trkpt>
      <trkpt lat="39.8684380" lon="2.9539070">
        <ele>111.4</ele>
        <time>2021-06-19T08:49:34Z</time>
      </trkpt>
      <trkpt lat="39.8686420" lon="2.9545620">
        <ele>111.3</ele>
        <time>2021-06-19T08:49:40Z</time>
      </trkpt>
      <trkpt lat="39.8686740" lon="2.9546660">
        <ele>111.3</ele>
        <time>2021-06-19T08:49:41Z</time>
      </trkpt>
      <trkpt lat="39.8688600" lon="2.9552540">
        <ele>111.4</ele>
        <time>2021-06-19T08:49:47Z</time>
      </trkpt>
      <trkpt lat="39.8688900" lon="2.9553440">
        <ele>111.4</ele>
        <time>2021-06-19T08:49:48Z</time>
      </trkpt>
      <trkpt lat="39.8689480" lon="2.9555210">
        <ele>111.3</ele>
        <time>2021-06-19T08:49:50Z</time>
      </trkpt>
      <trkpt lat="39.8690360" lon="2.9557880">
        <ele>111.0</ele>
        <time>2021-06-19T08:49:53Z</time>
      </trkpt>
      <trkpt lat="39.8691160" lon="2.9560610">
        <ele>110.6</ele>
        <time>2021-06-19T08:49:56Z</time>
      </trkpt>
      <trkpt lat="39.8692250" lon="2.9564120">
        <ele>110.2</ele>
        <time>2021-06-19T08:50:00Z</time>
      </trkpt>
      <trkpt lat="39.8692970" lon="2.9566630">
        <ele>109.9</ele>
        <time>2021-06-19T08:50:03Z</time>
      </trkpt>
      <trkpt lat="39.8693740" lon="2.9570170">
        <ele>109.4</ele>
        <time>2021-06-19T08:50:07Z</time>
      </trkpt>
      <trkpt lat="39.8694020" lon="2.9572050">
        <ele>109.1</ele>
        <time>2021-06-19T08:50:09Z</time>
      </trkpt>
      <trkpt lat="39.8694350" lon="2.9576000">
        <ele>108.5</ele>
        <time>2021-06-19T08:50:13Z</time>
      </trkpt>
      <trkpt lat="39.8694730" lon="2.9580050">
        <ele>108.0</ele>
        <time>2021-06-19T08:50:17Z</time>
      </trkpt>
      <trkpt lat="39.8695310" lon="2.9587600">
        <ele>107.2</ele>
        <time>2021-06-19T08:50:25Z</time>
      </trkpt>
      <trkpt lat="39.8695410" lon="2.9589480">
        <ele>107.0</ele>
        <time>2021-06-19T08:50:27Z</time>
      </trkpt>
      <trkpt lat="39.8695790" lon="2.9593430">
        <ele>106.7</ele>
        <time>2021-06-19T08:50:31Z</time>
      </trkpt>
      <trkpt lat="39.8696030" lon="2.9596300">
        <ele>106.4</ele>
        <time>2021-06-19T08:50:34Z</time>
      </trkpt>
      <trkpt lat="39.8696750" lon="2.9604090">
        <ele>105.5</ele>
        <time>2021-06-19T08:50:42Z</time>
      </trkpt>
      <trkpt lat="39.8696860" lon="2.9605060">
        <ele>105.4</ele>
        <time>2021-06-19T08:50:43Z</time>
      </trkpt>
      <trkpt lat="39.8697260" lon="2.9608940">
        <ele>105.1</ele>
        <time>2021-06-19T08:50:47Z</time>
      </trkpt>
      <trkpt lat="39.8697500" lon="2.9612670">
        <ele>104.7</ele>
        <time>2021-06-19T08:50:51Z</time>
      </trkpt>
      <trkpt lat="39.8697790" lon="2.9615530">
        <ele>104.6</ele>
        <time>2021-06-19T08:50:54Z</time>
      </trkpt>
      <trkpt lat="39.8697950" lon="2.9617430">
        <ele>104.5</ele>
        <time>2021-06-19T08:50:56Z</time>
      </trkpt>
      <trkpt lat="39.8698170" lon="2.9620170">
        <ele>104.5</ele>
        <time>2021-06-19T08:50:59Z</time>
      </trkpt>
      <trkpt lat="39.8698120" lon="2.9623750">
        <ele>104.4</ele>
        <time>2021-06-19T08:51:03Z</time>
      </trkpt>
      <trkpt lat="39.8697830" lon="2.9625480">
        <ele>104.3</ele>
        <time>2021-06-19T08:51:05Z</time>
      </trkpt>
      <trkpt lat="39.8697060" lon="2.9629240">
        <ele>103.9</ele>
        <time>2021-06-19T08:51:09Z</time>
      </trkpt>
      <trkpt lat="39.8696690" lon="2.9630850">
        <ele>103.7</ele>
        <time>2021-06-19T08:51:11Z</time>
      </trkpt>
      <trkpt lat="39.8696160" lon="2.9632830">
        <ele>103.4</ele>
        <time>2021-06-19T08:51:13Z</time>
      </trkpt>
      <trkpt lat="39.8695670" lon="2.9634750">
        <ele>103.2</ele>
        <time>2021-06-19T08:51:15Z</time>
      </trkpt>
      <trkpt lat="39.8694110" lon="2.9641380">
        <ele>102.5</ele>
        <time>2021-06-19T08:51:22Z</time>
      </trkpt>
      <trkpt lat="39.8693360" lon="2.9644520">
        <ele>102.1</ele>
        <time>2021-06-19T08:51:25Z</time>
      </trkpt>
      <trkpt lat="39.8692870" lon="2.9646530">
        <ele>101.8</ele>
        <time>2021-06-19T08:51:27Z</time>
      </trkpt>
      <trkpt lat="39.8692380" lon="2.9648510">
        <ele>101.6</ele>
        <time>2021-06-19T08:51:29Z</time>
      </trkpt>
      <trkpt lat="39.8691900" lon="2.9650490">
        <ele>101.4</ele>
        <time>2021-06-19T08:51:31Z</time>
      </trkpt>
      <trkpt lat="39.8691730" lon="2.9651300">
        <ele>101.3</ele>
        <time>2021-06-19T08:51:32Z</time>
      </trkpt>
      <trkpt lat="39.8691190" lon="2.9653520">
        <ele>101.1</ele>
        <time>2021-06-19T08:51:34Z</time>
      </trkpt>
      <trkpt lat="39.8690960" lon="2.9654540">
        <ele>100.9</ele>
        <time>2021-06-19T08:51:35Z</time>
      </trkpt>
      <trkpt lat="39.8690710" lon="2.9655550">
        <ele>100.8</ele>
        <time>2021-06-19T08:51:36Z</time>
      </trkpt>
      <trkpt lat="39.8690240" lon="2.9657620">
        <ele>100.7</ele>
        <time>2021-06-19T08:51:38Z</time>
      </trkpt>
      <trkpt lat="39.8689100" lon="2.9662530">
        <ele>100.4</ele>
        <time>2021-06-19T08:51:43Z</time>
      </trkpt>
      <trkpt lat="39.8687660" lon="2.9668440">
        <ele>100.2</ele>
        <time>2021-06-19T08:51:49Z</time>
      </trkpt>
      <trkpt lat="39.8687420" lon="2.9669610">
        <ele>100.0</ele>
        <time>2021-06-19T08:51:50Z</time>
      </trkpt>
      <trkpt lat="39.8687230" lon="2.9670580">
        <ele>99.9</ele>
        <time>2021-06-19T08:51:51Z</time>
      </trkpt>
      <trkpt lat="39.8685560" lon="2.9677580">
        <ele>98.8</ele>
        <time>2021-06-19T08:51:58Z</time>
      </trkpt>
      <trkpt lat="39.8685100" lon="2.9679620">
        <ele>98.5</ele>
        <time>2021-06-19T08:52:00Z</time>
      </trkpt>
      <trkpt lat="39.8684630" lon="2.9681650">
        <ele>98.2</ele>
        <time>2021-06-19T08:52:02Z</time>
      </trkpt>
      <trkpt lat="39.8683200" lon="2.9687480">
        <ele>97.4</ele>
        <time>2021-06-19T08:52:08Z</time>
      </trkpt>
      <trkpt lat="39.8681830" lon="2.9692650">
        <ele>96.9</ele>
        <time>2021-06-19T08:52:14Z</time>
      </trkpt>
      <trkpt lat="39.8681600" lon="2.9693510">
        <ele>96.9</ele>
        <time>2021-06-19T08:52:15Z</time>
      </trkpt>
      <trkpt lat="39.8680760" lon="2.9697220">
        <ele>96.6</ele>
        <time>2021-06-19T08:52:19Z</time>
      </trkpt>
      <trkpt lat="39.8680050" lon="2.9700130">
        <ele>96.5</ele>
        <time>2021-06-19T08:52:22Z</time>
      </trkpt>
      <trkpt lat="39.8679610" lon="2.9702110">
        <ele>96.4</ele>
        <time>2021-06-19T08:52:24Z</time>
      </trkpt>
      <trkpt lat="39.8678380" lon="2.9706900">
        <ele>96.2</ele>
        <time>2021-06-19T08:52:29Z</time>
      </trkpt>
      <trkpt lat="39.8678140" lon="2.9707880">
        <ele>96.1</ele>
        <time>2021-06-19T08:52:30Z</time>
      </trkpt>
      <trkpt lat="39.8676530" lon="2.9714670">
        <ele>95.5</ele>
        <time>2021-06-19T08:52:37Z</time>
      </trkpt>
      <trkpt lat="39.8676110" lon="2.9716560">
        <ele>95.4</ele>
        <time>2021-06-19T08:52:39Z</time>
      </trkpt>
      <trkpt lat="39.8675790" lon="2.9718540">
        <ele>95.2</ele>
        <time>2021-06-19T08:52:41Z</time>
      </trkpt>
      <trkpt lat="39.8675690" lon="2.9719530">
        <ele>95.1</ele>
        <time>2021-06-19T08:52:42Z</time>
      </trkpt>
      <trkpt lat="39.8675740" lon="2.9721490">
        <ele>94.9</ele>
        <time>2021-06-19T08:52:44Z</time>
      </trkpt>
      <trkpt lat="39.8676690" lon="2.9726470">
        <ele>94.0</ele>
        <time>2021-06-19T08:52:49Z</time>
      </trkpt>
      <trkpt lat="39.8678370" lon="2.9733530">
        <ele>92.8</ele>
        <time>2021-06-19T08:52:56Z</time>
      </trkpt>
      <trkpt lat="39.8679100" lon="2.9736360">
        <ele>92.4</ele>
        <time>2021-06-19T08:52:59Z</time>
      </trkpt>
      <trkpt lat="39.8680650" lon="2.9742730">
        <ele>91.6</ele>
        <time>2021-06-19T08:53:05Z</time>
      </trkpt>
      <trkpt lat="39.8681150" lon="2.9744790">
        <ele>91.3</ele>
        <time>2021-06-19T08:53:07Z</time>
      </trkpt>
      <trkpt lat="39.8682590" lon="2.9750730">
        <ele>90.5</ele>
        <time>2021-06-19T08:53:13Z</time>
      </trkpt>
      <trkpt lat="39.8684190" lon="2.9757740">
        <ele>89.6</ele>
        <time>2021-06-19T08:53:20Z</time>
      </trkpt>
      <trkpt lat="39.8685430" lon="2.9762960">
        <ele>89.0</ele>
        <time>2021-06-19T08:53:25Z</time>
      </trkpt>
      <trkpt lat="39.8685940" lon="2.9765090">
        <ele>88.8</ele>
        <time>2021-06-19T08:53:27Z</time>
      </trkpt>
      <trkpt lat="39.8687650" lon="2.9772460">
        <ele>87.6</ele>
        <time>2021-06-19T08:53:34Z</time>
      </trkpt>
      <trkpt lat="39.8688600" lon="2.9776550">
        <ele>87.2</ele>
        <time>2021-06-19T08:53:38Z</time>
      </trkpt>
      <trkpt lat="39.8689580" lon="2.9780710">
        <ele>86.8</ele>
        <time>2021-06-19T08:53:42Z</time>
      </trkpt>
      <trkpt lat="39.8690080" lon="2.9782770">
        <ele>86.6</ele>
        <time>2021-06-19T08:53:44Z</time>
      </trkpt>
      <trkpt lat="39.8690820" lon="2.9785860">
        <ele>86.3</ele>
        <time>2021-06-19T08:53:47Z</time>
      </trkpt>
      <trkpt lat="39.8691780" lon="2.9789990">
        <ele>86.0</ele>
        <time>2021-06-19T08:53:51Z</time>
      </trkpt>
      <trkpt lat="39.8692500" lon="2.9793060">
        <ele>85.8</ele>
        <time>2021-06-19T08:53:54Z</time>
      </trkpt>
      <trkpt lat="39.8693330" lon="2.9796010">
        <ele>85.6</ele>
        <time>2021-06-19T08:53:57Z</time>
      </trkpt>
      <trkpt lat="39.8695590" lon="2.9801570">
        <ele>85.1</ele>
        <time>2021-06-19T08:54:03Z</time>
      </trkpt>
      <trkpt lat="39.8695980" lon="2.9802490">
        <ele>85.0</ele>
        <time>2021-06-19T08:54:04Z</time>
      </trkpt>
      <trkpt lat="39.8698800" lon="2.9808900">
        <ele>84.3</ele>
        <time>2021-06-19T08:54:11Z</time>
      </trkpt>
      <trkpt lat="39.8701700" lon="2.9815070">
        <ele>83.6</ele>
        <time>2021-06-19T08:54:18Z</time>
      </trkpt>
      <trkpt lat="39.8702430" lon="2.9816730">
        <ele>83.5</ele>
        <time>2021-06-19T08:54:20Z</time>
      </trkpt>
      <trkpt lat="39.8704350" lon="2.9820560">
        <ele>83.3</ele>
        <time>2021-06-19T08:54:25Z</time>
      </trkpt>
      <trkpt lat="39.8704760" lon="2.9821270">
        <ele>83.3</ele>
        <time>2021-06-19T08:54:26Z</time>
      </trkpt>
      <trkpt lat="39.8705250" lon="2.9821970">
        <ele>83.3</ele>
        <time>2021-06-19T08:54:27Z</time>
      </trkpt>
      <trkpt lat="39.8706850" lon="2.9823880">
        <ele>82.9</ele>
        <time>2021-06-19T08:54:30Z</time>
      </trkpt>
      <trkpt lat="39.8707290" lon="2.9824360">
        <ele>82.8</ele>
        <time>2021-06-19T08:54:31Z</time>
      </trkpt>
      <trkpt lat="39.8711610" lon="2.9829340">
        <ele>82.1</ele>
        <time>2021-06-19T08:54:39Z</time>
      </trkpt>
      <trkpt lat="39.8712100" lon="2.9829960">
        <ele>82.1</ele>
        <time>2021-06-19T08:54:40Z</time>
      </trkpt>
      <trkpt lat="39.8713060" lon="2.9831230">
        <ele>82.2</ele>
        <time>2021-06-19T08:54:42Z</time>
      </trkpt>
      <trkpt lat="39.8716090" lon="2.9835020">
        <ele>82.4</ele>
        <time>2021-06-19T08:54:48Z</time>
      </trkpt>
      <trkpt lat="39.8716560" lon="2.9835720">
        <ele>82.5</ele>
        <time>2021-06-19T08:54:49Z</time>
      </trkpt>
      <trkpt lat="39.8717720" lon="2.9837960">
        <ele>82.7</ele>
        <time>2021-06-19T08:54:52Z</time>
      </trkpt>
      <trkpt lat="39.8718340" lon="2.9839560">
        <ele>82.8</ele>
        <time>2021-06-19T08:54:54Z</time>
      </trkpt>
      <trkpt lat="39.8719190" lon="2.9841880">
        <ele>83.1</ele>
        <time>2021-06-19T08:54:57Z</time>
      </trkpt>
      <trkpt lat="39.8719980" lon="2.9844200">
        <ele>83.4</ele>
        <time>2021-06-19T08:55:00Z</time>
      </trkpt>
      <trkpt lat="39.8720210" lon="2.9844940">
        <ele>83.5</ele>
        <time>2021-06-19T08:55:01Z</time>
      </trkpt>
      <trkpt lat="39.8720440" lon="2.9845660">
        <ele>83.5</ele>
        <time>2021-06-19T08:55:02Z</time>
      </trkpt>
      <trkpt lat="39.8722160" lon="2.9849930">
        <ele>83.8</ele>
        <time>2021-06-19T08:55:08Z</time>
      </trkpt>
      <trkpt lat="39.8723260" lon="2.9852780">
        <ele>83.8</ele>
        <time>2021-06-19T08:55:12Z</time>
      </trkpt>
      <trkpt lat="39.8725300" lon="2.9858040">
        <ele>83.3</ele>
        <time>2021-06-19T08:55:19Z</time>
      </trkpt>
      <trkpt lat="39.8726130" lon="2.9860470">
        <ele>83.0</ele>
        <time>2021-06-19T08:55:22Z</time>
      </trkpt>
      <trkpt lat="39.8728150" lon="2.9865510">
        <ele>82.1</ele>
        <time>2021-06-19T08:55:28Z</time>
      </trkpt>
      <trkpt lat="39.8730320" lon="2.9871080">
        <ele>81.1</ele>
        <time>2021-06-19T08:55:34Z</time>
      </trkpt>
      <trkpt lat="39.8731320" lon="2.9873810">
        <ele>80.5</ele>
        <time>2021-06-19T08:55:37Z</time>
      </trkpt>
      <trkpt lat="39.8732090" lon="2.9875810">
        <ele>80.1</ele>
        <time>2021-06-19T08:55:39Z</time>
      </trkpt>
      <trkpt lat="39.8733220" lon="2.9878800">
        <ele>79.6</ele>
        <time>2021-06-19T08:55:42Z</time>
      </trkpt>
      <trkpt lat="39.8733590" lon="2.9879830">
        <ele>79.5</ele>
        <time>2021-06-19T08:55:43Z</time>
      </trkpt>
      <trkpt lat="39.8736210" lon="2.9886930">
        <ele>78.7</ele>
        <time>2021-06-19T08:55:50Z</time>
      </trkpt>
      <trkpt lat="39.8737690" lon="2.9890780">
        <ele>78.6</ele>
        <time>2021-06-19T08:55:54Z</time>
      </trkpt>
      <trkpt lat="39.8738780" lon="2.9893520">
        <ele>78.7</ele>
        <time>2021-06-19T08:55:57Z</time>
      </trkpt>
      <trkpt lat="39.8739460" lon="2.9895330">
        <ele>78.7</ele>
        <time>2021-06-19T08:55:59Z</time>
      </trkpt>
      <trkpt lat="39.8740100" lon="2.9897150">
        <ele>78.8</ele>
        <time>2021-06-19T08:56:01Z</time>
      </trkpt>
      <trkpt lat="39.8740730" lon="2.9898940">
        <ele>78.8</ele>
        <time>2021-06-19T08:56:03Z</time>
      </trkpt>
      <trkpt lat="39.8741340" lon="2.9900880">
        <ele>78.8</ele>
        <time>2021-06-19T08:56:05Z</time>
      </trkpt>
      <trkpt lat="39.8741590" lon="2.9901760">
        <ele>78.8</ele>
        <time>2021-06-19T08:56:06Z</time>
      </trkpt>
      <trkpt lat="39.8741830" lon="2.9902670">
        <ele>78.7</ele>
        <time>2021-06-19T08:56:07Z</time>
      </trkpt>
      <trkpt lat="39.8742310" lon="2.9904490">
        <ele>78.6</ele>
        <time>2021-06-19T08:56:09Z</time>
      </trkpt>
      <trkpt lat="39.8742710" lon="2.9906130">
        <ele>78.5</ele>
        <time>2021-06-19T08:56:11Z</time>
      </trkpt>
      <trkpt lat="39.8743520" lon="2.9909770">
        <ele>78.4</ele>
        <time>2021-06-19T08:56:15Z</time>
      </trkpt>
      <trkpt lat="39.8744300" lon="2.9913430">
        <ele>78.2</ele>
        <time>2021-06-19T08:56:19Z</time>
      </trkpt>
      <trkpt lat="39.8744470" lon="2.9914310">
        <ele>78.2</ele>
        <time>2021-06-19T08:56:20Z</time>
      </trkpt>
      <trkpt lat="39.8744870" lon="2.9916110">
        <ele>78.2</ele>
        <time>2021-06-19T08:56:22Z</time>
      </trkpt>
      <trkpt lat="39.8745090" lon="2.9917020">
        <ele>78.2</ele>
        <time>2021-06-19T08:56:23Z</time>
      </trkpt>
      <trkpt lat="39.8745460" lon="2.9918770">
        <ele>78.2</ele>
        <time>2021-06-19T08:56:25Z</time>
      </trkpt>
      <trkpt lat="39.8746620" lon="2.9924110">
        <ele>78.1</ele>
        <time>2021-06-19T08:56:31Z</time>
      </trkpt>
      <trkpt lat="39.8748180" lon="2.9931210">
        <ele>77.3</ele>
        <time>2021-06-19T08:56:39Z</time>
      </trkpt>
      <trkpt lat="39.8748720" lon="2.9933060">
        <ele>77.0</ele>
        <time>2021-06-19T08:56:41Z</time>
      </trkpt>
      <trkpt lat="39.8750740" lon="2.9937250">
        <ele>75.5</ele>
        <time>2021-06-19T08:56:46Z</time>
      </trkpt>
      <trkpt lat="39.8754140" lon="2.9943490">
        <ele>73.2</ele>
        <time>2021-06-19T08:56:53Z</time>
      </trkpt>
      <trkpt lat="39.8757350" lon="2.9949350">
        <ele>71.2</ele>
        <time>2021-06-19T08:56:59Z</time>
      </trkpt>
      <trkpt lat="39.8757890" lon="2.9950360">
        <ele>70.8</ele>
        <time>2021-06-19T08:57:00Z</time>
      </trkpt>
      <trkpt lat="39.8761200" lon="2.9956410">
        <ele>69.2</ele>
        <time>2021-06-19T08:57:06Z</time>
      </trkpt>
      <trkpt lat="39.8762300" lon="2.9958500">
        <ele>68.7</ele>
        <time>2021-06-19T08:57:08Z</time>
      </trkpt>
      <trkpt lat="39.8764480" lon="2.9962500">
        <ele>68.0</ele>
        <time>2021-06-19T08:57:12Z</time>
      </trkpt>
      <trkpt lat="39.8767060" lon="2.9967220">
        <ele>67.4</ele>
        <time>2021-06-19T08:57:17Z</time>
      </trkpt>
      <trkpt lat="39.8770640" lon="2.9974040">
        <ele>66.9</ele>
        <time>2021-06-19T08:57:24Z</time>
      </trkpt>
      <trkpt lat="39.8771520" lon="2.9975710">
        <ele>66.7</ele>
        <time>2021-06-19T08:57:26Z</time>
      </trkpt>
      <trkpt lat="39.8774930" lon="2.9981990">
        <ele>66.3</ele>
        <time>2021-06-19T08:57:33Z</time>
      </trkpt>
      <trkpt lat="39.8775880" lon="2.9983700">
        <ele>66.3</ele>
        <time>2021-06-19T08:57:35Z</time>
      </trkpt>
      <trkpt lat="39.8779400" lon="2.9990050">
        <ele>65.8</ele>
        <time>2021-06-19T08:57:42Z</time>
      </trkpt>
      <trkpt lat="39.8780710" lon="2.9992590">
        <ele>65.6</ele>
        <time>2021-06-19T08:57:45Z</time>
      </trkpt>
      <trkpt lat="39.8783050" lon="2.9997190">
        <ele>65.2</ele>
        <time>2021-06-19T08:57:50Z</time>
      </trkpt>
      <trkpt lat="39.8786330" lon="3.0003380">
        <ele>64.5</ele>
        <time>2021-06-19T08:57:57Z</time>
      </trkpt>
      <trkpt lat="39.8789620" lon="3.0009580">
        <ele>63.8</ele>
        <time>2021-06-19T08:58:04Z</time>
      </trkpt>
      <trkpt lat="39.8790550" lon="3.0011350">
        <ele>63.6</ele>
        <time>2021-06-19T08:58:06Z</time>
      </trkpt>
      <trkpt lat="39.8793350" lon="3.0016520">
        <ele>63.1</ele>
        <time>2021-06-19T08:58:12Z</time>
      </trkpt>
      <trkpt lat="39.8796780" lon="3.0023110">
        <ele>62.5</ele>
        <time>2021-06-19T08:58:19Z</time>
      </trkpt>
      <trkpt lat="39.8798230" lon="3.0025880">
        <ele>62.3</ele>
        <time>2021-06-19T08:58:22Z</time>
      </trkpt>
      <trkpt lat="39.8801560" lon="3.0032220">
        <ele>61.9</ele>
        <time>2021-06-19T08:58:29Z</time>
      </trkpt>
      <trkpt lat="39.8803010" lon="3.0034920">
        <ele>61.7</ele>
        <time>2021-06-19T08:58:32Z</time>
      </trkpt>
      <trkpt lat="39.8806490" lon="3.0041180">
        <ele>61.3</ele>
        <time>2021-06-19T08:58:39Z</time>
      </trkpt>
      <trkpt lat="39.8807040" lon="3.0042060">
        <ele>61.2</ele>
        <time>2021-06-19T08:58:40Z</time>
      </trkpt>
      <trkpt lat="39.8810030" lon="3.0047550">
        <ele>60.8</ele>
        <time>2021-06-19T08:58:46Z</time>
      </trkpt>
      <trkpt lat="39.8813440" lon="3.0054180">
        <ele>60.1</ele>
        <time>2021-06-19T08:58:53Z</time>
      </trkpt>
      <trkpt lat="39.8813930" lon="3.0055100">
        <ele>60.0</ele>
        <time>2021-06-19T08:58:54Z</time>
      </trkpt>
      <trkpt lat="39.8817180" lon="3.0061280">
        <ele>59.5</ele>
        <time>2021-06-19T08:59:01Z</time>
      </trkpt>
      <trkpt lat="39.8817630" lon="3.0062130">
        <ele>59.4</ele>
        <time>2021-06-19T08:59:02Z</time>
      </trkpt>
      <trkpt lat="39.8819740" lon="3.0066280">
        <ele>59.1</ele>
        <time>2021-06-19T08:59:07Z</time>
      </trkpt>
      <trkpt lat="39.8821130" lon="3.0069070">
        <ele>58.9</ele>
        <time>2021-06-19T08:59:10Z</time>
      </trkpt>
      <trkpt lat="39.8824120" lon="3.0074940">
        <ele>58.5</ele>
        <time>2021-06-19T08:59:17Z</time>
      </trkpt>
      <trkpt lat="39.8826790" lon="3.0080000">
        <ele>58.4</ele>
        <time>2021-06-19T08:59:23Z</time>
      </trkpt>
      <trkpt lat="39.8829460" lon="3.0086040">
        <ele>58.3</ele>
        <time>2021-06-19T08:59:30Z</time>
      </trkpt>
      <trkpt lat="39.8829810" lon="3.0087900">
        <ele>58.3</ele>
        <time>2021-06-19T08:59:32Z</time>
      </trkpt>
      <trkpt lat="39.8829940" lon="3.0089760">
        <ele>58.1</ele>
        <time>2021-06-19T08:59:34Z</time>
      </trkpt>
      <trkpt lat="39.8830020" lon="3.0096590">
        <ele>57.7</ele>
        <time>2021-06-19T08:59:41Z</time>
      </trkpt>
      <trkpt lat="39.8830120" lon="3.0104510">
        <ele>57.4</ele>
        <time>2021-06-19T08:59:49Z</time>
      </trkpt>
      <trkpt lat="39.8830270" lon="3.0112250">
        <ele>57.1</ele>
        <time>2021-06-19T08:59:57Z</time>
      </trkpt>
      <trkpt lat="39.8830300" lon="3.0113460">
        <ele>57.1</ele>
        <time>2021-06-19T08:59:58Z</time>
      </trkpt>
      <trkpt lat="39.8830370" lon="3.0119220">
        <ele>56.6</ele>
        <time>2021-06-19T09:00:04Z</time>
      </trkpt>
      <trkpt lat="39.8830420" lon="3.0121240">
        <ele>56.4</ele>
        <time>2021-06-19T09:00:06Z</time>
      </trkpt>
      <trkpt lat="39.8830610" lon="3.0128280">
        <ele>55.6</ele>
        <time>2021-06-19T09:00:13Z</time>
      </trkpt>
      <trkpt lat="39.8830620" lon="3.0129250">
        <ele>55.5</ele>
        <time>2021-06-19T09:00:14Z</time>
      </trkpt>
      <trkpt lat="39.8830750" lon="3.0137270">
        <ele>54.9</ele>
        <time>2021-06-19T09:00:22Z</time>
      </trkpt>
      <trkpt lat="39.8830770" lon="3.0138500">
        <ele>54.8</ele>
        <time>2021-06-19T09:00:23Z</time>
      </trkpt>
      <trkpt lat="39.8830790" lon="3.0140340">
        <ele>54.6</ele>
        <time>2021-06-19T09:00:25Z</time>
      </trkpt>
      <trkpt lat="39.8831410" lon="3.0147400">
        <ele>54.0</ele>
        <time>2021-06-19T09:00:32Z</time>
      </trkpt>
      <trkpt lat="39.8831610" lon="3.0148620">
        <ele>53.9</ele>
        <time>2021-06-19T09:00:33Z</time>
      </trkpt>
      <trkpt lat="39.8832880" lon="3.0156410">
        <ele>53.3</ele>
        <time>2021-06-19T09:00:41Z</time>
      </trkpt>
      <trkpt lat="39.8833840" lon="3.0161490">
        <ele>52.8</ele>
        <time>2021-06-19T09:00:46Z</time>
      </trkpt>
      <trkpt lat="39.8835150" lon="3.0168660">
        <ele>52.1</ele>
        <time>2021-06-19T09:00:53Z</time>
      </trkpt>
      <trkpt lat="39.8835520" lon="3.0170740">
        <ele>51.9</ele>
        <time>2021-06-19T09:00:55Z</time>
      </trkpt>
      <trkpt lat="39.8836440" lon="3.0176040">
        <ele>51.3</ele>
        <time>2021-06-19T09:01:00Z</time>
      </trkpt>
      <trkpt lat="39.8837450" lon="3.0181460">
        <ele>50.7</ele>
        <time>2021-06-19T09:01:05Z</time>
      </trkpt>
      <trkpt lat="39.8838810" lon="3.0188950">
        <ele>50.1</ele>
        <time>2021-06-19T09:01:12Z</time>
      </trkpt>
      <trkpt lat="39.8839170" lon="3.0191090">
        <ele>49.9</ele>
        <time>2021-06-19T09:01:14Z</time>
      </trkpt>
      <trkpt lat="39.8840190" lon="3.0197240">
        <ele>49.4</ele>
        <time>2021-06-19T09:01:20Z</time>
      </trkpt>
      <trkpt lat="39.8840850" lon="3.0200970">
        <ele>49.1</ele>
        <time>2021-06-19T09:01:24Z</time>
      </trkpt>
      <trkpt lat="39.8841240" lon="3.0203540">
        <ele>49.0</ele>
        <time>2021-06-19T09:01:27Z</time>
      </trkpt>
      <trkpt lat="39.8841040" lon="3.0205190">
        <ele>49.1</ele>
        <time>2021-06-19T09:01:29Z</time>
      </trkpt>
      <trkpt lat="39.8840390" lon="3.0206550">
        <ele>49.1</ele>
        <time>2021-06-19T09:01:31Z</time>
      </trkpt>
      <trkpt lat="39.8839990" lon="3.0207110">
        <ele>49.2</ele>
        <time>2021-06-19T09:01:32Z</time>
      </trkpt>
      <trkpt lat="39.8839660" lon="3.0207680">
        <ele>49.2</ele>
        <time>2021-06-19T09:01:33Z</time>
      </trkpt>
      <trkpt lat="39.8839400" lon="3.0209010">
        <ele>49.2</ele>
        <time>2021-06-19T09:01:35Z</time>
      </trkpt>
      <trkpt lat="39.8839600" lon="3.0210530">
        <ele>49.1</ele>
        <time>2021-06-19T09:01:37Z</time>
      </trkpt>
      <trkpt lat="39.8839790" lon="3.0211060">
        <ele>49.0</ele>
        <time>2021-06-19T09:01:38Z</time>
      </trkpt>
      <trkpt lat="39.8842390" lon="3.0216700">
        <ele>48.5</ele>
        <time>2021-06-19T09:01:47Z</time>
      </trkpt>
      <trkpt lat="39.8843780" lon="3.0220560">
        <ele>48.2</ele>
        <time>2021-06-19T09:01:53Z</time>
      </trkpt>
      <trkpt lat="39.8843650" lon="3.0222760">
        <ele>47.5</ele>
        <time>2021-06-19T09:01:56Z</time>
      </trkpt>
      <trkpt lat="39.8843620" lon="3.0223510">
        <ele>47.3</ele>
        <time>2021-06-19T09:01:57Z</time>
      </trkpt>
      <trkpt lat="39.8843740" lon="3.0225020">
        <ele>46.8</ele>
        <time>2021-06-19T09:01:59Z</time>
      </trkpt>
      <trkpt lat="39.8844260" lon="3.0226340">
        <ele>46.6</ele>
        <time>2021-06-19T09:02:01Z</time>
      </trkpt>
      <trkpt lat="39.8846140" lon="3.0228450">
        <ele>46.6</ele>
        <time>2021-06-19T09:02:05Z</time>
      </trkpt>
      <trkpt lat="39.8846600" lon="3.0229050">
        <ele>46.6</ele>
        <time>2021-06-19T09:02:06Z</time>
      </trkpt>
      <trkpt lat="39.8847360" lon="3.0230470">
        <ele>46.5</ele>
        <time>2021-06-19T09:02:08Z</time>
      </trkpt>
      <trkpt lat="39.8847730" lon="3.0231220">
        <ele>46.4</ele>
        <time>2021-06-19T09:02:09Z</time>
      </trkpt>
      <trkpt lat="39.8850280" lon="3.0237250">
        <ele>45.8</ele>
        <time>2021-06-19T09:02:17Z</time>
      </trkpt>
      <trkpt lat="39.8852160" lon="3.0241830">
        <ele>45.4</ele>
        <time>2021-06-19T09:02:24Z</time>
      </trkpt>
      <trkpt lat="39.8854730" lon="3.0248560">
        <ele>44.7</ele>
        <time>2021-06-19T09:02:34Z</time>
      </trkpt>
      <trkpt lat="39.8857310" lon="3.0254740">
        <ele>44.2</ele>
        <time>2021-06-19T09:02:42Z</time>
      </trkpt>
      <trkpt lat="39.8857630" lon="3.0255560">
        <ele>44.1</ele>
        <time>2021-06-19T09:02:43Z</time>
      </trkpt>
      <trkpt lat="39.8859520" lon="3.0260600">
        <ele>43.7</ele>
        <time>2021-06-19T09:02:49Z</time>
      </trkpt>
      <trkpt lat="39.8860180" lon="3.0262340">
        <ele>43.5</ele>
        <time>2021-06-19T09:02:51Z</time>
      </trkpt>
      <trkpt lat="39.8861220" lon="3.0264920">
        <ele>43.2</ele>
        <time>2021-06-19T09:02:54Z</time>
      </trkpt>
      <trkpt lat="39.8862600" lon="3.0268310">
        <ele>42.8</ele>
        <time>2021-06-19T09:02:58Z</time>
      </trkpt>
      <trkpt lat="39.8865490" lon="3.0275280">
        <ele>42.3</ele>
        <time>2021-06-19T09:03:06Z</time>
      </trkpt>
      <trkpt lat="39.8866310" lon="3.0277170">
        <ele>42.2</ele>
        <time>2021-06-19T09:03:08Z</time>
      </trkpt>
      <trkpt lat="39.8868590" lon="3.0281810">
        <ele>41.8</ele>
        <time>2021-06-19T09:03:13Z</time>
      </trkpt>
      <trkpt lat="39.8869070" lon="3.0282700">
        <ele>41.7</ele>
        <time>2021-06-19T09:03:14Z</time>
      </trkpt>
      <trkpt lat="39.8870040" lon="3.0284510">
        <ele>41.5</ele>
        <time>2021-06-19T09:03:16Z</time>
      </trkpt>
      <trkpt lat="39.8870530" lon="3.0285400">
        <ele>41.4</ele>
        <time>2021-06-19T09:03:17Z</time>
      </trkpt>
      <trkpt lat="39.8871560" lon="3.0287180">
        <ele>41.2</ele>
        <time>2021-06-19T09:03:19Z</time>
      </trkpt>
      <trkpt lat="39.8874540" lon="3.0292260">
        <ele>40.7</ele>
        <time>2021-06-19T09:03:25Z</time>
      </trkpt>
      <trkpt lat="39.8875530" lon="3.0293920">
        <ele>40.5</ele>
        <time>2021-06-19T09:03:27Z</time>
      </trkpt>
      <trkpt lat="39.8877230" lon="3.0296260">
        <ele>40.1</ele>
        <time>2021-06-19T09:03:30Z</time>
      </trkpt>
      <trkpt lat="39.8878430" lon="3.0297760">
        <ele>40.0</ele>
        <time>2021-06-19T09:03:32Z</time>
      </trkpt>
      <trkpt lat="39.8882660" lon="3.0303100">
        <ele>39.3</ele>
        <time>2021-06-19T09:03:39Z</time>
      </trkpt>
      <trkpt lat="39.8883280" lon="3.0303820">
        <ele>39.2</ele>
        <time>2021-06-19T09:03:40Z</time>
      </trkpt>
      <trkpt lat="39.8887810" lon="3.0308870">
        <ele>38.4</ele>
        <time>2021-06-19T09:03:47Z</time>
      </trkpt>
      <trkpt lat="39.8889140" lon="3.0310450">
        <ele>38.3</ele>
        <time>2021-06-19T09:03:49Z</time>
      </trkpt>
      <trkpt lat="39.8892550" lon="3.0314430">
        <ele>37.6</ele>
        <time>2021-06-19T09:03:54Z</time>
      </trkpt>
      <trkpt lat="39.8895730" lon="3.0318370">
        <ele>37.2</ele>
        <time>2021-06-19T09:03:59Z</time>
      </trkpt>
      <trkpt lat="39.8900220" lon="3.0323740">
        <ele>36.4</ele>
        <time>2021-06-19T09:04:06Z</time>
      </trkpt>
      <trkpt lat="39.8900850" lon="3.0324490">
        <ele>36.3</ele>
        <time>2021-06-19T09:04:07Z</time>
      </trkpt>
      <trkpt lat="39.8905310" lon="3.0329860">
        <ele>35.7</ele>
        <time>2021-06-19T09:04:14Z</time>
      </trkpt>
      <trkpt lat="39.8909080" lon="3.0334590">
        <ele>35.0</ele>
        <time>2021-06-19T09:04:20Z</time>
      </trkpt>
      <trkpt lat="39.8913240" lon="3.0340610">
        <ele>34.5</ele>
        <time>2021-06-19T09:04:27Z</time>
      </trkpt>
      <trkpt lat="39.8914390" lon="3.0342400">
        <ele>34.3</ele>
        <time>2021-06-19T09:04:29Z</time>
      </trkpt>
      <trkpt lat="39.8917960" lon="3.0349230">
        <ele>33.7</ele>
        <time>2021-06-19T09:04:36Z</time>
      </trkpt>
      <trkpt lat="39.8918760" lon="3.0351000">
        <ele>33.6</ele>
        <time>2021-06-19T09:04:38Z</time>
      </trkpt>
      <trkpt lat="39.8921470" lon="3.0358170">
        <ele>33.1</ele>
        <time>2021-06-19T09:04:45Z</time>
      </trkpt>
      <trkpt lat="39.8921820" lon="3.0359180">
        <ele>33.0</ele>
        <time>2021-06-19T09:04:46Z</time>
      </trkpt>
      <trkpt lat="39.8924190" lon="3.0366440">
        <ele>32.5</ele>
        <time>2021-06-19T09:04:53Z</time>
      </trkpt>
      <trkpt lat="39.8924530" lon="3.0367480">
        <ele>32.5</ele>
        <time>2021-06-19T09:04:54Z</time>
      </trkpt>
      <trkpt lat="39.8926430" lon="3.0373720">
        <ele>32.5</ele>
        <time>2021-06-19T09:05:00Z</time>
      </trkpt>
      <trkpt lat="39.8927290" lon="3.0376880">
        <ele>32.4</ele>
        <time>2021-06-19T09:05:03Z</time>
      </trkpt>
      <trkpt lat="39.8929480" lon="3.0383790">
        <ele>32.2</ele>
        <time>2021-06-19T09:05:10Z</time>
      </trkpt>
      <trkpt lat="39.8929800" lon="3.0384750">
        <ele>32.2</ele>
        <time>2021-06-19T09:05:11Z</time>
      </trkpt>
      <trkpt lat="39.8931010" lon="3.0388520">
        <ele>32.2</ele>
        <time>2021-06-19T09:05:15Z</time>
      </trkpt>
      <trkpt lat="39.8932190" lon="3.0392180">
        <ele>32.1</ele>
        <time>2021-06-19T09:05:19Z</time>
      </trkpt>
      <trkpt lat="39.8934040" lon="3.0397620">
        <ele>32.1</ele>
        <time>2021-06-19T09:05:25Z</time>
      </trkpt>
      <trkpt lat="39.8934730" lon="3.0399450">
        <ele>32.1</ele>
        <time>2021-06-19T09:05:27Z</time>
      </trkpt>
      <trkpt lat="39.8937010" lon="3.0405810">
        <ele>32.1</ele>
        <time>2021-06-19T09:05:34Z</time>
      </trkpt>
      <trkpt lat="39.8937940" lon="3.0408530">
        <ele>32.1</ele>
        <time>2021-06-19T09:05:37Z</time>
      </trkpt>
      <trkpt lat="39.8940380" lon="3.0415290">
        <ele>32.0</ele>
        <time>2021-06-19T09:05:44Z</time>
      </trkpt>
      <trkpt lat="39.8940660" lon="3.0416090">
        <ele>31.9</ele>
        <time>2021-06-19T09:05:45Z</time>
      </trkpt>
      <trkpt lat="39.8941340" lon="3.0418050">
        <ele>31.9</ele>
        <time>2021-06-19T09:05:47Z</time>
      </trkpt>
      <trkpt lat="39.8942320" lon="3.0420860">
        <ele>31.8</ele>
        <time>2021-06-19T09:05:50Z</time>
      </trkpt>
      <trkpt lat="39.8943960" lon="3.0425330">
        <ele>31.6</ele>
        <time>2021-06-19T09:05:55Z</time>
      </trkpt>
      <trkpt lat="39.8946550" lon="3.0432620">
        <ele>31.2</ele>
        <time>2021-06-19T09:06:03Z</time>
      </trkpt>
      <trkpt lat="39.8947230" lon="3.0434500">
        <ele>30.9</ele>
        <time>2021-06-19T09:06:05Z</time>
      </trkpt>
      <trkpt lat="39.8949650" lon="3.0441240">
        <ele>30.0</ele>
        <time>2021-06-19T09:06:12Z</time>
      </trkpt>
      <trkpt lat="39.8950380" lon="3.0443270">
        <ele>29.6</ele>
        <time>2021-06-19T09:06:14Z</time>
      </trkpt>
      <trkpt lat="39.8952930" lon="3.0450710">
        <ele>28.2</ele>
        <time>2021-06-19T09:06:21Z</time>
      </trkpt>
      <trkpt lat="39.8953200" lon="3.0451530">
        <ele>28.0</ele>
        <time>2021-06-19T09:06:22Z</time>
      </trkpt>
      <trkpt lat="39.8955660" lon="3.0458960">
        <ele>26.7</ele>
        <time>2021-06-19T09:06:29Z</time>
      </trkpt>
      <trkpt lat="39.8956020" lon="3.0460010">
        <ele>26.6</ele>
        <time>2021-06-19T09:06:30Z</time>
      </trkpt>
      <trkpt lat="39.8958120" lon="3.0466510">
        <ele>25.8</ele>
        <time>2021-06-19T09:06:36Z</time>
      </trkpt>
      <trkpt lat="39.8959510" lon="3.0470810">
        <ele>25.3</ele>
        <time>2021-06-19T09:06:40Z</time>
      </trkpt>
      <trkpt lat="39.8961600" lon="3.0477550">
        <ele>24.4</ele>
        <time>2021-06-19T09:06:46Z</time>
      </trkpt>
      <trkpt lat="39.8962960" lon="3.0481950">
        <ele>24.0</ele>
        <time>2021-06-19T09:06:50Z</time>
      </trkpt>
      <trkpt lat="39.8965210" lon="3.0489500">
        <ele>23.4</ele>
        <time>2021-06-19T09:06:57Z</time>
      </trkpt>
      <trkpt lat="39.8966530" lon="3.0493900">
        <ele>23.0</ele>
        <time>2021-06-19T09:07:01Z</time>
      </trkpt>
      <trkpt lat="39.8968820" lon="3.0501410">
        <ele>22.4</ele>
        <time>2021-06-19T09:07:08Z</time>
      </trkpt>
      <trkpt lat="39.8969680" lon="3.0504340">
        <ele>22.2</ele>
        <time>2021-06-19T09:07:11Z</time>
      </trkpt>
      <trkpt lat="39.8971910" lon="3.0511750">
        <ele>21.8</ele>
        <time>2021-06-19T09:07:18Z</time>
      </trkpt>
      <trkpt lat="39.8973180" lon="3.0515890">
        <ele>21.5</ele>
        <time>2021-06-19T09:07:22Z</time>
      </trkpt>
      <trkpt lat="39.8975380" lon="3.0523200">
        <ele>20.8</ele>
        <time>2021-06-19T09:07:29Z</time>
      </trkpt>
      <trkpt lat="39.8976630" lon="3.0527360">
        <ele>20.4</ele>
        <time>2021-06-19T09:07:33Z</time>
      </trkpt>
      <trkpt lat="39.8978760" lon="3.0534560">
        <ele>19.8</ele>
        <time>2021-06-19T09:07:40Z</time>
      </trkpt>
      <trkpt lat="39.8980270" lon="3.0539610">
        <ele>19.3</ele>
        <time>2021-06-19T09:07:45Z</time>
      </trkpt>
      <trkpt lat="39.8982340" lon="3.0546600">
        <ele>18.7</ele>
        <time>2021-06-19T09:07:52Z</time>
      </trkpt>
      <trkpt lat="39.8982940" lon="3.0548530">
        <ele>18.6</ele>
        <time>2021-06-19T09:07:54Z</time>
      </trkpt>
      <trkpt lat="39.8984910" lon="3.0555160">
        <ele>18.1</ele>
        <time>2021-06-19T09:08:01Z</time>
      </trkpt>
      <trkpt lat="39.8985680" lon="3.0557820">
        <ele>17.9</ele>
        <time>2021-06-19T09:08:04Z</time>
      </trkpt>
      <trkpt lat="39.8987840" lon="3.0564960">
        <ele>17.5</ele>
        <time>2021-06-19T09:08:12Z</time>
      </trkpt>
      <trkpt lat="39.8988110" lon="3.0565870">
        <ele>17.5</ele>
        <time>2021-06-19T09:08:13Z</time>
      </trkpt>
      <trkpt lat="39.8990090" lon="3.0572550">
        <ele>17.0</ele>
        <time>2021-06-19T09:08:20Z</time>
      </trkpt>
      <trkpt lat="39.8992110" lon="3.0579210">
        <ele>16.5</ele>
        <time>2021-06-19T09:08:27Z</time>
      </trkpt>
      <trkpt lat="39.8992940" lon="3.0582050">
        <ele>16.3</ele>
        <time>2021-06-19T09:08:30Z</time>
      </trkpt>
      <trkpt lat="39.8994940" lon="3.0588630">
        <ele>15.8</ele>
        <time>2021-06-19T09:08:37Z</time>
      </trkpt>
      <trkpt lat="39.8996640" lon="3.0594400">
        <ele>15.4</ele>
        <time>2021-06-19T09:08:43Z</time>
      </trkpt>
      <trkpt lat="39.8998710" lon="3.0601310">
        <ele>14.9</ele>
        <time>2021-06-19T09:08:50Z</time>
      </trkpt>
      <trkpt lat="39.9000210" lon="3.0606180">
        <ele>14.6</ele>
        <time>2021-06-19T09:08:55Z</time>
      </trkpt>
      <trkpt lat="39.9002370" lon="3.0613070">
        <ele>14.0</ele>
        <time>2021-06-19T09:09:02Z</time>
      </trkpt>
      <trkpt lat="39.9003210" lon="3.0616030">
        <ele>13.7</ele>
        <time>2021-06-19T09:09:05Z</time>
      </trkpt>
      <trkpt lat="39.9005290" lon="3.0623010">
        <ele>13.2</ele>
        <time>2021-06-19T09:09:12Z</time>
      </trkpt>
      <trkpt lat="39.9006250" lon="3.0626070">
        <ele>12.9</ele>
        <time>2021-06-19T09:09:15Z</time>
      </trkpt>
      <trkpt lat="39.9007490" lon="3.0630230">
        <ele>12.5</ele>
        <time>2021-06-19T09:09:19Z</time>
      </trkpt>
      <trkpt lat="39.9009630" lon="3.0637560">
        <ele>11.9</ele>
        <time>2021-06-19T09:09:26Z</time>
      </trkpt>
      <trkpt lat="39.9009950" lon="3.0638620">
        <ele>11.8</ele>
        <time>2021-06-19T09:09:27Z</time>
      </trkpt>
      <trkpt lat="39.9012160" lon="3.0645870">
        <ele>11.3</ele>
        <time>2021-06-19T09:09:34Z</time>
      </trkpt>
      <trkpt lat="39.9012780" lon="3.0647910">
        <ele>11.2</ele>
        <time>2021-06-19T09:09:36Z</time>
      </trkpt>
      <trkpt lat="39.9014890" lon="3.0655030">
        <ele>10.9</ele>
        <time>2021-06-19T09:09:43Z</time>
      </trkpt>
      <trkpt lat="39.9015790" lon="3.0658090">
        <ele>10.9</ele>
        <time>2021-06-19T09:09:46Z</time>
      </trkpt>
      <trkpt lat="39.9018010" lon="3.0665250">
        <ele>10.1</ele>
        <time>2021-06-19T09:09:53Z</time>
      </trkpt>
      <trkpt lat="39.9018900" lon="3.0668260">
        <ele>10.0</ele>
        <time>2021-06-19T09:09:56Z</time>
      </trkpt>
      <trkpt lat="39.9021030" lon="3.0675240">
        <ele>9.6</ele>
        <time>2021-06-19T09:10:03Z</time>
      </trkpt>
      <trkpt lat="39.9021870" lon="3.0678030">
        <ele>9.2</ele>
        <time>2021-06-19T09:10:06Z</time>
      </trkpt>
      <trkpt lat="39.9023940" lon="3.0684830">
        <ele>8.7</ele>
        <time>2021-06-19T09:10:13Z</time>
      </trkpt>
      <trkpt lat="39.9024410" lon="3.0686390">
        <ele>8.7</ele>
        <time>2021-06-19T09:10:15Z</time>
      </trkpt>
      <trkpt lat="39.9025500" lon="3.0690410">
        <ele>8.6</ele>
        <time>2021-06-19T09:10:20Z</time>
      </trkpt>
      <trkpt lat="39.9025580" lon="3.0691210">
        <ele>8.6</ele>
        <time>2021-06-19T09:10:21Z</time>
      </trkpt>
      <trkpt lat="39.9025770" lon="3.0693680">
        <ele>8.5</ele>
        <time>2021-06-19T09:10:24Z</time>
      </trkpt>
      <trkpt lat="39.9026220" lon="3.0695020">
        <ele>8.4</ele>
        <time>2021-06-19T09:10:26Z</time>
      </trkpt>
      <trkpt lat="39.9027320" lon="3.0697260">
        <ele>8.1</ele>
        <time>2021-06-19T09:10:29Z</time>
      </trkpt>
      <trkpt lat="39.9027890" lon="3.0698570">
        <ele>8.0</ele>
        <time>2021-06-19T09:10:31Z</time>
      </trkpt>
      <trkpt lat="39.9029510" lon="3.0703530">
        <ele>7.7</ele>
        <time>2021-06-19T09:10:37Z</time>
      </trkpt>
      <trkpt lat="39.9031240" lon="3.0709120">
        <ele>7.3</ele>
        <time>2021-06-19T09:10:43Z</time>
      </trkpt>
      <trkpt lat="39.9031460" lon="3.0709850">
        <ele>7.3</ele>
        <time>2021-06-19T09:10:44Z</time>
      </trkpt>
      <trkpt lat="39.9032570" lon="3.0713590">
        <ele>7.0</ele>
        <time>2021-06-19T09:10:47Z</time>
      </trkpt>
      <trkpt lat="39.9034680" lon="3.0720650">
        <ele>6.5</ele>
        <time>2021-06-19T09:10:56Z</time>
      </trkpt>
      <trkpt lat="39.9034950" lon="3.0721550">
        <ele>6.4</ele>
        <time>2021-06-19T09:10:57Z</time>
      </trkpt>
      <trkpt lat="39.9037150" lon="3.0728950">
        <ele>6.0</ele>
        <time>2021-06-19T09:11:05Z</time>
      </trkpt>
      <trkpt lat="39.9037440" lon="3.0729870">
        <ele>5.9</ele>
        <time>2021-06-19T09:11:06Z</time>
      </trkpt>
      <trkpt lat="39.9039650" lon="3.0737100">
        <ele>5.4</ele>
        <time>2021-06-19T09:11:14Z</time>
      </trkpt>
      <trkpt lat="39.9040670" lon="3.0740660">
        <ele>5.3</ele>
        <time>2021-06-19T09:11:18Z</time>
      </trkpt>
      <trkpt lat="39.9042520" lon="3.0747540">
        <ele>5.0</ele>
        <time>2021-06-19T09:11:26Z</time>
      </trkpt>
      <trkpt lat="39.9042630" lon="3.0748740">
        <ele>5.0</ele>
        <time>2021-06-19T09:11:28Z</time>
      </trkpt>
      <trkpt lat="39.9042650" lon="3.0749970">
        <ele>5.0</ele>
        <time>2021-06-19T09:11:30Z</time>
      </trkpt>
      <trkpt lat="39.9042550" lon="3.0750600">
        <ele>5.0</ele>
        <time>2021-06-19T09:11:32Z</time>
      </trkpt>
      <trkpt lat="39.9042500" lon="3.0750820">
        <ele>5.0</ele>
        <time>2021-06-19T09:11:33Z</time>
      </trkpt>
      <trkpt lat="39.9042450" lon="3.0751460">
        <ele>5.0</ele>
        <time>2021-06-19T09:11:35Z</time>
      </trkpt>
      <trkpt lat="39.9042400" lon="3.0752900">
        <ele>5.0</ele>
        <time>2021-06-19T09:11:38Z</time>
      </trkpt>
      <trkpt lat="39.9042450" lon="3.0753610">
        <ele>5.0</ele>
        <time>2021-06-19T09:11:39Z</time>
      </trkpt>
      <trkpt lat="39.9042790" lon="3.0754740">
        <ele>5.0</ele>
        <time>2021-06-19T09:11:41Z</time>
      </trkpt>
      <trkpt lat="39.9043080" lon="3.0755320">
        <ele>4.9</ele>
        <time>2021-06-19T09:11:42Z</time>
      </trkpt>
      <trkpt lat="39.9043510" lon="3.0755970">
        <ele>4.9</ele>
        <time>2021-06-19T09:11:43Z</time>
      </trkpt>
      <trkpt lat="39.9044740" lon="3.0757180">
        <ele>4.8</ele>
        <time>2021-06-19T09:11:46Z</time>
      </trkpt>
      <trkpt lat="39.9045140" lon="3.0757620">
        <ele>4.8</ele>
        <time>2021-06-19T09:11:47Z</time>
      </trkpt>
      <trkpt lat="39.9045890" lon="3.0758720">
        <ele>4.7</ele>
        <time>2021-06-19T09:11:49Z</time>
      </trkpt>
      <trkpt lat="39.9046130" lon="3.0759260">
        <ele>4.6</ele>
        <time>2021-06-19T09:11:50Z</time>
      </trkpt>
      <trkpt lat="39.9046930" lon="3.0762040">
        <ele>4.5</ele>
        <time>2021-06-19T09:11:55Z</time>
      </trkpt>
      <trkpt lat="39.9047320" lon="3.0763200">
        <ele>4.5</ele>
        <time>2021-06-19T09:11:57Z</time>
      </trkpt>
      <trkpt lat="39.9048890" lon="3.0768150">
        <ele>4.5</ele>
        <time>2021-06-19T09:12:05Z</time>
      </trkpt>
      <trkpt lat="39.9049670" lon="3.0770640">
        <ele>4.5</ele>
        <time>2021-06-19T09:12:09Z</time>
      </trkpt>
      <trkpt lat="39.9050270" lon="3.0772450">
        <ele>4.6</ele>
        <time>2021-06-19T09:12:12Z</time>
      </trkpt>
      <trkpt lat="39.9050590" lon="3.0773370">
        <ele>4.6</ele>
        <time>2021-06-19T09:12:14Z</time>
      </trkpt>
      <trkpt lat="39.9051150" lon="3.0774970">
        <ele>4.6</ele>
        <time>2021-06-19T09:12:17Z</time>
      </trkpt>
      <trkpt lat="39.9051800" lon="3.0777120">
        <ele>4.7</ele>
        <time>2021-06-19T09:12:21Z</time>
      </trkpt>
      <trkpt lat="39.9052250" lon="3.0778930">
        <ele>4.8</ele>
        <time>2021-06-19T09:12:24Z</time>
      </trkpt>
      <trkpt lat="39.9052770" lon="3.0780020">
        <ele>4.8</ele>
        <time>2021-06-19T09:12:26Z</time>
      </trkpt>
      <trkpt lat="39.9053190" lon="3.0780970">
        <ele>4.8</ele>
        <time>2021-06-19T09:12:28Z</time>
      </trkpt>
      <trkpt lat="39.9053790" lon="3.0783110">
        <ele>4.9</ele>
        <time>2021-06-19T09:12:31Z</time>
      </trkpt>
      <trkpt lat="39.9054180" lon="3.0784350">
        <ele>4.9</ele>
        <time>2021-06-19T09:12:33Z</time>
      </trkpt>
      <trkpt lat="39.9055040" lon="3.0787270">
        <ele>4.9</ele>
        <time>2021-06-19T09:12:37Z</time>
      </trkpt>
      <trkpt lat="39.9056730" lon="3.0792580">
        <ele>4.9</ele>
        <time>2021-06-19T09:12:45Z</time>
      </trkpt>
      <trkpt lat="39.9057340" lon="3.0794370">
        <ele>4.9</ele>
        <time>2021-06-19T09:12:48Z</time>
      </trkpt>
      <trkpt lat="39.9059110" lon="3.0800280">
        <ele>4.7</ele>
        <time>2021-06-19T09:12:57Z</time>
      </trkpt>
      <trkpt lat="39.9059580" lon="3.0801580">
        <ele>4.7</ele>
        <time>2021-06-19T09:12:59Z</time>
      </trkpt>
      <trkpt lat="39.9060370" lon="3.0803770">
        <ele>4.6</ele>
        <time>2021-06-19T09:13:02Z</time>
      </trkpt>
      <trkpt lat="39.9061730" lon="3.0808370">
        <ele>4.5</ele>
        <time>2021-06-19T09:13:09Z</time>
      </trkpt>
      <trkpt lat="39.9061900" lon="3.0808860">
        <ele>4.5</ele>
        <time>2021-06-19T09:13:10Z</time>
      </trkpt>
      <trkpt lat="39.9062320" lon="3.0810960">
        <ele>4.5</ele>
        <time>2021-06-19T09:13:13Z</time>
      </trkpt>
      <trkpt lat="39.9062450" lon="3.0812840">
        <ele>4.5</ele>
        <time>2021-06-19T09:13:16Z</time>
      </trkpt>
      <trkpt lat="39.9062480" lon="3.0813340">
        <ele>4.5</ele>
        <time>2021-06-19T09:13:17Z</time>
      </trkpt>
      <trkpt lat="39.9062600" lon="3.0814570">
        <ele>4.5</ele>
        <time>2021-06-19T09:13:19Z</time>
      </trkpt>
      <trkpt lat="39.9062690" lon="3.0816400">
        <ele>4.5</ele>
        <time>2021-06-19T09:13:22Z</time>
      </trkpt>
      <trkpt lat="39.9062780" lon="3.0817510">
        <ele>4.4</ele>
        <time>2021-06-19T09:13:24Z</time>
      </trkpt>
      <trkpt lat="39.9062940" lon="3.0819260">
        <ele>4.4</ele>
        <time>2021-06-19T09:13:28Z</time>
      </trkpt>
      <trkpt lat="39.9063010" lon="3.0819710">
        <ele>4.4</ele>
        <time>2021-06-19T09:13:29Z</time>
      </trkpt>
      <trkpt lat="39.9063250" lon="3.0822610">
        <ele>4.2</ele>
        <time>2021-06-19T09:13:35Z</time>
      </trkpt>
      <trkpt lat="39.9063710" lon="3.0824950">
        <ele>4.2</ele>
        <time>2021-06-19T09:13:41Z</time>
      </trkpt>
      <trkpt lat="39.9063700" lon="3.0826340">
        <ele>4.2</ele>
        <time>2021-06-19T09:13:44Z</time>
      </trkpt>
      <trkpt lat="39.9063530" lon="3.0826830">
        <ele>4.2</ele>
        <time>2021-06-19T09:13:45Z</time>
      </trkpt>
      <trkpt lat="39.9063250" lon="3.0828300">
        <ele>4.1</ele>
        <time>2021-06-19T09:13:48Z</time>
      </trkpt>
      <trkpt lat="39.9063470" lon="3.0828720">
        <ele>4.2</ele>
        <time>2021-06-19T09:13:49Z</time>
      </trkpt>
      <trkpt lat="39.9063790" lon="3.0828960">
        <ele>4.2</ele>
        <time>2021-06-19T09:13:50Z</time>
      </trkpt>
      <trkpt lat="39.9064430" lon="3.0828580">
        <ele>4.2</ele>
        <time>2021-06-19T09:13:52Z</time>
      </trkpt>
      <trkpt lat="39.9066210" lon="3.0825720">
        <ele>4.5</ele>
        <time>2021-06-19T09:13:58Z</time>
      </trkpt>
      <trkpt lat="39.9067440" lon="3.0824720">
        <ele>4.6</ele>
        <time>2021-06-19T09:14:01Z</time>
      </trkpt>
      <trkpt lat="39.9067830" lon="3.0824390">
        <ele>4.7</ele>
        <time>2021-06-19T09:14:02Z</time>
      </trkpt>
      <trkpt lat="39.9068600" lon="3.0823770">
        <ele>4.8</ele>
        <time>2021-06-19T09:14:04Z</time>
      </trkpt>
      <trkpt lat="39.9069450" lon="3.0823700">
        <ele>4.8</ele>
        <time>2021-06-19T09:14:06Z</time>
      </trkpt>
      <trkpt lat="39.9070250" lon="3.0824250">
        <ele>4.8</ele>
        <time>2021-06-19T09:14:08Z</time>
      </trkpt>
      <trkpt lat="39.9071080" lon="3.0825100">
        <ele>4.8</ele>
        <time>2021-06-19T09:14:10Z</time>
      </trkpt>
      <trkpt lat="39.9073580" lon="3.0827570">
        <ele>5.0</ele>
        <time>2021-06-19T09:14:16Z</time>
      </trkpt>
      <trkpt lat="39.9074020" lon="3.0828030">
        <ele>5.0</ele>
        <time>2021-06-19T09:14:17Z</time>
      </trkpt>
      <trkpt lat="39.9074950" lon="3.0828830">
        <ele>5.0</ele>
        <time>2021-06-19T09:14:19Z</time>
      </trkpt>
      <trkpt lat="39.9075870" lon="3.0829610">
        <ele>5.0</ele>
        <time>2021-06-19T09:14:21Z</time>
      </trkpt>
      <trkpt lat="39.9077290" lon="3.0831060">
        <ele>5.0</ele>
        <time>2021-06-19T09:14:25Z</time>
      </trkpt>
      <trkpt lat="39.9077950" lon="3.0831800">
        <ele>5.0</ele>
        <time>2021-06-19T09:14:27Z</time>
      </trkpt>
      <trkpt lat="39.9080430" lon="3.0834450">
        <ele>5.1</ele>
        <time>2021-06-19T09:14:34Z</time>
      </trkpt>
      <trkpt lat="39.9080720" lon="3.0834710">
        <ele>5.1</ele>
        <time>2021-06-19T09:14:35Z</time>
      </trkpt>
      <trkpt lat="39.9081180" lon="3.0835060">
        <ele>5.1</ele>
        <time>2021-06-19T09:14:36Z</time>
      </trkpt>
      <trkpt lat="39.9082730" lon="3.0836550">
        <ele>5.1</ele>
        <time>2021-06-19T09:14:40Z</time>
      </trkpt>
      <trkpt lat="39.9083610" lon="3.0837560">
        <ele>5.1</ele>
        <time>2021-06-19T09:14:42Z</time>
      </trkpt>
      <trkpt lat="39.9085210" lon="3.0839110">
        <ele>5.1</ele>
        <time>2021-06-19T09:14:46Z</time>
      </trkpt>
      <trkpt lat="39.9085620" lon="3.0839450">
        <ele>5.0</ele>
        <time>2021-06-19T09:14:47Z</time>
      </trkpt>
      <trkpt lat="39.9086320" lon="3.0840080">
        <ele>5.0</ele>
        <time>2021-06-19T09:14:49Z</time>
      </trkpt>
      <trkpt lat="39.9086770" lon="3.0840570">
        <ele>4.9</ele>
        <time>2021-06-19T09:14:50Z</time>
      </trkpt>
      <trkpt lat="39.9087570" lon="3.0841350">
        <ele>4.9</ele>
        <time>2021-06-19T09:14:52Z</time>
      </trkpt>
      <trkpt lat="39.9088670" lon="3.0842570">
        <ele>4.8</ele>
        <time>2021-06-19T09:14:55Z</time>
      </trkpt>
      <trkpt lat="39.9089290" lon="3.0843380">
        <ele>4.7</ele>
        <time>2021-06-19T09:14:57Z</time>
      </trkpt>
      <trkpt lat="39.9092280" lon="3.0846420">
        <ele>4.7</ele>
        <time>2021-06-19T09:15:04Z</time>
      </trkpt>
      <trkpt lat="39.9093880" lon="3.0848060">
        <ele>4.6</ele>
        <time>2021-06-19T09:15:08Z</time>
      </trkpt>
      <trkpt lat="39.9095230" lon="3.0849400">
        <ele>4.6</ele>
        <time>2021-06-19T09:15:11Z</time>
      </trkpt>
      <trkpt lat="39.9097490" lon="3.0851980">
        <ele>4.5</ele>
        <time>2021-06-19T09:15:17Z</time>
      </trkpt>
      <trkpt lat="39.9097860" lon="3.0852400">
        <ele>4.5</ele>
        <time>2021-06-19T09:15:18Z</time>
      </trkpt>
      <trkpt lat="39.9098210" lon="3.0852850">
        <ele>4.4</ele>
        <time>2021-06-19T09:15:19Z</time>
      </trkpt>
      <trkpt lat="39.9100680" lon="3.0856470">
        <ele>4.3</ele>
        <time>2021-06-19T09:15:26Z</time>
      </trkpt>
      <trkpt lat="39.9102110" lon="3.0858520">
        <ele>4.3</ele>
        <time>2021-06-19T09:15:30Z</time>
      </trkpt>
      <trkpt lat="39.9104360" lon="3.0861580">
        <ele>4.4</ele>
        <time>2021-06-19T09:15:36Z</time>
      </trkpt>
      <trkpt lat="39.9107410" lon="3.0866350">
        <ele>4.4</ele>
        <time>2021-06-19T09:15:45Z</time>
      </trkpt>
      <trkpt lat="39.9109330" lon="3.0870280">
        <ele>4.4</ele>
        <time>2021-06-19T09:15:52Z</time>
      </trkpt>
      <trkpt lat="39.9109830" lon="3.0871330">
        <ele>4.4</ele>
        <time>2021-06-19T09:15:54Z</time>
      </trkpt>
      <trkpt lat="39.9112030" lon="3.0875630">
        <ele>4.4</ele>
        <time>2021-06-19T09:16:02Z</time>
      </trkpt>
      <trkpt lat="39.9112270" lon="3.0876120">
        <ele>4.4</ele>
        <time>2021-06-19T09:16:03Z</time>
      </trkpt>
      <trkpt lat="39.9112650" lon="3.0877160">
        <ele>4.3</ele>
        <time>2021-06-19T09:16:05Z</time>
      </trkpt>
      <trkpt lat="39.9112790" lon="3.0877690">
        <ele>4.3</ele>
        <time>2021-06-19T09:16:06Z</time>
      </trkpt>
      <trkpt lat="39.9112940" lon="3.0878150">
        <ele>4.3</ele>
        <time>2021-06-19T09:16:07Z</time>
      </trkpt>
      <trkpt lat="39.9113160" lon="3.0878970">
        <ele>4.3</ele>
        <time>2021-06-19T09:16:10Z</time>
      </trkpt>
      <trkpt lat="39.9113170" lon="3.0879010">
        <ele>4.3</ele>
        <time>2021-06-19T09:16:11Z</time>
      </trkpt>
      <trkpt lat="39.9113170" lon="3.0879010">
        <ele>4.3</ele>
        <time>2021-06-19T09:16:13Z</time>
      </trkpt>
      <trkpt lat="39.9113170" lon="3.0879010">
        <ele>4.3</ele>
        <time>2021-06-19T09:16:19Z</time>
      </trkpt>
      <trkpt lat="39.9113170" lon="3.0879010">
        <ele>4.3</ele>
        <time>2021-06-19T09:16:22Z</time>
      </trkpt>
      <trkpt lat="39.9113170" lon="3.0879010">
        <ele>4.3</ele>
        <time>2021-06-19T09:16:31Z</time>
      </trkpt>
      <trkpt lat="39.9113170" lon="3.0879010">
        <ele>4.3</ele>
        <time>2021-06-19T09:16:35Z</time>
      </trkpt>
      <trkpt lat="39.9113170" lon="3.0879010">
        <ele>4.3</ele>
        <time>2021-06-19T09:16:39Z</time>
      </trkpt>
      <trkpt lat="39.9113170" lon="3.0879010">
        <ele>4.3</ele>
        <time>2021-06-19T09:16:43Z</time>
      </trkpt>
      <trkpt lat="39.9113170" lon="3.0879010">
        <ele>4.3</ele>
        <time>2021-06-19T09:16:50Z</time>
      </trkpt>
      <trkpt lat="39.9112970" lon="3.0879210">
        <ele>4.3</ele>
        <time>2021-06-19T09:17:08Z</time>
      </trkpt>
      <trkpt lat="39.9112950" lon="3.0879230">
        <ele>4.3</ele>
        <time>2021-06-19T09:17:22Z</time>
      </trkpt>
      <trkpt lat="39.9113050" lon="3.0879300">
        <ele>4.3</ele>
        <time>2021-06-19T09:17:32Z</time>
      </trkpt>
      <trkpt lat="39.9113110" lon="3.0879300">
        <ele>4.3</ele>
        <time>2021-06-19T09:17:34Z</time>
      </trkpt>
      <trkpt lat="39.9113120" lon="3.0879300">
        <ele>4.3</ele>
        <time>2021-06-19T09:17:47Z</time>
      </trkpt>
      <trkpt lat="39.9113120" lon="3.0879300">
        <ele>4.3</ele>
        <time>2021-06-19T09:17:50Z</time>
      </trkpt>
      <trkpt lat="39.9113120" lon="3.0879300">
        <ele>4.3</ele>
        <time>2021-06-19T09:17:57Z</time>
      </trkpt>
      <trkpt lat="39.9113120" lon="3.0879300">
        <ele>4.3</ele>
        <time>2021-06-19T09:18:05Z</time>
      </trkpt>
      <trkpt lat="39.9113120" lon="3.0879300">
        <ele>4.3</ele>
        <time>2021-06-19T09:18:09Z</time>
      </trkpt>
      <trkpt lat="39.9113010" lon="3.0879310">
        <ele>4.3</ele>
        <time>2021-06-19T09:18:20Z</time>
      </trkpt>
      <trkpt lat="39.9113010" lon="3.0879310">
        <ele>4.3</ele>
        <time>2021-06-19T09:18:33Z</time>
      </trkpt>
      <trkpt lat="39.9113010" lon="3.0879310">
        <ele>4.3</ele>
        <time>2021-06-19T09:18:36Z</time>
      </trkpt>
      <trkpt lat="39.9113010" lon="3.0879310">
        <ele>4.3</ele>
        <time>2021-06-19T09:18:38Z</time>
      </trkpt>
      <trkpt lat="39.9113010" lon="3.0879310">
        <ele>4.3</ele>
        <time>2021-06-19T09:18:40Z</time>
      </trkpt>
      <trkpt lat="39.9113010" lon="3.0879310">
        <ele>4.3</ele>
        <time>2021-06-19T09:18:42Z</time>
      </trkpt>
      <trkpt lat="39.9113010" lon="3.0879310">
        <ele>4.3</ele>
        <time>2021-06-19T09:18:43Z</time>
      </trkpt>
      <trkpt lat="39.9113020" lon="3.0879340">
        <ele>4.3</ele>
        <time>2021-06-19T09:18:48Z</time>
      </trkpt>
      <trkpt lat="39.9113270" lon="3.0879880">
        <ele>4.3</ele>
        <time>2021-06-19T09:18:51Z</time>
      </trkpt>
      <trkpt lat="39.9113910" lon="3.0881720">
        <ele>4.2</ele>
        <time>2021-06-19T09:18:57Z</time>
      </trkpt>
      <trkpt lat="39.9114570" lon="3.0883360">
        <ele>4.2</ele>
        <time>2021-06-19T09:19:01Z</time>
      </trkpt>
      <trkpt lat="39.9114890" lon="3.0884340">
        <ele>4.2</ele>
        <time>2021-06-19T09:19:03Z</time>
      </trkpt>
      <trkpt lat="39.9115340" lon="3.0885900">
        <ele>4.2</ele>
        <time>2021-06-19T09:19:06Z</time>
      </trkpt>
      <trkpt lat="39.9115850" lon="3.0887560">
        <ele>4.2</ele>
        <time>2021-06-19T09:19:09Z</time>
      </trkpt>
      <trkpt lat="39.9116120" lon="3.0888610">
        <ele>4.2</ele>
        <time>2021-06-19T09:19:11Z</time>
      </trkpt>
      <trkpt lat="39.9116590" lon="3.0890860">
        <ele>4.3</ele>
        <time>2021-06-19T09:19:15Z</time>
      </trkpt>
      <trkpt lat="39.9116620" lon="3.0892010">
        <ele>4.3</ele>
        <time>2021-06-19T09:19:17Z</time>
      </trkpt>
      <trkpt lat="39.9116710" lon="3.0896670">
        <ele>4.4</ele>
        <time>2021-06-19T09:19:24Z</time>
      </trkpt>
      <trkpt lat="39.9116940" lon="3.0902380">
        <ele>4.4</ele>
        <time>2021-06-19T09:19:32Z</time>
      </trkpt>
      <trkpt lat="39.9116870" lon="3.0905680">
        <ele>4.5</ele>
        <time>2021-06-19T09:19:37Z</time>
      </trkpt>
      <trkpt lat="39.9116890" lon="3.0906330">
        <ele>4.5</ele>
        <time>2021-06-19T09:19:38Z</time>
      </trkpt>
      <trkpt lat="39.9116920" lon="3.0911720">
        <ele>4.6</ele>
        <time>2021-06-19T09:19:46Z</time>
      </trkpt>
      <trkpt lat="39.9116880" lon="3.0917400">
        <ele>4.7</ele>
        <time>2021-06-19T09:19:54Z</time>
      </trkpt>
      <trkpt lat="39.9116820" lon="3.0918130">
        <ele>4.7</ele>
        <time>2021-06-19T09:19:55Z</time>
      </trkpt>
      <trkpt lat="39.9115770" lon="3.0923450">
        <ele>4.8</ele>
        <time>2021-06-19T09:20:03Z</time>
      </trkpt>
      <trkpt lat="39.9114260" lon="3.0930170">
        <ele>4.9</ele>
        <time>2021-06-19T09:20:12Z</time>
      </trkpt>
      <trkpt lat="39.9113460" lon="3.0933920">
        <ele>5.0</ele>
        <time>2021-06-19T09:20:17Z</time>
      </trkpt>
      <trkpt lat="39.9113160" lon="3.0935460">
        <ele>5.1</ele>
        <time>2021-06-19T09:20:19Z</time>
      </trkpt>
      <trkpt lat="39.9111840" lon="3.0941390">
        <ele>5.5</ele>
        <time>2021-06-19T09:20:27Z</time>
      </trkpt>
      <trkpt lat="39.9111280" lon="3.0943720">
        <ele>5.6</ele>
        <time>2021-06-19T09:20:30Z</time>
      </trkpt>
      <trkpt lat="39.9110580" lon="3.0947050">
        <ele>5.8</ele>
        <time>2021-06-19T09:20:34Z</time>
      </trkpt>
      <trkpt lat="39.9109920" lon="3.0950350">
        <ele>5.9</ele>
        <time>2021-06-19T09:20:38Z</time>
      </trkpt>
      <trkpt lat="39.9108980" lon="3.0955090">
        <ele>6.1</ele>
        <time>2021-06-19T09:20:44Z</time>
      </trkpt>
      <trkpt lat="39.9108760" lon="3.0956030">
        <ele>6.2</ele>
        <time>2021-06-19T09:20:45Z</time>
      </trkpt>
      <trkpt lat="39.9108390" lon="3.0957440">
        <ele>6.3</ele>
        <time>2021-06-19T09:20:47Z</time>
      </trkpt>
      <trkpt lat="39.9107610" lon="3.0961430">
        <ele>6.4</ele>
        <time>2021-06-19T09:20:52Z</time>
      </trkpt>
      <trkpt lat="39.9107040" lon="3.0964600">
        <ele>6.5</ele>
        <time>2021-06-19T09:20:57Z</time>
      </trkpt>
      <trkpt lat="39.9106950" lon="3.0965250">
        <ele>6.5</ele>
        <time>2021-06-19T09:20:58Z</time>
      </trkpt>
      <trkpt lat="39.9106770" lon="3.0966600">
        <ele>6.5</ele>
        <time>2021-06-19T09:21:00Z</time>
      </trkpt>
      <trkpt lat="39.9106450" lon="3.0967800">
        <ele>6.6</ele>
        <time>2021-06-19T09:21:02Z</time>
      </trkpt>
      <trkpt lat="39.9106040" lon="3.0970100">
        <ele>6.6</ele>
        <time>2021-06-19T09:21:06Z</time>
      </trkpt>
      <trkpt lat="39.9105990" lon="3.0970550">
        <ele>6.6</ele>
        <time>2021-06-19T09:21:07Z</time>
      </trkpt>
      <trkpt lat="39.9105830" lon="3.0971230">
        <ele>6.6</ele>
        <time>2021-06-19T09:21:08Z</time>
      </trkpt>
      <trkpt lat="39.9105280" lon="3.0974430">
        <ele>6.4</ele>
        <time>2021-06-19T09:21:13Z</time>
      </trkpt>
      <trkpt lat="39.9105080" lon="3.0976000">
        <ele>6.4</ele>
        <time>2021-06-19T09:21:15Z</time>
      </trkpt>
      <trkpt lat="39.9104720" lon="3.0978250">
        <ele>6.3</ele>
        <time>2021-06-19T09:21:18Z</time>
      </trkpt>
      <trkpt lat="39.9104370" lon="3.0979700">
        <ele>6.3</ele>
        <time>2021-06-19T09:21:20Z</time>
      </trkpt>
      <trkpt lat="39.9104120" lon="3.0981210">
        <ele>6.2</ele>
        <time>2021-06-19T09:21:22Z</time>
      </trkpt>
      <trkpt lat="39.9104000" lon="3.0982780">
        <ele>6.2</ele>
        <time>2021-06-19T09:21:24Z</time>
      </trkpt>
      <trkpt lat="39.9103960" lon="3.0983550">
        <ele>6.2</ele>
        <time>2021-06-19T09:21:25Z</time>
      </trkpt>
      <trkpt lat="39.9104110" lon="3.0985080">
        <ele>6.3</ele>
        <time>2021-06-19T09:21:27Z</time>
      </trkpt>
      <trkpt lat="39.9104380" lon="3.0985740">
        <ele>6.3</ele>
        <time>2021-06-19T09:21:28Z</time>
      </trkpt>
      <trkpt lat="39.9104750" lon="3.0986290">
        <ele>6.3</ele>
        <time>2021-06-19T09:21:29Z</time>
      </trkpt>
      <trkpt lat="39.9105760" lon="3.0987050">
        <ele>6.4</ele>
        <time>2021-06-19T09:21:31Z</time>
      </trkpt>
      <trkpt lat="39.9109870" lon="3.0988850">
        <ele>7.0</ele>
        <time>2021-06-19T09:21:38Z</time>
      </trkpt>
      <trkpt lat="39.9110980" lon="3.0989300">
        <ele>7.2</ele>
        <time>2021-06-19T09:21:40Z</time>
      </trkpt>
      <trkpt lat="39.9113010" lon="3.0990100">
        <ele>7.7</ele>
        <time>2021-06-19T09:21:44Z</time>
      </trkpt>
      <trkpt lat="39.9116100" lon="3.0991210">
        <ele>8.5</ele>
        <time>2021-06-19T09:21:51Z</time>
      </trkpt>
      <trkpt lat="39.9116890" lon="3.0991530">
        <ele>8.7</ele>
        <time>2021-06-19T09:21:53Z</time>
      </trkpt>
      <trkpt lat="39.9119540" lon="3.0992560">
        <ele>9.4</ele>
        <time>2021-06-19T09:21:59Z</time>
      </trkpt>
      <trkpt lat="39.9122050" lon="3.0993670">
        <ele>10.2</ele>
        <time>2021-06-19T09:22:05Z</time>
      </trkpt>
      <trkpt lat="39.9122840" lon="3.0994020">
        <ele>10.4</ele>
        <time>2021-06-19T09:22:07Z</time>
      </trkpt>
      <trkpt lat="39.9123250" lon="3.0994180">
        <ele>10.6</ele>
        <time>2021-06-19T09:22:08Z</time>
      </trkpt>
      <trkpt lat="39.9123660" lon="3.0994330">
        <ele>10.7</ele>
        <time>2021-06-19T09:22:09Z</time>
      </trkpt>
      <trkpt lat="39.9124460" lon="3.0994620">
        <ele>10.9</ele>
        <time>2021-06-19T09:22:11Z</time>
      </trkpt>
      <trkpt lat="39.9124850" lon="3.0994780">
        <ele>11.0</ele>
        <time>2021-06-19T09:22:12Z</time>
      </trkpt>
      <trkpt lat="39.9125600" lon="3.0995230">
        <ele>11.1</ele>
        <time>2021-06-19T09:22:14Z</time>
      </trkpt>
      <trkpt lat="39.9126340" lon="3.0995750">
        <ele>11.2</ele>
        <time>2021-06-19T09:22:16Z</time>
      </trkpt>
      <trkpt lat="39.9126640" lon="3.0996080">
        <ele>11.3</ele>
        <time>2021-06-19T09:22:17Z</time>
      </trkpt>
      <trkpt lat="39.9127160" lon="3.0997370">
        <ele>11.3</ele>
        <time>2021-06-19T09:22:20Z</time>
      </trkpt>
      <trkpt lat="39.9127130" lon="3.0997940">
        <ele>11.3</ele>
        <time>2021-06-19T09:22:21Z</time>
      </trkpt>
      <trkpt lat="39.9126720" lon="3.0999570">
        <ele>11.3</ele>
        <time>2021-06-19T09:22:24Z</time>
      </trkpt>
      <trkpt lat="39.9126400" lon="3.1001170">
        <ele>11.4</ele>
        <time>2021-06-19T09:22:27Z</time>
      </trkpt>
      <trkpt lat="39.9125470" lon="3.1004940">
        <ele>11.4</ele>
        <time>2021-06-19T09:22:34Z</time>
      </trkpt>
      <trkpt lat="39.9124530" lon="3.1008680">
        <ele>11.3</ele>
        <time>2021-06-19T09:22:40Z</time>
      </trkpt>
      <trkpt lat="39.9123260" lon="3.1014170">
        <ele>11.3</ele>
        <time>2021-06-19T09:22:48Z</time>
      </trkpt>
      <trkpt lat="39.9122690" lon="3.1016830">
        <ele>11.3</ele>
        <time>2021-06-19T09:22:52Z</time>
      </trkpt>
      <trkpt lat="39.9122280" lon="3.1020180">
        <ele>11.5</ele>
        <time>2021-06-19T09:22:57Z</time>
      </trkpt>
      <trkpt lat="39.9122300" lon="3.1020850">
        <ele>11.5</ele>
        <time>2021-06-19T09:22:58Z</time>
      </trkpt>
      <trkpt lat="39.9122610" lon="3.1022670">
        <ele>11.8</ele>
        <time>2021-06-19T09:23:01Z</time>
      </trkpt>
      <trkpt lat="39.9122760" lon="3.1023210">
        <ele>12.0</ele>
        <time>2021-06-19T09:23:02Z</time>
      </trkpt>
      <trkpt lat="39.9122950" lon="3.1023750">
        <ele>12.1</ele>
        <time>2021-06-19T09:23:03Z</time>
      </trkpt>
      <trkpt lat="39.9123660" lon="3.1025180">
        <ele>12.5</ele>
        <time>2021-06-19T09:23:06Z</time>
      </trkpt>
      <trkpt lat="39.9123940" lon="3.1025530">
        <ele>12.7</ele>
        <time>2021-06-19T09:23:07Z</time>
      </trkpt>
      <trkpt lat="39.9124840" lon="3.1026380">
        <ele>13.2</ele>
        <time>2021-06-19T09:23:10Z</time>
      </trkpt>
      <trkpt lat="39.9125460" lon="3.1026860">
        <ele>13.5</ele>
        <time>2021-06-19T09:23:12Z</time>
      </trkpt>
      <trkpt lat="39.9128010" lon="3.1028620">
        <ele>14.8</ele>
        <time>2021-06-19T09:23:20Z</time>
      </trkpt>
      <trkpt lat="39.9130440" lon="3.1030370">
        <ele>16.2</ele>
        <time>2021-06-19T09:23:28Z</time>
      </trkpt>
      <trkpt lat="39.9131020" lon="3.1030760">
        <ele>16.5</ele>
        <time>2021-06-19T09:23:30Z</time>
      </trkpt>
      <trkpt lat="39.9131610" lon="3.1031130">
        <ele>16.9</ele>
        <time>2021-06-19T09:23:32Z</time>
      </trkpt>
      <trkpt lat="39.9133570" lon="3.1032570">
        <ele>18.2</ele>
        <time>2021-06-19T09:23:39Z</time>
      </trkpt>
      <trkpt lat="39.9135900" lon="3.1034110">
        <ele>19.7</ele>
        <time>2021-06-19T09:23:47Z</time>
      </trkpt>
      <trkpt lat="39.9137640" lon="3.1035230">
        <ele>20.8</ele>
        <time>2021-06-19T09:23:53Z</time>
      </trkpt>
      <trkpt lat="39.9138980" lon="3.1036220">
        <ele>21.6</ele>
        <time>2021-06-19T09:23:58Z</time>
      </trkpt>
      <trkpt lat="39.9141180" lon="3.1037780">
        <ele>23.0</ele>
        <time>2021-06-19T09:24:06Z</time>
      </trkpt>
      <trkpt lat="39.9143250" lon="3.1039350">
        <ele>24.3</ele>
        <time>2021-06-19T09:24:14Z</time>
      </trkpt>
      <trkpt lat="39.9145200" lon="3.1040720">
        <ele>25.9</ele>
        <time>2021-06-19T09:24:22Z</time>
      </trkpt>
      <trkpt lat="39.9147540" lon="3.1042250">
        <ele>28.2</ele>
        <time>2021-06-19T09:24:31Z</time>
      </trkpt>
      <trkpt lat="39.9148870" lon="3.1043740">
        <ele>30.0</ele>
        <time>2021-06-19T09:24:37Z</time>
      </trkpt>
      <trkpt lat="39.9149110" lon="3.1045140">
        <ele>31.2</ele>
        <time>2021-06-19T09:24:41Z</time>
      </trkpt>
      <trkpt lat="39.9147950" lon="3.1046660">
        <ele>32.8</ele>
        <time>2021-06-19T09:24:47Z</time>
      </trkpt>
      <trkpt lat="39.9146070" lon="3.1046440">
        <ele>34.3</ele>
        <time>2021-06-19T09:24:53Z</time>
      </trkpt>
      <trkpt lat="39.9145730" lon="3.1046340">
        <ele>34.5</ele>
        <time>2021-06-19T09:24:54Z</time>
      </trkpt>
      <trkpt lat="39.9142320" lon="3.1045390">
        <ele>36.4</ele>
        <time>2021-06-19T09:25:05Z</time>
      </trkpt>
      <trkpt lat="39.9140830" lon="3.1044970">
        <ele>37.1</ele>
        <time>2021-06-19T09:25:10Z</time>
      </trkpt>
      <trkpt lat="39.9139570" lon="3.1044590">
        <ele>37.7</ele>
        <time>2021-06-19T09:25:14Z</time>
      </trkpt>
      <trkpt lat="39.9138300" lon="3.1044290">
        <ele>38.5</ele>
        <time>2021-06-19T09:25:18Z</time>
      </trkpt>
      <trkpt lat="39.9136410" lon="3.1043780">
        <ele>39.5</ele>
        <time>2021-06-19T09:25:24Z</time>
      </trkpt>
      <trkpt lat="39.9133280" lon="3.1042940">
        <ele>41.0</ele>
        <time>2021-06-19T09:25:34Z</time>
      </trkpt>
      <trkpt lat="39.9129260" lon="3.1041880">
        <ele>42.6</ele>
        <time>2021-06-19T09:25:46Z</time>
      </trkpt>
      <trkpt lat="39.9126670" lon="3.1041210">
        <ele>43.4</ele>
        <time>2021-06-19T09:25:54Z</time>
      </trkpt>
      <trkpt lat="39.9124650" lon="3.1040700">
        <ele>44.0</ele>
        <time>2021-06-19T09:26:00Z</time>
      </trkpt>
      <trkpt lat="39.9124300" lon="3.1040640">
        <ele>44.1</ele>
        <time>2021-06-19T09:26:01Z</time>
      </trkpt>
      <trkpt lat="39.9121370" lon="3.1040450">
        <ele>45.1</ele>
        <time>2021-06-19T09:26:09Z</time>
      </trkpt>
      <trkpt lat="39.9117490" lon="3.1040740">
        <ele>46.7</ele>
        <time>2021-06-19T09:26:20Z</time>
      </trkpt>
      <trkpt lat="39.9115510" lon="3.1041140">
        <ele>47.7</ele>
        <time>2021-06-19T09:26:26Z</time>
      </trkpt>
      <trkpt lat="39.9115030" lon="3.1042650">
        <ele>48.4</ele>
        <time>2021-06-19T09:26:30Z</time>
      </trkpt>
      <trkpt lat="39.9116030" lon="3.1043910">
        <ele>49.4</ele>
        <time>2021-06-19T09:26:34Z</time>
      </trkpt>
      <trkpt lat="39.9117760" lon="3.1044140">
        <ele>50.5</ele>
        <time>2021-06-19T09:26:40Z</time>
      </trkpt>
      <trkpt lat="39.9119460" lon="3.1044300">
        <ele>51.7</ele>
        <time>2021-06-19T09:26:46Z</time>
      </trkpt>
      <trkpt lat="39.9121720" lon="3.1044150">
        <ele>53.4</ele>
        <time>2021-06-19T09:26:54Z</time>
      </trkpt>
      <trkpt lat="39.9123610" lon="3.1044430">
        <ele>54.9</ele>
        <time>2021-06-19T09:27:02Z</time>
      </trkpt>
      <trkpt lat="39.9124490" lon="3.1044650">
        <ele>55.6</ele>
        <time>2021-06-19T09:27:06Z</time>
      </trkpt>
      <trkpt lat="39.9125490" lon="3.1044990">
        <ele>56.5</ele>
        <time>2021-06-19T09:27:10Z</time>
      </trkpt>
      <trkpt lat="39.9127110" lon="3.1045840">
        <ele>58.0</ele>
        <time>2021-06-19T09:27:17Z</time>
      </trkpt>
      <trkpt lat="39.9129120" lon="3.1047670">
        <ele>59.8</ele>
        <time>2021-06-19T09:27:27Z</time>
      </trkpt>
      <trkpt lat="39.9130160" lon="3.1048480">
        <ele>60.8</ele>
        <time>2021-06-19T09:27:32Z</time>
      </trkpt>
      <trkpt lat="39.9130700" lon="3.1048730">
        <ele>61.2</ele>
        <time>2021-06-19T09:27:34Z</time>
      </trkpt>
      <trkpt lat="39.9133200" lon="3.1049380">
        <ele>63.0</ele>
        <time>2021-06-19T09:27:43Z</time>
      </trkpt>
      <trkpt lat="39.9134630" lon="3.1049840">
        <ele>64.0</ele>
        <time>2021-06-19T09:27:48Z</time>
      </trkpt>
      <trkpt lat="39.9135230" lon="3.1050160">
        <ele>64.5</ele>
        <time>2021-06-19T09:27:50Z</time>
      </trkpt>
      <trkpt lat="39.9136510" lon="3.1051020">
        <ele>65.4</ele>
        <time>2021-06-19T09:27:55Z</time>
      </trkpt>
      <trkpt lat="39.9137790" lon="3.1051980">
        <ele>66.4</ele>
        <time>2021-06-19T09:28:00Z</time>
      </trkpt>
      <trkpt lat="39.9139710" lon="3.1053400">
        <ele>67.7</ele>
        <time>2021-06-19T09:28:07Z</time>
      </trkpt>
      <trkpt lat="39.9141890" lon="3.1055360">
        <ele>69.4</ele>
        <time>2021-06-19T09:28:16Z</time>
      </trkpt>
      <trkpt lat="39.9144250" lon="3.1057210">
        <ele>71.2</ele>
        <time>2021-06-19T09:28:25Z</time>
      </trkpt>
      <trkpt lat="39.9146070" lon="3.1059290">
        <ele>72.9</ele>
        <time>2021-06-19T09:28:33Z</time>
      </trkpt>
      <trkpt lat="39.9147740" lon="3.1061760">
        <ele>74.9</ele>
        <time>2021-06-19T09:28:42Z</time>
      </trkpt>
      <trkpt lat="39.9149870" lon="3.1064540">
        <ele>77.1</ele>
        <time>2021-06-19T09:28:52Z</time>
      </trkpt>
      <trkpt lat="39.9151950" lon="3.1066720">
        <ele>79.0</ele>
        <time>2021-06-19T09:29:01Z</time>
      </trkpt>
      <trkpt lat="39.9153770" lon="3.1068700">
        <ele>80.7</ele>
        <time>2021-06-19T09:29:09Z</time>
      </trkpt>
      <trkpt lat="39.9155830" lon="3.1071260">
        <ele>82.9</ele>
        <time>2021-06-19T09:29:19Z</time>
      </trkpt>
      <trkpt lat="39.9157880" lon="3.1073460">
        <ele>84.9</ele>
        <time>2021-06-19T09:29:28Z</time>
      </trkpt>
      <trkpt lat="39.9160250" lon="3.1076300">
        <ele>87.4</ele>
        <time>2021-06-19T09:29:39Z</time>
      </trkpt>
      <trkpt lat="39.9161480" lon="3.1077850">
        <ele>88.8</ele>
        <time>2021-06-19T09:29:45Z</time>
      </trkpt>
      <trkpt lat="39.9161670" lon="3.1078100">
        <ele>89.0</ele>
        <time>2021-06-19T09:29:46Z</time>
      </trkpt>
      <trkpt lat="39.9162220" lon="3.1078900">
        <ele>89.7</ele>
        <time>2021-06-19T09:29:49Z</time>
      </trkpt>
      <trkpt lat="39.9162660" lon="3.1079350">
        <ele>90.1</ele>
        <time>2021-06-19T09:29:51Z</time>
      </trkpt>
      <trkpt lat="39.9163460" lon="3.1079770">
        <ele>90.7</ele>
        <time>2021-06-19T09:29:54Z</time>
      </trkpt>
      <trkpt lat="39.9164960" lon="3.1079570">
        <ele>91.5</ele>
        <time>2021-06-19T09:29:59Z</time>
      </trkpt>
      <trkpt lat="39.9166360" lon="3.1078070">
        <ele>92.3</ele>
        <time>2021-06-19T09:30:05Z</time>
      </trkpt>
      <trkpt lat="39.9168670" lon="3.1075020">
        <ele>94.2</ele>
        <time>2021-06-19T09:30:16Z</time>
      </trkpt>
      <trkpt lat="39.9170920" lon="3.1072130">
        <ele>96.4</ele>
        <time>2021-06-19T09:30:27Z</time>
      </trkpt>
      <trkpt lat="39.9172170" lon="3.1070460">
        <ele>97.7</ele>
        <time>2021-06-19T09:30:33Z</time>
      </trkpt>
      <trkpt lat="39.9172850" lon="3.1068490">
        <ele>98.7</ele>
        <time>2021-06-19T09:30:39Z</time>
      </trkpt>
      <trkpt lat="39.9172290" lon="3.1065200">
        <ele>100.2</ele>
        <time>2021-06-19T09:30:47Z</time>
      </trkpt>
      <trkpt lat="39.9171630" lon="3.1062010">
        <ele>101.9</ele>
        <time>2021-06-19T09:30:55Z</time>
      </trkpt>
      <trkpt lat="39.9171400" lon="3.1058380">
        <ele>103.7</ele>
        <time>2021-06-19T09:31:04Z</time>
      </trkpt>
      <trkpt lat="39.9172340" lon="3.1056860">
        <ele>104.7</ele>
        <time>2021-06-19T09:31:09Z</time>
      </trkpt>
      <trkpt lat="39.9173890" lon="3.1056480">
        <ele>105.8</ele>
        <time>2021-06-19T09:31:14Z</time>
      </trkpt>
      <trkpt lat="39.9175590" lon="3.1057060">
        <ele>107.1</ele>
        <time>2021-06-19T09:31:20Z</time>
      </trkpt>
      <trkpt lat="39.9178700" lon="3.1058440">
        <ele>109.8</ele>
        <time>2021-06-19T09:31:31Z</time>
      </trkpt>
      <trkpt lat="39.9180970" lon="3.1060230">
        <ele>112.0</ele>
        <time>2021-06-19T09:31:40Z</time>
      </trkpt>
      <trkpt lat="39.9183050" lon="3.1061760">
        <ele>113.7</ele>
        <time>2021-06-19T09:31:48Z</time>
      </trkpt>
      <trkpt lat="39.9185430" lon="3.1063480">
        <ele>115.6</ele>
        <time>2021-06-19T09:31:57Z</time>
      </trkpt>
      <trkpt lat="39.9186960" lon="3.1064240">
        <ele>116.7</ele>
        <time>2021-06-19T09:32:03Z</time>
      </trkpt>
      <trkpt lat="39.9187580" lon="3.1064590">
        <ele>117.2</ele>
        <time>2021-06-19T09:32:05Z</time>
      </trkpt>
      <trkpt lat="39.9189160" lon="3.1065550">
        <ele>118.6</ele>
        <time>2021-06-19T09:32:11Z</time>
      </trkpt>
      <trkpt lat="39.9189960" lon="3.1066030">
        <ele>119.3</ele>
        <time>2021-06-19T09:32:14Z</time>
      </trkpt>
      <trkpt lat="39.9192370" lon="3.1067660">
        <ele>121.4</ele>
        <time>2021-06-19T09:32:23Z</time>
      </trkpt>
      <trkpt lat="39.9193180" lon="3.1068160">
        <ele>122.1</ele>
        <time>2021-06-19T09:32:26Z</time>
      </trkpt>
      <trkpt lat="39.9194510" lon="3.1068980">
        <ele>123.4</ele>
        <time>2021-06-19T09:32:31Z</time>
      </trkpt>
      <trkpt lat="39.9195810" lon="3.1069630">
        <ele>124.7</ele>
        <time>2021-06-19T09:32:36Z</time>
      </trkpt>
      <trkpt lat="39.9196380" lon="3.1069850">
        <ele>125.3</ele>
        <time>2021-06-19T09:32:38Z</time>
      </trkpt>
      <trkpt lat="39.9198480" lon="3.1070140">
        <ele>127.0</ele>
        <time>2021-06-19T09:32:45Z</time>
      </trkpt>
      <trkpt lat="39.9199850" lon="3.1070260">
        <ele>128.2</ele>
        <time>2021-06-19T09:32:50Z</time>
      </trkpt>
      <trkpt lat="39.9200740" lon="3.1070360">
        <ele>128.9</ele>
        <time>2021-06-19T09:32:53Z</time>
      </trkpt>
      <trkpt lat="39.9202760" lon="3.1070390">
        <ele>130.7</ele>
        <time>2021-06-19T09:33:00Z</time>
      </trkpt>
      <trkpt lat="39.9203430" lon="3.1070330">
        <ele>131.3</ele>
        <time>2021-06-19T09:33:02Z</time>
      </trkpt>
      <trkpt lat="39.9204010" lon="3.1070340">
        <ele>131.8</ele>
        <time>2021-06-19T09:33:04Z</time>
      </trkpt>
      <trkpt lat="39.9206020" lon="3.1070350">
        <ele>133.5</ele>
        <time>2021-06-19T09:33:11Z</time>
      </trkpt>
      <trkpt lat="39.9206510" lon="3.1070380">
        <ele>133.9</ele>
        <time>2021-06-19T09:33:13Z</time>
      </trkpt>
      <trkpt lat="39.9209790" lon="3.1070560">
        <ele>136.9</ele>
        <time>2021-06-19T09:33:24Z</time>
      </trkpt>
      <trkpt lat="39.9212760" lon="3.1071250">
        <ele>139.4</ele>
        <time>2021-06-19T09:33:34Z</time>
      </trkpt>
      <trkpt lat="39.9214160" lon="3.1071790">
        <ele>140.6</ele>
        <time>2021-06-19T09:33:39Z</time>
      </trkpt>
      <trkpt lat="39.9214710" lon="3.1072050">
        <ele>141.1</ele>
        <time>2021-06-19T09:33:41Z</time>
      </trkpt>
      <trkpt lat="39.9216850" lon="3.1072730">
        <ele>142.7</ele>
        <time>2021-06-19T09:33:49Z</time>
      </trkpt>
      <trkpt lat="39.9218680" lon="3.1073190">
        <ele>144.0</ele>
        <time>2021-06-19T09:33:56Z</time>
      </trkpt>
      <trkpt lat="39.9220380" lon="3.1073480">
        <ele>145.2</ele>
        <time>2021-06-19T09:34:02Z</time>
      </trkpt>
      <trkpt lat="39.9221020" lon="3.1073660">
        <ele>145.6</ele>
        <time>2021-06-19T09:34:04Z</time>
      </trkpt>
      <trkpt lat="39.9223450" lon="3.1074240">
        <ele>147.5</ele>
        <time>2021-06-19T09:34:13Z</time>
      </trkpt>
      <trkpt lat="39.9225410" lon="3.1075350">
        <ele>149.3</ele>
        <time>2021-06-19T09:34:21Z</time>
      </trkpt>
      <trkpt lat="39.9227990" lon="3.1076690">
        <ele>151.7</ele>
        <time>2021-06-19T09:34:31Z</time>
      </trkpt>
      <trkpt lat="39.9230700" lon="3.1077600">
        <ele>154.0</ele>
        <time>2021-06-19T09:34:41Z</time>
      </trkpt>
      <trkpt lat="39.9233860" lon="3.1078340">
        <ele>156.3</ele>
        <time>2021-06-19T09:34:52Z</time>
      </trkpt>
      <trkpt lat="39.9236780" lon="3.1078390">
        <ele>157.9</ele>
        <time>2021-06-19T09:35:01Z</time>
      </trkpt>
      <trkpt lat="39.9239140" lon="3.1077420">
        <ele>159.3</ele>
        <time>2021-06-19T09:35:09Z</time>
      </trkpt>
      <trkpt lat="39.9241570" lon="3.1075970">
        <ele>161.2</ele>
        <time>2021-06-19T09:35:18Z</time>
      </trkpt>
      <trkpt lat="39.9243740" lon="3.1075350">
        <ele>163.3</ele>
        <time>2021-06-19T09:35:26Z</time>
      </trkpt>
      <trkpt lat="39.9244950" lon="3.1076220">
        <ele>164.6</ele>
        <time>2021-06-19T09:35:31Z</time>
      </trkpt>
      <trkpt lat="39.9245970" lon="3.1078130">
        <ele>166.4</ele>
        <time>2021-06-19T09:35:37Z</time>
      </trkpt>
      <trkpt lat="39.9247040" lon="3.1080740">
        <ele>168.4</ele>
        <time>2021-06-19T09:35:45Z</time>
      </trkpt>
      <trkpt lat="39.9248490" lon="3.1083630">
        <ele>170.6</ele>
        <time>2021-06-19T09:35:54Z</time>
      </trkpt>
      <trkpt lat="39.9250150" lon="3.1085190">
        <ele>172.0</ele>
        <time>2021-06-19T09:36:01Z</time>
      </trkpt>
      <trkpt lat="39.9252670" lon="3.1085250">
        <ele>173.7</ele>
        <time>2021-06-19T09:36:09Z</time>
      </trkpt>
      <trkpt lat="39.9254170" lon="3.1085540">
        <ele>174.9</ele>
        <time>2021-06-19T09:36:14Z</time>
      </trkpt>
      <trkpt lat="39.9255900" lon="3.1087650">
        <ele>176.8</ele>
        <time>2021-06-19T09:36:21Z</time>
      </trkpt>
      <trkpt lat="39.9256930" lon="3.1090470">
        <ele>178.9</ele>
        <time>2021-06-19T09:36:29Z</time>
      </trkpt>
      <trkpt lat="39.9257110" lon="3.1090900">
        <ele>179.2</ele>
        <time>2021-06-19T09:36:30Z</time>
      </trkpt>
      <trkpt lat="39.9258330" lon="3.1093090">
        <ele>180.7</ele>
        <time>2021-06-19T09:36:37Z</time>
      </trkpt>
      <trkpt lat="39.9259780" lon="3.1093920">
        <ele>181.8</ele>
        <time>2021-06-19T09:36:42Z</time>
      </trkpt>
      <trkpt lat="39.9262230" lon="3.1093780">
        <ele>183.4</ele>
        <time>2021-06-19T09:36:49Z</time>
      </trkpt>
      <trkpt lat="39.9264890" lon="3.1094150">
        <ele>185.4</ele>
        <time>2021-06-19T09:36:57Z</time>
      </trkpt>
      <trkpt lat="39.9266800" lon="3.1096170">
        <ele>187.5</ele>
        <time>2021-06-19T09:37:05Z</time>
      </trkpt>
      <trkpt lat="39.9268500" lon="3.1097930">
        <ele>189.3</ele>
        <time>2021-06-19T09:37:12Z</time>
      </trkpt>
      <trkpt lat="39.9269800" lon="3.1097750">
        <ele>190.2</ele>
        <time>2021-06-19T09:37:16Z</time>
      </trkpt>
      <trkpt lat="39.9272170" lon="3.1096630">
        <ele>191.9</ele>
        <time>2021-06-19T09:37:23Z</time>
      </trkpt>
      <trkpt lat="39.9273830" lon="3.1097340">
        <ele>193.1</ele>
        <time>2021-06-19T09:37:28Z</time>
      </trkpt>
      <trkpt lat="39.9276450" lon="3.1098550">
        <ele>195.3</ele>
        <time>2021-06-19T09:37:36Z</time>
      </trkpt>
      <trkpt lat="39.9279340" lon="3.1099940">
        <ele>197.7</ele>
        <time>2021-06-19T09:37:45Z</time>
      </trkpt>
      <trkpt lat="39.9281830" lon="3.1100520">
        <ele>199.6</ele>
        <time>2021-06-19T09:37:52Z</time>
      </trkpt>
      <trkpt lat="39.9284400" lon="3.1100610">
        <ele>201.5</ele>
        <time>2021-06-19T09:37:58Z</time>
      </trkpt>
      <trkpt lat="39.9284800" lon="3.1100680">
        <ele>201.9</ele>
        <time>2021-06-19T09:37:59Z</time>
      </trkpt>
      <trkpt lat="39.9285750" lon="3.1101270">
        <ele>202.8</ele>
        <time>2021-06-19T09:38:01Z</time>
      </trkpt>
      <trkpt lat="39.9286830" lon="3.1103260">
        <ele>204.3</ele>
        <time>2021-06-19T09:38:06Z</time>
      </trkpt>
      <trkpt lat="39.9287240" lon="3.1104720">
        <ele>204.8</ele>
        <time>2021-06-19T09:38:10Z</time>
      </trkpt>
      <trkpt lat="39.9288410" lon="3.1105650">
        <ele>205.4</ele>
        <time>2021-06-19T09:38:15Z</time>
      </trkpt>
      <trkpt lat="39.9289330" lon="3.1106260">
        <ele>202.9</ele>
        <time>2021-06-19T09:38:19Z</time>
      </trkpt>
      <trkpt lat="39.9289570" lon="3.1106230">
        <ele>202.5</ele>
        <time>2021-06-19T09:38:20Z</time>
      </trkpt>
      <trkpt lat="39.9290170" lon="3.1105790">
        <ele>199.7</ele>
        <time>2021-06-19T09:38:24Z</time>
      </trkpt>
      <trkpt lat="39.9290220" lon="3.1105750">
        <ele>199.3</ele>
        <time>2021-06-19T09:38:25Z</time>
      </trkpt>
      <trkpt lat="39.9290220" lon="3.1105750">
        <ele>198.9</ele>
        <time>2021-06-19T09:38:28Z</time>
      </trkpt>
      <trkpt lat="39.9290220" lon="3.1105750">
        <ele>198.6</ele>
        <time>2021-06-19T09:38:30Z</time>
      </trkpt>
      <trkpt lat="39.9290210" lon="3.1105530">
        <ele>198.2</ele>
        <time>2021-06-19T09:38:39Z</time>
      </trkpt>
      <trkpt lat="39.9290210" lon="3.1105530">
        <ele>197.8</ele>
        <time>2021-06-19T09:38:42Z</time>
      </trkpt>
      <trkpt lat="39.9290210" lon="3.1105530">
        <ele>197.4</ele>
        <time>2021-06-19T09:38:45Z</time>
      </trkpt>
      <trkpt lat="39.9290210" lon="3.1105530">
        <ele>197.1</ele>
        <time>2021-06-19T09:38:52Z</time>
      </trkpt>
      <trkpt lat="39.9290210" lon="3.1105510">
        <ele>196.7</ele>
        <time>2021-06-19T09:38:56Z</time>
      </trkpt>
      <trkpt lat="39.9290150" lon="3.1105030">
        <ele>195.1</ele>
        <time>2021-06-19T09:38:59Z</time>
      </trkpt>
      <trkpt lat="39.9290310" lon="3.1104970">
        <ele>193.5</ele>
        <time>2021-06-19T09:39:03Z</time>
      </trkpt>
      <trkpt lat="39.9290460" lon="3.1104830">
        <ele>193.1</ele>
        <time>2021-06-19T09:39:05Z</time>
      </trkpt>
      <trkpt lat="39.9290650" lon="3.1104710">
        <ele>191.5</ele>
        <time>2021-06-19T09:39:07Z</time>
      </trkpt>
      <trkpt lat="39.9290950" lon="3.1104650">
        <ele>189.7</ele>
        <time>2021-06-19T09:39:09Z</time>
      </trkpt>
      <trkpt lat="39.9291040" lon="3.1104710">
        <ele>189.4</ele>
        <time>2021-06-19T09:39:10Z</time>
      </trkpt>
      <trkpt lat="39.9291310" lon="3.1105020">
        <ele>187.5</ele>
        <time>2021-06-19T09:39:13Z</time>
      </trkpt>
      <trkpt lat="39.9291370" lon="3.1123080">
        <ele>190.1</ele>
        <time>2021-06-19T09:51:48Z</time>
      </trkpt>
      <trkpt lat="39.9291300" lon="3.1122280">
        <ele>190.0</ele>
        <time>2021-06-19T09:51:49Z</time>
      </trkpt>
      <trkpt lat="39.9291250" lon="3.1120570">
        <ele>189.6</ele>
        <time>2021-06-19T09:51:51Z</time>
      </trkpt>
      <trkpt lat="39.9291630" lon="3.1119160">
        <ele>189.1</ele>
        <time>2021-06-19T09:51:53Z</time>
      </trkpt>
      <trkpt lat="39.9292640" lon="3.1118700">
        <ele>188.3</ele>
        <time>2021-06-19T09:51:55Z</time>
      </trkpt>
      <trkpt lat="39.9293180" lon="3.1120020">
        <ele>187.2</ele>
        <time>2021-06-19T09:51:57Z</time>
      </trkpt>
      <trkpt lat="39.9293440" lon="3.1123080">
        <ele>184.9</ele>
        <time>2021-06-19T09:52:00Z</time>
      </trkpt>
      <trkpt lat="39.9293880" lon="3.1130150">
        <ele>181.0</ele>
        <time>2021-06-19T09:52:06Z</time>
      </trkpt>
      <trkpt lat="39.9293990" lon="3.1133320">
        <ele>179.0</ele>
        <time>2021-06-19T09:52:09Z</time>
      </trkpt>
      <trkpt lat="39.9293990" lon="3.1135740">
        <ele>177.5</ele>
        <time>2021-06-19T09:52:11Z</time>
      </trkpt>
      <trkpt lat="39.9294060" lon="3.1136580">
        <ele>177.1</ele>
        <time>2021-06-19T09:52:12Z</time>
      </trkpt>
      <trkpt lat="39.9294220" lon="3.1137610">
        <ele>176.5</ele>
        <time>2021-06-19T09:52:13Z</time>
      </trkpt>
      <trkpt lat="39.9294440" lon="3.1138600">
        <ele>175.9</ele>
        <time>2021-06-19T09:52:14Z</time>
      </trkpt>
      <trkpt lat="39.9295320" lon="3.1142780">
        <ele>173.6</ele>
        <time>2021-06-19T09:52:18Z</time>
      </trkpt>
      <trkpt lat="39.9295400" lon="3.1144770">
        <ele>172.7</ele>
        <time>2021-06-19T09:52:20Z</time>
      </trkpt>
      <trkpt lat="39.9295760" lon="3.1145830">
        <ele>172.0</ele>
        <time>2021-06-19T09:52:21Z</time>
      </trkpt>
      <trkpt lat="39.9296150" lon="3.1146430">
        <ele>171.6</ele>
        <time>2021-06-19T09:52:22Z</time>
      </trkpt>
      <trkpt lat="39.9297450" lon="3.1147670">
        <ele>170.4</ele>
        <time>2021-06-19T09:52:24Z</time>
      </trkpt>
      <trkpt lat="39.9299770" lon="3.1149720">
        <ele>168.0</ele>
        <time>2021-06-19T09:52:27Z</time>
      </trkpt>
      <trkpt lat="39.9301290" lon="3.1151190">
        <ele>166.5</ele>
        <time>2021-06-19T09:52:29Z</time>
      </trkpt>
      <trkpt lat="39.9302080" lon="3.1152190">
        <ele>165.8</ele>
        <time>2021-06-19T09:52:30Z</time>
      </trkpt>
      <trkpt lat="39.9303610" lon="3.1154660">
        <ele>164.1</ele>
        <time>2021-06-19T09:52:33Z</time>
      </trkpt>
      <trkpt lat="39.9304150" lon="3.1155860">
        <ele>163.3</ele>
        <time>2021-06-19T09:52:34Z</time>
      </trkpt>
      <trkpt lat="39.9304560" lon="3.1158090">
        <ele>162.0</ele>
        <time>2021-06-19T09:52:36Z</time>
      </trkpt>
      <trkpt lat="39.9304730" lon="3.1161590">
        <ele>160.0</ele>
        <time>2021-06-19T09:52:39Z</time>
      </trkpt>
      <trkpt lat="39.9304980" lon="3.1162760">
        <ele>159.4</ele>
        <time>2021-06-19T09:52:40Z</time>
      </trkpt>
      <trkpt lat="39.9305350" lon="3.1163830">
        <ele>158.9</ele>
        <time>2021-06-19T09:52:41Z</time>
      </trkpt>
      <trkpt lat="39.9306590" lon="3.1168410">
        <ele>157.2</ele>
        <time>2021-06-19T09:52:45Z</time>
      </trkpt>
      <trkpt lat="39.9306720" lon="3.1169520">
        <ele>157.0</ele>
        <time>2021-06-19T09:52:46Z</time>
      </trkpt>
      <trkpt lat="39.9306730" lon="3.1170350">
        <ele>156.9</ele>
        <time>2021-06-19T09:52:47Z</time>
      </trkpt>
      <trkpt lat="39.9306480" lon="3.1172310">
        <ele>156.8</ele>
        <time>2021-06-19T09:52:49Z</time>
      </trkpt>
      <trkpt lat="39.9306200" lon="3.1174390">
        <ele>156.9</ele>
        <time>2021-06-19T09:52:51Z</time>
      </trkpt>
      <trkpt lat="39.9305810" lon="3.1177130">
        <ele>157.2</ele>
        <time>2021-06-19T09:52:54Z</time>
      </trkpt>
      <trkpt lat="39.9305580" lon="3.1177960">
        <ele>157.3</ele>
        <time>2021-06-19T09:52:55Z</time>
      </trkpt>
      <trkpt lat="39.9304740" lon="3.1180280">
        <ele>157.5</ele>
        <time>2021-06-19T09:52:58Z</time>
      </trkpt>
      <trkpt lat="39.9304210" lon="3.1181730">
        <ele>157.7</ele>
        <time>2021-06-19T09:53:00Z</time>
      </trkpt>
      <trkpt lat="39.9303780" lon="3.1183920">
        <ele>157.8</ele>
        <time>2021-06-19T09:53:03Z</time>
      </trkpt>
      <trkpt lat="39.9303770" lon="3.1184480">
        <ele>157.8</ele>
        <time>2021-06-19T09:53:04Z</time>
      </trkpt>
      <trkpt lat="39.9303730" lon="3.1189120">
        <ele>157.9</ele>
        <time>2021-06-19T09:53:10Z</time>
      </trkpt>
      <trkpt lat="39.9303680" lon="3.1189930">
        <ele>157.9</ele>
        <time>2021-06-19T09:53:11Z</time>
      </trkpt>
      <trkpt lat="39.9303710" lon="3.1194020">
        <ele>157.5</ele>
        <time>2021-06-19T09:53:16Z</time>
      </trkpt>
      <trkpt lat="39.9303800" lon="3.1195790">
        <ele>157.4</ele>
        <time>2021-06-19T09:53:18Z</time>
      </trkpt>
      <trkpt lat="39.9303820" lon="3.1196550">
        <ele>157.3</ele>
        <time>2021-06-19T09:53:19Z</time>
      </trkpt>
      <trkpt lat="39.9304250" lon="3.1198570">
        <ele>156.9</ele>
        <time>2021-06-19T09:53:22Z</time>
      </trkpt>
      <trkpt lat="39.9304780" lon="3.1200280">
        <ele>156.3</ele>
        <time>2021-06-19T09:53:24Z</time>
      </trkpt>
      <trkpt lat="39.9304900" lon="3.1201910">
        <ele>155.6</ele>
        <time>2021-06-19T09:53:26Z</time>
      </trkpt>
      <trkpt lat="39.9305100" lon="3.1203020">
        <ele>155.1</ele>
        <time>2021-06-19T09:53:27Z</time>
      </trkpt>
      <trkpt lat="39.9305650" lon="3.1204840">
        <ele>154.2</ele>
        <time>2021-06-19T09:53:29Z</time>
      </trkpt>
      <trkpt lat="39.9306000" lon="3.1205740">
        <ele>153.8</ele>
        <time>2021-06-19T09:53:30Z</time>
      </trkpt>
      <trkpt lat="39.9306320" lon="3.1206670">
        <ele>153.3</ele>
        <time>2021-06-19T09:53:31Z</time>
      </trkpt>
      <trkpt lat="39.9306710" lon="3.1209570">
        <ele>151.9</ele>
        <time>2021-06-19T09:53:34Z</time>
      </trkpt>
      <trkpt lat="39.9306480" lon="3.1211130">
        <ele>150.9</ele>
        <time>2021-06-19T09:53:36Z</time>
      </trkpt>
      <trkpt lat="39.9306170" lon="3.1212120">
        <ele>150.1</ele>
        <time>2021-06-19T09:53:37Z</time>
      </trkpt>
      <trkpt lat="39.9306300" lon="3.1213020">
        <ele>149.5</ele>
        <time>2021-06-19T09:53:38Z</time>
      </trkpt>
      <trkpt lat="39.9306430" lon="3.1213940">
        <ele>148.8</ele>
        <time>2021-06-19T09:53:39Z</time>
      </trkpt>
      <trkpt lat="39.9306900" lon="3.1216510">
        <ele>147.0</ele>
        <time>2021-06-19T09:53:42Z</time>
      </trkpt>
      <trkpt lat="39.9307340" lon="3.1217130">
        <ele>146.4</ele>
        <time>2021-06-19T09:53:43Z</time>
      </trkpt>
      <trkpt lat="39.9307870" lon="3.1217590">
        <ele>145.9</ele>
        <time>2021-06-19T09:53:44Z</time>
      </trkpt>
      <trkpt lat="39.9308950" lon="3.1218160">
        <ele>145.0</ele>
        <time>2021-06-19T09:53:46Z</time>
      </trkpt>
      <trkpt lat="39.9310170" lon="3.1218970">
        <ele>144.0</ele>
        <time>2021-06-19T09:53:48Z</time>
      </trkpt>
      <trkpt lat="39.9311130" lon="3.1220260">
        <ele>142.7</ele>
        <time>2021-06-19T09:53:50Z</time>
      </trkpt>
      <trkpt lat="39.9310800" lon="3.1221990">
        <ele>140.9</ele>
        <time>2021-06-19T09:53:52Z</time>
      </trkpt>
      <trkpt lat="39.9310350" lon="3.1222690">
        <ele>139.9</ele>
        <time>2021-06-19T09:53:53Z</time>
      </trkpt>
      <trkpt lat="39.9309030" lon="3.1223510">
        <ele>138.0</ele>
        <time>2021-06-19T09:53:55Z</time>
      </trkpt>
      <trkpt lat="39.9307490" lon="3.1224350">
        <ele>136.1</ele>
        <time>2021-06-19T09:53:57Z</time>
      </trkpt>
      <trkpt lat="39.9306010" lon="3.1225640">
        <ele>134.4</ele>
        <time>2021-06-19T09:53:59Z</time>
      </trkpt>
      <trkpt lat="39.9304010" lon="3.1227600">
        <ele>132.4</ele>
        <time>2021-06-19T09:54:02Z</time>
      </trkpt>
      <trkpt lat="39.9303460" lon="3.1228290">
        <ele>131.8</ele>
        <time>2021-06-19T09:54:03Z</time>
      </trkpt>
      <trkpt lat="39.9303090" lon="3.1229090">
        <ele>131.1</ele>
        <time>2021-06-19T09:54:04Z</time>
      </trkpt>
      <trkpt lat="39.9302980" lon="3.1230050">
        <ele>130.4</ele>
        <time>2021-06-19T09:54:05Z</time>
      </trkpt>
      <trkpt lat="39.9302950" lon="3.1232190">
        <ele>129.0</ele>
        <time>2021-06-19T09:54:07Z</time>
      </trkpt>
      <trkpt lat="39.9303020" lon="3.1233250">
        <ele>128.3</ele>
        <time>2021-06-19T09:54:08Z</time>
      </trkpt>
      <trkpt lat="39.9303430" lon="3.1237880">
        <ele>126.1</ele>
        <time>2021-06-19T09:54:12Z</time>
      </trkpt>
      <trkpt lat="39.9303340" lon="3.1240040">
        <ele>125.4</ele>
        <time>2021-06-19T09:54:14Z</time>
      </trkpt>
      <trkpt lat="39.9303110" lon="3.1242270">
        <ele>124.8</ele>
        <time>2021-06-19T09:54:16Z</time>
      </trkpt>
      <trkpt lat="39.9302690" lon="3.1245410">
        <ele>124.3</ele>
        <time>2021-06-19T09:54:19Z</time>
      </trkpt>
      <trkpt lat="39.9302800" lon="3.1246310">
        <ele>124.0</ele>
        <time>2021-06-19T09:54:20Z</time>
      </trkpt>
      <trkpt lat="39.9303020" lon="3.1247100">
        <ele>123.7</ele>
        <time>2021-06-19T09:54:21Z</time>
      </trkpt>
      <trkpt lat="39.9303660" lon="3.1248160">
        <ele>123.6</ele>
        <time>2021-06-19T09:54:23Z</time>
      </trkpt>
      <trkpt lat="39.9304430" lon="3.1247750">
        <ele>122.8</ele>
        <time>2021-06-19T09:54:25Z</time>
      </trkpt>
      <trkpt lat="39.9304590" lon="3.1245810">
        <ele>121.4</ele>
        <time>2021-06-19T09:54:28Z</time>
      </trkpt>
      <trkpt lat="39.9304560" lon="3.1242710">
        <ele>119.4</ele>
        <time>2021-06-19T09:54:32Z</time>
      </trkpt>
      <trkpt lat="39.9304690" lon="3.1241870">
        <ele>118.9</ele>
        <time>2021-06-19T09:54:33Z</time>
      </trkpt>
      <trkpt lat="39.9304890" lon="3.1240980">
        <ele>118.3</ele>
        <time>2021-06-19T09:54:34Z</time>
      </trkpt>
      <trkpt lat="39.9305390" lon="3.1239180">
        <ele>117.1</ele>
        <time>2021-06-19T09:54:36Z</time>
      </trkpt>
      <trkpt lat="39.9305580" lon="3.1238210">
        <ele>116.5</ele>
        <time>2021-06-19T09:54:37Z</time>
      </trkpt>
      <trkpt lat="39.9306820" lon="3.1232990">
        <ele>113.9</ele>
        <time>2021-06-19T09:54:42Z</time>
      </trkpt>
      <trkpt lat="39.9307310" lon="3.1232120">
        <ele>113.5</ele>
        <time>2021-06-19T09:54:43Z</time>
      </trkpt>
      <trkpt lat="39.9308000" lon="3.1231500">
        <ele>112.8</ele>
        <time>2021-06-19T09:54:44Z</time>
      </trkpt>
      <trkpt lat="39.9308830" lon="3.1231330">
        <ele>112.2</ele>
        <time>2021-06-19T09:54:45Z</time>
      </trkpt>
      <trkpt lat="39.9309720" lon="3.1231510">
        <ele>111.5</ele>
        <time>2021-06-19T09:54:46Z</time>
      </trkpt>
      <trkpt lat="39.9311440" lon="3.1231770">
        <ele>110.2</ele>
        <time>2021-06-19T09:54:48Z</time>
      </trkpt>
      <trkpt lat="39.9314840" lon="3.1231050">
        <ele>108.2</ele>
        <time>2021-06-19T09:54:52Z</time>
      </trkpt>
      <trkpt lat="39.9315700" lon="3.1231060">
        <ele>107.7</ele>
        <time>2021-06-19T09:54:53Z</time>
      </trkpt>
      <trkpt lat="39.9317230" lon="3.1231950">
        <ele>106.6</ele>
        <time>2021-06-19T09:54:55Z</time>
      </trkpt>
      <trkpt lat="39.9318110" lon="3.1233920">
        <ele>105.2</ele>
        <time>2021-06-19T09:54:57Z</time>
      </trkpt>
      <trkpt lat="39.9318330" lon="3.1234990">
        <ele>104.5</ele>
        <time>2021-06-19T09:54:58Z</time>
      </trkpt>
      <trkpt lat="39.9319510" lon="3.1242130">
        <ele>99.9</ele>
        <time>2021-06-19T09:55:04Z</time>
      </trkpt>
      <trkpt lat="39.9320960" lon="3.1247900">
        <ele>96.0</ele>
        <time>2021-06-19T09:55:09Z</time>
      </trkpt>
      <trkpt lat="39.9321930" lon="3.1250190">
        <ele>94.3</ele>
        <time>2021-06-19T09:55:12Z</time>
      </trkpt>
      <trkpt lat="39.9322180" lon="3.1250590">
        <ele>94.0</ele>
        <time>2021-06-19T09:55:13Z</time>
      </trkpt>
      <trkpt lat="39.9322880" lon="3.1251200">
        <ele>93.4</ele>
        <time>2021-06-19T09:55:16Z</time>
      </trkpt>
      <trkpt lat="39.9324180" lon="3.1252000">
        <ele>92.3</ele>
        <time>2021-06-19T09:55:20Z</time>
      </trkpt>
      <trkpt lat="39.9325230" lon="3.1252350">
        <ele>91.4</ele>
        <time>2021-06-19T09:55:22Z</time>
      </trkpt>
      <trkpt lat="39.9326500" lon="3.1252490">
        <ele>90.4</ele>
        <time>2021-06-19T09:55:24Z</time>
      </trkpt>
      <trkpt lat="39.9329600" lon="3.1252560">
        <ele>87.9</ele>
        <time>2021-06-19T09:55:28Z</time>
      </trkpt>
      <trkpt lat="39.9333990" lon="3.1252880">
        <ele>85.3</ele>
        <time>2021-06-19T09:55:33Z</time>
      </trkpt>
      <trkpt lat="39.9335470" lon="3.1253810">
        <ele>84.5</ele>
        <time>2021-06-19T09:55:35Z</time>
      </trkpt>
      <trkpt lat="39.9336010" lon="3.1254560">
        <ele>84.0</ele>
        <time>2021-06-19T09:55:36Z</time>
      </trkpt>
      <trkpt lat="39.9336300" lon="3.1255480">
        <ele>83.3</ele>
        <time>2021-06-19T09:55:37Z</time>
      </trkpt>
      <trkpt lat="39.9336160" lon="3.1257370">
        <ele>82.0</ele>
        <time>2021-06-19T09:55:39Z</time>
      </trkpt>
      <trkpt lat="39.9335520" lon="3.1259060">
        <ele>80.5</ele>
        <time>2021-06-19T09:55:41Z</time>
      </trkpt>
      <trkpt lat="39.9334590" lon="3.1260690">
        <ele>78.9</ele>
        <time>2021-06-19T09:55:43Z</time>
      </trkpt>
      <trkpt lat="39.9332590" lon="3.1264430">
        <ele>75.8</ele>
        <time>2021-06-19T09:55:47Z</time>
      </trkpt>
      <trkpt lat="39.9331460" lon="3.1266430">
        <ele>74.3</ele>
        <time>2021-06-19T09:55:49Z</time>
      </trkpt>
      <trkpt lat="39.9328800" lon="3.1270060">
        <ele>71.1</ele>
        <time>2021-06-19T09:55:53Z</time>
      </trkpt>
      <trkpt lat="39.9328070" lon="3.1270880">
        <ele>70.3</ele>
        <time>2021-06-19T09:55:54Z</time>
      </trkpt>
      <trkpt lat="39.9324590" lon="3.1275600">
        <ele>66.7</ele>
        <time>2021-06-19T09:55:59Z</time>
      </trkpt>
      <trkpt lat="39.9323450" lon="3.1277620">
        <ele>65.3</ele>
        <time>2021-06-19T09:56:01Z</time>
      </trkpt>
      <trkpt lat="39.9322690" lon="3.1279960">
        <ele>64.0</ele>
        <time>2021-06-19T09:56:03Z</time>
      </trkpt>
      <trkpt lat="39.9321600" lon="3.1286010">
        <ele>61.2</ele>
        <time>2021-06-19T09:56:08Z</time>
      </trkpt>
      <trkpt lat="39.9321450" lon="3.1287090">
        <ele>60.8</ele>
        <time>2021-06-19T09:56:09Z</time>
      </trkpt>
      <trkpt lat="39.9321410" lon="3.1288170">
        <ele>60.3</ele>
        <time>2021-06-19T09:56:10Z</time>
      </trkpt>
      <trkpt lat="39.9321920" lon="3.1290260">
        <ele>58.9</ele>
        <time>2021-06-19T09:56:12Z</time>
      </trkpt>
      <trkpt lat="39.9324970" lon="3.1296020">
        <ele>54.2</ele>
        <time>2021-06-19T09:56:18Z</time>
      </trkpt>
      <trkpt lat="39.9326460" lon="3.1299240">
        <ele>52.5</ele>
        <time>2021-06-19T09:56:21Z</time>
      </trkpt>
      <trkpt lat="39.9327310" lon="3.1301290">
        <ele>51.7</ele>
        <time>2021-06-19T09:56:23Z</time>
      </trkpt>
      <trkpt lat="39.9328420" lon="3.1303890">
        <ele>50.9</ele>
        <time>2021-06-19T09:56:26Z</time>
      </trkpt>
      <trkpt lat="39.9328820" lon="3.1304450">
        <ele>50.8</ele>
        <time>2021-06-19T09:56:27Z</time>
      </trkpt>
      <trkpt lat="39.9330690" lon="3.1306390">
        <ele>49.9</ele>
        <time>2021-06-19T09:56:31Z</time>
      </trkpt>
      <trkpt lat="39.9330990" lon="3.1307040">
        <ele>49.6</ele>
        <time>2021-06-19T09:56:32Z</time>
      </trkpt>
      <trkpt lat="39.9331110" lon="3.1307820">
        <ele>49.1</ele>
        <time>2021-06-19T09:56:33Z</time>
      </trkpt>
      <trkpt lat="39.9330950" lon="3.1308450">
        <ele>48.6</ele>
        <time>2021-06-19T09:56:34Z</time>
      </trkpt>
      <trkpt lat="39.9329810" lon="3.1308490">
        <ele>47.6</ele>
        <time>2021-06-19T09:56:36Z</time>
      </trkpt>
      <trkpt lat="39.9329170" lon="3.1307960">
        <ele>46.9</ele>
        <time>2021-06-19T09:56:37Z</time>
      </trkpt>
      <trkpt lat="39.9328000" lon="3.1306430">
        <ele>45.5</ele>
        <time>2021-06-19T09:56:39Z</time>
      </trkpt>
      <trkpt lat="39.9324500" lon="3.1301310">
        <ele>41.2</ele>
        <time>2021-06-19T09:56:45Z</time>
      </trkpt>
      <trkpt lat="39.9320590" lon="3.1297030">
        <ele>37.5</ele>
        <time>2021-06-19T09:56:50Z</time>
      </trkpt>
      <trkpt lat="39.9318180" lon="3.1294800">
        <ele>35.2</ele>
        <time>2021-06-19T09:56:53Z</time>
      </trkpt>
      <trkpt lat="39.9317270" lon="3.1294220">
        <ele>34.5</ele>
        <time>2021-06-19T09:56:54Z</time>
      </trkpt>
      <trkpt lat="39.9314560" lon="3.1292800">
        <ele>32.2</ele>
        <time>2021-06-19T09:56:57Z</time>
      </trkpt>
      <trkpt lat="39.9313570" lon="3.1292710">
        <ele>31.5</ele>
        <time>2021-06-19T09:56:58Z</time>
      </trkpt>
      <trkpt lat="39.9312530" lon="3.1292890">
        <ele>30.9</ele>
        <time>2021-06-19T09:56:59Z</time>
      </trkpt>
      <trkpt lat="39.9310600" lon="3.1294050">
        <ele>29.8</ele>
        <time>2021-06-19T09:57:01Z</time>
      </trkpt>
      <trkpt lat="39.9305900" lon="3.1297710">
        <ele>26.1</ele>
        <time>2021-06-19T09:57:06Z</time>
      </trkpt>
      <trkpt lat="39.9301150" lon="3.1301500">
        <ele>22.9</ele>
        <time>2021-06-19T09:57:11Z</time>
      </trkpt>
      <trkpt lat="39.9300290" lon="3.1302220">
        <ele>23.3</ele>
        <time>2021-06-19T09:57:12Z</time>
      </trkpt>
      <trkpt lat="39.9299480" lon="3.1303020">
        <ele>22.5</ele>
        <time>2021-06-19T09:57:13Z</time>
      </trkpt>
      <trkpt lat="39.9298210" lon="3.1305080">
        <ele>20.8</ele>
        <time>2021-06-19T09:57:15Z</time>
      </trkpt>
      <trkpt lat="39.9297090" lon="3.1309240">
        <ele>18.0</ele>
        <time>2021-06-19T09:57:18Z</time>
      </trkpt>
      <trkpt lat="39.9295490" lon="3.1317240">
        <ele>14.1</ele>
        <time>2021-06-19T09:57:24Z</time>
      </trkpt>
      <trkpt lat="39.9294500" lon="3.1322670">
        <ele>11.6</ele>
        <time>2021-06-19T09:57:29Z</time>
      </trkpt>
      <trkpt lat="39.9293810" lon="3.1326500">
        <ele>9.8</ele>
        <time>2021-06-19T09:57:33Z</time>
      </trkpt>
      <trkpt lat="39.9293530" lon="3.1327380">
        <ele>9.4</ele>
        <time>2021-06-19T09:57:34Z</time>
      </trkpt>
      <trkpt lat="39.9291940" lon="3.1332680">
        <ele>7.7</ele>
        <time>2021-06-19T09:57:40Z</time>
      </trkpt>
      <trkpt lat="39.9291270" lon="3.1334980">
        <ele>7.1</ele>
        <time>2021-06-19T09:57:43Z</time>
      </trkpt>
      <trkpt lat="39.9291370" lon="3.1336420">
        <ele>7.1</ele>
        <time>2021-06-19T09:57:45Z</time>
      </trkpt>
      <trkpt lat="39.9292230" lon="3.1337970">
        <ele>6.8</ele>
        <time>2021-06-19T09:57:49Z</time>
      </trkpt>
      <trkpt lat="39.9293170" lon="3.1338750">
        <ele>6.7</ele>
        <time>2021-06-19T09:57:54Z</time>
      </trkpt>
      <trkpt lat="39.9294140" lon="3.1338760">
        <ele>6.7</ele>
        <time>2021-06-19T09:57:58Z</time>
      </trkpt>
      <trkpt lat="39.9294400" lon="3.1338770">
        <ele>6.7</ele>
        <time>2021-06-19T09:57:59Z</time>
      </trkpt>
      <trkpt lat="39.9295650" lon="3.1339010">
        <ele>6.7</ele>
        <time>2021-06-19T09:58:06Z</time>
      </trkpt>
      <trkpt lat="39.9296900" lon="3.1339290">
        <ele>6.8</ele>
        <time>2021-06-19T09:58:11Z</time>
      </trkpt>
      <trkpt lat="39.9298940" lon="3.1340130">
        <ele>7.1</ele>
        <time>2021-06-19T09:58:17Z</time>
      </trkpt>
      <trkpt lat="39.9301740" lon="3.1341040">
        <ele>7.6</ele>
        <time>2021-06-19T09:58:25Z</time>
      </trkpt>
      <trkpt lat="39.9302930" lon="3.1341380">
        <ele>7.8</ele>
        <time>2021-06-19T09:58:29Z</time>
      </trkpt>
      <trkpt lat="39.9303540" lon="3.1341800">
        <ele>7.9</ele>
        <time>2021-06-19T09:58:31Z</time>
      </trkpt>
      <trkpt lat="39.9305210" lon="3.1342800">
        <ele>8.3</ele>
        <time>2021-06-19T09:58:36Z</time>
      </trkpt>
      <trkpt lat="39.9308490" lon="3.1344920">
        <ele>9.0</ele>
        <time>2021-06-19T09:58:44Z</time>
      </trkpt>
      <trkpt lat="39.9308910" lon="3.1345130">
        <ele>9.1</ele>
        <time>2021-06-19T09:58:45Z</time>
      </trkpt>
      <trkpt lat="39.9310910" lon="3.1346110">
        <ele>9.7</ele>
        <time>2021-06-19T09:58:50Z</time>
      </trkpt>
      <trkpt lat="39.9312100" lon="3.1346790">
        <ele>10.1</ele>
        <time>2021-06-19T09:58:53Z</time>
      </trkpt>
      <trkpt lat="39.9313170" lon="3.1347350">
        <ele>10.4</ele>
        <time>2021-06-19T09:58:56Z</time>
      </trkpt>
      <trkpt lat="39.9314970" lon="3.1348340">
        <ele>11.0</ele>
        <time>2021-06-19T09:59:01Z</time>
      </trkpt>
      <trkpt lat="39.9316390" lon="3.1349200">
        <ele>11.5</ele>
        <time>2021-06-19T09:59:05Z</time>
      </trkpt>
      <trkpt lat="39.9317500" lon="3.1349770">
        <ele>11.9</ele>
        <time>2021-06-19T09:59:08Z</time>
      </trkpt>
      <trkpt lat="39.9321160" lon="3.1351570">
        <ele>13.4</ele>
        <time>2021-06-19T09:59:18Z</time>
      </trkpt>
      <trkpt lat="39.9323240" lon="3.1352530">
        <ele>14.3</ele>
        <time>2021-06-19T09:59:25Z</time>
      </trkpt>
      <trkpt lat="39.9323490" lon="3.1352630">
        <ele>14.5</ele>
        <time>2021-06-19T09:59:29Z</time>
      </trkpt>
      <trkpt lat="39.9323540" lon="3.1352650">
        <ele>14.5</ele>
        <time>2021-06-19T09:59:35Z</time>
      </trkpt>
      <trkpt lat="39.9323540" lon="3.1352650">
        <ele>14.5</ele>
        <time>2021-06-19T09:59:37Z</time>
      </trkpt>
      <trkpt lat="39.9323540" lon="3.1352650">
        <ele>14.5</ele>
        <time>2021-06-19T09:59:43Z</time>
      </trkpt>
      <trkpt lat="39.9323540" lon="3.1352650">
        <ele>14.5</ele>
        <time>2021-06-19T09:59:54Z</time>
      </trkpt>
      <trkpt lat="39.9323540" lon="3.1352650">
        <ele>14.5</ele>
        <time>2021-06-19T09:59:57Z</time>
      </trkpt>
      <trkpt lat="39.9323540" lon="3.1352650">
        <ele>14.5</ele>
        <time>2021-06-19T09:59:59Z</time>
      </trkpt>
      <trkpt lat="39.9323540" lon="3.1352650">
        <ele>14.5</ele>
        <time>2021-06-19T10:00:01Z</time>
      </trkpt>
      <trkpt lat="39.9323540" lon="3.1352650">
        <ele>14.5</ele>
        <time>2021-06-19T10:00:02Z</time>
      </trkpt>
      <trkpt lat="39.9323540" lon="3.1352650">
        <ele>14.5</ele>
        <time>2021-06-19T10:00:07Z</time>
      </trkpt>
      <trkpt lat="39.9323540" lon="3.1352650">
        <ele>14.5</ele>
        <time>2021-06-19T10:00:11Z</time>
      </trkpt>
      <trkpt lat="39.9323540" lon="3.1352650">
        <ele>14.5</ele>
        <time>2021-06-19T10:00:16Z</time>
      </trkpt>
      <trkpt lat="39.9323540" lon="3.1352650">
        <ele>14.5</ele>
        <time>2021-06-19T10:00:22Z</time>
      </trkpt>
      <trkpt lat="39.9323540" lon="3.1352650">
        <ele>14.5</ele>
        <time>2021-06-19T10:00:25Z</time>
      </trkpt>
      <trkpt lat="39.9323540" lon="3.1352650">
        <ele>14.5</ele>
        <time>2021-06-19T10:00:28Z</time>
      </trkpt>
      <trkpt lat="39.9323540" lon="3.1352650">
        <ele>14.5</ele>
        <time>2021-06-19T10:00:30Z</time>
      </trkpt>
      <trkpt lat="39.9323540" lon="3.1352650">
        <ele>14.5</ele>
        <time>2021-06-19T10:00:32Z</time>
      </trkpt>
      <trkpt lat="39.9323540" lon="3.1352650">
        <ele>14.5</ele>
        <time>2021-06-19T10:00:44Z</time>
      </trkpt>
      <trkpt lat="39.9323540" lon="3.1352650">
        <ele>14.5</ele>
        <time>2021-06-19T10:00:46Z</time>
      </trkpt>
      <trkpt lat="39.9323540" lon="3.1352650">
        <ele>14.5</ele>
        <time>2021-06-19T10:00:55Z</time>
      </trkpt>
      <trkpt lat="39.9323540" lon="3.1352650">
        <ele>14.5</ele>
        <time>2021-06-19T10:01:15Z</time>
      </trkpt>
      <trkpt lat="39.9323320" lon="3.1352720">
        <ele>14.6</ele>
        <time>2021-06-19T10:01:34Z</time>
      </trkpt>
      <trkpt lat="39.9323310" lon="3.1352730">
        <ele>14.6</ele>
        <time>2021-06-19T10:01:36Z</time>
      </trkpt>
      <trkpt lat="39.9323300" lon="3.1352730">
        <ele>14.6</ele>
        <time>2021-06-19T10:01:41Z</time>
      </trkpt>
      <trkpt lat="39.9323300" lon="3.1352730">
        <ele>14.6</ele>
        <time>2021-06-19T10:01:44Z</time>
      </trkpt>
      <trkpt lat="39.9323300" lon="3.1352730">
        <ele>14.6</ele>
        <time>2021-06-19T10:01:50Z</time>
      </trkpt>
      <trkpt lat="39.9323300" lon="3.1352730">
        <ele>14.6</ele>
        <time>2021-06-19T10:01:52Z</time>
      </trkpt>
      <trkpt lat="39.9323300" lon="3.1352730">
        <ele>14.6</ele>
        <time>2021-06-19T10:02:01Z</time>
      </trkpt>
      <trkpt lat="39.9323300" lon="3.1352730">
        <ele>14.6</ele>
        <time>2021-06-19T10:02:03Z</time>
      </trkpt>
      <trkpt lat="39.9323300" lon="3.1352730">
        <ele>14.6</ele>
        <time>2021-06-19T10:02:05Z</time>
      </trkpt>
      <trkpt lat="39.9323300" lon="3.1352730">
        <ele>14.6</ele>
        <time>2021-06-19T10:02:10Z</time>
      </trkpt>
      <trkpt lat="39.9323300" lon="3.1352730">
        <ele>14.6</ele>
        <time>2021-06-19T10:02:12Z</time>
      </trkpt>
      <trkpt lat="39.9323310" lon="3.1352730">
        <ele>14.6</ele>
        <time>2021-06-19T10:02:27Z</time>
      </trkpt>
      <trkpt lat="39.9323330" lon="3.1352700">
        <ele>14.6</ele>
        <time>2021-06-19T10:02:31Z</time>
      </trkpt>
      <trkpt lat="39.9323360" lon="3.1352640">
        <ele>14.6</ele>
        <time>2021-06-19T10:02:40Z</time>
      </trkpt>
      <trkpt lat="39.9323370" lon="3.1352630">
        <ele>14.6</ele>
        <time>2021-06-19T10:02:42Z</time>
      </trkpt>
      <trkpt lat="39.9323370" lon="3.1352630">
        <ele>14.6</ele>
        <time>2021-06-19T10:02:46Z</time>
      </trkpt>
      <trkpt lat="39.9323370" lon="3.1352630">
        <ele>14.6</ele>
        <time>2021-06-19T10:02:48Z</time>
      </trkpt>
      <trkpt lat="39.9323370" lon="3.1352620">
        <ele>14.6</ele>
        <time>2021-06-19T10:02:51Z</time>
      </trkpt>
      <trkpt lat="39.9323370" lon="3.1352620">
        <ele>14.6</ele>
        <time>2021-06-19T10:02:54Z</time>
      </trkpt>
      <trkpt lat="39.9323370" lon="3.1352620">
        <ele>14.6</ele>
        <time>2021-06-19T10:03:14Z</time>
      </trkpt>
      <trkpt lat="39.9323370" lon="3.1352620">
        <ele>14.6</ele>
        <time>2021-06-19T10:03:27Z</time>
      </trkpt>
      <trkpt lat="39.9323370" lon="3.1352620">
        <ele>14.6</ele>
        <time>2021-06-19T10:03:46Z</time>
      </trkpt>
      <trkpt lat="39.9323370" lon="3.1352620">
        <ele>14.6</ele>
        <time>2021-06-19T10:03:49Z</time>
      </trkpt>
      <trkpt lat="39.9323370" lon="3.1352620">
        <ele>14.6</ele>
        <time>2021-06-19T10:03:50Z</time>
      </trkpt>
      <trkpt lat="39.9323370" lon="3.1352620">
        <ele>14.6</ele>
        <time>2021-06-19T10:03:52Z</time>
      </trkpt>
      <trkpt lat="39.9323370" lon="3.1352620">
        <ele>14.6</ele>
        <time>2021-06-19T10:04:06Z</time>
      </trkpt>
      <trkpt lat="39.9323380" lon="3.1352640">
        <ele>14.7</ele>
        <time>2021-06-19T10:04:12Z</time>
      </trkpt>
      <trkpt lat="39.9323380" lon="3.1352640">
        <ele>14.7</ele>
        <time>2021-06-19T10:04:17Z</time>
      </trkpt>
      <trkpt lat="39.9323380" lon="3.1352640">
        <ele>14.7</ele>
        <time>2021-06-19T10:04:23Z</time>
      </trkpt>
      <trkpt lat="39.9323400" lon="3.1352810">
        <ele>14.7</ele>
        <time>2021-06-19T10:04:31Z</time>
      </trkpt>
      <trkpt lat="39.9323400" lon="3.1352810">
        <ele>14.7</ele>
        <time>2021-06-19T10:04:35Z</time>
      </trkpt>
      <trkpt lat="39.9323450" lon="3.1352870">
        <ele>14.8</ele>
        <time>2021-06-19T10:04:52Z</time>
      </trkpt>
      <trkpt lat="39.9323450" lon="3.1352870">
        <ele>14.8</ele>
        <time>2021-06-19T10:04:54Z</time>
      </trkpt>
      <trkpt lat="39.9323450" lon="3.1352870">
        <ele>14.8</ele>
        <time>2021-06-19T10:05:10Z</time>
      </trkpt>
      <trkpt lat="39.9323550" lon="3.1352840">
        <ele>14.8</ele>
        <time>2021-06-19T10:05:27Z</time>
      </trkpt>
      <trkpt lat="39.9323550" lon="3.1352840">
        <ele>14.8</ele>
        <time>2021-06-19T10:05:29Z</time>
      </trkpt>
      <trkpt lat="39.9324010" lon="3.1352780">
        <ele>15.0</ele>
        <time>2021-06-19T10:05:35Z</time>
      </trkpt>
      <trkpt lat="39.9324220" lon="3.1352820">
        <ele>15.1</ele>
        <time>2021-06-19T10:05:36Z</time>
      </trkpt>
      <trkpt lat="39.9325120" lon="3.1353560">
        <ele>15.6</ele>
        <time>2021-06-19T10:05:41Z</time>
      </trkpt>
      <trkpt lat="39.9326350" lon="3.1353750">
        <ele>16.2</ele>
        <time>2021-06-19T10:05:47Z</time>
      </trkpt>
      <trkpt lat="39.9327620" lon="3.1354450">
        <ele>16.8</ele>
        <time>2021-06-19T10:05:54Z</time>
      </trkpt>
      <trkpt lat="39.9329080" lon="3.1355740">
        <ele>17.6</ele>
        <time>2021-06-19T10:06:02Z</time>
      </trkpt>
      <trkpt lat="39.9330310" lon="3.1356350">
        <ele>18.2</ele>
        <time>2021-06-19T10:06:07Z</time>
      </trkpt>
      <trkpt lat="39.9330570" lon="3.1356510">
        <ele>18.3</ele>
        <time>2021-06-19T10:06:08Z</time>
      </trkpt>
      <trkpt lat="39.9331130" lon="3.1356830">
        <ele>18.6</ele>
        <time>2021-06-19T10:06:10Z</time>
      </trkpt>
      <trkpt lat="39.9331970" lon="3.1357670">
        <ele>19.0</ele>
        <time>2021-06-19T10:06:14Z</time>
      </trkpt>
      <trkpt lat="39.9332920" lon="3.1358800">
        <ele>19.5</ele>
        <time>2021-06-19T10:06:19Z</time>
      </trkpt>
      <trkpt lat="39.9333460" lon="3.1359790">
        <ele>19.8</ele>
        <time>2021-06-19T10:06:22Z</time>
      </trkpt>
      <trkpt lat="39.9333740" lon="3.1360410">
        <ele>20.0</ele>
        <time>2021-06-19T10:06:24Z</time>
      </trkpt>
      <trkpt lat="39.9333920" lon="3.1361470">
        <ele>20.3</ele>
        <time>2021-06-19T10:06:27Z</time>
      </trkpt>
      <trkpt lat="39.9334030" lon="3.1362960">
        <ele>20.7</ele>
        <time>2021-06-19T10:06:32Z</time>
      </trkpt>
      <trkpt lat="39.9334080" lon="3.1364950">
        <ele>21.2</ele>
        <time>2021-06-19T10:06:37Z</time>
      </trkpt>
      <trkpt lat="39.9334150" lon="3.1366890">
        <ele>21.8</ele>
        <time>2021-06-19T10:06:42Z</time>
      </trkpt>
      <trkpt lat="39.9334190" lon="3.1368920">
        <ele>22.5</ele>
        <time>2021-06-19T10:06:47Z</time>
      </trkpt>
      <trkpt lat="39.9334230" lon="3.1369700">
        <ele>22.8</ele>
        <time>2021-06-19T10:06:49Z</time>
      </trkpt>
      <trkpt lat="39.9334230" lon="3.1370070">
        <ele>22.9</ele>
        <time>2021-06-19T10:06:50Z</time>
      </trkpt>
      <trkpt lat="39.9334230" lon="3.1370840">
        <ele>23.2</ele>
        <time>2021-06-19T10:06:52Z</time>
      </trkpt>
      <trkpt lat="39.9334430" lon="3.1372590">
        <ele>24.0</ele>
        <time>2021-06-19T10:06:57Z</time>
      </trkpt>
      <trkpt lat="39.9334820" lon="3.1374610">
        <ele>25.1</ele>
        <time>2021-06-19T10:07:03Z</time>
      </trkpt>
      <trkpt lat="39.9336170" lon="3.1377480">
        <ele>26.9</ele>
        <time>2021-06-19T10:07:12Z</time>
      </trkpt>
      <trkpt lat="39.9337550" lon="3.1379600">
        <ele>28.4</ele>
        <time>2021-06-19T10:07:20Z</time>
      </trkpt>
      <trkpt lat="39.9338200" lon="3.1380700">
        <ele>29.2</ele>
        <time>2021-06-19T10:07:24Z</time>
      </trkpt>
      <trkpt lat="39.9338370" lon="3.1380970">
        <ele>29.4</ele>
        <time>2021-06-19T10:07:25Z</time>
      </trkpt>
      <trkpt lat="39.9338550" lon="3.1381260">
        <ele>29.6</ele>
        <time>2021-06-19T10:07:26Z</time>
      </trkpt>
      <trkpt lat="39.9339670" lon="3.1383100">
        <ele>31.0</ele>
        <time>2021-06-19T10:07:33Z</time>
      </trkpt>
      <trkpt lat="39.9339830" lon="3.1383360">
        <ele>31.2</ele>
        <time>2021-06-19T10:07:34Z</time>
      </trkpt>
      <trkpt lat="39.9340650" lon="3.1384750">
        <ele>32.3</ele>
        <time>2021-06-19T10:07:39Z</time>
      </trkpt>
      <trkpt lat="39.9341310" lon="3.1385720">
        <ele>33.1</ele>
        <time>2021-06-19T10:07:43Z</time>
      </trkpt>
      <trkpt lat="39.9342750" lon="3.1388080">
        <ele>35.0</ele>
        <time>2021-06-19T10:07:52Z</time>
      </trkpt>
      <trkpt lat="39.9343990" lon="3.1390140">
        <ele>36.5</ele>
        <time>2021-06-19T10:07:59Z</time>
      </trkpt>
      <trkpt lat="39.9345360" lon="3.1392530">
        <ele>37.5</ele>
        <time>2021-06-19T10:08:07Z</time>
      </trkpt>
      <trkpt lat="39.9346360" lon="3.1394170">
        <ele>37.7</ele>
        <time>2021-06-19T10:08:11Z</time>
      </trkpt>
      <trkpt lat="39.9346610" lon="3.1394560">
        <ele>37.7</ele>
        <time>2021-06-19T10:08:12Z</time>
      </trkpt>
      <trkpt lat="39.9347030" lon="3.1395270">
        <ele>37.8</ele>
        <time>2021-06-19T10:08:14Z</time>
      </trkpt>
      <trkpt lat="39.9347820" lon="3.1396750">
        <ele>37.9</ele>
        <time>2021-06-19T10:08:18Z</time>
      </trkpt>
      <trkpt lat="39.9348070" lon="3.1397230">
        <ele>38.0</ele>
        <time>2021-06-19T10:08:19Z</time>
      </trkpt>
      <trkpt lat="39.9348650" lon="3.1398540">
        <ele>38.2</ele>
        <time>2021-06-19T10:08:22Z</time>
      </trkpt>
      <trkpt lat="39.9349350" lon="3.1400290">
        <ele>38.4</ele>
        <time>2021-06-19T10:08:26Z</time>
      </trkpt>
      <trkpt lat="39.9349900" lon="3.1402120">
        <ele>38.6</ele>
        <time>2021-06-19T10:08:30Z</time>
      </trkpt>
      <trkpt lat="39.9350050" lon="3.1402560">
        <ele>38.7</ele>
        <time>2021-06-19T10:08:31Z</time>
      </trkpt>
      <trkpt lat="39.9350550" lon="3.1403910">
        <ele>39.0</ele>
        <time>2021-06-19T10:08:34Z</time>
      </trkpt>
      <trkpt lat="39.9350910" lon="3.1404850">
        <ele>39.2</ele>
        <time>2021-06-19T10:08:36Z</time>
      </trkpt>
      <trkpt lat="39.9352050" lon="3.1407570">
        <ele>40.1</ele>
        <time>2021-06-19T10:08:42Z</time>
      </trkpt>
      <trkpt lat="39.9354140" lon="3.1410150">
        <ele>41.4</ele>
        <time>2021-06-19T10:08:50Z</time>
      </trkpt>
      <trkpt lat="39.9355620" lon="3.1411550">
        <ele>42.1</ele>
        <time>2021-06-19T10:08:55Z</time>
      </trkpt>
      <trkpt lat="39.9356820" lon="3.1412800">
        <ele>42.6</ele>
        <time>2021-06-19T10:08:59Z</time>
      </trkpt>
      <trkpt lat="39.9358710" lon="3.1414790">
        <ele>43.1</ele>
        <time>2021-06-19T10:09:05Z</time>
      </trkpt>
      <trkpt lat="39.9360390" lon="3.1416630">
        <ele>43.2</ele>
        <time>2021-06-19T10:09:10Z</time>
      </trkpt>
      <trkpt lat="39.9361700" lon="3.1417980">
        <ele>43.3</ele>
        <time>2021-06-19T10:09:14Z</time>
      </trkpt>
      <trkpt lat="39.9363520" lon="3.1419860">
        <ele>43.4</ele>
        <time>2021-06-19T10:09:19Z</time>
      </trkpt>
      <trkpt lat="39.9364110" lon="3.1420500">
        <ele>43.4</ele>
        <time>2021-06-19T10:09:21Z</time>
      </trkpt>
      <trkpt lat="39.9365550" lon="3.1421810">
        <ele>43.6</ele>
        <time>2021-06-19T10:09:25Z</time>
      </trkpt>
      <trkpt lat="39.9368440" lon="3.1424650">
        <ele>44.2</ele>
        <time>2021-06-19T10:09:33Z</time>
      </trkpt>
      <trkpt lat="39.9369200" lon="3.1425410">
        <ele>44.5</ele>
        <time>2021-06-19T10:09:35Z</time>
      </trkpt>
      <trkpt lat="39.9371750" lon="3.1428010">
        <ele>45.6</ele>
        <time>2021-06-19T10:09:43Z</time>
      </trkpt>
      <trkpt lat="39.9371970" lon="3.1428350">
        <ele>45.7</ele>
        <time>2021-06-19T10:09:44Z</time>
      </trkpt>
      <trkpt lat="39.9375380" lon="3.1431490">
        <ele>47.5</ele>
        <time>2021-06-19T10:09:54Z</time>
      </trkpt>
      <trkpt lat="39.9376260" lon="3.1432470">
        <ele>48.2</ele>
        <time>2021-06-19T10:09:57Z</time>
      </trkpt>
      <trkpt lat="39.9376770" lon="3.1433040">
        <ele>48.6</ele>
        <time>2021-06-19T10:09:59Z</time>
      </trkpt>
      <trkpt lat="39.9378850" lon="3.1435110">
        <ele>50.2</ele>
        <time>2021-06-19T10:10:06Z</time>
      </trkpt>
      <trkpt lat="39.9379700" lon="3.1436030">
        <ele>51.0</ele>
        <time>2021-06-19T10:10:09Z</time>
      </trkpt>
      <trkpt lat="39.9381400" lon="3.1437820">
        <ele>52.5</ele>
        <time>2021-06-19T10:10:15Z</time>
      </trkpt>
      <trkpt lat="39.9383490" lon="3.1440120">
        <ele>54.1</ele>
        <time>2021-06-19T10:10:22Z</time>
      </trkpt>
      <trkpt lat="39.9385310" lon="3.1442460">
        <ele>55.4</ele>
        <time>2021-06-19T10:10:29Z</time>
      </trkpt>
      <trkpt lat="39.9385510" lon="3.1442820">
        <ele>55.6</ele>
        <time>2021-06-19T10:10:30Z</time>
      </trkpt>
      <trkpt lat="39.9387320" lon="3.1445860">
        <ele>56.5</ele>
        <time>2021-06-19T10:10:38Z</time>
      </trkpt>
      <trkpt lat="39.9387800" lon="3.1446650">
        <ele>56.7</ele>
        <time>2021-06-19T10:10:40Z</time>
      </trkpt>
      <trkpt lat="39.9390020" lon="3.1450340">
        <ele>56.7</ele>
        <time>2021-06-19T10:10:49Z</time>
      </trkpt>
      <trkpt lat="39.9391610" lon="3.1453180">
        <ele>56.2</ele>
        <time>2021-06-19T10:10:56Z</time>
      </trkpt>
      <trkpt lat="39.9392270" lon="3.1454370">
        <ele>56.0</ele>
        <time>2021-06-19T10:10:58Z</time>
      </trkpt>
      <trkpt lat="39.9393330" lon="3.1456090">
        <ele>55.9</ele>
        <time>2021-06-19T10:11:01Z</time>
      </trkpt>
      <trkpt lat="39.9394400" lon="3.1457960">
        <ele>56.0</ele>
        <time>2021-06-19T10:11:04Z</time>
      </trkpt>
      <trkpt lat="39.9395510" lon="3.1459790">
        <ele>56.4</ele>
        <time>2021-06-19T10:11:07Z</time>
      </trkpt>
      <trkpt lat="39.9397770" lon="3.1463720">
        <ele>57.0</ele>
        <time>2021-06-19T10:11:14Z</time>
      </trkpt>
      <trkpt lat="39.9400060" lon="3.1467590">
        <ele>57.4</ele>
        <time>2021-06-19T10:11:21Z</time>
      </trkpt>
      <trkpt lat="39.9401670" lon="3.1470540">
        <ele>57.9</ele>
        <time>2021-06-19T10:11:26Z</time>
      </trkpt>
      <trkpt lat="39.9402030" lon="3.1471130">
        <ele>57.9</ele>
        <time>2021-06-19T10:11:27Z</time>
      </trkpt>
      <trkpt lat="39.9405230" lon="3.1476580">
        <ele>58.5</ele>
        <time>2021-06-19T10:11:36Z</time>
      </trkpt>
      <trkpt lat="39.9407640" lon="3.1480900">
        <ele>59.0</ele>
        <time>2021-06-19T10:11:43Z</time>
      </trkpt>
      <trkpt lat="39.9409990" lon="3.1485350">
        <ele>59.3</ele>
        <time>2021-06-19T10:11:50Z</time>
      </trkpt>
      <trkpt lat="39.9412200" lon="3.1489310">
        <ele>59.6</ele>
        <time>2021-06-19T10:11:56Z</time>
      </trkpt>
      <trkpt lat="39.9415440" lon="3.1495040">
        <ele>61.2</ele>
        <time>2021-06-19T10:12:05Z</time>
      </trkpt>
      <trkpt lat="39.9415800" lon="3.1495600">
        <ele>61.4</ele>
        <time>2021-06-19T10:12:06Z</time>
      </trkpt>
      <trkpt lat="39.9417500" lon="3.1498190">
        <ele>62.6</ele>
        <time>2021-06-19T10:12:11Z</time>
      </trkpt>
      <trkpt lat="39.9419240" lon="3.1501230">
        <ele>63.9</ele>
        <time>2021-06-19T10:12:17Z</time>
      </trkpt>
      <trkpt lat="39.9420990" lon="3.1504340">
        <ele>65.1</ele>
        <time>2021-06-19T10:12:23Z</time>
      </trkpt>
      <trkpt lat="39.9421630" lon="3.1505390">
        <ele>65.5</ele>
        <time>2021-06-19T10:12:25Z</time>
      </trkpt>
      <trkpt lat="39.9422740" lon="3.1507390">
        <ele>66.1</ele>
        <time>2021-06-19T10:12:29Z</time>
      </trkpt>
      <trkpt lat="39.9423300" lon="3.1508330">
        <ele>66.4</ele>
        <time>2021-06-19T10:12:31Z</time>
      </trkpt>
      <trkpt lat="39.9425310" lon="3.1511980">
        <ele>67.1</ele>
        <time>2021-06-19T10:12:38Z</time>
      </trkpt>
      <trkpt lat="39.9427130" lon="3.1515360">
        <ele>67.6</ele>
        <time>2021-06-19T10:12:44Z</time>
      </trkpt>
      <trkpt lat="39.9427830" lon="3.1516590">
        <ele>67.6</ele>
        <time>2021-06-19T10:12:46Z</time>
      </trkpt>
      <trkpt lat="39.9430340" lon="3.1520940">
        <ele>67.7</ele>
        <time>2021-06-19T10:12:53Z</time>
      </trkpt>
      <trkpt lat="39.9433370" lon="3.1526490">
        <ele>68.3</ele>
        <time>2021-06-19T10:13:02Z</time>
      </trkpt>
      <trkpt lat="39.9436330" lon="3.1531970">
        <ele>69.2</ele>
        <time>2021-06-19T10:13:11Z</time>
      </trkpt>
      <trkpt lat="39.9436660" lon="3.1532560">
        <ele>69.4</ele>
        <time>2021-06-19T10:13:12Z</time>
      </trkpt>
      <trkpt lat="39.9438250" lon="3.1535360">
        <ele>70.0</ele>
        <time>2021-06-19T10:13:17Z</time>
      </trkpt>
      <trkpt lat="39.9438880" lon="3.1536340">
        <ele>70.2</ele>
        <time>2021-06-19T10:13:19Z</time>
      </trkpt>
      <trkpt lat="39.9439290" lon="3.1537100">
        <ele>70.5</ele>
        <time>2021-06-19T10:13:20Z</time>
      </trkpt>
      <trkpt lat="39.9440030" lon="3.1538740">
        <ele>70.9</ele>
        <time>2021-06-19T10:13:23Z</time>
      </trkpt>
      <trkpt lat="39.9440320" lon="3.1539310">
        <ele>71.1</ele>
        <time>2021-06-19T10:13:24Z</time>
      </trkpt>
      <trkpt lat="39.9441190" lon="3.1540840">
        <ele>71.6</ele>
        <time>2021-06-19T10:13:27Z</time>
      </trkpt>
      <trkpt lat="39.9441750" lon="3.1541910">
        <ele>72.0</ele>
        <time>2021-06-19T10:13:29Z</time>
      </trkpt>
      <trkpt lat="39.9442080" lon="3.1542410">
        <ele>72.2</ele>
        <time>2021-06-19T10:13:30Z</time>
      </trkpt>
      <trkpt lat="39.9442850" lon="3.1543690">
        <ele>72.5</ele>
        <time>2021-06-19T10:13:32Z</time>
      </trkpt>
      <trkpt lat="39.9443490" lon="3.1544810">
        <ele>72.8</ele>
        <time>2021-06-19T10:13:34Z</time>
      </trkpt>
      <trkpt lat="39.9444110" lon="3.1545880">
        <ele>73.0</ele>
        <time>2021-06-19T10:13:36Z</time>
      </trkpt>
      <trkpt lat="39.9444410" lon="3.1546400">
        <ele>73.1</ele>
        <time>2021-06-19T10:13:37Z</time>
      </trkpt>
      <trkpt lat="39.9445000" lon="3.1547430">
        <ele>73.3</ele>
        <time>2021-06-19T10:13:39Z</time>
      </trkpt>
      <trkpt lat="39.9445240" lon="3.1547920">
        <ele>73.4</ele>
        <time>2021-06-19T10:13:40Z</time>
      </trkpt>
      <trkpt lat="39.9447050" lon="3.1551140">
        <ele>74.0</ele>
        <time>2021-06-19T10:13:46Z</time>
      </trkpt>
      <trkpt lat="39.9447750" lon="3.1552300">
        <ele>74.2</ele>
        <time>2021-06-19T10:13:48Z</time>
      </trkpt>
      <trkpt lat="39.9449960" lon="3.1555690">
        <ele>74.6</ele>
        <time>2021-06-19T10:13:54Z</time>
      </trkpt>
      <trkpt lat="39.9451870" lon="3.1559190">
        <ele>74.6</ele>
        <time>2021-06-19T10:14:00Z</time>
      </trkpt>
      <trkpt lat="39.9452190" lon="3.1559740">
        <ele>74.5</ele>
        <time>2021-06-19T10:14:01Z</time>
      </trkpt>
      <trkpt lat="39.9454420" lon="3.1564000">
        <ele>74.3</ele>
        <time>2021-06-19T10:14:09Z</time>
      </trkpt>
      <trkpt lat="39.9455970" lon="3.1566750">
        <ele>74.2</ele>
        <time>2021-06-19T10:14:14Z</time>
      </trkpt>
      <trkpt lat="39.9456630" lon="3.1567770">
        <ele>74.2</ele>
        <time>2021-06-19T10:14:16Z</time>
      </trkpt>
      <trkpt lat="39.9456950" lon="3.1568370">
        <ele>74.2</ele>
        <time>2021-06-19T10:14:17Z</time>
      </trkpt>
      <trkpt lat="39.9459560" lon="3.1572900">
        <ele>74.6</ele>
        <time>2021-06-19T10:14:25Z</time>
      </trkpt>
      <trkpt lat="39.9461420" lon="3.1576170">
        <ele>75.2</ele>
        <time>2021-06-19T10:14:31Z</time>
      </trkpt>
      <trkpt lat="39.9463520" lon="3.1580350">
        <ele>76.0</ele>
        <time>2021-06-19T10:14:39Z</time>
      </trkpt>
      <trkpt lat="39.9464410" lon="3.1581890">
        <ele>76.4</ele>
        <time>2021-06-19T10:14:42Z</time>
      </trkpt>
      <trkpt lat="39.9465200" lon="3.1583250">
        <ele>76.9</ele>
        <time>2021-06-19T10:14:45Z</time>
      </trkpt>
      <trkpt lat="39.9466490" lon="3.1585650">
        <ele>78.0</ele>
        <time>2021-06-19T10:14:51Z</time>
      </trkpt>
      <trkpt lat="39.9467500" lon="3.1587290">
        <ele>78.9</ele>
        <time>2021-06-19T10:14:55Z</time>
      </trkpt>
      <trkpt lat="39.9467730" lon="3.1587720">
        <ele>79.1</ele>
        <time>2021-06-19T10:14:56Z</time>
      </trkpt>
      <trkpt lat="39.9468750" lon="3.1589560">
        <ele>80.1</ele>
        <time>2021-06-19T10:15:01Z</time>
      </trkpt>
      <trkpt lat="39.9469280" lon="3.1590330">
        <ele>80.5</ele>
        <time>2021-06-19T10:15:03Z</time>
      </trkpt>
      <trkpt lat="39.9469710" lon="3.1591020">
        <ele>80.9</ele>
        <time>2021-06-19T10:15:05Z</time>
      </trkpt>
      <trkpt lat="39.9471390" lon="3.1593860">
        <ele>82.4</ele>
        <time>2021-06-19T10:15:12Z</time>
      </trkpt>
      <trkpt lat="39.9473060" lon="3.1596950">
        <ele>83.8</ele>
        <time>2021-06-19T10:15:20Z</time>
      </trkpt>
      <trkpt lat="39.9474020" lon="3.1598810">
        <ele>84.5</ele>
        <time>2021-06-19T10:15:25Z</time>
      </trkpt>
      <trkpt lat="39.9474960" lon="3.1600430">
        <ele>85.0</ele>
        <time>2021-06-19T10:15:29Z</time>
      </trkpt>
      <trkpt lat="39.9476060" lon="3.1603020">
        <ele>85.8</ele>
        <time>2021-06-19T10:15:35Z</time>
      </trkpt>
      <trkpt lat="39.9476710" lon="3.1605730">
        <ele>86.4</ele>
        <time>2021-06-19T10:15:41Z</time>
      </trkpt>
      <trkpt lat="39.9476940" lon="3.1609310">
        <ele>87.2</ele>
        <time>2021-06-19T10:15:48Z</time>
      </trkpt>
      <trkpt lat="39.9476530" lon="3.1612950">
        <ele>87.9</ele>
        <time>2021-06-19T10:15:55Z</time>
      </trkpt>
      <trkpt lat="39.9475750" lon="3.1616900">
        <ele>88.7</ele>
        <time>2021-06-19T10:16:03Z</time>
      </trkpt>
      <trkpt lat="39.9475260" lon="3.1620330">
        <ele>90.1</ele>
        <time>2021-06-19T10:16:10Z</time>
      </trkpt>
      <trkpt lat="39.9475390" lon="3.1622240">
        <ele>91.0</ele>
        <time>2021-06-19T10:16:14Z</time>
      </trkpt>
      <trkpt lat="39.9475560" lon="3.1622660">
        <ele>91.3</ele>
        <time>2021-06-19T10:16:15Z</time>
      </trkpt>
      <trkpt lat="39.9476640" lon="3.1624460">
        <ele>92.3</ele>
        <time>2021-06-19T10:16:20Z</time>
      </trkpt>
      <trkpt lat="39.9477510" lon="3.1625570">
        <ele>93.1</ele>
        <time>2021-06-19T10:16:24Z</time>
      </trkpt>
      <trkpt lat="39.9479230" lon="3.1627290">
        <ele>94.7</ele>
        <time>2021-06-19T10:16:29Z</time>
      </trkpt>
      <trkpt lat="39.9480890" lon="3.1628770">
        <ele>96.3</ele>
        <time>2021-06-19T10:16:35Z</time>
      </trkpt>
      <trkpt lat="39.9482190" lon="3.1630260">
        <ele>97.5</ele>
        <time>2021-06-19T10:16:41Z</time>
      </trkpt>
      <trkpt lat="39.9482410" lon="3.1630500">
        <ele>97.7</ele>
        <time>2021-06-19T10:16:42Z</time>
      </trkpt>
      <trkpt lat="39.9483770" lon="3.1632690">
        <ele>98.6</ele>
        <time>2021-06-19T10:16:49Z</time>
      </trkpt>
      <trkpt lat="39.9483930" lon="3.1633060">
        <ele>98.6</ele>
        <time>2021-06-19T10:16:50Z</time>
      </trkpt>
      <trkpt lat="39.9484240" lon="3.1634950">
        <ele>98.5</ele>
        <time>2021-06-19T10:16:54Z</time>
      </trkpt>
      <trkpt lat="39.9484700" lon="3.1637980">
        <ele>98.0</ele>
        <time>2021-06-19T10:16:59Z</time>
      </trkpt>
      <trkpt lat="39.9485140" lon="3.1640710">
        <ele>97.6</ele>
        <time>2021-06-19T10:17:03Z</time>
      </trkpt>
      <trkpt lat="39.9485410" lon="3.1642090">
        <ele>97.3</ele>
        <time>2021-06-19T10:17:05Z</time>
      </trkpt>
      <trkpt lat="39.9486060" lon="3.1645760">
        <ele>95.8</ele>
        <time>2021-06-19T10:17:10Z</time>
      </trkpt>
      <trkpt lat="39.9486440" lon="3.1647410">
        <ele>95.0</ele>
        <time>2021-06-19T10:17:12Z</time>
      </trkpt>
      <trkpt lat="39.9486620" lon="3.1648280">
        <ele>94.5</ele>
        <time>2021-06-19T10:17:13Z</time>
      </trkpt>
      <trkpt lat="39.9486950" lon="3.1650090">
        <ele>93.6</ele>
        <time>2021-06-19T10:17:15Z</time>
      </trkpt>
      <trkpt lat="39.9487180" lon="3.1651050">
        <ele>93.1</ele>
        <time>2021-06-19T10:17:16Z</time>
      </trkpt>
      <trkpt lat="39.9487420" lon="3.1652080">
        <ele>92.6</ele>
        <time>2021-06-19T10:17:17Z</time>
      </trkpt>
      <trkpt lat="39.9487850" lon="3.1654150">
        <ele>91.6</ele>
        <time>2021-06-19T10:17:19Z</time>
      </trkpt>
      <trkpt lat="39.9488330" lon="3.1656220">
        <ele>90.7</ele>
        <time>2021-06-19T10:17:21Z</time>
      </trkpt>
      <trkpt lat="39.9488490" lon="3.1657290">
        <ele>90.2</ele>
        <time>2021-06-19T10:17:22Z</time>
      </trkpt>
      <trkpt lat="39.9488700" lon="3.1658370">
        <ele>89.7</ele>
        <time>2021-06-19T10:17:23Z</time>
      </trkpt>
      <trkpt lat="39.9489150" lon="3.1660620">
        <ele>88.5</ele>
        <time>2021-06-19T10:17:25Z</time>
      </trkpt>
      <trkpt lat="39.9489370" lon="3.1661820">
        <ele>87.9</ele>
        <time>2021-06-19T10:17:26Z</time>
      </trkpt>
      <trkpt lat="39.9489710" lon="3.1664310">
        <ele>86.5</ele>
        <time>2021-06-19T10:17:28Z</time>
      </trkpt>
      <trkpt lat="39.9489970" lon="3.1666860">
        <ele>85.3</ele>
        <time>2021-06-19T10:17:30Z</time>
      </trkpt>
      <trkpt lat="39.9490500" lon="3.1671970">
        <ele>83.4</ele>
        <time>2021-06-19T10:17:34Z</time>
      </trkpt>
      <trkpt lat="39.9491860" lon="3.1679370">
        <ele>81.1</ele>
        <time>2021-06-19T10:17:40Z</time>
      </trkpt>
      <trkpt lat="39.9492210" lon="3.1681810">
        <ele>80.5</ele>
        <time>2021-06-19T10:17:42Z</time>
      </trkpt>
      <trkpt lat="39.9492750" lon="3.1685500">
        <ele>79.8</ele>
        <time>2021-06-19T10:17:45Z</time>
      </trkpt>
      <trkpt lat="39.9492930" lon="3.1686990">
        <ele>79.6</ele>
        <time>2021-06-19T10:17:46Z</time>
      </trkpt>
      <trkpt lat="39.9492870" lon="3.1689200">
        <ele>79.4</ele>
        <time>2021-06-19T10:17:48Z</time>
      </trkpt>
      <trkpt lat="39.9492630" lon="3.1691530">
        <ele>79.3</ele>
        <time>2021-06-19T10:17:50Z</time>
      </trkpt>
      <trkpt lat="39.9492320" lon="3.1693870">
        <ele>79.3</ele>
        <time>2021-06-19T10:17:52Z</time>
      </trkpt>
      <trkpt lat="39.9492010" lon="3.1696050">
        <ele>79.6</ele>
        <time>2021-06-19T10:17:54Z</time>
      </trkpt>
      <trkpt lat="39.9491610" lon="3.1699650">
        <ele>81.0</ele>
        <time>2021-06-19T10:17:58Z</time>
      </trkpt>
      <trkpt lat="39.9491600" lon="3.1700280">
        <ele>81.3</ele>
        <time>2021-06-19T10:17:59Z</time>
      </trkpt>
      <trkpt lat="39.9491780" lon="3.1702710">
        <ele>82.8</ele>
        <time>2021-06-19T10:18:04Z</time>
      </trkpt>
      <trkpt lat="39.9491860" lon="3.1703440">
        <ele>83.2</ele>
        <time>2021-06-19T10:18:06Z</time>
      </trkpt>
      <trkpt lat="39.9492190" lon="3.1705080">
        <ele>84.5</ele>
        <time>2021-06-19T10:18:11Z</time>
      </trkpt>
      <trkpt lat="39.9492300" lon="3.1707420">
        <ele>86.3</ele>
        <time>2021-06-19T10:18:18Z</time>
      </trkpt>
      <trkpt lat="39.9491920" lon="3.1709410">
        <ele>87.9</ele>
        <time>2021-06-19T10:18:24Z</time>
      </trkpt>
      <trkpt lat="39.9491770" lon="3.1710030">
        <ele>88.4</ele>
        <time>2021-06-19T10:18:26Z</time>
      </trkpt>
      <trkpt lat="39.9491450" lon="3.1710930">
        <ele>89.1</ele>
        <time>2021-06-19T10:18:29Z</time>
      </trkpt>
      <trkpt lat="39.9490900" lon="3.1712060">
        <ele>90.2</ele>
        <time>2021-06-19T10:18:33Z</time>
      </trkpt>
      <trkpt lat="39.9489920" lon="3.1713020">
        <ele>91.4</ele>
        <time>2021-06-19T10:18:38Z</time>
      </trkpt>
      <trkpt lat="39.9488320" lon="3.1713190">
        <ele>92.9</ele>
        <time>2021-06-19T10:18:44Z</time>
      </trkpt>
      <trkpt lat="39.9486090" lon="3.1713130">
        <ele>94.9</ele>
        <time>2021-06-19T10:18:52Z</time>
      </trkpt>
      <trkpt lat="39.9484980" lon="3.1713130">
        <ele>95.6</ele>
        <time>2021-06-19T10:18:56Z</time>
      </trkpt>
      <trkpt lat="39.9484700" lon="3.1713060">
        <ele>95.8</ele>
        <time>2021-06-19T10:18:57Z</time>
      </trkpt>
      <trkpt lat="39.9483010" lon="3.1713710">
        <ele>96.9</ele>
        <time>2021-06-19T10:19:03Z</time>
      </trkpt>
      <trkpt lat="39.9482000" lon="3.1715360">
        <ele>98.1</ele>
        <time>2021-06-19T10:19:09Z</time>
      </trkpt>
      <trkpt lat="39.9481640" lon="3.1716860">
        <ele>99.2</ele>
        <time>2021-06-19T10:19:14Z</time>
      </trkpt>
      <trkpt lat="39.9481640" lon="3.1717110">
        <ele>99.4</ele>
        <time>2021-06-19T10:19:15Z</time>
      </trkpt>
      <trkpt lat="39.9481920" lon="3.1718740">
        <ele>100.6</ele>
        <time>2021-06-19T10:19:21Z</time>
      </trkpt>
      <trkpt lat="39.9482250" lon="3.1719450">
        <ele>101.3</ele>
        <time>2021-06-19T10:19:24Z</time>
      </trkpt>
      <trkpt lat="39.9482610" lon="3.1719750">
        <ele>101.7</ele>
        <time>2021-06-19T10:19:26Z</time>
      </trkpt>
      <trkpt lat="39.9483570" lon="3.1720260">
        <ele>102.8</ele>
        <time>2021-06-19T10:19:30Z</time>
      </trkpt>
      <trkpt lat="39.9483840" lon="3.1720370">
        <ele>103.1</ele>
        <time>2021-06-19T10:19:31Z</time>
      </trkpt>
      <trkpt lat="39.9484030" lon="3.1720370">
        <ele>103.3</ele>
        <time>2021-06-19T10:19:32Z</time>
      </trkpt>
      <trkpt lat="39.9484280" lon="3.1720350">
        <ele>103.5</ele>
        <time>2021-06-19T10:19:33Z</time>
      </trkpt>
      <trkpt lat="39.9484560" lon="3.1720260">
        <ele>103.8</ele>
        <time>2021-06-19T10:19:34Z</time>
      </trkpt>
      <trkpt lat="39.9484840" lon="3.1720330">
        <ele>104.0</ele>
        <time>2021-06-19T10:19:35Z</time>
      </trkpt>
      <trkpt lat="39.9485150" lon="3.1720360">
        <ele>104.3</ele>
        <time>2021-06-19T10:19:36Z</time>
      </trkpt>
      <trkpt lat="39.9485610" lon="3.1720730">
        <ele>104.8</ele>
        <time>2021-06-19T10:19:38Z</time>
      </trkpt>
      <trkpt lat="39.9486080" lon="3.1721100">
        <ele>105.3</ele>
        <time>2021-06-19T10:19:40Z</time>
      </trkpt>
      <trkpt lat="39.9486840" lon="3.1721310">
        <ele>105.9</ele>
        <time>2021-06-19T10:19:43Z</time>
      </trkpt>
      <trkpt lat="39.9487080" lon="3.1721490">
        <ele>106.2</ele>
        <time>2021-06-19T10:19:44Z</time>
      </trkpt>
      <trkpt lat="39.9488320" lon="3.1722060">
        <ele>107.2</ele>
        <time>2021-06-19T10:19:49Z</time>
      </trkpt>
      <trkpt lat="39.9489580" lon="3.1723880">
        <ele>108.6</ele>
        <time>2021-06-19T10:19:56Z</time>
      </trkpt>
      <trkpt lat="39.9489620" lon="3.1725780">
        <ele>109.6</ele>
        <time>2021-06-19T10:20:01Z</time>
      </trkpt>
      <trkpt lat="39.9489230" lon="3.1728280">
        <ele>111.1</ele>
        <time>2021-06-19T10:20:08Z</time>
      </trkpt>
      <trkpt lat="39.9488720" lon="3.1731450">
        <ele>112.8</ele>
        <time>2021-06-19T10:20:17Z</time>
      </trkpt>
      <trkpt lat="39.9488560" lon="3.1734720">
        <ele>114.4</ele>
        <time>2021-06-19T10:20:26Z</time>
      </trkpt>
      <trkpt lat="39.9488890" lon="3.1736760">
        <ele>115.5</ele>
        <time>2021-06-19T10:20:31Z</time>
      </trkpt>
      <trkpt lat="39.9489470" lon="3.1738880">
        <ele>116.6</ele>
        <time>2021-06-19T10:20:37Z</time>
      </trkpt>
      <trkpt lat="39.9490190" lon="3.1740670">
        <ele>117.5</ele>
        <time>2021-06-19T10:20:42Z</time>
      </trkpt>
      <trkpt lat="39.9490730" lon="3.1742230">
        <ele>118.1</ele>
        <time>2021-06-19T10:20:47Z</time>
      </trkpt>
      <trkpt lat="39.9490990" lon="3.1743230">
        <ele>118.4</ele>
        <time>2021-06-19T10:20:50Z</time>
      </trkpt>
      <trkpt lat="39.9491690" lon="3.1745100">
        <ele>119.0</ele>
        <time>2021-06-19T10:20:56Z</time>
      </trkpt>
      <trkpt lat="39.9492930" lon="3.1747750">
        <ele>120.0</ele>
        <time>2021-06-19T10:21:04Z</time>
      </trkpt>
      <trkpt lat="39.9493950" lon="3.1750030">
        <ele>120.8</ele>
        <time>2021-06-19T10:21:10Z</time>
      </trkpt>
      <trkpt lat="39.9494430" lon="3.1751880">
        <ele>121.5</ele>
        <time>2021-06-19T10:21:15Z</time>
      </trkpt>
      <trkpt lat="39.9494590" lon="3.1752600">
        <ele>121.7</ele>
        <time>2021-06-19T10:21:19Z</time>
      </trkpt>
      <trkpt lat="39.9494640" lon="3.1752910">
        <ele>121.8</ele>
        <time>2021-06-19T10:21:23Z</time>
      </trkpt>
      <trkpt lat="39.9494820" lon="3.1753130">
        <ele>122.0</ele>
        <time>2021-06-19T10:21:25Z</time>
      </trkpt>
      <trkpt lat="39.9494960" lon="3.1753770">
        <ele>122.2</ele>
        <time>2021-06-19T10:21:33Z</time>
      </trkpt>
      <trkpt lat="39.9494910" lon="3.1753700">
        <ele>122.2</ele>
        <time>2021-06-19T10:21:38Z</time>
      </trkpt>
      <trkpt lat="39.9494910" lon="3.1753700">
        <ele>122.2</ele>
        <time>2021-06-19T10:21:42Z</time>
      </trkpt>
      <trkpt lat="39.9494910" lon="3.1753700">
        <ele>122.2</ele>
        <time>2021-06-19T10:21:45Z</time>
      </trkpt>
      <trkpt lat="39.9494910" lon="3.1753700">
        <ele>122.2</ele>
        <time>2021-06-19T10:21:48Z</time>
      </trkpt>
      <trkpt lat="39.9494910" lon="3.1753700">
        <ele>122.2</ele>
        <time>2021-06-19T10:21:51Z</time>
      </trkpt>
      <trkpt lat="39.9494920" lon="3.1753880">
        <ele>122.3</ele>
        <time>2021-06-19T10:21:53Z</time>
      </trkpt>
      <trkpt lat="39.9494910" lon="3.1754250">
        <ele>122.4</ele>
        <time>2021-06-19T10:21:56Z</time>
      </trkpt>
      <trkpt lat="39.9494970" lon="3.1754390">
        <ele>122.5</ele>
        <time>2021-06-19T10:21:57Z</time>
      </trkpt>
      <trkpt lat="39.9495320" lon="3.1754990">
        <ele>122.7</ele>
        <time>2021-06-19T10:22:03Z</time>
      </trkpt>
      <trkpt lat="39.9495320" lon="3.1754990">
        <ele>122.7</ele>
        <time>2021-06-19T10:22:10Z</time>
      </trkpt>
      <trkpt lat="39.9495320" lon="3.1754990">
        <ele>122.7</ele>
        <time>2021-06-19T10:22:11Z</time>
      </trkpt>
      <trkpt lat="39.9495320" lon="3.1754990">
        <ele>122.7</ele>
        <time>2021-06-19T10:22:24Z</time>
      </trkpt>
      <trkpt lat="39.9495330" lon="3.1754990">
        <ele>122.7</ele>
        <time>2021-06-19T10:22:31Z</time>
      </trkpt>
      <trkpt lat="39.9495330" lon="3.1754990">
        <ele>122.7</ele>
        <time>2021-06-19T10:22:33Z</time>
      </trkpt>
      <trkpt lat="39.9495350" lon="3.1755020">
        <ele>122.7</ele>
        <time>2021-06-19T10:22:38Z</time>
      </trkpt>
      <trkpt lat="39.9495510" lon="3.1755840">
        <ele>123.0</ele>
        <time>2021-06-19T10:22:41Z</time>
      </trkpt>
      <trkpt lat="39.9495850" lon="3.1757310">
        <ele>123.5</ele>
        <time>2021-06-19T10:22:47Z</time>
      </trkpt>
      <trkpt lat="39.9496160" lon="3.1758700">
        <ele>124.0</ele>
        <time>2021-06-19T10:22:52Z</time>
      </trkpt>
      <trkpt lat="39.9496310" lon="3.1758390">
        <ele>124.1</ele>
        <time>2021-06-19T10:22:55Z</time>
      </trkpt>
      <trkpt lat="39.9496250" lon="3.1758150">
        <ele>124.2</ele>
        <time>2021-06-19T10:22:56Z</time>
      </trkpt>
      <trkpt lat="39.9495810" lon="3.1756380">
        <ele>124.8</ele>
        <time>2021-06-19T10:23:01Z</time>
      </trkpt>
      <trkpt lat="39.9495660" lon="3.1756250">
        <ele>124.9</ele>
        <time>2021-06-19T10:23:02Z</time>
      </trkpt>
      <trkpt lat="39.9495380" lon="3.1756470">
        <ele>125.0</ele>
        <time>2021-06-19T10:23:04Z</time>
      </trkpt>
      <trkpt lat="39.9495700" lon="3.1756920">
        <ele>125.3</ele>
        <time>2021-06-19T10:23:06Z</time>
      </trkpt>
      <trkpt lat="39.9496000" lon="3.1758340">
        <ele>125.7</ele>
        <time>2021-06-19T10:23:10Z</time>
      </trkpt>
      <trkpt lat="39.9496450" lon="3.1760490">
        <ele>126.5</ele>
        <time>2021-06-19T10:23:16Z</time>
      </trkpt>
      <trkpt lat="39.9496500" lon="3.1760850">
        <ele>126.6</ele>
        <time>2021-06-19T10:23:17Z</time>
      </trkpt>
      <trkpt lat="39.9496820" lon="3.1762360">
        <ele>127.2</ele>
        <time>2021-06-19T10:23:21Z</time>
      </trkpt>
      <trkpt lat="39.9496880" lon="3.1763160">
        <ele>127.4</ele>
        <time>2021-06-19T10:23:23Z</time>
      </trkpt>
      <trkpt lat="39.9496800" lon="3.1764010">
        <ele>127.7</ele>
        <time>2021-06-19T10:23:25Z</time>
      </trkpt>
      <trkpt lat="39.9496630" lon="3.1764720">
        <ele>128.0</ele>
        <time>2021-06-19T10:23:27Z</time>
      </trkpt>
      <trkpt lat="39.9496350" lon="3.1766360">
        <ele>128.6</ele>
        <time>2021-06-19T10:23:32Z</time>
      </trkpt>
      <trkpt lat="39.9496230" lon="3.1767860">
        <ele>129.1</ele>
        <time>2021-06-19T10:23:38Z</time>
      </trkpt>
      <trkpt lat="39.9496200" lon="3.1767830">
        <ele>129.1</ele>
        <time>2021-06-19T10:23:45Z</time>
      </trkpt>
      <trkpt lat="39.9496200" lon="3.1767850">
        <ele>129.1</ele>
        <time>2021-06-19T10:23:50Z</time>
      </trkpt>
      <trkpt lat="39.9496200" lon="3.1767850">
        <ele>129.1</ele>
        <time>2021-06-19T10:23:53Z</time>
      </trkpt>
      <trkpt lat="39.9496200" lon="3.1767850">
        <ele>129.1</ele>
        <time>2021-06-19T10:23:56Z</time>
      </trkpt>
      <trkpt lat="39.9496200" lon="3.1767850">
        <ele>129.1</ele>
        <time>2021-06-19T10:24:05Z</time>
      </trkpt>
      <trkpt lat="39.9496200" lon="3.1767850">
        <ele>129.1</ele>
        <time>2021-06-19T10:24:09Z</time>
      </trkpt>
      <trkpt lat="39.9496030" lon="3.1767950">
        <ele>129.2</ele>
        <time>2021-06-19T10:24:12Z</time>
      </trkpt>
      <trkpt lat="39.9495750" lon="3.1768320">
        <ele>129.4</ele>
        <time>2021-06-19T10:24:14Z</time>
      </trkpt>
      <trkpt lat="39.9495170" lon="3.1770130">
        <ele>130.0</ele>
        <time>2021-06-19T10:24:19Z</time>
      </trkpt>
      <trkpt lat="39.9494780" lon="3.1771390">
        <ele>130.5</ele>
        <time>2021-06-19T10:24:24Z</time>
      </trkpt>
      <trkpt lat="39.9494370" lon="3.1773090">
        <ele>131.1</ele>
        <time>2021-06-19T10:24:31Z</time>
      </trkpt>
      <trkpt lat="39.9494350" lon="3.1773330">
        <ele>131.2</ele>
        <time>2021-06-19T10:24:32Z</time>
      </trkpt>
      <trkpt lat="39.9494350" lon="3.1773420">
        <ele>131.2</ele>
        <time>2021-06-19T10:24:36Z</time>
      </trkpt>
      <trkpt lat="39.9494390" lon="3.1773450">
        <ele>131.2</ele>
        <time>2021-06-19T10:24:44Z</time>
      </trkpt>
      <trkpt lat="39.9494390" lon="3.1773450">
        <ele>131.2</ele>
        <time>2021-06-19T10:24:45Z</time>
      </trkpt>
      <trkpt lat="39.9494390" lon="3.1773450">
        <ele>131.2</ele>
        <time>2021-06-19T10:24:55Z</time>
      </trkpt>
      <trkpt lat="39.9494390" lon="3.1773450">
        <ele>131.2</ele>
        <time>2021-06-19T10:25:09Z</time>
      </trkpt>
      <trkpt lat="39.9494390" lon="3.1773450">
        <ele>131.2</ele>
        <time>2021-06-19T10:25:11Z</time>
      </trkpt>
      <trkpt lat="39.9494390" lon="3.1773450">
        <ele>131.2</ele>
        <time>2021-06-19T10:25:14Z</time>
      </trkpt>
      <trkpt lat="39.9494390" lon="3.1773450">
        <ele>131.2</ele>
        <time>2021-06-19T10:25:17Z</time>
      </trkpt>
      <trkpt lat="39.9494390" lon="3.1773450">
        <ele>131.2</ele>
        <time>2021-06-19T10:25:20Z</time>
      </trkpt>
      <trkpt lat="39.9494370" lon="3.1773510">
        <ele>131.3</ele>
        <time>2021-06-19T10:25:35Z</time>
      </trkpt>
      <trkpt lat="39.9494360" lon="3.1773510">
        <ele>131.3</ele>
        <time>2021-06-19T10:25:42Z</time>
      </trkpt>
      <trkpt lat="39.9494320" lon="3.1773530">
        <ele>131.3</ele>
        <time>2021-06-19T10:25:45Z</time>
      </trkpt>
      <trkpt lat="39.9494320" lon="3.1773530">
        <ele>131.3</ele>
        <time>2021-06-19T10:25:46Z</time>
      </trkpt>
      <trkpt lat="39.9494320" lon="3.1773530">
        <ele>131.3</ele>
        <time>2021-06-19T10:25:47Z</time>
      </trkpt>
      <trkpt lat="39.9494320" lon="3.1773530">
        <ele>131.3</ele>
        <time>2021-06-19T10:25:51Z</time>
      </trkpt>
      <trkpt lat="39.9494320" lon="3.1773530">
        <ele>131.3</ele>
        <time>2021-06-19T10:25:52Z</time>
      </trkpt>
      <trkpt lat="39.9494320" lon="3.1773530">
        <ele>131.3</ele>
        <time>2021-06-19T10:26:05Z</time>
      </trkpt>
      <trkpt lat="39.9494330" lon="3.1773530">
        <ele>131.3</ele>
        <time>2021-06-19T10:26:08Z</time>
      </trkpt>
      <trkpt lat="39.9494350" lon="3.1773530">
        <ele>131.3</ele>
        <time>2021-06-19T10:26:21Z</time>
      </trkpt>
      <trkpt lat="39.9494350" lon="3.1773490">
        <ele>131.3</ele>
        <time>2021-06-19T10:26:24Z</time>
      </trkpt>
      <trkpt lat="39.9494350" lon="3.1773490">
        <ele>131.3</ele>
        <time>2021-06-19T10:26:35Z</time>
      </trkpt>
      <trkpt lat="39.9494330" lon="3.1773510">
        <ele>131.3</ele>
        <time>2021-06-19T10:26:37Z</time>
      </trkpt>
      <trkpt lat="39.9494290" lon="3.1773610">
        <ele>131.4</ele>
        <time>2021-06-19T10:26:41Z</time>
      </trkpt>
      <trkpt lat="39.9494310" lon="3.1773490">
        <ele>131.4</ele>
        <time>2021-06-19T10:26:42Z</time>
      </trkpt>
      <trkpt lat="39.9494470" lon="3.1772710">
        <ele>131.7</ele>
        <time>2021-06-19T10:26:45Z</time>
      </trkpt>
      <trkpt lat="39.9494390" lon="3.1772520">
        <ele>131.8</ele>
        <time>2021-06-19T10:26:47Z</time>
      </trkpt>
      <trkpt lat="39.9494380" lon="3.1772680">
        <ele>131.9</ele>
        <time>2021-06-19T10:26:48Z</time>
      </trkpt>
      <trkpt lat="39.9494160" lon="3.1774280">
        <ele>132.5</ele>
        <time>2021-06-19T10:26:53Z</time>
      </trkpt>
      <trkpt lat="39.9493890" lon="3.1775250">
        <ele>132.8</ele>
        <time>2021-06-19T10:26:56Z</time>
      </trkpt>
      <trkpt lat="39.9493640" lon="3.1775950">
        <ele>133.1</ele>
        <time>2021-06-19T10:26:59Z</time>
      </trkpt>
      <trkpt lat="39.9493630" lon="3.1776400">
        <ele>133.3</ele>
        <time>2021-06-19T10:27:01Z</time>
      </trkpt>
      <trkpt lat="39.9493540" lon="3.1776940">
        <ele>133.5</ele>
        <time>2021-06-19T10:27:03Z</time>
      </trkpt>
      <trkpt lat="39.9493040" lon="3.1777630">
        <ele>133.8</ele>
        <time>2021-06-19T10:27:05Z</time>
      </trkpt>
      <trkpt lat="39.9492890" lon="3.1777920">
        <ele>133.9</ele>
        <time>2021-06-19T10:27:07Z</time>
      </trkpt>
      <trkpt lat="39.9493390" lon="3.1777930">
        <ele>134.2</ele>
        <time>2021-06-19T10:27:09Z</time>
      </trkpt>
      <trkpt lat="39.9493780" lon="3.1777540">
        <ele>134.4</ele>
        <time>2021-06-19T10:27:11Z</time>
      </trkpt>
      <trkpt lat="39.9494210" lon="3.1776950">
        <ele>134.7</ele>
        <time>2021-06-19T10:27:13Z</time>
      </trkpt>
      <trkpt lat="39.9494370" lon="3.1776600">
        <ele>134.9</ele>
        <time>2021-06-19T10:27:14Z</time>
      </trkpt>
      <trkpt lat="39.9494340" lon="3.1774800">
        <ele>135.6</ele>
        <time>2021-06-19T10:27:18Z</time>
      </trkpt>
      <trkpt lat="39.9494530" lon="3.1774120">
        <ele>135.8</ele>
        <time>2021-06-19T10:27:20Z</time>
      </trkpt>
      <trkpt lat="39.9494510" lon="3.1773520">
        <ele>136.1</ele>
        <time>2021-06-19T10:27:22Z</time>
      </trkpt>
      <trkpt lat="39.9494580" lon="3.1773270">
        <ele>136.2</ele>
        <time>2021-06-19T10:27:23Z</time>
      </trkpt>
      <trkpt lat="39.9494600" lon="3.1773260">
        <ele>136.2</ele>
        <time>2021-06-19T10:27:25Z</time>
      </trkpt>
      <trkpt lat="39.9494710" lon="3.1773500">
        <ele>136.3</ele>
        <time>2021-06-19T10:27:26Z</time>
      </trkpt>
      <trkpt lat="39.9494640" lon="3.1774420">
        <ele>136.6</ele>
        <time>2021-06-19T10:27:30Z</time>
      </trkpt>
      <trkpt lat="39.9494620" lon="3.1774480">
        <ele>136.7</ele>
        <time>2021-06-19T10:27:32Z</time>
      </trkpt>
      <trkpt lat="39.9494660" lon="3.1774660">
        <ele>136.7</ele>
        <time>2021-06-19T10:27:36Z</time>
      </trkpt>
      <trkpt lat="39.9494620" lon="3.1774860">
        <ele>136.8</ele>
        <time>2021-06-19T10:27:37Z</time>
      </trkpt>
      <trkpt lat="39.9494360" lon="3.1775220">
        <ele>137.0</ele>
        <time>2021-06-19T10:27:39Z</time>
      </trkpt>
      <trkpt lat="39.9494270" lon="3.1775630">
        <ele>137.2</ele>
        <time>2021-06-19T10:27:41Z</time>
      </trkpt>
      <trkpt lat="39.9494170" lon="3.1775930">
        <ele>137.3</ele>
        <time>2021-06-19T10:27:42Z</time>
      </trkpt>
      <trkpt lat="39.9493910" lon="3.1776750">
        <ele>137.6</ele>
        <time>2021-06-19T10:27:45Z</time>
      </trkpt>
      <trkpt lat="39.9493750" lon="3.1777500">
        <ele>138.0</ele>
        <time>2021-06-19T10:27:48Z</time>
      </trkpt>
      <trkpt lat="39.9493860" lon="3.1777830">
        <ele>138.1</ele>
        <time>2021-06-19T10:27:49Z</time>
      </trkpt>
      <trkpt lat="39.9494050" lon="3.1778060">
        <ele>138.2</ele>
        <time>2021-06-19T10:27:50Z</time>
      </trkpt>
      <trkpt lat="39.9494510" lon="3.1778320">
        <ele>138.5</ele>
        <time>2021-06-19T10:27:52Z</time>
      </trkpt>
      <trkpt lat="39.9494340" lon="3.1778650">
        <ele>138.7</ele>
        <time>2021-06-19T10:27:56Z</time>
      </trkpt>
      <trkpt lat="39.9494380" lon="3.1778810">
        <ele>138.8</ele>
        <time>2021-06-19T10:27:59Z</time>
      </trkpt>
      <trkpt lat="39.9494420" lon="3.1778960">
        <ele>138.9</ele>
        <time>2021-06-19T10:28:03Z</time>
      </trkpt>
      <trkpt lat="39.9494460" lon="3.1779120">
        <ele>138.9</ele>
        <time>2021-06-19T10:28:07Z</time>
      </trkpt>
      <trkpt lat="39.9494500" lon="3.1779270">
        <ele>139.0</ele>
        <time>2021-06-19T10:28:14Z</time>
      </trkpt>
      <trkpt lat="39.9494530" lon="3.1779430">
        <ele>139.1</ele>
        <time>2021-06-19T10:28:17Z</time>
      </trkpt>
      <trkpt lat="39.9494570" lon="3.1779580">
        <ele>139.2</ele>
        <time>2021-06-19T10:28:19Z</time>
      </trkpt>
      <trkpt lat="39.9494610" lon="3.1779740">
        <ele>139.3</ele>
        <time>2021-06-19T10:28:23Z</time>
      </trkpt>
      <trkpt lat="39.9494650" lon="3.1779890">
        <ele>139.3</ele>
        <time>2021-06-19T10:28:25Z</time>
      </trkpt>
      <trkpt lat="39.9494690" lon="3.1780050">
        <ele>139.4</ele>
        <time>2021-06-19T10:28:27Z</time>
      </trkpt>
      <trkpt lat="39.9494730" lon="3.1780200">
        <ele>139.5</ele>
        <time>2021-06-19T10:28:30Z</time>
      </trkpt>
      <trkpt lat="39.9494770" lon="3.1780360">
        <ele>139.6</ele>
        <time>2021-06-19T10:28:32Z</time>
      </trkpt>
      <trkpt lat="39.9494810" lon="3.1780510">
        <ele>139.7</ele>
        <time>2021-06-19T10:28:33Z</time>
      </trkpt>
      <trkpt lat="39.9494850" lon="3.1780670">
        <ele>139.8</ele>
        <time>2021-06-19T10:28:35Z</time>
      </trkpt>
      <trkpt lat="39.9494890" lon="3.1780820">
        <ele>139.9</ele>
        <time>2021-06-19T10:28:36Z</time>
      </trkpt>
      <trkpt lat="39.9494920" lon="3.1780970">
        <ele>139.9</ele>
        <time>2021-06-19T10:28:37Z</time>
      </trkpt>
      <trkpt lat="39.9494960" lon="3.1781130">
        <ele>140.0</ele>
        <time>2021-06-19T10:28:38Z</time>
      </trkpt>
      <trkpt lat="39.9495000" lon="3.1781280">
        <ele>140.1</ele>
        <time>2021-06-19T10:28:41Z</time>
      </trkpt>
      <trkpt lat="39.9495040" lon="3.1781440">
        <ele>140.2</ele>
        <time>2021-06-19T10:28:42Z</time>
      </trkpt>
      <trkpt lat="39.9495080" lon="3.1781590">
        <ele>140.3</ele>
        <time>2021-06-19T10:28:43Z</time>
      </trkpt>
      <trkpt lat="39.9495120" lon="3.1781750">
        <ele>140.4</ele>
        <time>2021-06-19T10:28:44Z</time>
      </trkpt>
      <trkpt lat="39.9495160" lon="3.1781900">
        <ele>140.4</ele>
        <time>2021-06-19T10:28:45Z</time>
      </trkpt>
      <trkpt lat="39.9495200" lon="3.1782060">
        <ele>140.5</ele>
        <time>2021-06-19T10:28:46Z</time>
      </trkpt>
      <trkpt lat="39.9495240" lon="3.1782210">
        <ele>140.6</ele>
        <time>2021-06-19T10:28:48Z</time>
      </trkpt>
      <trkpt lat="39.9495280" lon="3.1782370">
        <ele>140.7</ele>
        <time>2021-06-19T10:28:50Z</time>
      </trkpt>
      <trkpt lat="39.9495310" lon="3.1782520">
        <ele>140.7</ele>
        <time>2021-06-19T10:28:54Z</time>
      </trkpt>
      <trkpt lat="39.9495350" lon="3.1782680">
        <ele>140.8</ele>
        <time>2021-06-19T10:28:55Z</time>
      </trkpt>
      <trkpt lat="39.9495390" lon="3.1782830">
        <ele>140.9</ele>
        <time>2021-06-19T10:28:57Z</time>
      </trkpt>
      <trkpt lat="39.9495430" lon="3.1782990">
        <ele>140.9</ele>
        <time>2021-06-19T10:28:59Z</time>
      </trkpt>
      <trkpt lat="39.9495470" lon="3.1783140">
        <ele>141.0</ele>
        <time>2021-06-19T10:29:01Z</time>
      </trkpt>
      <trkpt lat="39.9495510" lon="3.1783290">
        <ele>141.0</ele>
        <time>2021-06-19T10:29:03Z</time>
      </trkpt>
      <trkpt lat="39.9495550" lon="3.1783450">
        <ele>141.1</ele>
        <time>2021-06-19T10:29:06Z</time>
      </trkpt>
      <trkpt lat="39.9495590" lon="3.1783600">
        <ele>141.2</ele>
        <time>2021-06-19T10:29:08Z</time>
      </trkpt>
      <trkpt lat="39.9495630" lon="3.1783760">
        <ele>141.2</ele>
        <time>2021-06-19T10:29:09Z</time>
      </trkpt>
      <trkpt lat="39.9495670" lon="3.1783910">
        <ele>141.3</ele>
        <time>2021-06-19T10:29:13Z</time>
      </trkpt>
      <trkpt lat="39.9495710" lon="3.1784070">
        <ele>141.4</ele>
        <time>2021-06-19T10:29:15Z</time>
      </trkpt>
      <trkpt lat="39.9495740" lon="3.1784220">
        <ele>141.6</ele>
        <time>2021-06-19T10:29:19Z</time>
      </trkpt>
      <trkpt lat="39.9495780" lon="3.1784380">
        <ele>141.7</ele>
        <time>2021-06-19T10:29:20Z</time>
      </trkpt>
      <trkpt lat="39.9495820" lon="3.1784530">
        <ele>141.8</ele>
        <time>2021-06-19T10:29:21Z</time>
      </trkpt>
      <trkpt lat="39.9495860" lon="3.1784690">
        <ele>141.9</ele>
        <time>2021-06-19T10:29:22Z</time>
      </trkpt>
      <trkpt lat="39.9495900" lon="3.1784840">
        <ele>142.0</ele>
        <time>2021-06-19T10:29:23Z</time>
      </trkpt>
      <trkpt lat="39.9495940" lon="3.1785000">
        <ele>142.1</ele>
        <time>2021-06-19T10:29:24Z</time>
      </trkpt>
      <trkpt lat="39.9495980" lon="3.1785150">
        <ele>142.2</ele>
        <time>2021-06-19T10:29:25Z</time>
      </trkpt>
      <trkpt lat="39.9496020" lon="3.1785310">
        <ele>142.3</ele>
        <time>2021-06-19T10:29:27Z</time>
      </trkpt>
      <trkpt lat="39.9496060" lon="3.1785460">
        <ele>142.4</ele>
        <time>2021-06-19T10:29:30Z</time>
      </trkpt>
      <trkpt lat="39.9496100" lon="3.1785620">
        <ele>142.5</ele>
        <time>2021-06-19T10:29:31Z</time>
      </trkpt>
      <trkpt lat="39.9496130" lon="3.1785770">
        <ele>142.6</ele>
        <time>2021-06-19T10:29:32Z</time>
      </trkpt>
      <trkpt lat="39.9496170" lon="3.1785920">
        <ele>142.7</ele>
        <time>2021-06-19T10:29:33Z</time>
      </trkpt>
      <trkpt lat="39.9496210" lon="3.1786080">
        <ele>142.8</ele>
        <time>2021-06-19T10:29:36Z</time>
      </trkpt>
      <trkpt lat="39.9496250" lon="3.1786230">
        <ele>142.9</ele>
        <time>2021-06-19T10:29:39Z</time>
      </trkpt>
      <trkpt lat="39.9496290" lon="3.1786390">
        <ele>143.0</ele>
        <time>2021-06-19T10:29:40Z</time>
      </trkpt>
      <trkpt lat="39.9496330" lon="3.1786540">
        <ele>143.1</ele>
        <time>2021-06-19T10:29:41Z</time>
      </trkpt>
      <trkpt lat="39.9496370" lon="3.1786700">
        <ele>143.2</ele>
        <time>2021-06-19T10:29:42Z</time>
      </trkpt>
      <trkpt lat="39.9496410" lon="3.1786850">
        <ele>143.3</ele>
        <time>2021-06-19T10:29:43Z</time>
      </trkpt>
      <trkpt lat="39.9496450" lon="3.1787010">
        <ele>143.4</ele>
        <time>2021-06-19T10:29:44Z</time>
      </trkpt>
      <trkpt lat="39.9496490" lon="3.1787160">
        <ele>143.4</ele>
        <time>2021-06-19T10:29:45Z</time>
      </trkpt>
      <trkpt lat="39.9496520" lon="3.1787320">
        <ele>143.5</ele>
        <time>2021-06-19T10:29:46Z</time>
      </trkpt>
      <trkpt lat="39.9496560" lon="3.1787470">
        <ele>143.6</ele>
        <time>2021-06-19T10:29:47Z</time>
      </trkpt>
      <trkpt lat="39.9496600" lon="3.1787630">
        <ele>143.7</ele>
        <time>2021-06-19T10:29:49Z</time>
      </trkpt>
      <trkpt lat="39.9496640" lon="3.1787780">
        <ele>143.8</ele>
        <time>2021-06-19T10:29:51Z</time>
      </trkpt>
      <trkpt lat="39.9496680" lon="3.1787940">
        <ele>143.8</ele>
        <time>2021-06-19T10:29:52Z</time>
      </trkpt>
      <trkpt lat="39.9496720" lon="3.1788090">
        <ele>143.9</ele>
        <time>2021-06-19T10:29:53Z</time>
      </trkpt>
      <trkpt lat="39.9501600" lon="3.1806120">
        <ele>151.8</ele>
        <time>2021-06-19T10:29:55Z</time>
      </trkpt>
      <trkpt lat="39.9501080" lon="3.1806580">
        <ele>152.0</ele>
        <time>2021-06-19T10:29:56Z</time>
      </trkpt>
      <trkpt lat="39.9501450" lon="3.1807000">
        <ele>152.2</ele>
        <time>2021-06-19T10:30:00Z</time>
      </trkpt>
      <trkpt lat="39.9501490" lon="3.1808270">
        <ele>152.7</ele>
        <time>2021-06-19T10:30:04Z</time>
      </trkpt>
      <trkpt lat="39.9501500" lon="3.1808650">
        <ele>152.9</ele>
        <time>2021-06-19T10:30:05Z</time>
      </trkpt>
      <trkpt lat="39.9502490" lon="3.1811840">
        <ele>154.6</ele>
        <time>2021-06-19T10:30:15Z</time>
      </trkpt>
      <trkpt lat="39.9502710" lon="3.1813820">
        <ele>155.7</ele>
        <time>2021-06-19T10:30:21Z</time>
      </trkpt>
      <trkpt lat="39.9503240" lon="3.1816700">
        <ele>157.3</ele>
        <time>2021-06-19T10:30:30Z</time>
      </trkpt>
      <trkpt lat="39.9504120" lon="3.1819320">
        <ele>158.9</ele>
        <time>2021-06-19T10:30:37Z</time>
      </trkpt>
      <trkpt lat="39.9504710" lon="3.1821200">
        <ele>160.1</ele>
        <time>2021-06-19T10:30:42Z</time>
      </trkpt>
      <trkpt lat="39.9504800" lon="3.1821900">
        <ele>160.5</ele>
        <time>2021-06-19T10:30:44Z</time>
      </trkpt>
      <trkpt lat="39.9505110" lon="3.1822990">
        <ele>161.2</ele>
        <time>2021-06-19T10:30:47Z</time>
      </trkpt>
      <trkpt lat="39.9505340" lon="3.1824060">
        <ele>161.8</ele>
        <time>2021-06-19T10:30:50Z</time>
      </trkpt>
      <trkpt lat="39.9505960" lon="3.1826490">
        <ele>163.2</ele>
        <time>2021-06-19T10:30:57Z</time>
      </trkpt>
      <trkpt lat="39.9506970" lon="3.1830010">
        <ele>165.2</ele>
        <time>2021-06-19T10:31:07Z</time>
      </trkpt>
      <trkpt lat="39.9508670" lon="3.1834080">
        <ele>167.2</ele>
        <time>2021-06-19T10:31:18Z</time>
      </trkpt>
      <trkpt lat="39.9510220" lon="3.1837140">
        <ele>168.5</ele>
        <time>2021-06-19T10:31:26Z</time>
      </trkpt>
      <trkpt lat="39.9511810" lon="3.1840290">
        <ele>169.9</ele>
        <time>2021-06-19T10:31:34Z</time>
      </trkpt>
      <trkpt lat="39.9513860" lon="3.1843160">
        <ele>171.3</ele>
        <time>2021-06-19T10:31:42Z</time>
      </trkpt>
      <trkpt lat="39.9516260" lon="3.1846350">
        <ele>172.9</ele>
        <time>2021-06-19T10:31:51Z</time>
      </trkpt>
      <trkpt lat="39.9518520" lon="3.1850250">
        <ele>174.9</ele>
        <time>2021-06-19T10:32:01Z</time>
      </trkpt>
      <trkpt lat="39.9518910" lon="3.1853710">
        <ele>176.2</ele>
        <time>2021-06-19T10:32:08Z</time>
      </trkpt>
      <trkpt lat="39.9519560" lon="3.1856450">
        <ele>177.4</ele>
        <time>2021-06-19T10:32:14Z</time>
      </trkpt>
      <trkpt lat="39.9521750" lon="3.1859390">
        <ele>179.2</ele>
        <time>2021-06-19T10:32:22Z</time>
      </trkpt>
      <trkpt lat="39.9523660" lon="3.1860980">
        <ele>180.7</ele>
        <time>2021-06-19T10:32:28Z</time>
      </trkpt>
      <trkpt lat="39.9525070" lon="3.1862050">
        <ele>181.8</ele>
        <time>2021-06-19T10:32:32Z</time>
      </trkpt>
      <trkpt lat="39.9526170" lon="3.1862630">
        <ele>182.5</ele>
        <time>2021-06-19T10:32:35Z</time>
      </trkpt>
      <trkpt lat="39.9527840" lon="3.1864450">
        <ele>183.5</ele>
        <time>2021-06-19T10:32:41Z</time>
      </trkpt>
      <trkpt lat="39.9528090" lon="3.1866560">
        <ele>183.6</ele>
        <time>2021-06-19T10:32:45Z</time>
      </trkpt>
      <trkpt lat="39.9528730" lon="3.1871000">
        <ele>183.4</ele>
        <time>2021-06-19T10:32:53Z</time>
      </trkpt>
      <trkpt lat="39.9528970" lon="3.1872700">
        <ele>183.2</ele>
        <time>2021-06-19T10:32:56Z</time>
      </trkpt>
      <trkpt lat="39.9529300" lon="3.1873770">
        <ele>183.1</ele>
        <time>2021-06-19T10:32:58Z</time>
      </trkpt>
      <trkpt lat="39.9531180" lon="3.1877790">
        <ele>182.9</ele>
        <time>2021-06-19T10:33:05Z</time>
      </trkpt>
      <trkpt lat="39.9531330" lon="3.1879220">
        <ele>182.9</ele>
        <time>2021-06-19T10:33:07Z</time>
      </trkpt>
      <trkpt lat="39.9531240" lon="3.1879950">
        <ele>182.9</ele>
        <time>2021-06-19T10:33:08Z</time>
      </trkpt>
      <trkpt lat="39.9531100" lon="3.1880670">
        <ele>182.8</ele>
        <time>2021-06-19T10:33:09Z</time>
      </trkpt>
      <trkpt lat="39.9530280" lon="3.1884280">
        <ele>182.4</ele>
        <time>2021-06-19T10:33:14Z</time>
      </trkpt>
      <trkpt lat="39.9530160" lon="3.1885060">
        <ele>182.2</ele>
        <time>2021-06-19T10:33:15Z</time>
      </trkpt>
      <trkpt lat="39.9530150" lon="3.1886680">
        <ele>181.8</ele>
        <time>2021-06-19T10:33:17Z</time>
      </trkpt>
      <trkpt lat="39.9530330" lon="3.1887460">
        <ele>181.6</ele>
        <time>2021-06-19T10:33:18Z</time>
      </trkpt>
      <trkpt lat="39.9530630" lon="3.1888170">
        <ele>181.3</ele>
        <time>2021-06-19T10:33:19Z</time>
      </trkpt>
      <trkpt lat="39.9531690" lon="3.1889220">
        <ele>180.7</ele>
        <time>2021-06-19T10:33:21Z</time>
      </trkpt>
      <trkpt lat="39.9534590" lon="3.1890260">
        <ele>178.7</ele>
        <time>2021-06-19T10:33:25Z</time>
      </trkpt>
      <trkpt lat="39.9538980" lon="3.1891180">
        <ele>176.2</ele>
        <time>2021-06-19T10:33:30Z</time>
      </trkpt>
      <trkpt lat="39.9540550" lon="3.1892390">
        <ele>175.6</ele>
        <time>2021-06-19T10:33:32Z</time>
      </trkpt>
      <trkpt lat="39.9541020" lon="3.1893430">
        <ele>175.4</ele>
        <time>2021-06-19T10:33:33Z</time>
      </trkpt>
      <trkpt lat="39.9541230" lon="3.1894630">
        <ele>175.3</ele>
        <time>2021-06-19T10:33:34Z</time>
      </trkpt>
      <trkpt lat="39.9541220" lon="3.1895880">
        <ele>175.1</ele>
        <time>2021-06-19T10:33:35Z</time>
      </trkpt>
      <trkpt lat="39.9540920" lon="3.1896950">
        <ele>175.1</ele>
        <time>2021-06-19T10:33:36Z</time>
      </trkpt>
      <trkpt lat="39.9540390" lon="3.1897770">
        <ele>175.1</ele>
        <time>2021-06-19T10:33:37Z</time>
      </trkpt>
      <trkpt lat="39.9539780" lon="3.1898400">
        <ele>175.2</ele>
        <time>2021-06-19T10:33:38Z</time>
      </trkpt>
      <trkpt lat="39.9538080" lon="3.1899880">
        <ele>175.7</ele>
        <time>2021-06-19T10:33:41Z</time>
      </trkpt>
      <trkpt lat="39.9537050" lon="3.1900820">
        <ele>176.1</ele>
        <time>2021-06-19T10:33:43Z</time>
      </trkpt>
      <trkpt lat="39.9534310" lon="3.1903290">
        <ele>177.5</ele>
        <time>2021-06-19T10:33:49Z</time>
      </trkpt>
      <trkpt lat="39.9533640" lon="3.1904220">
        <ele>177.9</ele>
        <time>2021-06-19T10:33:51Z</time>
      </trkpt>
      <trkpt lat="39.9532700" lon="3.1905640">
        <ele>178.6</ele>
        <time>2021-06-19T10:33:54Z</time>
      </trkpt>
      <trkpt lat="39.9532420" lon="3.1906030">
        <ele>178.8</ele>
        <time>2021-06-19T10:33:55Z</time>
      </trkpt>
      <trkpt lat="39.9532130" lon="3.1906490">
        <ele>179.0</ele>
        <time>2021-06-19T10:33:56Z</time>
      </trkpt>
      <trkpt lat="39.9531850" lon="3.1907000">
        <ele>179.3</ele>
        <time>2021-06-19T10:33:57Z</time>
      </trkpt>
      <trkpt lat="39.9531310" lon="3.1907990">
        <ele>179.7</ele>
        <time>2021-06-19T10:33:59Z</time>
      </trkpt>
      <trkpt lat="39.9530480" lon="3.1909440">
        <ele>180.5</ele>
        <time>2021-06-19T10:34:02Z</time>
      </trkpt>
      <trkpt lat="39.9530000" lon="3.1910420">
        <ele>180.9</ele>
        <time>2021-06-19T10:34:04Z</time>
      </trkpt>
      <trkpt lat="39.9529750" lon="3.1910920">
        <ele>181.2</ele>
        <time>2021-06-19T10:34:05Z</time>
      </trkpt>
      <trkpt lat="39.9529470" lon="3.1911360">
        <ele>181.4</ele>
        <time>2021-06-19T10:34:06Z</time>
      </trkpt>
      <trkpt lat="39.9528350" lon="3.1913310">
        <ele>182.3</ele>
        <time>2021-06-19T10:34:10Z</time>
      </trkpt>
      <trkpt lat="39.9527570" lon="3.1914700">
        <ele>183.0</ele>
        <time>2021-06-19T10:34:13Z</time>
      </trkpt>
      <trkpt lat="39.9527220" lon="3.1915730">
        <ele>183.5</ele>
        <time>2021-06-19T10:34:15Z</time>
      </trkpt>
      <trkpt lat="39.9527120" lon="3.1916270">
        <ele>183.6</ele>
        <time>2021-06-19T10:34:16Z</time>
      </trkpt>
      <trkpt lat="39.9527090" lon="3.1916760">
        <ele>183.7</ele>
        <time>2021-06-19T10:34:17Z</time>
      </trkpt>
      <trkpt lat="39.9527320" lon="3.1917830">
        <ele>184.0</ele>
        <time>2021-06-19T10:34:19Z</time>
      </trkpt>
      <trkpt lat="39.9527500" lon="3.1918350">
        <ele>184.2</ele>
        <time>2021-06-19T10:34:20Z</time>
      </trkpt>
      <trkpt lat="39.9527930" lon="3.1919370">
        <ele>184.5</ele>
        <time>2021-06-19T10:34:22Z</time>
      </trkpt>
      <trkpt lat="39.9528930" lon="3.1921390">
        <ele>185.3</ele>
        <time>2021-06-19T10:34:26Z</time>
      </trkpt>
      <trkpt lat="39.9529090" lon="3.1921910">
        <ele>185.4</ele>
        <time>2021-06-19T10:34:27Z</time>
      </trkpt>
      <trkpt lat="39.9529070" lon="3.1922960">
        <ele>185.7</ele>
        <time>2021-06-19T10:34:29Z</time>
      </trkpt>
      <trkpt lat="39.9528900" lon="3.1923460">
        <ele>185.8</ele>
        <time>2021-06-19T10:34:30Z</time>
      </trkpt>
      <trkpt lat="39.9528640" lon="3.1923920">
        <ele>186.0</ele>
        <time>2021-06-19T10:34:31Z</time>
      </trkpt>
      <trkpt lat="39.9527540" lon="3.1924890">
        <ele>186.5</ele>
        <time>2021-06-19T10:34:34Z</time>
      </trkpt>
      <trkpt lat="39.9525420" lon="3.1925960">
        <ele>187.4</ele>
        <time>2021-06-19T10:34:39Z</time>
      </trkpt>
      <trkpt lat="39.9524500" lon="3.1926130">
        <ele>187.8</ele>
        <time>2021-06-19T10:34:41Z</time>
      </trkpt>
      <trkpt lat="39.9520730" lon="3.1927050">
        <ele>189.5</ele>
        <time>2021-06-19T10:34:50Z</time>
      </trkpt>
      <trkpt lat="39.9518760" lon="3.1927640">
        <ele>190.7</ele>
        <time>2021-06-19T10:34:55Z</time>
      </trkpt>
      <trkpt lat="39.9518070" lon="3.1928120">
        <ele>191.1</ele>
        <time>2021-06-19T10:34:57Z</time>
      </trkpt>
      <trkpt lat="39.9516540" lon="3.1930420">
        <ele>192.6</ele>
        <time>2021-06-19T10:35:03Z</time>
      </trkpt>
      <trkpt lat="39.9514840" lon="3.1932680">
        <ele>194.3</ele>
        <time>2021-06-19T10:35:10Z</time>
      </trkpt>
      <trkpt lat="39.9512810" lon="3.1934110">
        <ele>195.8</ele>
        <time>2021-06-19T10:35:16Z</time>
      </trkpt>
      <trkpt lat="39.9511050" lon="3.1936070">
        <ele>197.3</ele>
        <time>2021-06-19T10:35:22Z</time>
      </trkpt>
      <trkpt lat="39.9510750" lon="3.1937480">
        <ele>197.9</ele>
        <time>2021-06-19T10:35:25Z</time>
      </trkpt>
      <trkpt lat="39.9510820" lon="3.1937950">
        <ele>198.1</ele>
        <time>2021-06-19T10:35:26Z</time>
      </trkpt>
      <trkpt lat="39.9511810" lon="3.1940130">
        <ele>199.0</ele>
        <time>2021-06-19T10:35:31Z</time>
      </trkpt>
      <trkpt lat="39.9513950" lon="3.1943250">
        <ele>200.2</ele>
        <time>2021-06-19T10:35:39Z</time>
      </trkpt>
      <trkpt lat="39.9514410" lon="3.1945350">
        <ele>200.7</ele>
        <time>2021-06-19T10:35:43Z</time>
      </trkpt>
      <trkpt lat="39.9514350" lon="3.1945970">
        <ele>200.8</ele>
        <time>2021-06-19T10:35:44Z</time>
      </trkpt>
      <trkpt lat="39.9514160" lon="3.1946520">
        <ele>201.0</ele>
        <time>2021-06-19T10:35:45Z</time>
      </trkpt>
      <trkpt lat="39.9513160" lon="3.1947770">
        <ele>201.4</ele>
        <time>2021-06-19T10:35:48Z</time>
      </trkpt>
      <trkpt lat="39.9512380" lon="3.1948320">
        <ele>201.7</ele>
        <time>2021-06-19T10:35:50Z</time>
      </trkpt>
      <trkpt lat="39.9511580" lon="3.1948760">
        <ele>202.1</ele>
        <time>2021-06-19T10:35:52Z</time>
      </trkpt>
      <trkpt lat="39.9511160" lon="3.1948930">
        <ele>202.3</ele>
        <time>2021-06-19T10:35:53Z</time>
      </trkpt>
      <trkpt lat="39.9510740" lon="3.1949110">
        <ele>202.4</ele>
        <time>2021-06-19T10:35:54Z</time>
      </trkpt>
      <trkpt lat="39.9508870" lon="3.1950300">
        <ele>203.4</ele>
        <time>2021-06-19T10:35:59Z</time>
      </trkpt>
      <trkpt lat="39.9507800" lon="3.1952460">
        <ele>204.4</ele>
        <time>2021-06-19T10:36:04Z</time>
      </trkpt>
      <trkpt lat="39.9507710" lon="3.1954890">
        <ele>205.4</ele>
        <time>2021-06-19T10:36:09Z</time>
      </trkpt>
      <trkpt lat="39.9508380" lon="3.1960010">
        <ele>207.7</ele>
        <time>2021-06-19T10:36:19Z</time>
      </trkpt>
      <trkpt lat="39.9509050" lon="3.1963850">
        <ele>209.3</ele>
        <time>2021-06-19T10:36:27Z</time>
      </trkpt>
      <trkpt lat="39.9509880" lon="3.1966600">
        <ele>210.4</ele>
        <time>2021-06-19T10:36:33Z</time>
      </trkpt>
      <trkpt lat="39.9511370" lon="3.1969830">
        <ele>211.9</ele>
        <time>2021-06-19T10:36:41Z</time>
      </trkpt>
      <trkpt lat="39.9513430" lon="3.1974270">
        <ele>214.3</ele>
        <time>2021-06-19T10:36:52Z</time>
      </trkpt>
      <trkpt lat="39.9514260" lon="3.1977230">
        <ele>215.9</ele>
        <time>2021-06-19T10:36:59Z</time>
      </trkpt>
      <trkpt lat="39.9515120" lon="3.1981250">
        <ele>218.4</ele>
        <time>2021-06-19T10:37:09Z</time>
      </trkpt>
      <trkpt lat="39.9516610" lon="3.1982750">
        <ele>219.0</ele>
        <time>2021-06-19T10:37:15Z</time>
      </trkpt>
      <trkpt lat="39.9518660" lon="3.1983150">
        <ele>218.7</ele>
        <time>2021-06-19T10:37:20Z</time>
      </trkpt>
      <trkpt lat="39.9521480" lon="3.1983540">
        <ele>218.3</ele>
        <time>2021-06-19T10:37:26Z</time>
      </trkpt>
      <trkpt lat="39.9523560" lon="3.1983780">
        <ele>218.0</ele>
        <time>2021-06-19T10:37:30Z</time>
      </trkpt>
      <trkpt lat="39.9524720" lon="3.1983830">
        <ele>217.8</ele>
        <time>2021-06-19T10:37:32Z</time>
      </trkpt>
      <trkpt lat="39.9525290" lon="3.1983840">
        <ele>217.7</ele>
        <time>2021-06-19T10:37:33Z</time>
      </trkpt>
      <trkpt lat="39.9527740" lon="3.1984170">
        <ele>217.5</ele>
        <time>2021-06-19T10:37:37Z</time>
      </trkpt>
      <trkpt lat="39.9528340" lon="3.1984500">
        <ele>217.6</ele>
        <time>2021-06-19T10:37:38Z</time>
      </trkpt>
      <trkpt lat="39.9528870" lon="3.1985000">
        <ele>217.6</ele>
        <time>2021-06-19T10:37:39Z</time>
      </trkpt>
      <trkpt lat="39.9529680" lon="3.1986190">
        <ele>217.9</ele>
        <time>2021-06-19T10:37:41Z</time>
      </trkpt>
      <trkpt lat="39.9530170" lon="3.1987460">
        <ele>218.1</ele>
        <time>2021-06-19T10:37:43Z</time>
      </trkpt>
      <trkpt lat="39.9530360" lon="3.1988790">
        <ele>218.3</ele>
        <time>2021-06-19T10:37:45Z</time>
      </trkpt>
      <trkpt lat="39.9530220" lon="3.1990230">
        <ele>218.4</ele>
        <time>2021-06-19T10:37:47Z</time>
      </trkpt>
      <trkpt lat="39.9529780" lon="3.1991460">
        <ele>218.5</ele>
        <time>2021-06-19T10:37:49Z</time>
      </trkpt>
      <trkpt lat="39.9528530" lon="3.1993960">
        <ele>218.5</ele>
        <time>2021-06-19T10:37:54Z</time>
      </trkpt>
      <trkpt lat="39.9528080" lon="3.1994970">
        <ele>218.4</ele>
        <time>2021-06-19T10:37:56Z</time>
      </trkpt>
      <trkpt lat="39.9527800" lon="3.1996660">
        <ele>218.3</ele>
        <time>2021-06-19T10:37:59Z</time>
      </trkpt>
      <trkpt lat="39.9527580" lon="3.1999010">
        <ele>218.0</ele>
        <time>2021-06-19T10:38:03Z</time>
      </trkpt>
      <trkpt lat="39.9527620" lon="3.2000190">
        <ele>217.9</ele>
        <time>2021-06-19T10:38:05Z</time>
      </trkpt>
      <trkpt lat="39.9528590" lon="3.2003760">
        <ele>217.5</ele>
        <time>2021-06-19T10:38:11Z</time>
      </trkpt>
      <trkpt lat="39.9529410" lon="3.2006220">
        <ele>217.1</ele>
        <time>2021-06-19T10:38:15Z</time>
      </trkpt>
      <trkpt lat="39.9529770" lon="3.2007480">
        <ele>216.9</ele>
        <time>2021-06-19T10:38:17Z</time>
      </trkpt>
      <trkpt lat="39.9529950" lon="3.2008110">
        <ele>216.7</ele>
        <time>2021-06-19T10:38:18Z</time>
      </trkpt>
      <trkpt lat="39.9530400" lon="3.2009440">
        <ele>216.3</ele>
        <time>2021-06-19T10:38:20Z</time>
      </trkpt>
      <trkpt lat="39.9530940" lon="3.2010730">
        <ele>215.7</ele>
        <time>2021-06-19T10:38:22Z</time>
      </trkpt>
      <trkpt lat="39.9532120" lon="3.2012570">
        <ele>214.6</ele>
        <time>2021-06-19T10:38:25Z</time>
      </trkpt>
      <trkpt lat="39.9533820" lon="3.2015300">
        <ele>212.6</ele>
        <time>2021-06-19T10:38:29Z</time>
      </trkpt>
      <trkpt lat="39.9534020" lon="3.2016240">
        <ele>211.9</ele>
        <time>2021-06-19T10:38:30Z</time>
      </trkpt>
      <trkpt lat="39.9534130" lon="3.2017270">
        <ele>211.3</ele>
        <time>2021-06-19T10:38:31Z</time>
      </trkpt>
      <trkpt lat="39.9534290" lon="3.2020590">
        <ele>209.3</ele>
        <time>2021-06-19T10:38:34Z</time>
      </trkpt>
      <trkpt lat="39.9534370" lon="3.2025960">
        <ele>206.4</ele>
        <time>2021-06-19T10:38:39Z</time>
      </trkpt>
      <trkpt lat="39.9534490" lon="3.2026910">
        <ele>205.8</ele>
        <time>2021-06-19T10:38:40Z</time>
      </trkpt>
      <trkpt lat="39.9534770" lon="3.2027740">
        <ele>205.1</ele>
        <time>2021-06-19T10:38:41Z</time>
      </trkpt>
      <trkpt lat="39.9535270" lon="3.2028390">
        <ele>204.4</ele>
        <time>2021-06-19T10:38:42Z</time>
      </trkpt>
      <trkpt lat="39.9535980" lon="3.2028770">
        <ele>203.6</ele>
        <time>2021-06-19T10:38:43Z</time>
      </trkpt>
      <trkpt lat="39.9536750" lon="3.2028860">
        <ele>202.8</ele>
        <time>2021-06-19T10:38:44Z</time>
      </trkpt>
      <trkpt lat="39.9537500" lon="3.2028710">
        <ele>202.0</ele>
        <time>2021-06-19T10:38:45Z</time>
      </trkpt>
      <trkpt lat="39.9538580" lon="3.2027280">
        <ele>200.4</ele>
        <time>2021-06-19T10:38:47Z</time>
      </trkpt>
      <trkpt lat="39.9538630" lon="3.2025060">
        <ele>198.9</ele>
        <time>2021-06-19T10:38:49Z</time>
      </trkpt>
      <trkpt lat="39.9538370" lon="3.2022600">
        <ele>197.4</ele>
        <time>2021-06-19T10:38:51Z</time>
      </trkpt>
      <trkpt lat="39.9538500" lon="3.2021420">
        <ele>196.8</ele>
        <time>2021-06-19T10:38:52Z</time>
      </trkpt>
      <trkpt lat="39.9538840" lon="3.2020390">
        <ele>196.2</ele>
        <time>2021-06-19T10:38:53Z</time>
      </trkpt>
      <trkpt lat="39.9539390" lon="3.2019600">
        <ele>195.6</ele>
        <time>2021-06-19T10:38:54Z</time>
      </trkpt>
      <trkpt lat="39.9540130" lon="3.2019270">
        <ele>194.9</ele>
        <time>2021-06-19T10:38:55Z</time>
      </trkpt>
      <trkpt lat="39.9540950" lon="3.2019360">
        <ele>194.2</ele>
        <time>2021-06-19T10:38:56Z</time>
      </trkpt>
      <trkpt lat="39.9542540" lon="3.2020030">
        <ele>192.8</ele>
        <time>2021-06-19T10:38:58Z</time>
      </trkpt>
      <trkpt lat="39.9543260" lon="3.2019890">
        <ele>192.2</ele>
        <time>2021-06-19T10:38:59Z</time>
      </trkpt>
      <trkpt lat="39.9543940" lon="3.2019420">
        <ele>191.6</ele>
        <time>2021-06-19T10:39:00Z</time>
      </trkpt>
      <trkpt lat="39.9544970" lon="3.2018120">
        <ele>190.4</ele>
        <time>2021-06-19T10:39:02Z</time>
      </trkpt>
      <trkpt lat="39.9545270" lon="3.2017460">
        <ele>189.9</ele>
        <time>2021-06-19T10:39:03Z</time>
      </trkpt>
      <trkpt lat="39.9545490" lon="3.2016740">
        <ele>189.5</ele>
        <time>2021-06-19T10:39:05Z</time>
      </trkpt>
      <trkpt lat="39.9545480" lon="3.2016610">
        <ele>189.4</ele>
        <time>2021-06-19T10:39:06Z</time>
      </trkpt>
      <trkpt lat="39.9545470" lon="3.2016530">
        <ele>189.4</ele>
        <time>2021-06-19T10:39:08Z</time>
      </trkpt>
      <trkpt lat="39.9545470" lon="3.2016530">
        <ele>189.4</ele>
        <time>2021-06-19T10:39:16Z</time>
      </trkpt>
      <trkpt lat="39.9545470" lon="3.2016530">
        <ele>189.4</ele>
        <time>2021-06-19T10:39:18Z</time>
      </trkpt>
      <trkpt lat="39.9545470" lon="3.2016530">
        <ele>189.4</ele>
        <time>2021-06-19T10:39:26Z</time>
      </trkpt>
      <trkpt lat="39.9545470" lon="3.2016530">
        <ele>189.4</ele>
        <time>2021-06-19T10:39:31Z</time>
      </trkpt>
      <trkpt lat="39.9545470" lon="3.2016530">
        <ele>189.4</ele>
        <time>2021-06-19T10:39:36Z</time>
      </trkpt>
      <trkpt lat="39.9545470" lon="3.2016530">
        <ele>189.4</ele>
        <time>2021-06-19T10:39:37Z</time>
      </trkpt>
      <trkpt lat="39.9545470" lon="3.2016530">
        <ele>189.4</ele>
        <time>2021-06-19T10:39:39Z</time>
      </trkpt>
      <trkpt lat="39.9545470" lon="3.2016530">
        <ele>189.4</ele>
        <time>2021-06-19T10:39:54Z</time>
      </trkpt>
      <trkpt lat="39.9545540" lon="3.2016250">
        <ele>189.2</ele>
        <time>2021-06-19T10:39:57Z</time>
      </trkpt>
      <trkpt lat="39.9545630" lon="3.2015640">
        <ele>188.9</ele>
        <time>2021-06-19T10:39:59Z</time>
      </trkpt>
      <trkpt lat="39.9546320" lon="3.2013540">
        <ele>187.5</ele>
        <time>2021-06-19T10:40:04Z</time>
      </trkpt>
      <trkpt lat="39.9548290" lon="3.2011830">
        <ele>185.9</ele>
        <time>2021-06-19T10:40:09Z</time>
      </trkpt>
      <trkpt lat="39.9550320" lon="3.2010060">
        <ele>184.2</ele>
        <time>2021-06-19T10:40:13Z</time>
      </trkpt>
      <trkpt lat="39.9551400" lon="3.2009110">
        <ele>183.3</ele>
        <time>2021-06-19T10:40:15Z</time>
      </trkpt>
      <trkpt lat="39.9552710" lon="3.2008570">
        <ele>182.4</ele>
        <time>2021-06-19T10:40:17Z</time>
      </trkpt>
      <trkpt lat="39.9553450" lon="3.2008740">
        <ele>181.9</ele>
        <time>2021-06-19T10:40:18Z</time>
      </trkpt>
      <trkpt lat="39.9554090" lon="3.2009480">
        <ele>181.4</ele>
        <time>2021-06-19T10:40:19Z</time>
      </trkpt>
      <trkpt lat="39.9554550" lon="3.2010540">
        <ele>180.8</ele>
        <time>2021-06-19T10:40:20Z</time>
      </trkpt>
      <trkpt lat="39.9554740" lon="3.2011760">
        <ele>180.3</ele>
        <time>2021-06-19T10:40:21Z</time>
      </trkpt>
      <trkpt lat="39.9554680" lon="3.2012980">
        <ele>179.9</ele>
        <time>2021-06-19T10:40:22Z</time>
      </trkpt>
      <trkpt lat="39.9554520" lon="3.2014020">
        <ele>179.7</ele>
        <time>2021-06-19T10:40:23Z</time>
      </trkpt>
      <trkpt lat="39.9554180" lon="3.2015340">
        <ele>179.7</ele>
        <time>2021-06-19T10:40:25Z</time>
      </trkpt>
      <trkpt lat="39.9554090" lon="3.2016240">
        <ele>179.7</ele>
        <time>2021-06-19T10:40:28Z</time>
      </trkpt>
      <trkpt lat="39.9554310" lon="3.2015950">
        <ele>179.7</ele>
        <time>2021-06-19T10:40:30Z</time>
      </trkpt>
      <trkpt lat="39.9554350" lon="3.2015210">
        <ele>179.7</ele>
        <time>2021-06-19T10:40:32Z</time>
      </trkpt>
      <trkpt lat="39.9554970" lon="3.2013390">
        <ele>179.6</ele>
        <time>2021-06-19T10:40:37Z</time>
      </trkpt>
      <trkpt lat="39.9555000" lon="3.2013220">
        <ele>179.6</ele>
        <time>2021-06-19T10:40:38Z</time>
      </trkpt>
      <trkpt lat="39.9555000" lon="3.2013150">
        <ele>179.6</ele>
        <time>2021-06-19T10:40:40Z</time>
      </trkpt>
      <trkpt lat="39.9555000" lon="3.2013150">
        <ele>179.6</ele>
        <time>2021-06-19T10:40:44Z</time>
      </trkpt>
      <trkpt lat="39.9555000" lon="3.2013150">
        <ele>179.6</ele>
        <time>2021-06-19T10:40:46Z</time>
      </trkpt>
      <trkpt lat="39.9555000" lon="3.2013150">
        <ele>179.6</ele>
        <time>2021-06-19T10:40:49Z</time>
      </trkpt>
      <trkpt lat="39.9554990" lon="3.2013150">
        <ele>179.6</ele>
        <time>2021-06-19T10:41:05Z</time>
      </trkpt>
      <trkpt lat="39.9554980" lon="3.2013150">
        <ele>179.6</ele>
        <time>2021-06-19T10:41:19Z</time>
      </trkpt>
      <trkpt lat="39.9554980" lon="3.2013150">
        <ele>179.6</ele>
        <time>2021-06-19T10:41:21Z</time>
      </trkpt>
      <trkpt lat="39.9554900" lon="3.2013350">
        <ele>179.6</ele>
        <time>2021-06-19T10:41:27Z</time>
      </trkpt>
      <trkpt lat="39.9554300" lon="3.2015230">
        <ele>179.6</ele>
        <time>2021-06-19T10:41:34Z</time>
      </trkpt>
      <trkpt lat="39.9554080" lon="3.2015960">
        <ele>179.6</ele>
        <time>2021-06-19T10:41:36Z</time>
      </trkpt>
      <trkpt lat="39.9554130" lon="3.2017170">
        <ele>179.6</ele>
        <time>2021-06-19T10:41:39Z</time>
      </trkpt>
      <trkpt lat="39.9554450" lon="3.2020460">
        <ele>179.2</ele>
        <time>2021-06-19T10:41:46Z</time>
      </trkpt>
      <trkpt lat="39.9554540" lon="3.2020980">
        <ele>179.1</ele>
        <time>2021-06-19T10:41:47Z</time>
      </trkpt>
      <trkpt lat="39.9554970" lon="3.2024490">
        <ele>179.0</ele>
        <time>2021-06-19T10:41:53Z</time>
      </trkpt>
      <trkpt lat="39.9554950" lon="3.2025150">
        <ele>179.0</ele>
        <time>2021-06-19T10:41:54Z</time>
      </trkpt>
      <trkpt lat="39.9554750" lon="3.2026480">
        <ele>179.1</ele>
        <time>2021-06-19T10:41:56Z</time>
      </trkpt>
      <trkpt lat="39.9554550" lon="3.2027120">
        <ele>179.1</ele>
        <time>2021-06-19T10:41:57Z</time>
      </trkpt>
      <trkpt lat="39.9554190" lon="3.2027810">
        <ele>179.1</ele>
        <time>2021-06-19T10:41:58Z</time>
      </trkpt>
      <trkpt lat="39.9553010" lon="3.2029130">
        <ele>178.9</ele>
        <time>2021-06-19T10:42:01Z</time>
      </trkpt>
      <trkpt lat="39.9551100" lon="3.2030720">
        <ele>178.7</ele>
        <time>2021-06-19T10:42:05Z</time>
      </trkpt>
      <trkpt lat="39.9550140" lon="3.2031460">
        <ele>178.5</ele>
        <time>2021-06-19T10:42:07Z</time>
      </trkpt>
      <trkpt lat="39.9549170" lon="3.2032300">
        <ele>178.4</ele>
        <time>2021-06-19T10:42:09Z</time>
      </trkpt>
      <trkpt lat="39.9547930" lon="3.2033410">
        <ele>178.1</ele>
        <time>2021-06-19T10:42:12Z</time>
      </trkpt>
      <trkpt lat="39.9547530" lon="3.2033800">
        <ele>178.0</ele>
        <time>2021-06-19T10:42:13Z</time>
      </trkpt>
      <trkpt lat="39.9546810" lon="3.2034610">
        <ele>177.7</ele>
        <time>2021-06-19T10:42:15Z</time>
      </trkpt>
      <trkpt lat="39.9546430" lon="3.2035170">
        <ele>177.4</ele>
        <time>2021-06-19T10:42:16Z</time>
      </trkpt>
      <trkpt lat="39.9544620" lon="3.2038680">
        <ele>175.9</ele>
        <time>2021-06-19T10:42:21Z</time>
      </trkpt>
      <trkpt lat="39.9541950" lon="3.2043670">
        <ele>174.3</ele>
        <time>2021-06-19T10:42:27Z</time>
      </trkpt>
      <trkpt lat="39.9539540" lon="3.2049410">
        <ele>174.1</ele>
        <time>2021-06-19T10:42:34Z</time>
      </trkpt>
      <trkpt lat="39.9539210" lon="3.2050920">
        <ele>174.5</ele>
        <time>2021-06-19T10:42:36Z</time>
      </trkpt>
      <trkpt lat="39.9539110" lon="3.2051960">
        <ele>174.9</ele>
        <time>2021-06-19T10:42:38Z</time>
      </trkpt>
      <trkpt lat="39.9538980" lon="3.2052440">
        <ele>175.2</ele>
        <time>2021-06-19T10:42:39Z</time>
      </trkpt>
      <trkpt lat="39.9538780" lon="3.2053360">
        <ele>175.7</ele>
        <time>2021-06-19T10:42:41Z</time>
      </trkpt>
      <trkpt lat="39.9538390" lon="3.2055190">
        <ele>176.8</ele>
        <time>2021-06-19T10:42:46Z</time>
      </trkpt>
      <trkpt lat="39.9537980" lon="3.2056190">
        <ele>177.5</ele>
        <time>2021-06-19T10:42:49Z</time>
      </trkpt>
      <trkpt lat="39.9536680" lon="3.2059420">
        <ele>179.7</ele>
        <time>2021-06-19T10:42:58Z</time>
      </trkpt>
      <trkpt lat="39.9536110" lon="3.2061310">
        <ele>180.7</ele>
        <time>2021-06-19T10:43:03Z</time>
      </trkpt>
      <trkpt lat="39.9536040" lon="3.2062090">
        <ele>181.1</ele>
        <time>2021-06-19T10:43:05Z</time>
      </trkpt>
      <trkpt lat="39.9536240" lon="3.2063380">
        <ele>181.6</ele>
        <time>2021-06-19T10:43:08Z</time>
      </trkpt>
      <trkpt lat="39.9536330" lon="3.2064280">
        <ele>181.9</ele>
        <time>2021-06-19T10:43:10Z</time>
      </trkpt>
      <trkpt lat="39.9536560" lon="3.2065790">
        <ele>182.5</ele>
        <time>2021-06-19T10:43:13Z</time>
      </trkpt>
      <trkpt lat="39.9537090" lon="3.2069810">
        <ele>184.5</ele>
        <time>2021-06-19T10:43:21Z</time>
      </trkpt>
      <trkpt lat="39.9537330" lon="3.2071690">
        <ele>185.5</ele>
        <time>2021-06-19T10:43:25Z</time>
      </trkpt>
      <trkpt lat="39.9537670" lon="3.2072940">
        <ele>186.1</ele>
        <time>2021-06-19T10:43:28Z</time>
      </trkpt>
      <trkpt lat="39.9539040" lon="3.2075150">
        <ele>187.6</ele>
        <time>2021-06-19T10:43:34Z</time>
      </trkpt>
      <trkpt lat="39.9540430" lon="3.2076650">
        <ele>188.8</ele>
        <time>2021-06-19T10:43:39Z</time>
      </trkpt>
      <trkpt lat="39.9541070" lon="3.2077030">
        <ele>189.2</ele>
        <time>2021-06-19T10:43:41Z</time>
      </trkpt>
      <trkpt lat="39.9543850" lon="3.2078490">
        <ele>190.3</ele>
        <time>2021-06-19T10:43:49Z</time>
      </trkpt>
      <trkpt lat="39.9546920" lon="3.2080080">
        <ele>191.1</ele>
        <time>2021-06-19T10:43:57Z</time>
      </trkpt>
      <trkpt lat="39.9547280" lon="3.2080330">
        <ele>191.3</ele>
        <time>2021-06-19T10:43:58Z</time>
      </trkpt>
      <trkpt lat="39.9548880" lon="3.2081230">
        <ele>191.8</ele>
        <time>2021-06-19T10:44:02Z</time>
      </trkpt>
      <trkpt lat="39.9550400" lon="3.2081920">
        <ele>192.2</ele>
        <time>2021-06-19T10:44:05Z</time>
      </trkpt>
      <trkpt lat="39.9551260" lon="3.2082270">
        <ele>192.4</ele>
        <time>2021-06-19T10:44:07Z</time>
      </trkpt>
      <trkpt lat="39.9552640" lon="3.2082560">
        <ele>192.7</ele>
        <time>2021-06-19T10:44:10Z</time>
      </trkpt>
      <trkpt lat="39.9555450" lon="3.2082180">
        <ele>193.1</ele>
        <time>2021-06-19T10:44:16Z</time>
      </trkpt>
      <trkpt lat="39.9558410" lon="3.2081070">
        <ele>193.2</ele>
        <time>2021-06-19T10:44:22Z</time>
      </trkpt>
      <trkpt lat="39.9559510" lon="3.2080690">
        <ele>193.1</ele>
        <time>2021-06-19T10:44:24Z</time>
      </trkpt>
      <trkpt lat="39.9561260" lon="3.2080220">
        <ele>192.9</ele>
        <time>2021-06-19T10:44:27Z</time>
      </trkpt>
      <trkpt lat="39.9561920" lon="3.2080300">
        <ele>192.8</ele>
        <time>2021-06-19T10:44:28Z</time>
      </trkpt>
      <trkpt lat="39.9562580" lon="3.2080460">
        <ele>192.6</ele>
        <time>2021-06-19T10:44:29Z</time>
      </trkpt>
      <trkpt lat="39.9564640" lon="3.2081360">
        <ele>192.2</ele>
        <time>2021-06-19T10:44:32Z</time>
      </trkpt>
      <trkpt lat="39.9568710" lon="3.2083160">
        <ele>191.7</ele>
        <time>2021-06-19T10:44:38Z</time>
      </trkpt>
      <trkpt lat="39.9570080" lon="3.2083210">
        <ele>191.5</ele>
        <time>2021-06-19T10:44:40Z</time>
      </trkpt>
      <trkpt lat="39.9570730" lon="3.2082940">
        <ele>191.5</ele>
        <time>2021-06-19T10:44:41Z</time>
      </trkpt>
      <trkpt lat="39.9571310" lon="3.2082500">
        <ele>191.4</ele>
        <time>2021-06-19T10:44:42Z</time>
      </trkpt>
      <trkpt lat="39.9572110" lon="3.2081430">
        <ele>191.1</ele>
        <time>2021-06-19T10:44:44Z</time>
      </trkpt>
      <trkpt lat="39.9572500" lon="3.2078740">
        <ele>190.1</ele>
        <time>2021-06-19T10:44:47Z</time>
      </trkpt>
      <trkpt lat="39.9572500" lon="3.2075930">
        <ele>188.8</ele>
        <time>2021-06-19T10:44:50Z</time>
      </trkpt>
      <trkpt lat="39.9572680" lon="3.2074720">
        <ele>188.2</ele>
        <time>2021-06-19T10:44:51Z</time>
      </trkpt>
      <trkpt lat="39.9573120" lon="3.2073880">
        <ele>187.8</ele>
        <time>2021-06-19T10:44:52Z</time>
      </trkpt>
      <trkpt lat="39.9574360" lon="3.2072980">
        <ele>187.0</ele>
        <time>2021-06-19T10:44:54Z</time>
      </trkpt>
      <trkpt lat="39.9576140" lon="3.2073310">
        <ele>186.0</ele>
        <time>2021-06-19T10:44:56Z</time>
      </trkpt>
      <trkpt lat="39.9577240" lon="3.2075050">
        <ele>185.2</ele>
        <time>2021-06-19T10:44:58Z</time>
      </trkpt>
      <trkpt lat="39.9578530" lon="3.2078970">
        <ele>184.8</ele>
        <time>2021-06-19T10:45:02Z</time>
      </trkpt>
      <trkpt lat="39.9578900" lon="3.2080840">
        <ele>185.1</ele>
        <time>2021-06-19T10:45:04Z</time>
      </trkpt>
      <trkpt lat="39.9578850" lon="3.2082630">
        <ele>185.7</ele>
        <time>2021-06-19T10:45:06Z</time>
      </trkpt>
      <trkpt lat="39.9578670" lon="3.2084210">
        <ele>186.5</ele>
        <time>2021-06-19T10:45:08Z</time>
      </trkpt>
      <trkpt lat="39.9578110" lon="3.2086550">
        <ele>187.9</ele>
        <time>2021-06-19T10:45:12Z</time>
      </trkpt>
      <trkpt lat="39.9576550" lon="3.2089280">
        <ele>190.2</ele>
        <time>2021-06-19T10:45:19Z</time>
      </trkpt>
      <trkpt lat="39.9574860" lon="3.2091560">
        <ele>192.6</ele>
        <time>2021-06-19T10:45:26Z</time>
      </trkpt>
      <trkpt lat="39.9573290" lon="3.2093050">
        <ele>194.5</ele>
        <time>2021-06-19T10:45:32Z</time>
      </trkpt>
      <trkpt lat="39.9571610" lon="3.2094870">
        <ele>196.4</ele>
        <time>2021-06-19T10:45:39Z</time>
      </trkpt>
      <trkpt lat="39.9569760" lon="3.2097610">
        <ele>198.5</ele>
        <time>2021-06-19T10:45:47Z</time>
      </trkpt>
      <trkpt lat="39.9569510" lon="3.2097930">
        <ele>198.8</ele>
        <time>2021-06-19T10:45:48Z</time>
      </trkpt>
      <trkpt lat="39.9569090" lon="3.2098620">
        <ele>199.2</ele>
        <time>2021-06-19T10:45:50Z</time>
      </trkpt>
      <trkpt lat="39.9568880" lon="3.2098970">
        <ele>199.4</ele>
        <time>2021-06-19T10:45:51Z</time>
      </trkpt>
      <trkpt lat="39.9568470" lon="3.2099630">
        <ele>199.8</ele>
        <time>2021-06-19T10:45:53Z</time>
      </trkpt>
      <trkpt lat="39.9567470" lon="3.2101080">
        <ele>200.3</ele>
        <time>2021-06-19T10:45:58Z</time>
      </trkpt>
      <trkpt lat="39.9566140" lon="3.2103470">
        <ele>200.1</ele>
        <time>2021-06-19T10:46:04Z</time>
      </trkpt>
      <trkpt lat="39.9565430" lon="3.2104680">
        <ele>199.9</ele>
        <time>2021-06-19T10:46:07Z</time>
      </trkpt>
      <trkpt lat="39.9562980" lon="3.2108130">
        <ele>198.5</ele>
        <time>2021-06-19T10:46:15Z</time>
      </trkpt>
      <trkpt lat="39.9561590" lon="3.2109310">
        <ele>197.1</ele>
        <time>2021-06-19T10:46:19Z</time>
      </trkpt>
      <trkpt lat="39.9561470" lon="3.2109560">
        <ele>196.9</ele>
        <time>2021-06-19T10:46:20Z</time>
      </trkpt>
      <trkpt lat="39.9561250" lon="3.2110140">
        <ele>196.5</ele>
        <time>2021-06-19T10:46:23Z</time>
      </trkpt>
      <trkpt lat="39.9560870" lon="3.2110440">
        <ele>196.1</ele>
        <time>2021-06-19T10:46:25Z</time>
      </trkpt>
      <trkpt lat="39.9560470" lon="3.2110700">
        <ele>195.7</ele>
        <time>2021-06-19T10:46:27Z</time>
      </trkpt>
      <trkpt lat="39.9560190" lon="3.2110980">
        <ele>195.4</ele>
        <time>2021-06-19T10:46:29Z</time>
      </trkpt>
      <trkpt lat="39.9560100" lon="3.2111210">
        <ele>195.2</ele>
        <time>2021-06-19T10:46:31Z</time>
      </trkpt>
      <trkpt lat="39.9560100" lon="3.2111210">
        <ele>195.2</ele>
        <time>2021-06-19T10:46:36Z</time>
      </trkpt>
      <trkpt lat="39.9560120" lon="3.2111200">
        <ele>195.2</ele>
        <time>2021-06-19T10:46:38Z</time>
      </trkpt>
      <trkpt lat="39.9560130" lon="3.2111160">
        <ele>195.1</ele>
        <time>2021-06-19T10:46:40Z</time>
      </trkpt>
      <trkpt lat="39.9560130" lon="3.2111160">
        <ele>195.1</ele>
        <time>2021-06-19T10:46:42Z</time>
      </trkpt>
      <trkpt lat="39.9560130" lon="3.2111160">
        <ele>195.1</ele>
        <time>2021-06-19T10:46:51Z</time>
      </trkpt>
      <trkpt lat="39.9560130" lon="3.2111160">
        <ele>195.1</ele>
        <time>2021-06-19T10:46:54Z</time>
      </trkpt>
      <trkpt lat="39.9560100" lon="3.2111170">
        <ele>195.1</ele>
        <time>2021-06-19T10:47:01Z</time>
      </trkpt>
      <trkpt lat="39.9559820" lon="3.2111280">
        <ele>194.8</ele>
        <time>2021-06-19T10:47:02Z</time>
      </trkpt>
      <trkpt lat="39.9558250" lon="3.2112320">
        <ele>193.3</ele>
        <time>2021-06-19T10:47:06Z</time>
      </trkpt>
      <trkpt lat="39.9557880" lon="3.2112620">
        <ele>192.9</ele>
        <time>2021-06-19T10:47:07Z</time>
      </trkpt>
      <trkpt lat="39.9556840" lon="3.2113410">
        <ele>192.0</ele>
        <time>2021-06-19T10:47:09Z</time>
      </trkpt>
      <trkpt lat="39.9556130" lon="3.2113860">
        <ele>191.5</ele>
        <time>2021-06-19T10:47:10Z</time>
      </trkpt>
      <trkpt lat="39.9553410" lon="3.2115550">
        <ele>190.0</ele>
        <time>2021-06-19T10:47:15Z</time>
      </trkpt>
      <trkpt lat="39.9553010" lon="3.2116920">
        <ele>188.8</ele>
        <time>2021-06-19T10:47:17Z</time>
      </trkpt>
      <trkpt lat="39.9553490" lon="3.2118530">
        <ele>187.0</ele>
        <time>2021-06-19T10:47:19Z</time>
      </trkpt>
      <trkpt lat="39.9554010" lon="3.2119080">
        <ele>186.1</ele>
        <time>2021-06-19T10:47:20Z</time>
      </trkpt>
      <trkpt lat="39.9554680" lon="3.2119360">
        <ele>185.0</ele>
        <time>2021-06-19T10:47:21Z</time>
      </trkpt>
      <trkpt lat="39.9556230" lon="3.2119060">
        <ele>182.8</ele>
        <time>2021-06-19T10:47:23Z</time>
      </trkpt>
      <trkpt lat="39.9560310" lon="3.2116880">
        <ele>177.8</ele>
        <time>2021-06-19T10:47:28Z</time>
      </trkpt>
      <trkpt lat="39.9562840" lon="3.2115680">
        <ele>174.9</ele>
        <time>2021-06-19T10:47:31Z</time>
      </trkpt>
      <trkpt lat="39.9563650" lon="3.2115550">
        <ele>174.1</ele>
        <time>2021-06-19T10:47:32Z</time>
      </trkpt>
      <trkpt lat="39.9564410" lon="3.2115590">
        <ele>173.2</ele>
        <time>2021-06-19T10:47:33Z</time>
      </trkpt>
      <trkpt lat="39.9565840" lon="3.2115870">
        <ele>171.6</ele>
        <time>2021-06-19T10:47:35Z</time>
      </trkpt>
      <trkpt lat="39.9567380" lon="3.2116300">
        <ele>169.9</ele>
        <time>2021-06-19T10:47:38Z</time>
      </trkpt>
      <trkpt lat="39.9567710" lon="3.2116400">
        <ele>169.6</ele>
        <time>2021-06-19T10:47:39Z</time>
      </trkpt>
      <trkpt lat="39.9567970" lon="3.2116470">
        <ele>169.3</ele>
        <time>2021-06-19T10:47:41Z</time>
      </trkpt>
      <trkpt lat="39.9567970" lon="3.2116470">
        <ele>169.3</ele>
        <time>2021-06-19T10:47:42Z</time>
      </trkpt>
      <trkpt lat="39.9567970" lon="3.2116470">
        <ele>169.3</ele>
        <time>2021-06-19T10:47:48Z</time>
      </trkpt>
      <trkpt lat="39.9567970" lon="3.2116470">
        <ele>169.3</ele>
        <time>2021-06-19T10:47:49Z</time>
      </trkpt>
      <trkpt lat="39.9567970" lon="3.2116470">
        <ele>169.3</ele>
        <time>2021-06-19T10:47:50Z</time>
      </trkpt>
      <trkpt lat="39.9567970" lon="3.2116470">
        <ele>169.3</ele>
        <time>2021-06-19T10:48:13Z</time>
      </trkpt>
      <trkpt lat="39.9567970" lon="3.2116470">
        <ele>169.3</ele>
        <time>2021-06-19T10:48:18Z</time>
      </trkpt>
      <trkpt lat="39.9567970" lon="3.2116470">
        <ele>169.3</ele>
        <time>2021-06-19T10:48:22Z</time>
      </trkpt>
      <trkpt lat="39.9567970" lon="3.2116470">
        <ele>169.3</ele>
        <time>2021-06-19T10:48:24Z</time>
      </trkpt>
      <trkpt lat="39.9567970" lon="3.2116470">
        <ele>169.3</ele>
        <time>2021-06-19T10:48:29Z</time>
      </trkpt>
      <trkpt lat="39.9567970" lon="3.2116470">
        <ele>169.3</ele>
        <time>2021-06-19T10:48:50Z</time>
      </trkpt>
      <trkpt lat="39.9567970" lon="3.2116470">
        <ele>169.3</ele>
        <time>2021-06-19T10:48:52Z</time>
      </trkpt>
      <trkpt lat="39.9567970" lon="3.2116470">
        <ele>169.3</ele>
        <time>2021-06-19T10:48:55Z</time>
      </trkpt>
      <trkpt lat="39.9567970" lon="3.2116470">
        <ele>169.3</ele>
        <time>2021-06-19T10:49:00Z</time>
      </trkpt>
      <trkpt lat="39.9567970" lon="3.2116470">
        <ele>169.3</ele>
        <time>2021-06-19T10:49:03Z</time>
      </trkpt>
      <trkpt lat="39.9567970" lon="3.2116470">
        <ele>169.3</ele>
        <time>2021-06-19T10:49:05Z</time>
      </trkpt>
      <trkpt lat="39.9567970" lon="3.2116470">
        <ele>169.3</ele>
        <time>2021-06-19T10:49:09Z</time>
      </trkpt>
      <trkpt lat="39.9568010" lon="3.2116480">
        <ele>169.3</ele>
        <time>2021-06-19T10:49:18Z</time>
      </trkpt>
      <trkpt lat="39.9568430" lon="3.2116570">
        <ele>168.9</ele>
        <time>2021-06-19T10:49:22Z</time>
      </trkpt>
      <trkpt lat="39.9568640" lon="3.2116640">
        <ele>168.7</ele>
        <time>2021-06-19T10:49:24Z</time>
      </trkpt>
      <trkpt lat="39.9568940" lon="3.2116750">
        <ele>168.5</ele>
        <time>2021-06-19T10:49:29Z</time>
      </trkpt>
      <trkpt lat="39.9568940" lon="3.2116750">
        <ele>168.5</ele>
        <time>2021-06-19T10:49:31Z</time>
      </trkpt>
      <trkpt lat="39.9568940" lon="3.2116750">
        <ele>168.5</ele>
        <time>2021-06-19T10:49:35Z</time>
      </trkpt>
      <trkpt lat="39.9568940" lon="3.2116750">
        <ele>168.5</ele>
        <time>2021-06-19T10:49:39Z</time>
      </trkpt>
      <trkpt lat="39.9568940" lon="3.2116750">
        <ele>168.5</ele>
        <time>2021-06-19T10:49:42Z</time>
      </trkpt>
      <trkpt lat="39.9568940" lon="3.2116750">
        <ele>168.5</ele>
        <time>2021-06-19T10:49:49Z</time>
      </trkpt>
      <trkpt lat="39.9568940" lon="3.2116750">
        <ele>168.5</ele>
        <time>2021-06-19T10:49:52Z</time>
      </trkpt>
      <trkpt lat="39.9568940" lon="3.2116750">
        <ele>168.5</ele>
        <time>2021-06-19T10:49:55Z</time>
      </trkpt>
      <trkpt lat="39.9568960" lon="3.2116710">
        <ele>168.4</ele>
        <time>2021-06-19T10:49:57Z</time>
      </trkpt>
      <trkpt lat="39.9568970" lon="3.2116710">
        <ele>168.4</ele>
        <time>2021-06-19T10:49:59Z</time>
      </trkpt>
      <trkpt lat="39.9568970" lon="3.2116740">
        <ele>168.4</ele>
        <time>2021-06-19T10:50:30Z</time>
      </trkpt>
      <trkpt lat="39.9569000" lon="3.2116780">
        <ele>168.4</ele>
        <time>2021-06-19T10:50:40Z</time>
      </trkpt>
      <trkpt lat="39.9569060" lon="3.2116850">
        <ele>168.3</ele>
        <time>2021-06-19T10:50:43Z</time>
      </trkpt>
      <trkpt lat="39.9569060" lon="3.2116890">
        <ele>168.3</ele>
        <time>2021-06-19T10:50:59Z</time>
      </trkpt>
      <trkpt lat="39.9569060" lon="3.2116890">
        <ele>168.3</ele>
        <time>2021-06-19T10:51:05Z</time>
      </trkpt>
      <trkpt lat="39.9569060" lon="3.2116890">
        <ele>168.3</ele>
        <time>2021-06-19T10:51:13Z</time>
      </trkpt>
      <trkpt lat="39.9569060" lon="3.2116890">
        <ele>168.3</ele>
        <time>2021-06-19T10:51:14Z</time>
      </trkpt>
      <trkpt lat="39.9569060" lon="3.2116890">
        <ele>168.3</ele>
        <time>2021-06-19T10:51:15Z</time>
      </trkpt>
      <trkpt lat="39.9569060" lon="3.2116890">
        <ele>168.3</ele>
        <time>2021-06-19T10:51:16Z</time>
      </trkpt>
      <trkpt lat="39.9569060" lon="3.2116890">
        <ele>168.3</ele>
        <time>2021-06-19T10:51:17Z</time>
      </trkpt>
      <trkpt lat="39.9569060" lon="3.2116890">
        <ele>168.3</ele>
        <time>2021-06-19T10:51:19Z</time>
      </trkpt>
      <trkpt lat="39.9569060" lon="3.2116890">
        <ele>168.3</ele>
        <time>2021-06-19T10:51:30Z</time>
      </trkpt>
      <trkpt lat="39.9569060" lon="3.2116890">
        <ele>168.3</ele>
        <time>2021-06-19T10:51:35Z</time>
      </trkpt>
      <trkpt lat="39.9569060" lon="3.2116890">
        <ele>168.3</ele>
        <time>2021-06-19T10:51:37Z</time>
      </trkpt>
      <trkpt lat="39.9569140" lon="3.2116850">
        <ele>168.2</ele>
        <time>2021-06-19T10:51:53Z</time>
      </trkpt>
      <trkpt lat="39.9569140" lon="3.2116850">
        <ele>168.2</ele>
        <time>2021-06-19T10:51:58Z</time>
      </trkpt>
      <trkpt lat="39.9569140" lon="3.2116850">
        <ele>168.2</ele>
        <time>2021-06-19T10:52:12Z</time>
      </trkpt>
      <trkpt lat="39.9569140" lon="3.2116850">
        <ele>168.2</ele>
        <time>2021-06-19T10:52:15Z</time>
      </trkpt>
      <trkpt lat="39.9569120" lon="3.2116850">
        <ele>168.2</ele>
        <time>2021-06-19T10:52:17Z</time>
      </trkpt>
      <trkpt lat="39.9569060" lon="3.2116830">
        <ele>168.1</ele>
        <time>2021-06-19T10:52:20Z</time>
      </trkpt>
      <trkpt lat="39.9569060" lon="3.2116830">
        <ele>168.1</ele>
        <time>2021-06-19T10:52:25Z</time>
      </trkpt>
      <trkpt lat="39.9568970" lon="3.2116820">
        <ele>168.1</ele>
        <time>2021-06-19T10:52:37Z</time>
      </trkpt>
      <trkpt lat="39.9568970" lon="3.2116820">
        <ele>168.1</ele>
        <time>2021-06-19T10:52:40Z</time>
      </trkpt>
      <trkpt lat="39.9568970" lon="3.2116820">
        <ele>168.1</ele>
        <time>2021-06-19T10:52:44Z</time>
      </trkpt>
      <trkpt lat="39.9568970" lon="3.2116820">
        <ele>168.1</ele>
        <time>2021-06-19T10:52:54Z</time>
      </trkpt>
      <trkpt lat="39.9569200" lon="3.2116810">
        <ele>167.9</ele>
        <time>2021-06-19T10:52:58Z</time>
      </trkpt>
      <trkpt lat="39.9569620" lon="3.2116870">
        <ele>167.5</ele>
        <time>2021-06-19T10:53:00Z</time>
      </trkpt>
      <trkpt lat="39.9570490" lon="3.2117000">
        <ele>166.8</ele>
        <time>2021-06-19T10:53:03Z</time>
      </trkpt>
      <trkpt lat="39.9571230" lon="3.2117170">
        <ele>166.2</ele>
        <time>2021-06-19T10:53:05Z</time>
      </trkpt>
      <trkpt lat="39.9572090" lon="3.2117380">
        <ele>165.4</ele>
        <time>2021-06-19T10:53:07Z</time>
      </trkpt>
      <trkpt lat="39.9573080" lon="3.2117680">
        <ele>164.3</ele>
        <time>2021-06-19T10:53:09Z</time>
      </trkpt>
      <trkpt lat="39.9573660" lon="3.2117670">
        <ele>163.7</ele>
        <time>2021-06-19T10:53:10Z</time>
      </trkpt>
      <trkpt lat="39.9574260" lon="3.2117570">
        <ele>162.9</ele>
        <time>2021-06-19T10:53:11Z</time>
      </trkpt>
      <trkpt lat="39.9575490" lon="3.2117010">
        <ele>161.2</ele>
        <time>2021-06-19T10:53:13Z</time>
      </trkpt>
      <trkpt lat="39.9576140" lon="3.2116590">
        <ele>160.3</ele>
        <time>2021-06-19T10:53:14Z</time>
      </trkpt>
      <trkpt lat="39.9578240" lon="3.2115180">
        <ele>157.6</ele>
        <time>2021-06-19T10:53:17Z</time>
      </trkpt>
      <trkpt lat="39.9579740" lon="3.2114240">
        <ele>155.7</ele>
        <time>2021-06-19T10:53:19Z</time>
      </trkpt>
      <trkpt lat="39.9580520" lon="3.2113790">
        <ele>154.9</ele>
        <time>2021-06-19T10:53:20Z</time>
      </trkpt>
      <trkpt lat="39.9582240" lon="3.2112980">
        <ele>153.2</ele>
        <time>2021-06-19T10:53:22Z</time>
      </trkpt>
      <trkpt lat="39.9584200" lon="3.2112610">
        <ele>151.7</ele>
        <time>2021-06-19T10:53:24Z</time>
      </trkpt>
      <trkpt lat="39.9587210" lon="3.2112230">
        <ele>149.7</ele>
        <time>2021-06-19T10:53:27Z</time>
      </trkpt>
      <trkpt lat="39.9588960" lon="3.2111400">
        <ele>147.8</ele>
        <time>2021-06-19T10:53:29Z</time>
      </trkpt>
      <trkpt lat="39.9590400" lon="3.2109710">
        <ele>145.3</ele>
        <time>2021-06-19T10:53:31Z</time>
      </trkpt>
      <trkpt lat="39.9591020" lon="3.2108620">
        <ele>143.9</ele>
        <time>2021-06-19T10:53:32Z</time>
      </trkpt>
      <trkpt lat="39.9594010" lon="3.2103250">
        <ele>138.7</ele>
        <time>2021-06-19T10:53:37Z</time>
      </trkpt>
      <trkpt lat="39.9594640" lon="3.2102470">
        <ele>138.0</ele>
        <time>2021-06-19T10:53:38Z</time>
      </trkpt>
      <trkpt lat="39.9595410" lon="3.2101700">
        <ele>137.1</ele>
        <time>2021-06-19T10:53:39Z</time>
      </trkpt>
      <trkpt lat="39.9596850" lon="3.2100760">
        <ele>135.9</ele>
        <time>2021-06-19T10:53:41Z</time>
      </trkpt>
      <trkpt lat="39.9597410" lon="3.2100370">
        <ele>135.4</ele>
        <time>2021-06-19T10:53:42Z</time>
      </trkpt>
      <trkpt lat="39.9599530" lon="3.2099000">
        <ele>133.7</ele>
        <time>2021-06-19T10:53:45Z</time>
      </trkpt>
      <trkpt lat="39.9601240" lon="3.2099190">
        <ele>132.5</ele>
        <time>2021-06-19T10:53:47Z</time>
      </trkpt>
      <trkpt lat="39.9602810" lon="3.2100380">
        <ele>131.7</ele>
        <time>2021-06-19T10:53:49Z</time>
      </trkpt>
      <trkpt lat="39.9603350" lon="3.2101380">
        <ele>131.6</ele>
        <time>2021-06-19T10:53:50Z</time>
      </trkpt>
      <trkpt lat="39.9603690" lon="3.2102460">
        <ele>131.8</ele>
        <time>2021-06-19T10:53:51Z</time>
      </trkpt>
      <trkpt lat="39.9603800" lon="3.2104280">
        <ele>132.5</ele>
        <time>2021-06-19T10:53:53Z</time>
      </trkpt>
      <trkpt lat="39.9603780" lon="3.2105340">
        <ele>133.2</ele>
        <time>2021-06-19T10:53:54Z</time>
      </trkpt>
      <trkpt lat="39.9603950" lon="3.2106650">
        <ele>134.1</ele>
        <time>2021-06-19T10:53:56Z</time>
      </trkpt>
      <trkpt lat="39.9604740" lon="3.2108380">
        <ele>135.4</ele>
        <time>2021-06-19T10:54:00Z</time>
      </trkpt>
      <trkpt lat="39.9605160" lon="3.2109110">
        <ele>135.9</ele>
        <time>2021-06-19T10:54:02Z</time>
      </trkpt>
      <trkpt lat="39.9606070" lon="3.2110530">
        <ele>137.1</ele>
        <time>2021-06-19T10:54:06Z</time>
      </trkpt>
      <trkpt lat="39.9606250" lon="3.2110850">
        <ele>137.3</ele>
        <time>2021-06-19T10:54:07Z</time>
      </trkpt>
      <trkpt lat="39.9606730" lon="3.2111810">
        <ele>138.1</ele>
        <time>2021-06-19T10:54:10Z</time>
      </trkpt>
      <trkpt lat="39.9606680" lon="3.2112570">
        <ele>138.4</ele>
        <time>2021-06-19T10:54:12Z</time>
      </trkpt>
      <trkpt lat="39.9605810" lon="3.2115010">
        <ele>139.8</ele>
        <time>2021-06-19T10:54:18Z</time>
      </trkpt>
      <trkpt lat="39.9604410" lon="3.2118060">
        <ele>141.8</ele>
        <time>2021-06-19T10:54:26Z</time>
      </trkpt>
      <trkpt lat="39.9603550" lon="3.2120550">
        <ele>144.2</ele>
        <time>2021-06-19T10:54:33Z</time>
      </trkpt>
      <trkpt lat="39.9603590" lon="3.2120880">
        <ele>144.4</ele>
        <time>2021-06-19T10:54:34Z</time>
      </trkpt>
      <trkpt lat="39.9603980" lon="3.2121430">
        <ele>144.9</ele>
        <time>2021-06-19T10:54:36Z</time>
      </trkpt>
      <trkpt lat="39.9604510" lon="3.2121550">
        <ele>145.3</ele>
        <time>2021-06-19T10:54:38Z</time>
      </trkpt>
      <trkpt lat="39.9605040" lon="3.2121270">
        <ele>145.6</ele>
        <time>2021-06-19T10:54:40Z</time>
      </trkpt>
      <trkpt lat="39.9606150" lon="3.2119360">
        <ele>146.6</ele>
        <time>2021-06-19T10:54:46Z</time>
      </trkpt>
      <trkpt lat="39.9606850" lon="3.2117280">
        <ele>147.5</ele>
        <time>2021-06-19T10:54:51Z</time>
      </trkpt>
      <trkpt lat="39.9607540" lon="3.2115710">
        <ele>148.3</ele>
        <time>2021-06-19T10:54:55Z</time>
      </trkpt>
      <trkpt lat="39.9608620" lon="3.2113460">
        <ele>149.7</ele>
        <time>2021-06-19T10:55:01Z</time>
      </trkpt>
      <trkpt lat="39.9609680" lon="3.2112420">
        <ele>150.8</ele>
        <time>2021-06-19T10:55:05Z</time>
      </trkpt>
      <trkpt lat="39.9610700" lon="3.2113240">
        <ele>151.8</ele>
        <time>2021-06-19T10:55:09Z</time>
      </trkpt>
      <trkpt lat="39.9610800" lon="3.2114740">
        <ele>152.7</ele>
        <time>2021-06-19T10:55:13Z</time>
      </trkpt>
      <trkpt lat="39.9609810" lon="3.2116180">
        <ele>153.7</ele>
        <time>2021-06-19T10:55:18Z</time>
      </trkpt>
      <trkpt lat="39.9609120" lon="3.2117070">
        <ele>154.4</ele>
        <time>2021-06-19T10:55:21Z</time>
      </trkpt>
      <trkpt lat="39.9608680" lon="3.2117540">
        <ele>154.8</ele>
        <time>2021-06-19T10:55:23Z</time>
      </trkpt>
      <trkpt lat="39.9608060" lon="3.2118190">
        <ele>155.4</ele>
        <time>2021-06-19T10:55:26Z</time>
      </trkpt>
      <trkpt lat="39.9607540" lon="3.2118980">
        <ele>156.0</ele>
        <time>2021-06-19T10:55:29Z</time>
      </trkpt>
      <trkpt lat="39.9606920" lon="3.2120180">
        <ele>156.8</ele>
        <time>2021-06-19T10:55:33Z</time>
      </trkpt>
      <trkpt lat="39.9606880" lon="3.2121920">
        <ele>157.9</ele>
        <time>2021-06-19T10:55:38Z</time>
      </trkpt>
      <trkpt lat="39.9607080" lon="3.2122660">
        <ele>158.4</ele>
        <time>2021-06-19T10:55:40Z</time>
      </trkpt>
      <trkpt lat="39.9607950" lon="3.2124150">
        <ele>159.5</ele>
        <time>2021-06-19T10:55:45Z</time>
      </trkpt>
      <trkpt lat="39.9610300" lon="3.2127290">
        <ele>161.8</ele>
        <time>2021-06-19T10:55:56Z</time>
      </trkpt>
      <trkpt lat="39.9610550" lon="3.2127560">
        <ele>162.0</ele>
        <time>2021-06-19T10:55:57Z</time>
      </trkpt>
      <trkpt lat="39.9611410" lon="3.2128030">
        <ele>162.6</ele>
        <time>2021-06-19T10:56:00Z</time>
      </trkpt>
      <trkpt lat="39.9611720" lon="3.2127970">
        <ele>162.8</ele>
        <time>2021-06-19T10:56:01Z</time>
      </trkpt>
      <trkpt lat="39.9612240" lon="3.2127640">
        <ele>163.2</ele>
        <time>2021-06-19T10:56:03Z</time>
      </trkpt>
      <trkpt lat="39.9612590" lon="3.2127110">
        <ele>164.1</ele>
        <time>2021-06-19T10:56:05Z</time>
      </trkpt>
      <trkpt lat="39.9612670" lon="3.2126830">
        <ele>164.2</ele>
        <time>2021-06-19T10:56:06Z</time>
      </trkpt>
      <trkpt lat="39.9612670" lon="3.2126510">
        <ele>164.3</ele>
        <time>2021-06-19T10:56:07Z</time>
      </trkpt>
      <trkpt lat="39.9612640" lon="3.2126170">
        <ele>164.4</ele>
        <time>2021-06-19T10:56:08Z</time>
      </trkpt>
      <trkpt lat="39.9612590" lon="3.2125830">
        <ele>164.5</ele>
        <time>2021-06-19T10:56:09Z</time>
      </trkpt>
      <trkpt lat="39.9612360" lon="3.2125170">
        <ele>164.8</ele>
        <time>2021-06-19T10:56:11Z</time>
      </trkpt>
      <trkpt lat="39.9612180" lon="3.2124880">
        <ele>164.9</ele>
        <time>2021-06-19T10:56:12Z</time>
      </trkpt>
      <trkpt lat="39.9611080" lon="3.2123020">
        <ele>165.6</ele>
        <time>2021-06-19T10:56:19Z</time>
      </trkpt>
      <trkpt lat="39.9610950" lon="3.2122400">
        <ele>165.8</ele>
        <time>2021-06-19T10:56:21Z</time>
      </trkpt>
      <trkpt lat="39.9610950" lon="3.2121790">
        <ele>166.0</ele>
        <time>2021-06-19T10:56:23Z</time>
      </trkpt>
      <trkpt lat="39.9611000" lon="3.2121510">
        <ele>166.3</ele>
        <time>2021-06-19T10:56:24Z</time>
      </trkpt>
      <trkpt lat="39.9611090" lon="3.2121250">
        <ele>166.3</ele>
        <time>2021-06-19T10:56:25Z</time>
      </trkpt>
      <trkpt lat="39.9611220" lon="3.2120770">
        <ele>166.3</ele>
        <time>2021-06-19T10:56:27Z</time>
      </trkpt>
      <trkpt lat="39.9611330" lon="3.2120370">
        <ele>166.3</ele>
        <time>2021-06-19T10:56:31Z</time>
      </trkpt>
      <trkpt lat="39.9611330" lon="3.2120370">
        <ele>166.3</ele>
        <time>2021-06-19T10:56:39Z</time>
      </trkpt>
      <trkpt lat="39.9611320" lon="3.2120200">
        <ele>166.3</ele>
        <time>2021-06-19T10:56:43Z</time>
      </trkpt>
      <trkpt lat="39.9611320" lon="3.2120200">
        <ele>166.3</ele>
        <time>2021-06-19T10:56:44Z</time>
      </trkpt>
      <trkpt lat="39.9611300" lon="3.2120180">
        <ele>166.3</ele>
        <time>2021-06-19T10:56:49Z</time>
      </trkpt>
      <trkpt lat="39.9611300" lon="3.2120180">
        <ele>166.3</ele>
        <time>2021-06-19T10:56:50Z</time>
      </trkpt>
      <trkpt lat="39.9611300" lon="3.2120180">
        <ele>166.3</ele>
        <time>2021-06-19T10:56:53Z</time>
      </trkpt>
      <trkpt lat="39.9611170" lon="3.2120100">
        <ele>166.3</ele>
        <time>2021-06-19T10:57:05Z</time>
      </trkpt>
      <trkpt lat="39.9611160" lon="3.2120100">
        <ele>166.3</ele>
        <time>2021-06-19T10:57:07Z</time>
      </trkpt>
      <trkpt lat="39.9611160" lon="3.2120100">
        <ele>166.3</ele>
        <time>2021-06-19T10:57:08Z</time>
      </trkpt>
      <trkpt lat="39.9611150" lon="3.2120100">
        <ele>166.3</ele>
        <time>2021-06-19T10:57:10Z</time>
      </trkpt>
      <trkpt lat="39.9611150" lon="3.2120100">
        <ele>166.3</ele>
        <time>2021-06-19T10:57:11Z</time>
      </trkpt>
      <trkpt lat="39.9611150" lon="3.2120100">
        <ele>166.3</ele>
        <time>2021-06-19T10:57:13Z</time>
      </trkpt>
      <trkpt lat="39.9611150" lon="3.2120100">
        <ele>166.3</ele>
        <time>2021-06-19T10:57:15Z</time>
      </trkpt>
      <trkpt lat="39.9611150" lon="3.2120100">
        <ele>166.3</ele>
        <time>2021-06-19T10:57:19Z</time>
      </trkpt>
      <trkpt lat="39.9611150" lon="3.2120100">
        <ele>166.3</ele>
        <time>2021-06-19T10:57:37Z</time>
      </trkpt>
      <trkpt lat="39.9611150" lon="3.2120100">
        <ele>166.3</ele>
        <time>2021-06-19T10:57:39Z</time>
      </trkpt>
      <trkpt lat="39.9611150" lon="3.2120100">
        <ele>166.3</ele>
        <time>2021-06-19T10:57:40Z</time>
      </trkpt>
      <trkpt lat="39.9611150" lon="3.2120100">
        <ele>166.3</ele>
        <time>2021-06-19T10:57:43Z</time>
      </trkpt>
      <trkpt lat="39.9611190" lon="3.2120120">
        <ele>166.3</ele>
        <time>2021-06-19T10:57:54Z</time>
      </trkpt>
      <trkpt lat="39.9611190" lon="3.2120120">
        <ele>166.3</ele>
        <time>2021-06-19T10:58:20Z</time>
      </trkpt>
      <trkpt lat="39.9611190" lon="3.2120120">
        <ele>166.3</ele>
        <time>2021-06-19T10:58:24Z</time>
      </trkpt>
      <trkpt lat="39.9611190" lon="3.2120120">
        <ele>166.3</ele>
        <time>2021-06-19T10:58:31Z</time>
      </trkpt>
      <trkpt lat="39.9611190" lon="3.2120120">
        <ele>166.3</ele>
        <time>2021-06-19T10:58:37Z</time>
      </trkpt>
      <trkpt lat="39.9611190" lon="3.2120120">
        <ele>166.3</ele>
        <time>2021-06-19T10:58:42Z</time>
      </trkpt>
      <trkpt lat="39.9611180" lon="3.2120110">
        <ele>166.3</ele>
        <time>2021-06-19T10:58:49Z</time>
      </trkpt>
      <trkpt lat="39.9611110" lon="3.2120030">
        <ele>166.2</ele>
        <time>2021-06-19T10:59:16Z</time>
      </trkpt>
      <trkpt lat="39.9611110" lon="3.2120030">
        <ele>166.2</ele>
        <time>2021-06-19T10:59:19Z</time>
      </trkpt>
      <trkpt lat="39.9611110" lon="3.2120030">
        <ele>166.2</ele>
        <time>2021-06-19T10:59:21Z</time>
      </trkpt>
      <trkpt lat="39.9611110" lon="3.2120030">
        <ele>166.2</ele>
        <time>2021-06-19T10:59:23Z</time>
      </trkpt>
      <trkpt lat="39.9611110" lon="3.2120030">
        <ele>166.2</ele>
        <time>2021-06-19T10:59:42Z</time>
      </trkpt>
      <trkpt lat="39.9611110" lon="3.2120030">
        <ele>166.2</ele>
        <time>2021-06-19T10:59:50Z</time>
      </trkpt>
      <trkpt lat="39.9611110" lon="3.2120030">
        <ele>166.2</ele>
        <time>2021-06-19T10:59:54Z</time>
      </trkpt>
      <trkpt lat="39.9611120" lon="3.2120030">
        <ele>166.2</ele>
        <time>2021-06-19T11:00:02Z</time>
      </trkpt>
      <trkpt lat="39.9611120" lon="3.2120030">
        <ele>166.2</ele>
        <time>2021-06-19T11:00:04Z</time>
      </trkpt>
      <trkpt lat="39.9611120" lon="3.2120030">
        <ele>166.2</ele>
        <time>2021-06-19T11:00:05Z</time>
      </trkpt>
      <trkpt lat="39.9611120" lon="3.2120030">
        <ele>166.2</ele>
        <time>2021-06-19T11:00:11Z</time>
      </trkpt>
      <trkpt lat="39.9611120" lon="3.2120040">
        <ele>166.2</ele>
        <time>2021-06-19T11:00:23Z</time>
      </trkpt>
      <trkpt lat="39.9611120" lon="3.2120040">
        <ele>166.2</ele>
        <time>2021-06-19T11:00:28Z</time>
      </trkpt>
      <trkpt lat="39.9611120" lon="3.2120040">
        <ele>166.2</ele>
        <time>2021-06-19T11:00:30Z</time>
      </trkpt>
      <trkpt lat="39.9611120" lon="3.2120040">
        <ele>166.2</ele>
        <time>2021-06-19T11:00:35Z</time>
      </trkpt>
      <trkpt lat="39.9611120" lon="3.2120040">
        <ele>166.2</ele>
        <time>2021-06-19T11:00:40Z</time>
      </trkpt>
      <trkpt lat="39.9611120" lon="3.2120040">
        <ele>166.2</ele>
        <time>2021-06-19T11:00:44Z</time>
      </trkpt>
      <trkpt lat="39.9611120" lon="3.2120040">
        <ele>166.2</ele>
        <time>2021-06-19T11:00:46Z</time>
      </trkpt>
      <trkpt lat="39.9611120" lon="3.2120040">
        <ele>166.2</ele>
        <time>2021-06-19T11:00:47Z</time>
      </trkpt>
      <trkpt lat="39.9611120" lon="3.2120040">
        <ele>166.2</ele>
        <time>2021-06-19T11:00:50Z</time>
      </trkpt>
      <trkpt lat="39.9611120" lon="3.2120040">
        <ele>166.2</ele>
        <time>2021-06-19T11:01:03Z</time>
      </trkpt>
      <trkpt lat="39.9611130" lon="3.2120040">
        <ele>166.2</ele>
        <time>2021-06-19T11:01:23Z</time>
      </trkpt>
      <trkpt lat="39.9611130" lon="3.2120040">
        <ele>166.2</ele>
        <time>2021-06-19T11:01:26Z</time>
      </trkpt>
      <trkpt lat="39.9611130" lon="3.2120040">
        <ele>166.2</ele>
        <time>2021-06-19T11:01:28Z</time>
      </trkpt>
      <trkpt lat="39.9611130" lon="3.2120040">
        <ele>166.2</ele>
        <time>2021-06-19T11:01:41Z</time>
      </trkpt>
      <trkpt lat="39.9611130" lon="3.2120040">
        <ele>166.2</ele>
        <time>2021-06-19T11:01:46Z</time>
      </trkpt>
      <trkpt lat="39.9611240" lon="3.2120030">
        <ele>166.2</ele>
        <time>2021-06-19T11:02:04Z</time>
      </trkpt>
      <trkpt lat="39.9611240" lon="3.2120030">
        <ele>166.2</ele>
        <time>2021-06-19T11:02:11Z</time>
      </trkpt>
      <trkpt lat="39.9611300" lon="3.2120110">
        <ele>166.2</ele>
        <time>2021-06-19T11:02:17Z</time>
      </trkpt>
      <trkpt lat="39.9611320" lon="3.2120130">
        <ele>166.2</ele>
        <time>2021-06-19T11:02:20Z</time>
      </trkpt>
      <trkpt lat="39.9611500" lon="3.2120380">
        <ele>166.2</ele>
        <time>2021-06-19T11:02:22Z</time>
      </trkpt>
      <trkpt lat="39.9611600" lon="3.2120730">
        <ele>166.2</ele>
        <time>2021-06-19T11:02:24Z</time>
      </trkpt>
      <trkpt lat="39.9611580" lon="3.2120930">
        <ele>166.2</ele>
        <time>2021-06-19T11:02:25Z</time>
      </trkpt>
      <trkpt lat="39.9610860" lon="3.2122200">
        <ele>166.0</ele>
        <time>2021-06-19T11:02:33Z</time>
      </trkpt>
      <trkpt lat="39.9610690" lon="3.2122590">
        <ele>165.9</ele>
        <time>2021-06-19T11:02:35Z</time>
      </trkpt>
      <trkpt lat="39.9610660" lon="3.2122990">
        <ele>165.8</ele>
        <time>2021-06-19T11:02:37Z</time>
      </trkpt>
      <trkpt lat="39.9610710" lon="3.2123160">
        <ele>165.8</ele>
        <time>2021-06-19T11:02:38Z</time>
      </trkpt>
      <trkpt lat="39.9610800" lon="3.2123260">
        <ele>165.7</ele>
        <time>2021-06-19T11:02:39Z</time>
      </trkpt>
      <trkpt lat="39.9611130" lon="3.2123530">
        <ele>165.6</ele>
        <time>2021-06-19T11:02:41Z</time>
      </trkpt>
      <trkpt lat="39.9611420" lon="3.2123970">
        <ele>165.4</ele>
        <time>2021-06-19T11:02:43Z</time>
      </trkpt>
      <trkpt lat="39.9612100" lon="3.2124970">
        <ele>164.9</ele>
        <time>2021-06-19T11:02:46Z</time>
      </trkpt>
      <trkpt lat="39.9612560" lon="3.2125660">
        <ele>164.6</ele>
        <time>2021-06-19T11:02:48Z</time>
      </trkpt>
      <trkpt lat="39.9612530" lon="3.2127250">
        <ele>164.1</ele>
        <time>2021-06-19T11:02:52Z</time>
      </trkpt>
      <trkpt lat="39.9611920" lon="3.2127860">
        <ele>163.1</ele>
        <time>2021-06-19T11:02:54Z</time>
      </trkpt>
      <trkpt lat="39.9611400" lon="3.2127900">
        <ele>162.7</ele>
        <time>2021-06-19T11:02:55Z</time>
      </trkpt>
      <trkpt lat="39.9610970" lon="3.2127670">
        <ele>162.4</ele>
        <time>2021-06-19T11:02:56Z</time>
      </trkpt>
      <trkpt lat="39.9610240" lon="3.2126900">
        <ele>161.7</ele>
        <time>2021-06-19T11:02:58Z</time>
      </trkpt>
      <trkpt lat="39.9608240" lon="3.2124230">
        <ele>159.8</ele>
        <time>2021-06-19T11:03:04Z</time>
      </trkpt>
      <trkpt lat="39.9607380" lon="3.2122830">
        <ele>158.7</ele>
        <time>2021-06-19T11:03:07Z</time>
      </trkpt>
      <trkpt lat="39.9607030" lon="3.2121560">
        <ele>157.8</ele>
        <time>2021-06-19T11:03:09Z</time>
      </trkpt>
      <trkpt lat="39.9606960" lon="3.2120870">
        <ele>157.4</ele>
        <time>2021-06-19T11:03:10Z</time>
      </trkpt>
      <trkpt lat="39.9607230" lon="3.2119540">
        <ele>156.5</ele>
        <time>2021-06-19T11:03:12Z</time>
      </trkpt>
      <trkpt lat="39.9608410" lon="3.2117770">
        <ele>155.0</ele>
        <time>2021-06-19T11:03:15Z</time>
      </trkpt>
      <trkpt lat="39.9610940" lon="3.2114790">
        <ele>152.6</ele>
        <time>2021-06-19T11:03:21Z</time>
      </trkpt>
      <trkpt lat="39.9611100" lon="3.2114210">
        <ele>152.2</ele>
        <time>2021-06-19T11:03:22Z</time>
      </trkpt>
      <trkpt lat="39.9611060" lon="3.2113720">
        <ele>151.9</ele>
        <time>2021-06-19T11:03:23Z</time>
      </trkpt>
      <trkpt lat="39.9610380" lon="3.2112700">
        <ele>151.0</ele>
        <time>2021-06-19T11:03:25Z</time>
      </trkpt>
      <trkpt lat="39.9609340" lon="3.2112480">
        <ele>150.1</ele>
        <time>2021-06-19T11:03:27Z</time>
      </trkpt>
      <trkpt lat="39.9608840" lon="3.2112810">
        <ele>149.6</ele>
        <time>2021-06-19T11:03:28Z</time>
      </trkpt>
      <trkpt lat="39.9608440" lon="3.2113430">
        <ele>149.1</ele>
        <time>2021-06-19T11:03:29Z</time>
      </trkpt>
      <trkpt lat="39.9607740" lon="3.2114970">
        <ele>148.2</ele>
        <time>2021-06-19T11:03:31Z</time>
      </trkpt>
      <trkpt lat="39.9607070" lon="3.2116490">
        <ele>147.4</ele>
        <time>2021-06-19T11:03:33Z</time>
      </trkpt>
      <trkpt lat="39.9606330" lon="3.2118280">
        <ele>146.6</ele>
        <time>2021-06-19T11:03:35Z</time>
      </trkpt>
      <trkpt lat="39.9605720" lon="3.2119820">
        <ele>145.8</ele>
        <time>2021-06-19T11:03:37Z</time>
      </trkpt>
      <trkpt lat="39.9605190" lon="3.2120930">
        <ele>145.2</ele>
        <time>2021-06-19T11:03:39Z</time>
      </trkpt>
      <trkpt lat="39.9604850" lon="3.2121220">
        <ele>144.9</ele>
        <time>2021-06-19T11:03:40Z</time>
      </trkpt>
      <trkpt lat="39.9604430" lon="3.2121200">
        <ele>144.5</ele>
        <time>2021-06-19T11:03:41Z</time>
      </trkpt>
      <trkpt lat="39.9604060" lon="3.2120900">
        <ele>144.1</ele>
        <time>2021-06-19T11:03:42Z</time>
      </trkpt>
      <trkpt lat="39.9603870" lon="3.2120340">
        <ele>143.6</ele>
        <time>2021-06-19T11:03:43Z</time>
      </trkpt>
      <trkpt lat="39.9603920" lon="3.2119580">
        <ele>143.0</ele>
        <time>2021-06-19T11:03:44Z</time>
      </trkpt>
      <trkpt lat="39.9604140" lon="3.2118750">
        <ele>142.3</ele>
        <time>2021-06-19T11:03:45Z</time>
      </trkpt>
      <trkpt lat="39.9604840" lon="3.2117140">
        <ele>141.2</ele>
        <time>2021-06-19T11:03:47Z</time>
      </trkpt>
      <trkpt lat="39.9606430" lon="3.2113360">
        <ele>138.9</ele>
        <time>2021-06-19T11:03:52Z</time>
      </trkpt>
      <trkpt lat="39.9606540" lon="3.2112570">
        <ele>138.5</ele>
        <time>2021-06-19T11:03:53Z</time>
      </trkpt>
      <trkpt lat="39.9606500" lon="3.2111780">
        <ele>138.1</ele>
        <time>2021-06-19T11:03:54Z</time>
      </trkpt>
      <trkpt lat="39.9605880" lon="3.2110210">
        <ele>136.9</ele>
        <time>2021-06-19T11:03:56Z</time>
      </trkpt>
      <trkpt lat="39.9604400" lon="3.2107800">
        <ele>135.0</ele>
        <time>2021-06-19T11:03:59Z</time>
      </trkpt>
      <trkpt lat="39.9603760" lon="3.2105780">
        <ele>133.6</ele>
        <time>2021-06-19T11:04:01Z</time>
      </trkpt>
      <trkpt lat="39.9603740" lon="3.2103600">
        <ele>132.3</ele>
        <time>2021-06-19T11:04:03Z</time>
      </trkpt>
      <trkpt lat="39.9603640" lon="3.2102500">
        <ele>131.8</ele>
        <time>2021-06-19T11:04:04Z</time>
      </trkpt>
      <trkpt lat="39.9603330" lon="3.2101460">
        <ele>131.6</ele>
        <time>2021-06-19T11:04:05Z</time>
      </trkpt>
      <trkpt lat="39.9602820" lon="3.2100570">
        <ele>131.7</ele>
        <time>2021-06-19T11:04:06Z</time>
      </trkpt>
      <trkpt lat="39.9602260" lon="3.2099780">
        <ele>131.9</ele>
        <time>2021-06-19T11:04:07Z</time>
      </trkpt>
      <trkpt lat="39.9601030" lon="3.2098880">
        <ele>132.6</ele>
        <time>2021-06-19T11:04:09Z</time>
      </trkpt>
      <trkpt lat="39.9599950" lon="3.2098740">
        <ele>133.4</ele>
        <time>2021-06-19T11:04:11Z</time>
      </trkpt>
      <trkpt lat="39.9599540" lon="3.2098860">
        <ele>133.7</ele>
        <time>2021-06-19T11:04:12Z</time>
      </trkpt>
      <trkpt lat="39.9598390" lon="3.2099610">
        <ele>134.6</ele>
        <time>2021-06-19T11:04:16Z</time>
      </trkpt>
      <trkpt lat="39.9597380" lon="3.2100110">
        <ele>135.5</ele>
        <time>2021-06-19T11:04:20Z</time>
      </trkpt>
      <trkpt lat="39.9596930" lon="3.2100410">
        <ele>135.8</ele>
        <time>2021-06-19T11:04:22Z</time>
      </trkpt>
      <trkpt lat="39.9594800" lon="3.2101970">
        <ele>137.8</ele>
        <time>2021-06-19T11:04:31Z</time>
      </trkpt>
      <trkpt lat="39.9594410" lon="3.2102290">
        <ele>138.2</ele>
        <time>2021-06-19T11:04:33Z</time>
      </trkpt>
      <trkpt lat="39.9593870" lon="3.2102920">
        <ele>138.9</ele>
        <time>2021-06-19T11:04:36Z</time>
      </trkpt>
      <trkpt lat="39.9593080" lon="3.2104230">
        <ele>140.0</ele>
        <time>2021-06-19T11:04:41Z</time>
      </trkpt>
      <trkpt lat="39.9592780" lon="3.2104750">
        <ele>140.4</ele>
        <time>2021-06-19T11:04:43Z</time>
      </trkpt>
      <trkpt lat="39.9592510" lon="3.2105330">
        <ele>140.9</ele>
        <time>2021-06-19T11:04:45Z</time>
      </trkpt>
      <trkpt lat="39.9591610" lon="3.2106650">
        <ele>142.4</ele>
        <time>2021-06-19T11:04:50Z</time>
      </trkpt>
      <trkpt lat="39.9591330" lon="3.2107230">
        <ele>143.0</ele>
        <time>2021-06-19T11:04:52Z</time>
      </trkpt>
      <trkpt lat="39.9590830" lon="3.2107980">
        <ele>144.0</ele>
        <time>2021-06-19T11:04:55Z</time>
      </trkpt>
      <trkpt lat="39.9590430" lon="3.2108750">
        <ele>144.9</ele>
        <time>2021-06-19T11:04:58Z</time>
      </trkpt>
      <trkpt lat="39.9590120" lon="3.2109290">
        <ele>145.6</ele>
        <time>2021-06-19T11:05:00Z</time>
      </trkpt>
      <trkpt lat="39.9589780" lon="3.2109800">
        <ele>146.2</ele>
        <time>2021-06-19T11:05:02Z</time>
      </trkpt>
      <trkpt lat="39.9589320" lon="3.2110640">
        <ele>147.3</ele>
        <time>2021-06-19T11:05:05Z</time>
      </trkpt>
      <trkpt lat="39.9588990" lon="3.2111100">
        <ele>147.9</ele>
        <time>2021-06-19T11:05:07Z</time>
      </trkpt>
      <trkpt lat="39.9588810" lon="3.2111320">
        <ele>148.2</ele>
        <time>2021-06-19T11:05:08Z</time>
      </trkpt>
      <trkpt lat="39.9587640" lon="3.2111840">
        <ele>149.4</ele>
        <time>2021-06-19T11:05:13Z</time>
      </trkpt>
      <trkpt lat="39.9587320" lon="3.2111920">
        <ele>149.7</ele>
        <time>2021-06-19T11:05:14Z</time>
      </trkpt>
      <trkpt lat="39.9585560" lon="3.2112030">
        <ele>150.9</ele>
        <time>2021-06-19T11:05:21Z</time>
      </trkpt>
      <trkpt lat="39.9583720" lon="3.2112330">
        <ele>152.2</ele>
        <time>2021-06-19T11:05:29Z</time>
      </trkpt>
      <trkpt lat="39.9581780" lon="3.2112770">
        <ele>153.8</ele>
        <time>2021-06-19T11:05:37Z</time>
      </trkpt>
      <trkpt lat="39.9580580" lon="3.2113340">
        <ele>155.0</ele>
        <time>2021-06-19T11:05:43Z</time>
      </trkpt>
      <trkpt lat="39.9579270" lon="3.2114060">
        <ele>156.5</ele>
        <time>2021-06-19T11:05:49Z</time>
      </trkpt>
      <trkpt lat="39.9578090" lon="3.2115140">
        <ele>158.2</ele>
        <time>2021-06-19T11:05:55Z</time>
      </trkpt>
      <trkpt lat="39.9576800" lon="3.2115960">
        <ele>159.9</ele>
        <time>2021-06-19T11:06:01Z</time>
      </trkpt>
      <trkpt lat="39.9575430" lon="3.2116700">
        <ele>161.7</ele>
        <time>2021-06-19T11:06:07Z</time>
      </trkpt>
      <trkpt lat="39.9573590" lon="3.2117390">
        <ele>164.1</ele>
        <time>2021-06-19T11:06:15Z</time>
      </trkpt>
      <trkpt lat="39.9571980" lon="3.2117150">
        <ele>165.8</ele>
        <time>2021-06-19T11:06:21Z</time>
      </trkpt>
      <trkpt lat="39.9570480" lon="3.2116790">
        <ele>167.1</ele>
        <time>2021-06-19T11:06:27Z</time>
      </trkpt>
      <trkpt lat="39.9568720" lon="3.2116500">
        <ele>168.6</ele>
        <time>2021-06-19T11:06:34Z</time>
      </trkpt>
      <trkpt lat="39.9567010" lon="3.2116170">
        <ele>170.2</ele>
        <time>2021-06-19T11:06:41Z</time>
      </trkpt>
      <trkpt lat="39.9565930" lon="3.2115960">
        <ele>171.4</ele>
        <time>2021-06-19T11:06:46Z</time>
      </trkpt>
      <trkpt lat="39.9564740" lon="3.2115550">
        <ele>172.8</ele>
        <time>2021-06-19T11:06:51Z</time>
      </trkpt>
      <trkpt lat="39.9563020" lon="3.2115230">
        <ele>174.7</ele>
        <time>2021-06-19T11:06:58Z</time>
      </trkpt>
      <trkpt lat="39.9561400" lon="3.2115760">
        <ele>176.5</ele>
        <time>2021-06-19T11:07:04Z</time>
      </trkpt>
      <trkpt lat="39.9560060" lon="3.2116810">
        <ele>178.1</ele>
        <time>2021-06-19T11:07:10Z</time>
      </trkpt>
      <trkpt lat="39.9558570" lon="3.2117520">
        <ele>179.8</ele>
        <time>2021-06-19T11:07:16Z</time>
      </trkpt>
      <trkpt lat="39.9556680" lon="3.2118840">
        <ele>182.4</ele>
        <time>2021-06-19T11:07:24Z</time>
      </trkpt>
      <trkpt lat="39.9555210" lon="3.2119290">
        <ele>184.6</ele>
        <time>2021-06-19T11:07:30Z</time>
      </trkpt>
      <trkpt lat="39.9553780" lon="3.2118930">
        <ele>186.7</ele>
        <time>2021-06-19T11:07:36Z</time>
      </trkpt>
      <trkpt lat="39.9553150" lon="3.2117940">
        <ele>188.1</ele>
        <time>2021-06-19T11:07:40Z</time>
      </trkpt>
      <trkpt lat="39.9553140" lon="3.2117630">
        <ele>188.4</ele>
        <time>2021-06-19T11:07:41Z</time>
      </trkpt>
      <trkpt lat="39.9553120" lon="3.2116490">
        <ele>189.5</ele>
        <time>2021-06-19T11:07:45Z</time>
      </trkpt>
      <trkpt lat="39.9553280" lon="3.2116180">
        <ele>189.7</ele>
        <time>2021-06-19T11:07:46Z</time>
      </trkpt>
      <trkpt lat="39.9553490" lon="3.2116080">
        <ele>189.9</ele>
        <time>2021-06-19T11:07:47Z</time>
      </trkpt>
      <trkpt lat="39.9554560" lon="3.2115490">
        <ele>190.7</ele>
        <time>2021-06-19T11:07:51Z</time>
      </trkpt>
      <trkpt lat="39.9555090" lon="3.2114710">
        <ele>191.0</ele>
        <time>2021-06-19T11:07:54Z</time>
      </trkpt>
      <trkpt lat="39.9555520" lon="3.2114540">
        <ele>191.2</ele>
        <time>2021-06-19T11:07:56Z</time>
      </trkpt>
      <trkpt lat="39.9557230" lon="3.2113340">
        <ele>192.4</ele>
        <time>2021-06-19T11:08:03Z</time>
      </trkpt>
      <trkpt lat="39.9558390" lon="3.2112570">
        <ele>193.5</ele>
        <time>2021-06-19T11:08:08Z</time>
      </trkpt>
      <trkpt lat="39.9559630" lon="3.2111330">
        <ele>194.9</ele>
        <time>2021-06-19T11:08:14Z</time>
      </trkpt>
      <trkpt lat="39.9560960" lon="3.2110220">
        <ele>196.3</ele>
        <time>2021-06-19T11:08:20Z</time>
      </trkpt>
      <trkpt lat="39.9562060" lon="3.2108750">
        <ele>197.7</ele>
        <time>2021-06-19T11:08:26Z</time>
      </trkpt>
      <trkpt lat="39.9563140" lon="3.2107950">
        <ele>198.8</ele>
        <time>2021-06-19T11:08:31Z</time>
      </trkpt>
      <trkpt lat="39.9563680" lon="3.2107210">
        <ele>199.4</ele>
        <time>2021-06-19T11:08:34Z</time>
      </trkpt>
      <trkpt lat="39.9564150" lon="3.2106870">
        <ele>199.5</ele>
        <time>2021-06-19T11:08:36Z</time>
      </trkpt>
      <trkpt lat="39.9565060" lon="3.2105230">
        <ele>199.8</ele>
        <time>2021-06-19T11:08:41Z</time>
      </trkpt>
      <trkpt lat="39.9566920" lon="3.2102640">
        <ele>200.2</ele>
        <time>2021-06-19T11:08:49Z</time>
      </trkpt>
      <trkpt lat="39.9568350" lon="3.2100240">
        <ele>200.0</ele>
        <time>2021-06-19T11:08:55Z</time>
      </trkpt>
      <trkpt lat="39.9570130" lon="3.2097600">
        <ele>198.4</ele>
        <time>2021-06-19T11:09:01Z</time>
      </trkpt>
      <trkpt lat="39.9572200" lon="3.2094720">
        <ele>196.0</ele>
        <time>2021-06-19T11:09:06Z</time>
      </trkpt>
      <trkpt lat="39.9572660" lon="3.2094130">
        <ele>195.5</ele>
        <time>2021-06-19T11:09:07Z</time>
      </trkpt>
      <trkpt lat="39.9574380" lon="3.2092560">
        <ele>193.6</ele>
        <time>2021-06-19T11:09:10Z</time>
      </trkpt>
      <trkpt lat="39.9575590" lon="3.2091400">
        <ele>192.1</ele>
        <time>2021-06-19T11:09:12Z</time>
      </trkpt>
      <trkpt lat="39.9576700" lon="3.2089830">
        <ele>190.5</ele>
        <time>2021-06-19T11:09:14Z</time>
      </trkpt>
      <trkpt lat="39.9577850" lon="3.2087990">
        <ele>188.8</ele>
        <time>2021-06-19T11:09:16Z</time>
      </trkpt>
      <trkpt lat="39.9578880" lon="3.2085830">
        <ele>187.2</ele>
        <time>2021-06-19T11:09:18Z</time>
      </trkpt>
      <trkpt lat="39.9579210" lon="3.2084610">
        <ele>186.5</ele>
        <time>2021-06-19T11:09:19Z</time>
      </trkpt>
      <trkpt lat="39.9579370" lon="3.2083290">
        <ele>185.9</ele>
        <time>2021-06-19T11:09:20Z</time>
      </trkpt>
      <trkpt lat="39.9579150" lon="3.2080510">
        <ele>185.0</ele>
        <time>2021-06-19T11:09:22Z</time>
      </trkpt>
      <trkpt lat="39.9577950" lon="3.2076690">
        <ele>184.9</ele>
        <time>2021-06-19T11:09:25Z</time>
      </trkpt>
      <trkpt lat="39.9577460" lon="3.2075480">
        <ele>185.2</ele>
        <time>2021-06-19T11:09:26Z</time>
      </trkpt>
      <trkpt lat="39.9576300" lon="3.2073810">
        <ele>186.0</ele>
        <time>2021-06-19T11:09:28Z</time>
      </trkpt>
      <trkpt lat="39.9575390" lon="3.2073280">
        <ele>186.5</ele>
        <time>2021-06-19T11:09:29Z</time>
      </trkpt>
      <trkpt lat="39.9574330" lon="3.2073100">
        <ele>187.1</ele>
        <time>2021-06-19T11:09:30Z</time>
      </trkpt>
      <trkpt lat="39.9573560" lon="3.2073400">
        <ele>187.5</ele>
        <time>2021-06-19T11:09:31Z</time>
      </trkpt>
      <trkpt lat="39.9572990" lon="3.2074010">
        <ele>188.0</ele>
        <time>2021-06-19T11:09:32Z</time>
      </trkpt>
      <trkpt lat="39.9572700" lon="3.2074650">
        <ele>188.3</ele>
        <time>2021-06-19T11:09:33Z</time>
      </trkpt>
      <trkpt lat="39.9572440" lon="3.2075420">
        <ele>188.7</ele>
        <time>2021-06-19T11:09:34Z</time>
      </trkpt>
      <trkpt lat="39.9572350" lon="3.2076980">
        <ele>189.4</ele>
        <time>2021-06-19T11:09:36Z</time>
      </trkpt>
      <trkpt lat="39.9572400" lon="3.2079920">
        <ele>190.7</ele>
        <time>2021-06-19T11:09:41Z</time>
      </trkpt>
      <trkpt lat="39.9571880" lon="3.2081480">
        <ele>191.2</ele>
        <time>2021-06-19T11:09:44Z</time>
      </trkpt>
      <trkpt lat="39.9571600" lon="3.2081930">
        <ele>191.3</ele>
        <time>2021-06-19T11:09:45Z</time>
      </trkpt>
      <trkpt lat="39.9571260" lon="3.2082270">
        <ele>191.4</ele>
        <time>2021-06-19T11:09:46Z</time>
      </trkpt>
      <trkpt lat="39.9570480" lon="3.2082800">
        <ele>191.5</ele>
        <time>2021-06-19T11:09:48Z</time>
      </trkpt>
      <trkpt lat="39.9569910" lon="3.2083030">
        <ele>191.5</ele>
        <time>2021-06-19T11:09:49Z</time>
      </trkpt>
      <trkpt lat="39.9569430" lon="3.2083060">
        <ele>191.6</ele>
        <time>2021-06-19T11:09:50Z</time>
      </trkpt>
      <trkpt lat="39.9568410" lon="3.2082880">
        <ele>191.7</ele>
        <time>2021-06-19T11:09:52Z</time>
      </trkpt>
      <trkpt lat="39.9567920" lon="3.2082720">
        <ele>191.7</ele>
        <time>2021-06-19T11:09:53Z</time>
      </trkpt>
      <trkpt lat="39.9567540" lon="3.2082560">
        <ele>191.8</ele>
        <time>2021-06-19T11:09:54Z</time>
      </trkpt>
      <trkpt lat="39.9566510" lon="3.2082060">
        <ele>191.9</ele>
        <time>2021-06-19T11:09:56Z</time>
      </trkpt>
      <trkpt lat="39.9565160" lon="3.2081540">
        <ele>192.1</ele>
        <time>2021-06-19T11:09:59Z</time>
      </trkpt>
      <trkpt lat="39.9564700" lon="3.2081330">
        <ele>192.2</ele>
        <time>2021-06-19T11:10:00Z</time>
      </trkpt>
      <trkpt lat="39.9563800" lon="3.2080900">
        <ele>192.4</ele>
        <time>2021-06-19T11:10:02Z</time>
      </trkpt>
      <trkpt lat="39.9563470" lon="3.2080770">
        <ele>192.4</ele>
        <time>2021-06-19T11:10:03Z</time>
      </trkpt>
      <trkpt lat="39.9563060" lon="3.2080610">
        <ele>192.5</ele>
        <time>2021-06-19T11:10:04Z</time>
      </trkpt>
      <trkpt lat="39.9562250" lon="3.2080300">
        <ele>192.7</ele>
        <time>2021-06-19T11:10:06Z</time>
      </trkpt>
      <trkpt lat="39.9561330" lon="3.2080160">
        <ele>192.9</ele>
        <time>2021-06-19T11:10:08Z</time>
      </trkpt>
      <trkpt lat="39.9559910" lon="3.2080380">
        <ele>193.1</ele>
        <time>2021-06-19T11:10:11Z</time>
      </trkpt>
      <trkpt lat="39.9556300" lon="3.2081720">
        <ele>193.2</ele>
        <time>2021-06-19T11:10:19Z</time>
      </trkpt>
      <trkpt lat="39.9555460" lon="3.2082100">
        <ele>193.1</ele>
        <time>2021-06-19T11:10:21Z</time>
      </trkpt>
      <trkpt lat="39.9553580" lon="3.2082640">
        <ele>192.9</ele>
        <time>2021-06-19T11:10:25Z</time>
      </trkpt>
      <trkpt lat="39.9552660" lon="3.2082610">
        <ele>192.7</ele>
        <time>2021-06-19T11:10:27Z</time>
      </trkpt>
      <trkpt lat="39.9551250" lon="3.2082380">
        <ele>192.4</ele>
        <time>2021-06-19T11:10:30Z</time>
      </trkpt>
      <trkpt lat="39.9550300" lon="3.2081920">
        <ele>192.2</ele>
        <time>2021-06-19T11:10:32Z</time>
      </trkpt>
      <trkpt lat="39.9549780" lon="3.2081660">
        <ele>192.0</ele>
        <time>2021-06-19T11:10:33Z</time>
      </trkpt>
      <trkpt lat="39.9546640" lon="3.2080030">
        <ele>191.1</ele>
        <time>2021-06-19T11:10:39Z</time>
      </trkpt>
      <trkpt lat="39.9546220" lon="3.2079810">
        <ele>190.9</ele>
        <time>2021-06-19T11:10:40Z</time>
      </trkpt>
      <trkpt lat="39.9542310" lon="3.2077710">
        <ele>189.7</ele>
        <time>2021-06-19T11:10:47Z</time>
      </trkpt>
      <trkpt lat="39.9540750" lon="3.2076510">
        <ele>188.9</ele>
        <time>2021-06-19T11:10:50Z</time>
      </trkpt>
      <trkpt lat="39.9539790" lon="3.2075530">
        <ele>188.1</ele>
        <time>2021-06-19T11:10:52Z</time>
      </trkpt>
      <trkpt lat="39.9538440" lon="3.2073700">
        <ele>186.8</ele>
        <time>2021-06-19T11:10:55Z</time>
      </trkpt>
      <trkpt lat="39.9537990" lon="3.2072870">
        <ele>186.3</ele>
        <time>2021-06-19T11:10:56Z</time>
      </trkpt>
      <trkpt lat="39.9537350" lon="3.2070640">
        <ele>185.0</ele>
        <time>2021-06-19T11:10:58Z</time>
      </trkpt>
      <trkpt lat="39.9537180" lon="3.2069560">
        <ele>184.4</ele>
        <time>2021-06-19T11:10:59Z</time>
      </trkpt>
      <trkpt lat="39.9536270" lon="3.2064110">
        <ele>181.9</ele>
        <time>2021-06-19T11:11:04Z</time>
      </trkpt>
      <trkpt lat="39.9536110" lon="3.2063040">
        <ele>181.5</ele>
        <time>2021-06-19T11:11:05Z</time>
      </trkpt>
      <trkpt lat="39.9536030" lon="3.2061980">
        <ele>181.1</ele>
        <time>2021-06-19T11:11:06Z</time>
      </trkpt>
      <trkpt lat="39.9536280" lon="3.2059690">
        <ele>180.0</ele>
        <time>2021-06-19T11:11:08Z</time>
      </trkpt>
      <trkpt lat="39.9536940" lon="3.2057650">
        <ele>178.7</ele>
        <time>2021-06-19T11:11:10Z</time>
      </trkpt>
      <trkpt lat="39.9538260" lon="3.2054570">
        <ele>176.6</ele>
        <time>2021-06-19T11:11:13Z</time>
      </trkpt>
      <trkpt lat="39.9539670" lon="3.2049690">
        <ele>174.1</ele>
        <time>2021-06-19T11:11:17Z</time>
      </trkpt>
      <trkpt lat="39.9540430" lon="3.2047150">
        <ele>173.9</ele>
        <time>2021-06-19T11:11:19Z</time>
      </trkpt>
      <trkpt lat="39.9541420" lon="3.2045010">
        <ele>174.0</ele>
        <time>2021-06-19T11:11:21Z</time>
      </trkpt>
      <trkpt lat="39.9543790" lon="3.2040360">
        <ele>175.2</ele>
        <time>2021-06-19T11:11:26Z</time>
      </trkpt>
      <trkpt lat="39.9545870" lon="3.2036350">
        <ele>176.9</ele>
        <time>2021-06-19T11:11:31Z</time>
      </trkpt>
      <trkpt lat="39.9547020" lon="3.2034350">
        <ele>177.7</ele>
        <time>2021-06-19T11:11:34Z</time>
      </trkpt>
      <trkpt lat="39.9547480" lon="3.2033840">
        <ele>178.0</ele>
        <time>2021-06-19T11:11:35Z</time>
      </trkpt>
      <trkpt lat="39.9550950" lon="3.2030580">
        <ele>178.6</ele>
        <time>2021-06-19T11:11:42Z</time>
      </trkpt>
      <trkpt lat="39.9552000" lon="3.2029680">
        <ele>178.8</ele>
        <time>2021-06-19T11:11:44Z</time>
      </trkpt>
      <trkpt lat="39.9553100" lon="3.2028770">
        <ele>179.0</ele>
        <time>2021-06-19T11:11:46Z</time>
      </trkpt>
      <trkpt lat="39.9554070" lon="3.2027760">
        <ele>179.1</ele>
        <time>2021-06-19T11:11:48Z</time>
      </trkpt>
      <trkpt lat="39.9554500" lon="3.2027160">
        <ele>179.1</ele>
        <time>2021-06-19T11:11:49Z</time>
      </trkpt>
      <trkpt lat="39.9555110" lon="3.2025760">
        <ele>179.1</ele>
        <time>2021-06-19T11:11:51Z</time>
      </trkpt>
      <trkpt lat="39.9555160" lon="3.2024180">
        <ele>179.0</ele>
        <time>2021-06-19T11:11:53Z</time>
      </trkpt>
      <trkpt lat="39.9555080" lon="3.2023360">
        <ele>179.0</ele>
        <time>2021-06-19T11:11:54Z</time>
      </trkpt>
      <trkpt lat="39.9554360" lon="3.2017590">
        <ele>179.6</ele>
        <time>2021-06-19T11:12:01Z</time>
      </trkpt>
      <trkpt lat="39.9554310" lon="3.2016750">
        <ele>179.6</ele>
        <time>2021-06-19T11:12:02Z</time>
      </trkpt>
      <trkpt lat="39.9554790" lon="3.2013520">
        <ele>179.8</ele>
        <time>2021-06-19T11:12:06Z</time>
      </trkpt>
      <trkpt lat="39.9554900" lon="3.2012720">
        <ele>180.0</ele>
        <time>2021-06-19T11:12:07Z</time>
      </trkpt>
      <trkpt lat="39.9554860" lon="3.2011190">
        <ele>180.5</ele>
        <time>2021-06-19T11:12:09Z</time>
      </trkpt>
      <trkpt lat="39.9554700" lon="3.2010530">
        <ele>180.8</ele>
        <time>2021-06-19T11:12:10Z</time>
      </trkpt>
      <trkpt lat="39.9554480" lon="3.2009960">
        <ele>181.1</ele>
        <time>2021-06-19T11:12:11Z</time>
      </trkpt>
      <trkpt lat="39.9553930" lon="3.2009150">
        <ele>181.6</ele>
        <time>2021-06-19T11:12:13Z</time>
      </trkpt>
      <trkpt lat="39.9553610" lon="3.2008910">
        <ele>181.9</ele>
        <time>2021-06-19T11:12:14Z</time>
      </trkpt>
      <trkpt lat="39.9551900" lon="3.2008570">
        <ele>182.9</ele>
        <time>2021-06-19T11:12:19Z</time>
      </trkpt>
      <trkpt lat="39.9551050" lon="3.2008930">
        <ele>183.5</ele>
        <time>2021-06-19T11:12:22Z</time>
      </trkpt>
      <trkpt lat="39.9550430" lon="3.2009370">
        <ele>184.0</ele>
        <time>2021-06-19T11:12:24Z</time>
      </trkpt>
      <trkpt lat="39.9549710" lon="3.2010120">
        <ele>184.6</ele>
        <time>2021-06-19T11:12:27Z</time>
      </trkpt>
      <trkpt lat="39.9548900" lon="3.2010810">
        <ele>185.2</ele>
        <time>2021-06-19T11:12:30Z</time>
      </trkpt>
      <trkpt lat="39.9548630" lon="3.2010990">
        <ele>185.4</ele>
        <time>2021-06-19T11:12:31Z</time>
      </trkpt>
      <trkpt lat="39.9548040" lon="3.2011400">
        <ele>185.9</ele>
        <time>2021-06-19T11:12:33Z</time>
      </trkpt>
      <trkpt lat="39.9547120" lon="3.2012280">
        <ele>186.7</ele>
        <time>2021-06-19T11:12:37Z</time>
      </trkpt>
      <trkpt lat="39.9546570" lon="3.2012810">
        <ele>187.1</ele>
        <time>2021-06-19T11:12:39Z</time>
      </trkpt>
      <trkpt lat="39.9546320" lon="3.2013050">
        <ele>187.3</ele>
        <time>2021-06-19T11:12:40Z</time>
      </trkpt>
      <trkpt lat="39.9545490" lon="3.2014300">
        <ele>188.2</ele>
        <time>2021-06-19T11:12:44Z</time>
      </trkpt>
      <trkpt lat="39.9545270" lon="3.2015020">
        <ele>188.7</ele>
        <time>2021-06-19T11:12:46Z</time>
      </trkpt>
      <trkpt lat="39.9544310" lon="3.2018140">
        <ele>190.7</ele>
        <time>2021-06-19T11:12:53Z</time>
      </trkpt>
      <trkpt lat="39.9543960" lon="3.2018850">
        <ele>191.2</ele>
        <time>2021-06-19T11:12:55Z</time>
      </trkpt>
      <trkpt lat="39.9542540" lon="3.2019860">
        <ele>192.5</ele>
        <time>2021-06-19T11:13:00Z</time>
      </trkpt>
      <trkpt lat="39.9540640" lon="3.2019230">
        <ele>194.3</ele>
        <time>2021-06-19T11:13:06Z</time>
      </trkpt>
      <trkpt lat="39.9538800" lon="3.2019540">
        <ele>195.8</ele>
        <time>2021-06-19T11:13:12Z</time>
      </trkpt>
      <trkpt lat="39.9537950" lon="3.2021210">
        <ele>197.0</ele>
        <time>2021-06-19T11:13:17Z</time>
      </trkpt>
      <trkpt lat="39.9538000" lon="3.2023300">
        <ele>198.1</ele>
        <time>2021-06-19T11:13:22Z</time>
      </trkpt>
      <trkpt lat="39.9538360" lon="3.2026150">
        <ele>200.1</ele>
        <time>2021-06-19T11:13:29Z</time>
      </trkpt>
      <trkpt lat="39.9537540" lon="3.2027770">
        <ele>201.6</ele>
        <time>2021-06-19T11:13:34Z</time>
      </trkpt>
      <trkpt lat="39.9536210" lon="3.2028380">
        <ele>203.1</ele>
        <time>2021-06-19T11:13:39Z</time>
      </trkpt>
      <trkpt lat="39.9535100" lon="3.2027850">
        <ele>204.4</ele>
        <time>2021-06-19T11:13:43Z</time>
      </trkpt>
      <trkpt lat="39.9534260" lon="3.2026260">
        <ele>205.9</ele>
        <time>2021-06-19T11:13:48Z</time>
      </trkpt>
      <trkpt lat="39.9534280" lon="3.2023710">
        <ele>207.4</ele>
        <time>2021-06-19T11:13:55Z</time>
      </trkpt>
      <trkpt lat="39.9534170" lon="3.2020810">
        <ele>208.9</ele>
        <time>2021-06-19T11:14:02Z</time>
      </trkpt>
      <trkpt lat="39.9534130" lon="3.2019340">
        <ele>209.8</ele>
        <time>2021-06-19T11:14:06Z</time>
      </trkpt>
      <trkpt lat="39.9534070" lon="3.2015940">
        <ele>212.0</ele>
        <time>2021-06-19T11:14:15Z</time>
      </trkpt>
      <trkpt lat="39.9534000" lon="3.2015580">
        <ele>212.2</ele>
        <time>2021-06-19T11:14:16Z</time>
      </trkpt>
      <trkpt lat="39.9533350" lon="3.2014000">
        <ele>213.4</ele>
        <time>2021-06-19T11:14:21Z</time>
      </trkpt>
      <trkpt lat="39.9533050" lon="3.2013430">
        <ele>213.8</ele>
        <time>2021-06-19T11:14:23Z</time>
      </trkpt>
      <trkpt lat="39.9531390" lon="3.2011190">
        <ele>215.4</ele>
        <time>2021-06-19T11:14:31Z</time>
      </trkpt>
      <trkpt lat="39.9530290" lon="3.2008590">
        <ele>216.6</ele>
        <time>2021-06-19T11:14:39Z</time>
      </trkpt>
      <trkpt lat="39.9530060" lon="3.2007850">
        <ele>216.8</ele>
        <time>2021-06-19T11:14:41Z</time>
      </trkpt>
      <trkpt lat="39.9529170" lon="3.2005200">
        <ele>217.3</ele>
        <time>2021-06-19T11:14:48Z</time>
      </trkpt>
      <trkpt lat="39.9528190" lon="3.2002100">
        <ele>217.7</ele>
        <time>2021-06-19T11:14:56Z</time>
      </trkpt>
      <trkpt lat="39.9527740" lon="3.2000440">
        <ele>217.9</ele>
        <time>2021-06-19T11:15:00Z</time>
      </trkpt>
      <trkpt lat="39.9527590" lon="3.1998920">
        <ele>218.0</ele>
        <time>2021-06-19T11:15:03Z</time>
      </trkpt>
      <trkpt lat="39.9527680" lon="3.1997540">
        <ele>218.2</ele>
        <time>2021-06-19T11:15:06Z</time>
      </trkpt>
      <trkpt lat="39.9527840" lon="3.1996080">
        <ele>218.3</ele>
        <time>2021-06-19T11:15:09Z</time>
      </trkpt>
      <trkpt lat="39.9528570" lon="3.1993860">
        <ele>218.5</ele>
        <time>2021-06-19T11:15:14Z</time>
      </trkpt>
      <trkpt lat="39.9529520" lon="3.1992100">
        <ele>218.5</ele>
        <time>2021-06-19T11:15:18Z</time>
      </trkpt>
      <trkpt lat="39.9529740" lon="3.1991590">
        <ele>218.5</ele>
        <time>2021-06-19T11:15:19Z</time>
      </trkpt>
      <trkpt lat="39.9530420" lon="3.1990200">
        <ele>218.4</ele>
        <time>2021-06-19T11:15:22Z</time>
      </trkpt>
      <trkpt lat="39.9530600" lon="3.1988970">
        <ele>218.3</ele>
        <time>2021-06-19T11:15:24Z</time>
      </trkpt>
      <trkpt lat="39.9530230" lon="3.1986470">
        <ele>218.0</ele>
        <time>2021-06-19T11:15:28Z</time>
      </trkpt>
      <trkpt lat="39.9529990" lon="3.1985940">
        <ele>217.9</ele>
        <time>2021-06-19T11:15:29Z</time>
      </trkpt>
      <trkpt lat="39.9529740" lon="3.1985550">
        <ele>217.8</ele>
        <time>2021-06-19T11:15:30Z</time>
      </trkpt>
      <trkpt lat="39.9528870" lon="3.1984600">
        <ele>217.6</ele>
        <time>2021-06-19T11:15:32Z</time>
      </trkpt>
      <trkpt lat="39.9527960" lon="3.1984060">
        <ele>217.5</ele>
        <time>2021-06-19T11:15:34Z</time>
      </trkpt>
      <trkpt lat="39.9526150" lon="3.1983780">
        <ele>217.6</ele>
        <time>2021-06-19T11:15:37Z</time>
      </trkpt>
      <trkpt lat="39.9525010" lon="3.1983730">
        <ele>217.7</ele>
        <time>2021-06-19T11:15:39Z</time>
      </trkpt>
      <trkpt lat="39.9522410" lon="3.1983420">
        <ele>218.2</ele>
        <time>2021-06-19T11:15:44Z</time>
      </trkpt>
      <trkpt lat="39.9520750" lon="3.1983210">
        <ele>218.5</ele>
        <time>2021-06-19T11:15:47Z</time>
      </trkpt>
      <trkpt lat="39.9517310" lon="3.1982680">
        <ele>218.9</ele>
        <time>2021-06-19T11:15:54Z</time>
      </trkpt>
      <trkpt lat="39.9516450" lon="3.1982340">
        <ele>219.0</ele>
        <time>2021-06-19T11:15:56Z</time>
      </trkpt>
      <trkpt lat="39.9514990" lon="3.1980950">
        <ele>218.2</ele>
        <time>2021-06-19T11:16:01Z</time>
      </trkpt>
      <trkpt lat="39.9514740" lon="3.1979890">
        <ele>217.5</ele>
        <time>2021-06-19T11:16:03Z</time>
      </trkpt>
      <trkpt lat="39.9514480" lon="3.1978440">
        <ele>216.6</ele>
        <time>2021-06-19T11:16:05Z</time>
      </trkpt>
      <trkpt lat="39.9513300" lon="3.1974200">
        <ele>214.2</ele>
        <time>2021-06-19T11:16:10Z</time>
      </trkpt>
      <trkpt lat="39.9511130" lon="3.1969640">
        <ele>211.8</ele>
        <time>2021-06-19T11:16:15Z</time>
      </trkpt>
      <trkpt lat="39.9510640" lon="3.1968640">
        <ele>211.3</ele>
        <time>2021-06-19T11:16:16Z</time>
      </trkpt>
      <trkpt lat="39.9510200" lon="3.1967570">
        <ele>210.9</ele>
        <time>2021-06-19T11:16:17Z</time>
      </trkpt>
      <trkpt lat="39.9509390" lon="3.1965280">
        <ele>209.9</ele>
        <time>2021-06-19T11:16:19Z</time>
      </trkpt>
      <trkpt lat="39.9508520" lon="3.1961550">
        <ele>208.4</ele>
        <time>2021-06-19T11:16:22Z</time>
      </trkpt>
      <trkpt lat="39.9508320" lon="3.1960270">
        <ele>207.8</ele>
        <time>2021-06-19T11:16:23Z</time>
      </trkpt>
      <trkpt lat="39.9507570" lon="3.1953540">
        <ele>204.8</ele>
        <time>2021-06-19T11:16:28Z</time>
      </trkpt>
      <trkpt lat="39.9507730" lon="3.1952200">
        <ele>204.3</ele>
        <time>2021-06-19T11:16:29Z</time>
      </trkpt>
      <trkpt lat="39.9508090" lon="3.1950930">
        <ele>203.8</ele>
        <time>2021-06-19T11:16:30Z</time>
      </trkpt>
      <trkpt lat="39.9509370" lon="3.1949060">
        <ele>202.9</ele>
        <time>2021-06-19T11:16:32Z</time>
      </trkpt>
      <trkpt lat="39.9510250" lon="3.1948580">
        <ele>202.4</ele>
        <time>2021-06-19T11:16:33Z</time>
      </trkpt>
      <trkpt lat="39.9512180" lon="3.1947910">
        <ele>201.6</ele>
        <time>2021-06-19T11:16:35Z</time>
      </trkpt>
      <trkpt lat="39.9513070" lon="3.1947380">
        <ele>201.3</ele>
        <time>2021-06-19T11:16:36Z</time>
      </trkpt>
      <trkpt lat="39.9514380" lon="3.1945740">
        <ele>200.7</ele>
        <time>2021-06-19T11:16:38Z</time>
      </trkpt>
      <trkpt lat="39.9514560" lon="3.1943760">
        <ele>200.3</ele>
        <time>2021-06-19T11:16:40Z</time>
      </trkpt>
      <trkpt lat="39.9513980" lon="3.1942240">
        <ele>199.9</ele>
        <time>2021-06-19T11:16:42Z</time>
      </trkpt>
      <trkpt lat="39.9513610" lon="3.1941620">
        <ele>199.7</ele>
        <time>2021-06-19T11:16:43Z</time>
      </trkpt>
      <trkpt lat="39.9513210" lon="3.1941100">
        <ele>199.5</ele>
        <time>2021-06-19T11:16:44Z</time>
      </trkpt>
      <trkpt lat="39.9512830" lon="3.1940640">
        <ele>199.3</ele>
        <time>2021-06-19T11:16:45Z</time>
      </trkpt>
      <trkpt lat="39.9512470" lon="3.1940150">
        <ele>199.0</ele>
        <time>2021-06-19T11:16:46Z</time>
      </trkpt>
      <trkpt lat="39.9512110" lon="3.1939640">
        <ele>198.8</ele>
        <time>2021-06-19T11:16:47Z</time>
      </trkpt>
      <trkpt lat="39.9511060" lon="3.1937830">
        <ele>198.0</ele>
        <time>2021-06-19T11:16:50Z</time>
      </trkpt>
      <trkpt lat="39.9510940" lon="3.1937030">
        <ele>197.7</ele>
        <time>2021-06-19T11:16:51Z</time>
      </trkpt>
      <trkpt lat="39.9511020" lon="3.1936200">
        <ele>197.3</ele>
        <time>2021-06-19T11:16:52Z</time>
      </trkpt>
      <trkpt lat="39.9511740" lon="3.1934570">
        <ele>196.4</ele>
        <time>2021-06-19T11:16:54Z</time>
      </trkpt>
      <trkpt lat="39.9513780" lon="3.1932880">
        <ele>194.8</ele>
        <time>2021-06-19T11:16:57Z</time>
      </trkpt>
      <trkpt lat="39.9515330" lon="3.1931750">
        <ele>193.6</ele>
        <time>2021-06-19T11:16:59Z</time>
      </trkpt>
      <trkpt lat="39.9516710" lon="3.1930070">
        <ele>192.3</ele>
        <time>2021-06-19T11:17:01Z</time>
      </trkpt>
      <trkpt lat="39.9518820" lon="3.1927500">
        <ele>190.5</ele>
        <time>2021-06-19T11:17:04Z</time>
      </trkpt>
      <trkpt lat="39.9519660" lon="3.1927020">
        <ele>190.0</ele>
        <time>2021-06-19T11:17:05Z</time>
      </trkpt>
      <trkpt lat="39.9520600" lon="3.1926770">
        <ele>189.5</ele>
        <time>2021-06-19T11:17:06Z</time>
      </trkpt>
      <trkpt lat="39.9523590" lon="3.1926210">
        <ele>188.1</ele>
        <time>2021-06-19T11:17:09Z</time>
      </trkpt>
      <trkpt lat="39.9528410" lon="3.1924500">
        <ele>186.1</ele>
        <time>2021-06-19T11:17:14Z</time>
      </trkpt>
      <trkpt lat="39.9529380" lon="3.1922690">
        <ele>185.5</ele>
        <time>2021-06-19T11:17:16Z</time>
      </trkpt>
      <trkpt lat="39.9529060" lon="3.1920220">
        <ele>184.8</ele>
        <time>2021-06-19T11:17:18Z</time>
      </trkpt>
      <trkpt lat="39.9528270" lon="3.1918150">
        <ele>184.1</ele>
        <time>2021-06-19T11:17:20Z</time>
      </trkpt>
      <trkpt lat="39.9528050" lon="3.1917030">
        <ele>183.8</ele>
        <time>2021-06-19T11:17:21Z</time>
      </trkpt>
      <trkpt lat="39.9528010" lon="3.1915840">
        <ele>183.5</ele>
        <time>2021-06-19T11:17:22Z</time>
      </trkpt>
      <trkpt lat="39.9528290" lon="3.1914730">
        <ele>182.8</ele>
        <time>2021-06-19T11:17:23Z</time>
      </trkpt>
      <trkpt lat="39.9530860" lon="3.1909580">
        <ele>180.4</ele>
        <time>2021-06-19T11:17:28Z</time>
      </trkpt>
      <trkpt lat="39.9534490" lon="3.1903120">
        <ele>177.4</ele>
        <time>2021-06-19T11:17:34Z</time>
      </trkpt>
      <trkpt lat="39.9536100" lon="3.1901250">
        <ele>176.5</ele>
        <time>2021-06-19T11:17:36Z</time>
      </trkpt>
      <trkpt lat="39.9537940" lon="3.1899620">
        <ele>175.7</ele>
        <time>2021-06-19T11:17:38Z</time>
      </trkpt>
      <trkpt lat="39.9541070" lon="3.1896600">
        <ele>175.1</ele>
        <time>2021-06-19T11:17:42Z</time>
      </trkpt>
      <trkpt lat="39.9541400" lon="3.1895750">
        <ele>175.1</ele>
        <time>2021-06-19T11:17:43Z</time>
      </trkpt>
      <trkpt lat="39.9541540" lon="3.1894590">
        <ele>175.2</ele>
        <time>2021-06-19T11:17:44Z</time>
      </trkpt>
      <trkpt lat="39.9541380" lon="3.1893480">
        <ele>175.4</ele>
        <time>2021-06-19T11:17:45Z</time>
      </trkpt>
      <trkpt lat="39.9541010" lon="3.1892490">
        <ele>175.6</ele>
        <time>2021-06-19T11:17:46Z</time>
      </trkpt>
      <trkpt lat="39.9539870" lon="3.1891080">
        <ele>176.1</ele>
        <time>2021-06-19T11:17:48Z</time>
      </trkpt>
      <trkpt lat="39.9538620" lon="3.1890610">
        <ele>176.6</ele>
        <time>2021-06-19T11:17:50Z</time>
      </trkpt>
      <trkpt lat="39.9538020" lon="3.1890520">
        <ele>176.9</ele>
        <time>2021-06-19T11:17:51Z</time>
      </trkpt>
      <trkpt lat="39.9537460" lon="3.1890420">
        <ele>177.2</ele>
        <time>2021-06-19T11:17:52Z</time>
      </trkpt>
      <trkpt lat="39.9535960" lon="3.1889980">
        <ele>178.1</ele>
        <time>2021-06-19T11:17:55Z</time>
      </trkpt>
      <trkpt lat="39.9535170" lon="3.1889790">
        <ele>178.6</ele>
        <time>2021-06-19T11:17:57Z</time>
      </trkpt>
      <trkpt lat="39.9534060" lon="3.1889550">
        <ele>179.4</ele>
        <time>2021-06-19T11:18:00Z</time>
      </trkpt>
      <trkpt lat="39.9533300" lon="3.1889490">
        <ele>179.9</ele>
        <time>2021-06-19T11:18:02Z</time>
      </trkpt>
      <trkpt lat="39.9532620" lon="3.1889210">
        <ele>180.3</ele>
        <time>2021-06-19T11:18:04Z</time>
      </trkpt>
      <trkpt lat="39.9532260" lon="3.1889050">
        <ele>180.6</ele>
        <time>2021-06-19T11:18:05Z</time>
      </trkpt>
      <trkpt lat="39.9531920" lon="3.1888860">
        <ele>180.8</ele>
        <time>2021-06-19T11:18:06Z</time>
      </trkpt>
      <trkpt lat="39.9530580" lon="3.1887030">
        <ele>181.7</ele>
        <time>2021-06-19T11:18:11Z</time>
      </trkpt>
      <trkpt lat="39.9530410" lon="3.1884980">
        <ele>182.2</ele>
        <time>2021-06-19T11:18:15Z</time>
      </trkpt>
      <trkpt lat="39.9530520" lon="3.1884520">
        <ele>182.3</ele>
        <time>2021-06-19T11:18:16Z</time>
      </trkpt>
      <trkpt lat="39.9530700" lon="3.1883670">
        <ele>182.4</ele>
        <time>2021-06-19T11:18:18Z</time>
      </trkpt>
      <trkpt lat="39.9530890" lon="3.1882670">
        <ele>182.6</ele>
        <time>2021-06-19T11:18:20Z</time>
      </trkpt>
      <trkpt lat="39.9531090" lon="3.1881700">
        <ele>182.7</ele>
        <time>2021-06-19T11:18:22Z</time>
      </trkpt>
      <trkpt lat="39.9531350" lon="3.1880650">
        <ele>182.8</ele>
        <time>2021-06-19T11:18:24Z</time>
      </trkpt>
      <trkpt lat="39.9531590" lon="3.1879500">
        <ele>182.9</ele>
        <time>2021-06-19T11:18:26Z</time>
      </trkpt>
      <trkpt lat="39.9531630" lon="3.1878900">
        <ele>182.9</ele>
        <time>2021-06-19T11:18:27Z</time>
      </trkpt>
      <trkpt lat="39.9531440" lon="3.1877690">
        <ele>182.9</ele>
        <time>2021-06-19T11:18:29Z</time>
      </trkpt>
      <trkpt lat="39.9531010" lon="3.1876570">
        <ele>182.9</ele>
        <time>2021-06-19T11:18:31Z</time>
      </trkpt>
      <trkpt lat="39.9530060" lon="3.1874920">
        <ele>183.0</ele>
        <time>2021-06-19T11:18:34Z</time>
      </trkpt>
      <trkpt lat="39.9529290" lon="3.1873110">
        <ele>183.2</ele>
        <time>2021-06-19T11:18:37Z</time>
      </trkpt>
      <trkpt lat="39.9528890" lon="3.1871700">
        <ele>183.3</ele>
        <time>2021-06-19T11:18:39Z</time>
      </trkpt>
      <trkpt lat="39.9528240" lon="3.1868390">
        <ele>183.6</ele>
        <time>2021-06-19T11:18:44Z</time>
      </trkpt>
      <trkpt lat="39.9528110" lon="3.1867160">
        <ele>183.6</ele>
        <time>2021-06-19T11:18:46Z</time>
      </trkpt>
      <trkpt lat="39.9527890" lon="3.1864380">
        <ele>183.5</ele>
        <time>2021-06-19T11:18:50Z</time>
      </trkpt>
      <trkpt lat="39.9527450" lon="3.1863280">
        <ele>183.2</ele>
        <time>2021-06-19T11:18:52Z</time>
      </trkpt>
      <trkpt lat="39.9526380" lon="3.1862280">
        <ele>182.5</ele>
        <time>2021-06-19T11:18:54Z</time>
      </trkpt>
      <trkpt lat="39.9525760" lon="3.1861940">
        <ele>182.1</ele>
        <time>2021-06-19T11:18:55Z</time>
      </trkpt>
      <trkpt lat="39.9524610" lon="3.1861250">
        <ele>181.3</ele>
        <time>2021-06-19T11:18:57Z</time>
      </trkpt>
      <trkpt lat="39.9523410" lon="3.1860320">
        <ele>180.3</ele>
        <time>2021-06-19T11:18:59Z</time>
      </trkpt>
      <trkpt lat="39.9522350" lon="3.1859170">
        <ele>179.4</ele>
        <time>2021-06-19T11:19:01Z</time>
      </trkpt>
      <trkpt lat="39.9521260" lon="3.1857960">
        <ele>178.6</ele>
        <time>2021-06-19T11:19:03Z</time>
      </trkpt>
      <trkpt lat="39.9520170" lon="3.1856450">
        <ele>177.7</ele>
        <time>2021-06-19T11:19:05Z</time>
      </trkpt>
      <trkpt lat="39.9519830" lon="3.1855800">
        <ele>177.4</ele>
        <time>2021-06-19T11:19:06Z</time>
      </trkpt>
      <trkpt lat="39.9519460" lon="3.1854920">
        <ele>176.9</ele>
        <time>2021-06-19T11:19:07Z</time>
      </trkpt>
      <trkpt lat="39.9519070" lon="3.1852890">
        <ele>176.1</ele>
        <time>2021-06-19T11:19:09Z</time>
      </trkpt>
      <trkpt lat="39.9518820" lon="3.1850740">
        <ele>175.2</ele>
        <time>2021-06-19T11:19:11Z</time>
      </trkpt>
      <trkpt lat="39.9518630" lon="3.1849690">
        <ele>174.8</ele>
        <time>2021-06-19T11:19:12Z</time>
      </trkpt>
      <trkpt lat="39.9517750" lon="3.1847610">
        <ele>173.8</ele>
        <time>2021-06-19T11:19:14Z</time>
      </trkpt>
      <trkpt lat="39.9514010" lon="3.1842610">
        <ele>171.2</ele>
        <time>2021-06-19T11:19:20Z</time>
      </trkpt>
      <trkpt lat="39.9512960" lon="3.1840920">
        <ele>170.4</ele>
        <time>2021-06-19T11:19:22Z</time>
      </trkpt>
      <trkpt lat="39.9510720" lon="3.1836760">
        <ele>168.5</ele>
        <time>2021-06-19T11:19:26Z</time>
      </trkpt>
      <trkpt lat="39.9507350" lon="3.1829920">
        <ele>165.3</ele>
        <time>2021-06-19T11:19:32Z</time>
      </trkpt>
      <trkpt lat="39.9506950" lon="3.1828670">
        <ele>164.6</ele>
        <time>2021-06-19T11:19:33Z</time>
      </trkpt>
      <trkpt lat="39.9504900" lon="3.1820790">
        <ele>159.9</ele>
        <time>2021-06-19T11:19:39Z</time>
      </trkpt>
      <trkpt lat="39.9504560" lon="3.1819470">
        <ele>159.1</ele>
        <time>2021-06-19T11:19:40Z</time>
      </trkpt>
      <trkpt lat="39.9502600" lon="3.1811450">
        <ele>154.4</ele>
        <time>2021-06-19T11:19:46Z</time>
      </trkpt>
      <trkpt lat="39.9501810" lon="3.1807310">
        <ele>152.4</ele>
        <time>2021-06-19T11:19:49Z</time>
      </trkpt>
      <trkpt lat="39.9499870" lon="3.1800550">
        <ele>149.4</ele>
        <time>2021-06-19T11:19:54Z</time>
      </trkpt>
      <trkpt lat="39.9499870" lon="3.1800550">
        <ele>149.4</ele>
        <time>2021-06-19T11:20:01Z</time>
      </trkpt>
      <trkpt lat="39.9499790" lon="3.1798460">
        <ele>148.7</ele>
        <time>2021-06-19T11:20:03Z</time>
      </trkpt>
      <trkpt lat="39.9499710" lon="3.1796370">
        <ele>147.9</ele>
        <time>2021-06-19T11:20:04Z</time>
      </trkpt>
      <trkpt lat="39.9499630" lon="3.1794290">
        <ele>147.1</ele>
        <time>2021-06-19T11:20:05Z</time>
      </trkpt>
      <trkpt lat="39.9499540" lon="3.1792200">
        <ele>146.3</ele>
        <time>2021-06-19T11:20:08Z</time>
      </trkpt>
      <trkpt lat="39.9499460" lon="3.1790110">
        <ele>145.4</ele>
        <time>2021-06-19T11:20:10Z</time>
      </trkpt>
      <trkpt lat="39.9499380" lon="3.1788020">
        <ele>144.5</ele>
        <time>2021-06-19T11:20:11Z</time>
      </trkpt>
      <trkpt lat="39.9499300" lon="3.1785940">
        <ele>143.6</ele>
        <time>2021-06-19T11:20:14Z</time>
      </trkpt>
      <trkpt lat="39.9499220" lon="3.1783850">
        <ele>142.5</ele>
        <time>2021-06-19T11:20:17Z</time>
      </trkpt>
      <trkpt lat="39.9499140" lon="3.1781760">
        <ele>140.6</ele>
        <time>2021-06-19T11:20:18Z</time>
      </trkpt>
      <trkpt lat="39.9499050" lon="3.1779670">
        <ele>139.3</ele>
        <time>2021-06-19T11:20:19Z</time>
      </trkpt>
      <trkpt lat="39.9498970" lon="3.1777590">
        <ele>138.1</ele>
        <time>2021-06-19T11:20:21Z</time>
      </trkpt>
      <trkpt lat="39.9498890" lon="3.1775500">
        <ele>137.1</ele>
        <time>2021-06-19T11:20:23Z</time>
      </trkpt>
      <trkpt lat="39.9498400" lon="3.1762980">
        <ele>131.2</ele>
        <time>2021-06-19T11:20:24Z</time>
      </trkpt>
      <trkpt lat="39.9496810" lon="3.1758250">
        <ele>129.0</ele>
        <time>2021-06-19T11:20:28Z</time>
      </trkpt>
      <trkpt lat="39.9495330" lon="3.1751590">
        <ele>126.0</ele>
        <time>2021-06-19T11:20:33Z</time>
      </trkpt>
      <trkpt lat="39.9495000" lon="3.1750310">
        <ele>125.4</ele>
        <time>2021-06-19T11:20:34Z</time>
      </trkpt>
      <trkpt lat="39.9493980" lon="3.1747990">
        <ele>124.3</ele>
        <time>2021-06-19T11:20:36Z</time>
      </trkpt>
      <trkpt lat="39.9491900" lon="3.1744850">
        <ele>122.5</ele>
        <time>2021-06-19T11:20:39Z</time>
      </trkpt>
      <trkpt lat="39.9491080" lon="3.1742700">
        <ele>121.5</ele>
        <time>2021-06-19T11:20:41Z</time>
      </trkpt>
      <trkpt lat="39.9488840" lon="3.1735890">
        <ele>118.6</ele>
        <time>2021-06-19T11:20:47Z</time>
      </trkpt>
      <trkpt lat="39.9488580" lon="3.1734310">
        <ele>117.9</ele>
        <time>2021-06-19T11:20:48Z</time>
      </trkpt>
      <trkpt lat="39.9488660" lon="3.1731550">
        <ele>116.5</ele>
        <time>2021-06-19T11:20:50Z</time>
      </trkpt>
      <trkpt lat="39.9488810" lon="3.1730470">
        <ele>115.9</ele>
        <time>2021-06-19T11:20:51Z</time>
      </trkpt>
      <trkpt lat="39.9489590" lon="3.1725030">
        <ele>112.3</ele>
        <time>2021-06-19T11:20:55Z</time>
      </trkpt>
      <trkpt lat="39.9489460" lon="3.1723840">
        <ele>111.5</ele>
        <time>2021-06-19T11:20:56Z</time>
      </trkpt>
      <trkpt lat="39.9489220" lon="3.1722760">
        <ele>110.7</ele>
        <time>2021-06-19T11:20:57Z</time>
      </trkpt>
      <trkpt lat="39.9488650" lon="3.1721910">
        <ele>109.9</ele>
        <time>2021-06-19T11:20:58Z</time>
      </trkpt>
      <trkpt lat="39.9487810" lon="3.1721300">
        <ele>109.0</ele>
        <time>2021-06-19T11:20:59Z</time>
      </trkpt>
      <trkpt lat="39.9485870" lon="3.1720330">
        <ele>107.2</ele>
        <time>2021-06-19T11:21:01Z</time>
      </trkpt>
      <trkpt lat="39.9483120" lon="3.1719080">
        <ele>104.1</ele>
        <time>2021-06-19T11:21:04Z</time>
      </trkpt>
      <trkpt lat="39.9482450" lon="3.1718560">
        <ele>103.1</ele>
        <time>2021-06-19T11:21:05Z</time>
      </trkpt>
      <trkpt lat="39.9481830" lon="3.1717700">
        <ele>102.0</ele>
        <time>2021-06-19T11:21:06Z</time>
      </trkpt>
      <trkpt lat="39.9481590" lon="3.1716310">
        <ele>100.6</ele>
        <time>2021-06-19T11:21:07Z</time>
      </trkpt>
      <trkpt lat="39.9481770" lon="3.1715270">
        <ele>99.5</ele>
        <time>2021-06-19T11:21:08Z</time>
      </trkpt>
      <trkpt lat="39.9482310" lon="3.1714120">
        <ele>98.3</ele>
        <time>2021-06-19T11:21:09Z</time>
      </trkpt>
      <trkpt lat="39.9483120" lon="3.1713290">
        <ele>97.3</ele>
        <time>2021-06-19T11:21:10Z</time>
      </trkpt>
      <trkpt lat="39.9484100" lon="3.1712810">
        <ele>96.4</ele>
        <time>2021-06-19T11:21:11Z</time>
      </trkpt>
      <trkpt lat="39.9485430" lon="3.1712790">
        <ele>95.4</ele>
        <time>2021-06-19T11:21:12Z</time>
      </trkpt>
      <trkpt lat="39.9486340" lon="3.1712930">
        <ele>94.7</ele>
        <time>2021-06-19T11:21:13Z</time>
      </trkpt>
      <trkpt lat="39.9488410" lon="3.1713080">
        <ele>92.8</ele>
        <time>2021-06-19T11:21:15Z</time>
      </trkpt>
      <trkpt lat="39.9489400" lon="3.1713000">
        <ele>92.0</ele>
        <time>2021-06-19T11:21:16Z</time>
      </trkpt>
      <trkpt lat="39.9490380" lon="3.1712720">
        <ele>91.0</ele>
        <time>2021-06-19T11:21:17Z</time>
      </trkpt>
      <trkpt lat="39.9491200" lon="3.1712050">
        <ele>90.1</ele>
        <time>2021-06-19T11:21:18Z</time>
      </trkpt>
      <trkpt lat="39.9491760" lon="3.1711010">
        <ele>89.1</ele>
        <time>2021-06-19T11:21:19Z</time>
      </trkpt>
      <trkpt lat="39.9492170" lon="3.1709800">
        <ele>88.1</ele>
        <time>2021-06-19T11:21:20Z</time>
      </trkpt>
      <trkpt lat="39.9492550" lon="3.1707160">
        <ele>86.2</ele>
        <time>2021-06-19T11:21:22Z</time>
      </trkpt>
      <trkpt lat="39.9492060" lon="3.1702740">
        <ele>82.8</ele>
        <time>2021-06-19T11:21:25Z</time>
      </trkpt>
      <trkpt lat="39.9491940" lon="3.1701170">
        <ele>81.8</ele>
        <time>2021-06-19T11:21:26Z</time>
      </trkpt>
      <trkpt lat="39.9492050" lon="3.1697950">
        <ele>80.1</ele>
        <time>2021-06-19T11:21:28Z</time>
      </trkpt>
      <trkpt lat="39.9493190" lon="3.1690550">
        <ele>79.4</ele>
        <time>2021-06-19T11:21:33Z</time>
      </trkpt>
      <trkpt lat="39.9493450" lon="3.1688000">
        <ele>79.5</ele>
        <time>2021-06-19T11:21:35Z</time>
      </trkpt>
      <trkpt lat="39.9493460" lon="3.1686900">
        <ele>79.6</ele>
        <time>2021-06-19T11:21:36Z</time>
      </trkpt>
      <trkpt lat="39.9492880" lon="3.1682750">
        <ele>80.2</ele>
        <time>2021-06-19T11:21:40Z</time>
      </trkpt>
      <trkpt lat="39.9492410" lon="3.1679980">
        <ele>80.9</ele>
        <time>2021-06-19T11:21:43Z</time>
      </trkpt>
      <trkpt lat="39.9492070" lon="3.1678340">
        <ele>81.3</ele>
        <time>2021-06-19T11:21:45Z</time>
      </trkpt>
      <trkpt lat="39.9491210" lon="3.1674160">
        <ele>82.6</ele>
        <time>2021-06-19T11:21:51Z</time>
      </trkpt>
      <trkpt lat="39.9490450" lon="3.1669840">
        <ele>84.1</ele>
        <time>2021-06-19T11:21:58Z</time>
      </trkpt>
      <trkpt lat="39.9490330" lon="3.1669240">
        <ele>84.3</ele>
        <time>2021-06-19T11:21:59Z</time>
      </trkpt>
      <trkpt lat="39.9490240" lon="3.1668620">
        <ele>84.5</ele>
        <time>2021-06-19T11:22:00Z</time>
      </trkpt>
      <trkpt lat="39.9490150" lon="3.1667490">
        <ele>85.0</ele>
        <time>2021-06-19T11:22:02Z</time>
      </trkpt>
      <trkpt lat="39.9490040" lon="3.1666380">
        <ele>85.5</ele>
        <time>2021-06-19T11:22:04Z</time>
      </trkpt>
      <trkpt lat="39.9489650" lon="3.1663250">
        <ele>87.1</ele>
        <time>2021-06-19T11:22:10Z</time>
      </trkpt>
      <trkpt lat="39.9489520" lon="3.1662270">
        <ele>87.6</ele>
        <time>2021-06-19T11:22:12Z</time>
      </trkpt>
      <trkpt lat="39.9489060" lon="3.1659300">
        <ele>89.2</ele>
        <time>2021-06-19T11:22:18Z</time>
      </trkpt>
      <trkpt lat="39.9488790" lon="3.1657880">
        <ele>89.9</ele>
        <time>2021-06-19T11:22:21Z</time>
      </trkpt>
      <trkpt lat="39.9488410" lon="3.1656510">
        <ele>90.6</ele>
        <time>2021-06-19T11:22:24Z</time>
      </trkpt>
      <trkpt lat="39.9488200" lon="3.1655590">
        <ele>91.0</ele>
        <time>2021-06-19T11:22:26Z</time>
      </trkpt>
      <trkpt lat="39.9487490" lon="3.1652090">
        <ele>92.6</ele>
        <time>2021-06-19T11:22:33Z</time>
      </trkpt>
      <trkpt lat="39.9487410" lon="3.1651590">
        <ele>92.8</ele>
        <time>2021-06-19T11:22:34Z</time>
      </trkpt>
      <trkpt lat="39.9487130" lon="3.1650090">
        <ele>93.6</ele>
        <time>2021-06-19T11:22:37Z</time>
      </trkpt>
      <trkpt lat="39.9486940" lon="3.1649110">
        <ele>94.1</ele>
        <time>2021-06-19T11:22:39Z</time>
      </trkpt>
      <trkpt lat="39.9486850" lon="3.1648640">
        <ele>94.3</ele>
        <time>2021-06-19T11:22:40Z</time>
      </trkpt>
      <trkpt lat="39.9486710" lon="3.1647740">
        <ele>94.8</ele>
        <time>2021-06-19T11:22:42Z</time>
      </trkpt>
      <trkpt lat="39.9486550" lon="3.1646770">
        <ele>95.3</ele>
        <time>2021-06-19T11:22:44Z</time>
      </trkpt>
      <trkpt lat="39.9486130" lon="3.1644910">
        <ele>96.2</ele>
        <time>2021-06-19T11:22:48Z</time>
      </trkpt>
      <trkpt lat="39.9486040" lon="3.1644460">
        <ele>96.4</ele>
        <time>2021-06-19T11:22:49Z</time>
      </trkpt>
      <trkpt lat="39.9485770" lon="3.1643090">
        <ele>96.9</ele>
        <time>2021-06-19T11:22:52Z</time>
      </trkpt>
      <trkpt lat="39.9485220" lon="3.1640060">
        <ele>97.7</ele>
        <time>2021-06-19T11:22:58Z</time>
      </trkpt>
      <trkpt lat="39.9485110" lon="3.1639500">
        <ele>97.8</ele>
        <time>2021-06-19T11:22:59Z</time>
      </trkpt>
      <trkpt lat="39.9484850" lon="3.1637850">
        <ele>98.0</ele>
        <time>2021-06-19T11:23:02Z</time>
      </trkpt>
      <trkpt lat="39.9484770" lon="3.1637320">
        <ele>98.1</ele>
        <time>2021-06-19T11:23:03Z</time>
      </trkpt>
      <trkpt lat="39.9484270" lon="3.1634800">
        <ele>98.5</ele>
        <time>2021-06-19T11:23:08Z</time>
      </trkpt>
      <trkpt lat="39.9483650" lon="3.1632590">
        <ele>98.6</ele>
        <time>2021-06-19T11:23:14Z</time>
      </trkpt>
      <trkpt lat="39.9483200" lon="3.1631430">
        <ele>98.2</ele>
        <time>2021-06-19T11:23:18Z</time>
      </trkpt>
      <trkpt lat="39.9482840" lon="3.1630940">
        <ele>98.0</ele>
        <time>2021-06-19T11:23:20Z</time>
      </trkpt>
      <trkpt lat="39.9481850" lon="3.1629970">
        <ele>97.2</ele>
        <time>2021-06-19T11:23:23Z</time>
      </trkpt>
      <trkpt lat="39.9481450" lon="3.1629610">
        <ele>96.8</ele>
        <time>2021-06-19T11:23:24Z</time>
      </trkpt>
      <trkpt lat="39.9479410" lon="3.1627450">
        <ele>94.8</ele>
        <time>2021-06-19T11:23:28Z</time>
      </trkpt>
      <trkpt lat="39.9477530" lon="3.1625360">
        <ele>93.0</ele>
        <time>2021-06-19T11:23:31Z</time>
      </trkpt>
      <trkpt lat="39.9476860" lon="3.1624530">
        <ele>92.4</ele>
        <time>2021-06-19T11:23:32Z</time>
      </trkpt>
      <trkpt lat="39.9476270" lon="3.1623600">
        <ele>91.8</ele>
        <time>2021-06-19T11:23:33Z</time>
      </trkpt>
      <trkpt lat="39.9475780" lon="3.1622520">
        <ele>91.3</ele>
        <time>2021-06-19T11:23:34Z</time>
      </trkpt>
      <trkpt lat="39.9475450" lon="3.1620030">
        <ele>89.9</ele>
        <time>2021-06-19T11:23:36Z</time>
      </trkpt>
      <trkpt lat="39.9475980" lon="3.1616170">
        <ele>88.4</ele>
        <time>2021-06-19T11:23:39Z</time>
      </trkpt>
      <trkpt lat="39.9476150" lon="3.1614900">
        <ele>88.2</ele>
        <time>2021-06-19T11:23:40Z</time>
      </trkpt>
      <trkpt lat="39.9477000" lon="3.1607940">
        <ele>86.9</ele>
        <time>2021-06-19T11:23:46Z</time>
      </trkpt>
      <trkpt lat="39.9476920" lon="3.1604580">
        <ele>86.2</ele>
        <time>2021-06-19T11:23:49Z</time>
      </trkpt>
      <trkpt lat="39.9476410" lon="3.1602550">
        <ele>85.7</ele>
        <time>2021-06-19T11:23:51Z</time>
      </trkpt>
      <trkpt lat="39.9474990" lon="3.1599700">
        <ele>84.8</ele>
        <time>2021-06-19T11:23:54Z</time>
      </trkpt>
      <trkpt lat="39.9473920" lon="3.1597780">
        <ele>84.1</ele>
        <time>2021-06-19T11:23:56Z</time>
      </trkpt>
      <trkpt lat="39.9471800" lon="3.1593840">
        <ele>82.4</ele>
        <time>2021-06-19T11:24:00Z</time>
      </trkpt>
      <trkpt lat="39.9470650" lon="3.1591820">
        <ele>81.4</ele>
        <time>2021-06-19T11:24:02Z</time>
      </trkpt>
      <trkpt lat="39.9468880" lon="3.1588720">
        <ele>79.8</ele>
        <time>2021-06-19T11:24:05Z</time>
      </trkpt>
      <trkpt lat="39.9467630" lon="3.1586640">
        <ele>78.7</ele>
        <time>2021-06-19T11:24:07Z</time>
      </trkpt>
      <trkpt lat="39.9467000" lon="3.1585570">
        <ele>78.1</ele>
        <time>2021-06-19T11:24:08Z</time>
      </trkpt>
      <trkpt lat="39.9463930" lon="3.1580130">
        <ele>76.0</ele>
        <time>2021-06-19T11:24:13Z</time>
      </trkpt>
      <trkpt lat="39.9462210" lon="3.1577140">
        <ele>75.4</ele>
        <time>2021-06-19T11:24:16Z</time>
      </trkpt>
      <trkpt lat="39.9460080" lon="3.1573220">
        <ele>74.7</ele>
        <time>2021-06-19T11:24:20Z</time>
      </trkpt>
      <trkpt lat="39.9459020" lon="3.1571270">
        <ele>74.4</ele>
        <time>2021-06-19T11:24:22Z</time>
      </trkpt>
      <trkpt lat="39.9456350" lon="3.1566430">
        <ele>74.2</ele>
        <time>2021-06-19T11:24:27Z</time>
      </trkpt>
      <trkpt lat="39.9455280" lon="3.1564540">
        <ele>74.2</ele>
        <time>2021-06-19T11:24:29Z</time>
      </trkpt>
      <trkpt lat="39.9454230" lon="3.1562710">
        <ele>74.3</ele>
        <time>2021-06-19T11:24:31Z</time>
      </trkpt>
      <trkpt lat="39.9453170" lon="3.1560890">
        <ele>74.4</ele>
        <time>2021-06-19T11:24:33Z</time>
      </trkpt>
      <trkpt lat="39.9451590" lon="3.1558270">
        <ele>74.6</ele>
        <time>2021-06-19T11:24:36Z</time>
      </trkpt>
      <trkpt lat="39.9450560" lon="3.1556390">
        <ele>74.7</ele>
        <time>2021-06-19T11:24:38Z</time>
      </trkpt>
      <trkpt lat="39.9449470" lon="3.1554470">
        <ele>74.4</ele>
        <time>2021-06-19T11:24:40Z</time>
      </trkpt>
      <trkpt lat="39.9447240" lon="3.1550580">
        <ele>74.0</ele>
        <time>2021-06-19T11:24:44Z</time>
      </trkpt>
      <trkpt lat="39.9443840" lon="3.1544690">
        <ele>72.8</ele>
        <time>2021-06-19T11:24:50Z</time>
      </trkpt>
      <trkpt lat="39.9442210" lon="3.1541810">
        <ele>72.0</ele>
        <time>2021-06-19T11:24:53Z</time>
      </trkpt>
      <trkpt lat="39.9439970" lon="3.1537960">
        <ele>70.7</ele>
        <time>2021-06-19T11:24:57Z</time>
      </trkpt>
      <trkpt lat="39.9438840" lon="3.1536020">
        <ele>70.2</ele>
        <time>2021-06-19T11:24:59Z</time>
      </trkpt>
      <trkpt lat="39.9436690" lon="3.1532070">
        <ele>69.3</ele>
        <time>2021-06-19T11:25:03Z</time>
      </trkpt>
      <trkpt lat="39.9435720" lon="3.1530190">
        <ele>68.9</ele>
        <time>2021-06-19T11:25:05Z</time>
      </trkpt>
      <trkpt lat="39.9435200" lon="3.1529320">
        <ele>68.8</ele>
        <time>2021-06-19T11:25:06Z</time>
      </trkpt>
      <trkpt lat="39.9431990" lon="3.1523600">
        <ele>68.0</ele>
        <time>2021-06-19T11:25:12Z</time>
      </trkpt>
      <trkpt lat="39.9428330" lon="3.1517120">
        <ele>67.6</ele>
        <time>2021-06-19T11:25:19Z</time>
      </trkpt>
      <trkpt lat="39.9427790" lon="3.1516170">
        <ele>67.6</ele>
        <time>2021-06-19T11:25:20Z</time>
      </trkpt>
      <trkpt lat="39.9426740" lon="3.1514300">
        <ele>67.5</ele>
        <time>2021-06-19T11:25:22Z</time>
      </trkpt>
      <trkpt lat="39.9426180" lon="3.1513340">
        <ele>67.3</ele>
        <time>2021-06-19T11:25:23Z</time>
      </trkpt>
      <trkpt lat="39.9425040" lon="3.1511410">
        <ele>67.0</ele>
        <time>2021-06-19T11:25:25Z</time>
      </trkpt>
      <trkpt lat="39.9423880" lon="3.1509440">
        <ele>66.6</ele>
        <time>2021-06-19T11:25:27Z</time>
      </trkpt>
      <trkpt lat="39.9422090" lon="3.1506410">
        <ele>65.8</ele>
        <time>2021-06-19T11:25:30Z</time>
      </trkpt>
      <trkpt lat="39.9418720" lon="3.1500220">
        <ele>63.5</ele>
        <time>2021-06-19T11:25:36Z</time>
      </trkpt>
      <trkpt lat="39.9415180" lon="3.1493910">
        <ele>60.9</ele>
        <time>2021-06-19T11:25:42Z</time>
      </trkpt>
      <trkpt lat="39.9411910" lon="3.1488190">
        <ele>59.5</ele>
        <time>2021-06-19T11:25:47Z</time>
      </trkpt>
      <trkpt lat="39.9411280" lon="3.1487060">
        <ele>59.4</ele>
        <time>2021-06-19T11:25:48Z</time>
      </trkpt>
      <trkpt lat="39.9408790" lon="3.1482690">
        <ele>59.1</ele>
        <time>2021-06-19T11:25:52Z</time>
      </trkpt>
      <trkpt lat="39.9407590" lon="3.1480550">
        <ele>58.9</ele>
        <time>2021-06-19T11:25:54Z</time>
      </trkpt>
      <trkpt lat="39.9404610" lon="3.1475190">
        <ele>58.4</ele>
        <time>2021-06-19T11:25:59Z</time>
      </trkpt>
      <trkpt lat="39.9402280" lon="3.1471120">
        <ele>58.0</ele>
        <time>2021-06-19T11:26:03Z</time>
      </trkpt>
      <trkpt lat="39.9401710" lon="3.1470080">
        <ele>57.8</ele>
        <time>2021-06-19T11:26:04Z</time>
      </trkpt>
      <trkpt lat="39.9398090" lon="3.1463700">
        <ele>57.1</ele>
        <time>2021-06-19T11:26:10Z</time>
      </trkpt>
      <trkpt lat="39.9397490" lon="3.1462660">
        <ele>56.9</ele>
        <time>2021-06-19T11:26:11Z</time>
      </trkpt>
      <trkpt lat="39.9393870" lon="3.1456070">
        <ele>55.9</ele>
        <time>2021-06-19T11:26:17Z</time>
      </trkpt>
      <trkpt lat="39.9393270" lon="3.1455000">
        <ele>55.9</ele>
        <time>2021-06-19T11:26:18Z</time>
      </trkpt>
      <trkpt lat="39.9389740" lon="3.1448950">
        <ele>56.8</ele>
        <time>2021-06-19T11:26:24Z</time>
      </trkpt>
      <trkpt lat="39.9386050" lon="3.1442530">
        <ele>55.7</ele>
        <time>2021-06-19T11:26:31Z</time>
      </trkpt>
      <trkpt lat="39.9384180" lon="3.1439760">
        <ele>54.3</ele>
        <time>2021-06-19T11:26:34Z</time>
      </trkpt>
      <trkpt lat="39.9382760" lon="3.1438030">
        <ele>53.2</ele>
        <time>2021-06-19T11:26:36Z</time>
      </trkpt>
      <trkpt lat="39.9378390" lon="3.1433530">
        <ele>49.5</ele>
        <time>2021-06-19T11:26:41Z</time>
      </trkpt>
      <trkpt lat="39.9375560" lon="3.1430850">
        <ele>47.5</ele>
        <time>2021-06-19T11:26:44Z</time>
      </trkpt>
      <trkpt lat="39.9371720" lon="3.1427060">
        <ele>45.4</ele>
        <time>2021-06-19T11:26:48Z</time>
      </trkpt>
      <trkpt lat="39.9369830" lon="3.1425160">
        <ele>44.6</ele>
        <time>2021-06-19T11:26:50Z</time>
      </trkpt>
      <trkpt lat="39.9365240" lon="3.1420660">
        <ele>43.5</ele>
        <time>2021-06-19T11:26:55Z</time>
      </trkpt>
      <trkpt lat="39.9363440" lon="3.1418950">
        <ele>43.4</ele>
        <time>2021-06-19T11:26:57Z</time>
      </trkpt>
      <trkpt lat="39.9359130" lon="3.1414780">
        <ele>43.1</ele>
        <time>2021-06-19T11:27:02Z</time>
      </trkpt>
      <trkpt lat="39.9354170" lon="3.1409830">
        <ele>41.3</ele>
        <time>2021-06-19T11:27:08Z</time>
      </trkpt>
      <trkpt lat="39.9353370" lon="3.1409040">
        <ele>40.9</ele>
        <time>2021-06-19T11:27:09Z</time>
      </trkpt>
      <trkpt lat="39.9352610" lon="3.1408160">
        <ele>40.4</ele>
        <time>2021-06-19T11:27:10Z</time>
      </trkpt>
      <trkpt lat="39.9351240" lon="3.1405940">
        <ele>39.5</ele>
        <time>2021-06-19T11:27:12Z</time>
      </trkpt>
      <trkpt lat="39.9349060" lon="3.1399520">
        <ele>38.3</ele>
        <time>2021-06-19T11:27:17Z</time>
      </trkpt>
      <trkpt lat="39.9346920" lon="3.1394810">
        <ele>37.7</ele>
        <time>2021-06-19T11:27:21Z</time>
      </trkpt>
      <trkpt lat="39.9343850" lon="3.1389690">
        <ele>36.2</ele>
        <time>2021-06-19T11:27:26Z</time>
      </trkpt>
      <trkpt lat="39.9340620" lon="3.1384010">
        <ele>31.8</ele>
        <time>2021-06-19T11:27:31Z</time>
      </trkpt>
      <trkpt lat="39.9339230" lon="3.1381650">
        <ele>30.0</ele>
        <time>2021-06-19T11:27:33Z</time>
      </trkpt>
      <trkpt lat="39.9335490" lon="3.1375280">
        <ele>25.5</ele>
        <time>2021-06-19T11:27:38Z</time>
      </trkpt>
      <trkpt lat="39.9334850" lon="3.1373790">
        <ele>24.7</ele>
        <time>2021-06-19T11:27:39Z</time>
      </trkpt>
      <trkpt lat="39.9334180" lon="3.1370520">
        <ele>23.1</ele>
        <time>2021-06-19T11:27:41Z</time>
      </trkpt>
      <trkpt lat="39.9334080" lon="3.1367230">
        <ele>21.9</ele>
        <time>2021-06-19T11:27:43Z</time>
      </trkpt>
      <trkpt lat="39.9333960" lon="3.1362320">
        <ele>20.5</ele>
        <time>2021-06-19T11:27:46Z</time>
      </trkpt>
      <trkpt lat="39.9333580" lon="3.1359260">
        <ele>19.7</ele>
        <time>2021-06-19T11:27:48Z</time>
      </trkpt>
      <trkpt lat="39.9333090" lon="3.1357970">
        <ele>19.3</ele>
        <time>2021-06-19T11:27:49Z</time>
      </trkpt>
      <trkpt lat="39.9332350" lon="3.1356880">
        <ele>18.8</ele>
        <time>2021-06-19T11:27:50Z</time>
      </trkpt>
      <trkpt lat="39.9331390" lon="3.1355970">
        <ele>18.3</ele>
        <time>2021-06-19T11:27:51Z</time>
      </trkpt>
      <trkpt lat="39.9330280" lon="3.1355270">
        <ele>17.8</ele>
        <time>2021-06-19T11:27:52Z</time>
      </trkpt>
      <trkpt lat="39.9326790" lon="3.1353420">
        <ele>16.1</ele>
        <time>2021-06-19T11:27:55Z</time>
      </trkpt>
      <trkpt lat="39.9322080" lon="3.1350980">
        <ele>13.8</ele>
        <time>2021-06-19T11:27:59Z</time>
      </trkpt>
      <trkpt lat="39.9318500" lon="3.1349400">
        <ele>12.3</ele>
        <time>2021-06-19T11:28:02Z</time>
      </trkpt>
      <trkpt lat="39.9313150" lon="3.1346730">
        <ele>10.3</ele>
        <time>2021-06-19T11:28:07Z</time>
      </trkpt>
      <trkpt lat="39.9309460" lon="3.1344250">
        <ele>9.2</ele>
        <time>2021-06-19T11:28:11Z</time>
      </trkpt>
      <trkpt lat="39.9308630" lon="3.1343630">
        <ele>9.0</ele>
        <time>2021-06-19T11:28:12Z</time>
      </trkpt>
      <trkpt lat="39.9306000" lon="3.1341910">
        <ele>8.4</ele>
        <time>2021-06-19T11:28:15Z</time>
      </trkpt>
      <trkpt lat="39.9305150" lon="3.1341360">
        <ele>8.2</ele>
        <time>2021-06-19T11:28:16Z</time>
      </trkpt>
      <trkpt lat="39.9303430" lon="3.1340400">
        <ele>7.8</ele>
        <time>2021-06-19T11:28:18Z</time>
      </trkpt>
      <trkpt lat="39.9299900" lon="3.1339460">
        <ele>7.2</ele>
        <time>2021-06-19T11:28:22Z</time>
      </trkpt>
      <trkpt lat="39.9298410" lon="3.1339040">
        <ele>6.9</ele>
        <time>2021-06-19T11:28:24Z</time>
      </trkpt>
      <trkpt lat="39.9297030" lon="3.1338650">
        <ele>6.8</ele>
        <time>2021-06-19T11:28:26Z</time>
      </trkpt>
      <trkpt lat="39.9294730" lon="3.1338180">
        <ele>6.7</ele>
        <time>2021-06-19T11:28:30Z</time>
      </trkpt>
      <trkpt lat="39.9294130" lon="3.1338070">
        <ele>6.7</ele>
        <time>2021-06-19T11:28:31Z</time>
      </trkpt>
      <trkpt lat="39.9292000" lon="3.1337390">
        <ele>6.9</ele>
        <time>2021-06-19T11:28:35Z</time>
      </trkpt>
      <trkpt lat="39.9291560" lon="3.1337390">
        <ele>7.3</ele>
        <time>2021-06-19T11:28:36Z</time>
      </trkpt>
      <trkpt lat="39.9291180" lon="3.1337520">
        <ele>7.2</ele>
        <time>2021-06-19T11:28:37Z</time>
      </trkpt>
      <trkpt lat="39.9290570" lon="3.1338240">
        <ele>7.2</ele>
        <time>2021-06-19T11:28:39Z</time>
      </trkpt>
      <trkpt lat="39.9290360" lon="3.1338800">
        <ele>7.1</ele>
        <time>2021-06-19T11:28:40Z</time>
      </trkpt>
      <trkpt lat="39.9289930" lon="3.1340000">
        <ele>6.9</ele>
        <time>2021-06-19T11:28:42Z</time>
      </trkpt>
      <trkpt lat="39.9289640" lon="3.1341390">
        <ele>6.7</ele>
        <time>2021-06-19T11:28:44Z</time>
      </trkpt>
      <trkpt lat="39.9289270" lon="3.1343440">
        <ele>6.6</ele>
        <time>2021-06-19T11:28:47Z</time>
      </trkpt>
      <trkpt lat="39.9288720" lon="3.1345160">
        <ele>6.7</ele>
        <time>2021-06-19T11:28:50Z</time>
      </trkpt>
      <trkpt lat="39.9288590" lon="3.1345630">
        <ele>6.7</ele>
        <time>2021-06-19T11:28:51Z</time>
      </trkpt>
      <trkpt lat="39.9288500" lon="3.1346060">
        <ele>6.8</ele>
        <time>2021-06-19T11:28:52Z</time>
      </trkpt>
      <trkpt lat="39.9287890" lon="3.1347350">
        <ele>6.9</ele>
        <time>2021-06-19T11:28:56Z</time>
      </trkpt>
      <trkpt lat="39.9286570" lon="3.1348440">
        <ele>7.1</ele>
        <time>2021-06-19T11:29:01Z</time>
      </trkpt>
      <trkpt lat="39.9286060" lon="3.1348950">
        <ele>7.1</ele>
        <time>2021-06-19T11:29:05Z</time>
      </trkpt>
      <trkpt lat="39.9286060" lon="3.1348950">
        <ele>7.1</ele>
        <time>2021-06-19T11:29:09Z</time>
      </trkpt>
      <trkpt lat="39.9285910" lon="3.1349080">
        <ele>7.1</ele>
        <time>2021-06-19T11:29:12Z</time>
      </trkpt>
      <trkpt lat="39.9285810" lon="3.1349150">
        <ele>7.1</ele>
        <time>2021-06-19T11:29:13Z</time>
      </trkpt>
      <trkpt lat="39.9285550" lon="3.1349730">
        <ele>7.1</ele>
        <time>2021-06-19T11:29:19Z</time>
      </trkpt>
      <trkpt lat="39.9285430" lon="3.1349980">
        <ele>7.1</ele>
        <time>2021-06-19T11:29:21Z</time>
      </trkpt>
      <trkpt lat="39.9285270" lon="3.1350210">
        <ele>7.1</ele>
        <time>2021-06-19T11:29:23Z</time>
      </trkpt>
      <trkpt lat="39.9285170" lon="3.1350520">
        <ele>7.0</ele>
        <time>2021-06-19T11:29:25Z</time>
      </trkpt>
      <trkpt lat="39.9284470" lon="3.1351030">
        <ele>6.9</ele>
        <time>2021-06-19T11:29:31Z</time>
      </trkpt>
      <trkpt lat="39.9284180" lon="3.1351190">
        <ele>6.9</ele>
        <time>2021-06-19T11:29:33Z</time>
      </trkpt>
      <trkpt lat="39.9283890" lon="3.1351440">
        <ele>6.8</ele>
        <time>2021-06-19T11:29:36Z</time>
      </trkpt>
      <trkpt lat="39.9283720" lon="3.1351600">
        <ele>6.8</ele>
        <time>2021-06-19T11:29:38Z</time>
      </trkpt>
      <trkpt lat="39.9283420" lon="3.1351730">
        <ele>6.7</ele>
        <time>2021-06-19T11:29:40Z</time>
      </trkpt>
      <trkpt lat="39.9282990" lon="3.1352090">
        <ele>6.7</ele>
        <time>2021-06-19T11:29:44Z</time>
      </trkpt>
      <trkpt lat="39.9282880" lon="3.1352160">
        <ele>6.7</ele>
        <time>2021-06-19T11:29:45Z</time>
      </trkpt>
      <trkpt lat="39.9282780" lon="3.1352210">
        <ele>6.7</ele>
        <time>2021-06-19T11:29:46Z</time>
      </trkpt>
      <trkpt lat="39.9282620" lon="3.1352280">
        <ele>6.7</ele>
        <time>2021-06-19T11:29:48Z</time>
      </trkpt>
      <trkpt lat="39.9282210" lon="3.1352430">
        <ele>6.7</ele>
        <time>2021-06-19T11:29:51Z</time>
      </trkpt>
      <trkpt lat="39.9282080" lon="3.1352600">
        <ele>6.7</ele>
        <time>2021-06-19T11:29:52Z</time>
      </trkpt>
      <trkpt lat="39.9281770" lon="3.1352910">
        <ele>6.7</ele>
        <time>2021-06-19T11:29:54Z</time>
      </trkpt>
      <trkpt lat="39.9281670" lon="3.1353210">
        <ele>6.7</ele>
        <time>2021-06-19T11:29:56Z</time>
      </trkpt>
      <trkpt lat="39.9281660" lon="3.1353330">
        <ele>6.7</ele>
        <time>2021-06-19T11:29:57Z</time>
      </trkpt>
      <trkpt lat="39.9281610" lon="3.1353550">
        <ele>6.8</ele>
        <time>2021-06-19T11:29:59Z</time>
      </trkpt>
      <trkpt lat="39.9281230" lon="3.1354320">
        <ele>6.8</ele>
        <time>2021-06-19T11:30:04Z</time>
      </trkpt>
      <trkpt lat="39.9281180" lon="3.1354700">
        <ele>6.8</ele>
        <time>2021-06-19T11:30:07Z</time>
      </trkpt>
      <trkpt lat="39.9281200" lon="3.1355000">
        <ele>6.8</ele>
        <time>2021-06-19T11:30:09Z</time>
      </trkpt>
      <trkpt lat="39.9280930" lon="3.1356000">
        <ele>6.7</ele>
        <time>2021-06-19T11:30:15Z</time>
      </trkpt>
      <trkpt lat="39.9280860" lon="3.1356270">
        <ele>6.7</ele>
        <time>2021-06-19T11:30:17Z</time>
      </trkpt>
      <trkpt lat="39.9280820" lon="3.1356420">
        <ele>6.7</ele>
        <time>2021-06-19T11:30:18Z</time>
      </trkpt>
      <trkpt lat="39.9280670" lon="3.1357000">
        <ele>6.6</ele>
        <time>2021-06-19T11:30:24Z</time>
      </trkpt>
      <trkpt lat="39.9280670" lon="3.1357080">
        <ele>6.6</ele>
        <time>2021-06-19T11:30:25Z</time>
      </trkpt>
      <trkpt lat="39.9280780" lon="3.1357270">
        <ele>6.6</ele>
        <time>2021-06-19T12:38:35Z</time>
      </trkpt>
      <trkpt lat="39.9280730" lon="3.1357010">
        <ele>6.6</ele>
        <time>2021-06-19T12:38:36Z</time>
      </trkpt>
      <trkpt lat="39.9281020" lon="3.1355880">
        <ele>6.8</ele>
        <time>2021-06-19T12:38:41Z</time>
      </trkpt>
      <trkpt lat="39.9281780" lon="3.1354320">
        <ele>6.8</ele>
        <time>2021-06-19T12:38:50Z</time>
      </trkpt>
      <trkpt lat="39.9282250" lon="3.1353360">
        <ele>6.7</ele>
        <time>2021-06-19T12:38:55Z</time>
      </trkpt>
      <trkpt lat="39.9282540" lon="3.1352950">
        <ele>6.7</ele>
        <time>2021-06-19T12:38:57Z</time>
      </trkpt>
      <trkpt lat="39.9283680" lon="3.1351890">
        <ele>6.7</ele>
        <time>2021-06-19T12:39:03Z</time>
      </trkpt>
      <trkpt lat="39.9284350" lon="3.1351450">
        <ele>6.8</ele>
        <time>2021-06-19T12:39:06Z</time>
      </trkpt>
      <trkpt lat="39.9285080" lon="3.1350690">
        <ele>7.0</ele>
        <time>2021-06-19T12:39:11Z</time>
      </trkpt>
      <trkpt lat="39.9285070" lon="3.1350630">
        <ele>7.0</ele>
        <time>2021-06-19T12:39:12Z</time>
      </trkpt>
      <trkpt lat="39.9285210" lon="3.1350310">
        <ele>7.0</ele>
        <time>2021-06-19T12:39:17Z</time>
      </trkpt>
      <trkpt lat="39.9285280" lon="3.1350210">
        <ele>7.0</ele>
        <time>2021-06-19T12:39:19Z</time>
      </trkpt>
      <trkpt lat="39.9285330" lon="3.1350120">
        <ele>7.1</ele>
        <time>2021-06-19T12:39:20Z</time>
      </trkpt>
      <trkpt lat="39.9285410" lon="3.1349880">
        <ele>7.1</ele>
        <time>2021-06-19T12:39:22Z</time>
      </trkpt>
      <trkpt lat="39.9285490" lon="3.1349490">
        <ele>7.1</ele>
        <time>2021-06-19T12:39:26Z</time>
      </trkpt>
      <trkpt lat="39.9285660" lon="3.1349160">
        <ele>7.1</ele>
        <time>2021-06-19T12:39:29Z</time>
      </trkpt>
      <trkpt lat="39.9285840" lon="3.1349290">
        <ele>7.1</ele>
        <time>2021-06-19T12:39:34Z</time>
      </trkpt>
      <trkpt lat="39.9285880" lon="3.1349280">
        <ele>7.1</ele>
        <time>2021-06-19T12:39:36Z</time>
      </trkpt>
      <trkpt lat="39.9285900" lon="3.1349190">
        <ele>7.1</ele>
        <time>2021-06-19T12:39:39Z</time>
      </trkpt>
      <trkpt lat="39.9285890" lon="3.1349340">
        <ele>7.1</ele>
        <time>2021-06-19T12:39:42Z</time>
      </trkpt>
      <trkpt lat="39.9285930" lon="3.1349340">
        <ele>7.1</ele>
        <time>2021-06-19T12:39:44Z</time>
      </trkpt>
      <trkpt lat="39.9285930" lon="3.1349340">
        <ele>7.1</ele>
        <time>2021-06-19T12:39:47Z</time>
      </trkpt>
      <trkpt lat="39.9285930" lon="3.1349340">
        <ele>7.1</ele>
        <time>2021-06-19T12:39:54Z</time>
      </trkpt>
      <trkpt lat="39.9286010" lon="3.1349260">
        <ele>7.1</ele>
        <time>2021-06-19T12:40:02Z</time>
      </trkpt>
      <trkpt lat="39.9286020" lon="3.1349250">
        <ele>7.1</ele>
        <time>2021-06-19T12:40:06Z</time>
      </trkpt>
      <trkpt lat="39.9286400" lon="3.1349170">
        <ele>7.1</ele>
        <time>2021-06-19T12:40:08Z</time>
      </trkpt>
      <trkpt lat="39.9287310" lon="3.1348820">
        <ele>7.0</ele>
        <time>2021-06-19T12:40:12Z</time>
      </trkpt>
      <trkpt lat="39.9287560" lon="3.1348600">
        <ele>7.0</ele>
        <time>2021-06-19T12:40:13Z</time>
      </trkpt>
      <trkpt lat="39.9288140" lon="3.1347410">
        <ele>6.9</ele>
        <time>2021-06-19T12:40:16Z</time>
      </trkpt>
      <trkpt lat="39.9288330" lon="3.1346910">
        <ele>6.8</ele>
        <time>2021-06-19T12:40:17Z</time>
      </trkpt>
      <trkpt lat="39.9288740" lon="3.1345790">
        <ele>6.7</ele>
        <time>2021-06-19T12:40:19Z</time>
      </trkpt>
      <trkpt lat="39.9289100" lon="3.1344470">
        <ele>6.6</ele>
        <time>2021-06-19T12:40:21Z</time>
      </trkpt>
      <trkpt lat="39.9289290" lon="3.1343830">
        <ele>6.6</ele>
        <time>2021-06-19T12:40:22Z</time>
      </trkpt>
      <trkpt lat="39.9290390" lon="3.1340100">
        <ele>6.9</ele>
        <time>2021-06-19T12:40:28Z</time>
      </trkpt>
      <trkpt lat="39.9290440" lon="3.1339530">
        <ele>7.0</ele>
        <time>2021-06-19T12:40:29Z</time>
      </trkpt>
      <trkpt lat="39.9291010" lon="3.1338240">
        <ele>7.2</ele>
        <time>2021-06-19T12:40:32Z</time>
      </trkpt>
      <trkpt lat="39.9291200" lon="3.1337640">
        <ele>7.2</ele>
        <time>2021-06-19T12:40:34Z</time>
      </trkpt>
      <trkpt lat="39.9291510" lon="3.1335940">
        <ele>7.1</ele>
        <time>2021-06-19T12:40:40Z</time>
      </trkpt>
      <trkpt lat="39.9291640" lon="3.1334120">
        <ele>7.3</ele>
        <time>2021-06-19T12:40:46Z</time>
      </trkpt>
      <trkpt lat="39.9291730" lon="3.1333910">
        <ele>7.4</ele>
        <time>2021-06-19T12:40:47Z</time>
      </trkpt>
      <trkpt lat="39.9292170" lon="3.1332360">
        <ele>7.8</ele>
        <time>2021-06-19T12:40:53Z</time>
      </trkpt>
      <trkpt lat="39.9292590" lon="3.1330990">
        <ele>8.2</ele>
        <time>2021-06-19T12:40:58Z</time>
      </trkpt>
      <trkpt lat="39.9292640" lon="3.1330690">
        <ele>8.3</ele>
        <time>2021-06-19T12:40:59Z</time>
      </trkpt>
      <trkpt lat="39.9292890" lon="3.1329840">
        <ele>8.5</ele>
        <time>2021-06-19T12:41:02Z</time>
      </trkpt>
      <trkpt lat="39.9293100" lon="3.1328940">
        <ele>8.8</ele>
        <time>2021-06-19T12:41:05Z</time>
      </trkpt>
      <trkpt lat="39.9293280" lon="3.1327690">
        <ele>9.3</ele>
        <time>2021-06-19T12:41:10Z</time>
      </trkpt>
      <trkpt lat="39.9293470" lon="3.1327280">
        <ele>9.5</ele>
        <time>2021-06-19T12:41:12Z</time>
      </trkpt>
      <trkpt lat="39.9293650" lon="3.1326440">
        <ele>9.9</ele>
        <time>2021-06-19T12:41:15Z</time>
      </trkpt>
      <trkpt lat="39.9293770" lon="3.1326020">
        <ele>10.1</ele>
        <time>2021-06-19T12:41:20Z</time>
      </trkpt>
      <trkpt lat="39.9293720" lon="3.1325970">
        <ele>10.1</ele>
        <time>2021-06-19T12:41:28Z</time>
      </trkpt>
      <trkpt lat="39.9293720" lon="3.1325970">
        <ele>10.1</ele>
        <time>2021-06-19T12:41:33Z</time>
      </trkpt>
      <trkpt lat="39.9293720" lon="3.1325970">
        <ele>10.1</ele>
        <time>2021-06-19T12:41:36Z</time>
      </trkpt>
      <trkpt lat="39.9293720" lon="3.1325970">
        <ele>10.1</ele>
        <time>2021-06-19T12:41:39Z</time>
      </trkpt>
      <trkpt lat="39.9293720" lon="3.1325970">
        <ele>10.1</ele>
        <time>2021-06-19T12:41:42Z</time>
      </trkpt>
      <trkpt lat="39.9293760" lon="3.1325930">
        <ele>10.2</ele>
        <time>2021-06-19T12:41:48Z</time>
      </trkpt>
      <trkpt lat="39.9293770" lon="3.1325910">
        <ele>10.2</ele>
        <time>2021-06-19T12:41:57Z</time>
      </trkpt>
      <trkpt lat="39.9293790" lon="3.1325700">
        <ele>10.3</ele>
        <time>2021-06-19T12:41:59Z</time>
      </trkpt>
      <trkpt lat="39.9293790" lon="3.1325700">
        <ele>10.3</ele>
        <time>2021-06-19T12:42:01Z</time>
      </trkpt>
      <trkpt lat="39.9293810" lon="3.1325660">
        <ele>10.3</ele>
        <time>2021-06-19T12:42:03Z</time>
      </trkpt>
      <trkpt lat="39.9293990" lon="3.1324770">
        <ele>10.7</ele>
        <time>2021-06-19T12:42:06Z</time>
      </trkpt>
      <trkpt lat="39.9294560" lon="3.1322680">
        <ele>11.8</ele>
        <time>2021-06-19T12:42:12Z</time>
      </trkpt>
      <trkpt lat="39.9294980" lon="3.1320980">
        <ele>12.6</ele>
        <time>2021-06-19T12:42:18Z</time>
      </trkpt>
      <trkpt lat="39.9295400" lon="3.1319030">
        <ele>13.5</ele>
        <time>2021-06-19T12:42:24Z</time>
      </trkpt>
      <trkpt lat="39.9295840" lon="3.1317940">
        <ele>14.1</ele>
        <time>2021-06-19T12:42:28Z</time>
      </trkpt>
      <trkpt lat="39.9295920" lon="3.1317670">
        <ele>14.2</ele>
        <time>2021-06-19T12:42:29Z</time>
      </trkpt>
      <trkpt lat="39.9296060" lon="3.1316930">
        <ele>14.5</ele>
        <time>2021-06-19T12:42:32Z</time>
      </trkpt>
      <trkpt lat="39.9296290" lon="3.1316060">
        <ele>14.9</ele>
        <time>2021-06-19T12:42:35Z</time>
      </trkpt>
      <trkpt lat="39.9296450" lon="3.1315430">
        <ele>15.2</ele>
        <time>2021-06-19T12:42:37Z</time>
      </trkpt>
      <trkpt lat="39.9296840" lon="3.1313440">
        <ele>16.2</ele>
        <time>2021-06-19T12:42:44Z</time>
      </trkpt>
      <trkpt lat="39.9297330" lon="3.1311700">
        <ele>17.1</ele>
        <time>2021-06-19T12:42:50Z</time>
      </trkpt>
      <trkpt lat="39.9297410" lon="3.1311450">
        <ele>17.2</ele>
        <time>2021-06-19T12:42:51Z</time>
      </trkpt>
      <trkpt lat="39.9297790" lon="3.1309580">
        <ele>18.2</ele>
        <time>2021-06-19T12:42:57Z</time>
      </trkpt>
      <trkpt lat="39.9298220" lon="3.1307810">
        <ele>19.4</ele>
        <time>2021-06-19T12:43:04Z</time>
      </trkpt>
      <trkpt lat="39.9299020" lon="3.1304910">
        <ele>21.4</ele>
        <time>2021-06-19T12:43:14Z</time>
      </trkpt>
      <trkpt lat="39.9300020" lon="3.1303160">
        <ele>22.8</ele>
        <time>2021-06-19T12:43:21Z</time>
      </trkpt>
      <trkpt lat="39.9301400" lon="3.1302080">
        <ele>22.9</ele>
        <time>2021-06-19T12:43:28Z</time>
      </trkpt>
      <trkpt lat="39.9301800" lon="3.1301810">
        <ele>23.2</ele>
        <time>2021-06-19T12:43:30Z</time>
      </trkpt>
      <trkpt lat="39.9303920" lon="3.1300140">
        <ele>24.6</ele>
        <time>2021-06-19T12:43:40Z</time>
      </trkpt>
      <trkpt lat="39.9305620" lon="3.1298740">
        <ele>25.8</ele>
        <time>2021-06-19T12:43:48Z</time>
      </trkpt>
      <trkpt lat="39.9306170" lon="3.1298220">
        <ele>26.2</ele>
        <time>2021-06-19T12:43:51Z</time>
      </trkpt>
      <trkpt lat="39.9307790" lon="3.1296800">
        <ele>27.4</ele>
        <time>2021-06-19T12:43:59Z</time>
      </trkpt>
      <trkpt lat="39.9308430" lon="3.1296240">
        <ele>27.9</ele>
        <time>2021-06-19T12:44:02Z</time>
      </trkpt>
      <trkpt lat="39.9309210" lon="3.1295580">
        <ele>28.6</ele>
        <time>2021-06-19T12:44:06Z</time>
      </trkpt>
      <trkpt lat="39.9309420" lon="3.1295440">
        <ele>28.7</ele>
        <time>2021-06-19T12:44:07Z</time>
      </trkpt>
      <trkpt lat="39.9310870" lon="3.1294430">
        <ele>29.8</ele>
        <time>2021-06-19T12:44:14Z</time>
      </trkpt>
      <trkpt lat="39.9312270" lon="3.1293310">
        <ele>30.7</ele>
        <time>2021-06-19T12:44:21Z</time>
      </trkpt>
      <trkpt lat="39.9313980" lon="3.1293100">
        <ele>32.0</ele>
        <time>2021-06-19T12:44:28Z</time>
      </trkpt>
      <trkpt lat="39.9316050" lon="3.1293860">
        <ele>33.7</ele>
        <time>2021-06-19T12:44:37Z</time>
      </trkpt>
      <trkpt lat="39.9317710" lon="3.1294760">
        <ele>35.1</ele>
        <time>2021-06-19T12:44:45Z</time>
      </trkpt>
      <trkpt lat="39.9319020" lon="3.1295700">
        <ele>36.3</ele>
        <time>2021-06-19T12:44:52Z</time>
      </trkpt>
      <trkpt lat="39.9319710" lon="3.1296390">
        <ele>37.0</ele>
        <time>2021-06-19T12:44:56Z</time>
      </trkpt>
      <trkpt lat="39.9320570" lon="3.1297090">
        <ele>37.8</ele>
        <time>2021-06-19T12:45:00Z</time>
      </trkpt>
      <trkpt lat="39.9321640" lon="3.1298280">
        <ele>38.9</ele>
        <time>2021-06-19T12:45:06Z</time>
      </trkpt>
      <trkpt lat="39.9321820" lon="3.1298480">
        <ele>39.0</ele>
        <time>2021-06-19T12:45:07Z</time>
      </trkpt>
      <trkpt lat="39.9322970" lon="3.1299630">
        <ele>40.1</ele>
        <time>2021-06-19T12:45:13Z</time>
      </trkpt>
      <trkpt lat="39.9323490" lon="3.1300140">
        <ele>40.6</ele>
        <time>2021-06-19T12:45:16Z</time>
      </trkpt>
      <trkpt lat="39.9324260" lon="3.1300920">
        <ele>41.3</ele>
        <time>2021-06-19T12:45:20Z</time>
      </trkpt>
      <trkpt lat="39.9325580" lon="3.1302440">
        <ele>42.7</ele>
        <time>2021-06-19T12:45:28Z</time>
      </trkpt>
      <trkpt lat="39.9326480" lon="3.1303650">
        <ele>43.8</ele>
        <time>2021-06-19T12:45:33Z</time>
      </trkpt>
      <trkpt lat="39.9326580" lon="3.1303940">
        <ele>44.0</ele>
        <time>2021-06-19T12:45:35Z</time>
      </trkpt>
      <trkpt lat="39.9326860" lon="3.1304320">
        <ele>44.4</ele>
        <time>2021-06-19T12:45:37Z</time>
      </trkpt>
      <trkpt lat="39.9327710" lon="3.1305610">
        <ele>45.5</ele>
        <time>2021-06-19T12:45:43Z</time>
      </trkpt>
      <trkpt lat="39.9327870" lon="3.1305840">
        <ele>45.7</ele>
        <time>2021-06-19T12:45:44Z</time>
      </trkpt>
      <trkpt lat="39.9328850" lon="3.1307340">
        <ele>46.9</ele>
        <time>2021-06-19T12:45:51Z</time>
      </trkpt>
      <trkpt lat="39.9329560" lon="3.1307980">
        <ele>47.7</ele>
        <time>2021-06-19T12:45:55Z</time>
      </trkpt>
      <trkpt lat="39.9330000" lon="3.1308240">
        <ele>48.2</ele>
        <time>2021-06-19T12:45:57Z</time>
      </trkpt>
      <trkpt lat="39.9330620" lon="3.1308430">
        <ele>48.8</ele>
        <time>2021-06-19T12:46:00Z</time>
      </trkpt>
      <trkpt lat="39.9330950" lon="3.1308100">
        <ele>49.1</ele>
        <time>2021-06-19T12:46:02Z</time>
      </trkpt>
      <trkpt lat="39.9331270" lon="3.1307060">
        <ele>49.7</ele>
        <time>2021-06-19T12:46:06Z</time>
      </trkpt>
      <trkpt lat="39.9331210" lon="3.1306750">
        <ele>49.8</ele>
        <time>2021-06-19T12:46:07Z</time>
      </trkpt>
      <trkpt lat="39.9331100" lon="3.1306460">
        <ele>50.0</ele>
        <time>2021-06-19T12:46:08Z</time>
      </trkpt>
      <trkpt lat="39.9330370" lon="3.1305540">
        <ele>50.4</ele>
        <time>2021-06-19T12:46:12Z</time>
      </trkpt>
      <trkpt lat="39.9329150" lon="3.1304400">
        <ele>50.8</ele>
        <time>2021-06-19T12:46:18Z</time>
      </trkpt>
      <trkpt lat="39.9328330" lon="3.1302620">
        <ele>51.3</ele>
        <time>2021-06-19T12:46:25Z</time>
      </trkpt>
      <trkpt lat="39.9327500" lon="3.1300860">
        <ele>51.9</ele>
        <time>2021-06-19T12:46:32Z</time>
      </trkpt>
      <trkpt lat="39.9326630" lon="3.1298550">
        <ele>52.8</ele>
        <time>2021-06-19T12:46:40Z</time>
      </trkpt>
      <trkpt lat="39.9326250" lon="3.1297740">
        <ele>53.2</ele>
        <time>2021-06-19T12:46:43Z</time>
      </trkpt>
      <trkpt lat="39.9325880" lon="3.1296820">
        <ele>53.7</ele>
        <time>2021-06-19T12:46:46Z</time>
      </trkpt>
      <trkpt lat="39.9325190" lon="3.1295170">
        <ele>54.8</ele>
        <time>2021-06-19T12:46:52Z</time>
      </trkpt>
      <trkpt lat="39.9324760" lon="3.1294360">
        <ele>55.4</ele>
        <time>2021-06-19T12:46:55Z</time>
      </trkpt>
      <trkpt lat="39.9323350" lon="3.1292050">
        <ele>57.4</ele>
        <time>2021-06-19T12:47:04Z</time>
      </trkpt>
      <trkpt lat="39.9321990" lon="3.1289750">
        <ele>59.4</ele>
        <time>2021-06-19T12:47:13Z</time>
      </trkpt>
      <trkpt lat="39.9321680" lon="3.1287840">
        <ele>60.5</ele>
        <time>2021-06-19T12:47:20Z</time>
      </trkpt>
      <trkpt lat="39.9322190" lon="3.1284670">
        <ele>61.8</ele>
        <time>2021-06-19T12:47:30Z</time>
      </trkpt>
      <trkpt lat="39.9322480" lon="3.1282160">
        <ele>62.9</ele>
        <time>2021-06-19T12:47:38Z</time>
      </trkpt>
      <trkpt lat="39.9323050" lon="3.1279680">
        <ele>64.2</ele>
        <time>2021-06-19T12:47:46Z</time>
      </trkpt>
      <trkpt lat="39.9323150" lon="3.1279370">
        <ele>64.4</ele>
        <time>2021-06-19T12:47:47Z</time>
      </trkpt>
      <trkpt lat="39.9324120" lon="3.1276820">
        <ele>65.9</ele>
        <time>2021-06-19T12:47:56Z</time>
      </trkpt>
      <trkpt lat="39.9325200" lon="3.1274960">
        <ele>67.1</ele>
        <time>2021-06-19T12:48:03Z</time>
      </trkpt>
      <trkpt lat="39.9326690" lon="3.1273140">
        <ele>68.5</ele>
        <time>2021-06-19T12:48:11Z</time>
      </trkpt>
      <trkpt lat="39.9328130" lon="3.1271500">
        <ele>70.0</ele>
        <time>2021-06-19T12:48:19Z</time>
      </trkpt>
      <trkpt lat="39.9329650" lon="3.1269840">
        <ele>71.6</ele>
        <time>2021-06-19T12:48:27Z</time>
      </trkpt>
      <trkpt lat="39.9330630" lon="3.1268710">
        <ele>72.6</ele>
        <time>2021-06-19T12:48:32Z</time>
      </trkpt>
      <trkpt lat="39.9331140" lon="3.1268040">
        <ele>73.2</ele>
        <time>2021-06-19T12:48:35Z</time>
      </trkpt>
      <trkpt lat="39.9331570" lon="3.1267200">
        <ele>73.9</ele>
        <time>2021-06-19T12:48:38Z</time>
      </trkpt>
      <trkpt lat="39.9332550" lon="3.1265120">
        <ele>75.4</ele>
        <time>2021-06-19T12:48:45Z</time>
      </trkpt>
      <trkpt lat="39.9333920" lon="3.1262160">
        <ele>77.6</ele>
        <time>2021-06-19T12:48:55Z</time>
      </trkpt>
      <trkpt lat="39.9335240" lon="3.1259750">
        <ele>79.8</ele>
        <time>2021-06-19T12:49:04Z</time>
      </trkpt>
      <trkpt lat="39.9336460" lon="3.1256860">
        <ele>82.3</ele>
        <time>2021-06-19T12:49:15Z</time>
      </trkpt>
      <trkpt lat="39.9336600" lon="3.1254520">
        <ele>83.9</ele>
        <time>2021-06-19T12:49:23Z</time>
      </trkpt>
      <trkpt lat="39.9335690" lon="3.1253050">
        <ele>84.7</ele>
        <time>2021-06-19T12:49:29Z</time>
      </trkpt>
      <trkpt lat="39.9333980" lon="3.1252190">
        <ele>85.5</ele>
        <time>2021-06-19T12:49:36Z</time>
      </trkpt>
      <trkpt lat="39.9331800" lon="3.1251980">
        <ele>86.7</ele>
        <time>2021-06-19T12:49:45Z</time>
      </trkpt>
      <trkpt lat="39.9330260" lon="3.1252030">
        <ele>87.7</ele>
        <time>2021-06-19T12:49:51Z</time>
      </trkpt>
      <trkpt lat="39.9329090" lon="3.1251960">
        <ele>88.7</ele>
        <time>2021-06-19T12:49:56Z</time>
      </trkpt>
      <trkpt lat="39.9328850" lon="3.1251970">
        <ele>88.8</ele>
        <time>2021-06-19T12:49:57Z</time>
      </trkpt>
      <trkpt lat="39.9327060" lon="3.1251800">
        <ele>90.3</ele>
        <time>2021-06-19T12:50:05Z</time>
      </trkpt>
      <trkpt lat="39.9325430" lon="3.1251490">
        <ele>91.6</ele>
        <time>2021-06-19T12:50:12Z</time>
      </trkpt>
      <trkpt lat="39.9323990" lon="3.1250960">
        <ele>92.8</ele>
        <time>2021-06-19T12:50:18Z</time>
      </trkpt>
      <trkpt lat="39.9322830" lon="3.1250560">
        <ele>93.7</ele>
        <time>2021-06-19T12:50:23Z</time>
      </trkpt>
      <trkpt lat="39.9321410" lon="3.1248910">
        <ele>95.3</ele>
        <time>2021-06-19T12:50:30Z</time>
      </trkpt>
      <trkpt lat="39.9320420" lon="3.1246580">
        <ele>97.0</ele>
        <time>2021-06-19T12:50:38Z</time>
      </trkpt>
      <trkpt lat="39.9319700" lon="3.1244120">
        <ele>98.6</ele>
        <time>2021-06-19T12:50:46Z</time>
      </trkpt>
      <trkpt lat="39.9319640" lon="3.1243450">
        <ele>99.1</ele>
        <time>2021-06-19T12:50:48Z</time>
      </trkpt>
      <trkpt lat="39.9319530" lon="3.1242140">
        <ele>99.8</ele>
        <time>2021-06-19T12:50:52Z</time>
      </trkpt>
      <trkpt lat="39.9319220" lon="3.1240200">
        <ele>101.0</ele>
        <time>2021-06-19T12:50:58Z</time>
      </trkpt>
      <trkpt lat="39.9318840" lon="3.1237900">
        <ele>102.4</ele>
        <time>2021-06-19T12:51:05Z</time>
      </trkpt>
      <trkpt lat="39.9318430" lon="3.1235670">
        <ele>103.8</ele>
        <time>2021-06-19T12:51:12Z</time>
      </trkpt>
      <trkpt lat="39.9318040" lon="3.1232940">
        <ele>105.6</ele>
        <time>2021-06-19T12:51:21Z</time>
      </trkpt>
      <trkpt lat="39.9317310" lon="3.1231320">
        <ele>106.7</ele>
        <time>2021-06-19T12:51:27Z</time>
      </trkpt>
      <trkpt lat="39.9315900" lon="3.1230380">
        <ele>107.7</ele>
        <time>2021-06-19T12:51:33Z</time>
      </trkpt>
      <trkpt lat="39.9314000" lon="3.1230280">
        <ele>108.7</ele>
        <time>2021-06-19T12:51:39Z</time>
      </trkpt>
      <trkpt lat="39.9312510" lon="3.1230880">
        <ele>109.6</ele>
        <time>2021-06-19T12:51:44Z</time>
      </trkpt>
      <trkpt lat="39.9310040" lon="3.1230990">
        <ele>111.2</ele>
        <time>2021-06-19T12:51:52Z</time>
      </trkpt>
      <trkpt lat="39.9308090" lon="3.1230510">
        <ele>112.7</ele>
        <time>2021-06-19T12:51:59Z</time>
      </trkpt>
      <trkpt lat="39.9306610" lon="3.1231430">
        <ele>113.6</ele>
        <time>2021-06-19T12:52:05Z</time>
      </trkpt>
      <trkpt lat="39.9305880" lon="3.1233530">
        <ele>114.6</ele>
        <time>2021-06-19T12:52:11Z</time>
      </trkpt>
      <trkpt lat="39.9305270" lon="3.1235860">
        <ele>115.8</ele>
        <time>2021-06-19T12:52:17Z</time>
      </trkpt>
      <trkpt lat="39.9304990" lon="3.1237390">
        <ele>116.7</ele>
        <time>2021-06-19T12:52:21Z</time>
      </trkpt>
      <trkpt lat="39.9304800" lon="3.1238100">
        <ele>117.2</ele>
        <time>2021-06-19T12:52:23Z</time>
      </trkpt>
      <trkpt lat="39.9304730" lon="3.1238370">
        <ele>117.4</ele>
        <time>2021-06-19T12:52:24Z</time>
      </trkpt>
      <trkpt lat="39.9304050" lon="3.1240420">
        <ele>118.8</ele>
        <time>2021-06-19T12:52:30Z</time>
      </trkpt>
      <trkpt lat="39.9303950" lon="3.1240790">
        <ele>119.1</ele>
        <time>2021-06-19T12:52:31Z</time>
      </trkpt>
      <trkpt lat="39.9303690" lon="3.1243560">
        <ele>121.0</ele>
        <time>2021-06-19T12:52:38Z</time>
      </trkpt>
      <trkpt lat="39.9303690" lon="3.1246550">
        <ele>123.7</ele>
        <time>2021-06-19T12:52:46Z</time>
      </trkpt>
      <trkpt lat="39.9303570" lon="3.1246830">
        <ele>123.8</ele>
        <time>2021-06-19T12:52:47Z</time>
      </trkpt>
      <trkpt lat="39.9303160" lon="3.1246980">
        <ele>124.0</ele>
        <time>2021-06-19T12:52:49Z</time>
      </trkpt>
      <trkpt lat="39.9302750" lon="3.1246560">
        <ele>124.2</ele>
        <time>2021-06-19T12:52:51Z</time>
      </trkpt>
      <trkpt lat="39.9302450" lon="3.1245840">
        <ele>124.4</ele>
        <time>2021-06-19T12:52:53Z</time>
      </trkpt>
      <trkpt lat="39.9302630" lon="3.1243950">
        <ele>124.7</ele>
        <time>2021-06-19T12:52:58Z</time>
      </trkpt>
      <trkpt lat="39.9302910" lon="3.1240620">
        <ele>125.4</ele>
        <time>2021-06-19T12:53:06Z</time>
      </trkpt>
      <trkpt lat="39.9303310" lon="3.1237760">
        <ele>126.4</ele>
        <time>2021-06-19T12:53:13Z</time>
      </trkpt>
      <trkpt lat="39.9303120" lon="3.1233840">
        <ele>128.3</ele>
        <time>2021-06-19T12:53:22Z</time>
      </trkpt>
      <trkpt lat="39.9303000" lon="3.1232230">
        <ele>129.2</ele>
        <time>2021-06-19T12:53:26Z</time>
      </trkpt>
      <trkpt lat="39.9303080" lon="3.1230670">
        <ele>130.3</ele>
        <time>2021-06-19T12:53:30Z</time>
      </trkpt>
      <trkpt lat="39.9303180" lon="3.1229900">
        <ele>130.8</ele>
        <time>2021-06-19T12:53:32Z</time>
      </trkpt>
      <trkpt lat="39.9303580" lon="3.1228100">
        <ele>132.1</ele>
        <time>2021-06-19T12:53:37Z</time>
      </trkpt>
      <trkpt lat="39.9304950" lon="3.1226260">
        <ele>133.6</ele>
        <time>2021-06-19T12:53:43Z</time>
      </trkpt>
      <trkpt lat="39.9306420" lon="3.1224620">
        <ele>135.2</ele>
        <time>2021-06-19T12:53:49Z</time>
      </trkpt>
      <trkpt lat="39.9308690" lon="3.1222650">
        <ele>138.1</ele>
        <time>2021-06-19T12:53:58Z</time>
      </trkpt>
      <trkpt lat="39.9310040" lon="3.1222160">
        <ele>139.9</ele>
        <time>2021-06-19T12:54:03Z</time>
      </trkpt>
      <trkpt lat="39.9310540" lon="3.1221840">
        <ele>140.6</ele>
        <time>2021-06-19T12:54:05Z</time>
      </trkpt>
      <trkpt lat="39.9311210" lon="3.1220720">
        <ele>142.1</ele>
        <time>2021-06-19T12:54:09Z</time>
      </trkpt>
      <trkpt lat="39.9310960" lon="3.1218930">
        <ele>143.6</ele>
        <time>2021-06-19T12:54:14Z</time>
      </trkpt>
      <trkpt lat="39.9310110" lon="3.1218050">
        <ele>144.4</ele>
        <time>2021-06-19T12:54:18Z</time>
      </trkpt>
      <trkpt lat="39.9309470" lon="3.1217530">
        <ele>144.9</ele>
        <time>2021-06-19T12:54:21Z</time>
      </trkpt>
      <trkpt lat="39.9309230" lon="3.1217390">
        <ele>145.1</ele>
        <time>2021-06-19T12:54:22Z</time>
      </trkpt>
      <trkpt lat="39.9308710" lon="3.1217190">
        <ele>145.5</ele>
        <time>2021-06-19T12:54:24Z</time>
      </trkpt>
      <trkpt lat="39.9307560" lon="3.1216810">
        <ele>146.4</ele>
        <time>2021-06-19T12:54:28Z</time>
      </trkpt>
      <trkpt lat="39.9307280" lon="3.1216660">
        <ele>146.7</ele>
        <time>2021-06-19T12:54:29Z</time>
      </trkpt>
      <trkpt lat="39.9306620" lon="3.1216100">
        <ele>147.3</ele>
        <time>2021-06-19T12:54:32Z</time>
      </trkpt>
      <trkpt lat="39.9306300" lon="3.1215630">
        <ele>147.8</ele>
        <time>2021-06-19T12:54:34Z</time>
      </trkpt>
      <trkpt lat="39.9306170" lon="3.1215310">
        <ele>148.0</ele>
        <time>2021-06-19T12:54:35Z</time>
      </trkpt>
      <trkpt lat="39.9305890" lon="3.1213530">
        <ele>149.3</ele>
        <time>2021-06-19T12:54:40Z</time>
      </trkpt>
      <trkpt lat="39.9305950" lon="3.1213180">
        <ele>149.5</ele>
        <time>2021-06-19T12:54:41Z</time>
      </trkpt>
      <trkpt lat="39.9306140" lon="3.1212520">
        <ele>150.0</ele>
        <time>2021-06-19T12:54:43Z</time>
      </trkpt>
      <trkpt lat="39.9307030" lon="3.1210520">
        <ele>151.6</ele>
        <time>2021-06-19T12:54:50Z</time>
      </trkpt>
      <trkpt lat="39.9307210" lon="3.1208650">
        <ele>152.6</ele>
        <time>2021-06-19T12:54:56Z</time>
      </trkpt>
      <trkpt lat="39.9307140" lon="3.1208300">
        <ele>152.8</ele>
        <time>2021-06-19T12:54:57Z</time>
      </trkpt>
      <trkpt lat="39.9307000" lon="3.1207630">
        <ele>153.1</ele>
        <time>2021-06-19T12:54:59Z</time>
      </trkpt>
      <trkpt lat="39.9307000" lon="3.1207270">
        <ele>153.2</ele>
        <time>2021-06-19T12:55:00Z</time>
      </trkpt>
      <trkpt lat="39.9306560" lon="3.1205370">
        <ele>154.0</ele>
        <time>2021-06-19T12:55:06Z</time>
      </trkpt>
      <trkpt lat="39.9305860" lon="3.1203540">
        <ele>154.9</ele>
        <time>2021-06-19T12:55:12Z</time>
      </trkpt>
      <trkpt lat="39.9305370" lon="3.1202010">
        <ele>155.7</ele>
        <time>2021-06-19T12:55:17Z</time>
      </trkpt>
      <trkpt lat="39.9305320" lon="3.1200060">
        <ele>156.5</ele>
        <time>2021-06-19T12:55:23Z</time>
      </trkpt>
      <trkpt lat="39.9305280" lon="3.1199770">
        <ele>156.6</ele>
        <time>2021-06-19T12:55:24Z</time>
      </trkpt>
      <trkpt lat="39.9304850" lon="3.1198660">
        <ele>156.9</ele>
        <time>2021-06-19T12:55:27Z</time>
      </trkpt>
      <trkpt lat="39.9304000" lon="3.1196270">
        <ele>157.3</ele>
        <time>2021-06-19T12:55:33Z</time>
      </trkpt>
      <trkpt lat="39.9304100" lon="3.1195770">
        <ele>157.4</ele>
        <time>2021-06-19T12:55:34Z</time>
      </trkpt>
      <trkpt lat="39.9303990" lon="3.1193050">
        <ele>157.6</ele>
        <time>2021-06-19T12:55:39Z</time>
      </trkpt>
      <trkpt lat="39.9303860" lon="3.1190660">
        <ele>157.8</ele>
        <time>2021-06-19T12:55:43Z</time>
      </trkpt>
      <trkpt lat="39.9303930" lon="3.1189490">
        <ele>157.9</ele>
        <time>2021-06-19T12:55:45Z</time>
      </trkpt>
      <trkpt lat="39.9303900" lon="3.1188860">
        <ele>157.9</ele>
        <time>2021-06-19T12:55:46Z</time>
      </trkpt>
      <trkpt lat="39.9303720" lon="3.1185870">
        <ele>157.9</ele>
        <time>2021-06-19T12:55:51Z</time>
      </trkpt>
      <trkpt lat="39.9303690" lon="3.1185300">
        <ele>157.9</ele>
        <time>2021-06-19T12:55:52Z</time>
      </trkpt>
      <trkpt lat="39.9303670" lon="3.1184720">
        <ele>157.8</ele>
        <time>2021-06-19T12:55:53Z</time>
      </trkpt>
      <trkpt lat="39.9303700" lon="3.1183570">
        <ele>157.8</ele>
        <time>2021-06-19T12:55:55Z</time>
      </trkpt>
      <trkpt lat="39.9304150" lon="3.1181810">
        <ele>157.7</ele>
        <time>2021-06-19T12:55:58Z</time>
      </trkpt>
      <trkpt lat="39.9304830" lon="3.1180060">
        <ele>157.5</ele>
        <time>2021-06-19T12:56:01Z</time>
      </trkpt>
      <trkpt lat="39.9305350" lon="3.1178920">
        <ele>157.4</ele>
        <time>2021-06-19T12:56:03Z</time>
      </trkpt>
      <trkpt lat="39.9305810" lon="3.1177790">
        <ele>157.2</ele>
        <time>2021-06-19T12:56:05Z</time>
      </trkpt>
      <trkpt lat="39.9306000" lon="3.1177180">
        <ele>157.2</ele>
        <time>2021-06-19T12:56:06Z</time>
      </trkpt>
      <trkpt lat="39.9306210" lon="3.1175870">
        <ele>157.0</ele>
        <time>2021-06-19T12:56:08Z</time>
      </trkpt>
      <trkpt lat="39.9306530" lon="3.1174650">
        <ele>156.9</ele>
        <time>2021-06-19T12:56:10Z</time>
      </trkpt>
      <trkpt lat="39.9307070" lon="3.1171330">
        <ele>156.8</ele>
        <time>2021-06-19T12:56:15Z</time>
      </trkpt>
      <trkpt lat="39.9307160" lon="3.1169970">
        <ele>156.9</ele>
        <time>2021-06-19T12:56:17Z</time>
      </trkpt>
      <trkpt lat="39.9307290" lon="3.1168670">
        <ele>157.1</ele>
        <time>2021-06-19T12:56:19Z</time>
      </trkpt>
      <trkpt lat="39.9307180" lon="3.1167420">
        <ele>157.4</ele>
        <time>2021-06-19T12:56:21Z</time>
      </trkpt>
      <trkpt lat="39.9307020" lon="3.1166820">
        <ele>157.6</ele>
        <time>2021-06-19T12:56:22Z</time>
      </trkpt>
      <trkpt lat="39.9306900" lon="3.1166240">
        <ele>157.8</ele>
        <time>2021-06-19T12:56:23Z</time>
      </trkpt>
      <trkpt lat="39.9306580" lon="3.1164980">
        <ele>158.2</ele>
        <time>2021-06-19T12:56:25Z</time>
      </trkpt>
      <trkpt lat="39.9306320" lon="3.1164170">
        <ele>158.6</ele>
        <time>2021-06-19T12:56:27Z</time>
      </trkpt>
      <trkpt lat="39.9305250" lon="3.1162040">
        <ele>159.8</ele>
        <time>2021-06-19T12:56:32Z</time>
      </trkpt>
      <trkpt lat="39.9305010" lon="3.1160520">
        <ele>160.6</ele>
        <time>2021-06-19T12:56:35Z</time>
      </trkpt>
      <trkpt lat="39.9304910" lon="3.1159540">
        <ele>161.1</ele>
        <time>2021-06-19T12:56:37Z</time>
      </trkpt>
      <trkpt lat="39.9305000" lon="3.1159040">
        <ele>161.4</ele>
        <time>2021-06-19T12:56:38Z</time>
      </trkpt>
      <trkpt lat="39.9305030" lon="3.1156200">
        <ele>163.0</ele>
        <time>2021-06-19T12:56:44Z</time>
      </trkpt>
      <trkpt lat="39.9304360" lon="3.1153830">
        <ele>164.4</ele>
        <time>2021-06-19T12:56:50Z</time>
      </trkpt>
      <trkpt lat="39.9302910" lon="3.1151450">
        <ele>166.0</ele>
        <time>2021-06-19T12:56:57Z</time>
      </trkpt>
      <trkpt lat="39.9302180" lon="3.1150490">
        <ele>166.7</ele>
        <time>2021-06-19T12:57:00Z</time>
      </trkpt>
      <trkpt lat="39.9301190" lon="3.1149680">
        <ele>167.6</ele>
        <time>2021-06-19T12:57:03Z</time>
      </trkpt>
      <trkpt lat="39.9299530" lon="3.1148170">
        <ele>169.2</ele>
        <time>2021-06-19T12:57:09Z</time>
      </trkpt>
      <trkpt lat="39.9298520" lon="3.1147270">
        <ele>170.2</ele>
        <time>2021-06-19T12:57:13Z</time>
      </trkpt>
      <trkpt lat="39.9297350" lon="3.1146400">
        <ele>171.3</ele>
        <time>2021-06-19T12:57:17Z</time>
      </trkpt>
      <trkpt lat="39.9295630" lon="3.1144830">
        <ele>172.7</ele>
        <time>2021-06-19T12:57:24Z</time>
      </trkpt>
      <trkpt lat="39.9295430" lon="3.1142640">
        <ele>173.8</ele>
        <time>2021-06-19T12:57:29Z</time>
      </trkpt>
      <trkpt lat="39.9295220" lon="3.1140170">
        <ele>175.1</ele>
        <time>2021-06-19T12:57:35Z</time>
      </trkpt>
      <trkpt lat="39.9294420" lon="3.1137560">
        <ele>176.6</ele>
        <time>2021-06-19T12:57:42Z</time>
      </trkpt>
      <trkpt lat="39.9294280" lon="3.1135490">
        <ele>177.7</ele>
        <time>2021-06-19T12:57:47Z</time>
      </trkpt>
      <trkpt lat="39.9294500" lon="3.1132550">
        <ele>179.5</ele>
        <time>2021-06-19T12:57:54Z</time>
      </trkpt>
      <trkpt lat="39.9294380" lon="3.1129290">
        <ele>181.4</ele>
        <time>2021-06-19T12:58:02Z</time>
      </trkpt>
      <trkpt lat="39.9294210" lon="3.1126570">
        <ele>182.8</ele>
        <time>2021-06-19T12:58:09Z</time>
      </trkpt>
      <trkpt lat="39.9294020" lon="3.1123930">
        <ele>184.2</ele>
        <time>2021-06-19T12:58:16Z</time>
      </trkpt>
      <trkpt lat="39.9293790" lon="3.1120410">
        <ele>186.2</ele>
        <time>2021-06-19T12:58:25Z</time>
      </trkpt>
      <trkpt lat="39.9293210" lon="3.1117850">
        <ele>187.9</ele>
        <time>2021-06-19T12:58:33Z</time>
      </trkpt>
      <trkpt lat="39.9292200" lon="3.1117210">
        <ele>188.7</ele>
        <time>2021-06-19T12:58:37Z</time>
      </trkpt>
      <trkpt lat="39.9291930" lon="3.1117310">
        <ele>188.9</ele>
        <time>2021-06-19T12:58:38Z</time>
      </trkpt>
      <trkpt lat="39.9290950" lon="3.1119000">
        <ele>189.5</ele>
        <time>2021-06-19T12:58:43Z</time>
      </trkpt>
      <trkpt lat="39.9290930" lon="3.1121410">
        <ele>190.0</ele>
        <time>2021-06-19T12:58:48Z</time>
      </trkpt>
      <trkpt lat="39.9291280" lon="3.1124370">
        <ele>190.5</ele>
        <time>2021-06-19T12:58:54Z</time>
      </trkpt>
      <trkpt lat="39.9291990" lon="3.1127780">
        <ele>191.7</ele>
        <time>2021-06-19T12:59:01Z</time>
      </trkpt>
      <trkpt lat="39.9292120" lon="3.1128240">
        <ele>192.0</ele>
        <time>2021-06-19T12:59:02Z</time>
      </trkpt>
      <trkpt lat="39.9292180" lon="3.1129550">
        <ele>192.9</ele>
        <time>2021-06-19T12:59:05Z</time>
      </trkpt>
      <trkpt lat="39.9292040" lon="3.1129830">
        <ele>193.2</ele>
        <time>2021-06-19T12:59:06Z</time>
      </trkpt>
      <trkpt lat="39.9291590" lon="3.1130010">
        <ele>193.6</ele>
        <time>2021-06-19T12:59:08Z</time>
      </trkpt>
      <trkpt lat="39.9291370" lon="3.1129820">
        <ele>193.8</ele>
        <time>2021-06-19T12:59:09Z</time>
      </trkpt>
      <trkpt lat="39.9291210" lon="3.1129490">
        <ele>194.1</ele>
        <time>2021-06-19T12:59:10Z</time>
      </trkpt>
      <trkpt lat="39.9291090" lon="3.1128700">
        <ele>194.6</ele>
        <time>2021-06-19T12:59:12Z</time>
      </trkpt>
      <trkpt lat="39.9290330" lon="3.1125170">
        <ele>196.5</ele>
        <time>2021-06-19T12:59:21Z</time>
      </trkpt>
      <trkpt lat="39.9289660" lon="3.1122240">
        <ele>198.2</ele>
        <time>2021-06-19T12:59:29Z</time>
      </trkpt>
      <trkpt lat="39.9288770" lon="3.1119270">
        <ele>199.9</ele>
        <time>2021-06-19T12:59:37Z</time>
      </trkpt>
      <trkpt lat="39.9287770" lon="3.1115930">
        <ele>202.0</ele>
        <time>2021-06-19T12:59:46Z</time>
      </trkpt>
      <trkpt lat="39.9287330" lon="3.1111960">
        <ele>203.8</ele>
        <time>2021-06-19T12:59:56Z</time>
      </trkpt>
      <trkpt lat="39.9288280" lon="3.1109810">
        <ele>204.8</ele>
        <time>2021-06-19T13:00:02Z</time>
      </trkpt>
      <trkpt lat="39.9289240" lon="3.1107340">
        <ele>205.7</ele>
        <time>2021-06-19T13:00:09Z</time>
      </trkpt>
      <trkpt lat="39.9289150" lon="3.1106550">
        <ele>205.8</ele>
        <time>2021-06-19T13:00:11Z</time>
      </trkpt>
      <trkpt lat="39.9288480" lon="3.1105120">
        <ele>205.3</ele>
        <time>2021-06-19T13:00:14Z</time>
      </trkpt>
      <trkpt lat="39.9286620" lon="3.1101740">
        <ele>203.4</ele>
        <time>2021-06-19T13:00:20Z</time>
      </trkpt>
      <trkpt lat="39.9285980" lon="3.1100800">
        <ele>202.6</ele>
        <time>2021-06-19T13:00:22Z</time>
      </trkpt>
      <trkpt lat="39.9285560" lon="3.1100350">
        <ele>202.1</ele>
        <time>2021-06-19T13:00:23Z</time>
      </trkpt>
      <trkpt lat="39.9284510" lon="3.1099830">
        <ele>201.2</ele>
        <time>2021-06-19T13:00:25Z</time>
      </trkpt>
      <trkpt lat="39.9283910" lon="3.1099780">
        <ele>200.7</ele>
        <time>2021-06-19T13:00:26Z</time>
      </trkpt>
      <trkpt lat="39.9282000" lon="3.1099670">
        <ele>199.3</ele>
        <time>2021-06-19T13:00:29Z</time>
      </trkpt>
      <trkpt lat="39.9280300" lon="3.1099470">
        <ele>198.1</ele>
        <time>2021-06-19T13:00:31Z</time>
      </trkpt>
      <trkpt lat="39.9278140" lon="3.1098580">
        <ele>196.3</ele>
        <time>2021-06-19T13:00:34Z</time>
      </trkpt>
      <trkpt lat="39.9275730" lon="3.1097490">
        <ele>194.2</ele>
        <time>2021-06-19T13:00:37Z</time>
      </trkpt>
      <trkpt lat="39.9273180" lon="3.1096300">
        <ele>192.2</ele>
        <time>2021-06-19T13:00:40Z</time>
      </trkpt>
      <trkpt lat="39.9272390" lon="3.1096030">
        <ele>191.7</ele>
        <time>2021-06-19T13:00:41Z</time>
      </trkpt>
      <trkpt lat="39.9271570" lon="3.1095960">
        <ele>191.1</ele>
        <time>2021-06-19T13:00:42Z</time>
      </trkpt>
      <trkpt lat="39.9270910" lon="3.1096120">
        <ele>190.7</ele>
        <time>2021-06-19T13:00:43Z</time>
      </trkpt>
      <trkpt lat="39.9269240" lon="3.1096840">
        <ele>189.5</ele>
        <time>2021-06-19T13:00:45Z</time>
      </trkpt>
      <trkpt lat="39.9267430" lon="3.1096350">
        <ele>188.0</ele>
        <time>2021-06-19T13:00:47Z</time>
      </trkpt>
      <trkpt lat="39.9265440" lon="3.1094140">
        <ele>185.7</ele>
        <time>2021-06-19T13:00:50Z</time>
      </trkpt>
      <trkpt lat="39.9264450" lon="3.1093460">
        <ele>184.8</ele>
        <time>2021-06-19T13:00:51Z</time>
      </trkpt>
      <trkpt lat="39.9263560" lon="3.1093110">
        <ele>184.1</ele>
        <time>2021-06-19T13:00:52Z</time>
      </trkpt>
      <trkpt lat="39.9261720" lon="3.1092920">
        <ele>182.8</ele>
        <time>2021-06-19T13:00:54Z</time>
      </trkpt>
      <trkpt lat="39.9260020" lon="3.1092940">
        <ele>181.8</ele>
        <time>2021-06-19T13:00:56Z</time>
      </trkpt>
      <trkpt lat="39.9258200" lon="3.1091910">
        <ele>180.4</ele>
        <time>2021-06-19T13:00:58Z</time>
      </trkpt>
      <trkpt lat="39.9257220" lon="3.1089970">
        <ele>179.0</ele>
        <time>2021-06-19T13:01:00Z</time>
      </trkpt>
      <trkpt lat="39.9256660" lon="3.1088560">
        <ele>178.0</ele>
        <time>2021-06-19T13:01:01Z</time>
      </trkpt>
      <trkpt lat="39.9256130" lon="3.1087410">
        <ele>177.1</ele>
        <time>2021-06-19T13:01:02Z</time>
      </trkpt>
      <trkpt lat="39.9254830" lon="3.1085530">
        <ele>175.5</ele>
        <time>2021-06-19T13:01:04Z</time>
      </trkpt>
      <trkpt lat="39.9253300" lon="3.1084610">
        <ele>174.2</ele>
        <time>2021-06-19T13:01:06Z</time>
      </trkpt>
      <trkpt lat="39.9252150" lon="3.1084470">
        <ele>173.3</ele>
        <time>2021-06-19T13:01:07Z</time>
      </trkpt>
      <trkpt lat="39.9250050" lon="3.1084430">
        <ele>171.9</ele>
        <time>2021-06-19T13:01:09Z</time>
      </trkpt>
      <trkpt lat="39.9248570" lon="3.1083050">
        <ele>170.7</ele>
        <time>2021-06-19T13:01:11Z</time>
      </trkpt>
      <trkpt lat="39.9246920" lon="3.1079010">
        <ele>167.8</ele>
        <time>2021-06-19T13:01:14Z</time>
      </trkpt>
      <trkpt lat="39.9245990" lon="3.1076700">
        <ele>165.9</ele>
        <time>2021-06-19T13:01:16Z</time>
      </trkpt>
      <trkpt lat="39.9244720" lon="3.1075060">
        <ele>164.2</ele>
        <time>2021-06-19T13:01:18Z</time>
      </trkpt>
      <trkpt lat="39.9243180" lon="3.1074330">
        <ele>162.6</ele>
        <time>2021-06-19T13:01:20Z</time>
      </trkpt>
      <trkpt lat="39.9242560" lon="3.1074360">
        <ele>162.0</ele>
        <time>2021-06-19T13:01:21Z</time>
      </trkpt>
      <trkpt lat="39.9241750" lon="3.1074650">
        <ele>161.3</ele>
        <time>2021-06-19T13:01:22Z</time>
      </trkpt>
      <trkpt lat="39.9239670" lon="3.1075800">
        <ele>159.5</ele>
        <time>2021-06-19T13:01:24Z</time>
      </trkpt>
      <trkpt lat="39.9236680" lon="3.1077120">
        <ele>157.8</ele>
        <time>2021-06-19T13:01:27Z</time>
      </trkpt>
      <trkpt lat="39.9235370" lon="3.1077370">
        <ele>157.1</ele>
        <time>2021-06-19T13:01:28Z</time>
      </trkpt>
      <trkpt lat="39.9234290" lon="3.1077340">
        <ele>156.4</ele>
        <time>2021-06-19T13:01:29Z</time>
      </trkpt>
      <trkpt lat="39.9232120" lon="3.1076950">
        <ele>155.0</ele>
        <time>2021-06-19T13:01:31Z</time>
      </trkpt>
      <trkpt lat="39.9228820" lon="3.1076120">
        <ele>152.4</ele>
        <time>2021-06-19T13:01:34Z</time>
      </trkpt>
      <trkpt lat="39.9226780" lon="3.1075170">
        <ele>150.4</ele>
        <time>2021-06-19T13:01:36Z</time>
      </trkpt>
      <trkpt lat="39.9220590" lon="3.1072870">
        <ele>145.3</ele>
        <time>2021-06-19T13:01:42Z</time>
      </trkpt>
      <trkpt lat="39.9217110" lon="3.1072150">
        <ele>142.9</ele>
        <time>2021-06-19T13:01:45Z</time>
      </trkpt>
      <trkpt lat="39.9214770" lon="3.1071420">
        <ele>141.1</ele>
        <time>2021-06-19T13:01:47Z</time>
      </trkpt>
      <trkpt lat="39.9210150" lon="3.1069920">
        <ele>137.1</ele>
        <time>2021-06-19T13:01:51Z</time>
      </trkpt>
      <trkpt lat="39.9208980" lon="3.1069820">
        <ele>136.2</ele>
        <time>2021-06-19T13:01:52Z</time>
      </trkpt>
      <trkpt lat="39.9202710" lon="3.1069690">
        <ele>130.7</ele>
        <time>2021-06-19T13:01:57Z</time>
      </trkpt>
      <trkpt lat="39.9200250" lon="3.1069680">
        <ele>128.5</ele>
        <time>2021-06-19T13:01:59Z</time>
      </trkpt>
      <trkpt lat="39.9195840" lon="3.1069170">
        <ele>124.8</ele>
        <time>2021-06-19T13:02:03Z</time>
      </trkpt>
      <trkpt lat="39.9193180" lon="3.1067770">
        <ele>122.2</ele>
        <time>2021-06-19T13:02:06Z</time>
      </trkpt>
      <trkpt lat="39.9188080" lon="3.1064440">
        <ele>117.7</ele>
        <time>2021-06-19T13:02:12Z</time>
      </trkpt>
      <trkpt lat="39.9182530" lon="3.1061080">
        <ele>113.3</ele>
        <time>2021-06-19T13:02:18Z</time>
      </trkpt>
      <trkpt lat="39.9178390" lon="3.1057900">
        <ele>109.6</ele>
        <time>2021-06-19T13:02:23Z</time>
      </trkpt>
      <trkpt lat="39.9175080" lon="3.1056280">
        <ele>106.7</ele>
        <time>2021-06-19T13:02:27Z</time>
      </trkpt>
      <trkpt lat="39.9173530" lon="3.1055930">
        <ele>105.5</ele>
        <time>2021-06-19T13:02:29Z</time>
      </trkpt>
      <trkpt lat="39.9172790" lon="3.1056030">
        <ele>105.0</ele>
        <time>2021-06-19T13:02:30Z</time>
      </trkpt>
      <trkpt lat="39.9172130" lon="3.1056430">
        <ele>104.5</ele>
        <time>2021-06-19T13:02:31Z</time>
      </trkpt>
      <trkpt lat="39.9171570" lon="3.1057070">
        <ele>104.0</ele>
        <time>2021-06-19T13:02:32Z</time>
      </trkpt>
      <trkpt lat="39.9171090" lon="3.1057890">
        <ele>103.5</ele>
        <time>2021-06-19T13:02:33Z</time>
      </trkpt>
      <trkpt lat="39.9170810" lon="3.1059860">
        <ele>102.5</ele>
        <time>2021-06-19T13:02:35Z</time>
      </trkpt>
      <trkpt lat="39.9171590" lon="3.1064250">
        <ele>100.2</ele>
        <time>2021-06-19T13:02:39Z</time>
      </trkpt>
      <trkpt lat="39.9172160" lon="3.1066610">
        <ele>99.1</ele>
        <time>2021-06-19T13:02:41Z</time>
      </trkpt>
      <trkpt lat="39.9172320" lon="3.1069040">
        <ele>98.0</ele>
        <time>2021-06-19T13:02:43Z</time>
      </trkpt>
      <trkpt lat="39.9171170" lon="3.1071110">
        <ele>96.6</ele>
        <time>2021-06-19T13:02:45Z</time>
      </trkpt>
      <trkpt lat="39.9167390" lon="3.1076030">
        <ele>93.0</ele>
        <time>2021-06-19T13:02:50Z</time>
      </trkpt>
      <trkpt lat="39.9165890" lon="3.1078050">
        <ele>92.0</ele>
        <time>2021-06-19T13:02:52Z</time>
      </trkpt>
      <trkpt lat="39.9164980" lon="3.1078800">
        <ele>91.5</ele>
        <time>2021-06-19T13:02:53Z</time>
      </trkpt>
      <trkpt lat="39.9164060" lon="3.1079190">
        <ele>91.0</ele>
        <time>2021-06-19T13:02:54Z</time>
      </trkpt>
      <trkpt lat="39.9163150" lon="3.1079110">
        <ele>90.4</ele>
        <time>2021-06-19T13:02:55Z</time>
      </trkpt>
      <trkpt lat="39.9162320" lon="3.1078580">
        <ele>89.6</ele>
        <time>2021-06-19T13:02:56Z</time>
      </trkpt>
      <trkpt lat="39.9161770" lon="3.1077860">
        <ele>89.0</ele>
        <time>2021-06-19T13:02:57Z</time>
      </trkpt>
      <trkpt lat="39.9158710" lon="3.1073740">
        <ele>85.4</ele>
        <time>2021-06-19T13:03:01Z</time>
      </trkpt>
      <trkpt lat="39.9154490" lon="3.1069010">
        <ele>81.2</ele>
        <time>2021-06-19T13:03:06Z</time>
      </trkpt>
      <trkpt lat="39.9150080" lon="3.1064120">
        <ele>77.1</ele>
        <time>2021-06-19T13:03:11Z</time>
      </trkpt>
      <trkpt lat="39.9149420" lon="3.1063300">
        <ele>76.4</ele>
        <time>2021-06-19T13:03:12Z</time>
      </trkpt>
      <trkpt lat="39.9146020" lon="3.1058600">
        <ele>72.7</ele>
        <time>2021-06-19T13:03:16Z</time>
      </trkpt>
      <trkpt lat="39.9142430" lon="3.1054960">
        <ele>69.6</ele>
        <time>2021-06-19T13:03:20Z</time>
      </trkpt>
      <trkpt lat="39.9137780" lon="3.1050920">
        <ele>66.2</ele>
        <time>2021-06-19T13:03:25Z</time>
      </trkpt>
      <trkpt lat="39.9136650" lon="3.1050160">
        <ele>65.3</ele>
        <time>2021-06-19T13:03:26Z</time>
      </trkpt>
      <trkpt lat="39.9133800" lon="3.1048940">
        <ele>63.3</ele>
        <time>2021-06-19T13:03:29Z</time>
      </trkpt>
      <trkpt lat="39.9132800" lon="3.1048670">
        <ele>62.6</ele>
        <time>2021-06-19T13:03:30Z</time>
      </trkpt>
      <trkpt lat="39.9130760" lon="3.1048140">
        <ele>61.1</ele>
        <time>2021-06-19T13:03:32Z</time>
      </trkpt>
      <trkpt lat="39.9130050" lon="3.1047750">
        <ele>60.5</ele>
        <time>2021-06-19T13:03:33Z</time>
      </trkpt>
      <trkpt lat="39.9128990" lon="3.1047010">
        <ele>59.6</ele>
        <time>2021-06-19T13:03:34Z</time>
      </trkpt>
      <trkpt lat="39.9126560" lon="3.1044910">
        <ele>57.3</ele>
        <time>2021-06-19T13:03:37Z</time>
      </trkpt>
      <trkpt lat="39.9124040" lon="3.1043820">
        <ele>55.1</ele>
        <time>2021-06-19T13:03:40Z</time>
      </trkpt>
      <trkpt lat="39.9123110" lon="3.1043600">
        <ele>54.3</ele>
        <time>2021-06-19T13:03:41Z</time>
      </trkpt>
      <trkpt lat="39.9118660" lon="3.1043210">
        <ele>51.0</ele>
        <time>2021-06-19T13:03:46Z</time>
      </trkpt>
      <trkpt lat="39.9116100" lon="3.1043350">
        <ele>49.4</ele>
        <time>2021-06-19T13:03:49Z</time>
      </trkpt>
      <trkpt lat="39.9115630" lon="3.1043140">
        <ele>49.2</ele>
        <time>2021-06-19T13:03:50Z</time>
      </trkpt>
      <trkpt lat="39.9115400" lon="3.1042440">
        <ele>48.9</ele>
        <time>2021-06-19T13:03:51Z</time>
      </trkpt>
      <trkpt lat="39.9115720" lon="3.1041500">
        <ele>47.8</ele>
        <time>2021-06-19T13:03:52Z</time>
      </trkpt>
      <trkpt lat="39.9116870" lon="3.1040940">
        <ele>47.1</ele>
        <time>2021-06-19T13:03:54Z</time>
      </trkpt>
      <trkpt lat="39.9121970" lon="3.1040630">
        <ele>45.0</ele>
        <time>2021-06-19T13:04:01Z</time>
      </trkpt>
      <trkpt lat="39.9126580" lon="3.1041180">
        <ele>43.6</ele>
        <time>2021-06-19T13:04:07Z</time>
      </trkpt>
      <trkpt lat="39.9132150" lon="3.1042670">
        <ele>41.7</ele>
        <time>2021-06-19T13:04:14Z</time>
      </trkpt>
      <trkpt lat="39.9132810" lon="3.1042840">
        <ele>41.5</ele>
        <time>2021-06-19T13:04:15Z</time>
      </trkpt>
      <trkpt lat="39.9134470" lon="3.1043240">
        <ele>40.8</ele>
        <time>2021-06-19T13:04:17Z</time>
      </trkpt>
      <trkpt lat="39.9140340" lon="3.1044850">
        <ele>37.8</ele>
        <time>2021-06-19T13:04:24Z</time>
      </trkpt>
      <trkpt lat="39.9145680" lon="3.1046160">
        <ele>35.1</ele>
        <time>2021-06-19T13:04:30Z</time>
      </trkpt>
      <trkpt lat="39.9147570" lon="3.1046680">
        <ele>33.9</ele>
        <time>2021-06-19T13:04:32Z</time>
      </trkpt>
      <trkpt lat="39.9149160" lon="3.1046310">
        <ele>32.6</ele>
        <time>2021-06-19T13:04:34Z</time>
      </trkpt>
      <trkpt lat="39.9149930" lon="3.1044750">
        <ele>31.2</ele>
        <time>2021-06-19T13:04:36Z</time>
      </trkpt>
      <trkpt lat="39.9149300" lon="3.1042930">
        <ele>29.7</ele>
        <time>2021-06-19T13:04:38Z</time>
      </trkpt>
      <trkpt lat="39.9147680" lon="3.1041560">
        <ele>27.7</ele>
        <time>2021-06-19T13:04:40Z</time>
      </trkpt>
      <trkpt lat="39.9146710" lon="3.1040910">
        <ele>26.8</ele>
        <time>2021-06-19T13:04:41Z</time>
      </trkpt>
      <trkpt lat="39.9141490" lon="3.1037280">
        <ele>22.9</ele>
        <time>2021-06-19T13:04:46Z</time>
      </trkpt>
      <trkpt lat="39.9136020" lon="3.1033550">
        <ele>19.6</ele>
        <time>2021-06-19T13:04:51Z</time>
      </trkpt>
      <trkpt lat="39.9132860" lon="3.1031390">
        <ele>17.6</ele>
        <time>2021-06-19T13:04:54Z</time>
      </trkpt>
      <trkpt lat="39.9127870" lon="3.1028000">
        <ele>14.6</ele>
        <time>2021-06-19T13:04:59Z</time>
      </trkpt>
      <trkpt lat="39.9125310" lon="3.1026000">
        <ele>13.2</ele>
        <time>2021-06-19T13:05:02Z</time>
      </trkpt>
      <trkpt lat="39.9124640" lon="3.1025280">
        <ele>12.8</ele>
        <time>2021-06-19T13:05:03Z</time>
      </trkpt>
      <trkpt lat="39.9123580" lon="3.1023760">
        <ele>12.2</ele>
        <time>2021-06-19T13:05:05Z</time>
      </trkpt>
      <trkpt lat="39.9123240" lon="3.1022940">
        <ele>12.0</ele>
        <time>2021-06-19T13:05:06Z</time>
      </trkpt>
      <trkpt lat="39.9122990" lon="3.1022060">
        <ele>11.8</ele>
        <time>2021-06-19T13:05:07Z</time>
      </trkpt>
      <trkpt lat="39.9122750" lon="3.1020210">
        <ele>11.5</ele>
        <time>2021-06-19T13:05:09Z</time>
      </trkpt>
      <trkpt lat="39.9122750" lon="3.1019270">
        <ele>11.4</ele>
        <time>2021-06-19T13:05:10Z</time>
      </trkpt>
      <trkpt lat="39.9122840" lon="3.1018310">
        <ele>11.3</ele>
        <time>2021-06-19T13:05:11Z</time>
      </trkpt>
      <trkpt lat="39.9123250" lon="3.1015460">
        <ele>11.3</ele>
        <time>2021-06-19T13:05:14Z</time>
      </trkpt>
      <trkpt lat="39.9123480" lon="3.1014560">
        <ele>11.4</ele>
        <time>2021-06-19T13:05:15Z</time>
      </trkpt>
      <trkpt lat="39.9124340" lon="3.1011080">
        <ele>11.3</ele>
        <time>2021-06-19T13:05:19Z</time>
      </trkpt>
      <trkpt lat="39.9124910" lon="3.1008630">
        <ele>11.3</ele>
        <time>2021-06-19T13:05:22Z</time>
      </trkpt>
      <trkpt lat="39.9125110" lon="3.1007850">
        <ele>11.3</ele>
        <time>2021-06-19T13:05:23Z</time>
      </trkpt>
      <trkpt lat="39.9125380" lon="3.1006520">
        <ele>11.3</ele>
        <time>2021-06-19T13:05:25Z</time>
      </trkpt>
      <trkpt lat="39.9125960" lon="3.1004420">
        <ele>11.4</ele>
        <time>2021-06-19T13:05:28Z</time>
      </trkpt>
      <trkpt lat="39.9126730" lon="3.1001180">
        <ele>11.4</ele>
        <time>2021-06-19T13:05:33Z</time>
      </trkpt>
      <trkpt lat="39.9126960" lon="3.1000570">
        <ele>11.4</ele>
        <time>2021-06-19T13:05:34Z</time>
      </trkpt>
      <trkpt lat="39.9127750" lon="3.0998950">
        <ele>11.3</ele>
        <time>2021-06-19T13:05:37Z</time>
      </trkpt>
      <trkpt lat="39.9129030" lon="3.0997040">
        <ele>11.3</ele>
        <time>2021-06-19T13:05:41Z</time>
      </trkpt>
      <trkpt lat="39.9129270" lon="3.0996530">
        <ele>11.3</ele>
        <time>2021-06-19T13:05:42Z</time>
      </trkpt>
      <trkpt lat="39.9129630" lon="3.0995340">
        <ele>11.3</ele>
        <time>2021-06-19T13:05:44Z</time>
      </trkpt>
      <trkpt lat="39.9129680" lon="3.0994670">
        <ele>11.3</ele>
        <time>2021-06-19T13:05:45Z</time>
      </trkpt>
      <trkpt lat="39.9129830" lon="3.0993370">
        <ele>11.3</ele>
        <time>2021-06-19T13:05:47Z</time>
      </trkpt>
      <trkpt lat="39.9130370" lon="3.0991470">
        <ele>11.2</ele>
        <time>2021-06-19T13:05:50Z</time>
      </trkpt>
      <trkpt lat="39.9130490" lon="3.0990820">
        <ele>11.2</ele>
        <time>2021-06-19T13:05:51Z</time>
      </trkpt>
      <trkpt lat="39.9131240" lon="3.0987330">
        <ele>11.1</ele>
        <time>2021-06-19T13:05:56Z</time>
      </trkpt>
      <trkpt lat="39.9131640" lon="3.0985340">
        <ele>11.2</ele>
        <time>2021-06-19T13:05:59Z</time>
      </trkpt>
      <trkpt lat="39.9131920" lon="3.0983970">
        <ele>11.2</ele>
        <time>2021-06-19T13:06:01Z</time>
      </trkpt>
      <trkpt lat="39.9132840" lon="3.0980290">
        <ele>11.3</ele>
        <time>2021-06-19T13:06:07Z</time>
      </trkpt>
      <trkpt lat="39.9133090" lon="3.0979100">
        <ele>11.3</ele>
        <time>2021-06-19T13:06:09Z</time>
      </trkpt>
      <trkpt lat="39.9134140" lon="3.0974510">
        <ele>11.3</ele>
        <time>2021-06-19T13:06:17Z</time>
      </trkpt>
      <trkpt lat="39.9134650" lon="3.0972310">
        <ele>11.3</ele>
        <time>2021-06-19T13:06:21Z</time>
      </trkpt>
      <trkpt lat="39.9134910" lon="3.0971400">
        <ele>11.2</ele>
        <time>2021-06-19T13:06:23Z</time>
      </trkpt>
      <trkpt lat="39.9135230" lon="3.0970410">
        <ele>11.2</ele>
        <time>2021-06-19T13:06:25Z</time>
      </trkpt>
      <trkpt lat="39.9135440" lon="3.0969400">
        <ele>11.2</ele>
        <time>2021-06-19T13:06:27Z</time>
      </trkpt>
      <trkpt lat="39.9136030" lon="3.0966950">
        <ele>11.2</ele>
        <time>2021-06-19T13:06:32Z</time>
      </trkpt>
      <trkpt lat="39.9136650" lon="3.0963620">
        <ele>11.3</ele>
        <time>2021-06-19T13:06:39Z</time>
      </trkpt>
      <trkpt lat="39.9137270" lon="3.0960630">
        <ele>11.4</ele>
        <time>2021-06-19T13:06:46Z</time>
      </trkpt>
      <trkpt lat="39.9137560" lon="3.0959450">
        <ele>11.4</ele>
        <time>2021-06-19T13:06:48Z</time>
      </trkpt>
      <trkpt lat="39.9137730" lon="3.0958400">
        <ele>11.4</ele>
        <time>2021-06-19T13:06:50Z</time>
      </trkpt>
      <trkpt lat="39.9137860" lon="3.0957860">
        <ele>11.4</ele>
        <time>2021-06-19T13:06:51Z</time>
      </trkpt>
      <trkpt lat="39.9138000" lon="3.0957210">
        <ele>11.3</ele>
        <time>2021-06-19T13:06:52Z</time>
      </trkpt>
      <trkpt lat="39.9138190" lon="3.0956430">
        <ele>11.3</ele>
        <time>2021-06-19T13:06:54Z</time>
      </trkpt>
      <trkpt lat="39.9138240" lon="3.0956080">
        <ele>11.3</ele>
        <time>2021-06-19T13:06:55Z</time>
      </trkpt>
      <trkpt lat="39.9138130" lon="3.0955850">
        <ele>11.3</ele>
        <time>2021-06-19T13:06:56Z</time>
      </trkpt>
      <trkpt lat="39.9137940" lon="3.0956150">
        <ele>11.3</ele>
        <time>2021-06-19T13:06:58Z</time>
      </trkpt>
      <trkpt lat="39.9137750" lon="3.0958190">
        <ele>11.4</ele>
        <time>2021-06-19T13:07:03Z</time>
      </trkpt>
      <trkpt lat="39.9137320" lon="3.0960760">
        <ele>11.4</ele>
        <time>2021-06-19T13:07:08Z</time>
      </trkpt>
      <trkpt lat="39.9136780" lon="3.0963480">
        <ele>11.3</ele>
        <time>2021-06-19T13:07:13Z</time>
      </trkpt>
      <trkpt lat="39.9136490" lon="3.0964840">
        <ele>11.3</ele>
        <time>2021-06-19T13:07:16Z</time>
      </trkpt>
      <trkpt lat="39.9135920" lon="3.0967850">
        <ele>11.2</ele>
        <time>2021-06-19T13:07:23Z</time>
      </trkpt>
      <trkpt lat="39.9135820" lon="3.0968270">
        <ele>11.2</ele>
        <time>2021-06-19T13:07:25Z</time>
      </trkpt>
      <trkpt lat="39.9135810" lon="3.0968320">
        <ele>11.2</ele>
        <time>2021-06-19T13:07:27Z</time>
      </trkpt>
      <trkpt lat="39.9135830" lon="3.0968230">
        <ele>11.2</ele>
        <time>2021-06-19T13:07:36Z</time>
      </trkpt>
      <trkpt lat="39.9135830" lon="3.0968230">
        <ele>11.2</ele>
        <time>2021-06-19T13:07:43Z</time>
      </trkpt>
      <trkpt lat="39.9135830" lon="3.0968210">
        <ele>11.2</ele>
        <time>2021-06-19T13:07:57Z</time>
      </trkpt>
      <trkpt lat="39.9135830" lon="3.0968200">
        <ele>11.2</ele>
        <time>2021-06-19T13:08:00Z</time>
      </trkpt>
      <trkpt lat="39.9135830" lon="3.0968200">
        <ele>11.2</ele>
        <time>2021-06-19T13:08:02Z</time>
      </trkpt>
      <trkpt lat="39.9135750" lon="3.0968280">
        <ele>11.2</ele>
        <time>2021-06-19T13:08:15Z</time>
      </trkpt>
      <trkpt lat="39.9135620" lon="3.0968430">
        <ele>11.2</ele>
        <time>2021-06-19T13:08:32Z</time>
      </trkpt>
      <trkpt lat="39.9135620" lon="3.0968430">
        <ele>11.2</ele>
        <time>2021-06-19T13:08:47Z</time>
      </trkpt>
      <trkpt lat="39.9135620" lon="3.0968430">
        <ele>11.2</ele>
        <time>2021-06-19T13:09:02Z</time>
      </trkpt>
      <trkpt lat="39.9135630" lon="3.0968240">
        <ele>11.2</ele>
        <time>2021-06-19T13:09:10Z</time>
      </trkpt>
      <trkpt lat="39.9135760" lon="3.0968110">
        <ele>11.2</ele>
        <time>2021-06-19T13:09:18Z</time>
      </trkpt>
      <trkpt lat="39.9135940" lon="3.0967290">
        <ele>11.2</ele>
        <time>2021-06-19T13:09:21Z</time>
      </trkpt>
      <trkpt lat="39.9136470" lon="3.0964940">
        <ele>11.3</ele>
        <time>2021-06-19T13:09:26Z</time>
      </trkpt>
      <trkpt lat="39.9137220" lon="3.0961730">
        <ele>11.3</ele>
        <time>2021-06-19T13:09:34Z</time>
      </trkpt>
      <trkpt lat="39.9137520" lon="3.0959980">
        <ele>11.4</ele>
        <time>2021-06-19T13:09:39Z</time>
      </trkpt>
      <trkpt lat="39.9138010" lon="3.0956350">
        <ele>11.3</ele>
        <time>2021-06-19T13:09:46Z</time>
      </trkpt>
      <trkpt lat="39.9138360" lon="3.0953830">
        <ele>11.3</ele>
        <time>2021-06-19T13:09:50Z</time>
      </trkpt>
      <trkpt lat="39.9138520" lon="3.0952470">
        <ele>11.2</ele>
        <time>2021-06-19T13:09:52Z</time>
      </trkpt>
      <trkpt lat="39.9138700" lon="3.0951060">
        <ele>11.1</ele>
        <time>2021-06-19T13:09:54Z</time>
      </trkpt>
      <trkpt lat="39.9138790" lon="3.0949750">
        <ele>11.0</ele>
        <time>2021-06-19T13:09:56Z</time>
      </trkpt>
      <trkpt lat="39.9138930" lon="3.0948210">
        <ele>10.9</ele>
        <time>2021-06-19T13:09:58Z</time>
      </trkpt>
      <trkpt lat="39.9138970" lon="3.0946460">
        <ele>10.8</ele>
        <time>2021-06-19T13:10:00Z</time>
      </trkpt>
      <trkpt lat="39.9138890" lon="3.0942420">
        <ele>10.5</ele>
        <time>2021-06-19T13:10:05Z</time>
      </trkpt>
      <trkpt lat="39.9138750" lon="3.0938070">
        <ele>10.3</ele>
        <time>2021-06-19T13:10:10Z</time>
      </trkpt>
      <trkpt lat="39.9138680" lon="3.0936560">
        <ele>10.3</ele>
        <time>2021-06-19T13:10:12Z</time>
      </trkpt>
      <trkpt lat="39.9138230" lon="3.0930400">
        <ele>10.8</ele>
        <time>2021-06-19T13:10:20Z</time>
      </trkpt>
      <trkpt lat="39.9138110" lon="3.0926670">
        <ele>11.4</ele>
        <time>2021-06-19T13:10:26Z</time>
      </trkpt>
      <trkpt lat="39.9137860" lon="3.0921600">
        <ele>12.4</ele>
        <time>2021-06-19T13:10:33Z</time>
      </trkpt>
      <trkpt lat="39.9137570" lon="3.0915400">
        <ele>13.6</ele>
        <time>2021-06-19T13:10:41Z</time>
      </trkpt>
      <trkpt lat="39.9137540" lon="3.0914610">
        <ele>13.7</ele>
        <time>2021-06-19T13:10:42Z</time>
      </trkpt>
      <trkpt lat="39.9137490" lon="3.0913060">
        <ele>13.9</ele>
        <time>2021-06-19T13:10:44Z</time>
      </trkpt>
      <trkpt lat="39.9137040" lon="3.0907230">
        <ele>14.3</ele>
        <time>2021-06-19T13:10:51Z</time>
      </trkpt>
      <trkpt lat="39.9136810" lon="3.0901030">
        <ele>13.9</ele>
        <time>2021-06-19T13:10:58Z</time>
      </trkpt>
      <trkpt lat="39.9136580" lon="3.0896060">
        <ele>13.3</ele>
        <time>2021-06-19T13:11:03Z</time>
      </trkpt>
      <trkpt lat="39.9136360" lon="3.0890780">
        <ele>12.7</ele>
        <time>2021-06-19T13:11:08Z</time>
      </trkpt>
      <trkpt lat="39.9136220" lon="3.0888620">
        <ele>12.5</ele>
        <time>2021-06-19T13:11:10Z</time>
      </trkpt>
      <trkpt lat="39.9136000" lon="3.0885360">
        <ele>12.3</ele>
        <time>2021-06-19T13:11:13Z</time>
      </trkpt>
      <trkpt lat="39.9135810" lon="3.0881170">
        <ele>12.6</ele>
        <time>2021-06-19T13:11:17Z</time>
      </trkpt>
      <trkpt lat="39.9135720" lon="3.0879180">
        <ele>12.6</ele>
        <time>2021-06-19T13:11:19Z</time>
      </trkpt>
      <trkpt lat="39.9135220" lon="3.0872100">
        <ele>12.6</ele>
        <time>2021-06-19T13:11:26Z</time>
      </trkpt>
      <trkpt lat="39.9134160" lon="3.0865030">
        <ele>12.1</ele>
        <time>2021-06-19T13:11:33Z</time>
      </trkpt>
      <trkpt lat="39.9132770" lon="3.0859050">
        <ele>11.6</ele>
        <time>2021-06-19T13:11:39Z</time>
      </trkpt>
      <trkpt lat="39.9131930" lon="3.0856020">
        <ele>11.3</ele>
        <time>2021-06-19T13:11:42Z</time>
      </trkpt>
      <trkpt lat="39.9129550" lon="3.0849340">
        <ele>10.6</ele>
        <time>2021-06-19T13:11:49Z</time>
      </trkpt>
      <trkpt lat="39.9129130" lon="3.0848300">
        <ele>10.5</ele>
        <time>2021-06-19T13:11:50Z</time>
      </trkpt>
      <trkpt lat="39.9127960" lon="3.0845120">
        <ele>10.4</ele>
        <time>2021-06-19T13:11:54Z</time>
      </trkpt>
      <trkpt lat="39.9127850" lon="3.0844250">
        <ele>10.5</ele>
        <time>2021-06-19T13:11:55Z</time>
      </trkpt>
      <trkpt lat="39.9127760" lon="3.0842500">
        <ele>10.6</ele>
        <time>2021-06-19T13:11:57Z</time>
      </trkpt>
      <trkpt lat="39.9127370" lon="3.0840830">
        <ele>10.7</ele>
        <time>2021-06-19T13:11:59Z</time>
      </trkpt>
      <trkpt lat="39.9125980" lon="3.0838890">
        <ele>10.5</ele>
        <time>2021-06-19T13:12:02Z</time>
      </trkpt>
      <trkpt lat="39.9124830" lon="3.0837640">
        <ele>10.4</ele>
        <time>2021-06-19T13:12:04Z</time>
      </trkpt>
      <trkpt lat="39.9123820" lon="3.0836040">
        <ele>10.2</ele>
        <time>2021-06-19T13:12:06Z</time>
      </trkpt>
      <trkpt lat="39.9121230" lon="3.0830860">
        <ele>9.9</ele>
        <time>2021-06-19T13:12:12Z</time>
      </trkpt>
      <trkpt lat="39.9120330" lon="3.0829190">
        <ele>9.9</ele>
        <time>2021-06-19T13:12:14Z</time>
      </trkpt>
      <trkpt lat="39.9119000" lon="3.0826730">
        <ele>10.0</ele>
        <time>2021-06-19T13:12:17Z</time>
      </trkpt>
      <trkpt lat="39.9116670" lon="3.0822790">
        <ele>10.2</ele>
        <time>2021-06-19T13:12:22Z</time>
      </trkpt>
      <trkpt lat="39.9113330" lon="3.0817300">
        <ele>10.4</ele>
        <time>2021-06-19T13:12:29Z</time>
      </trkpt>
      <trkpt lat="39.9110840" lon="3.0813420">
        <ele>10.4</ele>
        <time>2021-06-19T13:12:34Z</time>
      </trkpt>
      <trkpt lat="39.9107310" lon="3.0808030">
        <ele>10.0</ele>
        <time>2021-06-19T13:12:41Z</time>
      </trkpt>
      <trkpt lat="39.9106360" lon="3.0806670">
        <ele>9.9</ele>
        <time>2021-06-19T13:12:43Z</time>
      </trkpt>
      <trkpt lat="39.9102220" lon="3.0801150">
        <ele>9.3</ele>
        <time>2021-06-19T13:12:50Z</time>
      </trkpt>
      <trkpt lat="39.9101030" lon="3.0799670">
        <ele>9.1</ele>
        <time>2021-06-19T13:12:52Z</time>
      </trkpt>
      <trkpt lat="39.9098300" lon="3.0796360">
        <ele>8.8</ele>
        <time>2021-06-19T13:12:57Z</time>
      </trkpt>
      <trkpt lat="39.9096720" lon="3.0794430">
        <ele>8.5</ele>
        <time>2021-06-19T13:13:00Z</time>
      </trkpt>
      <trkpt lat="39.9095100" lon="3.0792450">
        <ele>8.4</ele>
        <time>2021-06-19T13:13:03Z</time>
      </trkpt>
      <trkpt lat="39.9094300" lon="3.0790980">
        <ele>8.3</ele>
        <time>2021-06-19T13:13:05Z</time>
      </trkpt>
      <trkpt lat="39.9093250" lon="3.0787350">
        <ele>8.1</ele>
        <time>2021-06-19T13:13:09Z</time>
      </trkpt>
      <trkpt lat="39.9092940" lon="3.0786460">
        <ele>8.1</ele>
        <time>2021-06-19T13:13:10Z</time>
      </trkpt>
      <trkpt lat="39.9092530" lon="3.0785640">
        <ele>8.1</ele>
        <time>2021-06-19T13:13:11Z</time>
      </trkpt>
      <trkpt lat="39.9091260" lon="3.0784580">
        <ele>8.1</ele>
        <time>2021-06-19T13:13:13Z</time>
      </trkpt>
      <trkpt lat="39.9088850" lon="3.0784230">
        <ele>7.8</ele>
        <time>2021-06-19T13:13:16Z</time>
      </trkpt>
      <trkpt lat="39.9087130" lon="3.0783970">
        <ele>7.5</ele>
        <time>2021-06-19T13:13:18Z</time>
      </trkpt>
      <trkpt lat="39.9085650" lon="3.0783310">
        <ele>7.3</ele>
        <time>2021-06-19T13:13:20Z</time>
      </trkpt>
      <trkpt lat="39.9084880" lon="3.0782810">
        <ele>7.2</ele>
        <time>2021-06-19T13:13:21Z</time>
      </trkpt>
      <trkpt lat="39.9082530" lon="3.0780700">
        <ele>6.7</ele>
        <time>2021-06-19T13:13:24Z</time>
      </trkpt>
      <trkpt lat="39.9081140" lon="3.0779420">
        <ele>6.5</ele>
        <time>2021-06-19T13:13:26Z</time>
      </trkpt>
      <trkpt lat="39.9078850" lon="3.0777420">
        <ele>6.1</ele>
        <time>2021-06-19T13:13:29Z</time>
      </trkpt>
      <trkpt lat="39.9077330" lon="3.0776080">
        <ele>5.9</ele>
        <time>2021-06-19T13:13:31Z</time>
      </trkpt>
      <trkpt lat="39.9074770" lon="3.0773950">
        <ele>5.5</ele>
        <time>2021-06-19T13:13:34Z</time>
      </trkpt>
      <trkpt lat="39.9070110" lon="3.0770250">
        <ele>4.9</ele>
        <time>2021-06-19T13:13:40Z</time>
      </trkpt>
      <trkpt lat="39.9068510" lon="3.0769020">
        <ele>4.8</ele>
        <time>2021-06-19T13:13:42Z</time>
      </trkpt>
      <trkpt lat="39.9063740" lon="3.0765550">
        <ele>4.3</ele>
        <time>2021-06-19T13:13:48Z</time>
      </trkpt>
      <trkpt lat="39.9061380" lon="3.0763840">
        <ele>4.2</ele>
        <time>2021-06-19T13:13:51Z</time>
      </trkpt>
      <trkpt lat="39.9058200" lon="3.0761650">
        <ele>4.2</ele>
        <time>2021-06-19T13:13:55Z</time>
      </trkpt>
      <trkpt lat="39.9054270" lon="3.0758920">
        <ele>3.9</ele>
        <time>2021-06-19T13:14:00Z</time>
      </trkpt>
      <trkpt lat="39.9049190" lon="3.0755280">
        <ele>4.2</ele>
        <time>2021-06-19T13:14:07Z</time>
      </trkpt>
      <trkpt lat="39.9048230" lon="3.0753890">
        <ele>4.4</ele>
        <time>2021-06-19T13:14:09Z</time>
      </trkpt>
      <trkpt lat="39.9047920" lon="3.0753050">
        <ele>4.5</ele>
        <time>2021-06-19T13:14:10Z</time>
      </trkpt>
      <trkpt lat="39.9046830" lon="3.0750560">
        <ele>4.6</ele>
        <time>2021-06-19T13:14:13Z</time>
      </trkpt>
      <trkpt lat="39.9046310" lon="3.0749890">
        <ele>4.6</ele>
        <time>2021-06-19T13:14:14Z</time>
      </trkpt>
      <trkpt lat="39.9045680" lon="3.0749420">
        <ele>4.7</ele>
        <time>2021-06-19T13:14:15Z</time>
      </trkpt>
      <trkpt lat="39.9044200" lon="3.0749250">
        <ele>4.8</ele>
        <time>2021-06-19T13:14:17Z</time>
      </trkpt>
      <trkpt lat="39.9043040" lon="3.0750020">
        <ele>5.0</ele>
        <time>2021-06-19T13:14:19Z</time>
      </trkpt>
      <trkpt lat="39.9042400" lon="3.0750540">
        <ele>5.0</ele>
        <time>2021-06-19T13:14:20Z</time>
      </trkpt>
      <trkpt lat="39.9041700" lon="3.0750930">
        <ele>5.0</ele>
        <time>2021-06-19T13:14:21Z</time>
      </trkpt>
      <trkpt lat="39.9040210" lon="3.0751100">
        <ele>5.1</ele>
        <time>2021-06-19T13:14:23Z</time>
      </trkpt>
      <trkpt lat="39.9037360" lon="3.0750070">
        <ele>5.2</ele>
        <time>2021-06-19T13:14:27Z</time>
      </trkpt>
      <trkpt lat="39.9035400" lon="3.0749460">
        <ele>5.4</ele>
        <time>2021-06-19T13:14:30Z</time>
      </trkpt>
      <trkpt lat="39.9034800" lon="3.0749460">
        <ele>5.4</ele>
        <time>2021-06-19T13:14:31Z</time>
      </trkpt>
      <trkpt lat="39.9033250" lon="3.0749720">
        <ele>5.9</ele>
        <time>2021-06-19T13:14:35Z</time>
      </trkpt>
      <trkpt lat="39.9031630" lon="3.0749200">
        <ele>6.1</ele>
        <time>2021-06-19T13:14:39Z</time>
      </trkpt>
      <trkpt lat="39.9029740" lon="3.0748430">
        <ele>6.3</ele>
        <time>2021-06-19T13:14:43Z</time>
      </trkpt>
      <trkpt lat="39.9029100" lon="3.0748170">
        <ele>6.4</ele>
        <time>2021-06-19T13:14:44Z</time>
      </trkpt>
      <trkpt lat="39.9024850" lon="3.0746590">
        <ele>6.9</ele>
        <time>2021-06-19T13:14:52Z</time>
      </trkpt>
      <trkpt lat="39.9023130" lon="3.0745930">
        <ele>7.1</ele>
        <time>2021-06-19T13:14:55Z</time>
      </trkpt>
      <trkpt lat="39.9019560" lon="3.0744670">
        <ele>7.4</ele>
        <time>2021-06-19T13:15:01Z</time>
      </trkpt>
      <trkpt lat="39.9014330" lon="3.0742970">
        <ele>7.5</ele>
        <time>2021-06-19T13:15:09Z</time>
      </trkpt>
      <trkpt lat="39.9009540" lon="3.0741320">
        <ele>7.2</ele>
        <time>2021-06-19T13:15:16Z</time>
      </trkpt>
      <trkpt lat="39.9003950" lon="3.0739660">
        <ele>7.1</ele>
        <time>2021-06-19T13:15:24Z</time>
      </trkpt>
      <trkpt lat="39.9003240" lon="3.0739480">
        <ele>7.1</ele>
        <time>2021-06-19T13:15:25Z</time>
      </trkpt>
      <trkpt lat="39.9001140" lon="3.0739000">
        <ele>6.9</ele>
        <time>2021-06-19T13:15:28Z</time>
      </trkpt>
      <trkpt lat="39.8999790" lon="3.0739110">
        <ele>6.8</ele>
        <time>2021-06-19T13:15:30Z</time>
      </trkpt>
      <trkpt lat="39.8998600" lon="3.0739780">
        <ele>6.8</ele>
        <time>2021-06-19T13:15:32Z</time>
      </trkpt>
      <trkpt lat="39.8997980" lon="3.0740010">
        <ele>6.7</ele>
        <time>2021-06-19T13:15:33Z</time>
      </trkpt>
      <trkpt lat="39.8996890" lon="3.0740110">
        <ele>6.7</ele>
        <time>2021-06-19T13:15:35Z</time>
      </trkpt>
      <trkpt lat="39.8995730" lon="3.0739510">
        <ele>6.8</ele>
        <time>2021-06-19T13:15:37Z</time>
      </trkpt>
      <trkpt lat="39.8995300" lon="3.0739130">
        <ele>6.7</ele>
        <time>2021-06-19T13:15:38Z</time>
      </trkpt>
      <trkpt lat="39.8994570" lon="3.0738370">
        <ele>6.6</ele>
        <time>2021-06-19T13:15:40Z</time>
      </trkpt>
      <trkpt lat="39.8994410" lon="3.0737990">
        <ele>6.5</ele>
        <time>2021-06-19T13:15:41Z</time>
      </trkpt>
      <trkpt lat="39.8994550" lon="3.0737170">
        <ele>6.4</ele>
        <time>2021-06-19T13:15:44Z</time>
      </trkpt>
      <trkpt lat="39.8994560" lon="3.0736460">
        <ele>6.6</ele>
        <time>2021-06-19T13:15:46Z</time>
      </trkpt>
      <trkpt lat="39.8994410" lon="3.0736180">
        <ele>6.6</ele>
        <time>2021-06-19T13:15:47Z</time>
      </trkpt>
      <trkpt lat="39.8993380" lon="3.0735740">
        <ele>6.6</ele>
        <time>2021-06-19T13:15:50Z</time>
      </trkpt>
      <trkpt lat="39.8992960" lon="3.0735690">
        <ele>6.6</ele>
        <time>2021-06-19T13:15:51Z</time>
      </trkpt>
      <trkpt lat="39.8989980" lon="3.0735300">
        <ele>6.4</ele>
        <time>2021-06-19T13:15:57Z</time>
      </trkpt>
      <trkpt lat="39.8985660" lon="3.0735060">
        <ele>6.1</ele>
        <time>2021-06-19T13:16:04Z</time>
      </trkpt>
      <trkpt lat="39.8981360" lon="3.0734860">
        <ele>5.8</ele>
        <time>2021-06-19T13:16:10Z</time>
      </trkpt>
      <trkpt lat="39.8980070" lon="3.0734870">
        <ele>5.8</ele>
        <time>2021-06-19T13:16:12Z</time>
      </trkpt>
      <trkpt lat="39.8976480" lon="3.0734800">
        <ele>5.8</ele>
        <time>2021-06-19T13:16:17Z</time>
      </trkpt>
      <trkpt lat="39.8974350" lon="3.0734870">
        <ele>5.6</ele>
        <time>2021-06-19T13:16:20Z</time>
      </trkpt>
      <trkpt lat="39.8969120" lon="3.0735060">
        <ele>5.4</ele>
        <time>2021-06-19T13:16:27Z</time>
      </trkpt>
      <trkpt lat="39.8963210" lon="3.0735400">
        <ele>5.5</ele>
        <time>2021-06-19T13:16:35Z</time>
      </trkpt>
      <trkpt lat="39.8962490" lon="3.0735230">
        <ele>5.5</ele>
        <time>2021-06-19T13:16:36Z</time>
      </trkpt>
      <trkpt lat="39.8960990" lon="3.0734700">
        <ele>5.5</ele>
        <time>2021-06-19T13:16:38Z</time>
      </trkpt>
      <trkpt lat="39.8959750" lon="3.0734590">
        <ele>5.5</ele>
        <time>2021-06-19T13:16:40Z</time>
      </trkpt>
      <trkpt lat="39.8959090" lon="3.0734760">
        <ele>5.5</ele>
        <time>2021-06-19T13:16:41Z</time>
      </trkpt>
      <trkpt lat="39.8957110" lon="3.0735650">
        <ele>5.4</ele>
        <time>2021-06-19T13:16:44Z</time>
      </trkpt>
      <trkpt lat="39.8956390" lon="3.0735800">
        <ele>5.3</ele>
        <time>2021-06-19T13:16:45Z</time>
      </trkpt>
      <trkpt lat="39.8950970" lon="3.0736040">
        <ele>5.2</ele>
        <time>2021-06-19T13:16:52Z</time>
      </trkpt>
      <trkpt lat="39.8949560" lon="3.0736120">
        <ele>5.2</ele>
        <time>2021-06-19T13:16:54Z</time>
      </trkpt>
      <trkpt lat="39.8944000" lon="3.0736190">
        <ele>5.3</ele>
        <time>2021-06-19T13:17:01Z</time>
      </trkpt>
      <trkpt lat="39.8940770" lon="3.0736280">
        <ele>5.4</ele>
        <time>2021-06-19T13:17:05Z</time>
      </trkpt>
      <trkpt lat="39.8934890" lon="3.0736400">
        <ele>5.5</ele>
        <time>2021-06-19T13:17:12Z</time>
      </trkpt>
      <trkpt lat="39.8931640" lon="3.0736470">
        <ele>5.6</ele>
        <time>2021-06-19T13:17:16Z</time>
      </trkpt>
      <trkpt lat="39.8926110" lon="3.0736660">
        <ele>5.7</ele>
        <time>2021-06-19T13:17:23Z</time>
      </trkpt>
      <trkpt lat="39.8920550" lon="3.0736610">
        <ele>6.0</ele>
        <time>2021-06-19T13:17:30Z</time>
      </trkpt>
      <trkpt lat="39.8919760" lon="3.0736600">
        <ele>6.0</ele>
        <time>2021-06-19T13:17:31Z</time>
      </trkpt>
      <trkpt lat="39.8913710" lon="3.0736620">
        <ele>6.3</ele>
        <time>2021-06-19T13:17:39Z</time>
      </trkpt>
      <trkpt lat="39.8908600" lon="3.0736700">
        <ele>6.5</ele>
        <time>2021-06-19T13:17:46Z</time>
      </trkpt>
      <trkpt lat="39.8907920" lon="3.0736570">
        <ele>6.5</ele>
        <time>2021-06-19T13:17:47Z</time>
      </trkpt>
      <trkpt lat="39.8906580" lon="3.0736010">
        <ele>6.6</ele>
        <time>2021-06-19T13:17:49Z</time>
      </trkpt>
      <trkpt lat="39.8904620" lon="3.0734950">
        <ele>6.7</ele>
        <time>2021-06-19T13:17:52Z</time>
      </trkpt>
      <trkpt lat="39.8903960" lon="3.0734640">
        <ele>6.8</ele>
        <time>2021-06-19T13:17:53Z</time>
      </trkpt>
      <trkpt lat="39.8902660" lon="3.0734340">
        <ele>6.8</ele>
        <time>2021-06-19T13:17:55Z</time>
      </trkpt>
      <trkpt lat="39.8902080" lon="3.0734500">
        <ele>6.8</ele>
        <time>2021-06-19T13:17:56Z</time>
      </trkpt>
      <trkpt lat="39.8901590" lon="3.0734880">
        <ele>6.9</ele>
        <time>2021-06-19T13:17:57Z</time>
      </trkpt>
      <trkpt lat="39.8900730" lon="3.0736170">
        <ele>6.9</ele>
        <time>2021-06-19T13:17:59Z</time>
      </trkpt>
      <trkpt lat="39.8899790" lon="3.0737380">
        <ele>6.7</ele>
        <time>2021-06-19T13:18:01Z</time>
      </trkpt>
      <trkpt lat="39.8899140" lon="3.0737710">
        <ele>6.7</ele>
        <time>2021-06-19T13:18:02Z</time>
      </trkpt>
      <trkpt lat="39.8898440" lon="3.0737850">
        <ele>6.6</ele>
        <time>2021-06-19T13:18:03Z</time>
      </trkpt>
      <trkpt lat="39.8896250" lon="3.0738180">
        <ele>6.3</ele>
        <time>2021-06-19T13:18:06Z</time>
      </trkpt>
      <trkpt lat="39.8890720" lon="3.0739010">
        <ele>5.9</ele>
        <time>2021-06-19T13:18:13Z</time>
      </trkpt>
      <trkpt lat="39.8889920" lon="3.0739140">
        <ele>5.9</ele>
        <time>2021-06-19T13:18:14Z</time>
      </trkpt>
      <trkpt lat="39.8885780" lon="3.0739750">
        <ele>5.7</ele>
        <time>2021-06-19T13:18:19Z</time>
      </trkpt>
      <trkpt lat="39.8883060" lon="3.0740170">
        <ele>5.7</ele>
        <time>2021-06-19T13:18:22Z</time>
      </trkpt>
      <trkpt lat="39.8877980" lon="3.0740930">
        <ele>5.9</ele>
        <time>2021-06-19T13:18:28Z</time>
      </trkpt>
      <trkpt lat="39.8876180" lon="3.0741220">
        <ele>6.0</ele>
        <time>2021-06-19T13:18:30Z</time>
      </trkpt>
      <trkpt lat="39.8870740" lon="3.0742020">
        <ele>6.3</ele>
        <time>2021-06-19T13:18:36Z</time>
      </trkpt>
      <trkpt lat="39.8869660" lon="3.0742180">
        <ele>6.3</ele>
        <time>2021-06-19T13:18:37Z</time>
      </trkpt>
      <trkpt lat="39.8865400" lon="3.0742740">
        <ele>6.5</ele>
        <time>2021-06-19T13:18:42Z</time>
      </trkpt>
      <trkpt lat="39.8861050" lon="3.0743400">
        <ele>6.8</ele>
        <time>2021-06-19T13:18:47Z</time>
      </trkpt>
      <trkpt lat="39.8855100" lon="3.0744490">
        <ele>7.1</ele>
        <time>2021-06-19T13:18:54Z</time>
      </trkpt>
      <trkpt lat="39.8854290" lon="3.0744720">
        <ele>7.1</ele>
        <time>2021-06-19T13:18:55Z</time>
      </trkpt>
      <trkpt lat="39.8849630" lon="3.0746660">
        <ele>7.1</ele>
        <time>2021-06-19T13:19:01Z</time>
      </trkpt>
      <trkpt lat="39.8848880" lon="3.0747120">
        <ele>7.0</ele>
        <time>2021-06-19T13:19:02Z</time>
      </trkpt>
      <trkpt lat="39.8846430" lon="3.0749050">
        <ele>6.9</ele>
        <time>2021-06-19T13:19:06Z</time>
      </trkpt>
      <trkpt lat="39.8846060" lon="3.0749560">
        <ele>6.8</ele>
        <time>2021-06-19T13:19:07Z</time>
      </trkpt>
      <trkpt lat="39.8845680" lon="3.0750080">
        <ele>6.8</ele>
        <time>2021-06-19T13:19:08Z</time>
      </trkpt>
      <trkpt lat="39.8843600" lon="3.0752310">
        <ele>6.6</ele>
        <time>2021-06-19T13:19:12Z</time>
      </trkpt>
      <trkpt lat="39.8840960" lon="3.0755880">
        <ele>6.3</ele>
        <time>2021-06-19T13:19:17Z</time>
      </trkpt>
      <trkpt lat="39.8838320" lon="3.0760960">
        <ele>6.0</ele>
        <time>2021-06-19T13:19:23Z</time>
      </trkpt>
      <trkpt lat="39.8836590" lon="3.0766410">
        <ele>5.7</ele>
        <time>2021-06-19T13:19:29Z</time>
      </trkpt>
      <trkpt lat="39.8835650" lon="3.0772170">
        <ele>5.3</ele>
        <time>2021-06-19T13:19:35Z</time>
      </trkpt>
      <trkpt lat="39.8835510" lon="3.0779770">
        <ele>4.9</ele>
        <time>2021-06-19T13:19:43Z</time>
      </trkpt>
      <trkpt lat="39.8835570" lon="3.0784540">
        <ele>4.5</ele>
        <time>2021-06-19T13:19:48Z</time>
      </trkpt>
      <trkpt lat="39.8835610" lon="3.0788910">
        <ele>4.4</ele>
        <time>2021-06-19T13:19:53Z</time>
      </trkpt>
      <trkpt lat="39.8835570" lon="3.0789680">
        <ele>4.4</ele>
        <time>2021-06-19T13:19:54Z</time>
      </trkpt>
      <trkpt lat="39.8835150" lon="3.0790900">
        <ele>4.4</ele>
        <time>2021-06-19T13:19:56Z</time>
      </trkpt>
      <trkpt lat="39.8834820" lon="3.0791460">
        <ele>4.4</ele>
        <time>2021-06-19T13:19:57Z</time>
      </trkpt>
      <trkpt lat="39.8834170" lon="3.0792570">
        <ele>4.4</ele>
        <time>2021-06-19T13:19:59Z</time>
      </trkpt>
      <trkpt lat="39.8833790" lon="3.0793870">
        <ele>4.4</ele>
        <time>2021-06-19T13:20:01Z</time>
      </trkpt>
      <trkpt lat="39.8833660" lon="3.0797240">
        <ele>4.4</ele>
        <time>2021-06-19T13:20:06Z</time>
      </trkpt>
      <trkpt lat="39.8833200" lon="3.0799060">
        <ele>4.4</ele>
        <time>2021-06-19T13:20:09Z</time>
      </trkpt>
      <trkpt lat="39.8832600" lon="3.0800140">
        <ele>4.4</ele>
        <time>2021-06-19T13:20:11Z</time>
      </trkpt>
      <trkpt lat="39.8829760" lon="3.0802300">
        <ele>4.4</ele>
        <time>2021-06-19T13:20:17Z</time>
      </trkpt>
      <trkpt lat="39.8825740" lon="3.0803820">
        <ele>4.5</ele>
        <time>2021-06-19T13:20:24Z</time>
      </trkpt>
      <trkpt lat="39.8821730" lon="3.0805070">
        <ele>4.6</ele>
        <time>2021-06-19T13:20:31Z</time>
      </trkpt>
      <trkpt lat="39.8820530" lon="3.0805020">
        <ele>4.6</ele>
        <time>2021-06-19T13:20:33Z</time>
      </trkpt>
      <trkpt lat="39.8819910" lon="3.0805070">
        <ele>4.6</ele>
        <time>2021-06-19T13:20:34Z</time>
      </trkpt>
      <trkpt lat="39.8818690" lon="3.0805410">
        <ele>4.5</ele>
        <time>2021-06-19T13:20:36Z</time>
      </trkpt>
      <trkpt lat="39.8818080" lon="3.0805610">
        <ele>4.5</ele>
        <time>2021-06-19T13:20:37Z</time>
      </trkpt>
      <trkpt lat="39.8817450" lon="3.0805820">
        <ele>4.5</ele>
        <time>2021-06-19T13:20:38Z</time>
      </trkpt>
      <trkpt lat="39.8816150" lon="3.0806240">
        <ele>4.5</ele>
        <time>2021-06-19T13:20:40Z</time>
      </trkpt>
      <trkpt lat="39.8812720" lon="3.0807470">
        <ele>4.1</ele>
        <time>2021-06-19T13:20:45Z</time>
      </trkpt>
      <trkpt lat="39.8807110" lon="3.0809520">
        <ele>3.7</ele>
        <time>2021-06-19T13:20:53Z</time>
      </trkpt>
      <trkpt lat="39.8805660" lon="3.0810060">
        <ele>3.6</ele>
        <time>2021-06-19T13:20:55Z</time>
      </trkpt>
      <trkpt lat="39.8801340" lon="3.0811620">
        <ele>3.7</ele>
        <time>2021-06-19T13:21:01Z</time>
      </trkpt>
      <trkpt lat="39.8797730" lon="3.0812960">
        <ele>3.7</ele>
        <time>2021-06-19T13:21:06Z</time>
      </trkpt>
      <trkpt lat="39.8793400" lon="3.0814530">
        <ele>3.7</ele>
        <time>2021-06-19T13:21:12Z</time>
      </trkpt>
      <trkpt lat="39.8790550" lon="3.0815720">
        <ele>3.8</ele>
        <time>2021-06-19T13:21:16Z</time>
      </trkpt>
      <trkpt lat="39.8785320" lon="3.0818050">
        <ele>3.7</ele>
        <time>2021-06-19T13:21:23Z</time>
      </trkpt>
      <trkpt lat="39.8783790" lon="3.0818820">
        <ele>3.8</ele>
        <time>2021-06-19T13:21:25Z</time>
      </trkpt>
      <trkpt lat="39.8778540" lon="3.0821640">
        <ele>3.8</ele>
        <time>2021-06-19T13:21:32Z</time>
      </trkpt>
      <trkpt lat="39.8775520" lon="3.0823240">
        <ele>3.9</ele>
        <time>2021-06-19T13:21:36Z</time>
      </trkpt>
      <trkpt lat="39.8770260" lon="3.0826030">
        <ele>3.8</ele>
        <time>2021-06-19T13:21:43Z</time>
      </trkpt>
      <trkpt lat="39.8769520" lon="3.0826390">
        <ele>3.8</ele>
        <time>2021-06-19T13:21:44Z</time>
      </trkpt>
      <trkpt lat="39.8764160" lon="3.0829210">
        <ele>3.9</ele>
        <time>2021-06-19T13:21:51Z</time>
      </trkpt>
      <trkpt lat="39.8761510" lon="3.0830650">
        <ele>4.0</ele>
        <time>2021-06-19T13:21:55Z</time>
      </trkpt>
      <trkpt lat="39.8755940" lon="3.0833690">
        <ele>4.0</ele>
        <time>2021-06-19T13:22:03Z</time>
      </trkpt>
      <trkpt lat="39.8755220" lon="3.0834060">
        <ele>4.0</ele>
        <time>2021-06-19T13:22:04Z</time>
      </trkpt>
      <trkpt lat="39.8749700" lon="3.0837120">
        <ele>3.9</ele>
        <time>2021-06-19T13:22:12Z</time>
      </trkpt>
      <trkpt lat="39.8748340" lon="3.0837910">
        <ele>3.9</ele>
        <time>2021-06-19T13:22:14Z</time>
      </trkpt>
      <trkpt lat="39.8742920" lon="3.0841120">
        <ele>4.0</ele>
        <time>2021-06-19T13:22:22Z</time>
      </trkpt>
      <trkpt lat="39.8740860" lon="3.0842310">
        <ele>4.0</ele>
        <time>2021-06-19T13:22:25Z</time>
      </trkpt>
      <trkpt lat="39.8735150" lon="3.0845730">
        <ele>3.8</ele>
        <time>2021-06-19T13:22:33Z</time>
      </trkpt>
      <trkpt lat="39.8732490" lon="3.0847350">
        <ele>3.8</ele>
        <time>2021-06-19T13:22:37Z</time>
      </trkpt>
      <trkpt lat="39.8727470" lon="3.0850480">
        <ele>3.6</ele>
        <time>2021-06-19T13:22:44Z</time>
      </trkpt>
      <trkpt lat="39.8722400" lon="3.0853580">
        <ele>3.4</ele>
        <time>2021-06-19T13:22:51Z</time>
      </trkpt>
      <trkpt lat="39.8717450" lon="3.0856650">
        <ele>3.3</ele>
        <time>2021-06-19T13:22:58Z</time>
      </trkpt>
      <trkpt lat="39.8713880" lon="3.0858920">
        <ele>3.3</ele>
        <time>2021-06-19T13:23:03Z</time>
      </trkpt>
      <trkpt lat="39.8708260" lon="3.0861940">
        <ele>3.3</ele>
        <time>2021-06-19T13:23:11Z</time>
      </trkpt>
      <trkpt lat="39.8706860" lon="3.0862710">
        <ele>3.3</ele>
        <time>2021-06-19T13:23:13Z</time>
      </trkpt>
      <trkpt lat="39.8701560" lon="3.0866150">
        <ele>3.7</ele>
        <time>2021-06-19T13:23:21Z</time>
      </trkpt>
      <trkpt lat="39.8700960" lon="3.0866620">
        <ele>3.7</ele>
        <time>2021-06-19T13:23:22Z</time>
      </trkpt>
      <trkpt lat="39.8696190" lon="3.0870610">
        <ele>3.7</ele>
        <time>2021-06-19T13:23:30Z</time>
      </trkpt>
      <trkpt lat="39.8691250" lon="3.0874730">
        <ele>3.7</ele>
        <time>2021-06-19T13:23:38Z</time>
      </trkpt>
      <trkpt lat="39.8689540" lon="3.0876140">
        <ele>3.7</ele>
        <time>2021-06-19T13:23:41Z</time>
      </trkpt>
      <trkpt lat="39.8684860" lon="3.0880020">
        <ele>3.7</ele>
        <time>2021-06-19T13:23:49Z</time>
      </trkpt>
      <trkpt lat="39.8682440" lon="3.0881890">
        <ele>3.7</ele>
        <time>2021-06-19T13:23:53Z</time>
      </trkpt>
      <trkpt lat="39.8678370" lon="3.0885200">
        <ele>3.7</ele>
        <time>2021-06-19T13:23:59Z</time>
      </trkpt>
      <trkpt lat="39.8673680" lon="3.0888980">
        <ele>3.7</ele>
        <time>2021-06-19T13:24:06Z</time>
      </trkpt>
      <trkpt lat="39.8673000" lon="3.0889520">
        <ele>3.7</ele>
        <time>2021-06-19T13:24:07Z</time>
      </trkpt>
      <trkpt lat="39.8667760" lon="3.0893740">
        <ele>3.7</ele>
        <time>2021-06-19T13:24:15Z</time>
      </trkpt>
      <trkpt lat="39.8665850" lon="3.0895360">
        <ele>3.7</ele>
        <time>2021-06-19T13:24:18Z</time>
      </trkpt>
      <trkpt lat="39.8661150" lon="3.0899930">
        <ele>3.7</ele>
        <time>2021-06-19T13:24:26Z</time>
      </trkpt>
      <trkpt lat="39.8657010" lon="3.0904260">
        <ele>3.8</ele>
        <time>2021-06-19T13:24:33Z</time>
      </trkpt>
      <trkpt lat="39.8653210" lon="3.0909140">
        <ele>3.8</ele>
        <time>2021-06-19T13:24:40Z</time>
      </trkpt>
      <trkpt lat="39.8649420" lon="3.0915020">
        <ele>3.8</ele>
        <time>2021-06-19T13:24:48Z</time>
      </trkpt>
      <trkpt lat="39.8648490" lon="3.0916550">
        <ele>3.9</ele>
        <time>2021-06-19T13:24:50Z</time>
      </trkpt>
      <trkpt lat="39.8644850" lon="3.0922860">
        <ele>3.7</ele>
        <time>2021-06-19T13:24:58Z</time>
      </trkpt>
      <trkpt lat="39.8643990" lon="3.0924460">
        <ele>3.7</ele>
        <time>2021-06-19T13:25:00Z</time>
      </trkpt>
      <trkpt lat="39.8640610" lon="3.0930730">
        <ele>3.6</ele>
        <time>2021-06-19T13:25:08Z</time>
      </trkpt>
      <trkpt lat="39.8638810" lon="3.0933800">
        <ele>3.6</ele>
        <time>2021-06-19T13:25:12Z</time>
      </trkpt>
      <trkpt lat="39.8635090" lon="3.0939860">
        <ele>3.6</ele>
        <time>2021-06-19T13:25:20Z</time>
      </trkpt>
      <trkpt lat="39.8633670" lon="3.0942100">
        <ele>3.5</ele>
        <time>2021-06-19T13:25:23Z</time>
      </trkpt>
      <trkpt lat="39.8630020" lon="3.0947340">
        <ele>3.5</ele>
        <time>2021-06-19T13:25:30Z</time>
      </trkpt>
      <trkpt lat="39.8625790" lon="3.0953000">
        <ele>3.5</ele>
        <time>2021-06-19T13:25:38Z</time>
      </trkpt>
      <trkpt lat="39.8624050" lon="3.0955300">
        <ele>3.6</ele>
        <time>2021-06-19T13:25:41Z</time>
      </trkpt>
      <trkpt lat="39.8620320" lon="3.0960460">
        <ele>3.6</ele>
        <time>2021-06-19T13:25:48Z</time>
      </trkpt>
      <trkpt lat="39.8619100" lon="3.0962130">
        <ele>3.6</ele>
        <time>2021-06-19T13:25:50Z</time>
      </trkpt>
      <trkpt lat="39.8614830" lon="3.0967950">
        <ele>3.5</ele>
        <time>2021-06-19T13:25:58Z</time>
      </trkpt>
      <trkpt lat="39.8613720" lon="3.0969390">
        <ele>3.4</ele>
        <time>2021-06-19T13:26:00Z</time>
      </trkpt>
      <trkpt lat="39.8609470" lon="3.0973800">
        <ele>3.3</ele>
        <time>2021-06-19T13:26:07Z</time>
      </trkpt>
      <trkpt lat="39.8604870" lon="3.0977500">
        <ele>3.6</ele>
        <time>2021-06-19T13:26:14Z</time>
      </trkpt>
      <trkpt lat="39.8602130" lon="3.0979610">
        <ele>3.6</ele>
        <time>2021-06-19T13:26:18Z</time>
      </trkpt>
      <trkpt lat="39.8597270" lon="3.0983130">
        <ele>3.9</ele>
        <time>2021-06-19T13:26:25Z</time>
      </trkpt>
      <trkpt lat="39.8595890" lon="3.0984170">
        <ele>4.1</ele>
        <time>2021-06-19T13:26:27Z</time>
      </trkpt>
      <trkpt lat="39.8591430" lon="3.0987820">
        <ele>4.4</ele>
        <time>2021-06-19T13:26:34Z</time>
      </trkpt>
      <trkpt lat="39.8590880" lon="3.0988490">
        <ele>4.4</ele>
        <time>2021-06-19T13:26:35Z</time>
      </trkpt>
      <trkpt lat="39.8589540" lon="3.0990660">
        <ele>4.4</ele>
        <time>2021-06-19T13:26:38Z</time>
      </trkpt>
      <trkpt lat="39.8586810" lon="3.0997080">
        <ele>4.2</ele>
        <time>2021-06-19T13:26:46Z</time>
      </trkpt>
      <trkpt lat="39.8585730" lon="3.1002520">
        <ele>4.0</ele>
        <time>2021-06-19T13:26:52Z</time>
      </trkpt>
      <trkpt lat="39.8584780" lon="3.1009900">
        <ele>3.6</ele>
        <time>2021-06-19T13:27:00Z</time>
      </trkpt>
      <trkpt lat="39.8584660" lon="3.1010790">
        <ele>3.6</ele>
        <time>2021-06-19T13:27:01Z</time>
      </trkpt>
      <trkpt lat="39.8583390" lon="3.1016640">
        <ele>3.5</ele>
        <time>2021-06-19T13:27:08Z</time>
      </trkpt>
      <trkpt lat="39.8581430" lon="3.1023270">
        <ele>3.5</ele>
        <time>2021-06-19T13:27:16Z</time>
      </trkpt>
      <trkpt lat="39.8580760" lon="3.1025620">
        <ele>3.6</ele>
        <time>2021-06-19T13:27:19Z</time>
      </trkpt>
      <trkpt lat="39.8578570" lon="3.1032970">
        <ele>3.5</ele>
        <time>2021-06-19T13:27:28Z</time>
      </trkpt>
      <trkpt lat="39.8576210" lon="3.1039400">
        <ele>3.5</ele>
        <time>2021-06-19T13:27:36Z</time>
      </trkpt>
      <trkpt lat="39.8573440" lon="3.1045780">
        <ele>3.4</ele>
        <time>2021-06-19T13:27:44Z</time>
      </trkpt>
      <trkpt lat="39.8571180" lon="3.1051060">
        <ele>3.5</ele>
        <time>2021-06-19T13:27:51Z</time>
      </trkpt>
      <trkpt lat="39.8568580" lon="3.1056890">
        <ele>3.5</ele>
        <time>2021-06-19T13:27:59Z</time>
      </trkpt>
      <trkpt lat="39.8568260" lon="3.1057650">
        <ele>3.5</ele>
        <time>2021-06-19T13:28:00Z</time>
      </trkpt>
      <trkpt lat="39.8566560" lon="3.1061580">
        <ele>3.5</ele>
        <time>2021-06-19T13:28:05Z</time>
      </trkpt>
      <trkpt lat="39.8565240" lon="3.1064730">
        <ele>3.4</ele>
        <time>2021-06-19T13:28:09Z</time>
      </trkpt>
      <trkpt lat="39.8562460" lon="3.1071120">
        <ele>3.4</ele>
        <time>2021-06-19T13:28:17Z</time>
      </trkpt>
      <trkpt lat="39.8561740" lon="3.1072750">
        <ele>3.5</ele>
        <time>2021-06-19T13:28:19Z</time>
      </trkpt>
      <trkpt lat="39.8558740" lon="3.1079390">
        <ele>3.5</ele>
        <time>2021-06-19T13:28:27Z</time>
      </trkpt>
      <trkpt lat="39.8557970" lon="3.1081120">
        <ele>3.5</ele>
        <time>2021-06-19T13:28:29Z</time>
      </trkpt>
      <trkpt lat="39.8555090" lon="3.1087750">
        <ele>3.7</ele>
        <time>2021-06-19T13:28:37Z</time>
      </trkpt>
      <trkpt lat="39.8554020" lon="3.1090250">
        <ele>3.7</ele>
        <time>2021-06-19T13:28:40Z</time>
      </trkpt>
      <trkpt lat="39.8551040" lon="3.1097040">
        <ele>3.8</ele>
        <time>2021-06-19T13:28:48Z</time>
      </trkpt>
      <trkpt lat="39.8549560" lon="3.1100470">
        <ele>3.9</ele>
        <time>2021-06-19T13:28:52Z</time>
      </trkpt>
      <trkpt lat="39.8546590" lon="3.1107310">
        <ele>4.1</ele>
        <time>2021-06-19T13:29:00Z</time>
      </trkpt>
      <trkpt lat="39.8545390" lon="3.1109800">
        <ele>4.3</ele>
        <time>2021-06-19T13:29:03Z</time>
      </trkpt>
      <trkpt lat="39.8542110" lon="3.1116290">
        <ele>4.5</ele>
        <time>2021-06-19T13:29:11Z</time>
      </trkpt>
      <trkpt lat="39.8541250" lon="3.1117880">
        <ele>4.7</ele>
        <time>2021-06-19T13:29:13Z</time>
      </trkpt>
      <trkpt lat="39.8537550" lon="3.1123910">
        <ele>5.2</ele>
        <time>2021-06-19T13:29:21Z</time>
      </trkpt>
      <trkpt lat="39.8536590" lon="3.1125310">
        <ele>5.3</ele>
        <time>2021-06-19T13:29:23Z</time>
      </trkpt>
      <trkpt lat="39.8532870" lon="3.1130870">
        <ele>5.9</ele>
        <time>2021-06-19T13:29:31Z</time>
      </trkpt>
      <trkpt lat="39.8531910" lon="3.1132290">
        <ele>6.0</ele>
        <time>2021-06-19T13:29:33Z</time>
      </trkpt>
      <trkpt lat="39.8528130" lon="3.1137880">
        <ele>6.6</ele>
        <time>2021-06-19T13:29:41Z</time>
      </trkpt>
      <trkpt lat="39.8527680" lon="3.1138570">
        <ele>6.7</ele>
        <time>2021-06-19T13:29:42Z</time>
      </trkpt>
      <trkpt lat="39.8524710" lon="3.1142750">
        <ele>7.0</ele>
        <time>2021-06-19T13:29:49Z</time>
      </trkpt>
      <trkpt lat="39.8521900" lon="3.1146770">
        <ele>7.5</ele>
        <time>2021-06-19T13:29:56Z</time>
      </trkpt>
      <trkpt lat="39.8520050" lon="3.1148780">
        <ele>7.6</ele>
        <time>2021-06-19T13:30:00Z</time>
      </trkpt>
      <trkpt lat="39.8518970" lon="3.1149460">
        <ele>7.5</ele>
        <time>2021-06-19T13:30:02Z</time>
      </trkpt>
      <trkpt lat="39.8518390" lon="3.1149650">
        <ele>7.5</ele>
        <time>2021-06-19T13:30:03Z</time>
      </trkpt>
      <trkpt lat="39.8517230" lon="3.1150030">
        <ele>7.4</ele>
        <time>2021-06-19T13:30:05Z</time>
      </trkpt>
      <trkpt lat="39.8516290" lon="3.1150700">
        <ele>7.4</ele>
        <time>2021-06-19T13:30:07Z</time>
      </trkpt>
      <trkpt lat="39.8515630" lon="3.1151910">
        <ele>7.6</ele>
        <time>2021-06-19T13:30:09Z</time>
      </trkpt>
      <trkpt lat="39.8515500" lon="3.1152590">
        <ele>7.8</ele>
        <time>2021-06-19T13:30:10Z</time>
      </trkpt>
      <trkpt lat="39.8515480" lon="3.1153300">
        <ele>8.0</ele>
        <time>2021-06-19T13:30:11Z</time>
      </trkpt>
      <trkpt lat="39.8515690" lon="3.1154760">
        <ele>8.0</ele>
        <time>2021-06-19T13:30:13Z</time>
      </trkpt>
      <trkpt lat="39.8516270" lon="3.1156970">
        <ele>8.1</ele>
        <time>2021-06-19T13:30:16Z</time>
      </trkpt>
      <trkpt lat="39.8517110" lon="3.1158930">
        <ele>8.2</ele>
        <time>2021-06-19T13:30:19Z</time>
      </trkpt>
      <trkpt lat="39.8517410" lon="3.1159560">
        <ele>8.2</ele>
        <time>2021-06-19T13:30:20Z</time>
      </trkpt>
      <trkpt lat="39.8519060" lon="3.1162560">
        <ele>8.6</ele>
        <time>2021-06-19T13:30:25Z</time>
      </trkpt>
      <trkpt lat="39.8522100" lon="3.1168040">
        <ele>9.2</ele>
        <time>2021-06-19T13:30:34Z</time>
      </trkpt>
      <trkpt lat="39.8524340" lon="3.1171750">
        <ele>9.9</ele>
        <time>2021-06-19T13:30:40Z</time>
      </trkpt>
      <trkpt lat="39.8524990" lon="3.1172990">
        <ele>10.2</ele>
        <time>2021-06-19T13:30:42Z</time>
      </trkpt>
      <trkpt lat="39.8525320" lon="3.1173610">
        <ele>10.3</ele>
        <time>2021-06-19T13:30:43Z</time>
      </trkpt>
      <trkpt lat="39.8526930" lon="3.1176470">
        <ele>11.0</ele>
        <time>2021-06-19T13:30:48Z</time>
      </trkpt>
      <trkpt lat="39.8528470" lon="3.1179370">
        <ele>11.7</ele>
        <time>2021-06-19T13:30:53Z</time>
      </trkpt>
      <trkpt lat="39.8529060" lon="3.1180520">
        <ele>11.9</ele>
        <time>2021-06-19T13:30:55Z</time>
      </trkpt>
      <trkpt lat="39.8529960" lon="3.1182280">
        <ele>12.3</ele>
        <time>2021-06-19T13:30:58Z</time>
      </trkpt>
      <trkpt lat="39.8530550" lon="3.1183460">
        <ele>12.5</ele>
        <time>2021-06-19T13:31:00Z</time>
      </trkpt>
      <trkpt lat="39.8530670" lon="3.1184100">
        <ele>12.6</ele>
        <time>2021-06-19T13:31:01Z</time>
      </trkpt>
      <trkpt lat="39.8530630" lon="3.1184720">
        <ele>12.7</ele>
        <time>2021-06-19T13:31:02Z</time>
      </trkpt>
      <trkpt lat="39.8530190" lon="3.1185810">
        <ele>12.8</ele>
        <time>2021-06-19T13:31:04Z</time>
      </trkpt>
      <trkpt lat="39.8529250" lon="3.1186610">
        <ele>13.0</ele>
        <time>2021-06-19T13:31:06Z</time>
      </trkpt>
      <trkpt lat="39.8528720" lon="3.1186820">
        <ele>13.0</ele>
        <time>2021-06-19T13:31:07Z</time>
      </trkpt>
      <trkpt lat="39.8525570" lon="3.1188220">
        <ele>13.3</ele>
        <time>2021-06-19T13:31:13Z</time>
      </trkpt>
      <trkpt lat="39.8525080" lon="3.1188640">
        <ele>13.3</ele>
        <time>2021-06-19T13:31:14Z</time>
      </trkpt>
      <trkpt lat="39.8524650" lon="3.1189170">
        <ele>13.3</ele>
        <time>2021-06-19T13:31:15Z</time>
      </trkpt>
      <trkpt lat="39.8523910" lon="3.1190370">
        <ele>13.3</ele>
        <time>2021-06-19T13:31:17Z</time>
      </trkpt>
      <trkpt lat="39.8523290" lon="3.1191650">
        <ele>13.4</ele>
        <time>2021-06-19T13:31:19Z</time>
      </trkpt>
      <trkpt lat="39.8521990" lon="3.1194350">
        <ele>13.7</ele>
        <time>2021-06-19T13:31:24Z</time>
      </trkpt>
      <trkpt lat="39.8521690" lon="3.1194820">
        <ele>13.9</ele>
        <time>2021-06-19T13:31:25Z</time>
      </trkpt>
      <trkpt lat="39.8520720" lon="3.1196020">
        <ele>14.2</ele>
        <time>2021-06-19T13:31:28Z</time>
      </trkpt>
      <trkpt lat="39.8520420" lon="3.1196330">
        <ele>14.3</ele>
        <time>2021-06-19T13:31:29Z</time>
      </trkpt>
      <trkpt lat="39.8519410" lon="3.1197150">
        <ele>14.6</ele>
        <time>2021-06-19T13:31:32Z</time>
      </trkpt>
      <trkpt lat="39.8518280" lon="3.1198000">
        <ele>15.1</ele>
        <time>2021-06-19T13:31:35Z</time>
      </trkpt>
      <trkpt lat="39.8517890" lon="3.1198310">
        <ele>15.3</ele>
        <time>2021-06-19T13:31:36Z</time>
      </trkpt>
      <trkpt lat="39.8517460" lon="3.1198600">
        <ele>15.4</ele>
        <time>2021-06-19T13:31:37Z</time>
      </trkpt>
      <trkpt lat="39.8515130" lon="3.1200120">
        <ele>16.2</ele>
        <time>2021-06-19T13:31:42Z</time>
      </trkpt>
      <trkpt lat="39.8513550" lon="3.1201000">
        <ele>16.3</ele>
        <time>2021-06-19T13:31:48Z</time>
      </trkpt>
      <trkpt lat="39.8513540" lon="3.1201050">
        <ele>16.2</ele>
        <time>2021-06-19T13:31:53Z</time>
      </trkpt>
      <trkpt lat="39.8513700" lon="3.1200920">
        <ele>16.2</ele>
        <time>2021-06-19T13:31:56Z</time>
      </trkpt>
      <trkpt lat="39.8513830" lon="3.1200570">
        <ele>16.1</ele>
        <time>2021-06-19T13:31:58Z</time>
      </trkpt>
      <trkpt lat="39.8513930" lon="3.1200250">
        <ele>16.1</ele>
        <time>2021-06-19T13:32:00Z</time>
      </trkpt>
      <trkpt lat="39.8514040" lon="3.1199980">
        <ele>16.0</ele>
        <time>2021-06-19T13:32:02Z</time>
      </trkpt>
      <trkpt lat="39.8514000" lon="3.1199800">
        <ele>16.0</ele>
        <time>2021-06-19T13:32:03Z</time>
      </trkpt>
      <trkpt lat="39.8513750" lon="3.1199150">
        <ele>15.9</ele>
        <time>2021-06-19T13:32:06Z</time>
      </trkpt>
      <trkpt lat="39.8513920" lon="3.1198790">
        <ele>15.8</ele>
        <time>2021-06-19T13:32:08Z</time>
      </trkpt>
      <trkpt lat="39.8514200" lon="3.1198600">
        <ele>15.7</ele>
        <time>2021-06-19T13:32:10Z</time>
      </trkpt>
      <trkpt lat="39.8514590" lon="3.1198140">
        <ele>15.6</ele>
        <time>2021-06-19T13:32:13Z</time>
      </trkpt>
      <trkpt lat="39.8514620" lon="3.1197890">
        <ele>15.5</ele>
        <time>2021-06-19T13:32:14Z</time>
      </trkpt>
      <trkpt lat="39.8514500" lon="3.1197340">
        <ele>15.4</ele>
        <time>2021-06-19T13:32:20Z</time>
      </trkpt>
      <trkpt lat="39.8514530" lon="3.1197310">
        <ele>15.4</ele>
        <time>2021-06-19T13:32:28Z</time>
      </trkpt>
      <trkpt lat="39.8514550" lon="3.1197280">
        <ele>15.4</ele>
        <time>2021-06-19T13:32:32Z</time>
      </trkpt>
      <trkpt lat="39.8514460" lon="3.1197030">
        <ele>15.3</ele>
        <time>2021-06-19T13:32:33Z</time>
      </trkpt>
      <trkpt lat="39.8514360" lon="3.1196770">
        <ele>15.2</ele>
        <time>2021-06-19T13:32:34Z</time>
      </trkpt>
      <trkpt lat="39.8513270" lon="3.1195210">
        <ele>14.7</ele>
        <time>2021-06-19T13:32:38Z</time>
      </trkpt>
      <trkpt lat="39.8512230" lon="3.1194560">
        <ele>14.5</ele>
        <time>2021-06-19T13:32:40Z</time>
      </trkpt>
      <trkpt lat="39.8511220" lon="3.1194330">
        <ele>14.2</ele>
        <time>2021-06-19T13:32:42Z</time>
      </trkpt>
      <trkpt lat="39.8509980" lon="3.1194560">
        <ele>13.8</ele>
        <time>2021-06-19T13:32:44Z</time>
      </trkpt>
      <trkpt lat="39.8508790" lon="3.1195330">
        <ele>13.4</ele>
        <time>2021-06-19T13:32:46Z</time>
      </trkpt>
      <trkpt lat="39.8505660" lon="3.1198060">
        <ele>12.4</ele>
        <time>2021-06-19T13:32:51Z</time>
      </trkpt>
      <trkpt lat="39.8503710" lon="3.1199770">
        <ele>12.1</ele>
        <time>2021-06-19T13:32:54Z</time>
      </trkpt>
      <trkpt lat="39.8499210" lon="3.1203780">
        <ele>12.1</ele>
        <time>2021-06-19T13:33:01Z</time>
      </trkpt>
      <trkpt lat="39.8496260" lon="3.1206190">
        <ele>12.3</ele>
        <time>2021-06-19T13:33:06Z</time>
      </trkpt>
      <trkpt lat="39.8492250" lon="3.1209360">
        <ele>12.5</ele>
        <time>2021-06-19T13:33:13Z</time>
      </trkpt>
      <trkpt lat="39.8487730" lon="3.1212130">
        <ele>12.8</ele>
        <time>2021-06-19T13:33:21Z</time>
      </trkpt>
      <trkpt lat="39.8485400" lon="3.1213510">
        <ele>12.9</ele>
        <time>2021-06-19T13:33:25Z</time>
      </trkpt>
      <trkpt lat="39.8481820" lon="3.1215850">
        <ele>12.9</ele>
        <time>2021-06-19T13:33:30Z</time>
      </trkpt>
      <trkpt lat="39.8480720" lon="3.1216580">
        <ele>12.8</ele>
        <time>2021-06-19T13:33:33Z</time>
      </trkpt>
      <trkpt lat="39.8477280" lon="3.1219070">
        <ele>12.1</ele>
        <time>2021-06-19T13:33:39Z</time>
      </trkpt>
      <trkpt lat="39.8476090" lon="3.1220160">
        <ele>11.7</ele>
        <time>2021-06-19T13:33:41Z</time>
      </trkpt>
      <trkpt lat="39.8475200" lon="3.1221430">
        <ele>11.3</ele>
        <time>2021-06-19T13:33:43Z</time>
      </trkpt>
      <trkpt lat="39.8474850" lon="3.1222160">
        <ele>11.2</ele>
        <time>2021-06-19T13:33:44Z</time>
      </trkpt>
      <trkpt lat="39.8473340" lon="3.1226540">
        <ele>9.4</ele>
        <time>2021-06-19T13:33:49Z</time>
      </trkpt>
      <trkpt lat="39.8471240" lon="3.1229890">
        <ele>8.1</ele>
        <time>2021-06-19T13:33:53Z</time>
      </trkpt>
      <trkpt lat="39.8467200" lon="3.1235640">
        <ele>5.5</ele>
        <time>2021-06-19T13:34:00Z</time>
      </trkpt>
      <trkpt lat="39.8466590" lon="3.1236500">
        <ele>5.2</ele>
        <time>2021-06-19T13:34:01Z</time>
      </trkpt>
      <trkpt lat="39.8465440" lon="3.1238200">
        <ele>4.6</ele>
        <time>2021-06-19T13:34:03Z</time>
      </trkpt>
      <trkpt lat="39.8464320" lon="3.1239740">
        <ele>4.2</ele>
        <time>2021-06-19T13:34:05Z</time>
      </trkpt>
      <trkpt lat="39.8463310" lon="3.1241170">
        <ele>4.0</ele>
        <time>2021-06-19T13:34:07Z</time>
      </trkpt>
      <trkpt lat="39.8462880" lon="3.1241850">
        <ele>3.9</ele>
        <time>2021-06-19T13:34:08Z</time>
      </trkpt>
      <trkpt lat="39.8462450" lon="3.1242420">
        <ele>3.8</ele>
        <time>2021-06-19T13:34:09Z</time>
      </trkpt>
      <trkpt lat="39.8461370" lon="3.1243220">
        <ele>3.7</ele>
        <time>2021-06-19T13:34:11Z</time>
      </trkpt>
      <trkpt lat="39.8459550" lon="3.1243710">
        <ele>3.5</ele>
        <time>2021-06-19T13:34:14Z</time>
      </trkpt>
      <trkpt lat="39.8458320" lon="3.1244330">
        <ele>3.5</ele>
        <time>2021-06-19T13:34:16Z</time>
      </trkpt>
      <trkpt lat="39.8457630" lon="3.1244650">
        <ele>3.5</ele>
        <time>2021-06-19T13:34:17Z</time>
      </trkpt>
      <trkpt lat="39.8456210" lon="3.1244720">
        <ele>3.3</ele>
        <time>2021-06-19T13:34:19Z</time>
      </trkpt>
      <trkpt lat="39.8454130" lon="3.1243570">
        <ele>3.3</ele>
        <time>2021-06-19T13:34:22Z</time>
      </trkpt>
      <trkpt lat="39.8453450" lon="3.1243160">
        <ele>3.3</ele>
        <time>2021-06-19T13:34:23Z</time>
      </trkpt>
      <trkpt lat="39.8452810" lon="3.1242730">
        <ele>3.3</ele>
        <time>2021-06-19T13:34:24Z</time>
      </trkpt>
      <trkpt lat="39.8450270" lon="3.1241160">
        <ele>3.2</ele>
        <time>2021-06-19T13:34:28Z</time>
      </trkpt>
      <trkpt lat="39.8447720" lon="3.1239570">
        <ele>3.1</ele>
        <time>2021-06-19T13:34:32Z</time>
      </trkpt>
      <trkpt lat="39.8443220" lon="3.1236770">
        <ele>3.1</ele>
        <time>2021-06-19T13:34:39Z</time>
      </trkpt>
      <trkpt lat="39.8441930" lon="3.1235970">
        <ele>3.1</ele>
        <time>2021-06-19T13:34:41Z</time>
      </trkpt>
      <trkpt lat="39.8437370" lon="3.1233250">
        <ele>3.2</ele>
        <time>2021-06-19T13:34:48Z</time>
      </trkpt>
      <trkpt lat="39.8434250" lon="3.1231090">
        <ele>3.2</ele>
        <time>2021-06-19T13:34:53Z</time>
      </trkpt>
      <trkpt lat="39.8430200" lon="3.1228720">
        <ele>3.2</ele>
        <time>2021-06-19T13:34:59Z</time>
      </trkpt>
      <trkpt lat="39.8428860" lon="3.1227960">
        <ele>3.2</ele>
        <time>2021-06-19T13:35:01Z</time>
      </trkpt>
      <trkpt lat="39.8426840" lon="3.1226750">
        <ele>3.3</ele>
        <time>2021-06-19T13:35:04Z</time>
      </trkpt>
      <trkpt lat="39.8422810" lon="3.1224310">
        <ele>3.5</ele>
        <time>2021-06-19T13:35:10Z</time>
      </trkpt>
      <trkpt lat="39.8420010" lon="3.1222730">
        <ele>3.7</ele>
        <time>2021-06-19T13:35:14Z</time>
      </trkpt>
      <trkpt lat="39.8417950" lon="3.1221450">
        <ele>3.7</ele>
        <time>2021-06-19T13:35:17Z</time>
      </trkpt>
      <trkpt lat="39.8416590" lon="3.1220550">
        <ele>3.8</ele>
        <time>2021-06-19T13:35:19Z</time>
      </trkpt>
      <trkpt lat="39.8411140" lon="3.1217380">
        <ele>4.0</ele>
        <time>2021-06-19T13:35:27Z</time>
      </trkpt>
      <trkpt lat="39.8409800" lon="3.1216590">
        <ele>4.0</ele>
        <time>2021-06-19T13:35:29Z</time>
      </trkpt>
      <trkpt lat="39.8405050" lon="3.1213750">
        <ele>4.0</ele>
        <time>2021-06-19T13:35:36Z</time>
      </trkpt>
      <trkpt lat="39.8400680" lon="3.1211230">
        <ele>3.8</ele>
        <time>2021-06-19T13:35:43Z</time>
      </trkpt>
      <trkpt lat="39.8399650" lon="3.1210530">
        <ele>3.8</ele>
        <time>2021-06-19T13:35:45Z</time>
      </trkpt>
      <trkpt lat="39.8398630" lon="3.1209820">
        <ele>3.7</ele>
        <time>2021-06-19T13:35:47Z</time>
      </trkpt>
      <trkpt lat="39.8397440" lon="3.1209460">
        <ele>3.6</ele>
        <time>2021-06-19T13:35:49Z</time>
      </trkpt>
      <trkpt lat="39.8395440" lon="3.1209170">
        <ele>3.7</ele>
        <time>2021-06-19T13:35:52Z</time>
      </trkpt>
      <trkpt lat="39.8394190" lon="3.1208380">
        <ele>3.7</ele>
        <time>2021-06-19T13:35:54Z</time>
      </trkpt>
      <trkpt lat="39.8393600" lon="3.1207840">
        <ele>3.7</ele>
        <time>2021-06-19T13:35:55Z</time>
      </trkpt>
      <trkpt lat="39.8391210" lon="3.1205790">
        <ele>3.6</ele>
        <time>2021-06-19T13:35:59Z</time>
      </trkpt>
      <trkpt lat="39.8389330" lon="3.1204470">
        <ele>3.6</ele>
        <time>2021-06-19T13:36:02Z</time>
      </trkpt>
      <trkpt lat="39.8385940" lon="3.1202470">
        <ele>3.5</ele>
        <time>2021-06-19T13:36:07Z</time>
      </trkpt>
      <trkpt lat="39.8384560" lon="3.1201710">
        <ele>3.5</ele>
        <time>2021-06-19T13:36:09Z</time>
      </trkpt>
      <trkpt lat="39.8379130" lon="3.1198470">
        <ele>3.4</ele>
        <time>2021-06-19T13:36:17Z</time>
      </trkpt>
      <trkpt lat="39.8378450" lon="3.1198070">
        <ele>3.4</ele>
        <time>2021-06-19T13:36:18Z</time>
      </trkpt>
      <trkpt lat="39.8373030" lon="3.1194850">
        <ele>3.8</ele>
        <time>2021-06-19T13:36:26Z</time>
      </trkpt>
      <trkpt lat="39.8372390" lon="3.1194440">
        <ele>3.8</ele>
        <time>2021-06-19T13:36:27Z</time>
      </trkpt>
      <trkpt lat="39.8367870" lon="3.1191550">
        <ele>3.7</ele>
        <time>2021-06-19T13:36:34Z</time>
      </trkpt>
      <trkpt lat="39.8362360" lon="3.1188150">
        <ele>3.6</ele>
        <time>2021-06-19T13:36:42Z</time>
      </trkpt>
      <trkpt lat="39.8360960" lon="3.1187360">
        <ele>3.6</ele>
        <time>2021-06-19T13:36:44Z</time>
      </trkpt>
      <trkpt lat="39.8355500" lon="3.1183810">
        <ele>3.5</ele>
        <time>2021-06-19T13:36:52Z</time>
      </trkpt>
      <trkpt lat="39.8354790" lon="3.1183440">
        <ele>3.5</ele>
        <time>2021-06-19T13:36:53Z</time>
      </trkpt>
      <trkpt lat="39.8349110" lon="3.1180440">
        <ele>3.6</ele>
        <time>2021-06-19T13:37:01Z</time>
      </trkpt>
      <trkpt lat="39.8343850" lon="3.1178610">
        <ele>3.8</ele>
        <time>2021-06-19T13:37:08Z</time>
      </trkpt>
      <trkpt lat="39.8341610" lon="3.1177820">
        <ele>3.8</ele>
        <time>2021-06-19T13:37:11Z</time>
      </trkpt>
      <trkpt lat="39.8336360" lon="3.1175840">
        <ele>4.0</ele>
        <time>2021-06-19T13:37:18Z</time>
      </trkpt>
      <trkpt lat="39.8330930" lon="3.1174280">
        <ele>3.9</ele>
        <time>2021-06-19T13:37:25Z</time>
      </trkpt>
      <trkpt lat="39.8328660" lon="3.1173600">
        <ele>3.8</ele>
        <time>2021-06-19T13:37:28Z</time>
      </trkpt>
      <trkpt lat="39.8323340" lon="3.1171740">
        <ele>3.7</ele>
        <time>2021-06-19T13:37:35Z</time>
      </trkpt>
      <trkpt lat="39.8321950" lon="3.1171320">
        <ele>3.8</ele>
        <time>2021-06-19T13:37:37Z</time>
      </trkpt>
      <trkpt lat="39.8320040" lon="3.1170660">
        <ele>3.8</ele>
        <time>2021-06-19T13:37:40Z</time>
      </trkpt>
      <trkpt lat="39.8318830" lon="3.1170210">
        <ele>3.9</ele>
        <time>2021-06-19T13:37:42Z</time>
      </trkpt>
      <trkpt lat="39.8318230" lon="3.1169960">
        <ele>3.9</ele>
        <time>2021-06-19T13:37:43Z</time>
      </trkpt>
      <trkpt lat="39.8317650" lon="3.1169650">
        <ele>3.9</ele>
        <time>2021-06-19T13:37:44Z</time>
      </trkpt>
      <trkpt lat="39.8316490" lon="3.1169110">
        <ele>3.8</ele>
        <time>2021-06-19T13:37:46Z</time>
      </trkpt>
      <trkpt lat="39.8315900" lon="3.1169040">
        <ele>3.8</ele>
        <time>2021-06-19T13:37:47Z</time>
      </trkpt>
      <trkpt lat="39.8315320" lon="3.1168990">
        <ele>3.8</ele>
        <time>2021-06-19T13:37:48Z</time>
      </trkpt>
      <trkpt lat="39.8312640" lon="3.1168370">
        <ele>3.6</ele>
        <time>2021-06-19T13:37:52Z</time>
      </trkpt>
      <trkpt lat="39.8308940" lon="3.1167180">
        <ele>3.3</ele>
        <time>2021-06-19T13:37:57Z</time>
      </trkpt>
      <trkpt lat="39.8307420" lon="3.1166730">
        <ele>3.3</ele>
        <time>2021-06-19T13:37:59Z</time>
      </trkpt>
      <trkpt lat="39.8304380" lon="3.1165690">
        <ele>3.2</ele>
        <time>2021-06-19T13:38:02Z</time>
      </trkpt>
      <trkpt lat="39.8300390" lon="3.1164350">
        <ele>3.2</ele>
        <time>2021-06-19T13:38:08Z</time>
      </trkpt>
      <trkpt lat="39.8294580" lon="3.1162370">
        <ele>3.2</ele>
        <time>2021-06-19T13:38:15Z</time>
      </trkpt>
      <trkpt lat="39.8292890" lon="3.1161800">
        <ele>3.2</ele>
        <time>2021-06-19T13:38:17Z</time>
      </trkpt>
      <trkpt lat="39.8286980" lon="3.1159850">
        <ele>3.3</ele>
        <time>2021-06-19T13:38:24Z</time>
      </trkpt>
      <trkpt lat="39.8286120" lon="3.1159600">
        <ele>3.4</ele>
        <time>2021-06-19T13:38:25Z</time>
      </trkpt>
      <trkpt lat="39.8281250" lon="3.1158340">
        <ele>3.6</ele>
        <time>2021-06-19T13:38:31Z</time>
      </trkpt>
      <trkpt lat="39.8275760" lon="3.1157570">
        <ele>3.6</ele>
        <time>2021-06-19T13:38:37Z</time>
      </trkpt>
      <trkpt lat="39.8273090" lon="3.1157070">
        <ele>3.7</ele>
        <time>2021-06-19T13:38:40Z</time>
      </trkpt>
      <trkpt lat="39.8267110" lon="3.1155900">
        <ele>3.7</ele>
        <time>2021-06-19T13:38:47Z</time>
      </trkpt>
      <trkpt lat="39.8263740" lon="3.1155180">
        <ele>3.7</ele>
        <time>2021-06-19T13:38:51Z</time>
      </trkpt>
      <trkpt lat="39.8257830" lon="3.1154060">
        <ele>3.5</ele>
        <time>2021-06-19T13:38:58Z</time>
      </trkpt>
      <trkpt lat="39.8256140" lon="3.1153780">
        <ele>3.4</ele>
        <time>2021-06-19T13:39:00Z</time>
      </trkpt>
      <trkpt lat="39.8250400" lon="3.1152710">
        <ele>3.3</ele>
        <time>2021-06-19T13:39:07Z</time>
      </trkpt>
      <trkpt lat="39.8249580" lon="3.1152530">
        <ele>3.4</ele>
        <time>2021-06-19T13:39:08Z</time>
      </trkpt>
      <trkpt lat="39.8243820" lon="3.1151460">
        <ele>3.5</ele>
        <time>2021-06-19T13:39:15Z</time>
      </trkpt>
      <trkpt lat="39.8242990" lon="3.1151320">
        <ele>3.5</ele>
        <time>2021-06-19T13:39:16Z</time>
      </trkpt>
      <trkpt lat="39.8237180" lon="3.1150390">
        <ele>3.6</ele>
        <time>2021-06-19T13:39:23Z</time>
      </trkpt>
      <trkpt lat="39.8233840" lon="3.1149860">
        <ele>3.7</ele>
        <time>2021-06-19T13:39:27Z</time>
      </trkpt>
      <trkpt lat="39.8228010" lon="3.1148610">
        <ele>3.7</ele>
        <time>2021-06-19T13:39:34Z</time>
      </trkpt>
      <trkpt lat="39.8227160" lon="3.1148460">
        <ele>3.6</ele>
        <time>2021-06-19T13:39:35Z</time>
      </trkpt>
      <trkpt lat="39.8221200" lon="3.1147450">
        <ele>3.7</ele>
        <time>2021-06-19T13:39:42Z</time>
      </trkpt>
      <trkpt lat="39.8219530" lon="3.1147190">
        <ele>3.8</ele>
        <time>2021-06-19T13:39:44Z</time>
      </trkpt>
      <trkpt lat="39.8213690" lon="3.1146080">
        <ele>4.0</ele>
        <time>2021-06-19T13:39:51Z</time>
      </trkpt>
      <trkpt lat="39.8208680" lon="3.1144980">
        <ele>4.1</ele>
        <time>2021-06-19T13:39:57Z</time>
      </trkpt>
      <trkpt lat="39.8202920" lon="3.1143920">
        <ele>4.0</ele>
        <time>2021-06-19T13:40:04Z</time>
      </trkpt>
      <trkpt lat="39.8202120" lon="3.1143800">
        <ele>4.0</ele>
        <time>2021-06-19T13:40:05Z</time>
      </trkpt>
      <trkpt lat="39.8196510" lon="3.1142760">
        <ele>3.9</ele>
        <time>2021-06-19T13:40:12Z</time>
      </trkpt>
      <trkpt lat="39.8191710" lon="3.1141820">
        <ele>3.9</ele>
        <time>2021-06-19T13:40:18Z</time>
      </trkpt>
      <trkpt lat="39.8186210" lon="3.1140890">
        <ele>3.8</ele>
        <time>2021-06-19T13:40:25Z</time>
      </trkpt>
      <trkpt lat="39.8185430" lon="3.1140770">
        <ele>3.8</ele>
        <time>2021-06-19T13:40:26Z</time>
      </trkpt>
      <trkpt lat="39.8179340" lon="3.1139690">
        <ele>4.0</ele>
        <time>2021-06-19T13:40:34Z</time>
      </trkpt>
      <trkpt lat="39.8177750" lon="3.1139390">
        <ele>3.9</ele>
        <time>2021-06-19T13:40:36Z</time>
      </trkpt>
      <trkpt lat="39.8172700" lon="3.1138570">
        <ele>4.0</ele>
        <time>2021-06-19T13:40:42Z</time>
      </trkpt>
      <trkpt lat="39.8167000" lon="3.1138030">
        <ele>4.2</ele>
        <time>2021-06-19T13:40:49Z</time>
      </trkpt>
      <trkpt lat="39.8161340" lon="3.1138950">
        <ele>4.2</ele>
        <time>2021-06-19T13:40:56Z</time>
      </trkpt>
      <trkpt lat="39.8160490" lon="3.1139200">
        <ele>4.3</ele>
        <time>2021-06-19T13:40:57Z</time>
      </trkpt>
      <trkpt lat="39.8154760" lon="3.1141030">
        <ele>4.6</ele>
        <time>2021-06-19T13:41:04Z</time>
      </trkpt>
      <trkpt lat="39.8152470" lon="3.1141500">
        <ele>4.9</ele>
        <time>2021-06-19T13:41:07Z</time>
      </trkpt>
      <trkpt lat="39.8151770" lon="3.1141540">
        <ele>4.8</ele>
        <time>2021-06-19T13:41:08Z</time>
      </trkpt>
      <trkpt lat="39.8151100" lon="3.1141610">
        <ele>4.7</ele>
        <time>2021-06-19T13:41:09Z</time>
      </trkpt>
      <trkpt lat="39.8149950" lon="3.1142220">
        <ele>4.8</ele>
        <time>2021-06-19T13:41:11Z</time>
      </trkpt>
      <trkpt lat="39.8148880" lon="3.1142860">
        <ele>4.7</ele>
        <time>2021-06-19T13:41:13Z</time>
      </trkpt>
      <trkpt lat="39.8146260" lon="3.1144030">
        <ele>4.7</ele>
        <time>2021-06-19T13:41:17Z</time>
      </trkpt>
      <trkpt lat="39.8142330" lon="3.1145190">
        <ele>4.8</ele>
        <time>2021-06-19T13:41:23Z</time>
      </trkpt>
      <trkpt lat="39.8139790" lon="3.1146070">
        <ele>4.8</ele>
        <time>2021-06-19T13:41:28Z</time>
      </trkpt>
      <trkpt lat="39.8139340" lon="3.1146230">
        <ele>4.8</ele>
        <time>2021-06-19T13:41:29Z</time>
      </trkpt>
      <trkpt lat="39.8136010" lon="3.1147360">
        <ele>4.9</ele>
        <time>2021-06-19T13:41:36Z</time>
      </trkpt>
      <trkpt lat="39.8135520" lon="3.1147500">
        <ele>4.9</ele>
        <time>2021-06-19T13:41:37Z</time>
      </trkpt>
      <trkpt lat="39.8133830" lon="3.1148000">
        <ele>5.0</ele>
        <time>2021-06-19T13:41:42Z</time>
      </trkpt>
      <trkpt lat="39.8133240" lon="3.1148150">
        <ele>5.0</ele>
        <time>2021-06-19T13:41:45Z</time>
      </trkpt>
      <trkpt lat="39.8132730" lon="3.1148120">
        <ele>5.0</ele>
        <time>2021-06-19T13:41:47Z</time>
      </trkpt>
      <trkpt lat="39.8132390" lon="3.1148130">
        <ele>5.0</ele>
        <time>2021-06-19T13:41:48Z</time>
      </trkpt>
      <trkpt lat="39.8131600" lon="3.1148420">
        <ele>5.0</ele>
        <time>2021-06-19T13:41:50Z</time>
      </trkpt>
      <trkpt lat="39.8130660" lon="3.1148940">
        <ele>5.0</ele>
        <time>2021-06-19T13:41:52Z</time>
      </trkpt>
      <trkpt lat="39.8129980" lon="3.1149250">
        <ele>4.9</ele>
        <time>2021-06-19T13:41:53Z</time>
      </trkpt>
      <trkpt lat="39.8127590" lon="3.1150050">
        <ele>4.9</ele>
        <time>2021-06-19T13:41:57Z</time>
      </trkpt>
      <trkpt lat="39.8124970" lon="3.1150880">
        <ele>4.9</ele>
        <time>2021-06-19T13:42:01Z</time>
      </trkpt>
      <trkpt lat="39.8124280" lon="3.1151100">
        <ele>4.9</ele>
        <time>2021-06-19T13:42:02Z</time>
      </trkpt>
      <trkpt lat="39.8122870" lon="3.1151600">
        <ele>4.9</ele>
        <time>2021-06-19T13:42:04Z</time>
      </trkpt>
      <trkpt lat="39.8122140" lon="3.1151840">
        <ele>4.9</ele>
        <time>2021-06-19T13:42:05Z</time>
      </trkpt>
      <trkpt lat="39.8119940" lon="3.1152540">
        <ele>4.9</ele>
        <time>2021-06-19T13:42:08Z</time>
      </trkpt>
      <trkpt lat="39.8117680" lon="3.1153320">
        <ele>5.0</ele>
        <time>2021-06-19T13:42:11Z</time>
      </trkpt>
      <trkpt lat="39.8111770" lon="3.1155140">
        <ele>5.0</ele>
        <time>2021-06-19T13:42:19Z</time>
      </trkpt>
      <trkpt lat="39.8105840" lon="3.1157160">
        <ele>5.0</ele>
        <time>2021-06-19T13:42:27Z</time>
      </trkpt>
      <trkpt lat="39.8103560" lon="3.1157910">
        <ele>5.0</ele>
        <time>2021-06-19T13:42:30Z</time>
      </trkpt>
      <trkpt lat="39.8099030" lon="3.1159130">
        <ele>4.9</ele>
        <time>2021-06-19T13:42:36Z</time>
      </trkpt>
      <trkpt lat="39.8093800" lon="3.1160980">
        <ele>4.8</ele>
        <time>2021-06-19T13:42:43Z</time>
      </trkpt>
      <trkpt lat="39.8093050" lon="3.1161210">
        <ele>4.8</ele>
        <time>2021-06-19T13:42:44Z</time>
      </trkpt>
      <trkpt lat="39.8087060" lon="3.1163050">
        <ele>5.0</ele>
        <time>2021-06-19T13:42:52Z</time>
      </trkpt>
      <trkpt lat="39.8085610" lon="3.1163410">
        <ele>5.0</ele>
        <time>2021-06-19T13:42:54Z</time>
      </trkpt>
      <trkpt lat="39.8081850" lon="3.1164600">
        <ele>4.9</ele>
        <time>2021-06-19T13:43:00Z</time>
      </trkpt>
      <trkpt lat="39.8078970" lon="3.1165630">
        <ele>4.9</ele>
        <time>2021-06-19T13:43:05Z</time>
      </trkpt>
      <trkpt lat="39.8077090" lon="3.1166290">
        <ele>4.9</ele>
        <time>2021-06-19T13:43:08Z</time>
      </trkpt>
      <trkpt lat="39.8076470" lon="3.1166510">
        <ele>4.9</ele>
        <time>2021-06-19T13:43:09Z</time>
      </trkpt>
      <trkpt lat="39.8072860" lon="3.1167960">
        <ele>4.9</ele>
        <time>2021-06-19T13:43:15Z</time>
      </trkpt>
      <trkpt lat="39.8069190" lon="3.1168930">
        <ele>4.9</ele>
        <time>2021-06-19T13:43:20Z</time>
      </trkpt>
      <trkpt lat="39.8068470" lon="3.1169140">
        <ele>4.9</ele>
        <time>2021-06-19T13:43:21Z</time>
      </trkpt>
      <trkpt lat="39.8065580" lon="3.1170010">
        <ele>5.0</ele>
        <time>2021-06-19T13:43:25Z</time>
      </trkpt>
      <trkpt lat="39.8063460" lon="3.1170700">
        <ele>5.1</ele>
        <time>2021-06-19T13:43:28Z</time>
      </trkpt>
      <trkpt lat="39.8057760" lon="3.1172520">
        <ele>5.1</ele>
        <time>2021-06-19T13:43:36Z</time>
      </trkpt>
      <trkpt lat="39.8056440" lon="3.1172990">
        <ele>5.0</ele>
        <time>2021-06-19T13:43:38Z</time>
      </trkpt>
      <trkpt lat="39.8054490" lon="3.1173700">
        <ele>4.9</ele>
        <time>2021-06-19T13:43:41Z</time>
      </trkpt>
      <trkpt lat="39.8051450" lon="3.1174590">
        <ele>4.8</ele>
        <time>2021-06-19T13:43:45Z</time>
      </trkpt>
      <trkpt lat="39.8045780" lon="3.1176290">
        <ele>4.9</ele>
        <time>2021-06-19T13:43:53Z</time>
      </trkpt>
      <trkpt lat="39.8043750" lon="3.1176590">
        <ele>4.9</ele>
        <time>2021-06-19T13:43:56Z</time>
      </trkpt>
      <trkpt lat="39.8042460" lon="3.1176440">
        <ele>4.9</ele>
        <time>2021-06-19T13:43:58Z</time>
      </trkpt>
      <trkpt lat="39.8041790" lon="3.1176440">
        <ele>4.9</ele>
        <time>2021-06-19T13:43:59Z</time>
      </trkpt>
      <trkpt lat="39.8040610" lon="3.1176900">
        <ele>4.9</ele>
        <time>2021-06-19T13:44:01Z</time>
      </trkpt>
      <trkpt lat="39.8039630" lon="3.1177900">
        <ele>5.0</ele>
        <time>2021-06-19T13:44:03Z</time>
      </trkpt>
      <trkpt lat="39.8038420" lon="3.1178660">
        <ele>4.9</ele>
        <time>2021-06-19T13:44:05Z</time>
      </trkpt>
      <trkpt lat="39.8034560" lon="3.1180050">
        <ele>4.9</ele>
        <time>2021-06-19T13:44:11Z</time>
      </trkpt>
      <trkpt lat="39.8031480" lon="3.1180980">
        <ele>4.9</ele>
        <time>2021-06-19T13:44:15Z</time>
      </trkpt>
      <trkpt lat="39.8029930" lon="3.1181470">
        <ele>4.9</ele>
        <time>2021-06-19T13:44:17Z</time>
      </trkpt>
      <trkpt lat="39.8024240" lon="3.1183090">
        <ele>5.0</ele>
        <time>2021-06-19T13:44:24Z</time>
      </trkpt>
      <trkpt lat="39.8023420" lon="3.1183320">
        <ele>5.1</ele>
        <time>2021-06-19T13:44:25Z</time>
      </trkpt>
      <trkpt lat="39.8017530" lon="3.1185350">
        <ele>5.2</ele>
        <time>2021-06-19T13:44:32Z</time>
      </trkpt>
      <trkpt lat="39.8016690" lon="3.1185770">
        <ele>5.3</ele>
        <time>2021-06-19T13:44:33Z</time>
      </trkpt>
      <trkpt lat="39.8010910" lon="3.1188070">
        <ele>5.4</ele>
        <time>2021-06-19T13:44:40Z</time>
      </trkpt>
      <trkpt lat="39.8010020" lon="3.1188330">
        <ele>5.4</ele>
        <time>2021-06-19T13:44:41Z</time>
      </trkpt>
      <trkpt lat="39.8003990" lon="3.1190210">
        <ele>5.1</ele>
        <time>2021-06-19T13:44:48Z</time>
      </trkpt>
      <trkpt lat="39.8000570" lon="3.1191330">
        <ele>4.7</ele>
        <time>2021-06-19T13:44:52Z</time>
      </trkpt>
      <trkpt lat="39.7998900" lon="3.1191870">
        <ele>4.5</ele>
        <time>2021-06-19T13:44:54Z</time>
      </trkpt>
      <trkpt lat="39.7996220" lon="3.1192640">
        <ele>4.4</ele>
        <time>2021-06-19T13:44:58Z</time>
      </trkpt>
      <trkpt lat="39.7993220" lon="3.1193120">
        <ele>4.3</ele>
        <time>2021-06-19T13:45:04Z</time>
      </trkpt>
      <trkpt lat="39.7992690" lon="3.1193150">
        <ele>4.2</ele>
        <time>2021-06-19T13:45:05Z</time>
      </trkpt>
      <trkpt lat="39.7991630" lon="3.1193100">
        <ele>4.1</ele>
        <time>2021-06-19T13:45:07Z</time>
      </trkpt>
      <trkpt lat="39.7990620" lon="3.1193560">
        <ele>4.0</ele>
        <time>2021-06-19T13:45:09Z</time>
      </trkpt>
      <trkpt lat="39.7988230" lon="3.1195020">
        <ele>4.0</ele>
        <time>2021-06-19T13:45:13Z</time>
      </trkpt>
      <trkpt lat="39.7983170" lon="3.1196660">
        <ele>3.8</ele>
        <time>2021-06-19T13:45:20Z</time>
      </trkpt>
      <trkpt lat="39.7977730" lon="3.1198380">
        <ele>3.7</ele>
        <time>2021-06-19T13:45:27Z</time>
      </trkpt>
      <trkpt lat="39.7972170" lon="3.1200080">
        <ele>3.8</ele>
        <time>2021-06-19T13:45:34Z</time>
      </trkpt>
      <trkpt lat="39.7969050" lon="3.1201140">
        <ele>3.9</ele>
        <time>2021-06-19T13:45:38Z</time>
      </trkpt>
      <trkpt lat="39.7963730" lon="3.1202860">
        <ele>3.9</ele>
        <time>2021-06-19T13:45:45Z</time>
      </trkpt>
      <trkpt lat="39.7958330" lon="3.1204500">
        <ele>4.0</ele>
        <time>2021-06-19T13:45:52Z</time>
      </trkpt>
      <trkpt lat="39.7955350" lon="3.1205480">
        <ele>3.9</ele>
        <time>2021-06-19T13:45:56Z</time>
      </trkpt>
      <trkpt lat="39.7950880" lon="3.1206840">
        <ele>3.7</ele>
        <time>2021-06-19T13:46:02Z</time>
      </trkpt>
      <trkpt lat="39.7950140" lon="3.1207080">
        <ele>3.7</ele>
        <time>2021-06-19T13:46:03Z</time>
      </trkpt>
      <trkpt lat="39.7946610" lon="3.1208550">
        <ele>3.7</ele>
        <time>2021-06-19T13:46:08Z</time>
      </trkpt>
      <trkpt lat="39.7945870" lon="3.1208940">
        <ele>3.7</ele>
        <time>2021-06-19T13:46:09Z</time>
      </trkpt>
      <trkpt lat="39.7940810" lon="3.1211860">
        <ele>3.8</ele>
        <time>2021-06-19T13:46:16Z</time>
      </trkpt>
      <trkpt lat="39.7939420" lon="3.1212760">
        <ele>3.8</ele>
        <time>2021-06-19T13:46:18Z</time>
      </trkpt>
      <trkpt lat="39.7937290" lon="3.1214060">
        <ele>3.9</ele>
        <time>2021-06-19T13:46:21Z</time>
      </trkpt>
      <trkpt lat="39.7932310" lon="3.1217120">
        <ele>4.1</ele>
        <time>2021-06-19T13:46:28Z</time>
      </trkpt>
      <trkpt lat="39.7931600" lon="3.1217560">
        <ele>4.1</ele>
        <time>2021-06-19T13:46:29Z</time>
      </trkpt>
      <trkpt lat="39.7926170" lon="3.1220850">
        <ele>4.2</ele>
        <time>2021-06-19T13:46:37Z</time>
      </trkpt>
      <trkpt lat="39.7924890" lon="3.1221670">
        <ele>4.3</ele>
        <time>2021-06-19T13:46:39Z</time>
      </trkpt>
      <trkpt lat="39.7923770" lon="3.1222500">
        <ele>4.3</ele>
        <time>2021-06-19T13:46:41Z</time>
      </trkpt>
      <trkpt lat="39.7922660" lon="3.1223250">
        <ele>4.3</ele>
        <time>2021-06-19T13:46:43Z</time>
      </trkpt>
      <trkpt lat="39.7921590" lon="3.1223980">
        <ele>4.3</ele>
        <time>2021-06-19T13:46:45Z</time>
      </trkpt>
      <trkpt lat="39.7919190" lon="3.1225560">
        <ele>4.2</ele>
        <time>2021-06-19T13:46:50Z</time>
      </trkpt>
      <trkpt lat="39.7915640" lon="3.1227300">
        <ele>4.4</ele>
        <time>2021-06-19T13:46:56Z</time>
      </trkpt>
      <trkpt lat="39.7912560" lon="3.1229460">
        <ele>4.5</ele>
        <time>2021-06-19T13:47:01Z</time>
      </trkpt>
      <trkpt lat="39.7911220" lon="3.1230490">
        <ele>4.5</ele>
        <time>2021-06-19T13:47:03Z</time>
      </trkpt>
      <trkpt lat="39.7909160" lon="3.1232020">
        <ele>4.4</ele>
        <time>2021-06-19T13:47:06Z</time>
      </trkpt>
      <trkpt lat="39.7907780" lon="3.1233040">
        <ele>4.4</ele>
        <time>2021-06-19T13:47:08Z</time>
      </trkpt>
      <trkpt lat="39.7907100" lon="3.1233550">
        <ele>4.4</ele>
        <time>2021-06-19T13:47:09Z</time>
      </trkpt>
      <trkpt lat="39.7906420" lon="3.1234080">
        <ele>4.4</ele>
        <time>2021-06-19T13:47:10Z</time>
      </trkpt>
      <trkpt lat="39.7905040" lon="3.1235100">
        <ele>4.5</ele>
        <time>2021-06-19T13:47:12Z</time>
      </trkpt>
      <trkpt lat="39.7902920" lon="3.1236730">
        <ele>4.5</ele>
        <time>2021-06-19T13:47:15Z</time>
      </trkpt>
      <trkpt lat="39.7900860" lon="3.1238230">
        <ele>4.5</ele>
        <time>2021-06-19T13:47:18Z</time>
      </trkpt>
      <trkpt lat="39.7896790" lon="3.1241320">
        <ele>4.6</ele>
        <time>2021-06-19T13:47:24Z</time>
      </trkpt>
      <trkpt lat="39.7896130" lon="3.1241840">
        <ele>4.6</ele>
        <time>2021-06-19T13:47:25Z</time>
      </trkpt>
      <trkpt lat="39.7891390" lon="3.1245610">
        <ele>4.6</ele>
        <time>2021-06-19T13:47:32Z</time>
      </trkpt>
      <trkpt lat="39.7890730" lon="3.1246110">
        <ele>4.6</ele>
        <time>2021-06-19T13:47:33Z</time>
      </trkpt>
      <trkpt lat="39.7887020" lon="3.1248910">
        <ele>4.6</ele>
        <time>2021-06-19T13:47:39Z</time>
      </trkpt>
      <trkpt lat="39.7883420" lon="3.1251860">
        <ele>4.7</ele>
        <time>2021-06-19T13:47:45Z</time>
      </trkpt>
      <trkpt lat="39.7880360" lon="3.1254240">
        <ele>4.6</ele>
        <time>2021-06-19T13:47:50Z</time>
      </trkpt>
      <trkpt lat="39.7879010" lon="3.1255200">
        <ele>4.5</ele>
        <time>2021-06-19T13:47:52Z</time>
      </trkpt>
      <trkpt lat="39.7874370" lon="3.1258750">
        <ele>4.5</ele>
        <time>2021-06-19T13:47:59Z</time>
      </trkpt>
      <trkpt lat="39.7873700" lon="3.1259260">
        <ele>4.6</ele>
        <time>2021-06-19T13:48:00Z</time>
      </trkpt>
      <trkpt lat="39.7868980" lon="3.1262820">
        <ele>4.6</ele>
        <time>2021-06-19T13:48:07Z</time>
      </trkpt>
      <trkpt lat="39.7864950" lon="3.1266040">
        <ele>4.5</ele>
        <time>2021-06-19T13:48:13Z</time>
      </trkpt>
      <trkpt lat="39.7860160" lon="3.1269630">
        <ele>4.5</ele>
        <time>2021-06-19T13:48:20Z</time>
      </trkpt>
      <trkpt lat="39.7859480" lon="3.1270130">
        <ele>4.5</ele>
        <time>2021-06-19T13:48:21Z</time>
      </trkpt>
      <trkpt lat="39.7854860" lon="3.1273490">
        <ele>4.5</ele>
        <time>2021-06-19T13:48:28Z</time>
      </trkpt>
      <trkpt lat="39.7851380" lon="3.1275810">
        <ele>4.4</ele>
        <time>2021-06-19T13:48:33Z</time>
      </trkpt>
      <trkpt lat="39.7845960" lon="3.1279730">
        <ele>4.2</ele>
        <time>2021-06-19T13:48:41Z</time>
      </trkpt>
      <trkpt lat="39.7840810" lon="3.1283370">
        <ele>4.1</ele>
        <time>2021-06-19T13:48:48Z</time>
      </trkpt>
      <trkpt lat="39.7839380" lon="3.1284470">
        <ele>4.0</ele>
        <time>2021-06-19T13:48:50Z</time>
      </trkpt>
      <trkpt lat="39.7833850" lon="3.1288310">
        <ele>4.0</ele>
        <time>2021-06-19T13:48:57Z</time>
      </trkpt>
      <trkpt lat="39.7829150" lon="3.1291650">
        <ele>3.9</ele>
        <time>2021-06-19T13:49:03Z</time>
      </trkpt>
      <trkpt lat="39.7823650" lon="3.1295480">
        <ele>3.8</ele>
        <time>2021-06-19T13:49:10Z</time>
      </trkpt>
      <trkpt lat="39.7822880" lon="3.1295990">
        <ele>3.7</ele>
        <time>2021-06-19T13:49:11Z</time>
      </trkpt>
      <trkpt lat="39.7818050" lon="3.1300310">
        <ele>3.7</ele>
        <time>2021-06-19T13:49:18Z</time>
      </trkpt>
      <trkpt lat="39.7815500" lon="3.1302790">
        <ele>3.7</ele>
        <time>2021-06-19T13:49:22Z</time>
      </trkpt>
      <trkpt lat="39.7813640" lon="3.1304630">
        <ele>3.7</ele>
        <time>2021-06-19T13:49:25Z</time>
      </trkpt>
      <trkpt lat="39.7810060" lon="3.1308160">
        <ele>3.7</ele>
        <time>2021-06-19T13:49:31Z</time>
      </trkpt>
      <trkpt lat="39.7808320" lon="3.1309810">
        <ele>3.7</ele>
        <time>2021-06-19T13:49:34Z</time>
      </trkpt>
      <trkpt lat="39.7805400" lon="3.1312500">
        <ele>3.7</ele>
        <time>2021-06-19T13:49:39Z</time>
      </trkpt>
      <trkpt lat="39.7803760" lon="3.1314100">
        <ele>3.8</ele>
        <time>2021-06-19T13:49:42Z</time>
      </trkpt>
      <trkpt lat="39.7801730" lon="3.1316300">
        <ele>3.9</ele>
        <time>2021-06-19T13:49:46Z</time>
      </trkpt>
      <trkpt lat="39.7799290" lon="3.1318930">
        <ele>3.9</ele>
        <time>2021-06-19T13:49:51Z</time>
      </trkpt>
      <trkpt lat="39.7795920" lon="3.1322550">
        <ele>4.1</ele>
        <time>2021-06-19T13:49:58Z</time>
      </trkpt>
      <trkpt lat="39.7794420" lon="3.1324170">
        <ele>4.2</ele>
        <time>2021-06-19T13:50:01Z</time>
      </trkpt>
      <trkpt lat="39.7791080" lon="3.1327900">
        <ele>4.3</ele>
        <time>2021-06-19T13:50:08Z</time>
      </trkpt>
      <trkpt lat="39.7787220" lon="3.1332000">
        <ele>4.3</ele>
        <time>2021-06-19T13:50:16Z</time>
      </trkpt>
      <trkpt lat="39.7783600" lon="3.1335860">
        <ele>4.2</ele>
        <time>2021-06-19T13:50:23Z</time>
      </trkpt>
      <trkpt lat="39.7783080" lon="3.1336410">
        <ele>4.2</ele>
        <time>2021-06-19T13:50:24Z</time>
      </trkpt>
      <trkpt lat="39.7778600" lon="3.1341500">
        <ele>4.0</ele>
        <time>2021-06-19T13:50:33Z</time>
      </trkpt>
      <trkpt lat="39.7777630" lon="3.1342730">
        <ele>4.0</ele>
        <time>2021-06-19T13:50:35Z</time>
      </trkpt>
      <trkpt lat="39.7774000" lon="3.1347740">
        <ele>3.9</ele>
        <time>2021-06-19T13:50:43Z</time>
      </trkpt>
      <trkpt lat="39.7769880" lon="3.1353120">
        <ele>3.9</ele>
        <time>2021-06-19T13:50:52Z</time>
      </trkpt>
      <trkpt lat="39.7768060" lon="3.1355500">
        <ele>3.9</ele>
        <time>2021-06-19T13:50:56Z</time>
      </trkpt>
      <trkpt lat="39.7765280" lon="3.1359190">
        <ele>3.8</ele>
        <time>2021-06-19T13:51:02Z</time>
      </trkpt>
      <trkpt lat="39.7761100" lon="3.1364800">
        <ele>3.8</ele>
        <time>2021-06-19T13:51:11Z</time>
      </trkpt>
      <trkpt lat="39.7760750" lon="3.1365330">
        <ele>3.8</ele>
        <time>2021-06-19T13:51:12Z</time>
      </trkpt>
      <trkpt lat="39.7758380" lon="3.1368560">
        <ele>3.8</ele>
        <time>2021-06-19T13:51:17Z</time>
      </trkpt>
      <trkpt lat="39.7757000" lon="3.1370370">
        <ele>3.7</ele>
        <time>2021-06-19T13:51:20Z</time>
      </trkpt>
      <trkpt lat="39.7753810" lon="3.1374640">
        <ele>3.7</ele>
        <time>2021-06-19T13:51:27Z</time>
      </trkpt>
      <trkpt lat="39.7750090" lon="3.1379640">
        <ele>3.6</ele>
        <time>2021-06-19T13:51:35Z</time>
      </trkpt>
      <trkpt lat="39.7748740" lon="3.1381330">
        <ele>3.6</ele>
        <time>2021-06-19T13:51:38Z</time>
      </trkpt>
      <trkpt lat="39.7747330" lon="3.1383000">
        <ele>3.7</ele>
        <time>2021-06-19T13:51:41Z</time>
      </trkpt>
      <trkpt lat="39.7746400" lon="3.1384270">
        <ele>3.7</ele>
        <time>2021-06-19T13:51:43Z</time>
      </trkpt>
      <trkpt lat="39.7744570" lon="3.1386600">
        <ele>3.7</ele>
        <time>2021-06-19T13:51:47Z</time>
      </trkpt>
      <trkpt lat="39.7742620" lon="3.1389140">
        <ele>3.8</ele>
        <time>2021-06-19T13:51:51Z</time>
      </trkpt>
      <trkpt lat="39.7738420" lon="3.1394670">
        <ele>3.9</ele>
        <time>2021-06-19T13:52:00Z</time>
      </trkpt>
      <trkpt lat="39.7737590" lon="3.1395820">
        <ele>3.9</ele>
        <time>2021-06-19T13:52:02Z</time>
      </trkpt>
      <trkpt lat="39.7735640" lon="3.1398480">
        <ele>4.0</ele>
        <time>2021-06-19T13:52:06Z</time>
      </trkpt>
      <trkpt lat="39.7735270" lon="3.1398990">
        <ele>4.0</ele>
        <time>2021-06-19T13:52:07Z</time>
      </trkpt>
      <trkpt lat="39.7731510" lon="3.1404220">
        <ele>4.0</ele>
        <time>2021-06-19T13:52:15Z</time>
      </trkpt>
      <trkpt lat="39.7728480" lon="3.1407790">
        <ele>4.2</ele>
        <time>2021-06-19T13:52:21Z</time>
      </trkpt>
      <trkpt lat="39.7727980" lon="3.1408310">
        <ele>4.2</ele>
        <time>2021-06-19T13:52:22Z</time>
      </trkpt>
      <trkpt lat="39.7727020" lon="3.1409320">
        <ele>4.2</ele>
        <time>2021-06-19T13:52:24Z</time>
      </trkpt>
      <trkpt lat="39.7724810" lon="3.1411260">
        <ele>4.3</ele>
        <time>2021-06-19T13:52:28Z</time>
      </trkpt>
      <trkpt lat="39.7721850" lon="3.1414400">
        <ele>4.2</ele>
        <time>2021-06-19T13:52:35Z</time>
      </trkpt>
      <trkpt lat="39.7719930" lon="3.1416590">
        <ele>4.2</ele>
        <time>2021-06-19T13:52:40Z</time>
      </trkpt>
      <trkpt lat="39.7719530" lon="3.1417000">
        <ele>4.2</ele>
        <time>2021-06-19T13:52:41Z</time>
      </trkpt>
      <trkpt lat="39.7716750" lon="3.1419580">
        <ele>4.2</ele>
        <time>2021-06-19T13:52:48Z</time>
      </trkpt>
      <trkpt lat="39.7714300" lon="3.1420610">
        <ele>4.2</ele>
        <time>2021-06-19T13:52:53Z</time>
      </trkpt>
      <trkpt lat="39.7713800" lon="3.1420900">
        <ele>4.2</ele>
        <time>2021-06-19T13:52:54Z</time>
      </trkpt>
      <trkpt lat="39.7713070" lon="3.1421850">
        <ele>4.3</ele>
        <time>2021-06-19T13:52:56Z</time>
      </trkpt>
      <trkpt lat="39.7712970" lon="3.1422500">
        <ele>4.3</ele>
        <time>2021-06-19T13:52:57Z</time>
      </trkpt>
      <trkpt lat="39.7713120" lon="3.1423170">
        <ele>4.3</ele>
        <time>2021-06-19T13:52:58Z</time>
      </trkpt>
      <trkpt lat="39.7713800" lon="3.1424370">
        <ele>4.6</ele>
        <time>2021-06-19T13:53:00Z</time>
      </trkpt>
      <trkpt lat="39.7715640" lon="3.1427120">
        <ele>4.7</ele>
        <time>2021-06-19T13:53:04Z</time>
      </trkpt>
      <trkpt lat="39.7715820" lon="3.1427760">
        <ele>4.7</ele>
        <time>2021-06-19T13:53:05Z</time>
      </trkpt>
      <trkpt lat="39.7716000" lon="3.1428350">
        <ele>4.7</ele>
        <time>2021-06-19T13:53:06Z</time>
      </trkpt>
      <trkpt lat="39.7716320" lon="3.1429410">
        <ele>4.6</ele>
        <time>2021-06-19T13:53:08Z</time>
      </trkpt>
      <trkpt lat="39.7716500" lon="3.1430070">
        <ele>4.6</ele>
        <time>2021-06-19T13:53:09Z</time>
      </trkpt>
      <trkpt lat="39.7717660" lon="3.1434040">
        <ele>4.7</ele>
        <time>2021-06-19T13:53:16Z</time>
      </trkpt>
      <trkpt lat="39.7717790" lon="3.1434540">
        <ele>4.7</ele>
        <time>2021-06-19T13:53:17Z</time>
      </trkpt>
      <trkpt lat="39.7718340" lon="3.1436640">
        <ele>4.7</ele>
        <time>2021-06-19T13:53:21Z</time>
      </trkpt>
      <trkpt lat="39.7718430" lon="3.1437600">
        <ele>4.7</ele>
        <time>2021-06-19T13:53:23Z</time>
      </trkpt>
      <trkpt lat="39.7718650" lon="3.1440940">
        <ele>4.8</ele>
        <time>2021-06-19T13:53:29Z</time>
      </trkpt>
      <trkpt lat="39.7718710" lon="3.1442270">
        <ele>4.8</ele>
        <time>2021-06-19T13:53:32Z</time>
      </trkpt>
      <trkpt lat="39.7718840" lon="3.1443540">
        <ele>4.8</ele>
        <time>2021-06-19T13:53:35Z</time>
      </trkpt>
      <trkpt lat="39.7719030" lon="3.1443740">
        <ele>4.8</ele>
        <time>2021-06-19T13:53:36Z</time>
      </trkpt>
      <trkpt lat="39.7719360" lon="3.1443400">
        <ele>4.9</ele>
        <time>2021-06-19T13:53:39Z</time>
      </trkpt>
      <trkpt lat="39.7719950" lon="3.1442580">
        <ele>5.1</ele>
        <time>2021-06-19T13:53:43Z</time>
      </trkpt>
      <trkpt lat="39.7720130" lon="3.1442090">
        <ele>5.2</ele>
        <time>2021-06-19T13:53:45Z</time>
      </trkpt>
      <trkpt lat="39.7720360" lon="3.1441500">
        <ele>5.3</ele>
        <time>2021-06-19T13:53:50Z</time>
      </trkpt>
      <trkpt lat="39.7720360" lon="3.1441500">
        <ele>5.3</ele>
        <time>2021-06-19T13:53:51Z</time>
      </trkpt>
      <trkpt lat="39.7720390" lon="3.1441490">
        <ele>5.3</ele>
        <time>2021-06-19T13:53:57Z</time>
      </trkpt>
      <trkpt lat="39.7720370" lon="3.1441470">
        <ele>5.3</ele>
        <time>2021-06-19T13:54:00Z</time>
      </trkpt>
      <trkpt lat="39.7720340" lon="3.1441440">
        <ele>5.3</ele>
        <time>2021-06-19T13:54:09Z</time>
      </trkpt>
      <trkpt lat="39.7589100" lon="3.1584150">
        <ele>25.0</ele>
        <time>2021-06-20T08:51:55Z</time>
      </trkpt>
      <trkpt lat="39.7589100" lon="3.1584150">
        <ele>25.0</ele>
        <time>2021-06-20T08:51:56Z</time>
      </trkpt>
      <trkpt lat="39.7589100" lon="3.1584150">
        <ele>25.0</ele>
        <time>2021-06-20T08:51:58Z</time>
      </trkpt>
      <trkpt lat="39.7589100" lon="3.1584970">
        <ele>24.2</ele>
        <time>2021-06-20T08:53:27Z</time>
      </trkpt>
      <trkpt lat="39.7589100" lon="3.1584970">
        <ele>24.2</ele>
        <time>2021-06-20T08:53:28Z</time>
      </trkpt>
      <trkpt lat="39.7589090" lon="3.1584960">
        <ele>24.2</ele>
        <time>2021-06-20T08:53:42Z</time>
      </trkpt>
      <trkpt lat="39.7589000" lon="3.1585060">
        <ele>24.1</ele>
        <time>2021-06-20T08:53:44Z</time>
      </trkpt>
      <trkpt lat="39.7588710" lon="3.1585470">
        <ele>23.5</ele>
        <time>2021-06-20T08:53:47Z</time>
      </trkpt>
      <trkpt lat="39.7588650" lon="3.1585650">
        <ele>23.3</ele>
        <time>2021-06-20T08:53:48Z</time>
      </trkpt>
      <trkpt lat="39.7588570" lon="3.1586310">
        <ele>22.7</ele>
        <time>2021-06-20T08:53:52Z</time>
      </trkpt>
      <trkpt lat="39.7588510" lon="3.1586520">
        <ele>22.4</ele>
        <time>2021-06-20T08:53:53Z</time>
      </trkpt>
      <trkpt lat="39.7588040" lon="3.1587280">
        <ele>20.7</ele>
        <time>2021-06-20T08:53:57Z</time>
      </trkpt>
      <trkpt lat="39.7587860" lon="3.1587350">
        <ele>20.7</ele>
        <time>2021-06-20T08:53:58Z</time>
      </trkpt>
      <trkpt lat="39.7587020" lon="3.1586740">
        <ele>20.8</ele>
        <time>2021-06-20T08:54:03Z</time>
      </trkpt>
      <trkpt lat="39.7586480" lon="3.1586180">
        <ele>20.9</ele>
        <time>2021-06-20T08:54:06Z</time>
      </trkpt>
      <trkpt lat="39.7585850" lon="3.1585490">
        <ele>21.0</ele>
        <time>2021-06-20T08:54:09Z</time>
      </trkpt>
      <trkpt lat="39.7585600" lon="3.1585260">
        <ele>21.1</ele>
        <time>2021-06-20T08:54:10Z</time>
      </trkpt>
      <trkpt lat="39.7584890" lon="3.1584610">
        <ele>21.3</ele>
        <time>2021-06-20T08:54:13Z</time>
      </trkpt>
      <trkpt lat="39.7583820" lon="3.1583790">
        <ele>21.5</ele>
        <time>2021-06-20T08:54:17Z</time>
      </trkpt>
      <trkpt lat="39.7581860" lon="3.1582040">
        <ele>22.0</ele>
        <time>2021-06-20T08:54:24Z</time>
      </trkpt>
      <trkpt lat="39.7580690" lon="3.1580960">
        <ele>22.2</ele>
        <time>2021-06-20T08:54:28Z</time>
      </trkpt>
      <trkpt lat="39.7579260" lon="3.1579610">
        <ele>22.6</ele>
        <time>2021-06-20T08:54:33Z</time>
      </trkpt>
      <trkpt lat="39.7577010" lon="3.1577400">
        <ele>23.1</ele>
        <time>2021-06-20T08:54:41Z</time>
      </trkpt>
      <trkpt lat="39.7575990" lon="3.1576420">
        <ele>23.3</ele>
        <time>2021-06-20T08:54:46Z</time>
      </trkpt>
      <trkpt lat="39.7574690" lon="3.1575180">
        <ele>23.6</ele>
        <time>2021-06-20T08:54:52Z</time>
      </trkpt>
      <trkpt lat="39.7574500" lon="3.1575010">
        <ele>23.6</ele>
        <time>2021-06-20T08:54:53Z</time>
      </trkpt>
      <trkpt lat="39.7574200" lon="3.1574600">
        <ele>23.6</ele>
        <time>2021-06-20T08:54:55Z</time>
      </trkpt>
      <trkpt lat="39.7574050" lon="3.1574000">
        <ele>23.7</ele>
        <time>2021-06-20T08:54:58Z</time>
      </trkpt>
      <trkpt lat="39.7574030" lon="3.1573110">
        <ele>23.8</ele>
        <time>2021-06-20T08:55:01Z</time>
      </trkpt>
      <trkpt lat="39.7574020" lon="3.1572280">
        <ele>23.9</ele>
        <time>2021-06-20T08:55:03Z</time>
      </trkpt>
      <trkpt lat="39.7573530" lon="3.1570790">
        <ele>24.0</ele>
        <time>2021-06-20T08:55:07Z</time>
      </trkpt>
      <trkpt lat="39.7572110" lon="3.1569800">
        <ele>24.1</ele>
        <time>2021-06-20T08:55:12Z</time>
      </trkpt>
      <trkpt lat="39.7570380" lon="3.1570510">
        <ele>23.9</ele>
        <time>2021-06-20T08:55:17Z</time>
      </trkpt>
      <trkpt lat="39.7569510" lon="3.1572110">
        <ele>23.7</ele>
        <time>2021-06-20T08:55:21Z</time>
      </trkpt>
      <trkpt lat="39.7569320" lon="3.1573120">
        <ele>23.7</ele>
        <time>2021-06-20T08:55:23Z</time>
      </trkpt>
      <trkpt lat="39.7569050" lon="3.1574110">
        <ele>23.6</ele>
        <time>2021-06-20T08:55:25Z</time>
      </trkpt>
      <trkpt lat="39.7568830" lon="3.1574610">
        <ele>23.5</ele>
        <time>2021-06-20T08:55:26Z</time>
      </trkpt>
      <trkpt lat="39.7568530" lon="3.1575100">
        <ele>23.4</ele>
        <time>2021-06-20T08:55:27Z</time>
      </trkpt>
      <trkpt lat="39.7567080" lon="3.1576910">
        <ele>23.2</ele>
        <time>2021-06-20T08:55:31Z</time>
      </trkpt>
      <trkpt lat="39.7563730" lon="3.1580450">
        <ele>22.9</ele>
        <time>2021-06-20T08:55:39Z</time>
      </trkpt>
      <trkpt lat="39.7559570" lon="3.1584750">
        <ele>22.5</ele>
        <time>2021-06-20T08:55:48Z</time>
      </trkpt>
      <trkpt lat="39.7556550" lon="3.1587910">
        <ele>22.3</ele>
        <time>2021-06-20T08:55:55Z</time>
      </trkpt>
      <trkpt lat="39.7555770" lon="3.1588750">
        <ele>22.3</ele>
        <time>2021-06-20T08:55:57Z</time>
      </trkpt>
      <trkpt lat="39.7554080" lon="3.1590600">
        <ele>22.3</ele>
        <time>2021-06-20T08:56:01Z</time>
      </trkpt>
      <trkpt lat="39.7550820" lon="3.1593880">
        <ele>22.1</ele>
        <time>2021-06-20T08:56:08Z</time>
      </trkpt>
      <trkpt lat="39.7549890" lon="3.1594840">
        <ele>22.1</ele>
        <time>2021-06-20T08:56:10Z</time>
      </trkpt>
      <trkpt lat="39.7546370" lon="3.1598560">
        <ele>21.9</ele>
        <time>2021-06-20T08:56:17Z</time>
      </trkpt>
      <trkpt lat="39.7545350" lon="3.1599580">
        <ele>21.9</ele>
        <time>2021-06-20T08:56:19Z</time>
      </trkpt>
      <trkpt lat="39.7544310" lon="3.1600600">
        <ele>21.9</ele>
        <time>2021-06-20T08:56:21Z</time>
      </trkpt>
      <trkpt lat="39.7542820" lon="3.1602230">
        <ele>21.8</ele>
        <time>2021-06-20T08:56:24Z</time>
      </trkpt>
      <trkpt lat="39.7541790" lon="3.1603280">
        <ele>21.7</ele>
        <time>2021-06-20T08:56:26Z</time>
      </trkpt>
      <trkpt lat="39.7537290" lon="3.1608000">
        <ele>21.3</ele>
        <time>2021-06-20T08:56:35Z</time>
      </trkpt>
      <trkpt lat="39.7535850" lon="3.1609520">
        <ele>21.0</ele>
        <time>2021-06-20T08:56:38Z</time>
      </trkpt>
      <trkpt lat="39.7532590" lon="3.1613140">
        <ele>19.8</ele>
        <time>2021-06-20T08:56:45Z</time>
      </trkpt>
      <trkpt lat="39.7529020" lon="3.1616650">
        <ele>18.2</ele>
        <time>2021-06-20T08:56:51Z</time>
      </trkpt>
      <trkpt lat="39.7524100" lon="3.1620860">
        <ele>15.8</ele>
        <time>2021-06-20T08:56:58Z</time>
      </trkpt>
      <trkpt lat="39.7523340" lon="3.1621450">
        <ele>15.5</ele>
        <time>2021-06-20T08:56:59Z</time>
      </trkpt>
      <trkpt lat="39.7518250" lon="3.1624960">
        <ele>14.3</ele>
        <time>2021-06-20T08:57:06Z</time>
      </trkpt>
      <trkpt lat="39.7513810" lon="3.1627890">
        <ele>13.0</ele>
        <time>2021-06-20T08:57:13Z</time>
      </trkpt>
      <trkpt lat="39.7511870" lon="3.1629210">
        <ele>12.2</ele>
        <time>2021-06-20T08:57:16Z</time>
      </trkpt>
      <trkpt lat="39.7509170" lon="3.1631060">
        <ele>11.0</ele>
        <time>2021-06-20T08:57:20Z</time>
      </trkpt>
      <trkpt lat="39.7507740" lon="3.1631970">
        <ele>10.5</ele>
        <time>2021-06-20T08:57:22Z</time>
      </trkpt>
      <trkpt lat="39.7505570" lon="3.1633380">
        <ele>10.2</ele>
        <time>2021-06-20T08:57:25Z</time>
      </trkpt>
      <trkpt lat="39.7503330" lon="3.1634870">
        <ele>9.6</ele>
        <time>2021-06-20T08:57:28Z</time>
      </trkpt>
      <trkpt lat="39.7501260" lon="3.1636360">
        <ele>9.1</ele>
        <time>2021-06-20T08:57:31Z</time>
      </trkpt>
      <trkpt lat="39.7496590" lon="3.1639540">
        <ele>9.5</ele>
        <time>2021-06-20T08:57:38Z</time>
      </trkpt>
      <trkpt lat="39.7495440" lon="3.1640300">
        <ele>10.0</ele>
        <time>2021-06-20T08:57:40Z</time>
      </trkpt>
      <trkpt lat="39.7493440" lon="3.1641680">
        <ele>11.1</ele>
        <time>2021-06-20T08:57:44Z</time>
      </trkpt>
      <trkpt lat="39.7491010" lon="3.1643280">
        <ele>12.5</ele>
        <time>2021-06-20T08:57:50Z</time>
      </trkpt>
      <trkpt lat="39.7490640" lon="3.1643550">
        <ele>12.7</ele>
        <time>2021-06-20T08:57:51Z</time>
      </trkpt>
      <trkpt lat="39.7488850" lon="3.1644590">
        <ele>13.9</ele>
        <time>2021-06-20T08:57:56Z</time>
      </trkpt>
      <trkpt lat="39.7488500" lon="3.1644860">
        <ele>14.2</ele>
        <time>2021-06-20T08:57:57Z</time>
      </trkpt>
      <trkpt lat="39.7486440" lon="3.1646100">
        <ele>15.7</ele>
        <time>2021-06-20T08:58:03Z</time>
      </trkpt>
      <trkpt lat="39.7485440" lon="3.1646690">
        <ele>16.4</ele>
        <time>2021-06-20T08:58:06Z</time>
      </trkpt>
      <trkpt lat="39.7484460" lon="3.1647370">
        <ele>17.1</ele>
        <time>2021-06-20T08:58:09Z</time>
      </trkpt>
      <trkpt lat="39.7483780" lon="3.1647800">
        <ele>17.5</ele>
        <time>2021-06-20T08:58:11Z</time>
      </trkpt>
      <trkpt lat="39.7481230" lon="3.1649460">
        <ele>19.2</ele>
        <time>2021-06-20T08:58:19Z</time>
      </trkpt>
      <trkpt lat="39.7480250" lon="3.1650120">
        <ele>19.9</ele>
        <time>2021-06-20T08:58:22Z</time>
      </trkpt>
      <trkpt lat="39.7478260" lon="3.1651390">
        <ele>21.2</ele>
        <time>2021-06-20T08:58:28Z</time>
      </trkpt>
      <trkpt lat="39.7476070" lon="3.1652880">
        <ele>22.6</ele>
        <time>2021-06-20T08:58:35Z</time>
      </trkpt>
      <trkpt lat="39.7475750" lon="3.1653090">
        <ele>22.8</ele>
        <time>2021-06-20T08:58:36Z</time>
      </trkpt>
      <trkpt lat="39.7472080" lon="3.1655370">
        <ele>25.1</ele>
        <time>2021-06-20T08:58:47Z</time>
      </trkpt>
      <trkpt lat="39.7471730" lon="3.1655570">
        <ele>25.3</ele>
        <time>2021-06-20T08:58:48Z</time>
      </trkpt>
      <trkpt lat="39.7470380" lon="3.1656480">
        <ele>26.2</ele>
        <time>2021-06-20T08:58:52Z</time>
      </trkpt>
      <trkpt lat="39.7469040" lon="3.1657290">
        <ele>27.1</ele>
        <time>2021-06-20T08:58:56Z</time>
      </trkpt>
      <trkpt lat="39.7467010" lon="3.1658530">
        <ele>28.3</ele>
        <time>2021-06-20T08:59:02Z</time>
      </trkpt>
      <trkpt lat="39.7466370" lon="3.1658920">
        <ele>28.6</ele>
        <time>2021-06-20T08:59:04Z</time>
      </trkpt>
      <trkpt lat="39.7465690" lon="3.1659330">
        <ele>29.0</ele>
        <time>2021-06-20T08:59:06Z</time>
      </trkpt>
      <trkpt lat="39.7464310" lon="3.1660240">
        <ele>29.7</ele>
        <time>2021-06-20T08:59:10Z</time>
      </trkpt>
      <trkpt lat="39.7463670" lon="3.1660730">
        <ele>30.0</ele>
        <time>2021-06-20T08:59:12Z</time>
      </trkpt>
      <trkpt lat="39.7462670" lon="3.1661410">
        <ele>30.4</ele>
        <time>2021-06-20T08:59:15Z</time>
      </trkpt>
      <trkpt lat="39.7461690" lon="3.1662150">
        <ele>30.7</ele>
        <time>2021-06-20T08:59:18Z</time>
      </trkpt>
      <trkpt lat="39.7461340" lon="3.1662370">
        <ele>30.8</ele>
        <time>2021-06-20T08:59:19Z</time>
      </trkpt>
      <trkpt lat="39.7458030" lon="3.1664480">
        <ele>31.2</ele>
        <time>2021-06-20T08:59:28Z</time>
      </trkpt>
      <trkpt lat="39.7457650" lon="3.1664730">
        <ele>31.2</ele>
        <time>2021-06-20T08:59:29Z</time>
      </trkpt>
      <trkpt lat="39.7455710" lon="3.1666030">
        <ele>31.1</ele>
        <time>2021-06-20T08:59:34Z</time>
      </trkpt>
      <trkpt lat="39.7452530" lon="3.1668140">
        <ele>30.9</ele>
        <time>2021-06-20T08:59:41Z</time>
      </trkpt>
      <trkpt lat="39.7450670" lon="3.1669390">
        <ele>30.7</ele>
        <time>2021-06-20T08:59:45Z</time>
      </trkpt>
      <trkpt lat="39.7449210" lon="3.1670360">
        <ele>30.6</ele>
        <time>2021-06-20T08:59:48Z</time>
      </trkpt>
      <trkpt lat="39.7446210" lon="3.1672270">
        <ele>30.5</ele>
        <time>2021-06-20T08:59:54Z</time>
      </trkpt>
      <trkpt lat="39.7445150" lon="3.1672950">
        <ele>30.5</ele>
        <time>2021-06-20T08:59:56Z</time>
      </trkpt>
      <trkpt lat="39.7444630" lon="3.1673280">
        <ele>30.5</ele>
        <time>2021-06-20T08:59:57Z</time>
      </trkpt>
      <trkpt lat="39.7443550" lon="3.1673960">
        <ele>30.5</ele>
        <time>2021-06-20T08:59:59Z</time>
      </trkpt>
      <trkpt lat="39.7441480" lon="3.1675360">
        <ele>30.5</ele>
        <time>2021-06-20T09:00:03Z</time>
      </trkpt>
      <trkpt lat="39.7439430" lon="3.1676730">
        <ele>30.5</ele>
        <time>2021-06-20T09:00:07Z</time>
      </trkpt>
      <trkpt lat="39.7434610" lon="3.1679820">
        <ele>30.6</ele>
        <time>2021-06-20T09:00:16Z</time>
      </trkpt>
      <trkpt lat="39.7429790" lon="3.1683080">
        <ele>30.9</ele>
        <time>2021-06-20T09:00:25Z</time>
      </trkpt>
      <trkpt lat="39.7429250" lon="3.1683380">
        <ele>31.0</ele>
        <time>2021-06-20T09:00:26Z</time>
      </trkpt>
      <trkpt lat="39.7426020" lon="3.1685420">
        <ele>31.3</ele>
        <time>2021-06-20T09:00:32Z</time>
      </trkpt>
      <trkpt lat="39.7422770" lon="3.1687550">
        <ele>31.5</ele>
        <time>2021-06-20T09:00:38Z</time>
      </trkpt>
      <trkpt lat="39.7418050" lon="3.1690650">
        <ele>31.5</ele>
        <time>2021-06-20T09:00:47Z</time>
      </trkpt>
      <trkpt lat="39.7413150" lon="3.1693900">
        <ele>31.6</ele>
        <time>2021-06-20T09:00:56Z</time>
      </trkpt>
      <trkpt lat="39.7412590" lon="3.1694280">
        <ele>31.6</ele>
        <time>2021-06-20T09:00:57Z</time>
      </trkpt>
      <trkpt lat="39.7407860" lon="3.1697450">
        <ele>31.8</ele>
        <time>2021-06-20T09:01:06Z</time>
      </trkpt>
      <trkpt lat="39.7404720" lon="3.1699700">
        <ele>31.9</ele>
        <time>2021-06-20T09:01:12Z</time>
      </trkpt>
      <trkpt lat="39.7404210" lon="3.1700110">
        <ele>31.9</ele>
        <time>2021-06-20T09:01:13Z</time>
      </trkpt>
      <trkpt lat="39.7403700" lon="3.1700510">
        <ele>32.0</ele>
        <time>2021-06-20T09:01:14Z</time>
      </trkpt>
      <trkpt lat="39.7401210" lon="3.1702790">
        <ele>31.9</ele>
        <time>2021-06-20T09:01:19Z</time>
      </trkpt>
      <trkpt lat="39.7399720" lon="3.1704320">
        <ele>31.8</ele>
        <time>2021-06-20T09:01:22Z</time>
      </trkpt>
      <trkpt lat="39.7398730" lon="3.1705390">
        <ele>31.7</ele>
        <time>2021-06-20T09:01:24Z</time>
      </trkpt>
      <trkpt lat="39.7395130" lon="3.1710350">
        <ele>31.6</ele>
        <time>2021-06-20T09:01:32Z</time>
      </trkpt>
      <trkpt lat="39.7392700" lon="3.1714190">
        <ele>31.5</ele>
        <time>2021-06-20T09:01:38Z</time>
      </trkpt>
      <trkpt lat="39.7390070" lon="3.1719870">
        <ele>31.7</ele>
        <time>2021-06-20T09:01:46Z</time>
      </trkpt>
      <trkpt lat="39.7388500" lon="3.1723540">
        <ele>31.9</ele>
        <time>2021-06-20T09:01:51Z</time>
      </trkpt>
      <trkpt lat="39.7387590" lon="3.1725650">
        <ele>32.0</ele>
        <time>2021-06-20T09:01:54Z</time>
      </trkpt>
      <trkpt lat="39.7385660" lon="3.1730060">
        <ele>32.0</ele>
        <time>2021-06-20T09:02:00Z</time>
      </trkpt>
      <trkpt lat="39.7383000" lon="3.1736260">
        <ele>31.9</ele>
        <time>2021-06-20T09:02:08Z</time>
      </trkpt>
      <trkpt lat="39.7380270" lon="3.1742600">
        <ele>31.6</ele>
        <time>2021-06-20T09:02:16Z</time>
      </trkpt>
      <trkpt lat="39.7378850" lon="3.1745900">
        <ele>31.4</ele>
        <time>2021-06-20T09:02:20Z</time>
      </trkpt>
      <trkpt lat="39.7375510" lon="3.1753380">
        <ele>31.2</ele>
        <time>2021-06-20T09:02:28Z</time>
      </trkpt>
      <trkpt lat="39.7375510" lon="3.1753380">
        <ele>31.2</ele>
        <time>2021-06-20T09:02:29Z</time>
      </trkpt>
      <trkpt lat="39.7372590" lon="3.1759970">
        <ele>31.3</ele>
        <time>2021-06-20T09:02:37Z</time>
      </trkpt>
      <trkpt lat="39.7372240" lon="3.1760770">
        <ele>31.3</ele>
        <time>2021-06-20T09:02:38Z</time>
      </trkpt>
      <trkpt lat="39.7369780" lon="3.1766340">
        <ele>31.6</ele>
        <time>2021-06-20T09:02:45Z</time>
      </trkpt>
      <trkpt lat="39.7367050" lon="3.1772500">
        <ele>31.9</ele>
        <time>2021-06-20T09:02:53Z</time>
      </trkpt>
      <trkpt lat="39.7366060" lon="3.1774810">
        <ele>32.1</ele>
        <time>2021-06-20T09:02:56Z</time>
      </trkpt>
      <trkpt lat="39.7363730" lon="3.1779990">
        <ele>32.4</ele>
        <time>2021-06-20T09:03:03Z</time>
      </trkpt>
      <trkpt lat="39.7360890" lon="3.1786520">
        <ele>33.1</ele>
        <time>2021-06-20T09:03:12Z</time>
      </trkpt>
      <trkpt lat="39.7360570" lon="3.1787250">
        <ele>33.2</ele>
        <time>2021-06-20T09:03:13Z</time>
      </trkpt>
      <trkpt lat="39.7358630" lon="3.1791690">
        <ele>33.7</ele>
        <time>2021-06-20T09:03:19Z</time>
      </trkpt>
      <trkpt lat="39.7357340" lon="3.1794560">
        <ele>33.9</ele>
        <time>2021-06-20T09:03:23Z</time>
      </trkpt>
      <trkpt lat="39.7354950" lon="3.1800220">
        <ele>34.4</ele>
        <time>2021-06-20T09:03:31Z</time>
      </trkpt>
      <trkpt lat="39.7353110" lon="3.1804490">
        <ele>34.7</ele>
        <time>2021-06-20T09:03:37Z</time>
      </trkpt>
      <trkpt lat="39.7351970" lon="3.1807210">
        <ele>34.9</ele>
        <time>2021-06-20T09:03:41Z</time>
      </trkpt>
      <trkpt lat="39.7351330" lon="3.1808540">
        <ele>34.9</ele>
        <time>2021-06-20T09:03:43Z</time>
      </trkpt>
      <trkpt lat="39.7350410" lon="3.1810600">
        <ele>35.0</ele>
        <time>2021-06-20T09:03:46Z</time>
      </trkpt>
      <trkpt lat="39.7349160" lon="3.1813440">
        <ele>35.1</ele>
        <time>2021-06-20T09:03:50Z</time>
      </trkpt>
      <trkpt lat="39.7347240" lon="3.1817710">
        <ele>35.5</ele>
        <time>2021-06-20T09:03:56Z</time>
      </trkpt>
      <trkpt lat="39.7345300" lon="3.1822180">
        <ele>35.9</ele>
        <time>2021-06-20T09:04:02Z</time>
      </trkpt>
      <trkpt lat="39.7343320" lon="3.1826580">
        <ele>36.2</ele>
        <time>2021-06-20T09:04:08Z</time>
      </trkpt>
      <trkpt lat="39.7342020" lon="3.1829580">
        <ele>36.5</ele>
        <time>2021-06-20T09:04:12Z</time>
      </trkpt>
      <trkpt lat="39.7339470" lon="3.1835390">
        <ele>37.1</ele>
        <time>2021-06-20T09:04:20Z</time>
      </trkpt>
      <trkpt lat="39.7336630" lon="3.1841940">
        <ele>37.7</ele>
        <time>2021-06-20T09:04:28Z</time>
      </trkpt>
      <trkpt lat="39.7335990" lon="3.1843400">
        <ele>37.9</ele>
        <time>2021-06-20T09:04:31Z</time>
      </trkpt>
      <trkpt lat="39.7333480" lon="3.1849140">
        <ele>38.3</ele>
        <time>2021-06-20T09:04:39Z</time>
      </trkpt>
      <trkpt lat="39.7330590" lon="3.1855650">
        <ele>38.5</ele>
        <time>2021-06-20T09:04:48Z</time>
      </trkpt>
      <trkpt lat="39.7330280" lon="3.1856360">
        <ele>38.5</ele>
        <time>2021-06-20T09:04:49Z</time>
      </trkpt>
      <trkpt lat="39.7327270" lon="3.1863220">
        <ele>38.2</ele>
        <time>2021-06-20T09:04:58Z</time>
      </trkpt>
      <trkpt lat="39.7326900" lon="3.1864040">
        <ele>38.2</ele>
        <time>2021-06-20T09:04:59Z</time>
      </trkpt>
      <trkpt lat="39.7324030" lon="3.1870640">
        <ele>38.0</ele>
        <time>2021-06-20T09:05:07Z</time>
      </trkpt>
      <trkpt lat="39.7323640" lon="3.1871470">
        <ele>37.9</ele>
        <time>2021-06-20T09:05:08Z</time>
      </trkpt>
      <trkpt lat="39.7320730" lon="3.1878000">
        <ele>37.9</ele>
        <time>2021-06-20T09:05:16Z</time>
      </trkpt>
      <trkpt lat="39.7319330" lon="3.1881240">
        <ele>38.0</ele>
        <time>2021-06-20T09:05:20Z</time>
      </trkpt>
      <trkpt lat="39.7316620" lon="3.1887410">
        <ele>38.4</ele>
        <time>2021-06-20T09:05:28Z</time>
      </trkpt>
      <trkpt lat="39.7316310" lon="3.1888150">
        <ele>38.5</ele>
        <time>2021-06-20T09:05:29Z</time>
      </trkpt>
      <trkpt lat="39.7313550" lon="3.1894610">
        <ele>39.4</ele>
        <time>2021-06-20T09:05:38Z</time>
      </trkpt>
      <trkpt lat="39.7310640" lon="3.1901030">
        <ele>40.1</ele>
        <time>2021-06-20T09:05:47Z</time>
      </trkpt>
      <trkpt lat="39.7308080" lon="3.1906840">
        <ele>40.5</ele>
        <time>2021-06-20T09:05:55Z</time>
      </trkpt>
      <trkpt lat="39.7305360" lon="3.1913130">
        <ele>41.3</ele>
        <time>2021-06-20T09:06:04Z</time>
      </trkpt>
      <trkpt lat="39.7302570" lon="3.1919670">
        <ele>41.8</ele>
        <time>2021-06-20T09:06:13Z</time>
      </trkpt>
      <trkpt lat="39.7301590" lon="3.1921840">
        <ele>42.0</ele>
        <time>2021-06-20T09:06:16Z</time>
      </trkpt>
      <trkpt lat="39.7299000" lon="3.1927610">
        <ele>42.4</ele>
        <time>2021-06-20T09:06:24Z</time>
      </trkpt>
      <trkpt lat="39.7296390" lon="3.1933540">
        <ele>41.8</ele>
        <time>2021-06-20T09:06:32Z</time>
      </trkpt>
      <trkpt lat="39.7294480" lon="3.1937820">
        <ele>40.6</ele>
        <time>2021-06-20T09:06:37Z</time>
      </trkpt>
      <trkpt lat="39.7291990" lon="3.1943460">
        <ele>38.7</ele>
        <time>2021-06-20T09:06:43Z</time>
      </trkpt>
      <trkpt lat="39.7291570" lon="3.1944480">
        <ele>38.4</ele>
        <time>2021-06-20T09:06:44Z</time>
      </trkpt>
      <trkpt lat="39.7290680" lon="3.1946550">
        <ele>37.7</ele>
        <time>2021-06-20T09:06:46Z</time>
      </trkpt>
      <trkpt lat="39.7288880" lon="3.1950820">
        <ele>36.5</ele>
        <time>2021-06-20T09:06:50Z</time>
      </trkpt>
      <trkpt lat="39.7286120" lon="3.1957120">
        <ele>34.6</ele>
        <time>2021-06-20T09:06:56Z</time>
      </trkpt>
      <trkpt lat="39.7285180" lon="3.1959290">
        <ele>34.0</ele>
        <time>2021-06-20T09:06:58Z</time>
      </trkpt>
      <trkpt lat="39.7282410" lon="3.1965670">
        <ele>32.4</ele>
        <time>2021-06-20T09:07:04Z</time>
      </trkpt>
      <trkpt lat="39.7280150" lon="3.1970910">
        <ele>30.8</ele>
        <time>2021-06-20T09:07:09Z</time>
      </trkpt>
      <trkpt lat="39.7278250" lon="3.1975130">
        <ele>29.1</ele>
        <time>2021-06-20T09:07:13Z</time>
      </trkpt>
      <trkpt lat="39.7276830" lon="3.1978490">
        <ele>27.8</ele>
        <time>2021-06-20T09:07:16Z</time>
      </trkpt>
      <trkpt lat="39.7275280" lon="3.1981920">
        <ele>26.7</ele>
        <time>2021-06-20T09:07:19Z</time>
      </trkpt>
      <trkpt lat="39.7272480" lon="3.1987540">
        <ele>24.9</ele>
        <time>2021-06-20T09:07:24Z</time>
      </trkpt>
      <trkpt lat="39.7271720" lon="3.1988470">
        <ele>24.7</ele>
        <time>2021-06-20T09:07:25Z</time>
      </trkpt>
      <trkpt lat="39.7270930" lon="3.1989330">
        <ele>24.5</ele>
        <time>2021-06-20T09:07:26Z</time>
      </trkpt>
      <trkpt lat="39.7269180" lon="3.1990590">
        <ele>24.1</ele>
        <time>2021-06-20T09:07:28Z</time>
      </trkpt>
      <trkpt lat="39.7267270" lon="3.1991190">
        <ele>23.7</ele>
        <time>2021-06-20T09:07:30Z</time>
      </trkpt>
      <trkpt lat="39.7266270" lon="3.1991250">
        <ele>23.4</ele>
        <time>2021-06-20T09:07:31Z</time>
      </trkpt>
      <trkpt lat="39.7262420" lon="3.1990760">
        <ele>21.4</ele>
        <time>2021-06-20T09:07:35Z</time>
      </trkpt>
      <trkpt lat="39.7256430" lon="3.1989530">
        <ele>17.6</ele>
        <time>2021-06-20T09:07:41Z</time>
      </trkpt>
      <trkpt lat="39.7254350" lon="3.1989070">
        <ele>16.3</ele>
        <time>2021-06-20T09:07:43Z</time>
      </trkpt>
      <trkpt lat="39.7252250" lon="3.1988690">
        <ele>15.1</ele>
        <time>2021-06-20T09:07:45Z</time>
      </trkpt>
      <trkpt lat="39.7249160" lon="3.1988430">
        <ele>13.2</ele>
        <time>2021-06-20T09:07:48Z</time>
      </trkpt>
      <trkpt lat="39.7247120" lon="3.1989110">
        <ele>11.7</ele>
        <time>2021-06-20T09:07:50Z</time>
      </trkpt>
      <trkpt lat="39.7246170" lon="3.1989710">
        <ele>11.0</ele>
        <time>2021-06-20T09:07:51Z</time>
      </trkpt>
      <trkpt lat="39.7245390" lon="3.1990640">
        <ele>10.5</ele>
        <time>2021-06-20T09:07:52Z</time>
      </trkpt>
      <trkpt lat="39.7244770" lon="3.1991810">
        <ele>10.1</ele>
        <time>2021-06-20T09:07:53Z</time>
      </trkpt>
      <trkpt lat="39.7244380" lon="3.1993130">
        <ele>9.8</ele>
        <time>2021-06-20T09:07:54Z</time>
      </trkpt>
      <trkpt lat="39.7244260" lon="3.1994490">
        <ele>9.5</ele>
        <time>2021-06-20T09:07:55Z</time>
      </trkpt>
      <trkpt lat="39.7244360" lon="3.1995910">
        <ele>9.3</ele>
        <time>2021-06-20T09:07:56Z</time>
      </trkpt>
      <trkpt lat="39.7245060" lon="3.1998510">
        <ele>9.1</ele>
        <time>2021-06-20T09:07:58Z</time>
      </trkpt>
      <trkpt lat="39.7246300" lon="3.2000520">
        <ele>9.1</ele>
        <time>2021-06-20T09:08:00Z</time>
      </trkpt>
      <trkpt lat="39.7247040" lon="3.2001300">
        <ele>9.3</ele>
        <time>2021-06-20T09:08:01Z</time>
      </trkpt>
      <trkpt lat="39.7251960" lon="3.2005820">
        <ele>11.5</ele>
        <time>2021-06-20T09:08:08Z</time>
      </trkpt>
      <trkpt lat="39.7254350" lon="3.2007890">
        <ele>12.5</ele>
        <time>2021-06-20T09:08:11Z</time>
      </trkpt>
      <trkpt lat="39.7254350" lon="3.2007890">
        <ele>12.5</ele>
        <time>2021-06-20T09:08:12Z</time>
      </trkpt>
      <trkpt lat="39.7255420" lon="3.2008780">
        <ele>13.2</ele>
        <time>2021-06-20T09:08:14Z</time>
      </trkpt>
      <trkpt lat="39.7256450" lon="3.2009590">
        <ele>13.9</ele>
        <time>2021-06-20T09:08:16Z</time>
      </trkpt>
      <trkpt lat="39.7258380" lon="3.2011210">
        <ele>15.3</ele>
        <time>2021-06-20T09:08:20Z</time>
      </trkpt>
      <trkpt lat="39.7261000" lon="3.2013480">
        <ele>17.6</ele>
        <time>2021-06-20T09:08:26Z</time>
      </trkpt>
      <trkpt lat="39.7263560" lon="3.2016150">
        <ele>19.9</ele>
        <time>2021-06-20T09:08:32Z</time>
      </trkpt>
      <trkpt lat="39.7264660" lon="3.2017780">
        <ele>21.0</ele>
        <time>2021-06-20T09:08:35Z</time>
      </trkpt>
      <trkpt lat="39.7265150" lon="3.2018910">
        <ele>21.6</ele>
        <time>2021-06-20T09:08:37Z</time>
      </trkpt>
      <trkpt lat="39.7265530" lon="3.2020020">
        <ele>22.1</ele>
        <time>2021-06-20T09:08:39Z</time>
      </trkpt>
      <trkpt lat="39.7265690" lon="3.2020590">
        <ele>22.3</ele>
        <time>2021-06-20T09:08:40Z</time>
      </trkpt>
      <trkpt lat="39.7265880" lon="3.2021600">
        <ele>22.7</ele>
        <time>2021-06-20T09:08:42Z</time>
      </trkpt>
      <trkpt lat="39.7266070" lon="3.2023930">
        <ele>23.3</ele>
        <time>2021-06-20T09:08:46Z</time>
      </trkpt>
      <trkpt lat="39.7266000" lon="3.2025230">
        <ele>23.6</ele>
        <time>2021-06-20T09:08:48Z</time>
      </trkpt>
      <trkpt lat="39.7265900" lon="3.2025830">
        <ele>23.7</ele>
        <time>2021-06-20T09:08:49Z</time>
      </trkpt>
      <trkpt lat="39.7265780" lon="3.2026390">
        <ele>23.8</ele>
        <time>2021-06-20T09:08:50Z</time>
      </trkpt>
      <trkpt lat="39.7265690" lon="3.2026840">
        <ele>23.9</ele>
        <time>2021-06-20T09:08:51Z</time>
      </trkpt>
      <trkpt lat="39.7265400" lon="3.2028090">
        <ele>24.0</ele>
        <time>2021-06-20T09:08:53Z</time>
      </trkpt>
      <trkpt lat="39.7264860" lon="3.2029780">
        <ele>24.1</ele>
        <time>2021-06-20T09:08:56Z</time>
      </trkpt>
      <trkpt lat="39.7264150" lon="3.2031560">
        <ele>24.0</ele>
        <time>2021-06-20T09:08:59Z</time>
      </trkpt>
      <trkpt lat="39.7263080" lon="3.2034160">
        <ele>23.7</ele>
        <time>2021-06-20T09:09:03Z</time>
      </trkpt>
      <trkpt lat="39.7261190" lon="3.2038760">
        <ele>22.8</ele>
        <time>2021-06-20T09:09:10Z</time>
      </trkpt>
      <trkpt lat="39.7258660" lon="3.2045340">
        <ele>21.8</ele>
        <time>2021-06-20T09:09:19Z</time>
      </trkpt>
      <trkpt lat="39.7256120" lon="3.2052040">
        <ele>22.7</ele>
        <time>2021-06-20T09:09:28Z</time>
      </trkpt>
      <trkpt lat="39.7255600" lon="3.2053400">
        <ele>23.1</ele>
        <time>2021-06-20T09:09:30Z</time>
      </trkpt>
      <trkpt lat="39.7254270" lon="3.2057140">
        <ele>24.3</ele>
        <time>2021-06-20T09:09:36Z</time>
      </trkpt>
      <trkpt lat="39.7252570" lon="3.2061210">
        <ele>25.8</ele>
        <time>2021-06-20T09:09:43Z</time>
      </trkpt>
      <trkpt lat="39.7252250" lon="3.2061950">
        <ele>26.1</ele>
        <time>2021-06-20T09:09:44Z</time>
      </trkpt>
      <trkpt lat="39.7250510" lon="3.2066130">
        <ele>27.4</ele>
        <time>2021-06-20T09:09:51Z</time>
      </trkpt>
      <trkpt lat="39.7250270" lon="3.2066770">
        <ele>27.6</ele>
        <time>2021-06-20T09:09:52Z</time>
      </trkpt>
      <trkpt lat="39.7248610" lon="3.2071160">
        <ele>29.1</ele>
        <time>2021-06-20T09:09:59Z</time>
      </trkpt>
      <trkpt lat="39.7246980" lon="3.2075490">
        <ele>30.8</ele>
        <time>2021-06-20T09:10:06Z</time>
      </trkpt>
      <trkpt lat="39.7245340" lon="3.2079740">
        <ele>32.4</ele>
        <time>2021-06-20T09:10:13Z</time>
      </trkpt>
      <trkpt lat="39.7244840" lon="3.2080890">
        <ele>32.8</ele>
        <time>2021-06-20T09:10:15Z</time>
      </trkpt>
      <trkpt lat="39.7244370" lon="3.2082090">
        <ele>33.2</ele>
        <time>2021-06-20T09:10:17Z</time>
      </trkpt>
      <trkpt lat="39.7242320" lon="3.2086990">
        <ele>33.4</ele>
        <time>2021-06-20T09:10:25Z</time>
      </trkpt>
      <trkpt lat="39.7242100" lon="3.2087440">
        <ele>33.5</ele>
        <time>2021-06-20T09:10:26Z</time>
      </trkpt>
      <trkpt lat="39.7240680" lon="3.2090170">
        <ele>34.1</ele>
        <time>2021-06-20T09:10:31Z</time>
      </trkpt>
      <trkpt lat="39.7239720" lon="3.2091740">
        <ele>34.6</ele>
        <time>2021-06-20T09:10:34Z</time>
      </trkpt>
      <trkpt lat="39.7235980" lon="3.2096590">
        <ele>35.8</ele>
        <time>2021-06-20T09:10:44Z</time>
      </trkpt>
      <trkpt lat="39.7232110" lon="3.2100010">
        <ele>36.1</ele>
        <time>2021-06-20T09:10:52Z</time>
      </trkpt>
      <trkpt lat="39.7228110" lon="3.2103350">
        <ele>35.8</ele>
        <time>2021-06-20T09:10:59Z</time>
      </trkpt>
      <trkpt lat="39.7225110" lon="3.2105860">
        <ele>35.5</ele>
        <time>2021-06-20T09:11:04Z</time>
      </trkpt>
      <trkpt lat="39.7223410" lon="3.2107240">
        <ele>35.5</ele>
        <time>2021-06-20T09:11:07Z</time>
      </trkpt>
      <trkpt lat="39.7222830" lon="3.2107730">
        <ele>35.5</ele>
        <time>2021-06-20T09:11:08Z</time>
      </trkpt>
      <trkpt lat="39.7219970" lon="3.2110120">
        <ele>35.6</ele>
        <time>2021-06-20T09:11:13Z</time>
      </trkpt>
      <trkpt lat="39.7218360" lon="3.2111530">
        <ele>35.7</ele>
        <time>2021-06-20T09:11:16Z</time>
      </trkpt>
      <trkpt lat="39.7217230" lon="3.2112430">
        <ele>35.9</ele>
        <time>2021-06-20T09:11:18Z</time>
      </trkpt>
      <trkpt lat="39.7213370" lon="3.2115690">
        <ele>36.2</ele>
        <time>2021-06-20T09:11:25Z</time>
      </trkpt>
      <trkpt lat="39.7212270" lon="3.2116580">
        <ele>36.3</ele>
        <time>2021-06-20T09:11:27Z</time>
      </trkpt>
      <trkpt lat="39.7209020" lon="3.2119350">
        <ele>36.5</ele>
        <time>2021-06-20T09:11:33Z</time>
      </trkpt>
      <trkpt lat="39.7207910" lon="3.2120260">
        <ele>36.6</ele>
        <time>2021-06-20T09:11:35Z</time>
      </trkpt>
      <trkpt lat="39.7203620" lon="3.2123820">
        <ele>37.0</ele>
        <time>2021-06-20T09:11:43Z</time>
      </trkpt>
      <trkpt lat="39.7202020" lon="3.2125130">
        <ele>37.1</ele>
        <time>2021-06-20T09:11:46Z</time>
      </trkpt>
      <trkpt lat="39.7197780" lon="3.2128630">
        <ele>37.4</ele>
        <time>2021-06-20T09:11:54Z</time>
      </trkpt>
      <trkpt lat="39.7193660" lon="3.2131980">
        <ele>37.9</ele>
        <time>2021-06-20T09:12:02Z</time>
      </trkpt>
      <trkpt lat="39.7188870" lon="3.2135810">
        <ele>38.2</ele>
        <time>2021-06-20T09:12:11Z</time>
      </trkpt>
      <trkpt lat="39.7188330" lon="3.2136260">
        <ele>38.3</ele>
        <time>2021-06-20T09:12:12Z</time>
      </trkpt>
      <trkpt lat="39.7183550" lon="3.2140240">
        <ele>38.7</ele>
        <time>2021-06-20T09:12:21Z</time>
      </trkpt>
      <trkpt lat="39.7182500" lon="3.2141130">
        <ele>38.8</ele>
        <time>2021-06-20T09:12:23Z</time>
      </trkpt>
      <trkpt lat="39.7178280" lon="3.2144640">
        <ele>39.1</ele>
        <time>2021-06-20T09:12:31Z</time>
      </trkpt>
      <trkpt lat="39.7173390" lon="3.2148790">
        <ele>39.5</ele>
        <time>2021-06-20T09:12:40Z</time>
      </trkpt>
      <trkpt lat="39.7172390" lon="3.2149580">
        <ele>39.7</ele>
        <time>2021-06-20T09:12:42Z</time>
      </trkpt>
      <trkpt lat="39.7168240" lon="3.2153010">
        <ele>40.0</ele>
        <time>2021-06-20T09:12:50Z</time>
      </trkpt>
      <trkpt lat="39.7167220" lon="3.2153870">
        <ele>40.1</ele>
        <time>2021-06-20T09:12:52Z</time>
      </trkpt>
      <trkpt lat="39.7162700" lon="3.2157730">
        <ele>40.4</ele>
        <time>2021-06-20T09:13:01Z</time>
      </trkpt>
      <trkpt lat="39.7161730" lon="3.2158500">
        <ele>40.5</ele>
        <time>2021-06-20T09:13:03Z</time>
      </trkpt>
      <trkpt lat="39.7156880" lon="3.2162670">
        <ele>40.9</ele>
        <time>2021-06-20T09:13:13Z</time>
      </trkpt>
      <trkpt lat="39.7156300" lon="3.2163150">
        <ele>40.9</ele>
        <time>2021-06-20T09:13:14Z</time>
      </trkpt>
      <trkpt lat="39.7153500" lon="3.2165490">
        <ele>41.1</ele>
        <time>2021-06-20T09:13:20Z</time>
      </trkpt>
      <trkpt lat="39.7151550" lon="3.2167110">
        <ele>41.2</ele>
        <time>2021-06-20T09:13:24Z</time>
      </trkpt>
      <trkpt lat="39.7147600" lon="3.2170340">
        <ele>41.7</ele>
        <time>2021-06-20T09:13:32Z</time>
      </trkpt>
      <trkpt lat="39.7145640" lon="3.2172060">
        <ele>41.9</ele>
        <time>2021-06-20T09:13:36Z</time>
      </trkpt>
      <trkpt lat="39.7143670" lon="3.2173680">
        <ele>42.0</ele>
        <time>2021-06-20T09:13:40Z</time>
      </trkpt>
      <trkpt lat="39.7138700" lon="3.2177900">
        <ele>42.4</ele>
        <time>2021-06-20T09:13:50Z</time>
      </trkpt>
      <trkpt lat="39.7138200" lon="3.2178270">
        <ele>42.5</ele>
        <time>2021-06-20T09:13:51Z</time>
      </trkpt>
      <trkpt lat="39.7137720" lon="3.2178660">
        <ele>42.5</ele>
        <time>2021-06-20T09:13:52Z</time>
      </trkpt>
      <trkpt lat="39.7133160" lon="3.2182550">
        <ele>42.8</ele>
        <time>2021-06-20T09:14:01Z</time>
      </trkpt>
      <trkpt lat="39.7132660" lon="3.2182960">
        <ele>42.9</ele>
        <time>2021-06-20T09:14:02Z</time>
      </trkpt>
      <trkpt lat="39.7130670" lon="3.2184630">
        <ele>43.1</ele>
        <time>2021-06-20T09:14:06Z</time>
      </trkpt>
      <trkpt lat="39.7127300" lon="3.2187480">
        <ele>43.4</ele>
        <time>2021-06-20T09:14:13Z</time>
      </trkpt>
      <trkpt lat="39.7122500" lon="3.2191660">
        <ele>43.8</ele>
        <time>2021-06-20T09:14:23Z</time>
      </trkpt>
      <trkpt lat="39.7117880" lon="3.2196470">
        <ele>44.4</ele>
        <time>2021-06-20T09:14:33Z</time>
      </trkpt>
      <trkpt lat="39.7114550" lon="3.2200930">
        <ele>44.8</ele>
        <time>2021-06-20T09:14:41Z</time>
      </trkpt>
      <trkpt lat="39.7111340" lon="3.2205880">
        <ele>45.0</ele>
        <time>2021-06-20T09:14:49Z</time>
      </trkpt>
      <trkpt lat="39.7107730" lon="3.2211500">
        <ele>45.1</ele>
        <time>2021-06-20T09:14:58Z</time>
      </trkpt>
      <trkpt lat="39.7104210" lon="3.2217050">
        <ele>45.0</ele>
        <time>2021-06-20T09:15:07Z</time>
      </trkpt>
      <trkpt lat="39.7103810" lon="3.2217670">
        <ele>44.9</ele>
        <time>2021-06-20T09:15:08Z</time>
      </trkpt>
      <trkpt lat="39.7103030" lon="3.2218920">
        <ele>44.9</ele>
        <time>2021-06-20T09:15:10Z</time>
      </trkpt>
      <trkpt lat="39.7101750" lon="3.2220910">
        <ele>44.7</ele>
        <time>2021-06-20T09:15:13Z</time>
      </trkpt>
      <trkpt lat="39.7098300" lon="3.2225310">
        <ele>44.3</ele>
        <time>2021-06-20T09:15:20Z</time>
      </trkpt>
      <trkpt lat="39.7093780" lon="3.2228980">
        <ele>43.6</ele>
        <time>2021-06-20T09:15:28Z</time>
      </trkpt>
      <trkpt lat="39.7091350" lon="3.2230200">
        <ele>43.3</ele>
        <time>2021-06-20T09:15:32Z</time>
      </trkpt>
      <trkpt lat="39.7089200" lon="3.2230920">
        <ele>43.0</ele>
        <time>2021-06-20T09:15:35Z</time>
      </trkpt>
      <trkpt lat="39.7085740" lon="3.2231460">
        <ele>42.4</ele>
        <time>2021-06-20T09:15:40Z</time>
      </trkpt>
      <trkpt lat="39.7085050" lon="3.2231510">
        <ele>42.3</ele>
        <time>2021-06-20T09:15:41Z</time>
      </trkpt>
      <trkpt lat="39.7080950" lon="3.2231250">
        <ele>41.2</ele>
        <time>2021-06-20T09:15:47Z</time>
      </trkpt>
      <trkpt lat="39.7079480" lon="3.2230990">
        <ele>40.6</ele>
        <time>2021-06-20T09:15:49Z</time>
      </trkpt>
      <trkpt lat="39.7073450" lon="3.2230090">
        <ele>37.5</ele>
        <time>2021-06-20T09:15:57Z</time>
      </trkpt>
      <trkpt lat="39.7072680" lon="3.2230050">
        <ele>37.0</ele>
        <time>2021-06-20T09:15:58Z</time>
      </trkpt>
      <trkpt lat="39.7067900" lon="3.2230850">
        <ele>34.0</ele>
        <time>2021-06-20T09:16:04Z</time>
      </trkpt>
      <trkpt lat="39.7064180" lon="3.2232960">
        <ele>31.4</ele>
        <time>2021-06-20T09:16:09Z</time>
      </trkpt>
      <trkpt lat="39.7063470" lon="3.2233510">
        <ele>30.9</ele>
        <time>2021-06-20T09:16:10Z</time>
      </trkpt>
      <trkpt lat="39.7062110" lon="3.2234710">
        <ele>29.9</ele>
        <time>2021-06-20T09:16:12Z</time>
      </trkpt>
      <trkpt lat="39.7060810" lon="3.2236120">
        <ele>28.7</ele>
        <time>2021-06-20T09:16:14Z</time>
      </trkpt>
      <trkpt lat="39.7059510" lon="3.2237630">
        <ele>27.6</ele>
        <time>2021-06-20T09:16:16Z</time>
      </trkpt>
      <trkpt lat="39.7057540" lon="3.2239850">
        <ele>25.9</ele>
        <time>2021-06-20T09:16:19Z</time>
      </trkpt>
      <trkpt lat="39.7054890" lon="3.2242810">
        <ele>23.7</ele>
        <time>2021-06-20T09:16:23Z</time>
      </trkpt>
      <trkpt lat="39.7051750" lon="3.2245420">
        <ele>21.0</ele>
        <time>2021-06-20T09:16:27Z</time>
      </trkpt>
      <trkpt lat="39.7050880" lon="3.2245810">
        <ele>20.3</ele>
        <time>2021-06-20T09:16:28Z</time>
      </trkpt>
      <trkpt lat="39.7047360" lon="3.2246490">
        <ele>17.6</ele>
        <time>2021-06-20T09:16:32Z</time>
      </trkpt>
      <trkpt lat="39.7044780" lon="3.2246320">
        <ele>15.9</ele>
        <time>2021-06-20T09:16:35Z</time>
      </trkpt>
      <trkpt lat="39.7043950" lon="3.2246230">
        <ele>15.3</ele>
        <time>2021-06-20T09:16:36Z</time>
      </trkpt>
      <trkpt lat="39.7042280" lon="3.2246120">
        <ele>14.1</ele>
        <time>2021-06-20T09:16:38Z</time>
      </trkpt>
      <trkpt lat="39.7038340" lon="3.2246280">
        <ele>11.3</ele>
        <time>2021-06-20T09:16:43Z</time>
      </trkpt>
      <trkpt lat="39.7035980" lon="3.2247070">
        <ele>9.8</ele>
        <time>2021-06-20T09:16:46Z</time>
      </trkpt>
      <trkpt lat="39.7034490" lon="3.2248070">
        <ele>9.0</ele>
        <time>2021-06-20T09:16:48Z</time>
      </trkpt>
      <trkpt lat="39.7033170" lon="3.2249490">
        <ele>8.3</ele>
        <time>2021-06-20T09:16:50Z</time>
      </trkpt>
      <trkpt lat="39.7032090" lon="3.2251400">
        <ele>7.6</ele>
        <time>2021-06-20T09:16:52Z</time>
      </trkpt>
      <trkpt lat="39.7031310" lon="3.2253630">
        <ele>7.2</ele>
        <time>2021-06-20T09:16:54Z</time>
      </trkpt>
      <trkpt lat="39.7031160" lon="3.2254900">
        <ele>7.0</ele>
        <time>2021-06-20T09:16:55Z</time>
      </trkpt>
      <trkpt lat="39.7031120" lon="3.2256200">
        <ele>6.5</ele>
        <time>2021-06-20T09:16:56Z</time>
      </trkpt>
      <trkpt lat="39.7031340" lon="3.2258720">
        <ele>5.8</ele>
        <time>2021-06-20T09:16:58Z</time>
      </trkpt>
      <trkpt lat="39.7032660" lon="3.2265390">
        <ele>5.5</ele>
        <time>2021-06-20T09:17:04Z</time>
      </trkpt>
      <trkpt lat="39.7033710" lon="3.2270480">
        <ele>7.7</ele>
        <time>2021-06-20T09:17:10Z</time>
      </trkpt>
      <trkpt lat="39.7034340" lon="3.2273330">
        <ele>9.5</ele>
        <time>2021-06-20T09:17:15Z</time>
      </trkpt>
      <trkpt lat="39.7034540" lon="3.2274360">
        <ele>10.2</ele>
        <time>2021-06-20T09:17:17Z</time>
      </trkpt>
      <trkpt lat="39.7034740" lon="3.2275310">
        <ele>10.9</ele>
        <time>2021-06-20T09:17:19Z</time>
      </trkpt>
      <trkpt lat="39.7034970" lon="3.2276230">
        <ele>11.6</ele>
        <time>2021-06-20T09:17:21Z</time>
      </trkpt>
      <trkpt lat="39.7035070" lon="3.2276700">
        <ele>12.0</ele>
        <time>2021-06-20T09:17:22Z</time>
      </trkpt>
      <trkpt lat="39.7035230" lon="3.2277610">
        <ele>12.7</ele>
        <time>2021-06-20T09:17:24Z</time>
      </trkpt>
      <trkpt lat="39.7035340" lon="3.2278050">
        <ele>13.0</ele>
        <time>2021-06-20T09:17:25Z</time>
      </trkpt>
      <trkpt lat="39.7035460" lon="3.2278490">
        <ele>13.4</ele>
        <time>2021-06-20T09:17:26Z</time>
      </trkpt>
      <trkpt lat="39.7035580" lon="3.2278940">
        <ele>13.7</ele>
        <time>2021-06-20T09:17:27Z</time>
      </trkpt>
      <trkpt lat="39.7035790" lon="3.2279900">
        <ele>14.5</ele>
        <time>2021-06-20T09:17:29Z</time>
      </trkpt>
      <trkpt lat="39.7036010" lon="3.2280810">
        <ele>15.2</ele>
        <time>2021-06-20T09:17:31Z</time>
      </trkpt>
      <trkpt lat="39.7036080" lon="3.2281230">
        <ele>15.5</ele>
        <time>2021-06-20T09:17:32Z</time>
      </trkpt>
      <trkpt lat="39.7036150" lon="3.2281660">
        <ele>15.8</ele>
        <time>2021-06-20T09:17:33Z</time>
      </trkpt>
      <trkpt lat="39.7036260" lon="3.2282110">
        <ele>16.1</ele>
        <time>2021-06-20T09:17:34Z</time>
      </trkpt>
      <trkpt lat="39.7036440" lon="3.2283000">
        <ele>16.7</ele>
        <time>2021-06-20T09:17:36Z</time>
      </trkpt>
      <trkpt lat="39.7036890" lon="3.2285230">
        <ele>18.2</ele>
        <time>2021-06-20T09:17:41Z</time>
      </trkpt>
      <trkpt lat="39.7037340" lon="3.2287430">
        <ele>19.5</ele>
        <time>2021-06-20T09:17:46Z</time>
      </trkpt>
      <trkpt lat="39.7037620" lon="3.2288750">
        <ele>20.3</ele>
        <time>2021-06-20T09:17:49Z</time>
      </trkpt>
      <trkpt lat="39.7037950" lon="3.2290020">
        <ele>21.0</ele>
        <time>2021-06-20T09:17:52Z</time>
      </trkpt>
      <trkpt lat="39.7038140" lon="3.2290850">
        <ele>21.5</ele>
        <time>2021-06-20T09:17:54Z</time>
      </trkpt>
      <trkpt lat="39.7039180" lon="3.2295360">
        <ele>24.5</ele>
        <time>2021-06-20T09:18:05Z</time>
      </trkpt>
      <trkpt lat="39.7039850" lon="3.2297840">
        <ele>26.2</ele>
        <time>2021-06-20T09:18:11Z</time>
      </trkpt>
      <trkpt lat="39.7040100" lon="3.2298600">
        <ele>26.7</ele>
        <time>2021-06-20T09:18:13Z</time>
      </trkpt>
      <trkpt lat="39.7041160" lon="3.2301230">
        <ele>28.6</ele>
        <time>2021-06-20T09:18:20Z</time>
      </trkpt>
      <trkpt lat="39.7042530" lon="3.2303970">
        <ele>30.7</ele>
        <time>2021-06-20T09:18:28Z</time>
      </trkpt>
      <trkpt lat="39.7044620" lon="3.2306530">
        <ele>32.9</ele>
        <time>2021-06-20T09:18:37Z</time>
      </trkpt>
      <trkpt lat="39.7047070" lon="3.2308990">
        <ele>35.2</ele>
        <time>2021-06-20T09:18:47Z</time>
      </trkpt>
      <trkpt lat="39.7049920" lon="3.2310980">
        <ele>37.5</ele>
        <time>2021-06-20T09:18:57Z</time>
      </trkpt>
      <trkpt lat="39.7051850" lon="3.2312340">
        <ele>39.0</ele>
        <time>2021-06-20T09:19:04Z</time>
      </trkpt>
      <trkpt lat="39.7054280" lon="3.2314330">
        <ele>41.0</ele>
        <time>2021-06-20T09:19:13Z</time>
      </trkpt>
      <trkpt lat="39.7056420" lon="3.2316690">
        <ele>42.9</ele>
        <time>2021-06-20T09:19:21Z</time>
      </trkpt>
      <trkpt lat="39.7058210" lon="3.2319640">
        <ele>44.7</ele>
        <time>2021-06-20T09:19:29Z</time>
      </trkpt>
      <trkpt lat="39.7059470" lon="3.2322560">
        <ele>46.0</ele>
        <time>2021-06-20T09:19:36Z</time>
      </trkpt>
      <trkpt lat="39.7060330" lon="3.2326220">
        <ele>47.2</ele>
        <time>2021-06-20T09:19:44Z</time>
      </trkpt>
      <trkpt lat="39.7060680" lon="3.2329360">
        <ele>48.1</ele>
        <time>2021-06-20T09:19:50Z</time>
      </trkpt>
      <trkpt lat="39.7060690" lon="3.2331490">
        <ele>48.6</ele>
        <time>2021-06-20T09:19:54Z</time>
      </trkpt>
      <trkpt lat="39.7060260" lon="3.2335890">
        <ele>49.7</ele>
        <time>2021-06-20T09:20:02Z</time>
      </trkpt>
      <trkpt lat="39.7059420" lon="3.2339120">
        <ele>50.6</ele>
        <time>2021-06-20T09:20:08Z</time>
      </trkpt>
      <trkpt lat="39.7058690" lon="3.2340970">
        <ele>51.1</ele>
        <time>2021-06-20T09:20:12Z</time>
      </trkpt>
      <trkpt lat="39.7057120" lon="3.2344560">
        <ele>52.1</ele>
        <time>2021-06-20T09:20:20Z</time>
      </trkpt>
      <trkpt lat="39.7054660" lon="3.2349830">
        <ele>53.5</ele>
        <time>2021-06-20T09:20:32Z</time>
      </trkpt>
      <trkpt lat="39.7052370" lon="3.2354590">
        <ele>54.6</ele>
        <time>2021-06-20T09:20:43Z</time>
      </trkpt>
      <trkpt lat="39.7051240" lon="3.2356860">
        <ele>55.3</ele>
        <time>2021-06-20T09:20:48Z</time>
      </trkpt>
      <trkpt lat="39.7050090" lon="3.2359330">
        <ele>56.0</ele>
        <time>2021-06-20T09:20:53Z</time>
      </trkpt>
      <trkpt lat="39.7048220" lon="3.2363150">
        <ele>57.2</ele>
        <time>2021-06-20T09:21:01Z</time>
      </trkpt>
      <trkpt lat="39.7047140" lon="3.2365550">
        <ele>57.9</ele>
        <time>2021-06-20T09:21:06Z</time>
      </trkpt>
      <trkpt lat="39.7046760" lon="3.2366250">
        <ele>58.1</ele>
        <time>2021-06-20T09:21:08Z</time>
      </trkpt>
      <trkpt lat="39.7046190" lon="3.2367470">
        <ele>58.5</ele>
        <time>2021-06-20T09:21:12Z</time>
      </trkpt>
      <trkpt lat="39.7045890" lon="3.2368110">
        <ele>58.7</ele>
        <time>2021-06-20T09:21:14Z</time>
      </trkpt>
      <trkpt lat="39.7045750" lon="3.2368410">
        <ele>58.8</ele>
        <time>2021-06-20T09:21:15Z</time>
      </trkpt>
      <trkpt lat="39.7044490" lon="3.2371620">
        <ele>59.6</ele>
        <time>2021-06-20T09:21:23Z</time>
      </trkpt>
      <trkpt lat="39.7043220" lon="3.2376240">
        <ele>60.8</ele>
        <time>2021-06-20T09:21:32Z</time>
      </trkpt>
      <trkpt lat="39.7042460" lon="3.2380010">
        <ele>61.7</ele>
        <time>2021-06-20T09:21:39Z</time>
      </trkpt>
      <trkpt lat="39.7041850" lon="3.2385640">
        <ele>63.1</ele>
        <time>2021-06-20T09:21:49Z</time>
      </trkpt>
      <trkpt lat="39.7041910" lon="3.2390860">
        <ele>64.2</ele>
        <time>2021-06-20T09:21:58Z</time>
      </trkpt>
      <trkpt lat="39.7042300" lon="3.2396170">
        <ele>65.2</ele>
        <time>2021-06-20T09:22:07Z</time>
      </trkpt>
      <trkpt lat="39.7043000" lon="3.2402930">
        <ele>66.2</ele>
        <time>2021-06-20T09:22:18Z</time>
      </trkpt>
      <trkpt lat="39.7043490" lon="3.2408160">
        <ele>66.8</ele>
        <time>2021-06-20T09:22:26Z</time>
      </trkpt>
      <trkpt lat="39.7043730" lon="3.2411190">
        <ele>67.1</ele>
        <time>2021-06-20T09:22:31Z</time>
      </trkpt>
      <trkpt lat="39.7043900" lon="3.2413050">
        <ele>67.3</ele>
        <time>2021-06-20T09:22:34Z</time>
      </trkpt>
      <trkpt lat="39.7044340" lon="3.2418230">
        <ele>67.8</ele>
        <time>2021-06-20T09:22:42Z</time>
      </trkpt>
      <trkpt lat="39.7044420" lon="3.2419540">
        <ele>68.0</ele>
        <time>2021-06-20T09:22:44Z</time>
      </trkpt>
      <trkpt lat="39.7044950" lon="3.2426830">
        <ele>68.9</ele>
        <time>2021-06-20T09:22:55Z</time>
      </trkpt>
      <trkpt lat="39.7045080" lon="3.2432880">
        <ele>69.7</ele>
        <time>2021-06-20T09:23:04Z</time>
      </trkpt>
      <trkpt lat="39.7044950" lon="3.2435750">
        <ele>70.2</ele>
        <time>2021-06-20T09:23:08Z</time>
      </trkpt>
      <trkpt lat="39.7044780" lon="3.2438260">
        <ele>70.5</ele>
        <time>2021-06-20T09:23:12Z</time>
      </trkpt>
      <trkpt lat="39.7043980" lon="3.2443950">
        <ele>71.5</ele>
        <time>2021-06-20T09:23:21Z</time>
      </trkpt>
      <trkpt lat="39.7043030" lon="3.2448650">
        <ele>72.7</ele>
        <time>2021-06-20T09:23:29Z</time>
      </trkpt>
      <trkpt lat="39.7041810" lon="3.2452980">
        <ele>73.8</ele>
        <time>2021-06-20T09:23:37Z</time>
      </trkpt>
      <trkpt lat="39.7041640" lon="3.2453500">
        <ele>74.0</ele>
        <time>2021-06-20T09:23:38Z</time>
      </trkpt>
      <trkpt lat="39.7039890" lon="3.2457980">
        <ele>75.4</ele>
        <time>2021-06-20T09:23:47Z</time>
      </trkpt>
      <trkpt lat="39.7038160" lon="3.2461640">
        <ele>76.7</ele>
        <time>2021-06-20T09:23:55Z</time>
      </trkpt>
      <trkpt lat="39.7036520" lon="3.2464640">
        <ele>77.8</ele>
        <time>2021-06-20T09:24:02Z</time>
      </trkpt>
      <trkpt lat="39.7035320" lon="3.2466820">
        <ele>78.7</ele>
        <time>2021-06-20T09:24:07Z</time>
      </trkpt>
      <trkpt lat="39.7032650" lon="3.2471460">
        <ele>80.4</ele>
        <time>2021-06-20T09:24:18Z</time>
      </trkpt>
      <trkpt lat="39.7029790" lon="3.2476100">
        <ele>82.3</ele>
        <time>2021-06-20T09:24:29Z</time>
      </trkpt>
      <trkpt lat="39.7027190" lon="3.2480390">
        <ele>84.0</ele>
        <time>2021-06-20T09:24:39Z</time>
      </trkpt>
      <trkpt lat="39.7024710" lon="3.2484550">
        <ele>85.5</ele>
        <time>2021-06-20T09:24:49Z</time>
      </trkpt>
      <trkpt lat="39.7022070" lon="3.2489150">
        <ele>87.0</ele>
        <time>2021-06-20T09:25:00Z</time>
      </trkpt>
      <trkpt lat="39.7020000" lon="3.2492880">
        <ele>88.2</ele>
        <time>2021-06-20T09:25:09Z</time>
      </trkpt>
      <trkpt lat="39.7018000" lon="3.2497190">
        <ele>89.3</ele>
        <time>2021-06-20T09:25:18Z</time>
      </trkpt>
      <trkpt lat="39.7016360" lon="3.2501610">
        <ele>90.4</ele>
        <time>2021-06-20T09:25:27Z</time>
      </trkpt>
      <trkpt lat="39.7016200" lon="3.2502130">
        <ele>90.5</ele>
        <time>2021-06-20T09:25:28Z</time>
      </trkpt>
      <trkpt lat="39.7015890" lon="3.2503160">
        <ele>90.7</ele>
        <time>2021-06-20T09:25:30Z</time>
      </trkpt>
      <trkpt lat="39.7015270" lon="3.2505900">
        <ele>91.2</ele>
        <time>2021-06-20T09:25:35Z</time>
      </trkpt>
      <trkpt lat="39.7014600" lon="3.2510540">
        <ele>91.9</ele>
        <time>2021-06-20T09:25:43Z</time>
      </trkpt>
      <trkpt lat="39.7014540" lon="3.2511120">
        <ele>91.9</ele>
        <time>2021-06-20T09:25:44Z</time>
      </trkpt>
      <trkpt lat="39.7014350" lon="3.2514110">
        <ele>92.4</ele>
        <time>2021-06-20T09:25:49Z</time>
      </trkpt>
      <trkpt lat="39.7014080" lon="3.2519010">
        <ele>93.1</ele>
        <time>2021-06-20T09:25:57Z</time>
      </trkpt>
      <trkpt lat="39.7013970" lon="3.2522840">
        <ele>93.7</ele>
        <time>2021-06-20T09:26:03Z</time>
      </trkpt>
      <trkpt lat="39.7013920" lon="3.2524160">
        <ele>93.9</ele>
        <time>2021-06-20T09:26:05Z</time>
      </trkpt>
      <trkpt lat="39.7013620" lon="3.2531460">
        <ele>95.0</ele>
        <time>2021-06-20T09:26:16Z</time>
      </trkpt>
      <trkpt lat="39.7013340" lon="3.2538270">
        <ele>96.1</ele>
        <time>2021-06-20T09:26:26Z</time>
      </trkpt>
      <trkpt lat="39.7013130" lon="3.2545390">
        <ele>96.8</ele>
        <time>2021-06-20T09:26:36Z</time>
      </trkpt>
      <trkpt lat="39.7013090" lon="3.2546820">
        <ele>97.0</ele>
        <time>2021-06-20T09:26:38Z</time>
      </trkpt>
      <trkpt lat="39.7012960" lon="3.2551700">
        <ele>97.2</ele>
        <time>2021-06-20T09:26:45Z</time>
      </trkpt>
      <trkpt lat="39.7012930" lon="3.2553070">
        <ele>97.2</ele>
        <time>2021-06-20T09:26:47Z</time>
      </trkpt>
      <trkpt lat="39.7012820" lon="3.2555310">
        <ele>97.3</ele>
        <time>2021-06-20T09:26:50Z</time>
      </trkpt>
      <trkpt lat="39.7012720" lon="3.2558360">
        <ele>97.4</ele>
        <time>2021-06-20T09:26:54Z</time>
      </trkpt>
      <trkpt lat="39.7012560" lon="3.2564610">
        <ele>97.5</ele>
        <time>2021-06-20T09:27:02Z</time>
      </trkpt>
      <trkpt lat="39.7012430" lon="3.2568090">
        <ele>97.6</ele>
        <time>2021-06-20T09:27:06Z</time>
      </trkpt>
      <trkpt lat="39.7012370" lon="3.2571160">
        <ele>97.7</ele>
        <time>2021-06-20T09:27:10Z</time>
      </trkpt>
      <trkpt lat="39.7012310" lon="3.2573640">
        <ele>97.8</ele>
        <time>2021-06-20T09:27:13Z</time>
      </trkpt>
      <trkpt lat="39.7012110" lon="3.2581040">
        <ele>98.2</ele>
        <time>2021-06-20T09:27:22Z</time>
      </trkpt>
      <trkpt lat="39.7012040" lon="3.2583430">
        <ele>98.3</ele>
        <time>2021-06-20T09:27:25Z</time>
      </trkpt>
      <trkpt lat="39.7011910" lon="3.2587480">
        <ele>98.5</ele>
        <time>2021-06-20T09:27:30Z</time>
      </trkpt>
      <trkpt lat="39.7011710" lon="3.2594120">
        <ele>98.9</ele>
        <time>2021-06-20T09:27:38Z</time>
      </trkpt>
      <trkpt lat="39.7011610" lon="3.2598270">
        <ele>99.1</ele>
        <time>2021-06-20T09:27:43Z</time>
      </trkpt>
      <trkpt lat="39.7011510" lon="3.2602400">
        <ele>99.4</ele>
        <time>2021-06-20T09:27:48Z</time>
      </trkpt>
      <trkpt lat="39.7011470" lon="3.2604050">
        <ele>99.5</ele>
        <time>2021-06-20T09:27:50Z</time>
      </trkpt>
      <trkpt lat="39.7011340" lon="3.2607360">
        <ele>99.7</ele>
        <time>2021-06-20T09:27:54Z</time>
      </trkpt>
      <trkpt lat="39.7011240" lon="3.2611550">
        <ele>99.7</ele>
        <time>2021-06-20T09:27:59Z</time>
      </trkpt>
      <trkpt lat="39.7011120" lon="3.2616620">
        <ele>99.4</ele>
        <time>2021-06-20T09:28:05Z</time>
      </trkpt>
      <trkpt lat="39.7010920" lon="3.2620200">
        <ele>99.1</ele>
        <time>2021-06-20T09:28:09Z</time>
      </trkpt>
      <trkpt lat="39.7010610" lon="3.2627780">
        <ele>98.1</ele>
        <time>2021-06-20T09:28:17Z</time>
      </trkpt>
      <trkpt lat="39.7010470" lon="3.2628940">
        <ele>97.9</ele>
        <time>2021-06-20T09:28:18Z</time>
      </trkpt>
      <trkpt lat="39.7009670" lon="3.2632650">
        <ele>97.4</ele>
        <time>2021-06-20T09:28:22Z</time>
      </trkpt>
      <trkpt lat="39.7007770" lon="3.2639270">
        <ele>96.9</ele>
        <time>2021-06-20T09:28:29Z</time>
      </trkpt>
      <trkpt lat="39.7007430" lon="3.2640160">
        <ele>96.9</ele>
        <time>2021-06-20T09:28:30Z</time>
      </trkpt>
      <trkpt lat="39.7004900" lon="3.2645920">
        <ele>96.9</ele>
        <time>2021-06-20T09:28:37Z</time>
      </trkpt>
      <trkpt lat="39.7001380" lon="3.2651360">
        <ele>97.2</ele>
        <time>2021-06-20T09:28:45Z</time>
      </trkpt>
      <trkpt lat="39.6998560" lon="3.2654740">
        <ele>97.6</ele>
        <time>2021-06-20T09:28:52Z</time>
      </trkpt>
      <trkpt lat="39.6997110" lon="3.2656250">
        <ele>97.8</ele>
        <time>2021-06-20T09:28:56Z</time>
      </trkpt>
      <trkpt lat="39.6995990" lon="3.2657400">
        <ele>98.0</ele>
        <time>2021-06-20T09:28:59Z</time>
      </trkpt>
      <trkpt lat="39.6993120" lon="3.2660800">
        <ele>99.0</ele>
        <time>2021-06-20T09:29:07Z</time>
      </trkpt>
      <trkpt lat="39.6992480" lon="3.2661790">
        <ele>99.3</ele>
        <time>2021-06-20T09:29:09Z</time>
      </trkpt>
      <trkpt lat="39.6989220" lon="3.2667600">
        <ele>100.8</ele>
        <time>2021-06-20T09:29:20Z</time>
      </trkpt>
      <trkpt lat="39.6988670" lon="3.2668750">
        <ele>101.1</ele>
        <time>2021-06-20T09:29:22Z</time>
      </trkpt>
      <trkpt lat="39.6988200" lon="3.2669890">
        <ele>101.4</ele>
        <time>2021-06-20T09:29:24Z</time>
      </trkpt>
      <trkpt lat="39.6987220" lon="3.2672170">
        <ele>101.9</ele>
        <time>2021-06-20T09:29:28Z</time>
      </trkpt>
      <trkpt lat="39.6986300" lon="3.2674500">
        <ele>102.5</ele>
        <time>2021-06-20T09:29:32Z</time>
      </trkpt>
      <trkpt lat="39.6983910" lon="3.2680920">
        <ele>103.9</ele>
        <time>2021-06-20T09:29:43Z</time>
      </trkpt>
      <trkpt lat="39.6983470" lon="3.2682080">
        <ele>104.2</ele>
        <time>2021-06-20T09:29:45Z</time>
      </trkpt>
      <trkpt lat="39.6981010" lon="3.2688590">
        <ele>105.7</ele>
        <time>2021-06-20T09:29:56Z</time>
      </trkpt>
      <trkpt lat="39.6980790" lon="3.2689160">
        <ele>105.8</ele>
        <time>2021-06-20T09:29:57Z</time>
      </trkpt>
      <trkpt lat="39.6978740" lon="3.2694620">
        <ele>107.1</ele>
        <time>2021-06-20T09:30:07Z</time>
      </trkpt>
      <trkpt lat="39.6977950" lon="3.2696740">
        <ele>107.6</ele>
        <time>2021-06-20T09:30:11Z</time>
      </trkpt>
      <trkpt lat="39.6976990" lon="3.2699300">
        <ele>108.2</ele>
        <time>2021-06-20T09:30:16Z</time>
      </trkpt>
      <trkpt lat="39.6975760" lon="3.2702390">
        <ele>108.9</ele>
        <time>2021-06-20T09:30:22Z</time>
      </trkpt>
      <trkpt lat="39.6974710" lon="3.2705040">
        <ele>109.6</ele>
        <time>2021-06-20T09:30:27Z</time>
      </trkpt>
      <trkpt lat="39.6972230" lon="3.2711680">
        <ele>111.0</ele>
        <time>2021-06-20T09:30:39Z</time>
      </trkpt>
      <trkpt lat="39.6970090" lon="3.2717030">
        <ele>112.3</ele>
        <time>2021-06-20T09:30:49Z</time>
      </trkpt>
      <trkpt lat="39.6968340" lon="3.2721730">
        <ele>113.5</ele>
        <time>2021-06-20T09:30:58Z</time>
      </trkpt>
      <trkpt lat="39.6966330" lon="3.2727110">
        <ele>114.8</ele>
        <time>2021-06-20T09:31:08Z</time>
      </trkpt>
      <trkpt lat="39.6964170" lon="3.2732810">
        <ele>116.1</ele>
        <time>2021-06-20T09:31:18Z</time>
      </trkpt>
      <trkpt lat="39.6962190" lon="3.2739170">
        <ele>117.5</ele>
        <time>2021-06-20T09:31:29Z</time>
      </trkpt>
      <trkpt lat="39.6960350" lon="3.2745970">
        <ele>119.0</ele>
        <time>2021-06-20T09:31:41Z</time>
      </trkpt>
      <trkpt lat="39.6958910" lon="3.2751720">
        <ele>120.2</ele>
        <time>2021-06-20T09:31:51Z</time>
      </trkpt>
      <trkpt lat="39.6957940" lon="3.2755930">
        <ele>120.9</ele>
        <time>2021-06-20T09:31:58Z</time>
      </trkpt>
      <trkpt lat="39.6956590" lon="3.2763040">
        <ele>121.9</ele>
        <time>2021-06-20T09:32:09Z</time>
      </trkpt>
      <trkpt lat="39.6955690" lon="3.2768470">
        <ele>122.5</ele>
        <time>2021-06-20T09:32:17Z</time>
      </trkpt>
      <trkpt lat="39.6954820" lon="3.2774200">
        <ele>123.1</ele>
        <time>2021-06-20T09:32:25Z</time>
      </trkpt>
      <trkpt lat="39.6954550" lon="3.2776360">
        <ele>123.3</ele>
        <time>2021-06-20T09:32:28Z</time>
      </trkpt>
      <trkpt lat="39.6953740" lon="3.2783470">
        <ele>124.0</ele>
        <time>2021-06-20T09:32:38Z</time>
      </trkpt>
      <trkpt lat="39.6953680" lon="3.2784190">
        <ele>124.1</ele>
        <time>2021-06-20T09:32:39Z</time>
      </trkpt>
      <trkpt lat="39.6953090" lon="3.2791400">
        <ele>124.7</ele>
        <time>2021-06-20T09:32:49Z</time>
      </trkpt>
      <trkpt lat="39.6953020" lon="3.2792110">
        <ele>124.7</ele>
        <time>2021-06-20T09:32:50Z</time>
      </trkpt>
      <trkpt lat="39.6952570" lon="3.2799320">
        <ele>125.3</ele>
        <time>2021-06-20T09:33:00Z</time>
      </trkpt>
      <trkpt lat="39.6951970" lon="3.2806540">
        <ele>125.9</ele>
        <time>2021-06-20T09:33:10Z</time>
      </trkpt>
      <trkpt lat="39.6951280" lon="3.2813840">
        <ele>126.5</ele>
        <time>2021-06-20T09:33:20Z</time>
      </trkpt>
      <trkpt lat="39.6951210" lon="3.2814550">
        <ele>126.6</ele>
        <time>2021-06-20T09:33:21Z</time>
      </trkpt>
      <trkpt lat="39.6950310" lon="3.2820830">
        <ele>127.1</ele>
        <time>2021-06-20T09:33:30Z</time>
      </trkpt>
      <trkpt lat="39.6949490" lon="3.2825900">
        <ele>127.6</ele>
        <time>2021-06-20T09:33:38Z</time>
      </trkpt>
      <trkpt lat="39.6949380" lon="3.2826560">
        <ele>127.6</ele>
        <time>2021-06-20T09:33:39Z</time>
      </trkpt>
      <trkpt lat="39.6948000" lon="3.2833550">
        <ele>128.2</ele>
        <time>2021-06-20T09:33:50Z</time>
      </trkpt>
      <trkpt lat="39.6946690" lon="3.2838620">
        <ele>129.1</ele>
        <time>2021-06-20T09:33:58Z</time>
      </trkpt>
      <trkpt lat="39.6945620" lon="3.2842100">
        <ele>130.0</ele>
        <time>2021-06-20T09:34:04Z</time>
      </trkpt>
      <trkpt lat="39.6944940" lon="3.2844210">
        <ele>130.8</ele>
        <time>2021-06-20T09:34:08Z</time>
      </trkpt>
      <trkpt lat="39.6943670" lon="3.2848380">
        <ele>132.6</ele>
        <time>2021-06-20T09:34:17Z</time>
      </trkpt>
      <trkpt lat="39.6942460" lon="3.2851830">
        <ele>134.3</ele>
        <time>2021-06-20T09:34:25Z</time>
      </trkpt>
      <trkpt lat="39.6941800" lon="3.2853920">
        <ele>135.4</ele>
        <time>2021-06-20T09:34:30Z</time>
      </trkpt>
      <trkpt lat="39.6941410" lon="3.2855140">
        <ele>135.9</ele>
        <time>2021-06-20T09:34:33Z</time>
      </trkpt>
      <trkpt lat="39.6941120" lon="3.2855990">
        <ele>136.3</ele>
        <time>2021-06-20T09:34:35Z</time>
      </trkpt>
      <trkpt lat="39.6940210" lon="3.2858530">
        <ele>137.6</ele>
        <time>2021-06-20T09:34:41Z</time>
      </trkpt>
      <trkpt lat="39.6939960" lon="3.2859340">
        <ele>138.1</ele>
        <time>2021-06-20T09:34:43Z</time>
      </trkpt>
      <trkpt lat="39.6939140" lon="3.2861840">
        <ele>139.5</ele>
        <time>2021-06-20T09:34:49Z</time>
      </trkpt>
      <trkpt lat="39.6938700" lon="3.2863080">
        <ele>140.1</ele>
        <time>2021-06-20T09:34:52Z</time>
      </trkpt>
      <trkpt lat="39.6936860" lon="3.2868650">
        <ele>143.0</ele>
        <time>2021-06-20T09:35:05Z</time>
      </trkpt>
      <trkpt lat="39.6935310" lon="3.2873230">
        <ele>145.4</ele>
        <time>2021-06-20T09:35:16Z</time>
      </trkpt>
      <trkpt lat="39.6933830" lon="3.2877940">
        <ele>147.8</ele>
        <time>2021-06-20T09:35:27Z</time>
      </trkpt>
      <trkpt lat="39.6932070" lon="3.2883260">
        <ele>150.7</ele>
        <time>2021-06-20T09:35:40Z</time>
      </trkpt>
      <trkpt lat="39.6930840" lon="3.2886960">
        <ele>153.0</ele>
        <time>2021-06-20T09:35:50Z</time>
      </trkpt>
      <trkpt lat="39.6929930" lon="3.2889600">
        <ele>154.8</ele>
        <time>2021-06-20T09:35:57Z</time>
      </trkpt>
      <trkpt lat="39.6929590" lon="3.2890390">
        <ele>155.4</ele>
        <time>2021-06-20T09:35:59Z</time>
      </trkpt>
      <trkpt lat="39.6928960" lon="3.2892170">
        <ele>156.6</ele>
        <time>2021-06-20T09:36:04Z</time>
      </trkpt>
      <trkpt lat="39.6928730" lon="3.2892900">
        <ele>157.1</ele>
        <time>2021-06-20T09:36:06Z</time>
      </trkpt>
      <trkpt lat="39.6928630" lon="3.2893230">
        <ele>157.3</ele>
        <time>2021-06-20T09:36:07Z</time>
      </trkpt>
      <trkpt lat="39.6927700" lon="3.2896350">
        <ele>159.5</ele>
        <time>2021-06-20T09:36:16Z</time>
      </trkpt>
      <trkpt lat="39.6927200" lon="3.2898080">
        <ele>160.7</ele>
        <time>2021-06-20T09:36:21Z</time>
      </trkpt>
      <trkpt lat="39.6926740" lon="3.2899910">
        <ele>161.9</ele>
        <time>2021-06-20T09:36:26Z</time>
      </trkpt>
      <trkpt lat="39.6925840" lon="3.2903870">
        <ele>164.4</ele>
        <time>2021-06-20T09:36:37Z</time>
      </trkpt>
      <trkpt lat="39.6925250" lon="3.2907510">
        <ele>166.6</ele>
        <time>2021-06-20T09:36:47Z</time>
      </trkpt>
      <trkpt lat="39.6924740" lon="3.2911120">
        <ele>168.9</ele>
        <time>2021-06-20T09:36:57Z</time>
      </trkpt>
      <trkpt lat="39.6924570" lon="3.2913430">
        <ele>170.3</ele>
        <time>2021-06-20T09:37:03Z</time>
      </trkpt>
      <trkpt lat="39.6924530" lon="3.2914210">
        <ele>170.7</ele>
        <time>2021-06-20T09:37:05Z</time>
      </trkpt>
      <trkpt lat="39.6924470" lon="3.2915700">
        <ele>171.6</ele>
        <time>2021-06-20T09:37:09Z</time>
      </trkpt>
      <trkpt lat="39.6924370" lon="3.2917770">
        <ele>172.9</ele>
        <time>2021-06-20T09:37:15Z</time>
      </trkpt>
      <trkpt lat="39.6924340" lon="3.2919210">
        <ele>173.8</ele>
        <time>2021-06-20T09:37:19Z</time>
      </trkpt>
      <trkpt lat="39.6924350" lon="3.2920660">
        <ele>174.6</ele>
        <time>2021-06-20T09:37:23Z</time>
      </trkpt>
      <trkpt lat="39.6924370" lon="3.2921030">
        <ele>174.8</ele>
        <time>2021-06-20T09:37:24Z</time>
      </trkpt>
      <trkpt lat="39.6924430" lon="3.2925780">
        <ele>177.7</ele>
        <time>2021-06-20T09:37:37Z</time>
      </trkpt>
      <trkpt lat="39.6924610" lon="3.2929110">
        <ele>179.8</ele>
        <time>2021-06-20T09:37:46Z</time>
      </trkpt>
      <trkpt lat="39.6924950" lon="3.2932480">
        <ele>182.0</ele>
        <time>2021-06-20T09:37:55Z</time>
      </trkpt>
      <trkpt lat="39.6925560" lon="3.2936550">
        <ele>184.7</ele>
        <time>2021-06-20T09:38:06Z</time>
      </trkpt>
      <trkpt lat="39.6926210" lon="3.2940220">
        <ele>187.1</ele>
        <time>2021-06-20T09:38:16Z</time>
      </trkpt>
      <trkpt lat="39.6927210" lon="3.2944290">
        <ele>189.8</ele>
        <time>2021-06-20T09:38:27Z</time>
      </trkpt>
      <trkpt lat="39.6928260" lon="3.2948170">
        <ele>192.2</ele>
        <time>2021-06-20T09:38:37Z</time>
      </trkpt>
      <trkpt lat="39.6929650" lon="3.2953620">
        <ele>194.4</ele>
        <time>2021-06-20T09:38:50Z</time>
      </trkpt>
      <trkpt lat="39.6930270" lon="3.2956130">
        <ele>194.8</ele>
        <time>2021-06-20T09:38:56Z</time>
      </trkpt>
      <trkpt lat="39.6930550" lon="3.2957380">
        <ele>195.0</ele>
        <time>2021-06-20T09:38:59Z</time>
      </trkpt>
      <trkpt lat="39.6930820" lon="3.2958680">
        <ele>195.0</ele>
        <time>2021-06-20T09:39:02Z</time>
      </trkpt>
      <trkpt lat="39.6931440" lon="3.2961620">
        <ele>194.6</ele>
        <time>2021-06-20T09:39:08Z</time>
      </trkpt>
      <trkpt lat="39.6932280" lon="3.2965550">
        <ele>193.6</ele>
        <time>2021-06-20T09:39:14Z</time>
      </trkpt>
      <trkpt lat="39.6932420" lon="3.2966310">
        <ele>193.4</ele>
        <time>2021-06-20T09:39:15Z</time>
      </trkpt>
      <trkpt lat="39.6932950" lon="3.2968780">
        <ele>192.7</ele>
        <time>2021-06-20T09:39:18Z</time>
      </trkpt>
      <trkpt lat="39.6933070" lon="3.2969650">
        <ele>192.4</ele>
        <time>2021-06-20T09:39:19Z</time>
      </trkpt>
      <trkpt lat="39.6933370" lon="3.2971390">
        <ele>191.7</ele>
        <time>2021-06-20T09:39:21Z</time>
      </trkpt>
      <trkpt lat="39.6933790" lon="3.2974240">
        <ele>190.5</ele>
        <time>2021-06-20T09:39:24Z</time>
      </trkpt>
      <trkpt lat="39.6933920" lon="3.2975230">
        <ele>190.2</ele>
        <time>2021-06-20T09:39:25Z</time>
      </trkpt>
      <trkpt lat="39.6934200" lon="3.2977240">
        <ele>189.5</ele>
        <time>2021-06-20T09:39:27Z</time>
      </trkpt>
      <trkpt lat="39.6934510" lon="3.2979270">
        <ele>188.9</ele>
        <time>2021-06-20T09:39:29Z</time>
      </trkpt>
      <trkpt lat="39.6934800" lon="3.2981370">
        <ele>188.3</ele>
        <time>2021-06-20T09:39:31Z</time>
      </trkpt>
      <trkpt lat="39.6935620" lon="3.2986840">
        <ele>186.5</ele>
        <time>2021-06-20T09:39:36Z</time>
      </trkpt>
      <trkpt lat="39.6936230" lon="3.2991380">
        <ele>184.9</ele>
        <time>2021-06-20T09:39:40Z</time>
      </trkpt>
      <trkpt lat="39.6936930" lon="3.2996200">
        <ele>183.4</ele>
        <time>2021-06-20T09:39:44Z</time>
      </trkpt>
      <trkpt lat="39.6937460" lon="3.2999930">
        <ele>182.3</ele>
        <time>2021-06-20T09:39:47Z</time>
      </trkpt>
      <trkpt lat="39.6938560" lon="3.3007370">
        <ele>181.2</ele>
        <time>2021-06-20T09:39:53Z</time>
      </trkpt>
      <trkpt lat="39.6939330" lon="3.3012200">
        <ele>180.2</ele>
        <time>2021-06-20T09:39:57Z</time>
      </trkpt>
      <trkpt lat="39.6939610" lon="3.3014550">
        <ele>179.7</ele>
        <time>2021-06-20T09:39:59Z</time>
      </trkpt>
      <trkpt lat="39.6939790" lon="3.3016800">
        <ele>179.3</ele>
        <time>2021-06-20T09:40:01Z</time>
      </trkpt>
      <trkpt lat="39.6939920" lon="3.3017960">
        <ele>179.1</ele>
        <time>2021-06-20T09:40:02Z</time>
      </trkpt>
      <trkpt lat="39.6940210" lon="3.3020300">
        <ele>178.7</ele>
        <time>2021-06-20T09:40:04Z</time>
      </trkpt>
      <trkpt lat="39.6941200" lon="3.3027440">
        <ele>177.4</ele>
        <time>2021-06-20T09:40:10Z</time>
      </trkpt>
      <trkpt lat="39.6941760" lon="3.3032150">
        <ele>176.6</ele>
        <time>2021-06-20T09:40:14Z</time>
      </trkpt>
      <trkpt lat="39.6941870" lon="3.3033330">
        <ele>176.3</ele>
        <time>2021-06-20T09:40:15Z</time>
      </trkpt>
      <trkpt lat="39.6942240" lon="3.3038240">
        <ele>175.5</ele>
        <time>2021-06-20T09:40:19Z</time>
      </trkpt>
      <trkpt lat="39.6942600" lon="3.3044440">
        <ele>174.4</ele>
        <time>2021-06-20T09:40:24Z</time>
      </trkpt>
      <trkpt lat="39.6942540" lon="3.3051680">
        <ele>173.2</ele>
        <time>2021-06-20T09:40:30Z</time>
      </trkpt>
      <trkpt lat="39.6942360" lon="3.3055230">
        <ele>172.7</ele>
        <time>2021-06-20T09:40:33Z</time>
      </trkpt>
      <trkpt lat="39.6941710" lon="3.3062420">
        <ele>171.2</ele>
        <time>2021-06-20T09:40:39Z</time>
      </trkpt>
      <trkpt lat="39.6941560" lon="3.3063600">
        <ele>171.0</ele>
        <time>2021-06-20T09:40:40Z</time>
      </trkpt>
      <trkpt lat="39.6940580" lon="3.3070610">
        <ele>169.8</ele>
        <time>2021-06-20T09:40:46Z</time>
      </trkpt>
      <trkpt lat="39.6940390" lon="3.3071760">
        <ele>169.7</ele>
        <time>2021-06-20T09:40:47Z</time>
      </trkpt>
      <trkpt lat="39.6940010" lon="3.3074030">
        <ele>169.3</ele>
        <time>2021-06-20T09:40:49Z</time>
      </trkpt>
      <trkpt lat="39.6939800" lon="3.3075150">
        <ele>169.2</ele>
        <time>2021-06-20T09:40:50Z</time>
      </trkpt>
      <trkpt lat="39.6938390" lon="3.3081950">
        <ele>168.4</ele>
        <time>2021-06-20T09:40:56Z</time>
      </trkpt>
      <trkpt lat="39.6938150" lon="3.3083110">
        <ele>168.2</ele>
        <time>2021-06-20T09:40:57Z</time>
      </trkpt>
      <trkpt lat="39.6936710" lon="3.3089910">
        <ele>167.8</ele>
        <time>2021-06-20T09:41:03Z</time>
      </trkpt>
      <trkpt lat="39.6935770" lon="3.3094320">
        <ele>167.7</ele>
        <time>2021-06-20T09:41:07Z</time>
      </trkpt>
      <trkpt lat="39.6934130" lon="3.3101720">
        <ele>168.2</ele>
        <time>2021-06-20T09:41:14Z</time>
      </trkpt>
      <trkpt lat="39.6933920" lon="3.3102720">
        <ele>168.3</ele>
        <time>2021-06-20T09:41:15Z</time>
      </trkpt>
      <trkpt lat="39.6932230" lon="3.3110160">
        <ele>169.2</ele>
        <time>2021-06-20T09:41:23Z</time>
      </trkpt>
      <trkpt lat="39.6932030" lon="3.3111020">
        <ele>169.3</ele>
        <time>2021-06-20T09:41:24Z</time>
      </trkpt>
      <trkpt lat="39.6930550" lon="3.3117890">
        <ele>170.4</ele>
        <time>2021-06-20T09:41:32Z</time>
      </trkpt>
      <trkpt lat="39.6929350" lon="3.3125550">
        <ele>171.8</ele>
        <time>2021-06-20T09:41:41Z</time>
      </trkpt>
      <trkpt lat="39.6928850" lon="3.3130730">
        <ele>172.7</ele>
        <time>2021-06-20T09:41:47Z</time>
      </trkpt>
      <trkpt lat="39.6928770" lon="3.3131580">
        <ele>172.8</ele>
        <time>2021-06-20T09:41:48Z</time>
      </trkpt>
      <trkpt lat="39.6928660" lon="3.3133280">
        <ele>173.0</ele>
        <time>2021-06-20T09:41:50Z</time>
      </trkpt>
      <trkpt lat="39.6928540" lon="3.3136860">
        <ele>173.2</ele>
        <time>2021-06-20T09:41:54Z</time>
      </trkpt>
      <trkpt lat="39.6928530" lon="3.3140360">
        <ele>173.3</ele>
        <time>2021-06-20T09:41:58Z</time>
      </trkpt>
      <trkpt lat="39.6928920" lon="3.3147640">
        <ele>173.2</ele>
        <time>2021-06-20T09:42:06Z</time>
      </trkpt>
      <trkpt lat="39.6929020" lon="3.3148600">
        <ele>173.2</ele>
        <time>2021-06-20T09:42:07Z</time>
      </trkpt>
      <trkpt lat="39.6929990" lon="3.3156390">
        <ele>172.7</ele>
        <time>2021-06-20T09:42:15Z</time>
      </trkpt>
      <trkpt lat="39.6930210" lon="3.3158330">
        <ele>172.4</ele>
        <time>2021-06-20T09:42:17Z</time>
      </trkpt>
      <trkpt lat="39.6930520" lon="3.3161210">
        <ele>172.0</ele>
        <time>2021-06-20T09:42:20Z</time>
      </trkpt>
      <trkpt lat="39.6930800" lon="3.3164150">
        <ele>171.5</ele>
        <time>2021-06-20T09:42:23Z</time>
      </trkpt>
      <trkpt lat="39.6930890" lon="3.3165130">
        <ele>171.3</ele>
        <time>2021-06-20T09:42:24Z</time>
      </trkpt>
      <trkpt lat="39.6931290" lon="3.3169290">
        <ele>170.6</ele>
        <time>2021-06-20T09:42:27Z</time>
      </trkpt>
      <trkpt lat="39.6931540" lon="3.3174730">
        <ele>169.5</ele>
        <time>2021-06-20T09:42:33Z</time>
      </trkpt>
      <trkpt lat="39.6931550" lon="3.3177020">
        <ele>169.0</ele>
        <time>2021-06-20T09:42:35Z</time>
      </trkpt>
      <trkpt lat="39.6931520" lon="3.3179320">
        <ele>168.5</ele>
        <time>2021-06-20T09:42:37Z</time>
      </trkpt>
      <trkpt lat="39.6931130" lon="3.3183900">
        <ele>167.5</ele>
        <time>2021-06-20T09:42:41Z</time>
      </trkpt>
      <trkpt lat="39.6930410" lon="3.3190960">
        <ele>166.4</ele>
        <time>2021-06-20T09:42:47Z</time>
      </trkpt>
      <trkpt lat="39.6930090" lon="3.3193280">
        <ele>166.0</ele>
        <time>2021-06-20T09:42:49Z</time>
      </trkpt>
      <trkpt lat="39.6928690" lon="3.3200080">
        <ele>164.6</ele>
        <time>2021-06-20T09:42:55Z</time>
      </trkpt>
      <trkpt lat="39.6928390" lon="3.3201210">
        <ele>164.4</ele>
        <time>2021-06-20T09:42:56Z</time>
      </trkpt>
      <trkpt lat="39.6926630" lon="3.3207860">
        <ele>163.1</ele>
        <time>2021-06-20T09:43:02Z</time>
      </trkpt>
      <trkpt lat="39.6926040" lon="3.3210120">
        <ele>162.6</ele>
        <time>2021-06-20T09:43:04Z</time>
      </trkpt>
      <trkpt lat="39.6925120" lon="3.3213510">
        <ele>161.9</ele>
        <time>2021-06-20T09:43:07Z</time>
      </trkpt>
      <trkpt lat="39.6923290" lon="3.3220320">
        <ele>160.4</ele>
        <time>2021-06-20T09:43:13Z</time>
      </trkpt>
      <trkpt lat="39.6922980" lon="3.3221470">
        <ele>160.2</ele>
        <time>2021-06-20T09:43:14Z</time>
      </trkpt>
      <trkpt lat="39.6921080" lon="3.3228430">
        <ele>159.2</ele>
        <time>2021-06-20T09:43:20Z</time>
      </trkpt>
      <trkpt lat="39.6919450" lon="3.3234330">
        <ele>158.4</ele>
        <time>2021-06-20T09:43:25Z</time>
      </trkpt>
      <trkpt lat="39.6917640" lon="3.3241240">
        <ele>157.9</ele>
        <time>2021-06-20T09:43:31Z</time>
      </trkpt>
      <trkpt lat="39.6916420" lon="3.3245730">
        <ele>157.8</ele>
        <time>2021-06-20T09:43:35Z</time>
      </trkpt>
      <trkpt lat="39.6914560" lon="3.3252560">
        <ele>157.4</ele>
        <time>2021-06-20T09:43:41Z</time>
      </trkpt>
      <trkpt lat="39.6913640" lon="3.3255960">
        <ele>157.1</ele>
        <time>2021-06-20T09:43:44Z</time>
      </trkpt>
      <trkpt lat="39.6912710" lon="3.3259340">
        <ele>156.8</ele>
        <time>2021-06-20T09:43:47Z</time>
      </trkpt>
      <trkpt lat="39.6910820" lon="3.3266230">
        <ele>155.9</ele>
        <time>2021-06-20T09:43:53Z</time>
      </trkpt>
      <trkpt lat="39.6908910" lon="3.3273310">
        <ele>154.5</ele>
        <time>2021-06-20T09:43:59Z</time>
      </trkpt>
      <trkpt lat="39.6906980" lon="3.3280710">
        <ele>153.0</ele>
        <time>2021-06-20T09:44:05Z</time>
      </trkpt>
      <trkpt lat="39.6905950" lon="3.3284370">
        <ele>152.3</ele>
        <time>2021-06-20T09:44:08Z</time>
      </trkpt>
      <trkpt lat="39.6904240" lon="3.3290510">
        <ele>151.4</ele>
        <time>2021-06-20T09:44:13Z</time>
      </trkpt>
      <trkpt lat="39.6902810" lon="3.3295120">
        <ele>151.0</ele>
        <time>2021-06-20T09:44:17Z</time>
      </trkpt>
      <trkpt lat="39.6901730" lon="3.3298480">
        <ele>150.7</ele>
        <time>2021-06-20T09:44:20Z</time>
      </trkpt>
      <trkpt lat="39.6899770" lon="3.3303870">
        <ele>150.4</ele>
        <time>2021-06-20T09:44:25Z</time>
      </trkpt>
      <trkpt lat="39.6897140" lon="3.3310070">
        <ele>150.2</ele>
        <time>2021-06-20T09:44:31Z</time>
      </trkpt>
      <trkpt lat="39.6895290" lon="3.3313960">
        <ele>149.9</ele>
        <time>2021-06-20T09:44:35Z</time>
      </trkpt>
      <trkpt lat="39.6891980" lon="3.3320410">
        <ele>149.6</ele>
        <time>2021-06-20T09:44:42Z</time>
      </trkpt>
      <trkpt lat="39.6891110" lon="3.3322140">
        <ele>149.5</ele>
        <time>2021-06-20T09:44:44Z</time>
      </trkpt>
      <trkpt lat="39.6888590" lon="3.3327070">
        <ele>149.3</ele>
        <time>2021-06-20T09:44:50Z</time>
      </trkpt>
      <trkpt lat="39.6886840" lon="3.3331210">
        <ele>149.2</ele>
        <time>2021-06-20T09:44:55Z</time>
      </trkpt>
      <trkpt lat="39.6886560" lon="3.3332100">
        <ele>149.2</ele>
        <time>2021-06-20T09:44:56Z</time>
      </trkpt>
      <trkpt lat="39.6885280" lon="3.3338640">
        <ele>148.8</ele>
        <time>2021-06-20T09:45:03Z</time>
      </trkpt>
      <trkpt lat="39.6885090" lon="3.3345210">
        <ele>147.9</ele>
        <time>2021-06-20T09:45:10Z</time>
      </trkpt>
      <trkpt lat="39.6885570" lon="3.3348990">
        <ele>147.3</ele>
        <time>2021-06-20T09:45:14Z</time>
      </trkpt>
      <trkpt lat="39.6885770" lon="3.3349930">
        <ele>147.1</ele>
        <time>2021-06-20T09:45:15Z</time>
      </trkpt>
      <trkpt lat="39.6885950" lon="3.3350880">
        <ele>146.9</ele>
        <time>2021-06-20T09:45:16Z</time>
      </trkpt>
      <trkpt lat="39.6886510" lon="3.3353440">
        <ele>146.4</ele>
        <time>2021-06-20T09:45:19Z</time>
      </trkpt>
      <trkpt lat="39.6886510" lon="3.3354130">
        <ele>146.2</ele>
        <time>2021-06-20T09:45:20Z</time>
      </trkpt>
      <trkpt lat="39.6886300" lon="3.3354680">
        <ele>146.1</ele>
        <time>2021-06-20T09:45:21Z</time>
      </trkpt>
      <trkpt lat="39.6885930" lon="3.3354850">
        <ele>146.2</ele>
        <time>2021-06-20T09:45:22Z</time>
      </trkpt>
      <trkpt lat="39.6885160" lon="3.3354380">
        <ele>146.3</ele>
        <time>2021-06-20T09:45:24Z</time>
      </trkpt>
      <trkpt lat="39.6884880" lon="3.3353920">
        <ele>146.4</ele>
        <time>2021-06-20T09:45:25Z</time>
      </trkpt>
      <trkpt lat="39.6884640" lon="3.3353480">
        <ele>146.4</ele>
        <time>2021-06-20T09:45:26Z</time>
      </trkpt>
      <trkpt lat="39.6883870" lon="3.3351640">
        <ele>146.6</ele>
        <time>2021-06-20T09:45:30Z</time>
      </trkpt>
      <trkpt lat="39.6882720" lon="3.3348770">
        <ele>146.2</ele>
        <time>2021-06-20T09:45:35Z</time>
      </trkpt>
      <trkpt lat="39.6881180" lon="3.3345130">
        <ele>146.1</ele>
        <time>2021-06-20T09:45:42Z</time>
      </trkpt>
      <trkpt lat="39.6880430" lon="3.3343390">
        <ele>146.1</ele>
        <time>2021-06-20T09:45:46Z</time>
      </trkpt>
      <trkpt lat="39.6880210" lon="3.3342960">
        <ele>146.1</ele>
        <time>2021-06-20T09:45:47Z</time>
      </trkpt>
      <trkpt lat="39.6880010" lon="3.3342440">
        <ele>146.1</ele>
        <time>2021-06-20T09:45:48Z</time>
      </trkpt>
      <trkpt lat="39.6878930" lon="3.3340140">
        <ele>146.3</ele>
        <time>2021-06-20T09:45:53Z</time>
      </trkpt>
      <trkpt lat="39.6878370" lon="3.3338810">
        <ele>146.4</ele>
        <time>2021-06-20T09:45:56Z</time>
      </trkpt>
      <trkpt lat="39.6878170" lon="3.3338340">
        <ele>146.5</ele>
        <time>2021-06-20T09:45:57Z</time>
      </trkpt>
      <trkpt lat="39.6877980" lon="3.3337870">
        <ele>146.5</ele>
        <time>2021-06-20T09:45:58Z</time>
      </trkpt>
      <trkpt lat="39.6877140" lon="3.3336200">
        <ele>146.7</ele>
        <time>2021-06-20T09:46:01Z</time>
      </trkpt>
      <trkpt lat="39.6876310" lon="3.3334450">
        <ele>147.1</ele>
        <time>2021-06-20T09:46:06Z</time>
      </trkpt>
      <trkpt lat="39.6874950" lon="3.3331340">
        <ele>147.9</ele>
        <time>2021-06-20T09:46:13Z</time>
      </trkpt>
      <trkpt lat="39.6874260" lon="3.3329960">
        <ele>148.3</ele>
        <time>2021-06-20T09:46:17Z</time>
      </trkpt>
      <trkpt lat="39.6873780" lon="3.3328810">
        <ele>148.6</ele>
        <time>2021-06-20T09:46:20Z</time>
      </trkpt>
      <trkpt lat="39.6872810" lon="3.3327200">
        <ele>149.2</ele>
        <time>2021-06-20T09:46:25Z</time>
      </trkpt>
      <trkpt lat="39.6872240" lon="3.3326070">
        <ele>149.6</ele>
        <time>2021-06-20T09:46:28Z</time>
      </trkpt>
      <trkpt lat="39.6872050" lon="3.3325660">
        <ele>149.7</ele>
        <time>2021-06-20T09:46:29Z</time>
      </trkpt>
      <trkpt lat="39.6871840" lon="3.3325270">
        <ele>149.8</ele>
        <time>2021-06-20T09:46:30Z</time>
      </trkpt>
      <trkpt lat="39.6871440" lon="3.3324480">
        <ele>150.0</ele>
        <time>2021-06-20T09:46:32Z</time>
      </trkpt>
      <trkpt lat="39.6871050" lon="3.3323610">
        <ele>150.2</ele>
        <time>2021-06-20T09:46:34Z</time>
      </trkpt>
      <trkpt lat="39.6870640" lon="3.3322720">
        <ele>150.4</ele>
        <time>2021-06-20T09:46:36Z</time>
      </trkpt>
      <trkpt lat="39.6870420" lon="3.3322270">
        <ele>150.5</ele>
        <time>2021-06-20T09:46:37Z</time>
      </trkpt>
      <trkpt lat="39.6868380" lon="3.3317970">
        <ele>151.2</ele>
        <time>2021-06-20T09:46:47Z</time>
      </trkpt>
      <trkpt lat="39.6866280" lon="3.3314090">
        <ele>152.1</ele>
        <time>2021-06-20T09:46:56Z</time>
      </trkpt>
      <trkpt lat="39.6864280" lon="3.3310140">
        <ele>152.9</ele>
        <time>2021-06-20T09:47:05Z</time>
      </trkpt>
      <trkpt lat="39.6862560" lon="3.3306730">
        <ele>153.7</ele>
        <time>2021-06-20T09:47:13Z</time>
      </trkpt>
      <trkpt lat="39.6861930" lon="3.3305450">
        <ele>154.1</ele>
        <time>2021-06-20T09:47:16Z</time>
      </trkpt>
      <trkpt lat="39.6860280" lon="3.3302040">
        <ele>155.4</ele>
        <time>2021-06-20T09:47:24Z</time>
      </trkpt>
      <trkpt lat="39.6859370" lon="3.3300240">
        <ele>156.2</ele>
        <time>2021-06-20T09:47:29Z</time>
      </trkpt>
      <trkpt lat="39.6859090" lon="3.3299640">
        <ele>156.4</ele>
        <time>2021-06-20T09:47:31Z</time>
      </trkpt>
      <trkpt lat="39.6857530" lon="3.3296510">
        <ele>157.7</ele>
        <time>2021-06-20T09:47:40Z</time>
      </trkpt>
      <trkpt lat="39.6856790" lon="3.3295000">
        <ele>158.3</ele>
        <time>2021-06-20T09:47:44Z</time>
      </trkpt>
      <trkpt lat="39.6856430" lon="3.3294240">
        <ele>158.6</ele>
        <time>2021-06-20T09:47:46Z</time>
      </trkpt>
      <trkpt lat="39.6855850" lon="3.3293100">
        <ele>159.0</ele>
        <time>2021-06-20T09:47:49Z</time>
      </trkpt>
      <trkpt lat="39.6854180" lon="3.3289960">
        <ele>160.3</ele>
        <time>2021-06-20T09:47:58Z</time>
      </trkpt>
      <trkpt lat="39.6853970" lon="3.3289580">
        <ele>160.4</ele>
        <time>2021-06-20T09:47:59Z</time>
      </trkpt>
      <trkpt lat="39.6852030" lon="3.3286450">
        <ele>161.9</ele>
        <time>2021-06-20T09:48:08Z</time>
      </trkpt>
      <trkpt lat="39.6850310" lon="3.3283740">
        <ele>163.2</ele>
        <time>2021-06-20T09:48:16Z</time>
      </trkpt>
      <trkpt lat="39.6848000" lon="3.3281220">
        <ele>164.7</ele>
        <time>2021-06-20T09:48:25Z</time>
      </trkpt>
      <trkpt lat="39.6845010" lon="3.3279510">
        <ele>166.6</ele>
        <time>2021-06-20T09:48:35Z</time>
      </trkpt>
      <trkpt lat="39.6843770" lon="3.3278870">
        <ele>167.7</ele>
        <time>2021-06-20T09:48:40Z</time>
      </trkpt>
      <trkpt lat="39.6842740" lon="3.3278320">
        <ele>168.7</ele>
        <time>2021-06-20T09:48:44Z</time>
      </trkpt>
      <trkpt lat="39.6841790" lon="3.3277810">
        <ele>169.8</ele>
        <time>2021-06-20T09:48:48Z</time>
      </trkpt>
      <trkpt lat="39.6841590" lon="3.3277670">
        <ele>170.0</ele>
        <time>2021-06-20T09:48:49Z</time>
      </trkpt>
      <trkpt lat="39.6841230" lon="3.3277430">
        <ele>170.4</ele>
        <time>2021-06-20T09:48:51Z</time>
      </trkpt>
      <trkpt lat="39.6840160" lon="3.3276870">
        <ele>171.6</ele>
        <time>2021-06-20T09:48:56Z</time>
      </trkpt>
      <trkpt lat="39.6838340" lon="3.3275550">
        <ele>173.4</ele>
        <time>2021-06-20T09:49:03Z</time>
      </trkpt>
      <trkpt lat="39.6837170" lon="3.3274120">
        <ele>174.3</ele>
        <time>2021-06-20T09:49:08Z</time>
      </trkpt>
      <trkpt lat="39.6836740" lon="3.3273400">
        <ele>174.6</ele>
        <time>2021-06-20T09:49:10Z</time>
      </trkpt>
      <trkpt lat="39.6836520" lon="3.3273020">
        <ele>174.7</ele>
        <time>2021-06-20T09:49:11Z</time>
      </trkpt>
      <trkpt lat="39.6835430" lon="3.3271020">
        <ele>174.7</ele>
        <time>2021-06-20T09:49:16Z</time>
      </trkpt>
      <trkpt lat="39.6834890" lon="3.3270080">
        <ele>174.4</ele>
        <time>2021-06-20T09:49:18Z</time>
      </trkpt>
      <trkpt lat="39.6834270" lon="3.3269050">
        <ele>174.0</ele>
        <time>2021-06-20T09:49:20Z</time>
      </trkpt>
      <trkpt lat="39.6832880" lon="3.3266560">
        <ele>172.8</ele>
        <time>2021-06-20T09:49:24Z</time>
      </trkpt>
      <trkpt lat="39.6831330" lon="3.3263930">
        <ele>171.8</ele>
        <time>2021-06-20T09:49:28Z</time>
      </trkpt>
      <trkpt lat="39.6830520" lon="3.3262660">
        <ele>171.5</ele>
        <time>2021-06-20T09:49:30Z</time>
      </trkpt>
      <trkpt lat="39.6830130" lon="3.3262060">
        <ele>171.3</ele>
        <time>2021-06-20T09:49:31Z</time>
      </trkpt>
      <trkpt lat="39.6828860" lon="3.3260090">
        <ele>170.9</ele>
        <time>2021-06-20T09:49:34Z</time>
      </trkpt>
      <trkpt lat="39.6827680" lon="3.3257980">
        <ele>170.7</ele>
        <time>2021-06-20T09:49:37Z</time>
      </trkpt>
      <trkpt lat="39.6826860" lon="3.3256630">
        <ele>170.9</ele>
        <time>2021-06-20T09:49:39Z</time>
      </trkpt>
      <trkpt lat="39.6825750" lon="3.3254860">
        <ele>171.4</ele>
        <time>2021-06-20T09:49:42Z</time>
      </trkpt>
      <trkpt lat="39.6824740" lon="3.3253270">
        <ele>171.9</ele>
        <time>2021-06-20T09:49:45Z</time>
      </trkpt>
      <trkpt lat="39.6823900" lon="3.3251930">
        <ele>172.2</ele>
        <time>2021-06-20T09:49:48Z</time>
      </trkpt>
      <trkpt lat="39.6823450" lon="3.3251300">
        <ele>172.4</ele>
        <time>2021-06-20T09:49:50Z</time>
      </trkpt>
      <trkpt lat="39.6821670" lon="3.3248710">
        <ele>173.6</ele>
        <time>2021-06-20T09:49:58Z</time>
      </trkpt>
      <trkpt lat="39.6819720" lon="3.3245600">
        <ele>174.9</ele>
        <time>2021-06-20T09:50:06Z</time>
      </trkpt>
      <trkpt lat="39.6818250" lon="3.3243520">
        <ele>175.1</ele>
        <time>2021-06-20T09:50:11Z</time>
      </trkpt>
      <trkpt lat="39.6817170" lon="3.3242180">
        <ele>175.0</ele>
        <time>2021-06-20T09:50:14Z</time>
      </trkpt>
      <trkpt lat="39.6816390" lon="3.3241290">
        <ele>174.9</ele>
        <time>2021-06-20T09:50:16Z</time>
      </trkpt>
      <trkpt lat="39.6814190" lon="3.3238720">
        <ele>174.8</ele>
        <time>2021-06-20T09:50:22Z</time>
      </trkpt>
      <trkpt lat="39.6811250" lon="3.3234910">
        <ele>174.9</ele>
        <time>2021-06-20T09:50:30Z</time>
      </trkpt>
      <trkpt lat="39.6810890" lon="3.3234440">
        <ele>175.0</ele>
        <time>2021-06-20T09:50:31Z</time>
      </trkpt>
      <trkpt lat="39.6808620" lon="3.3231110">
        <ele>175.9</ele>
        <time>2021-06-20T09:50:38Z</time>
      </trkpt>
      <trkpt lat="39.6808070" lon="3.3230220">
        <ele>176.2</ele>
        <time>2021-06-20T09:50:40Z</time>
      </trkpt>
      <trkpt lat="39.6805530" lon="3.3226350">
        <ele>177.8</ele>
        <time>2021-06-20T09:50:49Z</time>
      </trkpt>
      <trkpt lat="39.6804350" lon="3.3224670">
        <ele>178.6</ele>
        <time>2021-06-20T09:50:53Z</time>
      </trkpt>
      <trkpt lat="39.6803200" lon="3.3222900">
        <ele>179.5</ele>
        <time>2021-06-20T09:50:57Z</time>
      </trkpt>
      <trkpt lat="39.6801610" lon="3.3220510">
        <ele>180.4</ele>
        <time>2021-06-20T09:51:03Z</time>
      </trkpt>
      <trkpt lat="39.6800320" lon="3.3218190">
        <ele>181.0</ele>
        <time>2021-06-20T09:51:08Z</time>
      </trkpt>
      <trkpt lat="39.6798840" lon="3.3214250">
        <ele>181.6</ele>
        <time>2021-06-20T09:51:16Z</time>
      </trkpt>
      <trkpt lat="39.6796930" lon="3.3208880">
        <ele>181.9</ele>
        <time>2021-06-20T09:51:26Z</time>
      </trkpt>
      <trkpt lat="39.6796270" lon="3.3206690">
        <ele>181.9</ele>
        <time>2021-06-20T09:51:30Z</time>
      </trkpt>
      <trkpt lat="39.6795580" lon="3.3204920">
        <ele>181.6</ele>
        <time>2021-06-20T09:51:33Z</time>
      </trkpt>
      <trkpt lat="39.6794690" lon="3.3202310">
        <ele>181.0</ele>
        <time>2021-06-20T09:51:37Z</time>
      </trkpt>
      <trkpt lat="39.6794410" lon="3.3201630">
        <ele>180.8</ele>
        <time>2021-06-20T09:51:38Z</time>
      </trkpt>
      <trkpt lat="39.6794160" lon="3.3200940">
        <ele>180.6</ele>
        <time>2021-06-20T09:51:39Z</time>
      </trkpt>
      <trkpt lat="39.6793040" lon="3.3198090">
        <ele>179.6</ele>
        <time>2021-06-20T09:51:43Z</time>
      </trkpt>
      <trkpt lat="39.6791840" lon="3.3194960">
        <ele>178.5</ele>
        <time>2021-06-20T09:51:47Z</time>
      </trkpt>
      <trkpt lat="39.6791250" lon="3.3193380">
        <ele>178.1</ele>
        <time>2021-06-20T09:51:49Z</time>
      </trkpt>
      <trkpt lat="39.6790620" lon="3.3191880">
        <ele>177.6</ele>
        <time>2021-06-20T09:51:51Z</time>
      </trkpt>
      <trkpt lat="39.6790310" lon="3.3191120">
        <ele>177.4</ele>
        <time>2021-06-20T09:51:52Z</time>
      </trkpt>
      <trkpt lat="39.6789790" lon="3.3189650">
        <ele>176.9</ele>
        <time>2021-06-20T09:51:54Z</time>
      </trkpt>
      <trkpt lat="39.6789280" lon="3.3188170">
        <ele>176.3</ele>
        <time>2021-06-20T09:51:56Z</time>
      </trkpt>
      <trkpt lat="39.6787790" lon="3.3184020">
        <ele>174.4</ele>
        <time>2021-06-20T09:52:01Z</time>
      </trkpt>
      <trkpt lat="39.6787060" lon="3.3182110">
        <ele>173.6</ele>
        <time>2021-06-20T09:52:03Z</time>
      </trkpt>
      <trkpt lat="39.6785130" lon="3.3176940">
        <ele>172.0</ele>
        <time>2021-06-20T09:52:08Z</time>
      </trkpt>
      <trkpt lat="39.6784380" lon="3.3174900">
        <ele>171.7</ele>
        <time>2021-06-20T09:52:10Z</time>
      </trkpt>
      <trkpt lat="39.6784030" lon="3.3173910">
        <ele>171.7</ele>
        <time>2021-06-20T09:52:11Z</time>
      </trkpt>
      <trkpt lat="39.6783710" lon="3.3172940">
        <ele>171.7</ele>
        <time>2021-06-20T09:52:12Z</time>
      </trkpt>
      <trkpt lat="39.6783150" lon="3.3171080">
        <ele>171.8</ele>
        <time>2021-06-20T09:52:14Z</time>
      </trkpt>
      <trkpt lat="39.6781890" lon="3.3167420">
        <ele>172.4</ele>
        <time>2021-06-20T09:52:19Z</time>
      </trkpt>
      <trkpt lat="39.6781010" lon="3.3164520">
        <ele>172.9</ele>
        <time>2021-06-20T09:52:25Z</time>
      </trkpt>
      <trkpt lat="39.6780970" lon="3.3164140">
        <ele>173.0</ele>
        <time>2021-06-20T09:52:28Z</time>
      </trkpt>
      <trkpt lat="39.6780970" lon="3.3164140">
        <ele>173.0</ele>
        <time>2021-06-20T09:52:38Z</time>
      </trkpt>
      <trkpt lat="39.6780970" lon="3.3164140">
        <ele>173.0</ele>
        <time>2021-06-20T09:52:41Z</time>
      </trkpt>
      <trkpt lat="39.6780970" lon="3.3164140">
        <ele>173.0</ele>
        <time>2021-06-20T09:52:44Z</time>
      </trkpt>
      <trkpt lat="39.6780960" lon="3.3164140">
        <ele>173.0</ele>
        <time>2021-06-20T09:52:55Z</time>
      </trkpt>
      <trkpt lat="39.6780960" lon="3.3164140">
        <ele>173.0</ele>
        <time>2021-06-20T09:53:02Z</time>
      </trkpt>
      <trkpt lat="39.6780960" lon="3.3164140">
        <ele>173.0</ele>
        <time>2021-06-20T09:53:05Z</time>
      </trkpt>
      <trkpt lat="39.6780930" lon="3.3164180">
        <ele>173.0</ele>
        <time>2021-06-20T09:53:13Z</time>
      </trkpt>
      <trkpt lat="39.6780930" lon="3.3164180">
        <ele>173.0</ele>
        <time>2021-06-20T09:53:18Z</time>
      </trkpt>
      <trkpt lat="39.6780910" lon="3.3164180">
        <ele>173.0</ele>
        <time>2021-06-20T09:53:23Z</time>
      </trkpt>
      <trkpt lat="39.6780910" lon="3.3164170">
        <ele>173.0</ele>
        <time>2021-06-20T09:53:25Z</time>
      </trkpt>
      <trkpt lat="39.6780910" lon="3.3164170">
        <ele>173.0</ele>
        <time>2021-06-20T09:53:28Z</time>
      </trkpt>
      <trkpt lat="39.6780910" lon="3.3164170">
        <ele>173.0</ele>
        <time>2021-06-20T09:53:33Z</time>
      </trkpt>
      <trkpt lat="39.6780910" lon="3.3164170">
        <ele>173.0</ele>
        <time>2021-06-20T09:53:45Z</time>
      </trkpt>
      <trkpt lat="39.6780910" lon="3.3164170">
        <ele>173.0</ele>
        <time>2021-06-20T09:53:47Z</time>
      </trkpt>
      <trkpt lat="39.6780910" lon="3.3164170">
        <ele>173.0</ele>
        <time>2021-06-20T09:53:51Z</time>
      </trkpt>
      <trkpt lat="39.6780910" lon="3.3164170">
        <ele>173.0</ele>
        <time>2021-06-20T09:53:54Z</time>
      </trkpt>
      <trkpt lat="39.6780910" lon="3.3164170">
        <ele>173.0</ele>
        <time>2021-06-20T09:53:57Z</time>
      </trkpt>
      <trkpt lat="39.6780910" lon="3.3164170">
        <ele>173.0</ele>
        <time>2021-06-20T09:54:01Z</time>
      </trkpt>
      <trkpt lat="39.6780910" lon="3.3164170">
        <ele>173.0</ele>
        <time>2021-06-20T09:54:17Z</time>
      </trkpt>
      <trkpt lat="39.6780910" lon="3.3164170">
        <ele>173.0</ele>
        <time>2021-06-20T09:54:20Z</time>
      </trkpt>
      <trkpt lat="39.6780910" lon="3.3164170">
        <ele>173.0</ele>
        <time>2021-06-20T09:54:22Z</time>
      </trkpt>
      <trkpt lat="39.6780910" lon="3.3164170">
        <ele>173.0</ele>
        <time>2021-06-20T09:54:25Z</time>
      </trkpt>
      <trkpt lat="39.6780910" lon="3.3164170">
        <ele>173.0</ele>
        <time>2021-06-20T09:54:36Z</time>
      </trkpt>
      <trkpt lat="39.6780910" lon="3.3164170">
        <ele>173.0</ele>
        <time>2021-06-20T09:54:47Z</time>
      </trkpt>
      <trkpt lat="39.6780900" lon="3.3164170">
        <ele>173.0</ele>
        <time>2021-06-20T09:54:55Z</time>
      </trkpt>
      <trkpt lat="39.6780890" lon="3.3164150">
        <ele>173.0</ele>
        <time>2021-06-20T09:55:01Z</time>
      </trkpt>
      <trkpt lat="39.6780660" lon="3.3163810">
        <ele>173.1</ele>
        <time>2021-06-20T09:55:03Z</time>
      </trkpt>
      <trkpt lat="39.6780060" lon="3.3162200">
        <ele>173.3</ele>
        <time>2021-06-20T09:55:08Z</time>
      </trkpt>
      <trkpt lat="39.6779850" lon="3.3161400">
        <ele>173.4</ele>
        <time>2021-06-20T09:55:10Z</time>
      </trkpt>
      <trkpt lat="39.6779760" lon="3.3161040">
        <ele>173.4</ele>
        <time>2021-06-20T09:55:11Z</time>
      </trkpt>
      <trkpt lat="39.6779650" lon="3.3160660">
        <ele>173.5</ele>
        <time>2021-06-20T09:55:12Z</time>
      </trkpt>
      <trkpt lat="39.6779550" lon="3.3160260">
        <ele>173.5</ele>
        <time>2021-06-20T09:55:13Z</time>
      </trkpt>
      <trkpt lat="39.6779350" lon="3.3159500">
        <ele>173.7</ele>
        <time>2021-06-20T09:55:15Z</time>
      </trkpt>
      <trkpt lat="39.6777980" lon="3.3154940">
        <ele>174.7</ele>
        <time>2021-06-20T09:55:26Z</time>
      </trkpt>
      <trkpt lat="39.6777420" lon="3.3153310">
        <ele>175.1</ele>
        <time>2021-06-20T09:55:30Z</time>
      </trkpt>
      <trkpt lat="39.6776870" lon="3.3151600">
        <ele>175.4</ele>
        <time>2021-06-20T09:55:34Z</time>
      </trkpt>
      <trkpt lat="39.6775910" lon="3.3148780">
        <ele>176.0</ele>
        <time>2021-06-20T09:55:41Z</time>
      </trkpt>
      <trkpt lat="39.6775370" lon="3.3147260">
        <ele>176.3</ele>
        <time>2021-06-20T09:55:45Z</time>
      </trkpt>
      <trkpt lat="39.6774550" lon="3.3144710">
        <ele>176.8</ele>
        <time>2021-06-20T09:55:51Z</time>
      </trkpt>
      <trkpt lat="39.6773780" lon="3.3142360">
        <ele>177.3</ele>
        <time>2021-06-20T09:55:57Z</time>
      </trkpt>
      <trkpt lat="39.6773550" lon="3.3141510">
        <ele>177.5</ele>
        <time>2021-06-20T09:55:59Z</time>
      </trkpt>
      <trkpt lat="39.6773100" lon="3.3139870">
        <ele>177.9</ele>
        <time>2021-06-20T09:56:04Z</time>
      </trkpt>
      <trkpt lat="39.6772530" lon="3.3138290">
        <ele>178.4</ele>
        <time>2021-06-20T09:56:10Z</time>
      </trkpt>
      <trkpt lat="39.6772530" lon="3.3138290">
        <ele>178.4</ele>
        <time>2021-06-20T09:56:12Z</time>
      </trkpt>
      <trkpt lat="39.6772530" lon="3.3138310">
        <ele>178.4</ele>
        <time>2021-06-20T09:56:14Z</time>
      </trkpt>
      <trkpt lat="39.6772530" lon="3.3138350">
        <ele>178.4</ele>
        <time>2021-06-20T09:56:21Z</time>
      </trkpt>
      <trkpt lat="39.6772530" lon="3.3138350">
        <ele>178.4</ele>
        <time>2021-06-20T09:56:27Z</time>
      </trkpt>
      <trkpt lat="39.6772460" lon="3.3138190">
        <ele>178.5</ele>
        <time>2021-06-20T09:56:29Z</time>
      </trkpt>
      <trkpt lat="39.6772400" lon="3.3138040">
        <ele>178.5</ele>
        <time>2021-06-20T09:56:30Z</time>
      </trkpt>
      <trkpt lat="39.6771890" lon="3.3136260">
        <ele>179.1</ele>
        <time>2021-06-20T09:56:37Z</time>
      </trkpt>
      <trkpt lat="39.6770850" lon="3.3133190">
        <ele>180.1</ele>
        <time>2021-06-20T09:56:45Z</time>
      </trkpt>
      <trkpt lat="39.6770210" lon="3.3131120">
        <ele>180.8</ele>
        <time>2021-06-20T09:56:50Z</time>
      </trkpt>
      <trkpt lat="39.6769770" lon="3.3129820">
        <ele>181.2</ele>
        <time>2021-06-20T09:56:53Z</time>
      </trkpt>
      <trkpt lat="39.6769100" lon="3.3127770">
        <ele>182.1</ele>
        <time>2021-06-20T09:56:58Z</time>
      </trkpt>
      <trkpt lat="39.6768780" lon="3.3126680">
        <ele>182.6</ele>
        <time>2021-06-20T09:57:01Z</time>
      </trkpt>
      <trkpt lat="39.6768460" lon="3.3125580">
        <ele>183.0</ele>
        <time>2021-06-20T09:57:04Z</time>
      </trkpt>
      <trkpt lat="39.6768180" lon="3.3124790">
        <ele>183.4</ele>
        <time>2021-06-20T09:57:06Z</time>
      </trkpt>
      <trkpt lat="39.6767890" lon="3.3123680">
        <ele>183.7</ele>
        <time>2021-06-20T09:57:09Z</time>
      </trkpt>
      <trkpt lat="39.6766680" lon="3.3119920">
        <ele>184.6</ele>
        <time>2021-06-20T09:57:18Z</time>
      </trkpt>
      <trkpt lat="39.6765440" lon="3.3116630">
        <ele>185.7</ele>
        <time>2021-06-20T09:57:26Z</time>
      </trkpt>
      <trkpt lat="39.6764900" lon="3.3114710">
        <ele>186.6</ele>
        <time>2021-06-20T09:57:31Z</time>
      </trkpt>
      <trkpt lat="39.6763890" lon="3.3111260">
        <ele>188.6</ele>
        <time>2021-06-20T09:57:40Z</time>
      </trkpt>
      <trkpt lat="39.6763360" lon="3.3109610">
        <ele>189.8</ele>
        <time>2021-06-20T09:57:45Z</time>
      </trkpt>
      <trkpt lat="39.6762610" lon="3.3107450">
        <ele>191.6</ele>
        <time>2021-06-20T09:57:52Z</time>
      </trkpt>
      <trkpt lat="39.6762400" lon="3.3106890">
        <ele>192.1</ele>
        <time>2021-06-20T09:57:54Z</time>
      </trkpt>
      <trkpt lat="39.6762130" lon="3.3106450">
        <ele>192.6</ele>
        <time>2021-06-20T09:57:56Z</time>
      </trkpt>
      <trkpt lat="39.6762080" lon="3.3106180">
        <ele>192.8</ele>
        <time>2021-06-20T09:57:57Z</time>
      </trkpt>
      <trkpt lat="39.6761990" lon="3.3105230">
        <ele>193.6</ele>
        <time>2021-06-20T09:58:00Z</time>
      </trkpt>
      <trkpt lat="39.6761450" lon="3.3103900">
        <ele>194.9</ele>
        <time>2021-06-20T09:58:05Z</time>
      </trkpt>
      <trkpt lat="39.6761000" lon="3.3102510">
        <ele>196.2</ele>
        <time>2021-06-20T09:58:10Z</time>
      </trkpt>
      <trkpt lat="39.6760930" lon="3.3102220">
        <ele>196.4</ele>
        <time>2021-06-20T09:58:11Z</time>
      </trkpt>
      <trkpt lat="39.6760740" lon="3.3101050">
        <ele>197.4</ele>
        <time>2021-06-20T09:58:15Z</time>
      </trkpt>
      <trkpt lat="39.6760510" lon="3.3100520">
        <ele>197.8</ele>
        <time>2021-06-20T09:58:17Z</time>
      </trkpt>
      <trkpt lat="39.6760390" lon="3.3099670">
        <ele>198.5</ele>
        <time>2021-06-20T09:58:20Z</time>
      </trkpt>
      <trkpt lat="39.6759800" lon="3.3098450">
        <ele>199.4</ele>
        <time>2021-06-20T09:58:24Z</time>
      </trkpt>
      <trkpt lat="39.6759760" lon="3.3098120">
        <ele>199.6</ele>
        <time>2021-06-20T09:58:25Z</time>
      </trkpt>
      <trkpt lat="39.6759610" lon="3.3096410">
        <ele>200.2</ele>
        <time>2021-06-20T09:58:30Z</time>
      </trkpt>
      <trkpt lat="39.6760300" lon="3.3093560">
        <ele>199.6</ele>
        <time>2021-06-20T09:58:36Z</time>
      </trkpt>
      <trkpt lat="39.6760500" lon="3.3092940">
        <ele>199.3</ele>
        <time>2021-06-20T09:58:37Z</time>
      </trkpt>
      <trkpt lat="39.6761520" lon="3.3090070">
        <ele>198.2</ele>
        <time>2021-06-20T09:58:41Z</time>
      </trkpt>
      <trkpt lat="39.6763340" lon="3.3084940">
        <ele>196.6</ele>
        <time>2021-06-20T09:58:48Z</time>
      </trkpt>
      <trkpt lat="39.6763880" lon="3.3083500">
        <ele>196.0</ele>
        <time>2021-06-20T09:58:50Z</time>
      </trkpt>
      <trkpt lat="39.6764810" lon="3.3081180">
        <ele>195.1</ele>
        <time>2021-06-20T09:58:53Z</time>
      </trkpt>
      <trkpt lat="39.6765370" lon="3.3079380">
        <ele>194.5</ele>
        <time>2021-06-20T09:58:55Z</time>
      </trkpt>
      <trkpt lat="39.6765550" lon="3.3078400">
        <ele>194.4</ele>
        <time>2021-06-20T09:58:56Z</time>
      </trkpt>
      <trkpt lat="39.6765730" lon="3.3076470">
        <ele>194.3</ele>
        <time>2021-06-20T09:58:58Z</time>
      </trkpt>
      <trkpt lat="39.6765790" lon="3.3075560">
        <ele>194.3</ele>
        <time>2021-06-20T09:58:59Z</time>
      </trkpt>
      <trkpt lat="39.6766000" lon="3.3070410">
        <ele>194.8</ele>
        <time>2021-06-20T09:59:05Z</time>
      </trkpt>
      <trkpt lat="39.6766010" lon="3.3069560">
        <ele>195.0</ele>
        <time>2021-06-20T09:59:06Z</time>
      </trkpt>
      <trkpt lat="39.6766120" lon="3.3065910">
        <ele>195.8</ele>
        <time>2021-06-20T09:59:11Z</time>
      </trkpt>
      <trkpt lat="39.6766210" lon="3.3064600">
        <ele>196.2</ele>
        <time>2021-06-20T09:59:13Z</time>
      </trkpt>
      <trkpt lat="39.6766260" lon="3.3063360">
        <ele>196.6</ele>
        <time>2021-06-20T09:59:15Z</time>
      </trkpt>
      <trkpt lat="39.6766290" lon="3.3061740">
        <ele>197.2</ele>
        <time>2021-06-20T09:59:18Z</time>
      </trkpt>
      <trkpt lat="39.6766540" lon="3.3057400">
        <ele>199.8</ele>
        <time>2021-06-20T09:59:27Z</time>
      </trkpt>
      <trkpt lat="39.6766810" lon="3.3054950">
        <ele>201.0</ele>
        <time>2021-06-20T09:59:32Z</time>
      </trkpt>
      <trkpt lat="39.6766920" lon="3.3053970">
        <ele>201.2</ele>
        <time>2021-06-20T09:59:34Z</time>
      </trkpt>
      <trkpt lat="39.6767060" lon="3.3052860">
        <ele>201.3</ele>
        <time>2021-06-20T09:59:36Z</time>
      </trkpt>
      <trkpt lat="39.6767270" lon="3.3050340">
        <ele>201.2</ele>
        <time>2021-06-20T09:59:40Z</time>
      </trkpt>
      <trkpt lat="39.6767420" lon="3.3049090">
        <ele>201.1</ele>
        <time>2021-06-20T09:59:42Z</time>
      </trkpt>
      <trkpt lat="39.6767460" lon="3.3048420">
        <ele>201.1</ele>
        <time>2021-06-20T09:59:43Z</time>
      </trkpt>
      <trkpt lat="39.6767580" lon="3.3047010">
        <ele>201.0</ele>
        <time>2021-06-20T09:59:45Z</time>
      </trkpt>
      <trkpt lat="39.6767710" lon="3.3045540">
        <ele>201.1</ele>
        <time>2021-06-20T09:59:47Z</time>
      </trkpt>
      <trkpt lat="39.6767750" lon="3.3044110">
        <ele>201.2</ele>
        <time>2021-06-20T09:59:49Z</time>
      </trkpt>
      <trkpt lat="39.6767800" lon="3.3042140">
        <ele>201.6</ele>
        <time>2021-06-20T09:59:52Z</time>
      </trkpt>
      <trkpt lat="39.6767900" lon="3.3040290">
        <ele>201.7</ele>
        <time>2021-06-20T09:59:55Z</time>
      </trkpt>
      <trkpt lat="39.6768220" lon="3.3035290">
        <ele>201.6</ele>
        <time>2021-06-20T10:00:02Z</time>
      </trkpt>
      <trkpt lat="39.6768310" lon="3.3030270">
        <ele>202.4</ele>
        <time>2021-06-20T10:00:09Z</time>
      </trkpt>
      <trkpt lat="39.6768240" lon="3.3029650">
        <ele>202.5</ele>
        <time>2021-06-20T10:00:10Z</time>
      </trkpt>
      <trkpt lat="39.6767250" lon="3.3025790">
        <ele>202.6</ele>
        <time>2021-06-20T10:00:16Z</time>
      </trkpt>
      <trkpt lat="39.6766740" lon="3.3024540">
        <ele>202.7</ele>
        <time>2021-06-20T10:00:18Z</time>
      </trkpt>
      <trkpt lat="39.6765420" lon="3.3022420">
        <ele>203.3</ele>
        <time>2021-06-20T10:00:22Z</time>
      </trkpt>
      <trkpt lat="39.6764100" lon="3.3020270">
        <ele>203.8</ele>
        <time>2021-06-20T10:00:27Z</time>
      </trkpt>
      <trkpt lat="39.6762360" lon="3.3017460">
        <ele>203.9</ele>
        <time>2021-06-20T10:00:33Z</time>
      </trkpt>
      <trkpt lat="39.6761710" lon="3.3016290">
        <ele>204.0</ele>
        <time>2021-06-20T10:00:35Z</time>
      </trkpt>
      <trkpt lat="39.6760230" lon="3.3013870">
        <ele>204.7</ele>
        <time>2021-06-20T10:00:40Z</time>
      </trkpt>
      <trkpt lat="39.6759730" lon="3.3012990">
        <ele>205.0</ele>
        <time>2021-06-20T10:00:42Z</time>
      </trkpt>
      <trkpt lat="39.6759010" lon="3.3011950">
        <ele>205.6</ele>
        <time>2021-06-20T10:00:45Z</time>
      </trkpt>
      <trkpt lat="39.6757860" lon="3.3010070">
        <ele>207.0</ele>
        <time>2021-06-20T10:00:51Z</time>
      </trkpt>
      <trkpt lat="39.6757690" lon="3.3009790">
        <ele>207.2</ele>
        <time>2021-06-20T10:00:52Z</time>
      </trkpt>
      <trkpt lat="39.6756390" lon="3.3007580">
        <ele>208.7</ele>
        <time>2021-06-20T10:00:58Z</time>
      </trkpt>
      <trkpt lat="39.6755330" lon="3.3005720">
        <ele>209.2</ele>
        <time>2021-06-20T10:01:04Z</time>
      </trkpt>
      <trkpt lat="39.6753870" lon="3.3003210">
        <ele>209.9</ele>
        <time>2021-06-20T10:01:10Z</time>
      </trkpt>
      <trkpt lat="39.6753410" lon="3.3002460">
        <ele>210.2</ele>
        <time>2021-06-20T10:01:12Z</time>
      </trkpt>
      <trkpt lat="39.6752210" lon="3.3000150">
        <ele>211.5</ele>
        <time>2021-06-20T10:01:19Z</time>
      </trkpt>
      <trkpt lat="39.6751700" lon="3.2999030">
        <ele>212.2</ele>
        <time>2021-06-20T10:01:23Z</time>
      </trkpt>
      <trkpt lat="39.6750750" lon="3.2997580">
        <ele>213.1</ele>
        <time>2021-06-20T10:01:28Z</time>
      </trkpt>
      <trkpt lat="39.6750420" lon="3.2996900">
        <ele>213.5</ele>
        <time>2021-06-20T10:01:30Z</time>
      </trkpt>
      <trkpt lat="39.6749800" lon="3.2995630">
        <ele>214.2</ele>
        <time>2021-06-20T10:01:34Z</time>
      </trkpt>
      <trkpt lat="39.6748810" lon="3.2994210">
        <ele>215.2</ele>
        <time>2021-06-20T10:01:39Z</time>
      </trkpt>
      <trkpt lat="39.6747780" lon="3.2992730">
        <ele>216.6</ele>
        <time>2021-06-20T10:01:45Z</time>
      </trkpt>
      <trkpt lat="39.6746710" lon="3.2990830">
        <ele>218.0</ele>
        <time>2021-06-20T10:01:51Z</time>
      </trkpt>
      <trkpt lat="39.6746540" lon="3.2990460">
        <ele>218.3</ele>
        <time>2021-06-20T10:01:52Z</time>
      </trkpt>
      <trkpt lat="39.6745190" lon="3.2987780">
        <ele>219.5</ele>
        <time>2021-06-20T10:02:00Z</time>
      </trkpt>
      <trkpt lat="39.6743710" lon="3.2984700">
        <ele>219.6</ele>
        <time>2021-06-20T10:02:05Z</time>
      </trkpt>
      <trkpt lat="39.6742190" lon="3.2981940">
        <ele>220.5</ele>
        <time>2021-06-20T10:02:10Z</time>
      </trkpt>
      <trkpt lat="39.6741910" lon="3.2981470">
        <ele>220.9</ele>
        <time>2021-06-20T10:02:11Z</time>
      </trkpt>
      <trkpt lat="39.6741000" lon="3.2980880">
        <ele>221.8</ele>
        <time>2021-06-20T10:02:15Z</time>
      </trkpt>
      <trkpt lat="39.6739770" lon="3.2980500">
        <ele>223.1</ele>
        <time>2021-06-20T10:02:20Z</time>
      </trkpt>
      <trkpt lat="39.6739530" lon="3.2980270">
        <ele>224.3</ele>
        <time>2021-06-20T10:02:21Z</time>
      </trkpt>
      <trkpt lat="39.6739410" lon="3.2979710">
        <ele>224.7</ele>
        <time>2021-06-20T10:02:23Z</time>
      </trkpt>
      <trkpt lat="39.6739510" lon="3.2979410">
        <ele>224.9</ele>
        <time>2021-06-20T10:02:24Z</time>
      </trkpt>
      <trkpt lat="39.6740790" lon="3.2977850">
        <ele>226.1</ele>
        <time>2021-06-20T10:02:31Z</time>
      </trkpt>
      <trkpt lat="39.6740840" lon="3.2977550">
        <ele>226.2</ele>
        <time>2021-06-20T10:02:32Z</time>
      </trkpt>
      <trkpt lat="39.6740840" lon="3.2976920">
        <ele>226.5</ele>
        <time>2021-06-20T10:02:34Z</time>
      </trkpt>
      <trkpt lat="39.6740930" lon="3.2976290">
        <ele>226.6</ele>
        <time>2021-06-20T10:02:35Z</time>
      </trkpt>
      <trkpt lat="39.6740390" lon="3.2974270">
        <ele>226.9</ele>
        <time>2021-06-20T10:02:41Z</time>
      </trkpt>
      <trkpt lat="39.6740260" lon="3.2973800">
        <ele>226.9</ele>
        <time>2021-06-20T10:02:42Z</time>
      </trkpt>
      <trkpt lat="39.6739880" lon="3.2971670">
        <ele>227.1</ele>
        <time>2021-06-20T10:02:46Z</time>
      </trkpt>
      <trkpt lat="39.6739470" lon="3.2969800">
        <ele>227.6</ele>
        <time>2021-06-20T10:02:50Z</time>
      </trkpt>
      <trkpt lat="39.6739400" lon="3.2968730">
        <ele>227.9</ele>
        <time>2021-06-20T10:02:52Z</time>
      </trkpt>
      <trkpt lat="39.6739720" lon="3.2966160">
        <ele>229.0</ele>
        <time>2021-06-20T10:02:57Z</time>
      </trkpt>
      <trkpt lat="39.6740160" lon="3.2962030">
        <ele>230.5</ele>
        <time>2021-06-20T10:03:05Z</time>
      </trkpt>
      <trkpt lat="39.6740700" lon="3.2960140">
        <ele>231.4</ele>
        <time>2021-06-20T10:03:09Z</time>
      </trkpt>
      <trkpt lat="39.6741000" lon="3.2957880">
        <ele>231.7</ele>
        <time>2021-06-20T10:03:14Z</time>
      </trkpt>
      <trkpt lat="39.6740420" lon="3.2956600">
        <ele>231.0</ele>
        <time>2021-06-20T10:03:18Z</time>
      </trkpt>
      <trkpt lat="39.6738760" lon="3.2954410">
        <ele>228.1</ele>
        <time>2021-06-20T10:03:23Z</time>
      </trkpt>
      <trkpt lat="39.6737800" lon="3.2951680">
        <ele>224.7</ele>
        <time>2021-06-20T10:03:26Z</time>
      </trkpt>
      <trkpt lat="39.6736930" lon="3.2948150">
        <ele>220.1</ele>
        <time>2021-06-20T10:03:29Z</time>
      </trkpt>
      <trkpt lat="39.6736580" lon="3.2946710">
        <ele>218.2</ele>
        <time>2021-06-20T10:03:30Z</time>
      </trkpt>
      <trkpt lat="39.6736130" lon="3.2944900">
        <ele>215.8</ele>
        <time>2021-06-20T10:03:31Z</time>
      </trkpt>
      <trkpt lat="39.6735020" lon="3.2940290">
        <ele>210.2</ele>
        <time>2021-06-20T10:03:34Z</time>
      </trkpt>
      <trkpt lat="39.6732980" lon="3.2932700">
        <ele>204.4</ele>
        <time>2021-06-20T10:03:38Z</time>
      </trkpt>
      <trkpt lat="39.6732590" lon="3.2931090">
        <ele>203.9</ele>
        <time>2021-06-20T10:03:39Z</time>
      </trkpt>
      <trkpt lat="39.6730760" lon="3.2923210">
        <ele>206.8</ele>
        <time>2021-06-20T10:03:43Z</time>
      </trkpt>
      <trkpt lat="39.6730470" lon="3.2921600">
        <ele>208.3</ele>
        <time>2021-06-20T10:03:44Z</time>
      </trkpt>
      <trkpt lat="39.6729850" lon="3.2917830">
        <ele>212.1</ele>
        <time>2021-06-20T10:03:47Z</time>
      </trkpt>
      <trkpt lat="39.6728930" lon="3.2913690">
        <ele>215.5</ele>
        <time>2021-06-20T10:03:51Z</time>
      </trkpt>
      <trkpt lat="39.6728300" lon="3.2910800">
        <ele>217.0</ele>
        <time>2021-06-20T10:03:55Z</time>
      </trkpt>
      <trkpt lat="39.6727690" lon="3.2908090">
        <ele>217.3</ele>
        <time>2021-06-20T10:04:00Z</time>
      </trkpt>
      <trkpt lat="39.6727360" lon="3.2906860">
        <ele>217.3</ele>
        <time>2021-06-20T10:04:02Z</time>
      </trkpt>
      <trkpt lat="39.6727260" lon="3.2905300">
        <ele>217.4</ele>
        <time>2021-06-20T10:04:05Z</time>
      </trkpt>
      <trkpt lat="39.6727250" lon="3.2903700">
        <ele>217.5</ele>
        <time>2021-06-20T10:04:08Z</time>
      </trkpt>
      <trkpt lat="39.6727450" lon="3.2901590">
        <ele>217.9</ele>
        <time>2021-06-20T10:04:12Z</time>
      </trkpt>
      <trkpt lat="39.6727660" lon="3.2899510">
        <ele>218.3</ele>
        <time>2021-06-20T10:04:17Z</time>
      </trkpt>
      <trkpt lat="39.6728290" lon="3.2897270">
        <ele>218.1</ele>
        <time>2021-06-20T10:04:23Z</time>
      </trkpt>
      <trkpt lat="39.6728530" lon="3.2895470">
        <ele>217.8</ele>
        <time>2021-06-20T10:04:26Z</time>
      </trkpt>
      <trkpt lat="39.6728600" lon="3.2894690">
        <ele>217.7</ele>
        <time>2021-06-20T10:04:27Z</time>
      </trkpt>
      <trkpt lat="39.6728850" lon="3.2890690">
        <ele>218.1</ele>
        <time>2021-06-20T10:04:33Z</time>
      </trkpt>
      <trkpt lat="39.6729060" lon="3.2887700">
        <ele>218.5</ele>
        <time>2021-06-20T10:04:39Z</time>
      </trkpt>
      <trkpt lat="39.6729030" lon="3.2885370">
        <ele>218.1</ele>
        <time>2021-06-20T10:04:45Z</time>
      </trkpt>
      <trkpt lat="39.6728800" lon="3.2881920">
        <ele>216.2</ele>
        <time>2021-06-20T10:04:51Z</time>
      </trkpt>
      <trkpt lat="39.6728690" lon="3.2880230">
        <ele>215.2</ele>
        <time>2021-06-20T10:04:53Z</time>
      </trkpt>
      <trkpt lat="39.6728540" lon="3.2878430">
        <ele>214.4</ele>
        <time>2021-06-20T10:04:55Z</time>
      </trkpt>
      <trkpt lat="39.6728360" lon="3.2876380">
        <ele>213.8</ele>
        <time>2021-06-20T10:04:57Z</time>
      </trkpt>
      <trkpt lat="39.6728140" lon="3.2874410">
        <ele>213.4</ele>
        <time>2021-06-20T10:04:59Z</time>
      </trkpt>
      <trkpt lat="39.6727980" lon="3.2872480">
        <ele>213.0</ele>
        <time>2021-06-20T10:05:01Z</time>
      </trkpt>
      <trkpt lat="39.6727810" lon="3.2871500">
        <ele>212.9</ele>
        <time>2021-06-20T10:05:02Z</time>
      </trkpt>
      <trkpt lat="39.6727050" lon="3.2869930">
        <ele>212.7</ele>
        <time>2021-06-20T10:05:04Z</time>
      </trkpt>
      <trkpt lat="39.6725750" lon="3.2869250">
        <ele>212.7</ele>
        <time>2021-06-20T10:05:06Z</time>
      </trkpt>
      <trkpt lat="39.6725130" lon="3.2869080">
        <ele>212.8</ele>
        <time>2021-06-20T10:05:07Z</time>
      </trkpt>
      <trkpt lat="39.6724130" lon="3.2868640">
        <ele>212.9</ele>
        <time>2021-06-20T10:05:09Z</time>
      </trkpt>
      <trkpt lat="39.6723790" lon="3.2868270">
        <ele>213.0</ele>
        <time>2021-06-20T10:05:10Z</time>
      </trkpt>
      <trkpt lat="39.6723530" lon="3.2867790">
        <ele>213.1</ele>
        <time>2021-06-20T10:05:11Z</time>
      </trkpt>
      <trkpt lat="39.6723120" lon="3.2866100">
        <ele>213.3</ele>
        <time>2021-06-20T10:05:14Z</time>
      </trkpt>
      <trkpt lat="39.6723050" lon="3.2864940">
        <ele>213.4</ele>
        <time>2021-06-20T10:05:16Z</time>
      </trkpt>
      <trkpt lat="39.6723210" lon="3.2862860">
        <ele>213.6</ele>
        <time>2021-06-20T10:05:20Z</time>
      </trkpt>
      <trkpt lat="39.6723490" lon="3.2860310">
        <ele>213.7</ele>
        <time>2021-06-20T10:05:24Z</time>
      </trkpt>
      <trkpt lat="39.6723410" lon="3.2859590">
        <ele>213.7</ele>
        <time>2021-06-20T10:05:25Z</time>
      </trkpt>
      <trkpt lat="39.6722510" lon="3.2855260">
        <ele>215.4</ele>
        <time>2021-06-20T10:05:32Z</time>
      </trkpt>
      <trkpt lat="39.6722060" lon="3.2853270">
        <ele>216.6</ele>
        <time>2021-06-20T10:05:38Z</time>
      </trkpt>
      <trkpt lat="39.6721910" lon="3.2853050">
        <ele>216.7</ele>
        <time>2021-06-20T10:05:39Z</time>
      </trkpt>
      <trkpt lat="39.6721350" lon="3.2852720">
        <ele>216.7</ele>
        <time>2021-06-20T10:05:42Z</time>
      </trkpt>
      <trkpt lat="39.6721120" lon="3.2852720">
        <ele>216.6</ele>
        <time>2021-06-20T10:05:43Z</time>
      </trkpt>
      <trkpt lat="39.6720190" lon="3.2853060">
        <ele>216.2</ele>
        <time>2021-06-20T10:05:46Z</time>
      </trkpt>
      <trkpt lat="39.6718070" lon="3.2854350">
        <ele>216.1</ele>
        <time>2021-06-20T10:05:52Z</time>
      </trkpt>
      <trkpt lat="39.6715560" lon="3.2855510">
        <ele>216.5</ele>
        <time>2021-06-20T10:06:00Z</time>
      </trkpt>
      <trkpt lat="39.6712630" lon="3.2855870">
        <ele>216.5</ele>
        <time>2021-06-20T10:06:10Z</time>
      </trkpt>
      <trkpt lat="39.6709890" lon="3.2855210">
        <ele>216.7</ele>
        <time>2021-06-20T10:06:18Z</time>
      </trkpt>
      <trkpt lat="39.6708010" lon="3.2854460">
        <ele>216.8</ele>
        <time>2021-06-20T10:06:24Z</time>
      </trkpt>
      <trkpt lat="39.6707480" lon="3.2854200">
        <ele>216.8</ele>
        <time>2021-06-20T10:06:26Z</time>
      </trkpt>
      <trkpt lat="39.6705320" lon="3.2852660">
        <ele>216.7</ele>
        <time>2021-06-20T10:06:34Z</time>
      </trkpt>
      <trkpt lat="39.6704880" lon="3.2852150">
        <ele>216.6</ele>
        <time>2021-06-20T10:06:36Z</time>
      </trkpt>
      <trkpt lat="39.6704510" lon="3.2851730">
        <ele>216.6</ele>
        <time>2021-06-20T10:06:38Z</time>
      </trkpt>
      <trkpt lat="39.6704140" lon="3.2851340">
        <ele>216.5</ele>
        <time>2021-06-20T10:06:40Z</time>
      </trkpt>
      <trkpt lat="39.6703930" lon="3.2851160">
        <ele>216.5</ele>
        <time>2021-06-20T10:06:41Z</time>
      </trkpt>
      <trkpt lat="39.6703630" lon="3.2850720">
        <ele>216.4</ele>
        <time>2021-06-20T10:06:43Z</time>
      </trkpt>
      <trkpt lat="39.6702650" lon="3.2849640">
        <ele>216.2</ele>
        <time>2021-06-20T10:06:48Z</time>
      </trkpt>
      <trkpt lat="39.6701400" lon="3.2847960">
        <ele>215.9</ele>
        <time>2021-06-20T10:06:53Z</time>
      </trkpt>
      <trkpt lat="39.6699640" lon="3.2845960">
        <ele>215.9</ele>
        <time>2021-06-20T10:06:59Z</time>
      </trkpt>
      <trkpt lat="39.6697400" lon="3.2844970">
        <ele>216.5</ele>
        <time>2021-06-20T10:07:06Z</time>
      </trkpt>
      <trkpt lat="39.6694650" lon="3.2844850">
        <ele>217.4</ele>
        <time>2021-06-20T10:07:13Z</time>
      </trkpt>
      <trkpt lat="39.6694350" lon="3.2844810">
        <ele>217.5</ele>
        <time>2021-06-20T10:07:14Z</time>
      </trkpt>
      <trkpt lat="39.6692890" lon="3.2844640">
        <ele>217.9</ele>
        <time>2021-06-20T10:07:19Z</time>
      </trkpt>
      <trkpt lat="39.6691840" lon="3.2843740">
        <ele>217.9</ele>
        <time>2021-06-20T10:07:24Z</time>
      </trkpt>
      <trkpt lat="39.6691650" lon="3.2843550">
        <ele>217.9</ele>
        <time>2021-06-20T10:07:25Z</time>
      </trkpt>
      <trkpt lat="39.6689670" lon="3.2842080">
        <ele>217.6</ele>
        <time>2021-06-20T10:07:33Z</time>
      </trkpt>
      <trkpt lat="39.6687540" lon="3.2841130">
        <ele>216.6</ele>
        <time>2021-06-20T10:07:40Z</time>
      </trkpt>
      <trkpt lat="39.6687130" lon="3.2840970">
        <ele>216.3</ele>
        <time>2021-06-20T10:07:41Z</time>
      </trkpt>
      <trkpt lat="39.6685590" lon="3.2840980">
        <ele>215.1</ele>
        <time>2021-06-20T10:07:44Z</time>
      </trkpt>
      <trkpt lat="39.6682920" lon="3.2841710">
        <ele>213.4</ele>
        <time>2021-06-20T10:07:48Z</time>
      </trkpt>
      <trkpt lat="39.6681360" lon="3.2842010">
        <ele>212.7</ele>
        <time>2021-06-20T10:07:50Z</time>
      </trkpt>
      <trkpt lat="39.6679940" lon="3.2843020">
        <ele>212.1</ele>
        <time>2021-06-20T10:07:52Z</time>
      </trkpt>
      <trkpt lat="39.6678290" lon="3.2845390">
        <ele>211.4</ele>
        <time>2021-06-20T10:07:55Z</time>
      </trkpt>
      <trkpt lat="39.6677630" lon="3.2845960">
        <ele>211.0</ele>
        <time>2021-06-20T10:07:56Z</time>
      </trkpt>
      <trkpt lat="39.6676960" lon="3.2846270">
        <ele>210.7</ele>
        <time>2021-06-20T10:07:57Z</time>
      </trkpt>
      <trkpt lat="39.6674930" lon="3.2846930">
        <ele>209.5</ele>
        <time>2021-06-20T10:08:00Z</time>
      </trkpt>
      <trkpt lat="39.6672170" lon="3.2847630">
        <ele>207.9</ele>
        <time>2021-06-20T10:08:04Z</time>
      </trkpt>
      <trkpt lat="39.6670660" lon="3.2848200">
        <ele>207.1</ele>
        <time>2021-06-20T10:08:06Z</time>
      </trkpt>
      <trkpt lat="39.6669240" lon="3.2848940">
        <ele>206.2</ele>
        <time>2021-06-20T10:08:08Z</time>
      </trkpt>
      <trkpt lat="39.6667190" lon="3.2850660">
        <ele>204.7</ele>
        <time>2021-06-20T10:08:11Z</time>
      </trkpt>
      <trkpt lat="39.6663260" lon="3.2853110">
        <ele>202.1</ele>
        <time>2021-06-20T10:08:16Z</time>
      </trkpt>
      <trkpt lat="39.6661610" lon="3.2853960">
        <ele>200.8</ele>
        <time>2021-06-20T10:08:18Z</time>
      </trkpt>
      <trkpt lat="39.6659840" lon="3.2854440">
        <ele>199.4</ele>
        <time>2021-06-20T10:08:20Z</time>
      </trkpt>
      <trkpt lat="39.6655200" lon="3.2855680">
        <ele>196.1</ele>
        <time>2021-06-20T10:08:25Z</time>
      </trkpt>
      <trkpt lat="39.6652660" lon="3.2856480">
        <ele>194.2</ele>
        <time>2021-06-20T10:08:28Z</time>
      </trkpt>
      <trkpt lat="39.6650860" lon="3.2857350">
        <ele>192.8</ele>
        <time>2021-06-20T10:08:30Z</time>
      </trkpt>
      <trkpt lat="39.6650000" lon="3.2857840">
        <ele>192.0</ele>
        <time>2021-06-20T10:08:31Z</time>
      </trkpt>
      <trkpt lat="39.6645190" lon="3.2860230">
        <ele>189.4</ele>
        <time>2021-06-20T10:08:36Z</time>
      </trkpt>
      <trkpt lat="39.6640920" lon="3.2862140">
        <ele>188.4</ele>
        <time>2021-06-20T10:08:41Z</time>
      </trkpt>
      <trkpt lat="39.6639550" lon="3.2861380">
        <ele>187.6</ele>
        <time>2021-06-20T10:08:43Z</time>
      </trkpt>
      <trkpt lat="39.6634780" lon="3.2857480">
        <ele>185.2</ele>
        <time>2021-06-20T10:08:50Z</time>
      </trkpt>
      <trkpt lat="39.6634100" lon="3.2857040">
        <ele>184.8</ele>
        <time>2021-06-20T10:08:51Z</time>
      </trkpt>
      <trkpt lat="39.6632640" lon="3.2856730">
        <ele>184.2</ele>
        <time>2021-06-20T10:08:53Z</time>
      </trkpt>
      <trkpt lat="39.6631010" lon="3.2856640">
        <ele>183.6</ele>
        <time>2021-06-20T10:08:55Z</time>
      </trkpt>
      <trkpt lat="39.6627530" lon="3.2856590">
        <ele>182.8</ele>
        <time>2021-06-20T10:08:59Z</time>
      </trkpt>
      <trkpt lat="39.6624980" lon="3.2856770">
        <ele>182.6</ele>
        <time>2021-06-20T10:09:02Z</time>
      </trkpt>
      <trkpt lat="39.6621470" lon="3.2857420">
        <ele>181.2</ele>
        <time>2021-06-20T10:09:07Z</time>
      </trkpt>
      <trkpt lat="39.6620120" lon="3.2858020">
        <ele>180.1</ele>
        <time>2021-06-20T10:09:09Z</time>
      </trkpt>
      <trkpt lat="39.6619380" lon="3.2858160">
        <ele>179.5</ele>
        <time>2021-06-20T10:09:10Z</time>
      </trkpt>
      <trkpt lat="39.6618610" lon="3.2858030">
        <ele>178.8</ele>
        <time>2021-06-20T10:09:11Z</time>
      </trkpt>
      <trkpt lat="39.6617310" lon="3.2856750">
        <ele>177.5</ele>
        <time>2021-06-20T10:09:13Z</time>
      </trkpt>
      <trkpt lat="39.6616080" lon="3.2855470">
        <ele>176.1</ele>
        <time>2021-06-20T10:09:15Z</time>
      </trkpt>
      <trkpt lat="39.6615210" lon="3.2855040">
        <ele>175.3</ele>
        <time>2021-06-20T10:09:16Z</time>
      </trkpt>
      <trkpt lat="39.6613650" lon="3.2854700">
        <ele>174.2</ele>
        <time>2021-06-20T10:09:18Z</time>
      </trkpt>
      <trkpt lat="39.6611770" lon="3.2854530">
        <ele>173.3</ele>
        <time>2021-06-20T10:09:20Z</time>
      </trkpt>
      <trkpt lat="39.6606250" lon="3.2854450">
        <ele>171.7</ele>
        <time>2021-06-20T10:09:26Z</time>
      </trkpt>
      <trkpt lat="39.6605450" lon="3.2854530">
        <ele>171.4</ele>
        <time>2021-06-20T10:09:27Z</time>
      </trkpt>
      <trkpt lat="39.6602010" lon="3.2855370">
        <ele>170.0</ele>
        <time>2021-06-20T10:09:31Z</time>
      </trkpt>
      <trkpt lat="39.6601160" lon="3.2855500">
        <ele>169.7</ele>
        <time>2021-06-20T10:09:32Z</time>
      </trkpt>
      <trkpt lat="39.6600330" lon="3.2855530">
        <ele>169.3</ele>
        <time>2021-06-20T10:09:33Z</time>
      </trkpt>
      <trkpt lat="39.6598670" lon="3.2855020">
        <ele>168.3</ele>
        <time>2021-06-20T10:09:35Z</time>
      </trkpt>
      <trkpt lat="39.6597420" lon="3.2853570">
        <ele>167.3</ele>
        <time>2021-06-20T10:09:37Z</time>
      </trkpt>
      <trkpt lat="39.6596940" lon="3.2852640">
        <ele>166.8</ele>
        <time>2021-06-20T10:09:38Z</time>
      </trkpt>
      <trkpt lat="39.6596400" lon="3.2851780">
        <ele>166.2</ele>
        <time>2021-06-20T10:09:39Z</time>
      </trkpt>
      <trkpt lat="39.6595190" lon="3.2850430">
        <ele>165.4</ele>
        <time>2021-06-20T10:09:41Z</time>
      </trkpt>
      <trkpt lat="39.6590770" lon="3.2847630">
        <ele>163.3</ele>
        <time>2021-06-20T10:09:47Z</time>
      </trkpt>
      <trkpt lat="39.6586730" lon="3.2845900">
        <ele>161.4</ele>
        <time>2021-06-20T10:09:52Z</time>
      </trkpt>
      <trkpt lat="39.6585900" lon="3.2845910">
        <ele>161.0</ele>
        <time>2021-06-20T10:09:53Z</time>
      </trkpt>
      <trkpt lat="39.6585130" lon="3.2846120">
        <ele>160.8</ele>
        <time>2021-06-20T10:09:54Z</time>
      </trkpt>
      <trkpt lat="39.6583760" lon="3.2846950">
        <ele>160.2</ele>
        <time>2021-06-20T10:09:56Z</time>
      </trkpt>
      <trkpt lat="39.6580160" lon="3.2850300">
        <ele>158.9</ele>
        <time>2021-06-20T10:10:02Z</time>
      </trkpt>
      <trkpt lat="39.6576640" lon="3.2853540">
        <ele>158.6</ele>
        <time>2021-06-20T10:10:08Z</time>
      </trkpt>
      <trkpt lat="39.6576050" lon="3.2854000">
        <ele>158.5</ele>
        <time>2021-06-20T10:10:09Z</time>
      </trkpt>
      <trkpt lat="39.6574690" lon="3.2854880">
        <ele>158.2</ele>
        <time>2021-06-20T10:10:11Z</time>
      </trkpt>
      <trkpt lat="39.6573460" lon="3.2855180">
        <ele>158.0</ele>
        <time>2021-06-20T10:10:13Z</time>
      </trkpt>
      <trkpt lat="39.6568620" lon="3.2855520">
        <ele>158.6</ele>
        <time>2021-06-20T10:10:20Z</time>
      </trkpt>
      <trkpt lat="39.6567430" lon="3.2855610">
        <ele>158.7</ele>
        <time>2021-06-20T10:10:22Z</time>
      </trkpt>
      <trkpt lat="39.6566330" lon="3.2855770">
        <ele>158.6</ele>
        <time>2021-06-20T10:10:24Z</time>
      </trkpt>
      <trkpt lat="39.6565860" lon="3.2855900">
        <ele>158.5</ele>
        <time>2021-06-20T10:10:25Z</time>
      </trkpt>
      <trkpt lat="39.6564890" lon="3.2856200">
        <ele>158.1</ele>
        <time>2021-06-20T10:10:27Z</time>
      </trkpt>
      <trkpt lat="39.6562710" lon="3.2856830">
        <ele>157.2</ele>
        <time>2021-06-20T10:10:31Z</time>
      </trkpt>
      <trkpt lat="39.6561360" lon="3.2857230">
        <ele>156.6</ele>
        <time>2021-06-20T10:10:33Z</time>
      </trkpt>
      <trkpt lat="39.6559920" lon="3.2857210">
        <ele>156.2</ele>
        <time>2021-06-20T10:10:35Z</time>
      </trkpt>
      <trkpt lat="39.6557010" lon="3.2856440">
        <ele>155.2</ele>
        <time>2021-06-20T10:10:39Z</time>
      </trkpt>
      <trkpt lat="39.6556260" lon="3.2856060">
        <ele>154.9</ele>
        <time>2021-06-20T10:10:40Z</time>
      </trkpt>
      <trkpt lat="39.6555540" lon="3.2855630">
        <ele>154.7</ele>
        <time>2021-06-20T10:10:41Z</time>
      </trkpt>
      <trkpt lat="39.6552820" lon="3.2853620">
        <ele>154.4</ele>
        <time>2021-06-20T10:10:45Z</time>
      </trkpt>
      <trkpt lat="39.6552190" lon="3.2853090">
        <ele>154.5</ele>
        <time>2021-06-20T10:10:46Z</time>
      </trkpt>
      <trkpt lat="39.6549460" lon="3.2851160">
        <ele>154.9</ele>
        <time>2021-06-20T10:10:51Z</time>
      </trkpt>
      <trkpt lat="39.6547580" lon="3.2850220">
        <ele>155.0</ele>
        <time>2021-06-20T10:10:55Z</time>
      </trkpt>
      <trkpt lat="39.6546220" lon="3.2849440">
        <ele>154.9</ele>
        <time>2021-06-20T10:10:58Z</time>
      </trkpt>
      <trkpt lat="39.6543290" lon="3.2847550">
        <ele>154.7</ele>
        <time>2021-06-20T10:11:04Z</time>
      </trkpt>
      <trkpt lat="39.6542270" lon="3.2847210">
        <ele>154.7</ele>
        <time>2021-06-20T10:11:06Z</time>
      </trkpt>
      <trkpt lat="39.6540640" lon="3.2847130">
        <ele>154.6</ele>
        <time>2021-06-20T10:11:09Z</time>
      </trkpt>
      <trkpt lat="39.6536730" lon="3.2847860">
        <ele>154.2</ele>
        <time>2021-06-20T10:11:16Z</time>
      </trkpt>
      <trkpt lat="39.6535600" lon="3.2848240">
        <ele>154.0</ele>
        <time>2021-06-20T10:11:18Z</time>
      </trkpt>
      <trkpt lat="39.6534440" lon="3.2849010">
        <ele>153.8</ele>
        <time>2021-06-20T10:11:20Z</time>
      </trkpt>
      <trkpt lat="39.6534010" lon="3.2849570">
        <ele>153.7</ele>
        <time>2021-06-20T10:11:21Z</time>
      </trkpt>
      <trkpt lat="39.6533680" lon="3.2850060">
        <ele>153.6</ele>
        <time>2021-06-20T10:11:22Z</time>
      </trkpt>
      <trkpt lat="39.6532100" lon="3.2852840">
        <ele>153.4</ele>
        <time>2021-06-20T10:11:26Z</time>
      </trkpt>
      <trkpt lat="39.6530400" lon="3.2856080">
        <ele>153.4</ele>
        <time>2021-06-20T10:11:31Z</time>
      </trkpt>
      <trkpt lat="39.6529810" lon="3.2857270">
        <ele>153.4</ele>
        <time>2021-06-20T10:11:33Z</time>
      </trkpt>
      <trkpt lat="39.6528750" lon="3.2858750">
        <ele>153.5</ele>
        <time>2021-06-20T10:11:36Z</time>
      </trkpt>
      <trkpt lat="39.6528330" lon="3.2859140">
        <ele>153.5</ele>
        <time>2021-06-20T10:11:37Z</time>
      </trkpt>
      <trkpt lat="39.6528070" lon="3.2859520">
        <ele>153.5</ele>
        <time>2021-06-20T10:11:38Z</time>
      </trkpt>
      <trkpt lat="39.6527420" lon="3.2860690">
        <ele>153.5</ele>
        <time>2021-06-20T10:11:40Z</time>
      </trkpt>
      <trkpt lat="39.6527090" lon="3.2861160">
        <ele>153.5</ele>
        <time>2021-06-20T10:11:41Z</time>
      </trkpt>
      <trkpt lat="39.6526400" lon="3.2861810">
        <ele>153.5</ele>
        <time>2021-06-20T10:11:43Z</time>
      </trkpt>
      <trkpt lat="39.6525470" lon="3.2862140">
        <ele>153.4</ele>
        <time>2021-06-20T10:11:45Z</time>
      </trkpt>
      <trkpt lat="39.6522790" lon="3.2861970">
        <ele>152.8</ele>
        <time>2021-06-20T10:11:50Z</time>
      </trkpt>
      <trkpt lat="39.6522250" lon="3.2861930">
        <ele>152.5</ele>
        <time>2021-06-20T10:11:51Z</time>
      </trkpt>
      <trkpt lat="39.6518550" lon="3.2861220">
        <ele>150.2</ele>
        <time>2021-06-20T10:11:57Z</time>
      </trkpt>
      <trkpt lat="39.6517070" lon="3.2860980">
        <ele>148.9</ele>
        <time>2021-06-20T10:11:59Z</time>
      </trkpt>
      <trkpt lat="39.6515390" lon="3.2860720">
        <ele>147.5</ele>
        <time>2021-06-20T10:12:01Z</time>
      </trkpt>
      <trkpt lat="39.6514500" lon="3.2860590">
        <ele>146.7</ele>
        <time>2021-06-20T10:12:02Z</time>
      </trkpt>
      <trkpt lat="39.6509620" lon="3.2859740">
        <ele>142.8</ele>
        <time>2021-06-20T10:12:07Z</time>
      </trkpt>
      <trkpt lat="39.6508610" lon="3.2859750">
        <ele>142.0</ele>
        <time>2021-06-20T10:12:08Z</time>
      </trkpt>
      <trkpt lat="39.6506670" lon="3.2860380">
        <ele>140.7</ele>
        <time>2021-06-20T10:12:10Z</time>
      </trkpt>
      <trkpt lat="39.6504880" lon="3.2861520">
        <ele>139.8</ele>
        <time>2021-06-20T10:12:12Z</time>
      </trkpt>
      <trkpt lat="39.6503360" lon="3.2863000">
        <ele>139.6</ele>
        <time>2021-06-20T10:12:14Z</time>
      </trkpt>
      <trkpt lat="39.6502170" lon="3.2864280">
        <ele>139.2</ele>
        <time>2021-06-20T10:12:16Z</time>
      </trkpt>
      <trkpt lat="39.6501510" lon="3.2864400">
        <ele>139.0</ele>
        <time>2021-06-20T10:12:17Z</time>
      </trkpt>
      <trkpt lat="39.6500820" lon="3.2864200">
        <ele>138.8</ele>
        <time>2021-06-20T10:12:18Z</time>
      </trkpt>
      <trkpt lat="39.6500210" lon="3.2863810">
        <ele>138.6</ele>
        <time>2021-06-20T10:12:19Z</time>
      </trkpt>
      <trkpt lat="39.6499600" lon="3.2863380">
        <ele>138.4</ele>
        <time>2021-06-20T10:12:20Z</time>
      </trkpt>
      <trkpt lat="39.6496470" lon="3.2861250">
        <ele>137.4</ele>
        <time>2021-06-20T10:12:25Z</time>
      </trkpt>
      <trkpt lat="39.6495820" lon="3.2860880">
        <ele>137.3</ele>
        <time>2021-06-20T10:12:26Z</time>
      </trkpt>
      <trkpt lat="39.6494450" lon="3.2860280">
        <ele>137.4</ele>
        <time>2021-06-20T10:12:28Z</time>
      </trkpt>
      <trkpt lat="39.6493130" lon="3.2859640">
        <ele>137.7</ele>
        <time>2021-06-20T10:12:30Z</time>
      </trkpt>
      <trkpt lat="39.6492560" lon="3.2859210">
        <ele>138.0</ele>
        <time>2021-06-20T10:12:31Z</time>
      </trkpt>
      <trkpt lat="39.6490950" lon="3.2857410">
        <ele>138.8</ele>
        <time>2021-06-20T10:12:35Z</time>
      </trkpt>
      <trkpt lat="39.6489490" lon="3.2855420">
        <ele>139.3</ele>
        <time>2021-06-20T10:12:40Z</time>
      </trkpt>
      <trkpt lat="39.6489210" lon="3.2855010">
        <ele>139.4</ele>
        <time>2021-06-20T10:12:41Z</time>
      </trkpt>
      <trkpt lat="39.6489000" lon="3.2854640">
        <ele>139.3</ele>
        <time>2021-06-20T10:12:42Z</time>
      </trkpt>
      <trkpt lat="39.6487920" lon="3.2852560">
        <ele>139.0</ele>
        <time>2021-06-20T10:12:47Z</time>
      </trkpt>
      <trkpt lat="39.6485500" lon="3.2848700">
        <ele>137.0</ele>
        <time>2021-06-20T10:12:56Z</time>
      </trkpt>
      <trkpt lat="39.6483540" lon="3.2846280">
        <ele>135.3</ele>
        <time>2021-06-20T10:13:01Z</time>
      </trkpt>
      <trkpt lat="39.6483000" lon="3.2845620">
        <ele>134.8</ele>
        <time>2021-06-20T10:13:02Z</time>
      </trkpt>
      <trkpt lat="39.6482120" lon="3.2844620">
        <ele>134.1</ele>
        <time>2021-06-20T10:13:04Z</time>
      </trkpt>
      <trkpt lat="39.6480940" lon="3.2844040">
        <ele>133.3</ele>
        <time>2021-06-20T10:13:06Z</time>
      </trkpt>
      <trkpt lat="39.6479770" lon="3.2844890">
        <ele>132.4</ele>
        <time>2021-06-20T10:13:08Z</time>
      </trkpt>
      <trkpt lat="39.6477980" lon="3.2848540">
        <ele>130.9</ele>
        <time>2021-06-20T10:13:12Z</time>
      </trkpt>
      <trkpt lat="39.6477000" lon="3.2850260">
        <ele>130.7</ele>
        <time>2021-06-20T10:13:14Z</time>
      </trkpt>
      <trkpt lat="39.6475360" lon="3.2852410">
        <ele>130.5</ele>
        <time>2021-06-20T10:13:17Z</time>
      </trkpt>
      <trkpt lat="39.6473650" lon="3.2854090">
        <ele>130.2</ele>
        <time>2021-06-20T10:13:20Z</time>
      </trkpt>
      <trkpt lat="39.6472430" lon="3.2854980">
        <ele>130.2</ele>
        <time>2021-06-20T10:13:22Z</time>
      </trkpt>
      <trkpt lat="39.6469100" lon="3.2857310">
        <ele>130.1</ele>
        <time>2021-06-20T10:13:28Z</time>
      </trkpt>
      <trkpt lat="39.6466300" lon="3.2859100">
        <ele>129.7</ele>
        <time>2021-06-20T10:13:33Z</time>
      </trkpt>
      <trkpt lat="39.6465690" lon="3.2859280">
        <ele>129.6</ele>
        <time>2021-06-20T10:13:34Z</time>
      </trkpt>
      <trkpt lat="39.6464400" lon="3.2859480">
        <ele>129.3</ele>
        <time>2021-06-20T10:13:36Z</time>
      </trkpt>
      <trkpt lat="39.6463220" lon="3.2859230">
        <ele>129.1</ele>
        <time>2021-06-20T10:13:38Z</time>
      </trkpt>
      <trkpt lat="39.6462030" lon="3.2858360">
        <ele>128.8</ele>
        <time>2021-06-20T10:13:40Z</time>
      </trkpt>
      <trkpt lat="39.6460970" lon="3.2857190">
        <ele>128.4</ele>
        <time>2021-06-20T10:13:42Z</time>
      </trkpt>
      <trkpt lat="39.6456830" lon="3.2852390">
        <ele>127.1</ele>
        <time>2021-06-20T10:13:50Z</time>
      </trkpt>
      <trkpt lat="39.6455820" lon="3.2851610">
        <ele>126.9</ele>
        <time>2021-06-20T10:13:52Z</time>
      </trkpt>
      <trkpt lat="39.6453940" lon="3.2850650">
        <ele>126.2</ele>
        <time>2021-06-20T10:13:55Z</time>
      </trkpt>
      <trkpt lat="39.6453300" lon="3.2850370">
        <ele>126.1</ele>
        <time>2021-06-20T10:13:56Z</time>
      </trkpt>
      <trkpt lat="39.6450360" lon="3.2849450">
        <ele>125.0</ele>
        <time>2021-06-20T10:14:00Z</time>
      </trkpt>
      <trkpt lat="39.6445110" lon="3.2847860">
        <ele>123.3</ele>
        <time>2021-06-20T10:14:07Z</time>
      </trkpt>
      <trkpt lat="39.6444400" lon="3.2847730">
        <ele>123.1</ele>
        <time>2021-06-20T10:14:08Z</time>
      </trkpt>
      <trkpt lat="39.6442950" lon="3.2847810">
        <ele>122.6</ele>
        <time>2021-06-20T10:14:10Z</time>
      </trkpt>
      <trkpt lat="39.6438940" lon="3.2848160">
        <ele>121.4</ele>
        <time>2021-06-20T10:14:15Z</time>
      </trkpt>
      <trkpt lat="39.6437560" lon="3.2848620">
        <ele>121.1</ele>
        <time>2021-06-20T10:14:17Z</time>
      </trkpt>
      <trkpt lat="39.6434560" lon="3.2849730">
        <ele>120.7</ele>
        <time>2021-06-20T10:14:21Z</time>
      </trkpt>
      <trkpt lat="39.6433340" lon="3.2849920">
        <ele>120.6</ele>
        <time>2021-06-20T10:14:23Z</time>
      </trkpt>
      <trkpt lat="39.6431920" lon="3.2849740">
        <ele>120.5</ele>
        <time>2021-06-20T10:14:25Z</time>
      </trkpt>
      <trkpt lat="39.6430910" lon="3.2849170">
        <ele>120.4</ele>
        <time>2021-06-20T10:14:27Z</time>
      </trkpt>
      <trkpt lat="39.6428010" lon="3.2846450">
        <ele>119.8</ele>
        <time>2021-06-20T10:14:33Z</time>
      </trkpt>
      <trkpt lat="39.6426020" lon="3.2844790">
        <ele>119.6</ele>
        <time>2021-06-20T10:14:37Z</time>
      </trkpt>
      <trkpt lat="39.6425040" lon="3.2844380">
        <ele>119.5</ele>
        <time>2021-06-20T10:14:39Z</time>
      </trkpt>
      <trkpt lat="39.6424050" lon="3.2844120">
        <ele>119.4</ele>
        <time>2021-06-20T10:14:41Z</time>
      </trkpt>
      <trkpt lat="39.6423120" lon="3.2843470">
        <ele>119.3</ele>
        <time>2021-06-20T10:14:43Z</time>
      </trkpt>
      <trkpt lat="39.6421570" lon="3.2840650">
        <ele>118.8</ele>
        <time>2021-06-20T10:14:48Z</time>
      </trkpt>
      <trkpt lat="39.6419980" lon="3.2837730">
        <ele>118.2</ele>
        <time>2021-06-20T10:14:53Z</time>
      </trkpt>
      <trkpt lat="39.6419030" lon="3.2835950">
        <ele>117.9</ele>
        <time>2021-06-20T10:14:56Z</time>
      </trkpt>
      <trkpt lat="39.6417800" lon="3.2833550">
        <ele>117.6</ele>
        <time>2021-06-20T10:15:00Z</time>
      </trkpt>
      <trkpt lat="39.6415210" lon="3.2828440">
        <ele>117.4</ele>
        <time>2021-06-20T10:15:08Z</time>
      </trkpt>
      <trkpt lat="39.6413400" lon="3.2824840">
        <ele>117.6</ele>
        <time>2021-06-20T10:15:14Z</time>
      </trkpt>
      <trkpt lat="39.6413130" lon="3.2824340">
        <ele>117.6</ele>
        <time>2021-06-20T10:15:15Z</time>
      </trkpt>
      <trkpt lat="39.6412290" lon="3.2822910">
        <ele>117.5</ele>
        <time>2021-06-20T10:15:18Z</time>
      </trkpt>
      <trkpt lat="39.6411570" lon="3.2821270">
        <ele>117.4</ele>
        <time>2021-06-20T10:15:21Z</time>
      </trkpt>
      <trkpt lat="39.6409880" lon="3.2818160">
        <ele>117.2</ele>
        <time>2021-06-20T10:15:27Z</time>
      </trkpt>
      <trkpt lat="39.6409610" lon="3.2817640">
        <ele>117.2</ele>
        <time>2021-06-20T10:15:28Z</time>
      </trkpt>
      <trkpt lat="39.6407640" lon="3.2814040">
        <ele>117.1</ele>
        <time>2021-06-20T10:15:35Z</time>
      </trkpt>
      <trkpt lat="39.6405690" lon="3.2810310">
        <ele>116.5</ele>
        <time>2021-06-20T10:15:43Z</time>
      </trkpt>
      <trkpt lat="39.6404890" lon="3.2809650">
        <ele>116.3</ele>
        <time>2021-06-20T10:15:45Z</time>
      </trkpt>
      <trkpt lat="39.6403980" lon="3.2809340">
        <ele>116.0</ele>
        <time>2021-06-20T10:15:47Z</time>
      </trkpt>
      <trkpt lat="39.6402660" lon="3.2809090">
        <ele>115.7</ele>
        <time>2021-06-20T10:15:50Z</time>
      </trkpt>
      <trkpt lat="39.6400150" lon="3.2808730">
        <ele>115.0</ele>
        <time>2021-06-20T10:15:55Z</time>
      </trkpt>
      <trkpt lat="39.6396380" lon="3.2808250">
        <ele>114.3</ele>
        <time>2021-06-20T10:16:02Z</time>
      </trkpt>
      <trkpt lat="39.6395180" lon="3.2808270">
        <ele>114.4</ele>
        <time>2021-06-20T10:16:04Z</time>
      </trkpt>
      <trkpt lat="39.6394030" lon="3.2807860">
        <ele>114.5</ele>
        <time>2021-06-20T10:16:06Z</time>
      </trkpt>
      <trkpt lat="39.6393210" lon="3.2806780">
        <ele>114.5</ele>
        <time>2021-06-20T10:16:08Z</time>
      </trkpt>
      <trkpt lat="39.6392900" lon="3.2806130">
        <ele>114.5</ele>
        <time>2021-06-20T10:16:09Z</time>
      </trkpt>
      <trkpt lat="39.6390700" lon="3.2801350">
        <ele>115.0</ele>
        <time>2021-06-20T10:16:17Z</time>
      </trkpt>
      <trkpt lat="39.6389710" lon="3.2799110">
        <ele>115.4</ele>
        <time>2021-06-20T10:16:22Z</time>
      </trkpt>
      <trkpt lat="39.6389380" lon="3.2798370">
        <ele>115.4</ele>
        <time>2021-06-20T10:16:24Z</time>
      </trkpt>
      <trkpt lat="39.6388800" lon="3.2797050">
        <ele>115.3</ele>
        <time>2021-06-20T10:16:27Z</time>
      </trkpt>
      <trkpt lat="39.6388250" lon="3.2795900">
        <ele>115.2</ele>
        <time>2021-06-20T10:16:30Z</time>
      </trkpt>
      <trkpt lat="39.6387590" lon="3.2795060">
        <ele>115.0</ele>
        <time>2021-06-20T10:16:33Z</time>
      </trkpt>
      <trkpt lat="39.6387290" lon="3.2794980">
        <ele>114.8</ele>
        <time>2021-06-20T10:16:34Z</time>
      </trkpt>
      <trkpt lat="39.6385750" lon="3.2795880">
        <ele>114.2</ele>
        <time>2021-06-20T10:16:38Z</time>
      </trkpt>
      <trkpt lat="39.6384370" lon="3.2797110">
        <ele>113.7</ele>
        <time>2021-06-20T10:16:41Z</time>
      </trkpt>
      <trkpt lat="39.6383410" lon="3.2797990">
        <ele>113.5</ele>
        <time>2021-06-20T10:16:43Z</time>
      </trkpt>
      <trkpt lat="39.6382410" lon="3.2798720">
        <ele>113.3</ele>
        <time>2021-06-20T10:16:45Z</time>
      </trkpt>
      <trkpt lat="39.6380880" lon="3.2799910">
        <ele>113.0</ele>
        <time>2021-06-20T10:16:48Z</time>
      </trkpt>
      <trkpt lat="39.6379750" lon="3.2800490">
        <ele>112.7</ele>
        <time>2021-06-20T10:16:50Z</time>
      </trkpt>
      <trkpt lat="39.6376260" lon="3.2801450">
        <ele>112.2</ele>
        <time>2021-06-20T10:16:55Z</time>
      </trkpt>
      <trkpt lat="39.6374870" lon="3.2801790">
        <ele>112.4</ele>
        <time>2021-06-20T10:16:57Z</time>
      </trkpt>
      <trkpt lat="39.6373020" lon="3.2802340">
        <ele>112.6</ele>
        <time>2021-06-20T10:17:00Z</time>
      </trkpt>
      <trkpt lat="39.6372020" lon="3.2802720">
        <ele>112.8</ele>
        <time>2021-06-20T10:17:02Z</time>
      </trkpt>
      <trkpt lat="39.6370820" lon="3.2803400">
        <ele>113.0</ele>
        <time>2021-06-20T10:17:05Z</time>
      </trkpt>
      <trkpt lat="39.6370090" lon="3.2803880">
        <ele>113.2</ele>
        <time>2021-06-20T10:17:07Z</time>
      </trkpt>
      <trkpt lat="39.6367170" lon="3.2805580">
        <ele>112.9</ele>
        <time>2021-06-20T10:17:14Z</time>
      </trkpt>
      <trkpt lat="39.6366250" lon="3.2806200">
        <ele>112.7</ele>
        <time>2021-06-20T10:17:16Z</time>
      </trkpt>
      <trkpt lat="39.6364000" lon="3.2807510">
        <ele>113.0</ele>
        <time>2021-06-20T10:17:20Z</time>
      </trkpt>
      <trkpt lat="39.6362980" lon="3.2808040">
        <ele>113.4</ele>
        <time>2021-06-20T10:17:22Z</time>
      </trkpt>
      <trkpt lat="39.6362510" lon="3.2808230">
        <ele>113.6</ele>
        <time>2021-06-20T10:17:23Z</time>
      </trkpt>
      <trkpt lat="39.6361640" lon="3.2808420">
        <ele>114.0</ele>
        <time>2021-06-20T10:17:25Z</time>
      </trkpt>
      <trkpt lat="39.6360760" lon="3.2808550">
        <ele>114.3</ele>
        <time>2021-06-20T10:17:27Z</time>
      </trkpt>
      <trkpt lat="39.6358220" lon="3.2808780">
        <ele>115.0</ele>
        <time>2021-06-20T10:17:33Z</time>
      </trkpt>
      <trkpt lat="39.6356170" lon="3.2808940">
        <ele>115.5</ele>
        <time>2021-06-20T10:17:38Z</time>
      </trkpt>
      <trkpt lat="39.6355390" lon="3.2808960">
        <ele>115.6</ele>
        <time>2021-06-20T10:17:40Z</time>
      </trkpt>
      <trkpt lat="39.6354970" lon="3.2809000">
        <ele>115.7</ele>
        <time>2021-06-20T10:17:41Z</time>
      </trkpt>
      <trkpt lat="39.6354060" lon="3.2809110">
        <ele>115.9</ele>
        <time>2021-06-20T10:17:43Z</time>
      </trkpt>
      <trkpt lat="39.6353130" lon="3.2809170">
        <ele>116.2</ele>
        <time>2021-06-20T10:17:45Z</time>
      </trkpt>
      <trkpt lat="39.6351690" lon="3.2809350">
        <ele>116.6</ele>
        <time>2021-06-20T10:17:48Z</time>
      </trkpt>
      <trkpt lat="39.6351220" lon="3.2809390">
        <ele>116.8</ele>
        <time>2021-06-20T10:17:49Z</time>
      </trkpt>
      <trkpt lat="39.6348800" lon="3.2809760">
        <ele>118.1</ele>
        <time>2021-06-20T10:17:55Z</time>
      </trkpt>
      <trkpt lat="39.6346870" lon="3.2810350">
        <ele>118.9</ele>
        <time>2021-06-20T10:18:00Z</time>
      </trkpt>
      <trkpt lat="39.6345830" lon="3.2810660">
        <ele>119.3</ele>
        <time>2021-06-20T10:18:03Z</time>
      </trkpt>
      <trkpt lat="39.6345510" lon="3.2810750">
        <ele>119.3</ele>
        <time>2021-06-20T10:18:04Z</time>
      </trkpt>
      <trkpt lat="39.6344280" lon="3.2811190">
        <ele>119.4</ele>
        <time>2021-06-20T10:18:08Z</time>
      </trkpt>
      <trkpt lat="39.6343620" lon="3.2811490">
        <ele>119.4</ele>
        <time>2021-06-20T10:18:10Z</time>
      </trkpt>
      <trkpt lat="39.6342250" lon="3.2812680">
        <ele>119.3</ele>
        <time>2021-06-20T10:18:14Z</time>
      </trkpt>
      <trkpt lat="39.6341500" lon="3.2813270">
        <ele>119.2</ele>
        <time>2021-06-20T10:18:16Z</time>
      </trkpt>
      <trkpt lat="39.6339540" lon="3.2814750">
        <ele>119.2</ele>
        <time>2021-06-20T10:18:21Z</time>
      </trkpt>
      <trkpt lat="39.6338730" lon="3.2815440">
        <ele>119.3</ele>
        <time>2021-06-20T10:18:23Z</time>
      </trkpt>
      <trkpt lat="39.6337900" lon="3.2816130">
        <ele>119.3</ele>
        <time>2021-06-20T10:18:25Z</time>
      </trkpt>
      <trkpt lat="39.6336070" lon="3.2817290">
        <ele>119.3</ele>
        <time>2021-06-20T10:18:29Z</time>
      </trkpt>
      <trkpt lat="39.6334760" lon="3.2818260">
        <ele>119.1</ele>
        <time>2021-06-20T10:18:32Z</time>
      </trkpt>
      <trkpt lat="39.6334310" lon="3.2818460">
        <ele>119.0</ele>
        <time>2021-06-20T10:18:33Z</time>
      </trkpt>
      <trkpt lat="39.6333890" lon="3.2818660">
        <ele>118.9</ele>
        <time>2021-06-20T10:18:34Z</time>
      </trkpt>
      <trkpt lat="39.6333480" lon="3.2818870">
        <ele>118.7</ele>
        <time>2021-06-20T10:18:35Z</time>
      </trkpt>
      <trkpt lat="39.6332570" lon="3.2819270">
        <ele>118.4</ele>
        <time>2021-06-20T10:18:37Z</time>
      </trkpt>
      <trkpt lat="39.6329680" lon="3.2820380">
        <ele>117.1</ele>
        <time>2021-06-20T10:18:42Z</time>
      </trkpt>
      <trkpt lat="39.6327190" lon="3.2821330">
        <ele>115.7</ele>
        <time>2021-06-20T10:18:46Z</time>
      </trkpt>
      <trkpt lat="39.6325780" lon="3.2821900">
        <ele>114.6</ele>
        <time>2021-06-20T10:18:48Z</time>
      </trkpt>
      <trkpt lat="39.6321650" lon="3.2823450">
        <ele>111.5</ele>
        <time>2021-06-20T10:18:53Z</time>
      </trkpt>
      <trkpt lat="39.6319820" lon="3.2824160">
        <ele>110.5</ele>
        <time>2021-06-20T10:18:55Z</time>
      </trkpt>
      <trkpt lat="39.6318040" lon="3.2824880">
        <ele>109.6</ele>
        <time>2021-06-20T10:18:57Z</time>
      </trkpt>
      <trkpt lat="39.6317130" lon="3.2825230">
        <ele>109.2</ele>
        <time>2021-06-20T10:18:58Z</time>
      </trkpt>
      <trkpt lat="39.6315290" lon="3.2825960">
        <ele>108.4</ele>
        <time>2021-06-20T10:19:00Z</time>
      </trkpt>
      <trkpt lat="39.6314390" lon="3.2826290">
        <ele>107.9</ele>
        <time>2021-06-20T10:19:01Z</time>
      </trkpt>
      <trkpt lat="39.6309190" lon="3.2828230">
        <ele>103.0</ele>
        <time>2021-06-20T10:19:07Z</time>
      </trkpt>
      <trkpt lat="39.6307230" lon="3.2829100">
        <ele>101.3</ele>
        <time>2021-06-20T10:19:09Z</time>
      </trkpt>
      <trkpt lat="39.6306260" lon="3.2829820">
        <ele>100.4</ele>
        <time>2021-06-20T10:19:10Z</time>
      </trkpt>
      <trkpt lat="39.6305370" lon="3.2830700">
        <ele>99.6</ele>
        <time>2021-06-20T10:19:11Z</time>
      </trkpt>
      <trkpt lat="39.6303490" lon="3.2832220">
        <ele>98.3</ele>
        <time>2021-06-20T10:19:13Z</time>
      </trkpt>
      <trkpt lat="39.6301300" lon="3.2833210">
        <ele>97.3</ele>
        <time>2021-06-20T10:19:15Z</time>
      </trkpt>
      <trkpt lat="39.6299050" lon="3.2833690">
        <ele>96.4</ele>
        <time>2021-06-20T10:19:17Z</time>
      </trkpt>
      <trkpt lat="39.6296860" lon="3.2833690">
        <ele>95.8</ele>
        <time>2021-06-20T10:19:19Z</time>
      </trkpt>
      <trkpt lat="39.6295870" lon="3.2833390">
        <ele>95.6</ele>
        <time>2021-06-20T10:19:20Z</time>
      </trkpt>
      <trkpt lat="39.6294940" lon="3.2832900">
        <ele>95.4</ele>
        <time>2021-06-20T10:19:21Z</time>
      </trkpt>
      <trkpt lat="39.6293250" lon="3.2831670">
        <ele>95.0</ele>
        <time>2021-06-20T10:19:23Z</time>
      </trkpt>
      <trkpt lat="39.6290800" lon="3.2829980">
        <ele>94.7</ele>
        <time>2021-06-20T10:19:26Z</time>
      </trkpt>
      <trkpt lat="39.6288600" lon="3.2828700">
        <ele>94.6</ele>
        <time>2021-06-20T10:19:29Z</time>
      </trkpt>
      <trkpt lat="39.6287520" lon="3.2828120">
        <ele>94.5</ele>
        <time>2021-06-20T10:19:31Z</time>
      </trkpt>
      <trkpt lat="39.6287050" lon="3.2827820">
        <ele>94.5</ele>
        <time>2021-06-20T10:19:32Z</time>
      </trkpt>
      <trkpt lat="39.6284750" lon="3.2826460">
        <ele>94.5</ele>
        <time>2021-06-20T10:19:37Z</time>
      </trkpt>
      <trkpt lat="39.6284020" lon="3.2825980">
        <ele>94.5</ele>
        <time>2021-06-20T10:19:39Z</time>
      </trkpt>
      <trkpt lat="39.6282790" lon="3.2825130">
        <ele>94.2</ele>
        <time>2021-06-20T10:19:42Z</time>
      </trkpt>
      <trkpt lat="39.6281460" lon="3.2823710">
        <ele>93.9</ele>
        <time>2021-06-20T10:19:45Z</time>
      </trkpt>
      <trkpt lat="39.6280490" lon="3.2822640">
        <ele>93.7</ele>
        <time>2021-06-20T10:19:47Z</time>
      </trkpt>
      <trkpt lat="39.6279320" lon="3.2822130">
        <ele>93.5</ele>
        <time>2021-06-20T10:19:49Z</time>
      </trkpt>
      <trkpt lat="39.6276350" lon="3.2821850">
        <ele>93.1</ele>
        <time>2021-06-20T10:19:55Z</time>
      </trkpt>
      <trkpt lat="39.6272340" lon="3.2821020">
        <ele>92.1</ele>
        <time>2021-06-20T10:20:02Z</time>
      </trkpt>
      <trkpt lat="39.6271720" lon="3.2820920">
        <ele>92.0</ele>
        <time>2021-06-20T10:20:03Z</time>
      </trkpt>
      <trkpt lat="39.6270460" lon="3.2820670">
        <ele>91.7</ele>
        <time>2021-06-20T10:20:05Z</time>
      </trkpt>
      <trkpt lat="39.6269180" lon="3.2820470">
        <ele>91.3</ele>
        <time>2021-06-20T10:20:07Z</time>
      </trkpt>
      <trkpt lat="39.6267130" lon="3.2820440">
        <ele>90.8</ele>
        <time>2021-06-20T10:20:10Z</time>
      </trkpt>
      <trkpt lat="39.6265110" lon="3.2820390">
        <ele>90.4</ele>
        <time>2021-06-20T10:20:13Z</time>
      </trkpt>
      <trkpt lat="39.6262440" lon="3.2819950">
        <ele>90.1</ele>
        <time>2021-06-20T10:20:17Z</time>
      </trkpt>
      <trkpt lat="39.6260840" lon="3.2818570">
        <ele>90.0</ele>
        <time>2021-06-20T10:20:20Z</time>
      </trkpt>
      <trkpt lat="39.6260410" lon="3.2818020">
        <ele>90.0</ele>
        <time>2021-06-20T10:20:21Z</time>
      </trkpt>
      <trkpt lat="39.6259610" lon="3.2816980">
        <ele>89.9</ele>
        <time>2021-06-20T10:20:23Z</time>
      </trkpt>
      <trkpt lat="39.6259070" lon="3.2816230">
        <ele>89.9</ele>
        <time>2021-06-20T10:20:25Z</time>
      </trkpt>
      <trkpt lat="39.6258650" lon="3.2815800">
        <ele>89.9</ele>
        <time>2021-06-20T10:20:26Z</time>
      </trkpt>
      <trkpt lat="39.6257720" lon="3.2815330">
        <ele>89.9</ele>
        <time>2021-06-20T10:20:28Z</time>
      </trkpt>
      <trkpt lat="39.6257130" lon="3.2815230">
        <ele>89.9</ele>
        <time>2021-06-20T10:20:29Z</time>
      </trkpt>
      <trkpt lat="39.6256650" lon="3.2815260">
        <ele>89.9</ele>
        <time>2021-06-20T10:20:30Z</time>
      </trkpt>
      <trkpt lat="39.6254930" lon="3.2815740">
        <ele>89.8</ele>
        <time>2021-06-20T10:20:33Z</time>
      </trkpt>
      <trkpt lat="39.6251870" lon="3.2817180">
        <ele>89.6</ele>
        <time>2021-06-20T10:20:39Z</time>
      </trkpt>
      <trkpt lat="39.6251350" lon="3.2817340">
        <ele>89.6</ele>
        <time>2021-06-20T10:20:40Z</time>
      </trkpt>
      <trkpt lat="39.6250260" lon="3.2817280">
        <ele>89.5</ele>
        <time>2021-06-20T10:20:42Z</time>
      </trkpt>
      <trkpt lat="39.6249740" lon="3.2816990">
        <ele>89.4</ele>
        <time>2021-06-20T10:20:43Z</time>
      </trkpt>
      <trkpt lat="39.6246840" lon="3.2814480">
        <ele>89.3</ele>
        <time>2021-06-20T10:20:49Z</time>
      </trkpt>
      <trkpt lat="39.6246040" lon="3.2813760">
        <ele>89.3</ele>
        <time>2021-06-20T10:20:51Z</time>
      </trkpt>
      <trkpt lat="39.6245040" lon="3.2813720">
        <ele>89.2</ele>
        <time>2021-06-20T10:20:53Z</time>
      </trkpt>
      <trkpt lat="39.6244250" lon="3.2814760">
        <ele>88.8</ele>
        <time>2021-06-20T10:20:55Z</time>
      </trkpt>
      <trkpt lat="39.6243520" lon="3.2816130">
        <ele>88.5</ele>
        <time>2021-06-20T10:20:57Z</time>
      </trkpt>
      <trkpt lat="39.6241300" lon="3.2820460">
        <ele>88.2</ele>
        <time>2021-06-20T10:21:03Z</time>
      </trkpt>
      <trkpt lat="39.6239580" lon="3.2823630">
        <ele>88.8</ele>
        <time>2021-06-20T10:21:08Z</time>
      </trkpt>
      <trkpt lat="39.6238670" lon="3.2825430">
        <ele>89.2</ele>
        <time>2021-06-20T10:21:11Z</time>
      </trkpt>
      <trkpt lat="39.6237740" lon="3.2827200">
        <ele>89.7</ele>
        <time>2021-06-20T10:21:13Z</time>
      </trkpt>
      <trkpt lat="39.6236770" lon="3.2828970">
        <ele>90.4</ele>
        <time>2021-06-20T10:21:17Z</time>
      </trkpt>
      <trkpt lat="39.6236160" lon="3.2830170">
        <ele>90.8</ele>
        <time>2021-06-20T10:21:19Z</time>
      </trkpt>
      <trkpt lat="39.6235870" lon="3.2830740">
        <ele>91.0</ele>
        <time>2021-06-20T10:21:20Z</time>
      </trkpt>
      <trkpt lat="39.6234680" lon="3.2832940">
        <ele>91.6</ele>
        <time>2021-06-20T10:21:24Z</time>
      </trkpt>
      <trkpt lat="39.6233080" lon="3.2835810">
        <ele>92.2</ele>
        <time>2021-06-20T10:21:29Z</time>
      </trkpt>
      <trkpt lat="39.6230590" lon="3.2840590">
        <ele>94.0</ele>
        <time>2021-06-20T10:21:37Z</time>
      </trkpt>
      <trkpt lat="39.6229290" lon="3.2842990">
        <ele>95.4</ele>
        <time>2021-06-20T10:21:42Z</time>
      </trkpt>
      <trkpt lat="39.6228750" lon="3.2843900">
        <ele>95.9</ele>
        <time>2021-06-20T10:21:44Z</time>
      </trkpt>
      <trkpt lat="39.6227670" lon="3.2845980">
        <ele>96.9</ele>
        <time>2021-06-20T10:21:48Z</time>
      </trkpt>
      <trkpt lat="39.6227120" lon="3.2847040">
        <ele>97.2</ele>
        <time>2021-06-20T10:21:50Z</time>
      </trkpt>
      <trkpt lat="39.6226200" lon="3.2848570">
        <ele>97.6</ele>
        <time>2021-06-20T10:21:53Z</time>
      </trkpt>
      <trkpt lat="39.6224720" lon="3.2851350">
        <ele>97.8</ele>
        <time>2021-06-20T10:21:58Z</time>
      </trkpt>
      <trkpt lat="39.6223550" lon="3.2853800">
        <ele>97.9</ele>
        <time>2021-06-20T10:22:02Z</time>
      </trkpt>
      <trkpt lat="39.6222950" lon="3.2854960">
        <ele>98.0</ele>
        <time>2021-06-20T10:22:04Z</time>
      </trkpt>
      <trkpt lat="39.6219920" lon="3.2860580">
        <ele>97.7</ele>
        <time>2021-06-20T10:22:13Z</time>
      </trkpt>
      <trkpt lat="39.6218980" lon="3.2861390">
        <ele>97.5</ele>
        <time>2021-06-20T10:22:15Z</time>
      </trkpt>
      <trkpt lat="39.6218390" lon="3.2861490">
        <ele>97.2</ele>
        <time>2021-06-20T10:22:16Z</time>
      </trkpt>
      <trkpt lat="39.6217170" lon="3.2861770">
        <ele>96.6</ele>
        <time>2021-06-20T10:22:18Z</time>
      </trkpt>
      <trkpt lat="39.6216140" lon="3.2862730">
        <ele>95.9</ele>
        <time>2021-06-20T10:22:20Z</time>
      </trkpt>
      <trkpt lat="39.6214160" lon="3.2865920">
        <ele>93.3</ele>
        <time>2021-06-20T10:22:24Z</time>
      </trkpt>
      <trkpt lat="39.6211270" lon="3.2870700">
        <ele>90.3</ele>
        <time>2021-06-20T10:22:29Z</time>
      </trkpt>
      <trkpt lat="39.6209420" lon="3.2873650">
        <ele>89.3</ele>
        <time>2021-06-20T10:22:33Z</time>
      </trkpt>
      <trkpt lat="39.6208110" lon="3.2875720">
        <ele>89.2</ele>
        <time>2021-06-20T10:22:37Z</time>
      </trkpt>
      <trkpt lat="39.6207440" lon="3.2876590">
        <ele>89.0</ele>
        <time>2021-06-20T10:22:39Z</time>
      </trkpt>
      <trkpt lat="39.6206560" lon="3.2876600">
        <ele>88.7</ele>
        <time>2021-06-20T10:22:41Z</time>
      </trkpt>
      <trkpt lat="39.6205540" lon="3.2875920">
        <ele>88.1</ele>
        <time>2021-06-20T10:22:43Z</time>
      </trkpt>
      <trkpt lat="39.6204360" lon="3.2875180">
        <ele>87.6</ele>
        <time>2021-06-20T10:22:45Z</time>
      </trkpt>
      <trkpt lat="39.6200070" lon="3.2872410">
        <ele>86.4</ele>
        <time>2021-06-20T10:22:52Z</time>
      </trkpt>
      <trkpt lat="39.6197010" lon="3.2870390">
        <ele>85.8</ele>
        <time>2021-06-20T10:22:57Z</time>
      </trkpt>
      <trkpt lat="39.6195220" lon="3.2869230">
        <ele>85.8</ele>
        <time>2021-06-20T10:23:00Z</time>
      </trkpt>
      <trkpt lat="39.6194650" lon="3.2868870">
        <ele>85.7</ele>
        <time>2021-06-20T10:23:01Z</time>
      </trkpt>
      <trkpt lat="39.6193520" lon="3.2868310">
        <ele>85.7</ele>
        <time>2021-06-20T10:23:03Z</time>
      </trkpt>
      <trkpt lat="39.6192480" lon="3.2868600">
        <ele>85.6</ele>
        <time>2021-06-20T10:23:05Z</time>
      </trkpt>
      <trkpt lat="39.6191100" lon="3.2871230">
        <ele>85.0</ele>
        <time>2021-06-20T10:23:09Z</time>
      </trkpt>
      <trkpt lat="39.6189970" lon="3.2873430">
        <ele>84.5</ele>
        <time>2021-06-20T10:23:12Z</time>
      </trkpt>
      <trkpt lat="39.6188780" lon="3.2875650">
        <ele>84.1</ele>
        <time>2021-06-20T10:23:15Z</time>
      </trkpt>
      <trkpt lat="39.6187390" lon="3.2877830">
        <ele>83.8</ele>
        <time>2021-06-20T10:23:18Z</time>
      </trkpt>
      <trkpt lat="39.6186450" lon="3.2880320">
        <ele>83.6</ele>
        <time>2021-06-20T10:23:21Z</time>
      </trkpt>
      <trkpt lat="39.6184510" lon="3.2886830">
        <ele>83.1</ele>
        <time>2021-06-20T10:23:29Z</time>
      </trkpt>
      <trkpt lat="39.6183840" lon="3.2888570">
        <ele>83.0</ele>
        <time>2021-06-20T10:23:31Z</time>
      </trkpt>
      <trkpt lat="39.6183040" lon="3.2889910">
        <ele>83.1</ele>
        <time>2021-06-20T10:23:33Z</time>
      </trkpt>
      <trkpt lat="39.6181630" lon="3.2891770">
        <ele>83.1</ele>
        <time>2021-06-20T10:23:36Z</time>
      </trkpt>
      <trkpt lat="39.6179700" lon="3.2894600">
        <ele>83.3</ele>
        <time>2021-06-20T10:23:41Z</time>
      </trkpt>
      <trkpt lat="39.6178940" lon="3.2895870">
        <ele>83.3</ele>
        <time>2021-06-20T10:23:43Z</time>
      </trkpt>
      <trkpt lat="39.6177620" lon="3.2898320">
        <ele>83.2</ele>
        <time>2021-06-20T10:23:47Z</time>
      </trkpt>
      <trkpt lat="39.6177280" lon="3.2898960">
        <ele>83.2</ele>
        <time>2021-06-20T10:23:48Z</time>
      </trkpt>
      <trkpt lat="39.6176530" lon="3.2900160">
        <ele>83.3</ele>
        <time>2021-06-20T10:23:50Z</time>
      </trkpt>
      <trkpt lat="39.6175490" lon="3.2900570">
        <ele>83.1</ele>
        <time>2021-06-20T10:23:52Z</time>
      </trkpt>
      <trkpt lat="39.6174430" lon="3.2900000">
        <ele>82.9</ele>
        <time>2021-06-20T10:23:54Z</time>
      </trkpt>
      <trkpt lat="39.6173910" lon="3.2899570">
        <ele>82.8</ele>
        <time>2021-06-20T10:23:55Z</time>
      </trkpt>
      <trkpt lat="39.6169500" lon="3.2896760">
        <ele>82.0</ele>
        <time>2021-06-20T10:24:03Z</time>
      </trkpt>
      <trkpt lat="39.6168370" lon="3.2896420">
        <ele>81.8</ele>
        <time>2021-06-20T10:24:05Z</time>
      </trkpt>
      <trkpt lat="39.6165050" lon="3.2895390">
        <ele>81.3</ele>
        <time>2021-06-20T10:24:11Z</time>
      </trkpt>
      <trkpt lat="39.6164450" lon="3.2895220">
        <ele>81.3</ele>
        <time>2021-06-20T10:24:12Z</time>
      </trkpt>
      <trkpt lat="39.6162620" lon="3.2894720">
        <ele>81.0</ele>
        <time>2021-06-20T10:24:15Z</time>
      </trkpt>
      <trkpt lat="39.6161450" lon="3.2894260">
        <ele>80.8</ele>
        <time>2021-06-20T10:24:16Z</time>
      </trkpt>
      <trkpt lat="39.6161450" lon="3.2894260">
        <ele>80.8</ele>
        <time>2021-06-20T10:24:17Z</time>
      </trkpt>
      <trkpt lat="39.6160330" lon="3.2893730">
        <ele>80.7</ele>
        <time>2021-06-20T10:24:19Z</time>
      </trkpt>
      <trkpt lat="39.6158200" lon="3.2892780">
        <ele>80.4</ele>
        <time>2021-06-20T10:24:23Z</time>
      </trkpt>
      <trkpt lat="39.6157690" lon="3.2892430">
        <ele>80.4</ele>
        <time>2021-06-20T10:24:24Z</time>
      </trkpt>
      <trkpt lat="39.6154350" lon="3.2889790">
        <ele>80.1</ele>
        <time>2021-06-20T10:24:31Z</time>
      </trkpt>
      <trkpt lat="39.6152530" lon="3.2888060">
        <ele>79.9</ele>
        <time>2021-06-20T10:24:35Z</time>
      </trkpt>
      <trkpt lat="39.6151160" lon="3.2886810">
        <ele>79.8</ele>
        <time>2021-06-20T10:24:38Z</time>
      </trkpt>
      <trkpt lat="39.6149240" lon="3.2885300">
        <ele>79.8</ele>
        <time>2021-06-20T10:24:43Z</time>
      </trkpt>
      <trkpt lat="39.6148600" lon="3.2885650">
        <ele>79.6</ele>
        <time>2021-06-20T10:24:45Z</time>
      </trkpt>
      <trkpt lat="39.6148360" lon="3.2886060">
        <ele>79.4</ele>
        <time>2021-06-20T10:24:46Z</time>
      </trkpt>
      <trkpt lat="39.6148150" lon="3.2886410">
        <ele>79.3</ele>
        <time>2021-06-20T10:24:47Z</time>
      </trkpt>
      <trkpt lat="39.6147520" lon="3.2887200">
        <ele>79.0</ele>
        <time>2021-06-20T10:24:49Z</time>
      </trkpt>
      <trkpt lat="39.6147130" lon="3.2887210">
        <ele>78.9</ele>
        <time>2021-06-20T10:24:50Z</time>
      </trkpt>
      <trkpt lat="39.6146520" lon="3.2886710">
        <ele>78.6</ele>
        <time>2021-06-20T10:24:52Z</time>
      </trkpt>
      <trkpt lat="39.6146300" lon="3.2886310">
        <ele>78.6</ele>
        <time>2021-06-20T10:24:53Z</time>
      </trkpt>
      <trkpt lat="39.6145410" lon="3.2884450">
        <ele>78.5</ele>
        <time>2021-06-20T10:24:57Z</time>
      </trkpt>
      <trkpt lat="39.6144850" lon="3.2883270">
        <ele>78.5</ele>
        <time>2021-06-20T10:24:59Z</time>
      </trkpt>
      <trkpt lat="39.6144630" lon="3.2882730">
        <ele>78.5</ele>
        <time>2021-06-20T10:25:00Z</time>
      </trkpt>
      <trkpt lat="39.6143890" lon="3.2881130">
        <ele>78.5</ele>
        <time>2021-06-20T10:25:03Z</time>
      </trkpt>
      <trkpt lat="39.6143360" lon="3.2880020">
        <ele>78.5</ele>
        <time>2021-06-20T10:25:05Z</time>
      </trkpt>
      <trkpt lat="39.6142840" lon="3.2878970">
        <ele>78.5</ele>
        <time>2021-06-20T10:25:07Z</time>
      </trkpt>
      <trkpt lat="39.6142560" lon="3.2878510">
        <ele>78.5</ele>
        <time>2021-06-20T10:25:08Z</time>
      </trkpt>
      <trkpt lat="39.6140890" lon="3.2876210">
        <ele>78.1</ele>
        <time>2021-06-20T10:25:13Z</time>
      </trkpt>
      <trkpt lat="39.6140180" lon="3.2875260">
        <ele>77.9</ele>
        <time>2021-06-20T10:25:15Z</time>
      </trkpt>
      <trkpt lat="39.6137620" lon="3.2871760">
        <ele>77.2</ele>
        <time>2021-06-20T10:25:22Z</time>
      </trkpt>
      <trkpt lat="39.6137130" lon="3.2871120">
        <ele>77.1</ele>
        <time>2021-06-20T10:25:23Z</time>
      </trkpt>
      <trkpt lat="39.6136720" lon="3.2870540">
        <ele>77.0</ele>
        <time>2021-06-20T10:25:24Z</time>
      </trkpt>
      <trkpt lat="39.6134040" lon="3.2866610">
        <ele>76.1</ele>
        <time>2021-06-20T10:25:30Z</time>
      </trkpt>
      <trkpt lat="39.6133070" lon="3.2865240">
        <ele>75.8</ele>
        <time>2021-06-20T10:25:32Z</time>
      </trkpt>
      <trkpt lat="39.6131680" lon="3.2863170">
        <ele>75.6</ele>
        <time>2021-06-20T10:25:35Z</time>
      </trkpt>
      <trkpt lat="39.6129070" lon="3.2859190">
        <ele>75.9</ele>
        <time>2021-06-20T10:25:41Z</time>
      </trkpt>
      <trkpt lat="39.6128620" lon="3.2858550">
        <ele>76.0</ele>
        <time>2021-06-20T10:25:42Z</time>
      </trkpt>
      <trkpt lat="39.6127290" lon="3.2856700">
        <ele>76.4</ele>
        <time>2021-06-20T10:25:45Z</time>
      </trkpt>
      <trkpt lat="39.6126900" lon="3.2856190">
        <ele>76.5</ele>
        <time>2021-06-20T10:25:46Z</time>
      </trkpt>
      <trkpt lat="39.6126130" lon="3.2855180">
        <ele>76.7</ele>
        <time>2021-06-20T10:25:48Z</time>
      </trkpt>
      <trkpt lat="39.6125370" lon="3.2854190">
        <ele>77.0</ele>
        <time>2021-06-20T10:25:50Z</time>
      </trkpt>
      <trkpt lat="39.6125020" lon="3.2853620">
        <ele>77.2</ele>
        <time>2021-06-20T10:25:51Z</time>
      </trkpt>
      <trkpt lat="39.6124390" lon="3.2852550">
        <ele>77.5</ele>
        <time>2021-06-20T10:25:53Z</time>
      </trkpt>
      <trkpt lat="39.6123330" lon="3.2851180">
        <ele>77.7</ele>
        <time>2021-06-20T10:25:56Z</time>
      </trkpt>
      <trkpt lat="39.6122340" lon="3.2849840">
        <ele>77.8</ele>
        <time>2021-06-20T10:25:59Z</time>
      </trkpt>
      <trkpt lat="39.6120490" lon="3.2847460">
        <ele>77.7</ele>
        <time>2021-06-20T10:26:04Z</time>
      </trkpt>
      <trkpt lat="39.6118240" lon="3.2844460">
        <ele>77.2</ele>
        <time>2021-06-20T10:26:09Z</time>
      </trkpt>
      <trkpt lat="39.6117740" lon="3.2843860">
        <ele>77.1</ele>
        <time>2021-06-20T10:26:10Z</time>
      </trkpt>
      <trkpt lat="39.6115770" lon="3.2841400">
        <ele>76.5</ele>
        <time>2021-06-20T10:26:14Z</time>
      </trkpt>
      <trkpt lat="39.6114910" lon="3.2840240">
        <ele>76.3</ele>
        <time>2021-06-20T10:26:16Z</time>
      </trkpt>
      <trkpt lat="39.6113580" lon="3.2838690">
        <ele>76.0</ele>
        <time>2021-06-20T10:26:19Z</time>
      </trkpt>
      <trkpt lat="39.6113180" lon="3.2838110">
        <ele>75.9</ele>
        <time>2021-06-20T10:26:20Z</time>
      </trkpt>
      <trkpt lat="39.6112310" lon="3.2837040">
        <ele>75.7</ele>
        <time>2021-06-20T10:26:22Z</time>
      </trkpt>
      <trkpt lat="39.6110600" lon="3.2835010">
        <ele>75.3</ele>
        <time>2021-06-20T10:26:26Z</time>
      </trkpt>
      <trkpt lat="39.6109430" lon="3.2833550">
        <ele>74.8</ele>
        <time>2021-06-20T10:26:29Z</time>
      </trkpt>
      <trkpt lat="39.6108840" lon="3.2833030">
        <ele>74.6</ele>
        <time>2021-06-20T10:26:30Z</time>
      </trkpt>
      <trkpt lat="39.6105280" lon="3.2829830">
        <ele>73.3</ele>
        <time>2021-06-20T10:26:37Z</time>
      </trkpt>
      <trkpt lat="39.6103580" lon="3.2828280">
        <ele>72.8</ele>
        <time>2021-06-20T10:26:40Z</time>
      </trkpt>
      <trkpt lat="39.6101490" lon="3.2826540">
        <ele>72.4</ele>
        <time>2021-06-20T10:26:44Z</time>
      </trkpt>
      <trkpt lat="39.6100980" lon="3.2826090">
        <ele>72.3</ele>
        <time>2021-06-20T10:26:45Z</time>
      </trkpt>
      <trkpt lat="39.6100120" lon="3.2825120">
        <ele>72.3</ele>
        <time>2021-06-20T10:26:47Z</time>
      </trkpt>
      <trkpt lat="39.6099750" lon="3.2824860">
        <ele>72.3</ele>
        <time>2021-06-20T10:26:48Z</time>
      </trkpt>
      <trkpt lat="39.6099500" lon="3.2824870">
        <ele>72.3</ele>
        <time>2021-06-20T10:26:49Z</time>
      </trkpt>
      <trkpt lat="39.6099280" lon="3.2825120">
        <ele>72.3</ele>
        <time>2021-06-20T10:26:50Z</time>
      </trkpt>
      <trkpt lat="39.6099110" lon="3.2826430">
        <ele>72.2</ele>
        <time>2021-06-20T10:26:53Z</time>
      </trkpt>
      <trkpt lat="39.6099110" lon="3.2826430">
        <ele>72.2</ele>
        <time>2021-06-20T10:26:54Z</time>
      </trkpt>
      <trkpt lat="39.6099170" lon="3.2828890">
        <ele>72.2</ele>
        <time>2021-06-20T10:26:59Z</time>
      </trkpt>
      <trkpt lat="39.6099170" lon="3.2829930">
        <ele>72.2</ele>
        <time>2021-06-20T10:27:01Z</time>
      </trkpt>
      <trkpt lat="39.6099120" lon="3.2831380">
        <ele>72.2</ele>
        <time>2021-06-20T10:27:04Z</time>
      </trkpt>
      <trkpt lat="39.6099040" lon="3.2831760">
        <ele>72.2</ele>
        <time>2021-06-20T10:27:05Z</time>
      </trkpt>
      <trkpt lat="39.6098650" lon="3.2832430">
        <ele>72.2</ele>
        <time>2021-06-20T10:27:07Z</time>
      </trkpt>
      <trkpt lat="39.6097840" lon="3.2832760">
        <ele>72.3</ele>
        <time>2021-06-20T10:27:11Z</time>
      </trkpt>
      <trkpt lat="39.6097120" lon="3.2831990">
        <ele>72.2</ele>
        <time>2021-06-20T10:27:16Z</time>
      </trkpt>
      <trkpt lat="39.6096810" lon="3.2831180">
        <ele>72.1</ele>
        <time>2021-06-20T10:27:19Z</time>
      </trkpt>
      <trkpt lat="39.6095970" lon="3.2830100">
        <ele>72.1</ele>
        <time>2021-06-20T10:27:23Z</time>
      </trkpt>
      <trkpt lat="39.6095700" lon="3.2829750">
        <ele>72.1</ele>
        <time>2021-06-20T10:27:24Z</time>
      </trkpt>
      <trkpt lat="39.6095540" lon="3.2829570">
        <ele>72.1</ele>
        <time>2021-06-20T10:27:25Z</time>
      </trkpt>
      <trkpt lat="39.6094880" lon="3.2829640">
        <ele>71.9</ele>
        <time>2021-06-20T10:27:28Z</time>
      </trkpt>
      <trkpt lat="39.6094550" lon="3.2829640">
        <ele>71.9</ele>
        <time>2021-06-20T10:27:29Z</time>
      </trkpt>
      <trkpt lat="39.6093890" lon="3.2829920">
        <ele>71.7</ele>
        <time>2021-06-20T10:27:31Z</time>
      </trkpt>
      <trkpt lat="39.6093000" lon="3.2830320">
        <ele>71.5</ele>
        <time>2021-06-20T10:27:33Z</time>
      </trkpt>
      <trkpt lat="39.6091670" lon="3.2830850">
        <ele>71.3</ele>
        <time>2021-06-20T10:27:36Z</time>
      </trkpt>
      <trkpt lat="39.6090730" lon="3.2831360">
        <ele>71.2</ele>
        <time>2021-06-20T10:27:38Z</time>
      </trkpt>
      <trkpt lat="39.6090280" lon="3.2831530">
        <ele>71.2</ele>
        <time>2021-06-20T10:27:39Z</time>
      </trkpt>
      <trkpt lat="39.6088700" lon="3.2832380">
        <ele>71.1</ele>
        <time>2021-06-20T10:27:43Z</time>
      </trkpt>
      <trkpt lat="39.6087380" lon="3.2833110">
        <ele>71.1</ele>
        <time>2021-06-20T10:27:47Z</time>
      </trkpt>
      <trkpt lat="39.6087150" lon="3.2833290">
        <ele>71.1</ele>
        <time>2021-06-20T10:27:48Z</time>
      </trkpt>
      <trkpt lat="39.6085560" lon="3.2834470">
        <ele>70.8</ele>
        <time>2021-06-20T10:27:54Z</time>
      </trkpt>
      <trkpt lat="39.6084610" lon="3.2835220">
        <ele>70.7</ele>
        <time>2021-06-20T10:27:58Z</time>
      </trkpt>
      <trkpt lat="39.6084430" lon="3.2835520">
        <ele>70.6</ele>
        <time>2021-06-20T10:27:59Z</time>
      </trkpt>
      <trkpt lat="39.6084290" lon="3.2837250">
        <ele>70.6</ele>
        <time>2021-06-20T10:28:03Z</time>
      </trkpt>
      <trkpt lat="39.6084370" lon="3.2838590">
        <ele>70.5</ele>
        <time>2021-06-20T10:28:06Z</time>
      </trkpt>
      <trkpt lat="39.6084470" lon="3.2839700">
        <ele>70.5</ele>
        <time>2021-06-20T10:28:08Z</time>
      </trkpt>
      <trkpt lat="39.6084470" lon="3.2840270">
        <ele>70.5</ele>
        <time>2021-06-20T10:28:09Z</time>
      </trkpt>
      <trkpt lat="39.6084480" lon="3.2843020">
        <ele>70.3</ele>
        <time>2021-06-20T10:28:14Z</time>
      </trkpt>
      <trkpt lat="39.6084460" lon="3.2844220">
        <ele>70.3</ele>
        <time>2021-06-20T10:28:16Z</time>
      </trkpt>
      <trkpt lat="39.6084530" lon="3.2845510">
        <ele>70.2</ele>
        <time>2021-06-20T10:28:18Z</time>
      </trkpt>
      <trkpt lat="39.6084590" lon="3.2848580">
        <ele>70.1</ele>
        <time>2021-06-20T10:28:23Z</time>
      </trkpt>
      <trkpt lat="39.6084690" lon="3.2849830">
        <ele>70.1</ele>
        <time>2021-06-20T10:28:25Z</time>
      </trkpt>
      <trkpt lat="39.6084830" lon="3.2851090">
        <ele>70.1</ele>
        <time>2021-06-20T10:28:27Z</time>
      </trkpt>
      <trkpt lat="39.6084820" lon="3.2851730">
        <ele>70.0</ele>
        <time>2021-06-20T10:28:28Z</time>
      </trkpt>
      <trkpt lat="39.6084890" lon="3.2853140">
        <ele>70.0</ele>
        <time>2021-06-20T10:28:30Z</time>
      </trkpt>
      <trkpt lat="39.6084970" lon="3.2854550">
        <ele>70.0</ele>
        <time>2021-06-20T10:28:32Z</time>
      </trkpt>
      <trkpt lat="39.6084990" lon="3.2855950">
        <ele>70.0</ele>
        <time>2021-06-20T10:28:34Z</time>
      </trkpt>
      <trkpt lat="39.6084990" lon="3.2856630">
        <ele>70.0</ele>
        <time>2021-06-20T10:28:35Z</time>
      </trkpt>
      <trkpt lat="39.6085020" lon="3.2858160">
        <ele>70.0</ele>
        <time>2021-06-20T10:28:37Z</time>
      </trkpt>
      <trkpt lat="39.6085010" lon="3.2859640">
        <ele>70.0</ele>
        <time>2021-06-20T10:28:39Z</time>
      </trkpt>
      <trkpt lat="39.6085220" lon="3.2864970">
        <ele>69.7</ele>
        <time>2021-06-20T10:28:47Z</time>
      </trkpt>
      <trkpt lat="39.6085240" lon="3.2866250">
        <ele>69.6</ele>
        <time>2021-06-20T10:28:49Z</time>
      </trkpt>
      <trkpt lat="39.6085390" lon="3.2868230">
        <ele>69.6</ele>
        <time>2021-06-20T10:28:52Z</time>
      </trkpt>
      <trkpt lat="39.6085320" lon="3.2868880">
        <ele>69.6</ele>
        <time>2021-06-20T10:28:53Z</time>
      </trkpt>
      <trkpt lat="39.6084730" lon="3.2869910">
        <ele>69.3</ele>
        <time>2021-06-20T10:28:55Z</time>
      </trkpt>
      <trkpt lat="39.6082290" lon="3.2871750">
        <ele>68.8</ele>
        <time>2021-06-20T10:29:00Z</time>
      </trkpt>
      <trkpt lat="39.6079470" lon="3.2873790">
        <ele>68.5</ele>
        <time>2021-06-20T10:29:05Z</time>
      </trkpt>
      <trkpt lat="39.6079030" lon="3.2874230">
        <ele>68.4</ele>
        <time>2021-06-20T10:29:06Z</time>
      </trkpt>
      <trkpt lat="39.6078550" lon="3.2874630">
        <ele>68.4</ele>
        <time>2021-06-20T10:29:07Z</time>
      </trkpt>
      <trkpt lat="39.6077020" lon="3.2875690">
        <ele>68.3</ele>
        <time>2021-06-20T10:29:10Z</time>
      </trkpt>
      <trkpt lat="39.6074220" lon="3.2877440">
        <ele>68.3</ele>
        <time>2021-06-20T10:29:15Z</time>
      </trkpt>
      <trkpt lat="39.6073120" lon="3.2877720">
        <ele>68.3</ele>
        <time>2021-06-20T10:29:17Z</time>
      </trkpt>
      <trkpt lat="39.6070200" lon="3.2878220">
        <ele>68.4</ele>
        <time>2021-06-20T10:29:22Z</time>
      </trkpt>
      <trkpt lat="39.6069710" lon="3.2878540">
        <ele>68.4</ele>
        <time>2021-06-20T10:29:23Z</time>
      </trkpt>
      <trkpt lat="39.6069220" lon="3.2878930">
        <ele>68.3</ele>
        <time>2021-06-20T10:29:24Z</time>
      </trkpt>
      <trkpt lat="39.6068520" lon="3.2879850">
        <ele>68.3</ele>
        <time>2021-06-20T10:29:26Z</time>
      </trkpt>
      <trkpt lat="39.6068270" lon="3.2880310">
        <ele>68.3</ele>
        <time>2021-06-20T10:29:27Z</time>
      </trkpt>
      <trkpt lat="39.6067930" lon="3.2881260">
        <ele>68.3</ele>
        <time>2021-06-20T10:29:31Z</time>
      </trkpt>
      <trkpt lat="39.6067910" lon="3.2881280">
        <ele>68.3</ele>
        <time>2021-06-20T10:29:37Z</time>
      </trkpt>
      <trkpt lat="39.6067910" lon="3.2881280">
        <ele>68.3</ele>
        <time>2021-06-20T10:29:40Z</time>
      </trkpt>
      <trkpt lat="39.6067910" lon="3.2881280">
        <ele>68.3</ele>
        <time>2021-06-20T10:30:00Z</time>
      </trkpt>
      <trkpt lat="39.6067910" lon="3.2881280">
        <ele>68.3</ele>
        <time>2021-06-20T10:30:02Z</time>
      </trkpt>
      <trkpt lat="39.6067910" lon="3.2881280">
        <ele>68.3</ele>
        <time>2021-06-20T10:30:04Z</time>
      </trkpt>
      <trkpt lat="39.6067910" lon="3.2881280">
        <ele>68.3</ele>
        <time>2021-06-20T10:30:07Z</time>
      </trkpt>
      <trkpt lat="39.6067910" lon="3.2881280">
        <ele>68.3</ele>
        <time>2021-06-20T10:30:10Z</time>
      </trkpt>
      <trkpt lat="39.6067910" lon="3.2881280">
        <ele>68.3</ele>
        <time>2021-06-20T10:30:32Z</time>
      </trkpt>
      <trkpt lat="39.6067910" lon="3.2881280">
        <ele>68.3</ele>
        <time>2021-06-20T10:30:42Z</time>
      </trkpt>
      <trkpt lat="39.6067900" lon="3.2881300">
        <ele>68.3</ele>
        <time>2021-06-20T10:30:44Z</time>
      </trkpt>
      <trkpt lat="39.6067920" lon="3.2882210">
        <ele>68.3</ele>
        <time>2021-06-20T10:30:47Z</time>
      </trkpt>
      <trkpt lat="39.6067690" lon="3.2883650">
        <ele>68.2</ele>
        <time>2021-06-20T10:30:51Z</time>
      </trkpt>
      <trkpt lat="39.6067410" lon="3.2884410">
        <ele>68.2</ele>
        <time>2021-06-20T10:30:53Z</time>
      </trkpt>
      <trkpt lat="39.6066900" lon="3.2887170">
        <ele>68.1</ele>
        <time>2021-06-20T10:30:58Z</time>
      </trkpt>
      <trkpt lat="39.6065920" lon="3.2891660">
        <ele>67.9</ele>
        <time>2021-06-20T10:31:06Z</time>
      </trkpt>
      <trkpt lat="39.6064960" lon="3.2895500">
        <ele>67.3</ele>
        <time>2021-06-20T10:31:12Z</time>
      </trkpt>
      <trkpt lat="39.6063710" lon="3.2899720">
        <ele>66.6</ele>
        <time>2021-06-20T10:31:17Z</time>
      </trkpt>
      <trkpt lat="39.6061860" lon="3.2904470">
        <ele>65.9</ele>
        <time>2021-06-20T10:31:23Z</time>
      </trkpt>
      <trkpt lat="39.6060810" lon="3.2906780">
        <ele>65.6</ele>
        <time>2021-06-20T10:31:26Z</time>
      </trkpt>
      <trkpt lat="39.6060540" lon="3.2907560">
        <ele>65.6</ele>
        <time>2021-06-20T10:31:27Z</time>
      </trkpt>
      <trkpt lat="39.6060180" lon="3.2910100">
        <ele>65.3</ele>
        <time>2021-06-20T10:31:30Z</time>
      </trkpt>
      <trkpt lat="39.6058770" lon="3.2915110">
        <ele>65.1</ele>
        <time>2021-06-20T10:31:36Z</time>
      </trkpt>
      <trkpt lat="39.6056680" lon="3.2918410">
        <ele>65.1</ele>
        <time>2021-06-20T10:31:41Z</time>
      </trkpt>
      <trkpt lat="39.6054730" lon="3.2921180">
        <ele>65.3</ele>
        <time>2021-06-20T10:31:46Z</time>
      </trkpt>
      <trkpt lat="39.6053350" lon="3.2923360">
        <ele>65.3</ele>
        <time>2021-06-20T10:31:50Z</time>
      </trkpt>
      <trkpt lat="39.6052570" lon="3.2924350">
        <ele>65.2</ele>
        <time>2021-06-20T10:31:52Z</time>
      </trkpt>
      <trkpt lat="39.6047960" lon="3.2928130">
        <ele>64.5</ele>
        <time>2021-06-20T10:32:01Z</time>
      </trkpt>
      <trkpt lat="39.6046180" lon="3.2929170">
        <ele>64.4</ele>
        <time>2021-06-20T10:32:04Z</time>
      </trkpt>
      <trkpt lat="39.6044970" lon="3.2929190">
        <ele>64.4</ele>
        <time>2021-06-20T10:32:06Z</time>
      </trkpt>
      <trkpt lat="39.6043880" lon="3.2928640">
        <ele>64.5</ele>
        <time>2021-06-20T10:32:08Z</time>
      </trkpt>
      <trkpt lat="39.6043350" lon="3.2928090">
        <ele>64.5</ele>
        <time>2021-06-20T10:32:09Z</time>
      </trkpt>
      <trkpt lat="39.6042780" lon="3.2927200">
        <ele>64.5</ele>
        <time>2021-06-20T10:32:11Z</time>
      </trkpt>
      <trkpt lat="39.6042310" lon="3.2926010">
        <ele>64.4</ele>
        <time>2021-06-20T10:32:13Z</time>
      </trkpt>
      <trkpt lat="39.6041900" lon="3.2924550">
        <ele>64.1</ele>
        <time>2021-06-20T10:32:15Z</time>
      </trkpt>
      <trkpt lat="39.6042020" lon="3.2923270">
        <ele>64.0</ele>
        <time>2021-06-20T10:32:17Z</time>
      </trkpt>
      <trkpt lat="39.6043060" lon="3.2920580">
        <ele>63.8</ele>
        <time>2021-06-20T10:32:21Z</time>
      </trkpt>
      <trkpt lat="39.6043730" lon="3.2918720">
        <ele>64.0</ele>
        <time>2021-06-20T10:32:24Z</time>
      </trkpt>
      <trkpt lat="39.6043790" lon="3.2917430">
        <ele>64.1</ele>
        <time>2021-06-20T10:32:26Z</time>
      </trkpt>
      <trkpt lat="39.6043690" lon="3.2916980">
        <ele>64.2</ele>
        <time>2021-06-20T10:32:27Z</time>
      </trkpt>
      <trkpt lat="39.6043480" lon="3.2916460">
        <ele>64.2</ele>
        <time>2021-06-20T10:32:28Z</time>
      </trkpt>
      <trkpt lat="39.6042710" lon="3.2915610">
        <ele>64.3</ele>
        <time>2021-06-20T10:32:30Z</time>
      </trkpt>
      <trkpt lat="39.6041610" lon="3.2915000">
        <ele>64.4</ele>
        <time>2021-06-20T10:32:33Z</time>
      </trkpt>
      <trkpt lat="39.6041140" lon="3.2915100">
        <ele>64.4</ele>
        <time>2021-06-20T10:32:34Z</time>
      </trkpt>
      <trkpt lat="39.6040490" lon="3.2915680">
        <ele>64.4</ele>
        <time>2021-06-20T10:32:36Z</time>
      </trkpt>
      <trkpt lat="39.6039790" lon="3.2916530">
        <ele>64.4</ele>
        <time>2021-06-20T10:32:39Z</time>
      </trkpt>
      <trkpt lat="39.6039480" lon="3.2916740">
        <ele>64.4</ele>
        <time>2021-06-20T10:32:43Z</time>
      </trkpt>
      <trkpt lat="39.6039180" lon="3.2916840">
        <ele>64.4</ele>
        <time>2021-06-20T10:32:46Z</time>
      </trkpt>
      <trkpt lat="39.6038820" lon="3.2916880">
        <ele>64.4</ele>
        <time>2021-06-20T10:32:48Z</time>
      </trkpt>
      <trkpt lat="39.6037570" lon="3.2917430">
        <ele>64.4</ele>
        <time>2021-06-20T10:32:52Z</time>
      </trkpt>
      <trkpt lat="39.6036690" lon="3.2918650">
        <ele>64.5</ele>
        <time>2021-06-20T10:32:55Z</time>
      </trkpt>
      <trkpt lat="39.6036430" lon="3.2919740">
        <ele>64.5</ele>
        <time>2021-06-20T10:32:56Z</time>
      </trkpt>
      <trkpt lat="39.6036400" lon="3.2920240">
        <ele>64.5</ele>
        <time>2021-06-20T10:32:58Z</time>
      </trkpt>
      <trkpt lat="39.6036380" lon="3.2921770">
        <ele>64.5</ele>
        <time>2021-06-20T10:33:00Z</time>
      </trkpt>
      <trkpt lat="39.6036250" lon="3.2922480">
        <ele>64.6</ele>
        <time>2021-06-20T10:33:01Z</time>
      </trkpt>
      <trkpt lat="39.6035470" lon="3.2926820">
        <ele>65.0</ele>
        <time>2021-06-20T10:33:07Z</time>
      </trkpt>
      <trkpt lat="39.6034880" lon="3.2928790">
        <ele>65.6</ele>
        <time>2021-06-20T10:33:10Z</time>
      </trkpt>
      <trkpt lat="39.6034280" lon="3.2929670">
        <ele>65.9</ele>
        <time>2021-06-20T10:33:12Z</time>
      </trkpt>
      <trkpt lat="39.6033560" lon="3.2930320">
        <ele>66.2</ele>
        <time>2021-06-20T10:33:14Z</time>
      </trkpt>
      <trkpt lat="39.6032240" lon="3.2931110">
        <ele>66.4</ele>
        <time>2021-06-20T10:33:17Z</time>
      </trkpt>
      <trkpt lat="39.6028450" lon="3.2933210">
        <ele>66.8</ele>
        <time>2021-06-20T10:33:25Z</time>
      </trkpt>
      <trkpt lat="39.6027800" lon="3.2933560">
        <ele>66.7</ele>
        <time>2021-06-20T10:33:26Z</time>
      </trkpt>
      <trkpt lat="39.6024080" lon="3.2935590">
        <ele>66.5</ele>
        <time>2021-06-20T10:33:33Z</time>
      </trkpt>
      <trkpt lat="39.6023650" lon="3.2935850">
        <ele>66.4</ele>
        <time>2021-06-20T10:33:34Z</time>
      </trkpt>
      <trkpt lat="39.6021830" lon="3.2936810">
        <ele>66.0</ele>
        <time>2021-06-20T10:33:37Z</time>
      </trkpt>
      <trkpt lat="39.6019990" lon="3.2937810">
        <ele>65.8</ele>
        <time>2021-06-20T10:33:40Z</time>
      </trkpt>
      <trkpt lat="39.6018700" lon="3.2938480">
        <ele>65.6</ele>
        <time>2021-06-20T10:33:42Z</time>
      </trkpt>
      <trkpt lat="39.6016920" lon="3.2939510">
        <ele>65.4</ele>
        <time>2021-06-20T10:33:45Z</time>
      </trkpt>
      <trkpt lat="39.6015600" lon="3.2940150">
        <ele>65.2</ele>
        <time>2021-06-20T10:33:47Z</time>
      </trkpt>
      <trkpt lat="39.6014310" lon="3.2940850">
        <ele>65.1</ele>
        <time>2021-06-20T10:33:49Z</time>
      </trkpt>
      <trkpt lat="39.6012400" lon="3.2941890">
        <ele>65.1</ele>
        <time>2021-06-20T10:33:52Z</time>
      </trkpt>
      <trkpt lat="39.6007940" lon="3.2944380">
        <ele>65.2</ele>
        <time>2021-06-20T10:33:59Z</time>
      </trkpt>
      <trkpt lat="39.6006130" lon="3.2945400">
        <ele>65.3</ele>
        <time>2021-06-20T10:34:02Z</time>
      </trkpt>
      <trkpt lat="39.6003370" lon="3.2947490">
        <ele>65.9</ele>
        <time>2021-06-20T10:34:07Z</time>
      </trkpt>
      <trkpt lat="39.6000630" lon="3.2950520">
        <ele>65.4</ele>
        <time>2021-06-20T10:34:13Z</time>
      </trkpt>
      <trkpt lat="39.5999000" lon="3.2952390">
        <ele>64.6</ele>
        <time>2021-06-20T10:34:16Z</time>
      </trkpt>
      <trkpt lat="39.5998560" lon="3.2952870">
        <ele>64.4</ele>
        <time>2021-06-20T10:34:17Z</time>
      </trkpt>
      <trkpt lat="39.5995650" lon="3.2955970">
        <ele>63.3</ele>
        <time>2021-06-20T10:34:22Z</time>
      </trkpt>
      <trkpt lat="39.5994470" lon="3.2957180">
        <ele>62.8</ele>
        <time>2021-06-20T10:34:24Z</time>
      </trkpt>
      <trkpt lat="39.5993840" lon="3.2957780">
        <ele>62.5</ele>
        <time>2021-06-20T10:34:25Z</time>
      </trkpt>
      <trkpt lat="39.5989450" lon="3.2962050">
        <ele>61.7</ele>
        <time>2021-06-20T10:34:32Z</time>
      </trkpt>
      <trkpt lat="39.5988170" lon="3.2963250">
        <ele>61.9</ele>
        <time>2021-06-20T10:34:34Z</time>
      </trkpt>
      <trkpt lat="39.5984500" lon="3.2966810">
        <ele>63.4</ele>
        <time>2021-06-20T10:34:41Z</time>
      </trkpt>
      <trkpt lat="39.5983570" lon="3.2967730">
        <ele>63.9</ele>
        <time>2021-06-20T10:34:43Z</time>
      </trkpt>
      <trkpt lat="39.5982290" lon="3.2969040">
        <ele>64.6</ele>
        <time>2021-06-20T10:34:46Z</time>
      </trkpt>
      <trkpt lat="39.5981480" lon="3.2969900">
        <ele>65.1</ele>
        <time>2021-06-20T10:34:48Z</time>
      </trkpt>
      <trkpt lat="39.5979410" lon="3.2972400">
        <ele>66.9</ele>
        <time>2021-06-20T10:34:54Z</time>
      </trkpt>
      <trkpt lat="39.5978250" lon="3.2973760">
        <ele>68.2</ele>
        <time>2021-06-20T10:34:58Z</time>
      </trkpt>
      <trkpt lat="39.5977960" lon="3.2974080">
        <ele>68.5</ele>
        <time>2021-06-20T10:34:59Z</time>
      </trkpt>
      <trkpt lat="39.5976960" lon="3.2975260">
        <ele>69.8</ele>
        <time>2021-06-20T10:35:03Z</time>
      </trkpt>
      <trkpt lat="39.5976290" lon="3.2976120">
        <ele>70.8</ele>
        <time>2021-06-20T10:35:06Z</time>
      </trkpt>
      <trkpt lat="39.5974900" lon="3.2977870">
        <ele>72.9</ele>
        <time>2021-06-20T10:35:13Z</time>
      </trkpt>
      <trkpt lat="39.5974190" lon="3.2978870">
        <ele>74.1</ele>
        <time>2021-06-20T10:35:17Z</time>
      </trkpt>
      <trkpt lat="39.5973530" lon="3.2979510">
        <ele>75.0</ele>
        <time>2021-06-20T10:35:20Z</time>
      </trkpt>
      <trkpt lat="39.5972860" lon="3.2980170">
        <ele>75.8</ele>
        <time>2021-06-20T10:35:23Z</time>
      </trkpt>
      <trkpt lat="39.5971810" lon="3.2981410">
        <ele>77.1</ele>
        <time>2021-06-20T10:35:28Z</time>
      </trkpt>
      <trkpt lat="39.5971610" lon="3.2981680">
        <ele>77.3</ele>
        <time>2021-06-20T10:35:29Z</time>
      </trkpt>
      <trkpt lat="39.5970990" lon="3.2982520">
        <ele>78.0</ele>
        <time>2021-06-20T10:35:32Z</time>
      </trkpt>
      <trkpt lat="39.5970260" lon="3.2983780">
        <ele>78.8</ele>
        <time>2021-06-20T10:35:36Z</time>
      </trkpt>
      <trkpt lat="39.5969440" lon="3.2985590">
        <ele>80.0</ele>
        <time>2021-06-20T10:35:41Z</time>
      </trkpt>
      <trkpt lat="39.5969110" lon="3.2986260">
        <ele>80.4</ele>
        <time>2021-06-20T10:35:43Z</time>
      </trkpt>
      <trkpt lat="39.5967780" lon="3.2988670">
        <ele>81.7</ele>
        <time>2021-06-20T10:35:50Z</time>
      </trkpt>
      <trkpt lat="39.5965090" lon="3.2991680">
        <ele>83.0</ele>
        <time>2021-06-20T10:36:00Z</time>
      </trkpt>
      <trkpt lat="39.5962190" lon="3.2994690">
        <ele>84.0</ele>
        <time>2021-06-20T10:36:09Z</time>
      </trkpt>
      <trkpt lat="39.5959260" lon="3.2997950">
        <ele>85.4</ele>
        <time>2021-06-20T10:36:19Z</time>
      </trkpt>
      <trkpt lat="39.5956370" lon="3.3001810">
        <ele>85.8</ele>
        <time>2021-06-20T10:36:29Z</time>
      </trkpt>
      <trkpt lat="39.5954210" lon="3.3005560">
        <ele>84.9</ele>
        <time>2021-06-20T10:36:35Z</time>
      </trkpt>
      <trkpt lat="39.5952500" lon="3.3010440">
        <ele>84.6</ele>
        <time>2021-06-20T10:36:41Z</time>
      </trkpt>
      <trkpt lat="39.5951050" lon="3.3015330">
        <ele>83.9</ele>
        <time>2021-06-20T10:36:47Z</time>
      </trkpt>
      <trkpt lat="39.5948800" lon="3.3020740">
        <ele>82.5</ele>
        <time>2021-06-20T10:36:53Z</time>
      </trkpt>
      <trkpt lat="39.5945980" lon="3.3026210">
        <ele>80.4</ele>
        <time>2021-06-20T10:36:59Z</time>
      </trkpt>
      <trkpt lat="39.5943890" lon="3.3028480">
        <ele>78.5</ele>
        <time>2021-06-20T10:37:02Z</time>
      </trkpt>
      <trkpt lat="39.5943050" lon="3.3029090">
        <ele>77.8</ele>
        <time>2021-06-20T10:37:03Z</time>
      </trkpt>
      <trkpt lat="39.5939250" lon="3.3031140">
        <ele>74.1</ele>
        <time>2021-06-20T10:37:07Z</time>
      </trkpt>
      <trkpt lat="39.5933970" lon="3.3034080">
        <ele>69.2</ele>
        <time>2021-06-20T10:37:12Z</time>
      </trkpt>
      <trkpt lat="39.5932850" lon="3.3034650">
        <ele>68.1</ele>
        <time>2021-06-20T10:37:13Z</time>
      </trkpt>
      <trkpt lat="39.5927260" lon="3.3037480">
        <ele>62.7</ele>
        <time>2021-06-20T10:37:18Z</time>
      </trkpt>
      <trkpt lat="39.5925840" lon="3.3038190">
        <ele>61.6</ele>
        <time>2021-06-20T10:37:19Z</time>
      </trkpt>
      <trkpt lat="39.5922310" lon="3.3040060">
        <ele>59.6</ele>
        <time>2021-06-20T10:37:22Z</time>
      </trkpt>
      <trkpt lat="39.5918970" lon="3.3042150">
        <ele>58.6</ele>
        <time>2021-06-20T10:37:25Z</time>
      </trkpt>
      <trkpt lat="39.5913580" lon="3.3045760">
        <ele>59.8</ele>
        <time>2021-06-20T10:37:30Z</time>
      </trkpt>
      <trkpt lat="39.5910670" lon="3.3047720">
        <ele>61.4</ele>
        <time>2021-06-20T10:37:33Z</time>
      </trkpt>
      <trkpt lat="39.5908270" lon="3.3049170">
        <ele>63.0</ele>
        <time>2021-06-20T10:37:36Z</time>
      </trkpt>
      <trkpt lat="39.5907510" lon="3.3049470">
        <ele>63.4</ele>
        <time>2021-06-20T10:37:37Z</time>
      </trkpt>
      <trkpt lat="39.5906750" lon="3.3049670">
        <ele>63.9</ele>
        <time>2021-06-20T10:37:38Z</time>
      </trkpt>
      <trkpt lat="39.5905330" lon="3.3049630">
        <ele>64.9</ele>
        <time>2021-06-20T10:37:40Z</time>
      </trkpt>
      <trkpt lat="39.5902960" lon="3.3048410">
        <ele>66.8</ele>
        <time>2021-06-20T10:37:44Z</time>
      </trkpt>
      <trkpt lat="39.5899670" lon="3.3046220">
        <ele>68.6</ele>
        <time>2021-06-20T10:37:50Z</time>
      </trkpt>
      <trkpt lat="39.5898590" lon="3.3045630">
        <ele>68.7</ele>
        <time>2021-06-20T10:37:52Z</time>
      </trkpt>
      <trkpt lat="39.5897500" lon="3.3045300">
        <ele>68.5</ele>
        <time>2021-06-20T10:37:54Z</time>
      </trkpt>
      <trkpt lat="39.5896960" lon="3.3045300">
        <ele>68.4</ele>
        <time>2021-06-20T10:37:55Z</time>
      </trkpt>
      <trkpt lat="39.5896380" lon="3.3045410">
        <ele>68.2</ele>
        <time>2021-06-20T10:37:56Z</time>
      </trkpt>
      <trkpt lat="39.5894730" lon="3.3046380">
        <ele>67.3</ele>
        <time>2021-06-20T10:37:59Z</time>
      </trkpt>
      <trkpt lat="39.5892100" lon="3.3048510">
        <ele>65.0</ele>
        <time>2021-06-20T10:38:03Z</time>
      </trkpt>
      <trkpt lat="39.5890490" lon="3.3049790">
        <ele>63.6</ele>
        <time>2021-06-20T10:38:05Z</time>
      </trkpt>
      <trkpt lat="39.5889580" lon="3.3050350">
        <ele>62.9</ele>
        <time>2021-06-20T10:38:06Z</time>
      </trkpt>
      <trkpt lat="39.5888620" lon="3.3050810">
        <ele>62.4</ele>
        <time>2021-06-20T10:38:07Z</time>
      </trkpt>
      <trkpt lat="39.5884010" lon="3.3052000">
        <ele>61.2</ele>
        <time>2021-06-20T10:38:12Z</time>
      </trkpt>
      <trkpt lat="39.5877960" lon="3.3053090">
        <ele>60.6</ele>
        <time>2021-06-20T10:38:19Z</time>
      </trkpt>
      <trkpt lat="39.5876350" lon="3.3053490">
        <ele>60.8</ele>
        <time>2021-06-20T10:38:21Z</time>
      </trkpt>
      <trkpt lat="39.5874160" lon="3.3054100">
        <ele>61.2</ele>
        <time>2021-06-20T10:38:24Z</time>
      </trkpt>
      <trkpt lat="39.5872140" lon="3.3054520">
        <ele>61.7</ele>
        <time>2021-06-20T10:38:27Z</time>
      </trkpt>
      <trkpt lat="39.5869350" lon="3.3054580">
        <ele>62.5</ele>
        <time>2021-06-20T10:38:32Z</time>
      </trkpt>
      <trkpt lat="39.5868060" lon="3.3054310">
        <ele>62.8</ele>
        <time>2021-06-20T10:38:36Z</time>
      </trkpt>
      <trkpt lat="39.5865820" lon="3.3054220">
        <ele>62.6</ele>
        <time>2021-06-20T10:38:42Z</time>
      </trkpt>
      <trkpt lat="39.5863630" lon="3.3054290">
        <ele>62.6</ele>
        <time>2021-06-20T10:38:47Z</time>
      </trkpt>
      <trkpt lat="39.5862230" lon="3.3054350">
        <ele>63.0</ele>
        <time>2021-06-20T10:38:50Z</time>
      </trkpt>
      <trkpt lat="39.5860120" lon="3.3054580">
        <ele>63.6</ele>
        <time>2021-06-20T10:38:55Z</time>
      </trkpt>
      <trkpt lat="39.5859300" lon="3.3054610">
        <ele>63.8</ele>
        <time>2021-06-20T10:38:57Z</time>
      </trkpt>
      <trkpt lat="39.5858840" lon="3.3054570">
        <ele>63.8</ele>
        <time>2021-06-20T10:38:58Z</time>
      </trkpt>
      <trkpt lat="39.5857960" lon="3.3054570">
        <ele>64.0</ele>
        <time>2021-06-20T10:39:00Z</time>
      </trkpt>
      <trkpt lat="39.5857120" lon="3.3054680">
        <ele>64.1</ele>
        <time>2021-06-20T10:39:02Z</time>
      </trkpt>
      <trkpt lat="39.5856210" lon="3.3054690">
        <ele>64.2</ele>
        <time>2021-06-20T10:39:04Z</time>
      </trkpt>
      <trkpt lat="39.5853290" lon="3.3054720">
        <ele>64.4</ele>
        <time>2021-06-20T10:39:10Z</time>
      </trkpt>
      <trkpt lat="39.5852390" lon="3.3055020">
        <ele>64.5</ele>
        <time>2021-06-20T10:39:12Z</time>
      </trkpt>
      <trkpt lat="39.5850430" lon="3.3056180">
        <ele>64.0</ele>
        <time>2021-06-20T10:39:17Z</time>
      </trkpt>
      <trkpt lat="39.5848260" lon="3.3057710">
        <ele>63.0</ele>
        <time>2021-06-20T10:39:21Z</time>
      </trkpt>
      <trkpt lat="39.5847660" lon="3.3058140">
        <ele>62.8</ele>
        <time>2021-06-20T10:39:22Z</time>
      </trkpt>
      <trkpt lat="39.5844610" lon="3.3060320">
        <ele>62.0</ele>
        <time>2021-06-20T10:39:27Z</time>
      </trkpt>
      <trkpt lat="39.5843400" lon="3.3061220">
        <ele>61.9</ele>
        <time>2021-06-20T10:39:29Z</time>
      </trkpt>
      <trkpt lat="39.5842760" lon="3.3061670">
        <ele>61.8</ele>
        <time>2021-06-20T10:39:30Z</time>
      </trkpt>
      <trkpt lat="39.5837690" lon="3.3065280">
        <ele>61.5</ele>
        <time>2021-06-20T10:39:38Z</time>
      </trkpt>
      <trkpt lat="39.5834800" lon="3.3067410">
        <ele>62.2</ele>
        <time>2021-06-20T10:39:43Z</time>
      </trkpt>
      <trkpt lat="39.5833630" lon="3.3068240">
        <ele>62.6</ele>
        <time>2021-06-20T10:39:45Z</time>
      </trkpt>
      <trkpt lat="39.5832510" lon="3.3069050">
        <ele>63.2</ele>
        <time>2021-06-20T10:39:47Z</time>
      </trkpt>
      <trkpt lat="39.5830530" lon="3.3070450">
        <ele>64.6</ele>
        <time>2021-06-20T10:39:51Z</time>
      </trkpt>
      <trkpt lat="39.5830060" lon="3.3070810">
        <ele>64.9</ele>
        <time>2021-06-20T10:39:52Z</time>
      </trkpt>
      <trkpt lat="39.5829150" lon="3.3071480">
        <ele>65.6</ele>
        <time>2021-06-20T10:39:54Z</time>
      </trkpt>
      <trkpt lat="39.5828710" lon="3.3071800">
        <ele>66.0</ele>
        <time>2021-06-20T10:39:55Z</time>
      </trkpt>
      <trkpt lat="39.5827580" lon="3.3072680">
        <ele>66.8</ele>
        <time>2021-06-20T10:39:58Z</time>
      </trkpt>
      <trkpt lat="39.5826790" lon="3.3073180">
        <ele>67.3</ele>
        <time>2021-06-20T10:40:00Z</time>
      </trkpt>
      <trkpt lat="39.5825640" lon="3.3073980">
        <ele>68.1</ele>
        <time>2021-06-20T10:40:03Z</time>
      </trkpt>
      <trkpt lat="39.5825240" lon="3.3074310">
        <ele>68.4</ele>
        <time>2021-06-20T10:40:04Z</time>
      </trkpt>
      <trkpt lat="39.5824160" lon="3.3075360">
        <ele>68.9</ele>
        <time>2021-06-20T10:40:07Z</time>
      </trkpt>
      <trkpt lat="39.5823100" lon="3.3076140">
        <ele>69.2</ele>
        <time>2021-06-20T10:40:10Z</time>
      </trkpt>
      <trkpt lat="39.5821430" lon="3.3077290">
        <ele>69.0</ele>
        <time>2021-06-20T10:40:14Z</time>
      </trkpt>
      <trkpt lat="39.5819610" lon="3.3078840">
        <ele>68.1</ele>
        <time>2021-06-20T10:40:18Z</time>
      </trkpt>
      <trkpt lat="39.5816770" lon="3.3081160">
        <ele>65.6</ele>
        <time>2021-06-20T10:40:23Z</time>
      </trkpt>
      <trkpt lat="39.5815510" lon="3.3082430">
        <ele>63.7</ele>
        <time>2021-06-20T10:40:25Z</time>
      </trkpt>
      <trkpt lat="39.5814500" lon="3.3084230">
        <ele>61.5</ele>
        <time>2021-06-20T10:40:27Z</time>
      </trkpt>
      <trkpt lat="39.5813150" lon="3.3087900">
        <ele>58.0</ele>
        <time>2021-06-20T10:40:30Z</time>
      </trkpt>
      <trkpt lat="39.5812620" lon="3.3089220">
        <ele>57.0</ele>
        <time>2021-06-20T10:40:31Z</time>
      </trkpt>
      <trkpt lat="39.5810310" lon="3.3094730">
        <ele>54.8</ele>
        <time>2021-06-20T10:40:35Z</time>
      </trkpt>
      <trkpt lat="39.5809620" lon="3.3095910">
        <ele>54.8</ele>
        <time>2021-06-20T10:40:36Z</time>
      </trkpt>
      <trkpt lat="39.5807370" lon="3.3098570">
        <ele>54.8</ele>
        <time>2021-06-20T10:40:39Z</time>
      </trkpt>
      <trkpt lat="39.5805680" lon="3.3099370">
        <ele>54.6</ele>
        <time>2021-06-20T10:40:41Z</time>
      </trkpt>
      <trkpt lat="39.5804810" lon="3.3099420">
        <ele>54.5</ele>
        <time>2021-06-20T10:40:42Z</time>
      </trkpt>
      <trkpt lat="39.5803930" lon="3.3099370">
        <ele>54.4</ele>
        <time>2021-06-20T10:40:43Z</time>
      </trkpt>
      <trkpt lat="39.5803040" lon="3.3099270">
        <ele>54.4</ele>
        <time>2021-06-20T10:40:44Z</time>
      </trkpt>
      <trkpt lat="39.5799710" lon="3.3098840">
        <ele>54.4</ele>
        <time>2021-06-20T10:40:48Z</time>
      </trkpt>
      <trkpt lat="39.5796120" lon="3.3099030">
        <ele>54.8</ele>
        <time>2021-06-20T10:40:53Z</time>
      </trkpt>
      <trkpt lat="39.5794860" lon="3.3099590">
        <ele>55.0</ele>
        <time>2021-06-20T10:40:55Z</time>
      </trkpt>
      <trkpt lat="39.5793750" lon="3.3100180">
        <ele>55.2</ele>
        <time>2021-06-20T10:40:57Z</time>
      </trkpt>
      <trkpt lat="39.5792680" lon="3.3100570">
        <ele>55.2</ele>
        <time>2021-06-20T10:40:59Z</time>
      </trkpt>
      <trkpt lat="39.5790900" lon="3.3100790">
        <ele>55.3</ele>
        <time>2021-06-20T10:41:02Z</time>
      </trkpt>
      <trkpt lat="39.5790310" lon="3.3100870">
        <ele>55.4</ele>
        <time>2021-06-20T10:41:03Z</time>
      </trkpt>
      <trkpt lat="39.5787920" lon="3.3101090">
        <ele>55.6</ele>
        <time>2021-06-20T10:41:07Z</time>
      </trkpt>
      <trkpt lat="39.5786760" lon="3.3101190">
        <ele>55.9</ele>
        <time>2021-06-20T10:41:09Z</time>
      </trkpt>
      <trkpt lat="39.5785600" lon="3.3101350">
        <ele>56.2</ele>
        <time>2021-06-20T10:41:11Z</time>
      </trkpt>
      <trkpt lat="39.5783950" lon="3.3101550">
        <ele>56.6</ele>
        <time>2021-06-20T10:41:14Z</time>
      </trkpt>
      <trkpt lat="39.5781770" lon="3.3101910">
        <ele>57.1</ele>
        <time>2021-06-20T10:41:18Z</time>
      </trkpt>
      <trkpt lat="39.5781240" lon="3.3101970">
        <ele>57.3</ele>
        <time>2021-06-20T10:41:19Z</time>
      </trkpt>
      <trkpt lat="39.5780170" lon="3.3102060">
        <ele>57.6</ele>
        <time>2021-06-20T10:41:21Z</time>
      </trkpt>
      <trkpt lat="39.5779660" lon="3.3102130">
        <ele>57.7</ele>
        <time>2021-06-20T10:41:22Z</time>
      </trkpt>
      <trkpt lat="39.5777640" lon="3.3102530">
        <ele>58.2</ele>
        <time>2021-06-20T10:41:26Z</time>
      </trkpt>
      <trkpt lat="39.5777120" lon="3.3102600">
        <ele>58.3</ele>
        <time>2021-06-20T10:41:27Z</time>
      </trkpt>
      <trkpt lat="39.5772880" lon="3.3103130">
        <ele>58.7</ele>
        <time>2021-06-20T10:41:35Z</time>
      </trkpt>
      <trkpt lat="39.5767700" lon="3.3103860">
        <ele>58.6</ele>
        <time>2021-06-20T10:41:44Z</time>
      </trkpt>
      <trkpt lat="39.5763040" lon="3.3104450">
        <ele>59.3</ele>
        <time>2021-06-20T10:41:52Z</time>
      </trkpt>
      <trkpt lat="39.5761300" lon="3.3104710">
        <ele>59.7</ele>
        <time>2021-06-20T10:41:55Z</time>
      </trkpt>
      <trkpt lat="39.5758690" lon="3.3105040">
        <ele>60.4</ele>
        <time>2021-06-20T10:42:00Z</time>
      </trkpt>
      <trkpt lat="39.5758130" lon="3.3105120">
        <ele>60.6</ele>
        <time>2021-06-20T10:42:01Z</time>
      </trkpt>
      <trkpt lat="39.5753150" lon="3.3105880">
        <ele>63.0</ele>
        <time>2021-06-20T10:42:11Z</time>
      </trkpt>
      <trkpt lat="39.5750680" lon="3.3106390">
        <ele>65.2</ele>
        <time>2021-06-20T10:42:18Z</time>
      </trkpt>
      <trkpt lat="39.5748740" lon="3.3106520">
        <ele>67.4</ele>
        <time>2021-06-20T10:42:24Z</time>
      </trkpt>
      <trkpt lat="39.5748500" lon="3.3106500">
        <ele>67.7</ele>
        <time>2021-06-20T10:42:26Z</time>
      </trkpt>
      <trkpt lat="39.5747760" lon="3.3106890">
        <ele>68.6</ele>
        <time>2021-06-20T10:42:29Z</time>
      </trkpt>
      <trkpt lat="39.5746690" lon="3.3106790">
        <ele>69.9</ele>
        <time>2021-06-20T10:42:33Z</time>
      </trkpt>
      <trkpt lat="39.5746480" lon="3.3106850">
        <ele>70.2</ele>
        <time>2021-06-20T10:42:34Z</time>
      </trkpt>
      <trkpt lat="39.5745800" lon="3.3107100">
        <ele>71.1</ele>
        <time>2021-06-20T10:42:37Z</time>
      </trkpt>
      <trkpt lat="39.5745560" lon="3.3107080">
        <ele>71.4</ele>
        <time>2021-06-20T10:42:38Z</time>
      </trkpt>
      <trkpt lat="39.5744290" lon="3.3107290">
        <ele>73.1</ele>
        <time>2021-06-20T10:42:43Z</time>
      </trkpt>
      <trkpt lat="39.5743110" lon="3.3107560">
        <ele>74.6</ele>
        <time>2021-06-20T10:42:48Z</time>
      </trkpt>
      <trkpt lat="39.5741880" lon="3.3107640">
        <ele>76.0</ele>
        <time>2021-06-20T10:42:53Z</time>
      </trkpt>
      <trkpt lat="39.5740800" lon="3.3107940">
        <ele>77.2</ele>
        <time>2021-06-20T10:42:57Z</time>
      </trkpt>
      <trkpt lat="39.5740520" lon="3.3107930">
        <ele>77.4</ele>
        <time>2021-06-20T10:42:58Z</time>
      </trkpt>
      <trkpt lat="39.5738860" lon="3.3108100">
        <ele>78.9</ele>
        <time>2021-06-20T10:43:04Z</time>
      </trkpt>
      <trkpt lat="39.5736800" lon="3.3108480">
        <ele>80.1</ele>
        <time>2021-06-20T10:43:11Z</time>
      </trkpt>
      <trkpt lat="39.5734700" lon="3.3108600">
        <ele>80.0</ele>
        <time>2021-06-20T10:43:17Z</time>
      </trkpt>
      <trkpt lat="39.5734290" lon="3.3108650">
        <ele>79.9</ele>
        <time>2021-06-20T10:43:18Z</time>
      </trkpt>
      <trkpt lat="39.5731880" lon="3.3108930">
        <ele>79.2</ele>
        <time>2021-06-20T10:43:23Z</time>
      </trkpt>
      <trkpt lat="39.5729300" lon="3.3109340">
        <ele>78.5</ele>
        <time>2021-06-20T10:43:28Z</time>
      </trkpt>
      <trkpt lat="39.5728790" lon="3.3109370">
        <ele>78.3</ele>
        <time>2021-06-20T10:43:29Z</time>
      </trkpt>
      <trkpt lat="39.5726680" lon="3.3109730">
        <ele>77.8</ele>
        <time>2021-06-20T10:43:33Z</time>
      </trkpt>
      <trkpt lat="39.5725020" lon="3.3109970">
        <ele>77.4</ele>
        <time>2021-06-20T10:43:36Z</time>
      </trkpt>
      <trkpt lat="39.5720830" lon="3.3110650">
        <ele>75.8</ele>
        <time>2021-06-20T10:43:43Z</time>
      </trkpt>
      <trkpt lat="39.5718570" lon="3.3111000">
        <ele>74.7</ele>
        <time>2021-06-20T10:43:46Z</time>
      </trkpt>
      <trkpt lat="39.5716170" lon="3.3111400">
        <ele>73.5</ele>
        <time>2021-06-20T10:43:49Z</time>
      </trkpt>
      <trkpt lat="39.5711180" lon="3.3111980">
        <ele>70.9</ele>
        <time>2021-06-20T10:43:55Z</time>
      </trkpt>
      <trkpt lat="39.5707540" lon="3.3112490">
        <ele>69.1</ele>
        <time>2021-06-20T10:43:58Z</time>
      </trkpt>
      <trkpt lat="39.5705700" lon="3.3112780">
        <ele>68.5</ele>
        <time>2021-06-20T10:44:01Z</time>
      </trkpt>
      <trkpt lat="39.5701370" lon="3.3113450">
        <ele>67.4</ele>
        <time>2021-06-20T10:44:06Z</time>
      </trkpt>
      <trkpt lat="39.5698890" lon="3.3113760">
        <ele>66.9</ele>
        <time>2021-06-20T10:44:09Z</time>
      </trkpt>
      <trkpt lat="39.5695630" lon="3.3114260">
        <ele>66.2</ele>
        <time>2021-06-20T10:44:13Z</time>
      </trkpt>
      <trkpt lat="39.5693170" lon="3.3114640">
        <ele>65.7</ele>
        <time>2021-06-20T10:44:16Z</time>
      </trkpt>
      <trkpt lat="39.5689150" lon="3.3115050">
        <ele>64.8</ele>
        <time>2021-06-20T10:44:21Z</time>
      </trkpt>
      <trkpt lat="39.5686720" lon="3.3115360">
        <ele>64.2</ele>
        <time>2021-06-20T10:44:24Z</time>
      </trkpt>
      <trkpt lat="39.5684280" lon="3.3115660">
        <ele>63.9</ele>
        <time>2021-06-20T10:44:27Z</time>
      </trkpt>
      <trkpt lat="39.5681860" lon="3.3115950">
        <ele>63.6</ele>
        <time>2021-06-20T10:44:30Z</time>
      </trkpt>
      <trkpt lat="39.5678730" lon="3.3116410">
        <ele>63.2</ele>
        <time>2021-06-20T10:44:34Z</time>
      </trkpt>
      <trkpt lat="39.5676390" lon="3.3116760">
        <ele>62.7</ele>
        <time>2021-06-20T10:44:37Z</time>
      </trkpt>
      <trkpt lat="39.5673990" lon="3.3117020">
        <ele>62.2</ele>
        <time>2021-06-20T10:44:40Z</time>
      </trkpt>
      <trkpt lat="39.5673190" lon="3.3117150">
        <ele>62.1</ele>
        <time>2021-06-20T10:44:41Z</time>
      </trkpt>
      <trkpt lat="39.5671640" lon="3.3117390">
        <ele>61.8</ele>
        <time>2021-06-20T10:44:43Z</time>
      </trkpt>
      <trkpt lat="39.5669270" lon="3.3117710">
        <ele>61.2</ele>
        <time>2021-06-20T10:44:46Z</time>
      </trkpt>
      <trkpt lat="39.5666820" lon="3.3118000">
        <ele>60.6</ele>
        <time>2021-06-20T10:44:49Z</time>
      </trkpt>
      <trkpt lat="39.5665150" lon="3.3118210">
        <ele>60.2</ele>
        <time>2021-06-20T10:44:51Z</time>
      </trkpt>
      <trkpt lat="39.5659250" lon="3.3119080">
        <ele>59.0</ele>
        <time>2021-06-20T10:44:58Z</time>
      </trkpt>
      <trkpt lat="39.5653510" lon="3.3120030">
        <ele>58.3</ele>
        <time>2021-06-20T10:45:05Z</time>
      </trkpt>
      <trkpt lat="39.5651070" lon="3.3120370">
        <ele>57.9</ele>
        <time>2021-06-20T10:45:08Z</time>
      </trkpt>
      <trkpt lat="39.5648650" lon="3.3120750">
        <ele>57.3</ele>
        <time>2021-06-20T10:45:11Z</time>
      </trkpt>
      <trkpt lat="39.5642900" lon="3.3121550">
        <ele>55.7</ele>
        <time>2021-06-20T10:45:18Z</time>
      </trkpt>
      <trkpt lat="39.5640390" lon="3.3121900">
        <ele>55.0</ele>
        <time>2021-06-20T10:45:21Z</time>
      </trkpt>
      <trkpt lat="39.5634720" lon="3.3122650">
        <ele>54.1</ele>
        <time>2021-06-20T10:45:28Z</time>
      </trkpt>
      <trkpt lat="39.5633140" lon="3.3122880">
        <ele>54.1</ele>
        <time>2021-06-20T10:45:30Z</time>
      </trkpt>
      <trkpt lat="39.5630780" lon="3.3123300">
        <ele>54.2</ele>
        <time>2021-06-20T10:45:33Z</time>
      </trkpt>
      <trkpt lat="39.5626960" lon="3.3124030">
        <ele>54.4</ele>
        <time>2021-06-20T10:45:38Z</time>
      </trkpt>
      <trkpt lat="39.5621080" lon="3.3124720">
        <ele>54.1</ele>
        <time>2021-06-20T10:45:46Z</time>
      </trkpt>
      <trkpt lat="39.5618850" lon="3.3125050">
        <ele>53.8</ele>
        <time>2021-06-20T10:45:49Z</time>
      </trkpt>
      <trkpt lat="39.5616510" lon="3.3125420">
        <ele>53.6</ele>
        <time>2021-06-20T10:45:52Z</time>
      </trkpt>
      <trkpt lat="39.5611310" lon="3.3126210">
        <ele>54.1</ele>
        <time>2021-06-20T10:45:59Z</time>
      </trkpt>
      <trkpt lat="39.5609400" lon="3.3126540">
        <ele>54.5</ele>
        <time>2021-06-20T10:46:03Z</time>
      </trkpt>
      <trkpt lat="39.5607920" lon="3.3127770">
        <ele>53.9</ele>
        <time>2021-06-20T10:46:07Z</time>
      </trkpt>
      <trkpt lat="39.5606680" lon="3.3128960">
        <ele>53.1</ele>
        <time>2021-06-20T10:46:10Z</time>
      </trkpt>
      <trkpt lat="39.5605410" lon="3.3130270">
        <ele>52.4</ele>
        <time>2021-06-20T10:46:13Z</time>
      </trkpt>
      <trkpt lat="39.5603890" lon="3.3131750">
        <ele>51.7</ele>
        <time>2021-06-20T10:46:16Z</time>
      </trkpt>
      <trkpt lat="39.5602320" lon="3.3133270">
        <ele>51.2</ele>
        <time>2021-06-20T10:46:19Z</time>
      </trkpt>
      <trkpt lat="39.5601230" lon="3.3134250">
        <ele>50.9</ele>
        <time>2021-06-20T10:46:21Z</time>
      </trkpt>
      <trkpt lat="39.5600730" lon="3.3134750">
        <ele>50.8</ele>
        <time>2021-06-20T10:46:22Z</time>
      </trkpt>
      <trkpt lat="39.5599220" lon="3.3136280">
        <ele>50.6</ele>
        <time>2021-06-20T10:46:25Z</time>
      </trkpt>
      <trkpt lat="39.5598180" lon="3.3137290">
        <ele>50.5</ele>
        <time>2021-06-20T10:46:27Z</time>
      </trkpt>
      <trkpt lat="39.5597060" lon="3.3138230">
        <ele>50.4</ele>
        <time>2021-06-20T10:46:29Z</time>
      </trkpt>
      <trkpt lat="39.5596040" lon="3.3139240">
        <ele>50.3</ele>
        <time>2021-06-20T10:46:31Z</time>
      </trkpt>
      <trkpt lat="39.5593970" lon="3.3141270">
        <ele>50.1</ele>
        <time>2021-06-20T10:46:35Z</time>
      </trkpt>
      <trkpt lat="39.5590880" lon="3.3144380">
        <ele>49.8</ele>
        <time>2021-06-20T10:46:41Z</time>
      </trkpt>
      <trkpt lat="39.5587270" lon="3.3148010">
        <ele>49.0</ele>
        <time>2021-06-20T10:46:48Z</time>
      </trkpt>
      <trkpt lat="39.5584980" lon="3.3150270">
        <ele>48.4</ele>
        <time>2021-06-20T10:46:52Z</time>
      </trkpt>
      <trkpt lat="39.5582570" lon="3.3152530">
        <ele>48.3</ele>
        <time>2021-06-20T10:46:56Z</time>
      </trkpt>
      <trkpt lat="39.5580210" lon="3.3154890">
        <ele>48.6</ele>
        <time>2021-06-20T10:47:00Z</time>
      </trkpt>
      <trkpt lat="39.5578430" lon="3.3156640">
        <ele>48.7</ele>
        <time>2021-06-20T10:47:03Z</time>
      </trkpt>
      <trkpt lat="39.5577300" lon="3.3157810">
        <ele>49.0</ele>
        <time>2021-06-20T10:47:05Z</time>
      </trkpt>
      <trkpt lat="39.5575540" lon="3.3159500">
        <ele>49.4</ele>
        <time>2021-06-20T10:47:08Z</time>
      </trkpt>
      <trkpt lat="39.5572230" lon="3.3162770">
        <ele>50.5</ele>
        <time>2021-06-20T10:47:14Z</time>
      </trkpt>
      <trkpt lat="39.5569690" lon="3.3165320">
        <ele>51.4</ele>
        <time>2021-06-20T10:47:19Z</time>
      </trkpt>
      <trkpt lat="39.5568200" lon="3.3166850">
        <ele>51.7</ele>
        <time>2021-06-20T10:47:22Z</time>
      </trkpt>
      <trkpt lat="39.5566100" lon="3.3168850">
        <ele>51.7</ele>
        <time>2021-06-20T10:47:26Z</time>
      </trkpt>
      <trkpt lat="39.5564510" lon="3.3170430">
        <ele>51.7</ele>
        <time>2021-06-20T10:47:29Z</time>
      </trkpt>
      <trkpt lat="39.5563410" lon="3.3171480">
        <ele>51.6</ele>
        <time>2021-06-20T10:47:31Z</time>
      </trkpt>
      <trkpt lat="39.5562830" lon="3.3172010">
        <ele>51.6</ele>
        <time>2021-06-20T10:47:32Z</time>
      </trkpt>
      <trkpt lat="39.5561100" lon="3.3173640">
        <ele>51.3</ele>
        <time>2021-06-20T10:47:35Z</time>
      </trkpt>
      <trkpt lat="39.5558680" lon="3.3175980">
        <ele>50.9</ele>
        <time>2021-06-20T10:47:39Z</time>
      </trkpt>
      <trkpt lat="39.5554220" lon="3.3180210">
        <ele>50.3</ele>
        <time>2021-06-20T10:47:46Z</time>
      </trkpt>
      <trkpt lat="39.5552920" lon="3.3181510">
        <ele>50.1</ele>
        <time>2021-06-20T10:47:48Z</time>
      </trkpt>
      <trkpt lat="39.5551630" lon="3.3182920">
        <ele>49.9</ele>
        <time>2021-06-20T10:47:50Z</time>
      </trkpt>
      <trkpt lat="39.5550300" lon="3.3184290">
        <ele>49.7</ele>
        <time>2021-06-20T10:47:52Z</time>
      </trkpt>
      <trkpt lat="39.5548920" lon="3.3185660">
        <ele>49.6</ele>
        <time>2021-06-20T10:47:54Z</time>
      </trkpt>
      <trkpt lat="39.5544210" lon="3.3190180">
        <ele>49.3</ele>
        <time>2021-06-20T10:48:01Z</time>
      </trkpt>
      <trkpt lat="39.5539790" lon="3.3194570">
        <ele>48.0</ele>
        <time>2021-06-20T10:48:08Z</time>
      </trkpt>
      <trkpt lat="39.5536510" lon="3.3197790">
        <ele>46.5</ele>
        <time>2021-06-20T10:48:13Z</time>
      </trkpt>
      <trkpt lat="39.5535170" lon="3.3199160">
        <ele>45.8</ele>
        <time>2021-06-20T10:48:15Z</time>
      </trkpt>
      <trkpt lat="39.5534510" lon="3.3199840">
        <ele>45.5</ele>
        <time>2021-06-20T10:48:16Z</time>
      </trkpt>
      <trkpt lat="39.5531790" lon="3.3202610">
        <ele>44.5</ele>
        <time>2021-06-20T10:48:20Z</time>
      </trkpt>
      <trkpt lat="39.5528350" lon="3.3205920">
        <ele>43.5</ele>
        <time>2021-06-20T10:48:25Z</time>
      </trkpt>
      <trkpt lat="39.5525760" lon="3.3208530">
        <ele>42.5</ele>
        <time>2021-06-20T10:48:29Z</time>
      </trkpt>
      <trkpt lat="39.5523770" lon="3.3210530">
        <ele>41.4</ele>
        <time>2021-06-20T10:48:32Z</time>
      </trkpt>
      <trkpt lat="39.5519310" lon="3.3214710">
        <ele>38.9</ele>
        <time>2021-06-20T10:48:38Z</time>
      </trkpt>
      <trkpt lat="39.5518550" lon="3.3215430">
        <ele>38.5</ele>
        <time>2021-06-20T10:48:39Z</time>
      </trkpt>
      <trkpt lat="39.5514820" lon="3.3219200">
        <ele>36.5</ele>
        <time>2021-06-20T10:48:44Z</time>
      </trkpt>
      <trkpt lat="39.5513320" lon="3.3220740">
        <ele>35.6</ele>
        <time>2021-06-20T10:48:46Z</time>
      </trkpt>
      <trkpt lat="39.5509180" lon="3.3224650">
        <ele>33.5</ele>
        <time>2021-06-20T10:48:51Z</time>
      </trkpt>
      <trkpt lat="39.5508350" lon="3.3225420">
        <ele>33.1</ele>
        <time>2021-06-20T10:48:52Z</time>
      </trkpt>
      <trkpt lat="39.5503820" lon="3.3229800">
        <ele>31.1</ele>
        <time>2021-06-20T10:48:58Z</time>
      </trkpt>
      <trkpt lat="39.5498920" lon="3.3234680">
        <ele>29.3</ele>
        <time>2021-06-20T10:49:05Z</time>
      </trkpt>
      <trkpt lat="39.5494930" lon="3.3238570">
        <ele>28.2</ele>
        <time>2021-06-20T10:49:11Z</time>
      </trkpt>
      <trkpt lat="39.5494390" lon="3.3239190">
        <ele>28.0</ele>
        <time>2021-06-20T10:49:12Z</time>
      </trkpt>
      <trkpt lat="39.5491600" lon="3.3242080">
        <ele>26.0</ele>
        <time>2021-06-20T10:49:17Z</time>
      </trkpt>
      <trkpt lat="39.5488610" lon="3.3244990">
        <ele>23.2</ele>
        <time>2021-06-20T10:49:22Z</time>
      </trkpt>
      <trkpt lat="39.5488060" lon="3.3245360">
        <ele>22.8</ele>
        <time>2021-06-20T10:49:23Z</time>
      </trkpt>
      <trkpt lat="39.5486930" lon="3.3245800">
        <ele>22.1</ele>
        <time>2021-06-20T10:49:25Z</time>
      </trkpt>
      <trkpt lat="39.5486440" lon="3.3245840">
        <ele>21.8</ele>
        <time>2021-06-20T10:49:26Z</time>
      </trkpt>
      <trkpt lat="39.5485780" lon="3.3245730">
        <ele>21.4</ele>
        <time>2021-06-20T10:49:29Z</time>
      </trkpt>
      <trkpt lat="39.5485780" lon="3.3245730">
        <ele>21.4</ele>
        <time>2021-06-20T10:49:32Z</time>
      </trkpt>
      <trkpt lat="39.5485780" lon="3.3245730">
        <ele>21.4</ele>
        <time>2021-06-20T10:49:33Z</time>
      </trkpt>
      <trkpt lat="39.5485780" lon="3.3245730">
        <ele>21.4</ele>
        <time>2021-06-20T10:49:34Z</time>
      </trkpt>
      <trkpt lat="39.5485780" lon="3.3245730">
        <ele>21.4</ele>
        <time>2021-06-20T10:49:36Z</time>
      </trkpt>
      <trkpt lat="39.5485780" lon="3.3245730">
        <ele>21.4</ele>
        <time>2021-06-20T10:49:37Z</time>
      </trkpt>
      <trkpt lat="39.5485780" lon="3.3245730">
        <ele>21.4</ele>
        <time>2021-06-20T10:49:38Z</time>
      </trkpt>
      <trkpt lat="39.5485750" lon="3.3245700">
        <ele>21.3</ele>
        <time>2021-06-20T10:49:40Z</time>
      </trkpt>
      <trkpt lat="39.5485770" lon="3.3245700">
        <ele>21.3</ele>
        <time>2021-06-20T10:49:43Z</time>
      </trkpt>
      <trkpt lat="39.5485620" lon="3.3245550">
        <ele>21.2</ele>
        <time>2021-06-20T10:49:47Z</time>
      </trkpt>
      <trkpt lat="39.5485190" lon="3.3245140">
        <ele>21.0</ele>
        <time>2021-06-20T10:49:49Z</time>
      </trkpt>
      <trkpt lat="39.5483380" lon="3.3243990">
        <ele>21.0</ele>
        <time>2021-06-20T10:49:54Z</time>
      </trkpt>
      <trkpt lat="39.5482420" lon="3.3243870">
        <ele>20.8</ele>
        <time>2021-06-20T10:49:56Z</time>
      </trkpt>
      <trkpt lat="39.5480820" lon="3.3244080">
        <ele>20.4</ele>
        <time>2021-06-20T10:49:59Z</time>
      </trkpt>
      <trkpt lat="39.5479600" lon="3.3244000">
        <ele>19.9</ele>
        <time>2021-06-20T10:50:01Z</time>
      </trkpt>
      <trkpt lat="39.5478360" lon="3.3243400">
        <ele>19.3</ele>
        <time>2021-06-20T10:50:03Z</time>
      </trkpt>
      <trkpt lat="39.5476840" lon="3.3241530">
        <ele>18.2</ele>
        <time>2021-06-20T10:50:06Z</time>
      </trkpt>
      <trkpt lat="39.5472700" lon="3.3236140">
        <ele>16.0</ele>
        <time>2021-06-20T10:50:14Z</time>
      </trkpt>
      <trkpt lat="39.5470530" lon="3.3233710">
        <ele>15.6</ele>
        <time>2021-06-20T10:50:18Z</time>
      </trkpt>
      <trkpt lat="39.5469440" lon="3.3232560">
        <ele>15.8</ele>
        <time>2021-06-20T10:50:20Z</time>
      </trkpt>
      <trkpt lat="39.5468360" lon="3.3231490">
        <ele>15.9</ele>
        <time>2021-06-20T10:50:22Z</time>
      </trkpt>
      <trkpt lat="39.5467330" lon="3.3230490">
        <ele>16.0</ele>
        <time>2021-06-20T10:50:24Z</time>
      </trkpt>
      <trkpt lat="39.5466340" lon="3.3229560">
        <ele>16.1</ele>
        <time>2021-06-20T10:50:26Z</time>
      </trkpt>
      <trkpt lat="39.5464860" lon="3.3228280">
        <ele>16.2</ele>
        <time>2021-06-20T10:50:29Z</time>
      </trkpt>
      <trkpt lat="39.5460780" lon="3.3225110">
        <ele>16.1</ele>
        <time>2021-06-20T10:50:37Z</time>
      </trkpt>
      <trkpt lat="39.5455450" lon="3.3221760">
        <ele>14.7</ele>
        <time>2021-06-20T10:50:46Z</time>
      </trkpt>
      <trkpt lat="39.5449760" lon="3.3219070">
        <ele>14.1</ele>
        <time>2021-06-20T10:50:55Z</time>
      </trkpt>
      <trkpt lat="39.5444010" lon="3.3217200">
        <ele>13.9</ele>
        <time>2021-06-20T10:51:04Z</time>
      </trkpt>
      <trkpt lat="39.5443370" lon="3.3217030">
        <ele>13.9</ele>
        <time>2021-06-20T10:51:05Z</time>
      </trkpt>
      <trkpt lat="39.5437680" lon="3.3215710">
        <ele>14.1</ele>
        <time>2021-06-20T10:51:14Z</time>
      </trkpt>
      <trkpt lat="39.5436370" lon="3.3215410">
        <ele>14.2</ele>
        <time>2021-06-20T10:51:16Z</time>
      </trkpt>
      <trkpt lat="39.5433110" lon="3.3214690">
        <ele>14.7</ele>
        <time>2021-06-20T10:51:21Z</time>
      </trkpt>
      <trkpt lat="39.5427610" lon="3.3213540">
        <ele>16.3</ele>
        <time>2021-06-20T10:51:30Z</time>
      </trkpt>
      <trkpt lat="39.5422110" lon="3.3212300">
        <ele>18.4</ele>
        <time>2021-06-20T10:51:40Z</time>
      </trkpt>
      <trkpt lat="39.5417400" lon="3.3211230">
        <ele>20.5</ele>
        <time>2021-06-20T10:51:49Z</time>
      </trkpt>
      <trkpt lat="39.5412790" lon="3.3210180">
        <ele>22.6</ele>
        <time>2021-06-20T10:51:58Z</time>
      </trkpt>
      <trkpt lat="39.5408370" lon="3.3209160">
        <ele>24.3</ele>
        <time>2021-06-20T10:52:07Z</time>
      </trkpt>
      <trkpt lat="39.5402900" lon="3.3207700">
        <ele>26.2</ele>
        <time>2021-06-20T10:52:18Z</time>
      </trkpt>
      <trkpt lat="39.5397390" lon="3.3205930">
        <ele>27.7</ele>
        <time>2021-06-20T10:52:29Z</time>
      </trkpt>
      <trkpt lat="39.5396900" lon="3.3205770">
        <ele>27.9</ele>
        <time>2021-06-20T10:52:30Z</time>
      </trkpt>
      <trkpt lat="39.5391580" lon="3.3203720">
        <ele>28.8</ele>
        <time>2021-06-20T10:52:41Z</time>
      </trkpt>
      <trkpt lat="39.5386780" lon="3.3201610">
        <ele>29.6</ele>
        <time>2021-06-20T10:52:51Z</time>
      </trkpt>
      <trkpt lat="39.5381660" lon="3.3199050">
        <ele>30.1</ele>
        <time>2021-06-20T10:53:01Z</time>
      </trkpt>
      <trkpt lat="39.5381170" lon="3.3198780">
        <ele>30.1</ele>
        <time>2021-06-20T10:53:02Z</time>
      </trkpt>
      <trkpt lat="39.5376100" lon="3.3195870">
        <ele>30.7</ele>
        <time>2021-06-20T10:53:12Z</time>
      </trkpt>
      <trkpt lat="39.5374570" lon="3.3194980">
        <ele>30.9</ele>
        <time>2021-06-20T10:53:15Z</time>
      </trkpt>
      <trkpt lat="39.5369960" lon="3.3192190">
        <ele>31.6</ele>
        <time>2021-06-20T10:53:25Z</time>
      </trkpt>
      <trkpt lat="39.5366140" lon="3.3189780">
        <ele>32.3</ele>
        <time>2021-06-20T10:53:33Z</time>
      </trkpt>
      <trkpt lat="39.5361480" lon="3.3186830">
        <ele>33.1</ele>
        <time>2021-06-20T10:53:43Z</time>
      </trkpt>
      <trkpt lat="39.5357310" lon="3.3184280">
        <ele>33.5</ele>
        <time>2021-06-20T10:53:52Z</time>
      </trkpt>
      <trkpt lat="39.5353040" lon="3.3181850">
        <ele>34.0</ele>
        <time>2021-06-20T10:54:01Z</time>
      </trkpt>
      <trkpt lat="39.5351030" lon="3.3180810">
        <ele>34.1</ele>
        <time>2021-06-20T10:54:05Z</time>
      </trkpt>
      <trkpt lat="39.5349440" lon="3.3180100">
        <ele>34.1</ele>
        <time>2021-06-20T10:54:08Z</time>
      </trkpt>
      <trkpt lat="39.5344400" lon="3.3178150">
        <ele>34.1</ele>
        <time>2021-06-20T10:54:17Z</time>
      </trkpt>
      <trkpt lat="39.5339080" lon="3.3176790">
        <ele>34.7</ele>
        <time>2021-06-20T10:54:26Z</time>
      </trkpt>
      <trkpt lat="39.5336060" lon="3.3176240">
        <ele>35.2</ele>
        <time>2021-06-20T10:54:32Z</time>
      </trkpt>
      <trkpt lat="39.5331880" lon="3.3175810">
        <ele>36.1</ele>
        <time>2021-06-20T10:54:40Z</time>
      </trkpt>
      <trkpt lat="39.5326130" lon="3.3175570">
        <ele>37.0</ele>
        <time>2021-06-20T10:54:51Z</time>
      </trkpt>
      <trkpt lat="39.5321140" lon="3.3175370">
        <ele>37.2</ele>
        <time>2021-06-20T10:55:00Z</time>
      </trkpt>
      <trkpt lat="39.5319460" lon="3.3175210">
        <ele>37.2</ele>
        <time>2021-06-20T10:55:03Z</time>
      </trkpt>
      <trkpt lat="39.5318490" lon="3.3174750">
        <ele>37.2</ele>
        <time>2021-06-20T10:55:05Z</time>
      </trkpt>
      <trkpt lat="39.5316750" lon="3.3173300">
        <ele>37.2</ele>
        <time>2021-06-20T10:55:09Z</time>
      </trkpt>
      <trkpt lat="39.5315950" lon="3.3172280">
        <ele>37.2</ele>
        <time>2021-06-20T10:55:11Z</time>
      </trkpt>
      <trkpt lat="39.5315100" lon="3.3170540">
        <ele>37.2</ele>
        <time>2021-06-20T10:55:14Z</time>
      </trkpt>
      <trkpt lat="39.5314540" lon="3.3168640">
        <ele>37.3</ele>
        <time>2021-06-20T10:55:17Z</time>
      </trkpt>
      <trkpt lat="39.5312590" lon="3.3162440">
        <ele>37.8</ele>
        <time>2021-06-20T10:55:27Z</time>
      </trkpt>
      <trkpt lat="39.5310650" lon="3.3156340">
        <ele>38.2</ele>
        <time>2021-06-20T10:55:37Z</time>
      </trkpt>
      <trkpt lat="39.5309500" lon="3.3152710">
        <ele>38.0</ele>
        <time>2021-06-20T10:55:43Z</time>
      </trkpt>
      <trkpt lat="39.5309110" lon="3.3151460">
        <ele>37.8</ele>
        <time>2021-06-20T10:55:45Z</time>
      </trkpt>
      <trkpt lat="39.5307200" lon="3.3144850">
        <ele>36.9</ele>
        <time>2021-06-20T10:55:55Z</time>
      </trkpt>
      <trkpt lat="39.5305090" lon="3.3138160">
        <ele>35.3</ele>
        <time>2021-06-20T10:56:04Z</time>
      </trkpt>
      <trkpt lat="39.5304860" lon="3.3137400">
        <ele>35.2</ele>
        <time>2021-06-20T10:56:05Z</time>
      </trkpt>
      <trkpt lat="39.5302970" lon="3.3130850">
        <ele>34.0</ele>
        <time>2021-06-20T10:56:13Z</time>
      </trkpt>
      <trkpt lat="39.5301160" lon="3.3124160">
        <ele>33.4</ele>
        <time>2021-06-20T10:56:21Z</time>
      </trkpt>
      <trkpt lat="39.5300890" lon="3.3123350">
        <ele>33.3</ele>
        <time>2021-06-20T10:56:22Z</time>
      </trkpt>
      <trkpt lat="39.5299810" lon="3.3119850">
        <ele>32.7</ele>
        <time>2021-06-20T10:56:26Z</time>
      </trkpt>
      <trkpt lat="39.5298610" lon="3.3116050">
        <ele>32.4</ele>
        <time>2021-06-20T10:56:31Z</time>
      </trkpt>
      <trkpt lat="39.5297430" lon="3.3112880">
        <ele>32.6</ele>
        <time>2021-06-20T10:56:36Z</time>
      </trkpt>
      <trkpt lat="39.5297220" lon="3.3112250">
        <ele>32.7</ele>
        <time>2021-06-20T10:56:37Z</time>
      </trkpt>
      <trkpt lat="39.5296860" lon="3.3111020">
        <ele>32.9</ele>
        <time>2021-06-20T10:56:39Z</time>
      </trkpt>
      <trkpt lat="39.5296060" lon="3.3108610">
        <ele>33.4</ele>
        <time>2021-06-20T10:56:43Z</time>
      </trkpt>
      <trkpt lat="39.5295450" lon="3.3106580">
        <ele>33.9</ele>
        <time>2021-06-20T10:56:47Z</time>
      </trkpt>
      <trkpt lat="39.5295260" lon="3.3106090">
        <ele>34.0</ele>
        <time>2021-06-20T10:56:48Z</time>
      </trkpt>
      <trkpt lat="39.5295020" lon="3.3105620">
        <ele>34.2</ele>
        <time>2021-06-20T10:56:49Z</time>
      </trkpt>
      <trkpt lat="39.5294400" lon="3.3104950">
        <ele>34.0</ele>
        <time>2021-06-20T10:56:51Z</time>
      </trkpt>
      <trkpt lat="39.5294090" lon="3.3104780">
        <ele>33.9</ele>
        <time>2021-06-20T10:56:52Z</time>
      </trkpt>
      <trkpt lat="39.5293770" lon="3.3104770">
        <ele>33.8</ele>
        <time>2021-06-20T10:56:53Z</time>
      </trkpt>
      <trkpt lat="39.5293030" lon="3.3105290">
        <ele>33.7</ele>
        <time>2021-06-20T10:56:55Z</time>
      </trkpt>
      <trkpt lat="39.5290220" lon="3.3107470">
        <ele>32.8</ele>
        <time>2021-06-20T10:57:01Z</time>
      </trkpt>
      <trkpt lat="39.5288400" lon="3.3109000">
        <ele>32.5</ele>
        <time>2021-06-20T10:57:05Z</time>
      </trkpt>
      <trkpt lat="39.5287630" lon="3.3109670">
        <ele>32.4</ele>
        <time>2021-06-20T10:57:07Z</time>
      </trkpt>
      <trkpt lat="39.5287300" lon="3.3109940">
        <ele>32.4</ele>
        <time>2021-06-20T10:57:08Z</time>
      </trkpt>
      <trkpt lat="39.5286470" lon="3.3110540">
        <ele>32.3</ele>
        <time>2021-06-20T10:57:11Z</time>
      </trkpt>
      <trkpt lat="39.5286350" lon="3.3110640">
        <ele>32.3</ele>
        <time>2021-06-20T10:57:14Z</time>
      </trkpt>
      <trkpt lat="39.5286370" lon="3.3110700">
        <ele>32.3</ele>
        <time>2021-06-20T10:57:20Z</time>
      </trkpt>
      <trkpt lat="39.5286220" lon="3.3110930">
        <ele>32.2</ele>
        <time>2021-06-20T10:57:22Z</time>
      </trkpt>
      <trkpt lat="39.5286110" lon="3.3111230">
        <ele>32.2</ele>
        <time>2021-06-20T10:57:24Z</time>
      </trkpt>
      <trkpt lat="39.5285970" lon="3.3111430">
        <ele>32.2</ele>
        <time>2021-06-20T10:57:25Z</time>
      </trkpt>
      <trkpt lat="39.5285770" lon="3.3111690">
        <ele>32.2</ele>
        <time>2021-06-20T10:57:26Z</time>
      </trkpt>
      <trkpt lat="39.5285460" lon="3.3111910">
        <ele>32.1</ele>
        <time>2021-06-20T10:57:27Z</time>
      </trkpt>
      <trkpt lat="39.5283900" lon="3.3112900">
        <ele>31.8</ele>
        <time>2021-06-20T10:57:31Z</time>
      </trkpt>
      <trkpt lat="39.5283530" lon="3.3113190">
        <ele>31.7</ele>
        <time>2021-06-20T10:57:32Z</time>
      </trkpt>
      <trkpt lat="39.5280700" lon="3.3115210">
        <ele>31.0</ele>
        <time>2021-06-20T10:57:38Z</time>
      </trkpt>
      <trkpt lat="39.5276990" lon="3.3118210">
        <ele>30.2</ele>
        <time>2021-06-20T10:57:45Z</time>
      </trkpt>
      <trkpt lat="39.5273500" lon="3.3120910">
        <ele>30.1</ele>
        <time>2021-06-20T10:57:51Z</time>
      </trkpt>
      <trkpt lat="39.5271310" lon="3.3122630">
        <ele>30.3</ele>
        <time>2021-06-20T10:57:55Z</time>
      </trkpt>
      <trkpt lat="39.5267980" lon="3.3125110">
        <ele>30.6</ele>
        <time>2021-06-20T10:58:01Z</time>
      </trkpt>
      <trkpt lat="39.5266850" lon="3.3125950">
        <ele>30.6</ele>
        <time>2021-06-20T10:58:03Z</time>
      </trkpt>
      <trkpt lat="39.5263010" lon="3.3128790">
        <ele>30.9</ele>
        <time>2021-06-20T10:58:10Z</time>
      </trkpt>
      <trkpt lat="39.5259460" lon="3.3131560">
        <ele>31.3</ele>
        <time>2021-06-20T10:58:17Z</time>
      </trkpt>
      <trkpt lat="39.5258960" lon="3.3131910">
        <ele>31.3</ele>
        <time>2021-06-20T10:58:18Z</time>
      </trkpt>
      <trkpt lat="39.5255780" lon="3.3134540">
        <ele>31.5</ele>
        <time>2021-06-20T10:58:25Z</time>
      </trkpt>
      <trkpt lat="39.5255360" lon="3.3134900">
        <ele>31.5</ele>
        <time>2021-06-20T10:58:26Z</time>
      </trkpt>
      <trkpt lat="39.5253720" lon="3.3136190">
        <ele>31.6</ele>
        <time>2021-06-20T10:58:30Z</time>
      </trkpt>
      <trkpt lat="39.5252410" lon="3.3137400">
        <ele>31.6</ele>
        <time>2021-06-20T10:58:33Z</time>
      </trkpt>
      <trkpt lat="39.5251530" lon="3.3138270">
        <ele>31.5</ele>
        <time>2021-06-20T10:58:35Z</time>
      </trkpt>
      <trkpt lat="39.5250580" lon="3.3139040">
        <ele>31.4</ele>
        <time>2021-06-20T10:58:37Z</time>
      </trkpt>
      <trkpt lat="39.5247250" lon="3.3141320">
        <ele>30.7</ele>
        <time>2021-06-20T10:58:44Z</time>
      </trkpt>
      <trkpt lat="39.5244950" lon="3.3142940">
        <ele>30.2</ele>
        <time>2021-06-20T10:58:49Z</time>
      </trkpt>
      <trkpt lat="39.5244020" lon="3.3143550">
        <ele>30.0</ele>
        <time>2021-06-20T10:58:51Z</time>
      </trkpt>
      <trkpt lat="39.5243030" lon="3.3144230">
        <ele>29.8</ele>
        <time>2021-06-20T10:58:53Z</time>
      </trkpt>
      <trkpt lat="39.5241540" lon="3.3145360">
        <ele>29.6</ele>
        <time>2021-06-20T10:58:56Z</time>
      </trkpt>
      <trkpt lat="39.5240560" lon="3.3145690">
        <ele>29.6</ele>
        <time>2021-06-20T10:58:58Z</time>
      </trkpt>
      <trkpt lat="39.5239720" lon="3.3145260">
        <ele>30.5</ele>
        <time>2021-06-20T10:59:00Z</time>
      </trkpt>
      <trkpt lat="39.5239150" lon="3.3144010">
        <ele>31.4</ele>
        <time>2021-06-20T10:59:03Z</time>
      </trkpt>
      <trkpt lat="39.5237560" lon="3.3140280">
        <ele>33.5</ele>
        <time>2021-06-20T10:59:12Z</time>
      </trkpt>
      <trkpt lat="39.5236200" lon="3.3136840">
        <ele>34.1</ele>
        <time>2021-06-20T10:59:20Z</time>
      </trkpt>
      <trkpt lat="39.5234110" lon="3.3132400">
        <ele>34.4</ele>
        <time>2021-06-20T10:59:31Z</time>
      </trkpt>
      <trkpt lat="39.5233430" lon="3.3130590">
        <ele>34.3</ele>
        <time>2021-06-20T10:59:36Z</time>
      </trkpt>
      <trkpt lat="39.5233390" lon="3.3130510">
        <ele>34.3</ele>
        <time>2021-06-20T10:59:39Z</time>
      </trkpt>
      <trkpt lat="39.5233340" lon="3.3130460">
        <ele>34.3</ele>
        <time>2021-06-20T10:59:45Z</time>
      </trkpt>
      <trkpt lat="39.5233340" lon="3.3130460">
        <ele>34.3</ele>
        <time>2021-06-20T10:59:58Z</time>
      </trkpt>
      <trkpt lat="39.5233340" lon="3.3130460">
        <ele>34.3</ele>
        <time>2021-06-20T10:59:59Z</time>
      </trkpt>
      <trkpt lat="39.5233340" lon="3.3130460">
        <ele>34.3</ele>
        <time>2021-06-20T11:00:03Z</time>
      </trkpt>
      <trkpt lat="39.5233340" lon="3.3130450">
        <ele>34.3</ele>
        <time>2021-06-20T11:00:04Z</time>
      </trkpt>
      <trkpt lat="39.5233000" lon="3.3129830">
        <ele>34.2</ele>
        <time>2021-06-20T11:00:07Z</time>
      </trkpt>
      <trkpt lat="39.5231930" lon="3.3127530">
        <ele>33.2</ele>
        <time>2021-06-20T11:00:14Z</time>
      </trkpt>
      <trkpt lat="39.5230920" lon="3.3125530">
        <ele>32.1</ele>
        <time>2021-06-20T11:00:20Z</time>
      </trkpt>
      <trkpt lat="39.5229640" lon="3.3122550">
        <ele>30.3</ele>
        <time>2021-06-20T11:00:26Z</time>
      </trkpt>
      <trkpt lat="39.5227960" lon="3.3118660">
        <ele>27.9</ele>
        <time>2021-06-20T11:00:32Z</time>
      </trkpt>
      <trkpt lat="39.5227120" lon="3.3116940">
        <ele>26.8</ele>
        <time>2021-06-20T11:00:36Z</time>
      </trkpt>
      <trkpt lat="39.5226450" lon="3.3115050">
        <ele>25.9</ele>
        <time>2021-06-20T11:00:40Z</time>
      </trkpt>
      <trkpt lat="39.5226190" lon="3.3114550">
        <ele>25.8</ele>
        <time>2021-06-20T11:00:41Z</time>
      </trkpt>
      <trkpt lat="39.5224720" lon="3.3111790">
        <ele>24.6</ele>
        <time>2021-06-20T11:00:46Z</time>
      </trkpt>
      <trkpt lat="39.5224070" lon="3.3110470">
        <ele>24.0</ele>
        <time>2021-06-20T11:00:48Z</time>
      </trkpt>
      <trkpt lat="39.5223090" lon="3.3108440">
        <ele>22.9</ele>
        <time>2021-06-20T11:00:51Z</time>
      </trkpt>
      <trkpt lat="39.5220940" lon="3.3104080">
        <ele>19.5</ele>
        <time>2021-06-20T11:00:56Z</time>
      </trkpt>
      <trkpt lat="39.5218830" lon="3.3099410">
        <ele>14.7</ele>
        <time>2021-06-20T11:01:02Z</time>
      </trkpt>
      <trkpt lat="39.5217280" lon="3.3096130">
        <ele>11.0</ele>
        <time>2021-06-20T11:01:05Z</time>
      </trkpt>
      <trkpt lat="39.5216530" lon="3.3095080">
        <ele>10.1</ele>
        <time>2021-06-20T11:01:06Z</time>
      </trkpt>
      <trkpt lat="39.5214730" lon="3.3093640">
        <ele>10.1</ele>
        <time>2021-06-20T11:01:08Z</time>
      </trkpt>
      <trkpt lat="39.5213860" lon="3.3093530">
        <ele>10.2</ele>
        <time>2021-06-20T11:01:09Z</time>
      </trkpt>
      <trkpt lat="39.5212000" lon="3.3093540">
        <ele>10.8</ele>
        <time>2021-06-20T11:01:11Z</time>
      </trkpt>
      <trkpt lat="39.5210430" lon="3.3093670">
        <ele>11.7</ele>
        <time>2021-06-20T11:01:13Z</time>
      </trkpt>
      <trkpt lat="39.5208350" lon="3.3093770">
        <ele>13.1</ele>
        <time>2021-06-20T11:01:17Z</time>
      </trkpt>
      <trkpt lat="39.5206180" lon="3.3094030">
        <ele>14.4</ele>
        <time>2021-06-20T11:01:23Z</time>
      </trkpt>
      <trkpt lat="39.5202760" lon="3.3094230">
        <ele>16.6</ele>
        <time>2021-06-20T11:01:32Z</time>
      </trkpt>
      <trkpt lat="39.5200790" lon="3.3094430">
        <ele>18.0</ele>
        <time>2021-06-20T11:01:38Z</time>
      </trkpt>
      <trkpt lat="39.5199530" lon="3.3094460">
        <ele>18.9</ele>
        <time>2021-06-20T11:01:43Z</time>
      </trkpt>
      <trkpt lat="39.5199360" lon="3.3094300">
        <ele>19.1</ele>
        <time>2021-06-20T11:01:44Z</time>
      </trkpt>
      <trkpt lat="39.5198950" lon="3.3093930">
        <ele>19.4</ele>
        <time>2021-06-20T11:01:48Z</time>
      </trkpt>
      <trkpt lat="39.5198870" lon="3.3093870">
        <ele>19.5</ele>
        <time>2021-06-20T11:01:56Z</time>
      </trkpt>
      <trkpt lat="39.5198460" lon="3.3093710">
        <ele>19.8</ele>
        <time>2021-06-20T11:02:01Z</time>
      </trkpt>
      <trkpt lat="39.5197860" lon="3.3093220">
        <ele>20.3</ele>
        <time>2021-06-20T11:02:07Z</time>
      </trkpt>
      <trkpt lat="39.5197490" lon="3.3092750">
        <ele>20.7</ele>
        <time>2021-06-20T11:02:11Z</time>
      </trkpt>
      <trkpt lat="39.5197080" lon="3.3092040">
        <ele>21.2</ele>
        <time>2021-06-20T11:02:16Z</time>
      </trkpt>
      <trkpt lat="39.5196690" lon="3.3090580">
        <ele>21.9</ele>
        <time>2021-06-20T11:02:24Z</time>
      </trkpt>
      <trkpt lat="39.5196680" lon="3.3090430">
        <ele>21.9</ele>
        <time>2021-06-20T11:02:29Z</time>
      </trkpt>
      <trkpt lat="39.5196650" lon="3.3090220">
        <ele>22.0</ele>
        <time>2021-06-20T11:02:32Z</time>
      </trkpt>
      <trkpt lat="39.5196610" lon="3.3089720">
        <ele>22.2</ele>
        <time>2021-06-20T11:02:33Z</time>
      </trkpt>
      <trkpt lat="39.5196620" lon="3.3089470">
        <ele>22.3</ele>
        <time>2021-06-20T11:02:35Z</time>
      </trkpt>
      <trkpt lat="39.5196820" lon="3.3088440">
        <ele>22.7</ele>
        <time>2021-06-20T11:02:38Z</time>
      </trkpt>
      <trkpt lat="39.5196960" lon="3.3087550">
        <ele>23.0</ele>
        <time>2021-06-20T11:02:40Z</time>
      </trkpt>
      <trkpt lat="39.5197040" lon="3.3087090">
        <ele>23.1</ele>
        <time>2021-06-20T11:02:41Z</time>
      </trkpt>
      <trkpt lat="39.5197680" lon="3.3083910">
        <ele>24.0</ele>
        <time>2021-06-20T11:02:47Z</time>
      </trkpt>
      <trkpt lat="39.5197800" lon="3.3083360">
        <ele>24.2</ele>
        <time>2021-06-20T11:02:48Z</time>
      </trkpt>
      <trkpt lat="39.5198270" lon="3.3080650">
        <ele>24.9</ele>
        <time>2021-06-20T11:02:53Z</time>
      </trkpt>
      <trkpt lat="39.5198390" lon="3.3079610">
        <ele>25.2</ele>
        <time>2021-06-20T11:02:55Z</time>
      </trkpt>
      <trkpt lat="39.5198570" lon="3.3078040">
        <ele>25.5</ele>
        <time>2021-06-20T11:02:58Z</time>
      </trkpt>
      <trkpt lat="39.5198700" lon="3.3076410">
        <ele>25.8</ele>
        <time>2021-06-20T11:03:01Z</time>
      </trkpt>
      <trkpt lat="39.5198800" lon="3.3075320">
        <ele>25.9</ele>
        <time>2021-06-20T11:03:03Z</time>
      </trkpt>
      <trkpt lat="39.5198900" lon="3.3073820">
        <ele>25.9</ele>
        <time>2021-06-20T11:03:06Z</time>
      </trkpt>
      <trkpt lat="39.5199230" lon="3.3071510">
        <ele>25.5</ele>
        <time>2021-06-20T11:03:10Z</time>
      </trkpt>
      <trkpt lat="39.5199430" lon="3.3069510">
        <ele>25.1</ele>
        <time>2021-06-20T11:03:13Z</time>
      </trkpt>
      <trkpt lat="39.5199520" lon="3.3068820">
        <ele>24.9</ele>
        <time>2021-06-20T11:03:14Z</time>
      </trkpt>
      <trkpt lat="39.5199680" lon="3.3067390">
        <ele>24.4</ele>
        <time>2021-06-20T11:03:16Z</time>
      </trkpt>
      <trkpt lat="39.5199780" lon="3.3066660">
        <ele>24.2</ele>
        <time>2021-06-20T11:03:17Z</time>
      </trkpt>
      <trkpt lat="39.5200280" lon="3.3062050">
        <ele>22.8</ele>
        <time>2021-06-20T11:03:23Z</time>
      </trkpt>
      <trkpt lat="39.5200440" lon="3.3060520">
        <ele>22.6</ele>
        <time>2021-06-20T11:03:25Z</time>
      </trkpt>
      <trkpt lat="39.5201090" lon="3.3055400">
        <ele>22.0</ele>
        <time>2021-06-20T11:03:32Z</time>
      </trkpt>
      <trkpt lat="39.5201460" lon="3.3053110">
        <ele>21.6</ele>
        <time>2021-06-20T11:03:35Z</time>
      </trkpt>
      <trkpt lat="39.5202100" lon="3.3049820">
        <ele>20.7</ele>
        <time>2021-06-20T11:03:39Z</time>
      </trkpt>
      <trkpt lat="39.5202800" lon="3.3047350">
        <ele>20.0</ele>
        <time>2021-06-20T11:03:42Z</time>
      </trkpt>
      <trkpt lat="39.5203560" lon="3.3044230">
        <ele>19.5</ele>
        <time>2021-06-20T11:03:46Z</time>
      </trkpt>
      <trkpt lat="39.5204090" lon="3.3042140">
        <ele>19.3</ele>
        <time>2021-06-20T11:03:49Z</time>
      </trkpt>
      <trkpt lat="39.5204290" lon="3.3040580">
        <ele>19.1</ele>
        <time>2021-06-20T11:03:53Z</time>
      </trkpt>
      <trkpt lat="39.5204200" lon="3.3040340">
        <ele>19.1</ele>
        <time>2021-06-20T11:03:55Z</time>
      </trkpt>
      <trkpt lat="39.5204120" lon="3.3040410">
        <ele>19.1</ele>
        <time>2021-06-20T11:03:57Z</time>
      </trkpt>
      <trkpt lat="39.5204130" lon="3.3040460">
        <ele>19.1</ele>
        <time>2021-06-20T11:04:06Z</time>
      </trkpt>
      <trkpt lat="39.5204160" lon="3.3040460">
        <ele>19.1</ele>
        <time>2021-06-20T11:04:11Z</time>
      </trkpt>
      <trkpt lat="39.5204280" lon="3.3040220">
        <ele>19.0</ele>
        <time>2021-06-20T11:04:12Z</time>
      </trkpt>
      <trkpt lat="39.5204710" lon="3.3039160">
        <ele>18.9</ele>
        <time>2021-06-20T11:04:15Z</time>
      </trkpt>
      <trkpt lat="39.5205030" lon="3.3038210">
        <ele>18.7</ele>
        <time>2021-06-20T11:04:17Z</time>
      </trkpt>
      <trkpt lat="39.5205260" lon="3.3037060">
        <ele>18.4</ele>
        <time>2021-06-20T11:04:19Z</time>
      </trkpt>
      <trkpt lat="39.5205410" lon="3.3036040">
        <ele>18.0</ele>
        <time>2021-06-20T11:04:21Z</time>
      </trkpt>
      <trkpt lat="39.5205380" lon="3.3035370">
        <ele>17.7</ele>
        <time>2021-06-20T11:04:22Z</time>
      </trkpt>
      <trkpt lat="39.5205230" lon="3.3034790">
        <ele>17.4</ele>
        <time>2021-06-20T11:04:23Z</time>
      </trkpt>
      <trkpt lat="39.5203910" lon="3.3033230">
        <ele>15.6</ele>
        <time>2021-06-20T11:04:25Z</time>
      </trkpt>
      <trkpt lat="39.5203220" lon="3.3033040">
        <ele>14.9</ele>
        <time>2021-06-20T11:04:27Z</time>
      </trkpt>
      <trkpt lat="39.5201880" lon="3.3033520">
        <ele>13.7</ele>
        <time>2021-06-20T11:04:29Z</time>
      </trkpt>
      <trkpt lat="39.5201010" lon="3.3035420">
        <ele>12.7</ele>
        <time>2021-06-20T11:04:31Z</time>
      </trkpt>
      <trkpt lat="39.5200170" lon="3.3037470">
        <ele>12.4</ele>
        <time>2021-06-20T11:04:33Z</time>
      </trkpt>
      <trkpt lat="39.5199530" lon="3.3038260">
        <ele>12.4</ele>
        <time>2021-06-20T11:04:34Z</time>
      </trkpt>
      <trkpt lat="39.5198780" lon="3.3038730">
        <ele>12.5</ele>
        <time>2021-06-20T11:04:35Z</time>
      </trkpt>
      <trkpt lat="39.5198010" lon="3.3038810">
        <ele>12.8</ele>
        <time>2021-06-20T11:04:36Z</time>
      </trkpt>
      <trkpt lat="39.5197530" lon="3.3038690">
        <ele>13.0</ele>
        <time>2021-06-20T11:04:37Z</time>
      </trkpt>
      <trkpt lat="39.5197110" lon="3.3038350">
        <ele>13.2</ele>
        <time>2021-06-20T11:04:38Z</time>
      </trkpt>
      <trkpt lat="39.5196740" lon="3.3037720">
        <ele>13.6</ele>
        <time>2021-06-20T11:04:41Z</time>
      </trkpt>
      <trkpt lat="39.5196640" lon="3.3037360">
        <ele>13.3</ele>
        <time>2021-06-20T11:04:44Z</time>
      </trkpt>
      <trkpt lat="39.5196380" lon="3.3037460">
        <ele>13.1</ele>
        <time>2021-06-20T11:04:46Z</time>
      </trkpt>
      <trkpt lat="39.5195890" lon="3.3038990">
        <ele>12.1</ele>
        <time>2021-06-20T11:04:50Z</time>
      </trkpt>
      <trkpt lat="39.5195540" lon="3.3040100">
        <ele>11.3</ele>
        <time>2021-06-20T11:04:52Z</time>
      </trkpt>
      <trkpt lat="39.5194960" lon="3.3041400">
        <ele>10.5</ele>
        <time>2021-06-20T11:04:54Z</time>
      </trkpt>
      <trkpt lat="39.5193590" lon="3.3044790">
        <ele>8.6</ele>
        <time>2021-06-20T11:04:58Z</time>
      </trkpt>
      <trkpt lat="39.5192710" lon="3.3049170">
        <ele>7.1</ele>
        <time>2021-06-20T11:05:02Z</time>
      </trkpt>
      <trkpt lat="39.5192370" lon="3.3055980">
        <ele>5.3</ele>
        <time>2021-06-20T11:05:08Z</time>
      </trkpt>
      <trkpt lat="39.5191960" lon="3.3062300">
        <ele>4.2</ele>
        <time>2021-06-20T11:05:14Z</time>
      </trkpt>
      <trkpt lat="39.5191720" lon="3.3063120">
        <ele>4.2</ele>
        <time>2021-06-20T11:05:15Z</time>
      </trkpt>
      <trkpt lat="39.5191060" lon="3.3064720">
        <ele>4.2</ele>
        <time>2021-06-20T11:05:18Z</time>
      </trkpt>
      <trkpt lat="39.5190880" lon="3.3065290">
        <ele>4.2</ele>
        <time>2021-06-20T11:05:20Z</time>
      </trkpt>
      <trkpt lat="39.5191000" lon="3.3065440">
        <ele>4.2</ele>
        <time>2021-06-20T11:05:21Z</time>
      </trkpt>
      <trkpt lat="39.5191830" lon="3.3066240">
        <ele>4.1</ele>
        <time>2021-06-20T11:05:25Z</time>
      </trkpt>
      <trkpt lat="39.5191720" lon="3.3067770">
        <ele>4.1</ele>
        <time>2021-06-20T11:05:28Z</time>
      </trkpt>
      <trkpt lat="39.5191440" lon="3.3068960">
        <ele>4.2</ele>
        <time>2021-06-20T11:05:30Z</time>
      </trkpt>
      <trkpt lat="39.5190890" lon="3.3069980">
        <ele>4.3</ele>
        <time>2021-06-20T11:05:32Z</time>
      </trkpt>
      <trkpt lat="39.5190500" lon="3.3070420">
        <ele>4.4</ele>
        <time>2021-06-20T11:05:33Z</time>
      </trkpt>
      <trkpt lat="39.5190130" lon="3.3070810">
        <ele>4.4</ele>
        <time>2021-06-20T11:05:34Z</time>
      </trkpt>
      <trkpt lat="39.5189280" lon="3.3071390">
        <ele>4.6</ele>
        <time>2021-06-20T11:05:36Z</time>
      </trkpt>
      <trkpt lat="39.5188350" lon="3.3071810">
        <ele>4.6</ele>
        <time>2021-06-20T11:05:38Z</time>
      </trkpt>
      <trkpt lat="39.5187410" lon="3.3072290">
        <ele>4.6</ele>
        <time>2021-06-20T11:05:40Z</time>
      </trkpt>
      <trkpt lat="39.5186440" lon="3.3072800">
        <ele>4.5</ele>
        <time>2021-06-20T11:05:42Z</time>
      </trkpt>
      <trkpt lat="39.5184990" lon="3.3073640">
        <ele>4.3</ele>
        <time>2021-06-20T11:05:45Z</time>
      </trkpt>
      <trkpt lat="39.5183020" lon="3.3074640">
        <ele>4.1</ele>
        <time>2021-06-20T11:05:49Z</time>
      </trkpt>
      <trkpt lat="39.5179850" lon="3.3076460">
        <ele>3.8</ele>
        <time>2021-06-20T11:05:55Z</time>
      </trkpt>
      <trkpt lat="39.5178910" lon="3.3077160">
        <ele>3.9</ele>
        <time>2021-06-20T11:05:57Z</time>
      </trkpt>
      <trkpt lat="39.5176940" lon="3.3079050">
        <ele>4.0</ele>
        <time>2021-06-20T11:06:02Z</time>
      </trkpt>
      <trkpt lat="39.5176250" lon="3.3079930">
        <ele>4.0</ele>
        <time>2021-06-20T11:06:04Z</time>
      </trkpt>
      <trkpt lat="39.5174610" lon="3.3082310">
        <ele>4.1</ele>
        <time>2021-06-20T11:06:09Z</time>
      </trkpt>
      <trkpt lat="39.5174240" lon="3.3082730">
        <ele>4.0</ele>
        <time>2021-06-20T11:06:10Z</time>
      </trkpt>
      <trkpt lat="39.5173470" lon="3.3083600">
        <ele>3.9</ele>
        <time>2021-06-20T11:06:12Z</time>
      </trkpt>
      <trkpt lat="39.5172700" lon="3.3084610">
        <ele>3.8</ele>
        <time>2021-06-20T11:06:14Z</time>
      </trkpt>
      <trkpt lat="39.5170610" lon="3.3088190">
        <ele>3.6</ele>
        <time>2021-06-20T11:06:21Z</time>
      </trkpt>
      <trkpt lat="39.5170220" lon="3.3089240">
        <ele>3.7</ele>
        <time>2021-06-20T11:06:23Z</time>
      </trkpt>
      <trkpt lat="39.5170270" lon="3.3090300">
        <ele>3.7</ele>
        <time>2021-06-20T11:06:25Z</time>
      </trkpt>
      <trkpt lat="39.5170550" lon="3.3091890">
        <ele>3.9</ele>
        <time>2021-06-20T11:06:29Z</time>
      </trkpt>
      <trkpt lat="39.5170430" lon="3.3092270">
        <ele>3.9</ele>
        <time>2021-06-20T11:06:30Z</time>
      </trkpt>
      <trkpt lat="39.5170210" lon="3.3092990">
        <ele>4.1</ele>
        <time>2021-06-20T11:06:32Z</time>
      </trkpt>
      <trkpt lat="39.5170120" lon="3.3093340">
        <ele>4.2</ele>
        <time>2021-06-20T11:06:33Z</time>
      </trkpt>
      <trkpt lat="39.5170030" lon="3.3093760">
        <ele>4.3</ele>
        <time>2021-06-20T11:06:34Z</time>
      </trkpt>
      <trkpt lat="39.5169920" lon="3.3094170">
        <ele>4.4</ele>
        <time>2021-06-20T11:06:35Z</time>
      </trkpt>
      <trkpt lat="39.5169850" lon="3.3094920">
        <ele>4.5</ele>
        <time>2021-06-20T11:06:37Z</time>
      </trkpt>
      <trkpt lat="39.5169860" lon="3.3095240">
        <ele>4.6</ele>
        <time>2021-06-20T11:06:39Z</time>
      </trkpt>
      <trkpt lat="39.5169890" lon="3.3095460">
        <ele>4.7</ele>
        <time>2021-06-20T11:06:52Z</time>
      </trkpt>
      <trkpt lat="39.5170000" lon="3.3095860">
        <ele>4.8</ele>
        <time>2021-06-20T11:06:54Z</time>
      </trkpt>
      <trkpt lat="39.5169960" lon="3.3096720">
        <ele>5.0</ele>
        <time>2021-06-20T11:07:00Z</time>
      </trkpt>
      <trkpt lat="39.5169980" lon="3.3097730">
        <ele>5.3</ele>
        <time>2021-06-20T11:07:07Z</time>
      </trkpt>
      <trkpt lat="39.5169940" lon="3.3098210">
        <ele>5.4</ele>
        <time>2021-06-20T11:07:10Z</time>
      </trkpt>
      <trkpt lat="39.5169990" lon="3.3098450">
        <ele>5.4</ele>
        <time>2021-06-20T11:07:12Z</time>
      </trkpt>
      <trkpt lat="39.5169980" lon="3.3098500">
        <ele>5.4</ele>
        <time>2021-06-20T11:07:13Z</time>
      </trkpt>
      <trkpt lat="39.5169940" lon="3.3099180">
        <ele>5.5</ele>
        <time>2021-06-20T11:07:18Z</time>
      </trkpt>
      <trkpt lat="39.5169890" lon="3.3099320">
        <ele>5.5</ele>
        <time>2021-06-20T11:07:19Z</time>
      </trkpt>
      <trkpt lat="39.5169840" lon="3.3100200">
        <ele>5.6</ele>
        <time>2021-06-20T11:07:26Z</time>
      </trkpt>
      <trkpt lat="39.5169920" lon="3.3100690">
        <ele>5.7</ele>
        <time>2021-06-20T11:07:29Z</time>
      </trkpt>
      <trkpt lat="39.5170020" lon="3.3101310">
        <ele>5.7</ele>
        <time>2021-06-20T11:07:36Z</time>
      </trkpt>
      <trkpt lat="39.5169960" lon="3.3102210">
        <ele>5.7</ele>
        <time>2021-06-20T11:07:43Z</time>
      </trkpt>
      <trkpt lat="39.5170020" lon="3.3102350">
        <ele>5.7</ele>
        <time>2021-06-20T11:07:50Z</time>
      </trkpt>
      <trkpt lat="39.5170040" lon="3.3103070">
        <ele>5.7</ele>
        <time>2021-06-20T11:07:56Z</time>
      </trkpt>
      <trkpt lat="39.5169970" lon="3.3103060">
        <ele>5.7</ele>
        <time>2021-06-20T11:08:01Z</time>
      </trkpt>
      <trkpt lat="39.5169970" lon="3.3103060">
        <ele>5.7</ele>
        <time>2021-06-20T11:08:04Z</time>
      </trkpt>
      <trkpt lat="39.5169970" lon="3.3103060">
        <ele>5.7</ele>
        <time>2021-06-20T11:08:07Z</time>
      </trkpt>
      <trkpt lat="39.5169970" lon="3.3103060">
        <ele>5.7</ele>
        <time>2021-06-20T11:08:08Z</time>
      </trkpt>
      <trkpt lat="39.5169970" lon="3.3103060">
        <ele>5.7</ele>
        <time>2021-06-20T11:08:14Z</time>
      </trkpt>
      <trkpt lat="39.5169970" lon="3.3103060">
        <ele>5.7</ele>
        <time>2021-06-20T11:08:31Z</time>
      </trkpt>
      <trkpt lat="39.5169960" lon="3.3103250">
        <ele>5.7</ele>
        <time>2021-06-20T11:08:36Z</time>
      </trkpt>
      <trkpt lat="39.5169960" lon="3.3103290">
        <ele>5.7</ele>
        <time>2021-06-20T11:08:46Z</time>
      </trkpt>
      <trkpt lat="39.5169970" lon="3.3103620">
        <ele>5.7</ele>
        <time>2021-06-20T11:08:54Z</time>
      </trkpt>
      <trkpt lat="39.5170010" lon="3.3103620">
        <ele>5.7</ele>
        <time>2021-06-20T11:08:56Z</time>
      </trkpt>
      <trkpt lat="39.5170020" lon="3.3103620">
        <ele>5.7</ele>
        <time>2021-06-20T11:09:00Z</time>
      </trkpt>
      <trkpt lat="39.5169980" lon="3.3103580">
        <ele>5.7</ele>
        <time>2021-06-20T11:09:29Z</time>
      </trkpt>
      <trkpt lat="39.5169850" lon="3.3103990">
        <ele>5.7</ele>
        <time>2021-06-20T11:09:38Z</time>
      </trkpt>
      <trkpt lat="39.5169820" lon="3.3104180">
        <ele>5.7</ele>
        <time>2021-06-20T11:09:39Z</time>
      </trkpt>
      <trkpt lat="39.5169840" lon="3.3104740">
        <ele>5.7</ele>
        <time>2021-06-20T11:09:42Z</time>
      </trkpt>
      <trkpt lat="39.5169810" lon="3.3105000">
        <ele>5.7</ele>
        <time>2021-06-20T11:09:44Z</time>
      </trkpt>
      <trkpt lat="39.5169790" lon="3.3105190">
        <ele>5.7</ele>
        <time>2021-06-20T11:09:45Z</time>
      </trkpt>
      <trkpt lat="39.5169730" lon="3.3105390">
        <ele>5.7</ele>
        <time>2021-06-20T11:09:51Z</time>
      </trkpt>
      <trkpt lat="39.5169630" lon="3.3105390">
        <ele>5.7</ele>
        <time>2021-06-20T11:09:59Z</time>
      </trkpt>
      <trkpt lat="39.5169630" lon="3.3105390">
        <ele>5.7</ele>
        <time>2021-06-20T11:10:02Z</time>
      </trkpt>
      <trkpt lat="39.5169630" lon="3.3105390">
        <ele>5.7</ele>
        <time>2021-06-20T11:10:04Z</time>
      </trkpt>
      <trkpt lat="39.5169630" lon="3.3105390">
        <ele>5.7</ele>
        <time>2021-06-20T11:10:05Z</time>
      </trkpt>
      <trkpt lat="39.5169630" lon="3.3105390">
        <ele>5.7</ele>
        <time>2021-06-20T11:10:06Z</time>
      </trkpt>
      <trkpt lat="39.5169630" lon="3.3105390">
        <ele>5.7</ele>
        <time>2021-06-20T11:10:08Z</time>
      </trkpt>
      <trkpt lat="39.5169580" lon="3.3105470">
        <ele>5.7</ele>
        <time>2021-06-20T11:10:32Z</time>
      </trkpt>
      <trkpt lat="39.5169580" lon="3.3105470">
        <ele>5.7</ele>
        <time>2021-06-20T11:10:33Z</time>
      </trkpt>
      <trkpt lat="39.5169580" lon="3.3105470">
        <ele>5.7</ele>
        <time>2021-06-20T11:10:35Z</time>
      </trkpt>
      <trkpt lat="39.5169580" lon="3.3105470">
        <ele>5.7</ele>
        <time>2021-06-20T11:10:37Z</time>
      </trkpt>
      <trkpt lat="39.5169660" lon="3.3105370">
        <ele>5.7</ele>
        <time>2021-06-20T11:10:39Z</time>
      </trkpt>
      <trkpt lat="39.5169690" lon="3.3105200">
        <ele>5.7</ele>
        <time>2021-06-20T11:10:41Z</time>
      </trkpt>
      <trkpt lat="39.5169830" lon="3.3104760">
        <ele>5.7</ele>
        <time>2021-06-20T11:10:47Z</time>
      </trkpt>
      <trkpt lat="39.5169970" lon="3.3104660">
        <ele>5.7</ele>
        <time>2021-06-20T11:10:49Z</time>
      </trkpt>
      <trkpt lat="39.5170120" lon="3.3104540">
        <ele>5.7</ele>
        <time>2021-06-20T11:10:52Z</time>
      </trkpt>
      <trkpt lat="39.5170240" lon="3.3104630">
        <ele>5.7</ele>
        <time>2021-06-20T11:10:53Z</time>
      </trkpt>
      <trkpt lat="39.5170480" lon="3.3104790">
        <ele>5.7</ele>
        <time>2021-06-20T11:10:55Z</time>
      </trkpt>
      <trkpt lat="39.5170660" lon="3.3104810">
        <ele>5.7</ele>
        <time>2021-06-20T11:10:57Z</time>
      </trkpt>
      <trkpt lat="39.5170710" lon="3.3104900">
        <ele>5.7</ele>
        <time>2021-06-20T11:10:58Z</time>
      </trkpt>
      <trkpt lat="39.5170890" lon="3.3105030">
        <ele>5.7</ele>
        <time>2021-06-20T11:11:00Z</time>
      </trkpt>
      <trkpt lat="39.5170760" lon="3.3104800">
        <ele>5.7</ele>
        <time>2021-06-20T11:11:01Z</time>
      </trkpt>
      <trkpt lat="39.5170780" lon="3.3103160">
        <ele>5.7</ele>
        <time>2021-06-20T11:11:08Z</time>
      </trkpt>
      <trkpt lat="39.5171090" lon="3.3103420">
        <ele>5.7</ele>
        <time>2021-06-20T11:11:10Z</time>
      </trkpt>
      <trkpt lat="39.5171010" lon="3.3103440">
        <ele>5.7</ele>
        <time>2021-06-20T11:11:11Z</time>
      </trkpt>
      <trkpt lat="39.5170930" lon="3.3103760">
        <ele>5.7</ele>
        <time>2021-06-20T11:11:12Z</time>
      </trkpt>
      <trkpt lat="39.5171260" lon="3.3104080">
        <ele>5.7</ele>
        <time>2021-06-20T11:11:13Z</time>
      </trkpt>
      <trkpt lat="39.5170830" lon="3.3104150">
        <ele>5.7</ele>
        <time>2021-06-20T11:11:17Z</time>
      </trkpt>
      <trkpt lat="39.5170850" lon="3.3104020">
        <ele>5.7</ele>
        <time>2021-06-20T11:11:20Z</time>
      </trkpt>
      <trkpt lat="39.5170870" lon="3.3103890">
        <ele>5.7</ele>
        <time>2021-06-20T11:11:21Z</time>
      </trkpt>
      <trkpt lat="39.5170890" lon="3.3103220">
        <ele>5.7</ele>
        <time>2021-06-20T11:11:26Z</time>
      </trkpt>
      <trkpt lat="39.5170960" lon="3.3103680">
        <ele>5.7</ele>
        <time>2021-06-20T11:11:30Z</time>
      </trkpt>
      <trkpt lat="39.5171100" lon="3.3104140">
        <ele>5.7</ele>
        <time>2021-06-20T11:11:31Z</time>
      </trkpt>
      <trkpt lat="39.5172130" lon="3.3105530">
        <ele>5.7</ele>
        <time>2021-06-20T11:11:37Z</time>
      </trkpt>
      <trkpt lat="39.5172470" lon="3.3105400">
        <ele>5.7</ele>
        <time>2021-06-20T11:11:38Z</time>
      </trkpt>
      <trkpt lat="39.5172390" lon="3.3105100">
        <ele>5.7</ele>
        <time>2021-06-20T11:11:39Z</time>
      </trkpt>
      <trkpt lat="39.5170440" lon="3.3103560">
        <ele>5.7</ele>
        <time>2021-06-20T11:11:41Z</time>
      </trkpt>
      <trkpt lat="39.5170360" lon="3.3093080">
        <ele>4.0</ele>
        <time>2021-06-20T13:27:07Z</time>
      </trkpt>
      <trkpt lat="39.5171040" lon="3.3090730">
        <ele>3.7</ele>
        <time>2021-06-20T13:27:13Z</time>
      </trkpt>
      <trkpt lat="39.5172000" lon="3.3088460">
        <ele>3.6</ele>
        <time>2021-06-20T13:27:19Z</time>
      </trkpt>
      <trkpt lat="39.5172420" lon="3.3087600">
        <ele>3.6</ele>
        <time>2021-06-20T13:27:22Z</time>
      </trkpt>
      <trkpt lat="39.5172750" lon="3.3087080">
        <ele>3.6</ele>
        <time>2021-06-20T13:27:24Z</time>
      </trkpt>
      <trkpt lat="39.5172960" lon="3.3086700">
        <ele>3.7</ele>
        <time>2021-06-20T13:27:25Z</time>
      </trkpt>
      <trkpt lat="39.5173310" lon="3.3086050">
        <ele>3.7</ele>
        <time>2021-06-20T13:27:27Z</time>
      </trkpt>
      <trkpt lat="39.5173660" lon="3.3085350">
        <ele>3.8</ele>
        <time>2021-06-20T13:27:29Z</time>
      </trkpt>
      <trkpt lat="39.5174360" lon="3.3083870">
        <ele>3.9</ele>
        <time>2021-06-20T13:27:33Z</time>
      </trkpt>
      <trkpt lat="39.5175210" lon="3.3082080">
        <ele>4.1</ele>
        <time>2021-06-20T13:27:38Z</time>
      </trkpt>
      <trkpt lat="39.5176080" lon="3.3080680">
        <ele>4.1</ele>
        <time>2021-06-20T13:27:42Z</time>
      </trkpt>
      <trkpt lat="39.5178460" lon="3.3078110">
        <ele>3.9</ele>
        <time>2021-06-20T13:27:51Z</time>
      </trkpt>
      <trkpt lat="39.5180040" lon="3.3076820">
        <ele>3.8</ele>
        <time>2021-06-20T13:27:56Z</time>
      </trkpt>
      <trkpt lat="39.5180820" lon="3.3076310">
        <ele>3.9</ele>
        <time>2021-06-20T13:27:58Z</time>
      </trkpt>
      <trkpt lat="39.5181210" lon="3.3076100">
        <ele>3.9</ele>
        <time>2021-06-20T13:27:59Z</time>
      </trkpt>
      <trkpt lat="39.5183370" lon="3.3074860">
        <ele>4.1</ele>
        <time>2021-06-20T13:28:05Z</time>
      </trkpt>
      <trkpt lat="39.5184720" lon="3.3074010">
        <ele>4.3</ele>
        <time>2021-06-20T13:28:09Z</time>
      </trkpt>
      <trkpt lat="39.5187450" lon="3.3072590">
        <ele>4.6</ele>
        <time>2021-06-20T13:28:17Z</time>
      </trkpt>
      <trkpt lat="39.5188120" lon="3.3072250">
        <ele>4.6</ele>
        <time>2021-06-20T13:28:19Z</time>
      </trkpt>
      <trkpt lat="39.5189230" lon="3.3071800">
        <ele>4.6</ele>
        <time>2021-06-20T13:28:22Z</time>
      </trkpt>
      <trkpt lat="39.5190190" lon="3.3071140">
        <ele>4.4</ele>
        <time>2021-06-20T13:28:25Z</time>
      </trkpt>
      <trkpt lat="39.5190830" lon="3.3070420">
        <ele>4.3</ele>
        <time>2021-06-20T13:28:27Z</time>
      </trkpt>
      <trkpt lat="39.5191440" lon="3.3069470">
        <ele>4.2</ele>
        <time>2021-06-20T13:28:29Z</time>
      </trkpt>
      <trkpt lat="39.5191710" lon="3.3068930">
        <ele>4.1</ele>
        <time>2021-06-20T13:28:30Z</time>
      </trkpt>
      <trkpt lat="39.5191890" lon="3.3068340">
        <ele>4.1</ele>
        <time>2021-06-20T13:28:31Z</time>
      </trkpt>
      <trkpt lat="39.5192180" lon="3.3067130">
        <ele>4.1</ele>
        <time>2021-06-20T13:28:33Z</time>
      </trkpt>
      <trkpt lat="39.5192180" lon="3.3066020">
        <ele>4.2</ele>
        <time>2021-06-20T13:28:35Z</time>
      </trkpt>
      <trkpt lat="39.5192230" lon="3.3062830">
        <ele>4.2</ele>
        <time>2021-06-20T13:28:41Z</time>
      </trkpt>
      <trkpt lat="39.5192350" lon="3.3060910">
        <ele>4.3</ele>
        <time>2021-06-20T13:28:45Z</time>
      </trkpt>
      <trkpt lat="39.5192440" lon="3.3060050">
        <ele>4.5</ele>
        <time>2021-06-20T13:28:47Z</time>
      </trkpt>
      <trkpt lat="39.5192510" lon="3.3056950">
        <ele>5.2</ele>
        <time>2021-06-20T13:28:55Z</time>
      </trkpt>
      <trkpt lat="39.5192640" lon="3.3055700">
        <ele>5.5</ele>
        <time>2021-06-20T13:29:00Z</time>
      </trkpt>
      <trkpt lat="39.5192640" lon="3.3055040">
        <ele>5.7</ele>
        <time>2021-06-20T13:29:03Z</time>
      </trkpt>
      <trkpt lat="39.5192640" lon="3.3054950">
        <ele>5.7</ele>
        <time>2021-06-20T13:29:06Z</time>
      </trkpt>
      <trkpt lat="39.5192640" lon="3.3054950">
        <ele>5.7</ele>
        <time>2021-06-20T13:29:10Z</time>
      </trkpt>
      <trkpt lat="39.5192640" lon="3.3054950">
        <ele>5.7</ele>
        <time>2021-06-20T13:29:12Z</time>
      </trkpt>
      <trkpt lat="39.5192680" lon="3.3054800">
        <ele>5.7</ele>
        <time>2021-06-20T13:29:14Z</time>
      </trkpt>
      <trkpt lat="39.5192700" lon="3.3054670">
        <ele>5.8</ele>
        <time>2021-06-20T13:29:15Z</time>
      </trkpt>
      <trkpt lat="39.5192680" lon="3.3054360">
        <ele>5.8</ele>
        <time>2021-06-20T13:29:17Z</time>
      </trkpt>
      <trkpt lat="39.5192760" lon="3.3052700">
        <ele>6.3</ele>
        <time>2021-06-20T13:29:23Z</time>
      </trkpt>
      <trkpt lat="39.5192960" lon="3.3050170">
        <ele>7.1</ele>
        <time>2021-06-20T13:29:29Z</time>
      </trkpt>
      <trkpt lat="39.5193160" lon="3.3048780">
        <ele>7.5</ele>
        <time>2021-06-20T13:29:33Z</time>
      </trkpt>
      <trkpt lat="39.5193280" lon="3.3047990">
        <ele>7.8</ele>
        <time>2021-06-20T13:29:35Z</time>
      </trkpt>
      <trkpt lat="39.5193870" lon="3.3046120">
        <ele>8.6</ele>
        <time>2021-06-20T13:29:40Z</time>
      </trkpt>
      <trkpt lat="39.5194210" lon="3.3045110">
        <ele>9.1</ele>
        <time>2021-06-20T13:29:43Z</time>
      </trkpt>
      <trkpt lat="39.5194560" lon="3.3044140">
        <ele>9.7</ele>
        <time>2021-06-20T13:29:46Z</time>
      </trkpt>
      <trkpt lat="39.5195000" lon="3.3042890">
        <ele>10.4</ele>
        <time>2021-06-20T13:29:50Z</time>
      </trkpt>
      <trkpt lat="39.5195910" lon="3.3039940">
        <ele>12.5</ele>
        <time>2021-06-20T13:30:00Z</time>
      </trkpt>
      <trkpt lat="39.5196420" lon="3.3038530">
        <ele>13.5</ele>
        <time>2021-06-20T13:30:05Z</time>
      </trkpt>
      <trkpt lat="39.5196880" lon="3.3037390">
        <ele>13.9</ele>
        <time>2021-06-20T13:30:09Z</time>
      </trkpt>
      <trkpt lat="39.5197370" lon="3.3035430">
        <ele>14.7</ele>
        <time>2021-06-20T13:30:16Z</time>
      </trkpt>
      <trkpt lat="39.5197980" lon="3.3033230">
        <ele>15.7</ele>
        <time>2021-06-20T13:30:23Z</time>
      </trkpt>
      <trkpt lat="39.5198310" lon="3.3030800">
        <ele>16.9</ele>
        <time>2021-06-20T13:30:30Z</time>
      </trkpt>
      <trkpt lat="39.5198470" lon="3.3028690">
        <ele>17.9</ele>
        <time>2021-06-20T13:30:36Z</time>
      </trkpt>
      <trkpt lat="39.5198710" lon="3.3026170">
        <ele>19.1</ele>
        <time>2021-06-20T13:30:44Z</time>
      </trkpt>
      <trkpt lat="39.5198820" lon="3.3024560">
        <ele>20.0</ele>
        <time>2021-06-20T13:30:49Z</time>
      </trkpt>
      <trkpt lat="39.5199000" lon="3.3022620">
        <ele>21.0</ele>
        <time>2021-06-20T13:30:55Z</time>
      </trkpt>
      <trkpt lat="39.5199200" lon="3.3020450">
        <ele>22.1</ele>
        <time>2021-06-20T13:31:01Z</time>
      </trkpt>
      <trkpt lat="39.5199540" lon="3.3017490">
        <ele>23.4</ele>
        <time>2021-06-20T13:31:09Z</time>
      </trkpt>
      <trkpt lat="39.5199550" lon="3.3015300">
        <ele>24.1</ele>
        <time>2021-06-20T13:31:15Z</time>
      </trkpt>
      <trkpt lat="39.5199440" lon="3.3011860">
        <ele>25.0</ele>
        <time>2021-06-20T13:31:25Z</time>
      </trkpt>
      <trkpt lat="39.5199170" lon="3.3008890">
        <ele>25.7</ele>
        <time>2021-06-20T13:31:33Z</time>
      </trkpt>
      <trkpt lat="39.5198100" lon="3.3006380">
        <ele>26.5</ele>
        <time>2021-06-20T13:31:40Z</time>
      </trkpt>
      <trkpt lat="39.5196170" lon="3.3003880">
        <ele>27.5</ele>
        <time>2021-06-20T13:31:49Z</time>
      </trkpt>
      <trkpt lat="39.5195410" lon="3.3002500">
        <ele>27.9</ele>
        <time>2021-06-20T13:31:53Z</time>
      </trkpt>
      <trkpt lat="39.5195240" lon="3.3002170">
        <ele>28.0</ele>
        <time>2021-06-20T13:31:54Z</time>
      </trkpt>
      <trkpt lat="39.5194900" lon="3.3001400">
        <ele>28.2</ele>
        <time>2021-06-20T13:31:56Z</time>
      </trkpt>
      <trkpt lat="39.5194330" lon="3.2999500">
        <ele>28.6</ele>
        <time>2021-06-20T13:32:01Z</time>
      </trkpt>
      <trkpt lat="39.5194090" lon="3.2998340">
        <ele>28.9</ele>
        <time>2021-06-20T13:32:04Z</time>
      </trkpt>
      <trkpt lat="39.5193710" lon="3.2997050">
        <ele>29.2</ele>
        <time>2021-06-20T13:32:07Z</time>
      </trkpt>
      <trkpt lat="39.5193640" lon="3.2996600">
        <ele>29.3</ele>
        <time>2021-06-20T13:32:08Z</time>
      </trkpt>
      <trkpt lat="39.5193000" lon="3.2993300">
        <ele>30.2</ele>
        <time>2021-06-20T13:32:16Z</time>
      </trkpt>
      <trkpt lat="39.5192540" lon="3.2991100">
        <ele>30.8</ele>
        <time>2021-06-20T13:32:21Z</time>
      </trkpt>
      <trkpt lat="39.5192450" lon="3.2990090">
        <ele>31.1</ele>
        <time>2021-06-20T13:32:23Z</time>
      </trkpt>
      <trkpt lat="39.5192360" lon="3.2989180">
        <ele>31.4</ele>
        <time>2021-06-20T13:32:25Z</time>
      </trkpt>
      <trkpt lat="39.5192240" lon="3.2988250">
        <ele>31.7</ele>
        <time>2021-06-20T13:32:27Z</time>
      </trkpt>
      <trkpt lat="39.5192080" lon="3.2987030">
        <ele>32.1</ele>
        <time>2021-06-20T13:32:30Z</time>
      </trkpt>
      <trkpt lat="39.5191960" lon="3.2985660">
        <ele>32.5</ele>
        <time>2021-06-20T13:32:33Z</time>
      </trkpt>
      <trkpt lat="39.5191860" lon="3.2983850">
        <ele>33.0</ele>
        <time>2021-06-20T13:32:37Z</time>
      </trkpt>
      <trkpt lat="39.5191810" lon="3.2982830">
        <ele>33.3</ele>
        <time>2021-06-20T13:32:39Z</time>
      </trkpt>
      <trkpt lat="39.5191750" lon="3.2981960">
        <ele>33.5</ele>
        <time>2021-06-20T13:32:41Z</time>
      </trkpt>
      <trkpt lat="39.5191650" lon="3.2980420">
        <ele>34.0</ele>
        <time>2021-06-20T13:32:44Z</time>
      </trkpt>
      <trkpt lat="39.5191560" lon="3.2976390">
        <ele>34.9</ele>
        <time>2021-06-20T13:32:53Z</time>
      </trkpt>
      <trkpt lat="39.5191870" lon="3.2973010">
        <ele>35.4</ele>
        <time>2021-06-20T13:33:00Z</time>
      </trkpt>
      <trkpt lat="39.5193140" lon="3.2970220">
        <ele>35.9</ele>
        <time>2021-06-20T13:33:07Z</time>
      </trkpt>
      <trkpt lat="39.5194150" lon="3.2968140">
        <ele>36.4</ele>
        <time>2021-06-20T13:33:12Z</time>
      </trkpt>
      <trkpt lat="39.5195140" lon="3.2966060">
        <ele>36.8</ele>
        <time>2021-06-20T13:33:17Z</time>
      </trkpt>
      <trkpt lat="39.5197220" lon="3.2960890">
        <ele>37.5</ele>
        <time>2021-06-20T13:33:29Z</time>
      </trkpt>
      <trkpt lat="39.5197830" lon="3.2958000">
        <ele>37.7</ele>
        <time>2021-06-20T13:33:35Z</time>
      </trkpt>
      <trkpt lat="39.5197950" lon="3.2957470">
        <ele>37.8</ele>
        <time>2021-06-20T13:33:36Z</time>
      </trkpt>
      <trkpt lat="39.5199060" lon="3.2952480">
        <ele>38.3</ele>
        <time>2021-06-20T13:33:46Z</time>
      </trkpt>
      <trkpt lat="39.5199190" lon="3.2951870">
        <ele>38.3</ele>
        <time>2021-06-20T13:33:47Z</time>
      </trkpt>
      <trkpt lat="39.5200420" lon="3.2948320">
        <ele>38.8</ele>
        <time>2021-06-20T13:33:54Z</time>
      </trkpt>
      <trkpt lat="39.5201870" lon="3.2943900">
        <ele>39.6</ele>
        <time>2021-06-20T13:34:03Z</time>
      </trkpt>
      <trkpt lat="39.5202030" lon="3.2941530">
        <ele>40.0</ele>
        <time>2021-06-20T13:34:08Z</time>
      </trkpt>
      <trkpt lat="39.5201440" lon="3.2937690">
        <ele>41.0</ele>
        <time>2021-06-20T13:34:16Z</time>
      </trkpt>
      <trkpt lat="39.5200770" lon="3.2933530">
        <ele>42.2</ele>
        <time>2021-06-20T13:34:25Z</time>
      </trkpt>
      <trkpt lat="39.5200430" lon="3.2931070">
        <ele>42.9</ele>
        <time>2021-06-20T13:34:31Z</time>
      </trkpt>
      <trkpt lat="39.5200290" lon="3.2929960">
        <ele>43.2</ele>
        <time>2021-06-20T13:34:34Z</time>
      </trkpt>
      <trkpt lat="39.5200190" lon="3.2929060">
        <ele>43.5</ele>
        <time>2021-06-20T13:34:36Z</time>
      </trkpt>
      <trkpt lat="39.5199960" lon="3.2927780">
        <ele>43.9</ele>
        <time>2021-06-20T13:34:39Z</time>
      </trkpt>
      <trkpt lat="39.5199750" lon="3.2926370">
        <ele>44.3</ele>
        <time>2021-06-20T13:34:42Z</time>
      </trkpt>
      <trkpt lat="39.5199430" lon="3.2923770">
        <ele>45.1</ele>
        <time>2021-06-20T13:34:48Z</time>
      </trkpt>
      <trkpt lat="39.5198960" lon="3.2921510">
        <ele>46.0</ele>
        <time>2021-06-20T13:34:54Z</time>
      </trkpt>
      <trkpt lat="39.5198650" lon="3.2919060">
        <ele>46.9</ele>
        <time>2021-06-20T13:35:00Z</time>
      </trkpt>
      <trkpt lat="39.5198140" lon="3.2916560">
        <ele>47.9</ele>
        <time>2021-06-20T13:35:07Z</time>
      </trkpt>
      <trkpt lat="39.5198110" lon="3.2916280">
        <ele>48.0</ele>
        <time>2021-06-20T13:35:08Z</time>
      </trkpt>
      <trkpt lat="39.5197860" lon="3.2913780">
        <ele>49.0</ele>
        <time>2021-06-20T13:35:15Z</time>
      </trkpt>
      <trkpt lat="39.5197650" lon="3.2912030">
        <ele>49.7</ele>
        <time>2021-06-20T13:35:21Z</time>
      </trkpt>
      <trkpt lat="39.5197380" lon="3.2910440">
        <ele>50.3</ele>
        <time>2021-06-20T13:35:26Z</time>
      </trkpt>
      <trkpt lat="39.5197180" lon="3.2908820">
        <ele>50.9</ele>
        <time>2021-06-20T13:35:31Z</time>
      </trkpt>
      <trkpt lat="39.5196700" lon="3.2905120">
        <ele>52.2</ele>
        <time>2021-06-20T13:35:41Z</time>
      </trkpt>
      <trkpt lat="39.5196560" lon="3.2904340">
        <ele>52.4</ele>
        <time>2021-06-20T13:35:43Z</time>
      </trkpt>
      <trkpt lat="39.5196020" lon="3.2900720">
        <ele>53.4</ele>
        <time>2021-06-20T13:35:52Z</time>
      </trkpt>
      <trkpt lat="39.5195460" lon="3.2896860">
        <ele>54.6</ele>
        <time>2021-06-20T13:36:01Z</time>
      </trkpt>
      <trkpt lat="39.5194990" lon="3.2893640">
        <ele>55.5</ele>
        <time>2021-06-20T13:36:08Z</time>
      </trkpt>
      <trkpt lat="39.5194050" lon="3.2888320">
        <ele>57.3</ele>
        <time>2021-06-20T13:36:20Z</time>
      </trkpt>
      <trkpt lat="39.5192990" lon="3.2884550">
        <ele>58.8</ele>
        <time>2021-06-20T13:36:29Z</time>
      </trkpt>
      <trkpt lat="39.5191820" lon="3.2880210">
        <ele>60.0</ele>
        <time>2021-06-20T13:36:39Z</time>
      </trkpt>
      <trkpt lat="39.5191560" lon="3.2877610">
        <ele>60.1</ele>
        <time>2021-06-20T13:36:45Z</time>
      </trkpt>
      <trkpt lat="39.5192060" lon="3.2875840">
        <ele>60.0</ele>
        <time>2021-06-20T13:36:49Z</time>
      </trkpt>
      <trkpt lat="39.5192220" lon="3.2875370">
        <ele>60.0</ele>
        <time>2021-06-20T13:36:50Z</time>
      </trkpt>
      <trkpt lat="39.5192720" lon="3.2873920">
        <ele>60.0</ele>
        <time>2021-06-20T13:36:53Z</time>
      </trkpt>
      <trkpt lat="39.5193010" lon="3.2872690">
        <ele>60.0</ele>
        <time>2021-06-20T13:36:56Z</time>
      </trkpt>
      <trkpt lat="39.5192250" lon="3.2871620">
        <ele>60.5</ele>
        <time>2021-06-20T13:37:00Z</time>
      </trkpt>
      <trkpt lat="39.5189970" lon="3.2870520">
        <ele>61.5</ele>
        <time>2021-06-20T13:37:07Z</time>
      </trkpt>
      <trkpt lat="39.5187100" lon="3.2869140">
        <ele>62.8</ele>
        <time>2021-06-20T13:37:16Z</time>
      </trkpt>
      <trkpt lat="39.5184700" lon="3.2867670">
        <ele>63.8</ele>
        <time>2021-06-20T13:37:24Z</time>
      </trkpt>
      <trkpt lat="39.5181700" lon="3.2865820">
        <ele>64.9</ele>
        <time>2021-06-20T13:37:33Z</time>
      </trkpt>
      <trkpt lat="39.5177880" lon="3.2863440">
        <ele>65.9</ele>
        <time>2021-06-20T13:37:44Z</time>
      </trkpt>
      <trkpt lat="39.5173900" lon="3.2860780">
        <ele>66.0</ele>
        <time>2021-06-20T13:37:54Z</time>
      </trkpt>
      <trkpt lat="39.5170540" lon="3.2858320">
        <ele>65.3</ele>
        <time>2021-06-20T13:38:01Z</time>
      </trkpt>
      <trkpt lat="39.5169670" lon="3.2857670">
        <ele>65.1</ele>
        <time>2021-06-20T13:38:03Z</time>
      </trkpt>
      <trkpt lat="39.5167620" lon="3.2856110">
        <ele>64.7</ele>
        <time>2021-06-20T13:38:07Z</time>
      </trkpt>
      <trkpt lat="39.5166220" lon="3.2855100">
        <ele>64.5</ele>
        <time>2021-06-20T13:38:10Z</time>
      </trkpt>
      <trkpt lat="39.5165290" lon="3.2854450">
        <ele>64.3</ele>
        <time>2021-06-20T13:38:12Z</time>
      </trkpt>
      <trkpt lat="39.5164320" lon="3.2853700">
        <ele>64.0</ele>
        <time>2021-06-20T13:38:14Z</time>
      </trkpt>
      <trkpt lat="39.5163270" lon="3.2852970">
        <ele>63.7</ele>
        <time>2021-06-20T13:38:16Z</time>
      </trkpt>
      <trkpt lat="39.5162200" lon="3.2852190">
        <ele>63.3</ele>
        <time>2021-06-20T13:38:18Z</time>
      </trkpt>
      <trkpt lat="39.5159960" lon="3.2850400">
        <ele>62.7</ele>
        <time>2021-06-20T13:38:22Z</time>
      </trkpt>
      <trkpt lat="39.5154820" lon="3.2846570">
        <ele>62.7</ele>
        <time>2021-06-20T13:38:31Z</time>
      </trkpt>
      <trkpt lat="39.5154320" lon="3.2846150">
        <ele>62.7</ele>
        <time>2021-06-20T13:38:32Z</time>
      </trkpt>
      <trkpt lat="39.5151420" lon="3.2843840">
        <ele>62.2</ele>
        <time>2021-06-20T13:38:38Z</time>
      </trkpt>
      <trkpt lat="39.5149900" lon="3.2842610">
        <ele>61.5</ele>
        <time>2021-06-20T13:38:41Z</time>
      </trkpt>
      <trkpt lat="39.5148340" lon="3.2840910">
        <ele>60.3</ele>
        <time>2021-06-20T13:38:44Z</time>
      </trkpt>
      <trkpt lat="39.5145240" lon="3.2837420">
        <ele>57.7</ele>
        <time>2021-06-20T13:38:49Z</time>
      </trkpt>
      <trkpt lat="39.5143190" lon="3.2835070">
        <ele>56.7</ele>
        <time>2021-06-20T13:38:52Z</time>
      </trkpt>
      <trkpt lat="39.5141470" lon="3.2833120">
        <ele>56.2</ele>
        <time>2021-06-20T13:38:55Z</time>
      </trkpt>
      <trkpt lat="39.5140990" lon="3.2832530">
        <ele>56.0</ele>
        <time>2021-06-20T13:38:56Z</time>
      </trkpt>
      <trkpt lat="39.5137760" lon="3.2828660">
        <ele>53.5</ele>
        <time>2021-06-20T13:39:02Z</time>
      </trkpt>
      <trkpt lat="39.5134030" lon="3.2824630">
        <ele>51.4</ele>
        <time>2021-06-20T13:39:07Z</time>
      </trkpt>
      <trkpt lat="39.5130590" lon="3.2821030">
        <ele>52.0</ele>
        <time>2021-06-20T13:39:12Z</time>
      </trkpt>
      <trkpt lat="39.5129510" lon="3.2819850">
        <ele>52.6</ele>
        <time>2021-06-20T13:39:14Z</time>
      </trkpt>
      <trkpt lat="39.5128550" lon="3.2818780">
        <ele>53.3</ele>
        <time>2021-06-20T13:39:16Z</time>
      </trkpt>
      <trkpt lat="39.5126170" lon="3.2816020">
        <ele>55.4</ele>
        <time>2021-06-20T13:39:22Z</time>
      </trkpt>
      <trkpt lat="39.5125590" lon="3.2815270">
        <ele>55.9</ele>
        <time>2021-06-20T13:39:24Z</time>
      </trkpt>
      <trkpt lat="39.5124920" lon="3.2814020">
        <ele>56.5</ele>
        <time>2021-06-20T13:39:27Z</time>
      </trkpt>
      <trkpt lat="39.5123950" lon="3.2811000">
        <ele>57.9</ele>
        <time>2021-06-20T13:39:34Z</time>
      </trkpt>
      <trkpt lat="39.5123660" lon="3.2807870">
        <ele>59.3</ele>
        <time>2021-06-20T13:39:41Z</time>
      </trkpt>
      <trkpt lat="39.5123560" lon="3.2806920">
        <ele>59.7</ele>
        <time>2021-06-20T13:39:43Z</time>
      </trkpt>
      <trkpt lat="39.5123560" lon="3.2806440">
        <ele>59.9</ele>
        <time>2021-06-20T13:39:44Z</time>
      </trkpt>
      <trkpt lat="39.5123580" lon="3.2805980">
        <ele>60.0</ele>
        <time>2021-06-20T13:39:45Z</time>
      </trkpt>
      <trkpt lat="39.5123600" lon="3.2805510">
        <ele>60.2</ele>
        <time>2021-06-20T13:39:46Z</time>
      </trkpt>
      <trkpt lat="39.5123610" lon="3.2804540">
        <ele>60.5</ele>
        <time>2021-06-20T13:39:48Z</time>
      </trkpt>
      <trkpt lat="39.5123700" lon="3.2803030">
        <ele>60.9</ele>
        <time>2021-06-20T13:39:51Z</time>
      </trkpt>
      <trkpt lat="39.5123770" lon="3.2802530">
        <ele>61.1</ele>
        <time>2021-06-20T13:39:52Z</time>
      </trkpt>
      <trkpt lat="39.5124390" lon="3.2798960">
        <ele>61.8</ele>
        <time>2021-06-20T13:39:59Z</time>
      </trkpt>
      <trkpt lat="39.5125270" lon="3.2794350">
        <ele>62.6</ele>
        <time>2021-06-20T13:40:08Z</time>
      </trkpt>
      <trkpt lat="39.5126130" lon="3.2789770">
        <ele>63.2</ele>
        <time>2021-06-20T13:40:17Z</time>
      </trkpt>
      <trkpt lat="39.5126290" lon="3.2785730">
        <ele>63.7</ele>
        <time>2021-06-20T13:40:25Z</time>
      </trkpt>
      <trkpt lat="39.5125360" lon="3.2781940">
        <ele>63.6</ele>
        <time>2021-06-20T13:40:32Z</time>
      </trkpt>
      <trkpt lat="39.5123430" lon="3.2778090">
        <ele>63.2</ele>
        <time>2021-06-20T13:40:39Z</time>
      </trkpt>
      <trkpt lat="39.5120810" lon="3.2775140">
        <ele>62.7</ele>
        <time>2021-06-20T13:40:45Z</time>
      </trkpt>
      <trkpt lat="39.5118030" lon="3.2772510">
        <ele>62.0</ele>
        <time>2021-06-20T13:40:50Z</time>
      </trkpt>
      <trkpt lat="39.5113410" lon="3.2768460">
        <ele>61.4</ele>
        <time>2021-06-20T13:40:58Z</time>
      </trkpt>
      <trkpt lat="39.5110620" lon="3.2765940">
        <ele>61.7</ele>
        <time>2021-06-20T13:41:03Z</time>
      </trkpt>
      <trkpt lat="39.5107920" lon="3.2763520">
        <ele>61.8</ele>
        <time>2021-06-20T13:41:08Z</time>
      </trkpt>
      <trkpt lat="39.5104000" lon="3.2759720">
        <ele>61.2</ele>
        <time>2021-06-20T13:41:16Z</time>
      </trkpt>
      <trkpt lat="39.5100080" lon="3.2754280">
        <ele>60.9</ele>
        <time>2021-06-20T13:41:25Z</time>
      </trkpt>
      <trkpt lat="39.5098810" lon="3.2752370">
        <ele>61.1</ele>
        <time>2021-06-20T13:41:28Z</time>
      </trkpt>
      <trkpt lat="39.5095740" lon="3.2748310">
        <ele>62.1</ele>
        <time>2021-06-20T13:41:35Z</time>
      </trkpt>
      <trkpt lat="39.5094930" lon="3.2747270">
        <ele>62.4</ele>
        <time>2021-06-20T13:41:37Z</time>
      </trkpt>
      <trkpt lat="39.5093850" lon="3.2745860">
        <ele>62.7</ele>
        <time>2021-06-20T13:41:40Z</time>
      </trkpt>
      <trkpt lat="39.5093510" lon="3.2745420">
        <ele>62.8</ele>
        <time>2021-06-20T13:41:41Z</time>
      </trkpt>
      <trkpt lat="39.5090900" lon="3.2742040">
        <ele>63.8</ele>
        <time>2021-06-20T13:41:49Z</time>
      </trkpt>
      <trkpt lat="39.5089020" lon="3.2739920">
        <ele>64.6</ele>
        <time>2021-06-20T13:41:54Z</time>
      </trkpt>
      <trkpt lat="39.5088320" lon="3.2739100">
        <ele>64.8</ele>
        <time>2021-06-20T13:41:56Z</time>
      </trkpt>
      <trkpt lat="39.5086820" lon="3.2737340">
        <ele>65.2</ele>
        <time>2021-06-20T13:42:00Z</time>
      </trkpt>
      <trkpt lat="39.5084790" lon="3.2735100">
        <ele>65.5</ele>
        <time>2021-06-20T13:42:05Z</time>
      </trkpt>
      <trkpt lat="39.5080630" lon="3.2730740">
        <ele>65.8</ele>
        <time>2021-06-20T13:42:14Z</time>
      </trkpt>
      <trkpt lat="39.5076580" lon="3.2726600">
        <ele>67.4</ele>
        <time>2021-06-20T13:42:23Z</time>
      </trkpt>
      <trkpt lat="39.5075800" lon="3.2725760">
        <ele>67.7</ele>
        <time>2021-06-20T13:42:25Z</time>
      </trkpt>
      <trkpt lat="39.5074160" lon="3.2724160">
        <ele>68.3</ele>
        <time>2021-06-20T13:42:29Z</time>
      </trkpt>
      <trkpt lat="39.5070250" lon="3.2720380">
        <ele>69.5</ele>
        <time>2021-06-20T13:42:38Z</time>
      </trkpt>
      <trkpt lat="39.5066380" lon="3.2716750">
        <ele>70.4</ele>
        <time>2021-06-20T13:42:47Z</time>
      </trkpt>
      <trkpt lat="39.5062870" lon="3.2713400">
        <ele>71.2</ele>
        <time>2021-06-20T13:42:55Z</time>
      </trkpt>
      <trkpt lat="39.5061590" lon="3.2712120">
        <ele>71.4</ele>
        <time>2021-06-20T13:42:58Z</time>
      </trkpt>
      <trkpt lat="39.5060260" lon="3.2710890">
        <ele>71.5</ele>
        <time>2021-06-20T13:43:01Z</time>
      </trkpt>
      <trkpt lat="39.5059380" lon="3.2710020">
        <ele>71.6</ele>
        <time>2021-06-20T13:43:03Z</time>
      </trkpt>
      <trkpt lat="39.5054900" lon="3.2705720">
        <ele>72.1</ele>
        <time>2021-06-20T13:43:13Z</time>
      </trkpt>
      <trkpt lat="39.5054450" lon="3.2705300">
        <ele>72.2</ele>
        <time>2021-06-20T13:43:14Z</time>
      </trkpt>
      <trkpt lat="39.5050000" lon="3.2701030">
        <ele>72.6</ele>
        <time>2021-06-20T13:43:24Z</time>
      </trkpt>
      <trkpt lat="39.5045780" lon="3.2696990">
        <ele>72.5</ele>
        <time>2021-06-20T13:43:33Z</time>
      </trkpt>
      <trkpt lat="39.5045290" lon="3.2696600">
        <ele>72.5</ele>
        <time>2021-06-20T13:43:34Z</time>
      </trkpt>
      <trkpt lat="39.5044180" lon="3.2696050">
        <ele>72.3</ele>
        <time>2021-06-20T13:43:36Z</time>
      </trkpt>
      <trkpt lat="39.5043550" lon="3.2695920">
        <ele>72.1</ele>
        <time>2021-06-20T13:43:37Z</time>
      </trkpt>
      <trkpt lat="39.5039420" lon="3.2696170">
        <ele>70.6</ele>
        <time>2021-06-20T13:43:43Z</time>
      </trkpt>
      <trkpt lat="39.5034530" lon="3.2697080">
        <ele>67.8</ele>
        <time>2021-06-20T13:43:49Z</time>
      </trkpt>
      <trkpt lat="39.5028820" lon="3.2698000">
        <ele>65.2</ele>
        <time>2021-06-20T13:43:55Z</time>
      </trkpt>
      <trkpt lat="39.5027640" lon="3.2698170">
        <ele>64.7</ele>
        <time>2021-06-20T13:43:56Z</time>
      </trkpt>
      <trkpt lat="39.5024720" lon="3.2698620">
        <ele>63.6</ele>
        <time>2021-06-20T13:43:59Z</time>
      </trkpt>
      <trkpt lat="39.5022760" lon="3.2699030">
        <ele>62.8</ele>
        <time>2021-06-20T13:44:01Z</time>
      </trkpt>
      <trkpt lat="39.5021800" lon="3.2699210">
        <ele>62.4</ele>
        <time>2021-06-20T13:44:02Z</time>
      </trkpt>
      <trkpt lat="39.5020820" lon="3.2699420">
        <ele>62.0</ele>
        <time>2021-06-20T13:44:03Z</time>
      </trkpt>
      <trkpt lat="39.5016850" lon="3.2700270">
        <ele>60.8</ele>
        <time>2021-06-20T13:44:07Z</time>
      </trkpt>
      <trkpt lat="39.5013850" lon="3.2700500">
        <ele>59.7</ele>
        <time>2021-06-20T13:44:10Z</time>
      </trkpt>
      <trkpt lat="39.5009030" lon="3.2700130">
        <ele>58.3</ele>
        <time>2021-06-20T13:44:15Z</time>
      </trkpt>
      <trkpt lat="39.5008060" lon="3.2700050">
        <ele>58.1</ele>
        <time>2021-06-20T13:44:16Z</time>
      </trkpt>
      <trkpt lat="39.5006120" lon="3.2699790">
        <ele>57.5</ele>
        <time>2021-06-20T13:44:18Z</time>
      </trkpt>
      <trkpt lat="39.5004140" lon="3.2699430">
        <ele>56.9</ele>
        <time>2021-06-20T13:44:20Z</time>
      </trkpt>
      <trkpt lat="39.5001270" lon="3.2698520">
        <ele>56.1</ele>
        <time>2021-06-20T13:44:23Z</time>
      </trkpt>
      <trkpt lat="39.4997760" lon="3.2697230">
        <ele>54.6</ele>
        <time>2021-06-20T13:44:27Z</time>
      </trkpt>
      <trkpt lat="39.4996850" lon="3.2697150">
        <ele>54.2</ele>
        <time>2021-06-20T13:44:28Z</time>
      </trkpt>
      <trkpt lat="39.4991160" lon="3.2697680">
        <ele>51.2</ele>
        <time>2021-06-20T13:44:34Z</time>
      </trkpt>
      <trkpt lat="39.4986160" lon="3.2698950">
        <ele>47.6</ele>
        <time>2021-06-20T13:44:39Z</time>
      </trkpt>
      <trkpt lat="39.4985160" lon="3.2699490">
        <ele>46.8</ele>
        <time>2021-06-20T13:44:40Z</time>
      </trkpt>
      <trkpt lat="39.4979280" lon="3.2702830">
        <ele>41.8</ele>
        <time>2021-06-20T13:44:46Z</time>
      </trkpt>
      <trkpt lat="39.4977110" lon="3.2702830">
        <ele>40.0</ele>
        <time>2021-06-20T13:44:48Z</time>
      </trkpt>
      <trkpt lat="39.4976040" lon="3.2702500">
        <ele>39.0</ele>
        <time>2021-06-20T13:44:49Z</time>
      </trkpt>
      <trkpt lat="39.4971950" lon="3.2700820">
        <ele>35.2</ele>
        <time>2021-06-20T13:44:53Z</time>
      </trkpt>
      <trkpt lat="39.4970990" lon="3.2700170">
        <ele>35.0</ele>
        <time>2021-06-20T13:44:54Z</time>
      </trkpt>
      <trkpt lat="39.4970110" lon="3.2699320">
        <ele>34.7</ele>
        <time>2021-06-20T13:44:55Z</time>
      </trkpt>
      <trkpt lat="39.4968700" lon="3.2697230">
        <ele>33.6</ele>
        <time>2021-06-20T13:44:57Z</time>
      </trkpt>
      <trkpt lat="39.4965920" lon="3.2692270">
        <ele>32.2</ele>
        <time>2021-06-20T13:45:02Z</time>
      </trkpt>
      <trkpt lat="39.4962590" lon="3.2686150">
        <ele>31.5</ele>
        <time>2021-06-20T13:45:09Z</time>
      </trkpt>
      <trkpt lat="39.4962170" lon="3.2685330">
        <ele>31.4</ele>
        <time>2021-06-20T13:45:10Z</time>
      </trkpt>
      <trkpt lat="39.4961300" lon="3.2683680">
        <ele>31.4</ele>
        <time>2021-06-20T13:45:12Z</time>
      </trkpt>
      <trkpt lat="39.4959350" lon="3.2679900">
        <ele>31.7</ele>
        <time>2021-06-20T13:45:17Z</time>
      </trkpt>
      <trkpt lat="39.4957960" lon="3.2677140">
        <ele>32.1</ele>
        <time>2021-06-20T13:45:21Z</time>
      </trkpt>
      <trkpt lat="39.4957300" lon="3.2675860">
        <ele>32.3</ele>
        <time>2021-06-20T13:45:23Z</time>
      </trkpt>
      <trkpt lat="39.4956720" lon="3.2674670">
        <ele>32.6</ele>
        <time>2021-06-20T13:45:25Z</time>
      </trkpt>
      <trkpt lat="39.4955990" lon="3.2673030">
        <ele>33.2</ele>
        <time>2021-06-20T13:45:28Z</time>
      </trkpt>
      <trkpt lat="39.4955480" lon="3.2671510">
        <ele>33.7</ele>
        <time>2021-06-20T13:45:31Z</time>
      </trkpt>
      <trkpt lat="39.4954890" lon="3.2669540">
        <ele>34.3</ele>
        <time>2021-06-20T13:45:35Z</time>
      </trkpt>
      <trkpt lat="39.4954200" lon="3.2666690">
        <ele>35.1</ele>
        <time>2021-06-20T13:45:41Z</time>
      </trkpt>
      <trkpt lat="39.4953610" lon="3.2664760">
        <ele>35.9</ele>
        <time>2021-06-20T13:45:45Z</time>
      </trkpt>
      <trkpt lat="39.4953360" lon="3.2663750">
        <ele>36.4</ele>
        <time>2021-06-20T13:45:47Z</time>
      </trkpt>
      <trkpt lat="39.4952190" lon="3.2660290">
        <ele>38.1</ele>
        <time>2021-06-20T13:45:55Z</time>
      </trkpt>
      <trkpt lat="39.4950930" lon="3.2657690">
        <ele>39.7</ele>
        <time>2021-06-20T13:46:02Z</time>
      </trkpt>
      <trkpt lat="39.4950160" lon="3.2656450">
        <ele>40.6</ele>
        <time>2021-06-20T13:46:06Z</time>
      </trkpt>
      <trkpt lat="39.4949600" lon="3.2655750">
        <ele>41.2</ele>
        <time>2021-06-20T13:46:08Z</time>
      </trkpt>
      <trkpt lat="39.4949110" lon="3.2655090">
        <ele>41.7</ele>
        <time>2021-06-20T13:46:10Z</time>
      </trkpt>
      <trkpt lat="39.4948640" lon="3.2654570">
        <ele>42.2</ele>
        <time>2021-06-20T13:46:12Z</time>
      </trkpt>
      <trkpt lat="39.4947370" lon="3.2653300">
        <ele>43.4</ele>
        <time>2021-06-20T13:46:17Z</time>
      </trkpt>
      <trkpt lat="39.4945720" lon="3.2652120">
        <ele>44.8</ele>
        <time>2021-06-20T13:46:23Z</time>
      </trkpt>
      <trkpt lat="39.4944100" lon="3.2651730">
        <ele>46.0</ele>
        <time>2021-06-20T13:46:28Z</time>
      </trkpt>
      <trkpt lat="39.4943520" lon="3.2651590">
        <ele>46.4</ele>
        <time>2021-06-20T13:46:30Z</time>
      </trkpt>
      <trkpt lat="39.4941130" lon="3.2651180">
        <ele>48.3</ele>
        <time>2021-06-20T13:46:38Z</time>
      </trkpt>
      <trkpt lat="39.4939640" lon="3.2651000">
        <ele>49.5</ele>
        <time>2021-06-20T13:46:43Z</time>
      </trkpt>
      <trkpt lat="39.4938130" lon="3.2650640">
        <ele>50.6</ele>
        <time>2021-06-20T13:46:48Z</time>
      </trkpt>
      <trkpt lat="39.4937830" lon="3.2650570">
        <ele>50.8</ele>
        <time>2021-06-20T13:46:49Z</time>
      </trkpt>
      <trkpt lat="39.4937540" lon="3.2650530">
        <ele>51.0</ele>
        <time>2021-06-20T13:46:50Z</time>
      </trkpt>
      <trkpt lat="39.4937210" lon="3.2650460">
        <ele>51.3</ele>
        <time>2021-06-20T13:46:51Z</time>
      </trkpt>
      <trkpt lat="39.4934950" lon="3.2649680">
        <ele>52.9</ele>
        <time>2021-06-20T13:46:58Z</time>
      </trkpt>
      <trkpt lat="39.4934360" lon="3.2649500">
        <ele>53.3</ele>
        <time>2021-06-20T13:47:00Z</time>
      </trkpt>
      <trkpt lat="39.4933700" lon="3.2649210">
        <ele>53.7</ele>
        <time>2021-06-20T13:47:02Z</time>
      </trkpt>
      <trkpt lat="39.4933400" lon="3.2649110">
        <ele>53.8</ele>
        <time>2021-06-20T13:47:03Z</time>
      </trkpt>
      <trkpt lat="39.4931150" lon="3.2647600">
        <ele>55.2</ele>
        <time>2021-06-20T13:47:10Z</time>
      </trkpt>
      <trkpt lat="39.4929770" lon="3.2646130">
        <ele>56.1</ele>
        <time>2021-06-20T13:47:15Z</time>
      </trkpt>
      <trkpt lat="39.4929010" lon="3.2645140">
        <ele>56.6</ele>
        <time>2021-06-20T13:47:18Z</time>
      </trkpt>
      <trkpt lat="39.4928760" lon="3.2644800">
        <ele>56.8</ele>
        <time>2021-06-20T13:47:19Z</time>
      </trkpt>
      <trkpt lat="39.4928530" lon="3.2644410">
        <ele>57.0</ele>
        <time>2021-06-20T13:47:20Z</time>
      </trkpt>
      <trkpt lat="39.4928330" lon="3.2644020">
        <ele>57.1</ele>
        <time>2021-06-20T13:47:21Z</time>
      </trkpt>
      <trkpt lat="39.4928110" lon="3.2643680">
        <ele>57.3</ele>
        <time>2021-06-20T13:47:22Z</time>
      </trkpt>
      <trkpt lat="39.4927620" lon="3.2643010">
        <ele>57.6</ele>
        <time>2021-06-20T13:47:24Z</time>
      </trkpt>
      <trkpt lat="39.4927150" lon="3.2642310">
        <ele>57.9</ele>
        <time>2021-06-20T13:47:26Z</time>
      </trkpt>
      <trkpt lat="39.4925890" lon="3.2640080">
        <ele>58.9</ele>
        <time>2021-06-20T13:47:32Z</time>
      </trkpt>
      <trkpt lat="39.4924920" lon="3.2638170">
        <ele>59.6</ele>
        <time>2021-06-20T13:47:37Z</time>
      </trkpt>
      <trkpt lat="39.4924530" lon="3.2637450">
        <ele>59.8</ele>
        <time>2021-06-20T13:47:39Z</time>
      </trkpt>
      <trkpt lat="39.4924200" lon="3.2636200">
        <ele>60.2</ele>
        <time>2021-06-20T13:47:42Z</time>
      </trkpt>
      <trkpt lat="39.4923910" lon="3.2634850">
        <ele>60.6</ele>
        <time>2021-06-20T13:47:45Z</time>
      </trkpt>
      <trkpt lat="39.4922970" lon="3.2632150">
        <ele>61.2</ele>
        <time>2021-06-20T13:47:51Z</time>
      </trkpt>
      <trkpt lat="39.4921950" lon="3.2628470">
        <ele>62.4</ele>
        <time>2021-06-20T13:47:59Z</time>
      </trkpt>
      <trkpt lat="39.4921130" lon="3.2625350">
        <ele>63.7</ele>
        <time>2021-06-20T13:48:06Z</time>
      </trkpt>
      <trkpt lat="39.4920260" lon="3.2622840">
        <ele>65.0</ele>
        <time>2021-06-20T13:48:12Z</time>
      </trkpt>
      <trkpt lat="39.4919870" lon="3.2621680">
        <ele>65.6</ele>
        <time>2021-06-20T13:48:15Z</time>
      </trkpt>
      <trkpt lat="39.4918810" lon="3.2619480">
        <ele>66.7</ele>
        <time>2021-06-20T13:48:21Z</time>
      </trkpt>
      <trkpt lat="39.4918320" lon="3.2618880">
        <ele>67.1</ele>
        <time>2021-06-20T13:48:23Z</time>
      </trkpt>
      <trkpt lat="39.4917600" lon="3.2618090">
        <ele>67.7</ele>
        <time>2021-06-20T13:48:26Z</time>
      </trkpt>
      <trkpt lat="39.4916340" lon="3.2616940">
        <ele>68.7</ele>
        <time>2021-06-20T13:48:31Z</time>
      </trkpt>
      <trkpt lat="39.4914210" lon="3.2615000">
        <ele>70.4</ele>
        <time>2021-06-20T13:48:39Z</time>
      </trkpt>
      <trkpt lat="39.4911920" lon="3.2612690">
        <ele>72.4</ele>
        <time>2021-06-20T13:48:48Z</time>
      </trkpt>
      <trkpt lat="39.4910760" lon="3.2610880">
        <ele>73.7</ele>
        <time>2021-06-20T13:48:54Z</time>
      </trkpt>
      <trkpt lat="39.4909990" lon="3.2609370">
        <ele>74.7</ele>
        <time>2021-06-20T13:48:59Z</time>
      </trkpt>
      <trkpt lat="39.4909190" lon="3.2607030">
        <ele>75.9</ele>
        <time>2021-06-20T13:49:05Z</time>
      </trkpt>
      <trkpt lat="39.4909050" lon="3.2606180">
        <ele>76.3</ele>
        <time>2021-06-20T13:49:07Z</time>
      </trkpt>
      <trkpt lat="39.4908920" lon="3.2605320">
        <ele>76.6</ele>
        <time>2021-06-20T13:49:09Z</time>
      </trkpt>
      <trkpt lat="39.4908840" lon="3.2604380">
        <ele>76.9</ele>
        <time>2021-06-20T13:49:11Z</time>
      </trkpt>
      <trkpt lat="39.4908760" lon="3.2602400">
        <ele>77.4</ele>
        <time>2021-06-20T13:49:15Z</time>
      </trkpt>
      <trkpt lat="39.4908830" lon="3.2601340">
        <ele>77.6</ele>
        <time>2021-06-20T13:49:17Z</time>
      </trkpt>
      <trkpt lat="39.4909050" lon="3.2599110">
        <ele>78.0</ele>
        <time>2021-06-20T13:49:21Z</time>
      </trkpt>
      <trkpt lat="39.4909220" lon="3.2598120">
        <ele>78.2</ele>
        <time>2021-06-20T13:49:23Z</time>
      </trkpt>
      <trkpt lat="39.4910730" lon="3.2594460">
        <ele>79.1</ele>
        <time>2021-06-20T13:49:30Z</time>
      </trkpt>
      <trkpt lat="39.4912080" lon="3.2591400">
        <ele>80.4</ele>
        <time>2021-06-20T13:49:37Z</time>
      </trkpt>
      <trkpt lat="39.4913210" lon="3.2588600">
        <ele>82.0</ele>
        <time>2021-06-20T13:49:44Z</time>
      </trkpt>
      <trkpt lat="39.4914380" lon="3.2585880">
        <ele>83.6</ele>
        <time>2021-06-20T13:49:51Z</time>
      </trkpt>
      <trkpt lat="39.4915730" lon="3.2582790">
        <ele>85.4</ele>
        <time>2021-06-20T13:49:59Z</time>
      </trkpt>
      <trkpt lat="39.4916370" lon="3.2579330">
        <ele>87.0</ele>
        <time>2021-06-20T13:50:07Z</time>
      </trkpt>
      <trkpt lat="39.4916760" lon="3.2575610">
        <ele>88.9</ele>
        <time>2021-06-20T13:50:16Z</time>
      </trkpt>
      <trkpt lat="39.4916780" lon="3.2572740">
        <ele>90.4</ele>
        <time>2021-06-20T13:50:23Z</time>
      </trkpt>
      <trkpt lat="39.4915980" lon="3.2569260">
        <ele>92.2</ele>
        <time>2021-06-20T13:50:32Z</time>
      </trkpt>
      <trkpt lat="39.4914920" lon="3.2566820">
        <ele>93.7</ele>
        <time>2021-06-20T13:50:39Z</time>
      </trkpt>
      <trkpt lat="39.4913290" lon="3.2563760">
        <ele>95.6</ele>
        <time>2021-06-20T13:50:48Z</time>
      </trkpt>
      <trkpt lat="39.4911430" lon="3.2560470">
        <ele>97.7</ele>
        <time>2021-06-20T13:50:58Z</time>
      </trkpt>
      <trkpt lat="39.4909870" lon="3.2557760">
        <ele>99.6</ele>
        <time>2021-06-20T13:51:07Z</time>
      </trkpt>
      <trkpt lat="39.4908300" lon="3.2554960">
        <ele>101.2</ele>
        <time>2021-06-20T13:51:16Z</time>
      </trkpt>
      <trkpt lat="39.4907080" lon="3.2552760">
        <ele>102.5</ele>
        <time>2021-06-20T13:51:23Z</time>
      </trkpt>
      <trkpt lat="39.4906800" lon="3.2552230">
        <ele>102.8</ele>
        <time>2021-06-20T13:51:25Z</time>
      </trkpt>
      <trkpt lat="39.4905480" lon="3.2550010">
        <ele>104.0</ele>
        <time>2021-06-20T13:51:32Z</time>
      </trkpt>
      <trkpt lat="39.4903690" lon="3.2546920">
        <ele>105.9</ele>
        <time>2021-06-20T13:51:42Z</time>
      </trkpt>
      <trkpt lat="39.4901960" lon="3.2543880">
        <ele>108.1</ele>
        <time>2021-06-20T13:51:52Z</time>
      </trkpt>
      <trkpt lat="39.4900690" lon="3.2541530">
        <ele>109.8</ele>
        <time>2021-06-20T13:51:59Z</time>
      </trkpt>
      <trkpt lat="39.4899340" lon="3.2538880">
        <ele>111.5</ele>
        <time>2021-06-20T13:52:07Z</time>
      </trkpt>
      <trkpt lat="39.4897690" lon="3.2535600">
        <ele>113.4</ele>
        <time>2021-06-20T13:52:16Z</time>
      </trkpt>
      <trkpt lat="39.4896250" lon="3.2532620">
        <ele>115.1</ele>
        <time>2021-06-20T13:52:24Z</time>
      </trkpt>
      <trkpt lat="39.4894690" lon="3.2529310">
        <ele>117.2</ele>
        <time>2021-06-20T13:52:33Z</time>
      </trkpt>
      <trkpt lat="39.4892900" lon="3.2525780">
        <ele>119.8</ele>
        <time>2021-06-20T13:52:43Z</time>
      </trkpt>
      <trkpt lat="39.4891380" lon="3.2522580">
        <ele>122.2</ele>
        <time>2021-06-20T13:52:52Z</time>
      </trkpt>
      <trkpt lat="39.4889830" lon="3.2520170">
        <ele>123.6</ele>
        <time>2021-06-20T13:52:59Z</time>
      </trkpt>
      <trkpt lat="39.4887400" lon="3.2517540">
        <ele>124.3</ele>
        <time>2021-06-20T13:53:07Z</time>
      </trkpt>
      <trkpt lat="39.4884540" lon="3.2514670">
        <ele>124.2</ele>
        <time>2021-06-20T13:53:15Z</time>
      </trkpt>
      <trkpt lat="39.4883820" lon="3.2513970">
        <ele>124.1</ele>
        <time>2021-06-20T13:53:17Z</time>
      </trkpt>
      <trkpt lat="39.4881640" lon="3.2511750">
        <ele>123.8</ele>
        <time>2021-06-20T13:53:22Z</time>
      </trkpt>
      <trkpt lat="39.4878410" lon="3.2508410">
        <ele>123.6</ele>
        <time>2021-06-20T13:53:29Z</time>
      </trkpt>
      <trkpt lat="39.4878040" lon="3.2507980">
        <ele>123.6</ele>
        <time>2021-06-20T13:53:30Z</time>
      </trkpt>
      <trkpt lat="39.4876980" lon="3.2506810">
        <ele>123.7</ele>
        <time>2021-06-20T13:53:33Z</time>
      </trkpt>
      <trkpt lat="39.4876090" lon="3.2505780">
        <ele>123.8</ele>
        <time>2021-06-20T13:53:36Z</time>
      </trkpt>
      <trkpt lat="39.4874460" lon="3.2504810">
        <ele>123.9</ele>
        <time>2021-06-20T13:53:40Z</time>
      </trkpt>
      <trkpt lat="39.4874000" lon="3.2504780">
        <ele>123.8</ele>
        <time>2021-06-20T13:53:41Z</time>
      </trkpt>
      <trkpt lat="39.4873630" lon="3.2504840">
        <ele>123.7</ele>
        <time>2021-06-20T13:53:42Z</time>
      </trkpt>
      <trkpt lat="39.4872660" lon="3.2505230">
        <ele>123.4</ele>
        <time>2021-06-20T13:53:44Z</time>
      </trkpt>
      <trkpt lat="39.4871790" lon="3.2505810">
        <ele>123.0</ele>
        <time>2021-06-20T13:53:46Z</time>
      </trkpt>
      <trkpt lat="39.4871040" lon="3.2506410">
        <ele>122.6</ele>
        <time>2021-06-20T13:53:48Z</time>
      </trkpt>
      <trkpt lat="39.4869320" lon="3.2508040">
        <ele>121.6</ele>
        <time>2021-06-20T13:53:52Z</time>
      </trkpt>
      <trkpt lat="39.4866010" lon="3.2510700">
        <ele>119.3</ele>
        <time>2021-06-20T13:54:00Z</time>
      </trkpt>
      <trkpt lat="39.4864790" lon="3.2511670">
        <ele>118.4</ele>
        <time>2021-06-20T13:54:04Z</time>
      </trkpt>
      <trkpt lat="39.4864520" lon="3.2511990">
        <ele>118.3</ele>
        <time>2021-06-20T13:54:05Z</time>
      </trkpt>
      <trkpt lat="39.4864260" lon="3.2512200">
        <ele>118.1</ele>
        <time>2021-06-20T13:54:07Z</time>
      </trkpt>
      <trkpt lat="39.4864220" lon="3.2512230">
        <ele>118.1</ele>
        <time>2021-06-20T13:54:08Z</time>
      </trkpt>
      <trkpt lat="39.4864220" lon="3.2512230">
        <ele>118.1</ele>
        <time>2021-06-20T13:54:11Z</time>
      </trkpt>
      <trkpt lat="39.4864220" lon="3.2512230">
        <ele>118.1</ele>
        <time>2021-06-20T13:54:13Z</time>
      </trkpt>
      <trkpt lat="39.4864060" lon="3.2512120">
        <ele>117.9</ele>
        <time>2021-06-20T13:54:15Z</time>
      </trkpt>
      <trkpt lat="39.4863870" lon="3.2511990">
        <ele>117.8</ele>
        <time>2021-06-20T13:54:16Z</time>
      </trkpt>
      <trkpt lat="39.4862930" lon="3.2511710">
        <ele>117.2</ele>
        <time>2021-06-20T13:54:19Z</time>
      </trkpt>
      <trkpt lat="39.4861860" lon="3.2511570">
        <ele>116.7</ele>
        <time>2021-06-20T13:54:21Z</time>
      </trkpt>
      <trkpt lat="39.4860740" lon="3.2511660">
        <ele>116.1</ele>
        <time>2021-06-20T13:54:23Z</time>
      </trkpt>
      <trkpt lat="39.4856750" lon="3.2511870">
        <ele>114.2</ele>
        <time>2021-06-20T13:54:29Z</time>
      </trkpt>
      <trkpt lat="39.4853070" lon="3.2511940">
        <ele>112.1</ele>
        <time>2021-06-20T13:54:34Z</time>
      </trkpt>
      <trkpt lat="39.4851480" lon="3.2511960">
        <ele>110.9</ele>
        <time>2021-06-20T13:54:36Z</time>
      </trkpt>
      <trkpt lat="39.4849720" lon="3.2512040">
        <ele>109.3</ele>
        <time>2021-06-20T13:54:38Z</time>
      </trkpt>
      <trkpt lat="39.4848160" lon="3.2512710">
        <ele>107.4</ele>
        <time>2021-06-20T13:54:40Z</time>
      </trkpt>
      <trkpt lat="39.4846510" lon="3.2514500">
        <ele>105.0</ele>
        <time>2021-06-20T13:54:42Z</time>
      </trkpt>
      <trkpt lat="39.4845730" lon="3.2515660">
        <ele>103.7</ele>
        <time>2021-06-20T13:54:43Z</time>
      </trkpt>
      <trkpt lat="39.4842610" lon="3.2520580">
        <ele>100.1</ele>
        <time>2021-06-20T13:54:47Z</time>
      </trkpt>
      <trkpt lat="39.4840860" lon="3.2522450">
        <ele>98.8</ele>
        <time>2021-06-20T13:54:49Z</time>
      </trkpt>
      <trkpt lat="39.4839990" lon="3.2523010">
        <ele>98.3</ele>
        <time>2021-06-20T13:54:50Z</time>
      </trkpt>
      <trkpt lat="39.4837330" lon="3.2523880">
        <ele>96.5</ele>
        <time>2021-06-20T13:54:53Z</time>
      </trkpt>
      <trkpt lat="39.4836490" lon="3.2523910">
        <ele>95.8</ele>
        <time>2021-06-20T13:54:54Z</time>
      </trkpt>
      <trkpt lat="39.4835010" lon="3.2523700">
        <ele>94.7</ele>
        <time>2021-06-20T13:54:56Z</time>
      </trkpt>
      <trkpt lat="39.4833520" lon="3.2522950">
        <ele>93.4</ele>
        <time>2021-06-20T13:54:58Z</time>
      </trkpt>
      <trkpt lat="39.4832230" lon="3.2521730">
        <ele>92.3</ele>
        <time>2021-06-20T13:55:00Z</time>
      </trkpt>
      <trkpt lat="39.4831010" lon="3.2520230">
        <ele>91.4</ele>
        <time>2021-06-20T13:55:02Z</time>
      </trkpt>
      <trkpt lat="39.4829780" lon="3.2518620">
        <ele>90.6</ele>
        <time>2021-06-20T13:55:04Z</time>
      </trkpt>
      <trkpt lat="39.4827790" lon="3.2516410">
        <ele>89.4</ele>
        <time>2021-06-20T13:55:08Z</time>
      </trkpt>
      <trkpt lat="39.4826250" lon="3.2515220">
        <ele>88.7</ele>
        <time>2021-06-20T13:55:11Z</time>
      </trkpt>
      <trkpt lat="39.4825570" lon="3.2514790">
        <ele>88.3</ele>
        <time>2021-06-20T13:55:13Z</time>
      </trkpt>
      <trkpt lat="39.4824920" lon="3.2514440">
        <ele>88.1</ele>
        <time>2021-06-20T13:55:16Z</time>
      </trkpt>
      <trkpt lat="39.4824880" lon="3.2514410">
        <ele>88.0</ele>
        <time>2021-06-20T13:55:17Z</time>
      </trkpt>
      <trkpt lat="39.4824880" lon="3.2514410">
        <ele>88.0</ele>
        <time>2021-06-20T13:55:22Z</time>
      </trkpt>
      <trkpt lat="39.4824880" lon="3.2514450">
        <ele>88.0</ele>
        <time>2021-06-20T13:55:32Z</time>
      </trkpt>
      <trkpt lat="39.4824880" lon="3.2514450">
        <ele>88.0</ele>
        <time>2021-06-20T13:55:44Z</time>
      </trkpt>
      <trkpt lat="39.4824850" lon="3.2514460">
        <ele>88.0</ele>
        <time>2021-06-20T13:55:48Z</time>
      </trkpt>
      <trkpt lat="39.4824840" lon="3.2514480">
        <ele>88.0</ele>
        <time>2021-06-20T13:56:02Z</time>
      </trkpt>
      <trkpt lat="39.4824840" lon="3.2514480">
        <ele>88.0</ele>
        <time>2021-06-20T13:56:03Z</time>
      </trkpt>
      <trkpt lat="39.4824840" lon="3.2514480">
        <ele>88.0</ele>
        <time>2021-06-20T13:56:05Z</time>
      </trkpt>
      <trkpt lat="39.4824840" lon="3.2514480">
        <ele>88.0</ele>
        <time>2021-06-20T13:56:06Z</time>
      </trkpt>
      <trkpt lat="39.4824870" lon="3.2514500">
        <ele>88.0</ele>
        <time>2021-06-20T13:56:12Z</time>
      </trkpt>
      <trkpt lat="39.4824870" lon="3.2514500">
        <ele>88.0</ele>
        <time>2021-06-20T13:56:14Z</time>
      </trkpt>
      <trkpt lat="39.4824870" lon="3.2514500">
        <ele>88.0</ele>
        <time>2021-06-20T13:56:16Z</time>
      </trkpt>
      <trkpt lat="39.4824870" lon="3.2514500">
        <ele>88.0</ele>
        <time>2021-06-20T13:56:18Z</time>
      </trkpt>
      <trkpt lat="39.4824870" lon="3.2514500">
        <ele>88.0</ele>
        <time>2021-06-20T13:56:36Z</time>
      </trkpt>
      <trkpt lat="39.4824870" lon="3.2514510">
        <ele>88.0</ele>
        <time>2021-06-20T13:56:48Z</time>
      </trkpt>
      <trkpt lat="39.4824870" lon="3.2514510">
        <ele>88.0</ele>
        <time>2021-06-20T13:56:50Z</time>
      </trkpt>
      <trkpt lat="39.4824890" lon="3.2514560">
        <ele>88.0</ele>
        <time>2021-06-20T13:56:56Z</time>
      </trkpt>
      <trkpt lat="39.4824890" lon="3.2514560">
        <ele>88.0</ele>
        <time>2021-06-20T13:56:58Z</time>
      </trkpt>
      <trkpt lat="39.4824890" lon="3.2514560">
        <ele>88.0</ele>
        <time>2021-06-20T13:57:06Z</time>
      </trkpt>
      <trkpt lat="39.4824890" lon="3.2514560">
        <ele>88.0</ele>
        <time>2021-06-20T13:57:12Z</time>
      </trkpt>
      <trkpt lat="39.4824890" lon="3.2514560">
        <ele>88.0</ele>
        <time>2021-06-20T13:57:18Z</time>
      </trkpt>
      <trkpt lat="39.4824890" lon="3.2514560">
        <ele>88.0</ele>
        <time>2021-06-20T13:57:21Z</time>
      </trkpt>
      <trkpt lat="39.4824960" lon="3.2514440">
        <ele>87.9</ele>
        <time>2021-06-20T13:58:15Z</time>
      </trkpt>
      <trkpt lat="39.4824670" lon="3.2514400">
        <ele>87.8</ele>
        <time>2021-06-20T13:58:17Z</time>
      </trkpt>
      <trkpt lat="39.4824100" lon="3.2514220">
        <ele>87.6</ele>
        <time>2021-06-20T13:58:19Z</time>
      </trkpt>
      <trkpt lat="39.4821980" lon="3.2513260">
        <ele>86.9</ele>
        <time>2021-06-20T13:58:24Z</time>
      </trkpt>
      <trkpt lat="39.4819370" lon="3.2512020">
        <ele>86.4</ele>
        <time>2021-06-20T13:58:30Z</time>
      </trkpt>
      <trkpt lat="39.4817030" lon="3.2510130">
        <ele>86.0</ele>
        <time>2021-06-20T13:58:36Z</time>
      </trkpt>
      <trkpt lat="39.4816670" lon="3.2509710">
        <ele>85.9</ele>
        <time>2021-06-20T13:58:37Z</time>
      </trkpt>
      <trkpt lat="39.4814870" lon="3.2507330">
        <ele>86.3</ele>
        <time>2021-06-20T13:58:42Z</time>
      </trkpt>
      <trkpt lat="39.4813860" lon="3.2505840">
        <ele>86.8</ele>
        <time>2021-06-20T13:58:45Z</time>
      </trkpt>
      <trkpt lat="39.4813570" lon="3.2505430">
        <ele>86.9</ele>
        <time>2021-06-20T13:58:46Z</time>
      </trkpt>
      <trkpt lat="39.4813050" lon="3.2504610">
        <ele>87.4</ele>
        <time>2021-06-20T13:58:48Z</time>
      </trkpt>
      <trkpt lat="39.4812300" lon="3.2503440">
        <ele>88.1</ele>
        <time>2021-06-20T13:58:51Z</time>
      </trkpt>
      <trkpt lat="39.4812060" lon="3.2503070">
        <ele>88.3</ele>
        <time>2021-06-20T13:58:52Z</time>
      </trkpt>
      <trkpt lat="39.4811820" lon="3.2502770">
        <ele>88.6</ele>
        <time>2021-06-20T13:58:53Z</time>
      </trkpt>
      <trkpt lat="39.4811600" lon="3.2502520">
        <ele>88.8</ele>
        <time>2021-06-20T13:58:54Z</time>
      </trkpt>
      <trkpt lat="39.4810360" lon="3.2501230">
        <ele>89.9</ele>
        <time>2021-06-20T13:58:59Z</time>
      </trkpt>
      <trkpt lat="39.4808470" lon="3.2499420">
        <ele>91.6</ele>
        <time>2021-06-20T13:59:06Z</time>
      </trkpt>
      <trkpt lat="39.4806790" lon="3.2498420">
        <ele>93.0</ele>
        <time>2021-06-20T13:59:11Z</time>
      </trkpt>
      <trkpt lat="39.4805770" lon="3.2497990">
        <ele>93.7</ele>
        <time>2021-06-20T13:59:14Z</time>
      </trkpt>
      <trkpt lat="39.4802910" lon="3.2497300">
        <ele>95.6</ele>
        <time>2021-06-20T13:59:22Z</time>
      </trkpt>
      <trkpt lat="39.4800730" lon="3.2497010">
        <ele>97.0</ele>
        <time>2021-06-20T13:59:28Z</time>
      </trkpt>
      <trkpt lat="39.4797780" lon="3.2496730">
        <ele>98.6</ele>
        <time>2021-06-20T13:59:36Z</time>
      </trkpt>
      <trkpt lat="39.4795950" lon="3.2496660">
        <ele>99.2</ele>
        <time>2021-06-20T13:59:42Z</time>
      </trkpt>
      <trkpt lat="39.4793100" lon="3.2496290">
        <ele>99.4</ele>
        <time>2021-06-20T13:59:50Z</time>
      </trkpt>
      <trkpt lat="39.4792720" lon="3.2496240">
        <ele>99.4</ele>
        <time>2021-06-20T13:59:51Z</time>
      </trkpt>
      <trkpt lat="39.4789170" lon="3.2496000">
        <ele>98.7</ele>
        <time>2021-06-20T13:59:59Z</time>
      </trkpt>
      <trkpt lat="39.4788690" lon="3.2495950">
        <ele>98.6</ele>
        <time>2021-06-20T14:00:00Z</time>
      </trkpt>
      <trkpt lat="39.4787210" lon="3.2495780">
        <ele>98.3</ele>
        <time>2021-06-20T14:00:03Z</time>
      </trkpt>
      <trkpt lat="39.4786090" lon="3.2495660">
        <ele>98.2</ele>
        <time>2021-06-20T14:00:05Z</time>
      </trkpt>
      <trkpt lat="39.4784940" lon="3.2495560">
        <ele>98.0</ele>
        <time>2021-06-20T14:00:07Z</time>
      </trkpt>
      <trkpt lat="39.4783790" lon="3.2495490">
        <ele>97.9</ele>
        <time>2021-06-20T14:00:09Z</time>
      </trkpt>
      <trkpt lat="39.4781710" lon="3.2495320">
        <ele>97.5</ele>
        <time>2021-06-20T14:00:13Z</time>
      </trkpt>
      <trkpt lat="39.4780610" lon="3.2495220">
        <ele>97.2</ele>
        <time>2021-06-20T14:00:15Z</time>
      </trkpt>
      <trkpt lat="39.4780160" lon="3.2495230">
        <ele>97.0</ele>
        <time>2021-06-20T14:00:16Z</time>
      </trkpt>
      <trkpt lat="39.4778610" lon="3.2495120">
        <ele>96.2</ele>
        <time>2021-06-20T14:00:20Z</time>
      </trkpt>
      <trkpt lat="39.4778040" lon="3.2495050">
        <ele>95.9</ele>
        <time>2021-06-20T14:00:22Z</time>
      </trkpt>
      <trkpt lat="39.4776350" lon="3.2494730">
        <ele>94.7</ele>
        <time>2021-06-20T14:00:28Z</time>
      </trkpt>
      <trkpt lat="39.4776040" lon="3.2494570">
        <ele>94.4</ele>
        <time>2021-06-20T14:00:29Z</time>
      </trkpt>
      <trkpt lat="39.4775320" lon="3.2494260">
        <ele>93.8</ele>
        <time>2021-06-20T14:00:31Z</time>
      </trkpt>
      <trkpt lat="39.4774520" lon="3.2493810">
        <ele>93.1</ele>
        <time>2021-06-20T14:00:33Z</time>
      </trkpt>
      <trkpt lat="39.4774060" lon="3.2493530">
        <ele>92.7</ele>
        <time>2021-06-20T14:00:34Z</time>
      </trkpt>
      <trkpt lat="39.4771000" lon="3.2491830">
        <ele>90.1</ele>
        <time>2021-06-20T14:00:39Z</time>
      </trkpt>
      <trkpt lat="39.4767220" lon="3.2489660">
        <ele>88.6</ele>
        <time>2021-06-20T14:00:44Z</time>
      </trkpt>
      <trkpt lat="39.4762150" lon="3.2486850">
        <ele>88.3</ele>
        <time>2021-06-20T14:00:51Z</time>
      </trkpt>
      <trkpt lat="39.4761480" lon="3.2486480">
        <ele>88.3</ele>
        <time>2021-06-20T14:00:52Z</time>
      </trkpt>
      <trkpt lat="39.4757730" lon="3.2484320">
        <ele>88.2</ele>
        <time>2021-06-20T14:00:58Z</time>
      </trkpt>
      <trkpt lat="39.4754060" lon="3.2482240">
        <ele>87.3</ele>
        <time>2021-06-20T14:01:04Z</time>
      </trkpt>
      <trkpt lat="39.4748830" lon="3.2479250">
        <ele>85.8</ele>
        <time>2021-06-20T14:01:12Z</time>
      </trkpt>
      <trkpt lat="39.4748220" lon="3.2478920">
        <ele>85.6</ele>
        <time>2021-06-20T14:01:13Z</time>
      </trkpt>
      <trkpt lat="39.4744400" lon="3.2476380">
        <ele>84.0</ele>
        <time>2021-06-20T14:01:19Z</time>
      </trkpt>
      <trkpt lat="39.4743840" lon="3.2475680">
        <ele>83.6</ele>
        <time>2021-06-20T14:01:20Z</time>
      </trkpt>
      <trkpt lat="39.4743240" lon="3.2474710">
        <ele>83.2</ele>
        <time>2021-06-20T14:01:21Z</time>
      </trkpt>
      <trkpt lat="39.4742100" lon="3.2472120">
        <ele>82.0</ele>
        <time>2021-06-20T14:01:24Z</time>
      </trkpt>
      <trkpt lat="39.4739440" lon="3.2466140">
        <ele>78.8</ele>
        <time>2021-06-20T14:01:30Z</time>
      </trkpt>
      <trkpt lat="39.4737840" lon="3.2462810">
        <ele>77.4</ele>
        <time>2021-06-20T14:01:33Z</time>
      </trkpt>
      <trkpt lat="39.4736640" lon="3.2461310">
        <ele>77.0</ele>
        <time>2021-06-20T14:01:35Z</time>
      </trkpt>
      <trkpt lat="39.4735080" lon="3.2460250">
        <ele>76.5</ele>
        <time>2021-06-20T14:01:37Z</time>
      </trkpt>
      <trkpt lat="39.4734090" lon="3.2459940">
        <ele>76.2</ele>
        <time>2021-06-20T14:01:38Z</time>
      </trkpt>
      <trkpt lat="39.4729890" lon="3.2459550">
        <ele>74.9</ele>
        <time>2021-06-20T14:01:43Z</time>
      </trkpt>
      <trkpt lat="39.4724390" lon="3.2459140">
        <ele>73.7</ele>
        <time>2021-06-20T14:01:49Z</time>
      </trkpt>
      <trkpt lat="39.4719170" lon="3.2458790">
        <ele>72.7</ele>
        <time>2021-06-20T14:01:55Z</time>
      </trkpt>
      <trkpt lat="39.4714240" lon="3.2458400">
        <ele>71.5</ele>
        <time>2021-06-20T14:02:01Z</time>
      </trkpt>
      <trkpt lat="39.4711560" lon="3.2458130">
        <ele>70.9</ele>
        <time>2021-06-20T14:02:04Z</time>
      </trkpt>
      <trkpt lat="39.4705780" lon="3.2457670">
        <ele>69.8</ele>
        <time>2021-06-20T14:02:11Z</time>
      </trkpt>
      <trkpt lat="39.4702200" lon="3.2457380">
        <ele>69.2</ele>
        <time>2021-06-20T14:02:15Z</time>
      </trkpt>
      <trkpt lat="39.4696400" lon="3.2456840">
        <ele>67.5</ele>
        <time>2021-06-20T14:02:22Z</time>
      </trkpt>
      <trkpt lat="39.4693490" lon="3.2456550">
        <ele>66.3</ele>
        <time>2021-06-20T14:02:25Z</time>
      </trkpt>
      <trkpt lat="39.4689840" lon="3.2456270">
        <ele>64.5</ele>
        <time>2021-06-20T14:02:29Z</time>
      </trkpt>
      <trkpt lat="39.4686670" lon="3.2456010">
        <ele>62.6</ele>
        <time>2021-06-20T14:02:32Z</time>
      </trkpt>
      <trkpt lat="39.4680550" lon="3.2455480">
        <ele>58.8</ele>
        <time>2021-06-20T14:02:38Z</time>
      </trkpt>
      <trkpt lat="39.4674770" lon="3.2455040">
        <ele>56.4</ele>
        <time>2021-06-20T14:02:43Z</time>
      </trkpt>
      <trkpt lat="39.4671330" lon="3.2454740">
        <ele>55.1</ele>
        <time>2021-06-20T14:02:46Z</time>
      </trkpt>
      <trkpt lat="39.4669330" lon="3.2454560">
        <ele>54.5</ele>
        <time>2021-06-20T14:02:48Z</time>
      </trkpt>
      <trkpt lat="39.4667160" lon="3.2454360">
        <ele>53.7</ele>
        <time>2021-06-20T14:02:50Z</time>
      </trkpt>
      <trkpt lat="39.4661650" lon="3.2453910">
        <ele>52.1</ele>
        <time>2021-06-20T14:02:55Z</time>
      </trkpt>
      <trkpt lat="39.4660540" lon="3.2453790">
        <ele>51.8</ele>
        <time>2021-06-20T14:02:56Z</time>
      </trkpt>
      <trkpt lat="39.4655250" lon="3.2453090">
        <ele>50.9</ele>
        <time>2021-06-20T14:03:01Z</time>
      </trkpt>
      <trkpt lat="39.4651200" lon="3.2452260">
        <ele>50.1</ele>
        <time>2021-06-20T14:03:05Z</time>
      </trkpt>
      <trkpt lat="39.4645490" lon="3.2450070">
        <ele>49.6</ele>
        <time>2021-06-20T14:03:11Z</time>
      </trkpt>
      <trkpt lat="39.4644560" lon="3.2449650">
        <ele>49.6</ele>
        <time>2021-06-20T14:03:12Z</time>
      </trkpt>
      <trkpt lat="39.4640280" lon="3.2447590">
        <ele>49.7</ele>
        <time>2021-06-20T14:03:17Z</time>
      </trkpt>
      <trkpt lat="39.4638700" lon="3.2446850">
        <ele>50.0</ele>
        <time>2021-06-20T14:03:19Z</time>
      </trkpt>
      <trkpt lat="39.4634310" lon="3.2444720">
        <ele>50.9</ele>
        <time>2021-06-20T14:03:25Z</time>
      </trkpt>
      <trkpt lat="39.4633640" lon="3.2444410">
        <ele>51.0</ele>
        <time>2021-06-20T14:03:26Z</time>
      </trkpt>
      <trkpt lat="39.4630010" lon="3.2442740">
        <ele>52.3</ele>
        <time>2021-06-20T14:03:32Z</time>
      </trkpt>
      <trkpt lat="39.4626860" lon="3.2441320">
        <ele>54.1</ele>
        <time>2021-06-20T14:03:38Z</time>
      </trkpt>
      <trkpt lat="39.4624590" lon="3.2440270">
        <ele>55.3</ele>
        <time>2021-06-20T14:03:43Z</time>
      </trkpt>
      <trkpt lat="39.4623550" lon="3.2439780">
        <ele>55.6</ele>
        <time>2021-06-20T14:03:45Z</time>
      </trkpt>
      <trkpt lat="39.4620010" lon="3.2438080">
        <ele>55.0</ele>
        <time>2021-06-20T14:03:52Z</time>
      </trkpt>
      <trkpt lat="39.4619260" lon="3.2437720">
        <ele>54.7</ele>
        <time>2021-06-20T14:03:53Z</time>
      </trkpt>
      <trkpt lat="39.4615370" lon="3.2435050">
        <ele>53.0</ele>
        <time>2021-06-20T14:03:59Z</time>
      </trkpt>
      <trkpt lat="39.4613040" lon="3.2433390">
        <ele>52.4</ele>
        <time>2021-06-20T14:04:02Z</time>
      </trkpt>
      <trkpt lat="39.4610950" lon="3.2431830">
        <ele>52.2</ele>
        <time>2021-06-20T14:04:05Z</time>
      </trkpt>
      <trkpt lat="39.4609430" lon="3.2430680">
        <ele>52.2</ele>
        <time>2021-06-20T14:04:07Z</time>
      </trkpt>
      <trkpt lat="39.4606970" lon="3.2428770">
        <ele>52.4</ele>
        <time>2021-06-20T14:04:11Z</time>
      </trkpt>
      <trkpt lat="39.4603380" lon="3.2426040">
        <ele>52.7</ele>
        <time>2021-06-20T14:04:17Z</time>
      </trkpt>
      <trkpt lat="39.4601100" lon="3.2424480">
        <ele>52.4</ele>
        <time>2021-06-20T14:04:21Z</time>
      </trkpt>
      <trkpt lat="39.4599900" lon="3.2423620">
        <ele>52.0</ele>
        <time>2021-06-20T14:04:23Z</time>
      </trkpt>
      <trkpt lat="39.4597520" lon="3.2421820">
        <ele>50.9</ele>
        <time>2021-06-20T14:04:27Z</time>
      </trkpt>
      <trkpt lat="39.4595520" lon="3.2420360">
        <ele>50.0</ele>
        <time>2021-06-20T14:04:30Z</time>
      </trkpt>
      <trkpt lat="39.4594800" lon="3.2419860">
        <ele>49.9</ele>
        <time>2021-06-20T14:04:31Z</time>
      </trkpt>
      <trkpt lat="39.4589490" lon="3.2416040">
        <ele>50.6</ele>
        <time>2021-06-20T14:04:39Z</time>
      </trkpt>
      <trkpt lat="39.4588930" lon="3.2415660">
        <ele>50.8</ele>
        <time>2021-06-20T14:04:40Z</time>
      </trkpt>
      <trkpt lat="39.4587370" lon="3.2414460">
        <ele>51.4</ele>
        <time>2021-06-20T14:04:43Z</time>
      </trkpt>
      <trkpt lat="39.4585950" lon="3.2413450">
        <ele>51.9</ele>
        <time>2021-06-20T14:04:46Z</time>
      </trkpt>
      <trkpt lat="39.4585490" lon="3.2413110">
        <ele>52.1</ele>
        <time>2021-06-20T14:04:47Z</time>
      </trkpt>
      <trkpt lat="39.4582720" lon="3.2411070">
        <ele>53.2</ele>
        <time>2021-06-20T14:04:53Z</time>
      </trkpt>
      <trkpt lat="39.4578650" lon="3.2408100">
        <ele>54.9</ele>
        <time>2021-06-20T14:05:02Z</time>
      </trkpt>
      <trkpt lat="39.4574120" lon="3.2404850">
        <ele>56.5</ele>
        <time>2021-06-20T14:05:12Z</time>
      </trkpt>
      <trkpt lat="39.4571480" lon="3.2403220">
        <ele>57.3</ele>
        <time>2021-06-20T14:05:18Z</time>
      </trkpt>
      <trkpt lat="39.4571080" lon="3.2403100">
        <ele>57.4</ele>
        <time>2021-06-20T14:05:19Z</time>
      </trkpt>
      <trkpt lat="39.4567090" lon="3.2402120">
        <ele>57.6</ele>
        <time>2021-06-20T14:05:26Z</time>
      </trkpt>
      <trkpt lat="39.4563520" lon="3.2401550">
        <ele>58.4</ele>
        <time>2021-06-20T14:05:32Z</time>
      </trkpt>
      <trkpt lat="39.4561000" lon="3.2401210">
        <ele>59.4</ele>
        <time>2021-06-20T14:05:37Z</time>
      </trkpt>
      <trkpt lat="39.4560620" lon="3.2401100">
        <ele>59.5</ele>
        <time>2021-06-20T14:05:38Z</time>
      </trkpt>
      <trkpt lat="39.4558360" lon="3.2400640">
        <ele>60.5</ele>
        <time>2021-06-20T14:05:43Z</time>
      </trkpt>
      <trkpt lat="39.4554570" lon="3.2399940">
        <ele>62.2</ele>
        <time>2021-06-20T14:05:52Z</time>
      </trkpt>
      <trkpt lat="39.4550770" lon="3.2399380">
        <ele>64.1</ele>
        <time>2021-06-20T14:06:01Z</time>
      </trkpt>
      <trkpt lat="39.4546310" lon="3.2398540">
        <ele>66.3</ele>
        <time>2021-06-20T14:06:12Z</time>
      </trkpt>
      <trkpt lat="39.4545520" lon="3.2398370">
        <ele>66.8</ele>
        <time>2021-06-20T14:06:14Z</time>
      </trkpt>
      <trkpt lat="39.4542520" lon="3.2397940">
        <ele>68.7</ele>
        <time>2021-06-20T14:06:22Z</time>
      </trkpt>
      <trkpt lat="39.4539190" lon="3.2397310">
        <ele>71.0</ele>
        <time>2021-06-20T14:06:31Z</time>
      </trkpt>
      <trkpt lat="39.4535540" lon="3.2396740">
        <ele>73.4</ele>
        <time>2021-06-20T14:06:41Z</time>
      </trkpt>
      <trkpt lat="39.4534830" lon="3.2396610">
        <ele>73.9</ele>
        <time>2021-06-20T14:06:43Z</time>
      </trkpt>
      <trkpt lat="39.4533460" lon="3.2396430">
        <ele>74.7</ele>
        <time>2021-06-20T14:06:47Z</time>
      </trkpt>
      <trkpt lat="39.4532480" lon="3.2396220">
        <ele>75.3</ele>
        <time>2021-06-20T14:06:50Z</time>
      </trkpt>
      <trkpt lat="39.4531510" lon="3.2396050">
        <ele>75.9</ele>
        <time>2021-06-20T14:06:53Z</time>
      </trkpt>
      <trkpt lat="39.4527200" lon="3.2395330">
        <ele>78.4</ele>
        <time>2021-06-20T14:07:06Z</time>
      </trkpt>
      <trkpt lat="39.4523830" lon="3.2394620">
        <ele>79.8</ele>
        <time>2021-06-20T14:07:16Z</time>
      </trkpt>
      <trkpt lat="39.4520550" lon="3.2394140">
        <ele>79.8</ele>
        <time>2021-06-20T14:07:24Z</time>
      </trkpt>
      <trkpt lat="39.4516900" lon="3.2393570">
        <ele>79.5</ele>
        <time>2021-06-20T14:07:31Z</time>
      </trkpt>
      <trkpt lat="39.4513240" lon="3.2392990">
        <ele>79.2</ele>
        <time>2021-06-20T14:07:38Z</time>
      </trkpt>
      <trkpt lat="39.4510240" lon="3.2392570">
        <ele>78.9</ele>
        <time>2021-06-20T14:07:43Z</time>
      </trkpt>
      <trkpt lat="39.4508470" lon="3.2391890">
        <ele>78.7</ele>
        <time>2021-06-20T14:07:46Z</time>
      </trkpt>
      <trkpt lat="39.4506710" lon="3.2390990">
        <ele>78.6</ele>
        <time>2021-06-20T14:07:49Z</time>
      </trkpt>
      <trkpt lat="39.4505160" lon="3.2389730">
        <ele>78.6</ele>
        <time>2021-06-20T14:07:52Z</time>
      </trkpt>
      <trkpt lat="39.4504150" lon="3.2388900">
        <ele>78.6</ele>
        <time>2021-06-20T14:07:54Z</time>
      </trkpt>
      <trkpt lat="39.4501610" lon="3.2386660">
        <ele>78.5</ele>
        <time>2021-06-20T14:07:59Z</time>
      </trkpt>
      <trkpt lat="39.4498470" lon="3.2383940">
        <ele>78.6</ele>
        <time>2021-06-20T14:08:05Z</time>
      </trkpt>
      <trkpt lat="39.4493920" lon="3.2380030">
        <ele>78.7</ele>
        <time>2021-06-20T14:08:14Z</time>
      </trkpt>
      <trkpt lat="39.4493400" lon="3.2379640">
        <ele>78.7</ele>
        <time>2021-06-20T14:08:15Z</time>
      </trkpt>
      <trkpt lat="39.4491150" lon="3.2378500">
        <ele>78.8</ele>
        <time>2021-06-20T14:08:19Z</time>
      </trkpt>
      <trkpt lat="39.4489890" lon="3.2378170">
        <ele>79.1</ele>
        <time>2021-06-20T14:08:21Z</time>
      </trkpt>
      <trkpt lat="39.4486080" lon="3.2377460">
        <ele>80.8</ele>
        <time>2021-06-20T14:08:28Z</time>
      </trkpt>
      <trkpt lat="39.4483180" lon="3.2376930">
        <ele>80.5</ele>
        <time>2021-06-20T14:08:34Z</time>
      </trkpt>
      <trkpt lat="39.4481450" lon="3.2376780">
        <ele>79.9</ele>
        <time>2021-06-20T14:08:37Z</time>
      </trkpt>
      <trkpt lat="39.4480130" lon="3.2376660">
        <ele>79.3</ele>
        <time>2021-06-20T14:08:39Z</time>
      </trkpt>
      <trkpt lat="39.4476030" lon="3.2376090">
        <ele>77.9</ele>
        <time>2021-06-20T14:08:45Z</time>
      </trkpt>
      <trkpt lat="39.4475360" lon="3.2375770">
        <ele>77.7</ele>
        <time>2021-06-20T14:08:46Z</time>
      </trkpt>
      <trkpt lat="39.4474680" lon="3.2375350">
        <ele>77.6</ele>
        <time>2021-06-20T14:08:47Z</time>
      </trkpt>
      <trkpt lat="39.4472890" lon="3.2373820">
        <ele>77.5</ele>
        <time>2021-06-20T14:08:50Z</time>
      </trkpt>
      <trkpt lat="39.4472350" lon="3.2373230">
        <ele>77.6</ele>
        <time>2021-06-20T14:08:51Z</time>
      </trkpt>
      <trkpt lat="39.4469610" lon="3.2370020">
        <ele>78.5</ele>
        <time>2021-06-20T14:08:57Z</time>
      </trkpt>
      <trkpt lat="39.4467020" lon="3.2367250">
        <ele>80.1</ele>
        <time>2021-06-20T14:09:04Z</time>
      </trkpt>
      <trkpt lat="39.4464900" lon="3.2364900">
        <ele>81.9</ele>
        <time>2021-06-20T14:09:11Z</time>
      </trkpt>
      <trkpt lat="39.4463040" lon="3.2362870">
        <ele>83.7</ele>
        <time>2021-06-20T14:09:18Z</time>
      </trkpt>
      <trkpt lat="39.4462820" lon="3.2362660">
        <ele>83.9</ele>
        <time>2021-06-20T14:09:19Z</time>
      </trkpt>
      <trkpt lat="39.4461610" lon="3.2361170">
        <ele>85.3</ele>
        <time>2021-06-20T14:09:24Z</time>
      </trkpt>
      <trkpt lat="39.4460170" lon="3.2358890">
        <ele>87.1</ele>
        <time>2021-06-20T14:09:31Z</time>
      </trkpt>
      <trkpt lat="39.4459710" lon="3.2357840">
        <ele>87.8</ele>
        <time>2021-06-20T14:09:34Z</time>
      </trkpt>
      <trkpt lat="39.4458770" lon="3.2355040">
        <ele>89.4</ele>
        <time>2021-06-20T14:09:42Z</time>
      </trkpt>
      <trkpt lat="39.4458640" lon="3.2354270">
        <ele>89.7</ele>
        <time>2021-06-20T14:09:44Z</time>
      </trkpt>
      <trkpt lat="39.4458600" lon="3.2351410">
        <ele>90.4</ele>
        <time>2021-06-20T14:09:51Z</time>
      </trkpt>
      <trkpt lat="39.4457710" lon="3.2349770">
        <ele>92.0</ele>
        <time>2021-06-20T14:09:55Z</time>
      </trkpt>
      <trkpt lat="39.4457710" lon="3.2349770">
        <ele>92.0</ele>
        <time>2021-06-20T14:09:56Z</time>
      </trkpt>
      <trkpt lat="39.4456200" lon="3.2349440">
        <ele>92.1</ele>
        <time>2021-06-20T14:10:01Z</time>
      </trkpt>
      <trkpt lat="39.4454110" lon="3.2350940">
        <ele>92.6</ele>
        <time>2021-06-20T14:10:08Z</time>
      </trkpt>
      <trkpt lat="39.4451870" lon="3.2351800">
        <ele>93.3</ele>
        <time>2021-06-20T14:10:14Z</time>
      </trkpt>
      <trkpt lat="39.4451480" lon="3.2351870">
        <ele>93.4</ele>
        <time>2021-06-20T14:10:15Z</time>
      </trkpt>
      <trkpt lat="39.4448080" lon="3.2352450">
        <ele>94.8</ele>
        <time>2021-06-20T14:10:24Z</time>
      </trkpt>
      <trkpt lat="39.4445630" lon="3.2352800">
        <ele>96.0</ele>
        <time>2021-06-20T14:10:31Z</time>
      </trkpt>
      <trkpt lat="39.4442780" lon="3.2352840">
        <ele>97.6</ele>
        <time>2021-06-20T14:10:39Z</time>
      </trkpt>
      <trkpt lat="39.4442420" lon="3.2352810">
        <ele>97.8</ele>
        <time>2021-06-20T14:10:40Z</time>
      </trkpt>
      <trkpt lat="39.4439950" lon="3.2352430">
        <ele>99.0</ele>
        <time>2021-06-20T14:10:47Z</time>
      </trkpt>
      <trkpt lat="39.4436700" lon="3.2351950">
        <ele>100.3</ele>
        <time>2021-06-20T14:10:56Z</time>
      </trkpt>
      <trkpt lat="39.4436310" lon="3.2351850">
        <ele>100.5</ele>
        <time>2021-06-20T14:10:57Z</time>
      </trkpt>
      <trkpt lat="39.4432610" lon="3.2351250">
        <ele>101.3</ele>
        <time>2021-06-20T14:11:07Z</time>
      </trkpt>
      <trkpt lat="39.4429170" lon="3.2350690">
        <ele>101.7</ele>
        <time>2021-06-20T14:11:16Z</time>
      </trkpt>
      <trkpt lat="39.4427770" lon="3.2350390">
        <ele>101.8</ele>
        <time>2021-06-20T14:11:20Z</time>
      </trkpt>
      <trkpt lat="39.4426990" lon="3.2350280">
        <ele>101.9</ele>
        <time>2021-06-20T14:11:22Z</time>
      </trkpt>
      <trkpt lat="39.4426070" lon="3.2350130">
        <ele>101.9</ele>
        <time>2021-06-20T14:11:24Z</time>
      </trkpt>
      <trkpt lat="39.4425230" lon="3.2350000">
        <ele>101.9</ele>
        <time>2021-06-20T14:11:26Z</time>
      </trkpt>
      <trkpt lat="39.4423640" lon="3.2349750">
        <ele>102.0</ele>
        <time>2021-06-20T14:11:30Z</time>
      </trkpt>
      <trkpt lat="39.4420920" lon="3.2349330">
        <ele>102.0</ele>
        <time>2021-06-20T14:11:36Z</time>
      </trkpt>
      <trkpt lat="39.4419660" lon="3.2349100">
        <ele>101.9</ele>
        <time>2021-06-20T14:11:39Z</time>
      </trkpt>
      <trkpt lat="39.4418180" lon="3.2348990">
        <ele>101.9</ele>
        <time>2021-06-20T14:11:42Z</time>
      </trkpt>
      <trkpt lat="39.4417280" lon="3.2348980">
        <ele>101.9</ele>
        <time>2021-06-20T14:11:44Z</time>
      </trkpt>
      <trkpt lat="39.4416800" lon="3.2348970">
        <ele>101.9</ele>
        <time>2021-06-20T14:11:45Z</time>
      </trkpt>
      <trkpt lat="39.4411760" lon="3.2349060">
        <ele>101.6</ele>
        <time>2021-06-20T14:11:55Z</time>
      </trkpt>
      <trkpt lat="39.4407380" lon="3.2349580">
        <ele>101.5</ele>
        <time>2021-06-20T14:12:02Z</time>
      </trkpt>
      <trkpt lat="39.4402450" lon="3.2350650">
        <ele>100.5</ele>
        <time>2021-06-20T14:12:10Z</time>
      </trkpt>
      <trkpt lat="39.4396640" lon="3.2352780">
        <ele>98.6</ele>
        <time>2021-06-20T14:12:18Z</time>
      </trkpt>
      <trkpt lat="39.4391530" lon="3.2355130">
        <ele>96.7</ele>
        <time>2021-06-20T14:12:25Z</time>
      </trkpt>
      <trkpt lat="39.4390770" lon="3.2355500">
        <ele>96.4</ele>
        <time>2021-06-20T14:12:26Z</time>
      </trkpt>
      <trkpt lat="39.4389260" lon="3.2356260">
        <ele>95.8</ele>
        <time>2021-06-20T14:12:28Z</time>
      </trkpt>
      <trkpt lat="39.4387800" lon="3.2357100">
        <ele>95.5</ele>
        <time>2021-06-20T14:12:30Z</time>
      </trkpt>
      <trkpt lat="39.4385520" lon="3.2358210">
        <ele>95.2</ele>
        <time>2021-06-20T14:12:33Z</time>
      </trkpt>
      <trkpt lat="39.4383870" lon="3.2358410">
        <ele>95.2</ele>
        <time>2021-06-20T14:12:35Z</time>
      </trkpt>
      <trkpt lat="39.4382270" lon="3.2358070">
        <ele>94.9</ele>
        <time>2021-06-20T14:12:37Z</time>
      </trkpt>
      <trkpt lat="39.4380720" lon="3.2357000">
        <ele>94.4</ele>
        <time>2021-06-20T14:12:39Z</time>
      </trkpt>
      <trkpt lat="39.4380180" lon="3.2356300">
        <ele>94.4</ele>
        <time>2021-06-20T14:12:40Z</time>
      </trkpt>
      <trkpt lat="39.4379370" lon="3.2354840">
        <ele>94.3</ele>
        <time>2021-06-20T14:12:42Z</time>
      </trkpt>
      <trkpt lat="39.4378920" lon="3.2354000">
        <ele>94.2</ele>
        <time>2021-06-20T14:12:43Z</time>
      </trkpt>
      <trkpt lat="39.4378020" lon="3.2352170">
        <ele>94.2</ele>
        <time>2021-06-20T14:12:45Z</time>
      </trkpt>
      <trkpt lat="39.4377700" lon="3.2351510">
        <ele>94.2</ele>
        <time>2021-06-20T14:12:46Z</time>
      </trkpt>
      <trkpt lat="39.4376800" lon="3.2349740">
        <ele>94.2</ele>
        <time>2021-06-20T14:12:48Z</time>
      </trkpt>
      <trkpt lat="39.4376420" lon="3.2348940">
        <ele>94.2</ele>
        <time>2021-06-20T14:12:49Z</time>
      </trkpt>
      <trkpt lat="39.4376010" lon="3.2348180">
        <ele>94.2</ele>
        <time>2021-06-20T14:12:50Z</time>
      </trkpt>
      <trkpt lat="39.4374750" lon="3.2345950">
        <ele>94.2</ele>
        <time>2021-06-20T14:12:53Z</time>
      </trkpt>
      <trkpt lat="39.4371390" lon="3.2341250">
        <ele>94.5</ele>
        <time>2021-06-20T14:13:00Z</time>
      </trkpt>
      <trkpt lat="39.4366960" lon="3.2336240">
        <ele>95.7</ele>
        <time>2021-06-20T14:13:09Z</time>
      </trkpt>
      <trkpt lat="39.4366570" lon="3.2335840">
        <ele>95.9</ele>
        <time>2021-06-20T14:13:10Z</time>
      </trkpt>
      <trkpt lat="39.4363540" lon="3.2332510">
        <ele>97.5</ele>
        <time>2021-06-20T14:13:17Z</time>
      </trkpt>
      <trkpt lat="39.4363130" lon="3.2332070">
        <ele>97.8</ele>
        <time>2021-06-20T14:13:18Z</time>
      </trkpt>
      <trkpt lat="39.4362230" lon="3.2331120">
        <ele>98.3</ele>
        <time>2021-06-20T14:13:20Z</time>
      </trkpt>
      <trkpt lat="39.4360830" lon="3.2329540">
        <ele>99.1</ele>
        <time>2021-06-20T14:13:24Z</time>
      </trkpt>
      <trkpt lat="39.4359630" lon="3.2328260">
        <ele>99.6</ele>
        <time>2021-06-20T14:13:27Z</time>
      </trkpt>
      <trkpt lat="39.4356860" lon="3.2325320">
        <ele>100.7</ele>
        <time>2021-06-20T14:13:34Z</time>
      </trkpt>
      <trkpt lat="39.4355790" lon="3.2324170">
        <ele>101.0</ele>
        <time>2021-06-20T14:13:37Z</time>
      </trkpt>
      <trkpt lat="39.4352060" lon="3.2320160">
        <ele>101.7</ele>
        <time>2021-06-20T14:13:46Z</time>
      </trkpt>
      <trkpt lat="39.4347790" lon="3.2315480">
        <ele>102.4</ele>
        <time>2021-06-20T14:13:57Z</time>
      </trkpt>
      <trkpt lat="39.4347410" lon="3.2315050">
        <ele>102.5</ele>
        <time>2021-06-20T14:13:58Z</time>
      </trkpt>
      <trkpt lat="39.4344780" lon="3.2312190">
        <ele>102.9</ele>
        <time>2021-06-20T14:14:05Z</time>
      </trkpt>
      <trkpt lat="39.4344370" lon="3.2311760">
        <ele>102.9</ele>
        <time>2021-06-20T14:14:06Z</time>
      </trkpt>
      <trkpt lat="39.4340360" lon="3.2307370">
        <ele>103.4</ele>
        <time>2021-06-20T14:14:16Z</time>
      </trkpt>
      <trkpt lat="39.4337540" lon="3.2304040">
        <ele>103.9</ele>
        <time>2021-06-20T14:14:24Z</time>
      </trkpt>
      <trkpt lat="39.4334920" lon="3.2300160">
        <ele>104.3</ele>
        <time>2021-06-20T14:14:32Z</time>
      </trkpt>
      <trkpt lat="39.4332750" lon="3.2295630">
        <ele>104.8</ele>
        <time>2021-06-20T14:14:41Z</time>
      </trkpt>
      <trkpt lat="39.4331030" lon="3.2291140">
        <ele>105.3</ele>
        <time>2021-06-20T14:14:49Z</time>
      </trkpt>
      <trkpt lat="39.4330500" lon="3.2289850">
        <ele>105.5</ele>
        <time>2021-06-20T14:14:51Z</time>
      </trkpt>
      <trkpt lat="39.4328460" lon="3.2285200">
        <ele>106.2</ele>
        <time>2021-06-20T14:14:59Z</time>
      </trkpt>
      <trkpt lat="39.4326480" lon="3.2281880">
        <ele>107.1</ele>
        <time>2021-06-20T14:15:06Z</time>
      </trkpt>
      <trkpt lat="39.4323620" lon="3.2278370">
        <ele>108.4</ele>
        <time>2021-06-20T14:15:15Z</time>
      </trkpt>
      <trkpt lat="39.4322630" lon="3.2277190">
        <ele>108.8</ele>
        <time>2021-06-20T14:15:18Z</time>
      </trkpt>
      <trkpt lat="39.4319250" lon="3.2273200">
        <ele>110.0</ele>
        <time>2021-06-20T14:15:28Z</time>
      </trkpt>
      <trkpt lat="39.4315260" lon="3.2268480">
        <ele>111.0</ele>
        <time>2021-06-20T14:15:40Z</time>
      </trkpt>
      <trkpt lat="39.4312490" lon="3.2265210">
        <ele>111.6</ele>
        <time>2021-06-20T14:15:48Z</time>
      </trkpt>
      <trkpt lat="39.4308500" lon="3.2260660">
        <ele>112.2</ele>
        <time>2021-06-20T14:15:59Z</time>
      </trkpt>
      <trkpt lat="39.4304350" lon="3.2256810">
        <ele>112.7</ele>
        <time>2021-06-20T14:16:09Z</time>
      </trkpt>
      <trkpt lat="39.4300480" lon="3.2254080">
        <ele>112.8</ele>
        <time>2021-06-20T14:16:17Z</time>
      </trkpt>
      <trkpt lat="39.4296330" lon="3.2251530">
        <ele>112.6</ele>
        <time>2021-06-20T14:16:25Z</time>
      </trkpt>
      <trkpt lat="39.4291270" lon="3.2248400">
        <ele>112.3</ele>
        <time>2021-06-20T14:16:34Z</time>
      </trkpt>
      <trkpt lat="39.4290140" lon="3.2247710">
        <ele>112.2</ele>
        <time>2021-06-20T14:16:36Z</time>
      </trkpt>
      <trkpt lat="39.4285340" lon="3.2244760">
        <ele>111.8</ele>
        <time>2021-06-20T14:16:44Z</time>
      </trkpt>
      <trkpt lat="39.4282970" lon="3.2243280">
        <ele>111.7</ele>
        <time>2021-06-20T14:16:48Z</time>
      </trkpt>
      <trkpt lat="39.4278200" lon="3.2240470">
        <ele>111.2</ele>
        <time>2021-06-20T14:16:56Z</time>
      </trkpt>
      <trkpt lat="39.4272840" lon="3.2237660">
        <ele>110.7</ele>
        <time>2021-06-20T14:17:04Z</time>
      </trkpt>
      <trkpt lat="39.4267260" lon="3.2235160">
        <ele>110.0</ele>
        <time>2021-06-20T14:17:13Z</time>
      </trkpt>
      <trkpt lat="39.4261730" lon="3.2232490">
        <ele>109.4</ele>
        <time>2021-06-20T14:17:22Z</time>
      </trkpt>
      <trkpt lat="39.4261110" lon="3.2232100">
        <ele>109.3</ele>
        <time>2021-06-20T14:17:23Z</time>
      </trkpt>
      <trkpt lat="39.4256290" lon="3.2228470">
        <ele>108.8</ele>
        <time>2021-06-20T14:17:31Z</time>
      </trkpt>
      <trkpt lat="39.4255730" lon="3.2227980">
        <ele>108.7</ele>
        <time>2021-06-20T14:17:32Z</time>
      </trkpt>
      <trkpt lat="39.4252290" lon="3.2224860">
        <ele>108.2</ele>
        <time>2021-06-20T14:17:38Z</time>
      </trkpt>
      <trkpt lat="39.4251180" lon="3.2223710">
        <ele>108.0</ele>
        <time>2021-06-20T14:17:40Z</time>
      </trkpt>
      <trkpt lat="39.4246360" lon="3.2218560">
        <ele>107.4</ele>
        <time>2021-06-20T14:17:48Z</time>
      </trkpt>
      <trkpt lat="39.4246360" lon="3.2218560">
        <ele>107.4</ele>
        <time>2021-06-20T14:17:49Z</time>
      </trkpt>
      <trkpt lat="39.4242110" lon="3.2213410">
        <ele>107.3</ele>
        <time>2021-06-20T14:17:58Z</time>
      </trkpt>
      <trkpt lat="39.4241770" lon="3.2212970">
        <ele>107.3</ele>
        <time>2021-06-20T14:17:59Z</time>
      </trkpt>
      <trkpt lat="39.4237880" lon="3.2208350">
        <ele>107.6</ele>
        <time>2021-06-20T14:18:08Z</time>
      </trkpt>
      <trkpt lat="39.4234530" lon="3.2204220">
        <ele>108.2</ele>
        <time>2021-06-20T14:18:16Z</time>
      </trkpt>
      <trkpt lat="39.4234220" lon="3.2203820">
        <ele>108.3</ele>
        <time>2021-06-20T14:18:17Z</time>
      </trkpt>
      <trkpt lat="39.4230830" lon="3.2199570">
        <ele>109.0</ele>
        <time>2021-06-20T14:18:26Z</time>
      </trkpt>
      <trkpt lat="39.4227090" lon="3.2195060">
        <ele>110.1</ele>
        <time>2021-06-20T14:18:36Z</time>
      </trkpt>
      <trkpt lat="39.4224120" lon="3.2191590">
        <ele>111.4</ele>
        <time>2021-06-20T14:18:45Z</time>
      </trkpt>
      <trkpt lat="39.4221610" lon="3.2188740">
        <ele>112.8</ele>
        <time>2021-06-20T14:18:53Z</time>
      </trkpt>
      <trkpt lat="39.4218630" lon="3.2185430">
        <ele>114.7</ele>
        <time>2021-06-20T14:19:03Z</time>
      </trkpt>
      <trkpt lat="39.4217070" lon="3.2183810">
        <ele>115.6</ele>
        <time>2021-06-20T14:19:08Z</time>
      </trkpt>
      <trkpt lat="39.4216230" lon="3.2182870">
        <ele>116.0</ele>
        <time>2021-06-20T14:19:11Z</time>
      </trkpt>
      <trkpt lat="39.4214790" lon="3.2181530">
        <ele>116.4</ele>
        <time>2021-06-20T14:19:15Z</time>
      </trkpt>
      <trkpt lat="39.4210020" lon="3.2177240">
        <ele>117.5</ele>
        <time>2021-06-20T14:19:28Z</time>
      </trkpt>
      <trkpt lat="39.4209260" lon="3.2176620">
        <ele>117.7</ele>
        <time>2021-06-20T14:19:30Z</time>
      </trkpt>
      <trkpt lat="39.4208350" lon="3.2175840">
        <ele>117.8</ele>
        <time>2021-06-20T14:19:32Z</time>
      </trkpt>
      <trkpt lat="39.4206790" lon="3.2174460">
        <ele>118.1</ele>
        <time>2021-06-20T14:19:36Z</time>
      </trkpt>
      <trkpt lat="39.4205320" lon="3.2173360">
        <ele>118.3</ele>
        <time>2021-06-20T14:19:39Z</time>
      </trkpt>
      <trkpt lat="39.4201150" lon="3.2170410">
        <ele>118.7</ele>
        <time>2021-06-20T14:19:48Z</time>
      </trkpt>
      <trkpt lat="39.4200740" lon="3.2170130">
        <ele>118.7</ele>
        <time>2021-06-20T14:19:49Z</time>
      </trkpt>
      <trkpt lat="39.4196000" lon="3.2167140">
        <ele>118.4</ele>
        <time>2021-06-20T14:19:58Z</time>
      </trkpt>
      <trkpt lat="39.4190780" lon="3.2164110">
        <ele>117.3</ele>
        <time>2021-06-20T14:20:08Z</time>
      </trkpt>
      <trkpt lat="39.4190210" lon="3.2163810">
        <ele>117.2</ele>
        <time>2021-06-20T14:20:09Z</time>
      </trkpt>
      <trkpt lat="39.4185300" lon="3.2161170">
        <ele>115.5</ele>
        <time>2021-06-20T14:20:17Z</time>
      </trkpt>
      <trkpt lat="39.4184170" lon="3.2160570">
        <ele>115.1</ele>
        <time>2021-06-20T14:20:19Z</time>
      </trkpt>
      <trkpt lat="39.4179590" lon="3.2158080">
        <ele>113.8</ele>
        <time>2021-06-20T14:20:26Z</time>
      </trkpt>
      <trkpt lat="39.4177700" lon="3.2157040">
        <ele>113.5</ele>
        <time>2021-06-20T14:20:29Z</time>
      </trkpt>
      <trkpt lat="39.4172830" lon="3.2154270">
        <ele>112.7</ele>
        <time>2021-06-20T14:20:36Z</time>
      </trkpt>
      <trkpt lat="39.4170920" lon="3.2152920">
        <ele>112.2</ele>
        <time>2021-06-20T14:20:39Z</time>
      </trkpt>
      <trkpt lat="39.4166220" lon="3.2148660">
        <ele>111.4</ele>
        <time>2021-06-20T14:20:47Z</time>
      </trkpt>
      <trkpt lat="39.4165200" lon="3.2147620">
        <ele>111.3</ele>
        <time>2021-06-20T14:20:49Z</time>
      </trkpt>
      <trkpt lat="39.4164060" lon="3.2146440">
        <ele>111.3</ele>
        <time>2021-06-20T14:20:51Z</time>
      </trkpt>
      <trkpt lat="39.4159510" lon="3.2141690">
        <ele>111.5</ele>
        <time>2021-06-20T14:20:59Z</time>
      </trkpt>
      <trkpt lat="39.4155410" lon="3.2137720">
        <ele>111.1</ele>
        <time>2021-06-20T14:21:07Z</time>
      </trkpt>
      <trkpt lat="39.4151420" lon="3.2134610">
        <ele>109.8</ele>
        <time>2021-06-20T14:21:14Z</time>
      </trkpt>
      <trkpt lat="39.4150790" lon="3.2134220">
        <ele>109.6</ele>
        <time>2021-06-20T14:21:15Z</time>
      </trkpt>
      <trkpt lat="39.4148140" lon="3.2132770">
        <ele>108.8</ele>
        <time>2021-06-20T14:21:19Z</time>
      </trkpt>
      <trkpt lat="39.4146770" lon="3.2132040">
        <ele>108.4</ele>
        <time>2021-06-20T14:21:21Z</time>
      </trkpt>
      <trkpt lat="39.4146060" lon="3.2131670">
        <ele>108.2</ele>
        <time>2021-06-20T14:21:22Z</time>
      </trkpt>
      <trkpt lat="39.4140950" lon="3.2129090">
        <ele>107.1</ele>
        <time>2021-06-20T14:21:29Z</time>
      </trkpt>
      <trkpt lat="39.4139640" lon="3.2128500">
        <ele>106.9</ele>
        <time>2021-06-20T14:21:31Z</time>
      </trkpt>
      <trkpt lat="39.4136580" lon="3.2127260">
        <ele>106.3</ele>
        <time>2021-06-20T14:21:35Z</time>
      </trkpt>
      <trkpt lat="39.4134300" lon="3.2126490">
        <ele>105.8</ele>
        <time>2021-06-20T14:21:38Z</time>
      </trkpt>
      <trkpt lat="39.4132900" lon="3.2126120">
        <ele>105.6</ele>
        <time>2021-06-20T14:21:40Z</time>
      </trkpt>
      <trkpt lat="39.4128960" lon="3.2125160">
        <ele>105.0</ele>
        <time>2021-06-20T14:21:45Z</time>
      </trkpt>
      <trkpt lat="39.4127360" lon="3.2124790">
        <ele>104.7</ele>
        <time>2021-06-20T14:21:47Z</time>
      </trkpt>
      <trkpt lat="39.4125610" lon="3.2124400">
        <ele>104.5</ele>
        <time>2021-06-20T14:21:49Z</time>
      </trkpt>
      <trkpt lat="39.4119800" lon="3.2122530">
        <ele>103.9</ele>
        <time>2021-06-20T14:21:57Z</time>
      </trkpt>
      <trkpt lat="39.4119080" lon="3.2122190">
        <ele>103.9</ele>
        <time>2021-06-20T14:21:58Z</time>
      </trkpt>
      <trkpt lat="39.4113700" lon="3.2118910">
        <ele>104.2</ele>
        <time>2021-06-20T14:22:06Z</time>
      </trkpt>
      <trkpt lat="39.4109290" lon="3.2115220">
        <ele>105.0</ele>
        <time>2021-06-20T14:22:14Z</time>
      </trkpt>
      <trkpt lat="39.4106360" lon="3.2112530">
        <ele>105.8</ele>
        <time>2021-06-20T14:22:20Z</time>
      </trkpt>
      <trkpt lat="39.4103160" lon="3.2109740">
        <ele>106.9</ele>
        <time>2021-06-20T14:22:27Z</time>
      </trkpt>
      <trkpt lat="39.4100520" lon="3.2107230">
        <ele>107.1</ele>
        <time>2021-06-20T14:22:33Z</time>
      </trkpt>
      <trkpt lat="39.4097750" lon="3.2104280">
        <ele>106.6</ele>
        <time>2021-06-20T14:22:39Z</time>
      </trkpt>
      <trkpt lat="39.4095620" lon="3.2102600">
        <ele>106.5</ele>
        <time>2021-06-20T14:22:43Z</time>
      </trkpt>
      <trkpt lat="39.4095050" lon="3.2102330">
        <ele>106.5</ele>
        <time>2021-06-20T14:22:44Z</time>
      </trkpt>
      <trkpt lat="39.4090350" lon="3.2100490">
        <ele>106.4</ele>
        <time>2021-06-20T14:22:52Z</time>
      </trkpt>
      <trkpt lat="39.4086050" lon="3.2098880">
        <ele>106.1</ele>
        <time>2021-06-20T14:22:59Z</time>
      </trkpt>
      <trkpt lat="39.4081690" lon="3.2096680">
        <ele>106.0</ele>
        <time>2021-06-20T14:23:06Z</time>
      </trkpt>
      <trkpt lat="39.4080020" lon="3.2095580">
        <ele>105.9</ele>
        <time>2021-06-20T14:23:09Z</time>
      </trkpt>
      <trkpt lat="39.4075730" lon="3.2092400">
        <ele>105.9</ele>
        <time>2021-06-20T14:23:16Z</time>
      </trkpt>
      <trkpt lat="39.4072670" lon="3.2089120">
        <ele>106.2</ele>
        <time>2021-06-20T14:23:22Z</time>
      </trkpt>
      <trkpt lat="39.4072410" lon="3.2088610">
        <ele>106.3</ele>
        <time>2021-06-20T14:23:23Z</time>
      </trkpt>
      <trkpt lat="39.4071420" lon="3.2086550">
        <ele>106.4</ele>
        <time>2021-06-20T14:23:26Z</time>
      </trkpt>
      <trkpt lat="39.4070570" lon="3.2084580">
        <ele>106.5</ele>
        <time>2021-06-20T14:23:29Z</time>
      </trkpt>
      <trkpt lat="39.4069780" lon="3.2082490">
        <ele>106.7</ele>
        <time>2021-06-20T14:23:32Z</time>
      </trkpt>
      <trkpt lat="39.4068260" lon="3.2078190">
        <ele>107.0</ele>
        <time>2021-06-20T14:23:38Z</time>
      </trkpt>
      <trkpt lat="39.4066950" lon="3.2073960">
        <ele>107.4</ele>
        <time>2021-06-20T14:23:44Z</time>
      </trkpt>
      <trkpt lat="39.4065370" lon="3.2067560">
        <ele>108.0</ele>
        <time>2021-06-20T14:23:53Z</time>
      </trkpt>
      <trkpt lat="39.4064590" lon="3.2064790">
        <ele>108.3</ele>
        <time>2021-06-20T14:23:58Z</time>
      </trkpt>
      <trkpt lat="39.4063620" lon="3.2061390">
        <ele>108.8</ele>
        <time>2021-06-20T14:24:04Z</time>
      </trkpt>
      <trkpt lat="39.4063100" lon="3.2059570">
        <ele>109.1</ele>
        <time>2021-06-20T14:24:07Z</time>
      </trkpt>
      <trkpt lat="39.4061730" lon="3.2054510">
        <ele>110.3</ele>
        <time>2021-06-20T14:24:16Z</time>
      </trkpt>
      <trkpt lat="39.4060780" lon="3.2051130">
        <ele>111.1</ele>
        <time>2021-06-20T14:24:23Z</time>
      </trkpt>
      <trkpt lat="39.4059720" lon="3.2048050">
        <ele>111.8</ele>
        <time>2021-06-20T14:24:30Z</time>
      </trkpt>
      <trkpt lat="39.4057260" lon="3.2044350">
        <ele>110.4</ele>
        <time>2021-06-20T14:24:39Z</time>
      </trkpt>
      <trkpt lat="39.4056920" lon="3.2043830">
        <ele>110.1</ele>
        <time>2021-06-20T14:24:40Z</time>
      </trkpt>
      <trkpt lat="39.4055460" lon="3.2041330">
        <ele>108.8</ele>
        <time>2021-06-20T14:24:44Z</time>
      </trkpt>
      <trkpt lat="39.4052500" lon="3.2037040">
        <ele>107.1</ele>
        <time>2021-06-20T14:24:50Z</time>
      </trkpt>
      <trkpt lat="39.4051000" lon="3.2035070">
        <ele>106.4</ele>
        <time>2021-06-20T14:24:53Z</time>
      </trkpt>
      <trkpt lat="39.4048130" lon="3.2031170">
        <ele>104.3</ele>
        <time>2021-06-20T14:24:59Z</time>
      </trkpt>
      <trkpt lat="39.4045740" lon="3.2027750">
        <ele>102.1</ele>
        <time>2021-06-20T14:25:04Z</time>
      </trkpt>
      <trkpt lat="39.4044080" lon="3.2025380">
        <ele>100.9</ele>
        <time>2021-06-20T14:25:07Z</time>
      </trkpt>
      <trkpt lat="39.4043040" lon="3.2023970">
        <ele>100.3</ele>
        <time>2021-06-20T14:25:09Z</time>
      </trkpt>
      <trkpt lat="39.4039580" lon="3.2020420">
        <ele>99.1</ele>
        <time>2021-06-20T14:25:15Z</time>
      </trkpt>
      <trkpt lat="39.4038370" lon="3.2019040">
        <ele>99.1</ele>
        <time>2021-06-20T14:25:17Z</time>
      </trkpt>
      <trkpt lat="39.4037830" lon="3.2018810">
        <ele>98.9</ele>
        <time>2021-06-20T14:25:18Z</time>
      </trkpt>
      <trkpt lat="39.4036980" lon="3.2018720">
        <ele>98.6</ele>
        <time>2021-06-20T14:25:19Z</time>
      </trkpt>
      <trkpt lat="39.4036460" lon="3.2018890">
        <ele>98.5</ele>
        <time>2021-06-20T14:25:20Z</time>
      </trkpt>
      <trkpt lat="39.4035850" lon="3.2019280">
        <ele>98.4</ele>
        <time>2021-06-20T14:25:21Z</time>
      </trkpt>
      <trkpt lat="39.4033700" lon="3.2020360">
        <ele>97.9</ele>
        <time>2021-06-20T14:25:24Z</time>
      </trkpt>
      <trkpt lat="39.4030820" lon="3.2022010">
        <ele>97.4</ele>
        <time>2021-06-20T14:25:28Z</time>
      </trkpt>
      <trkpt lat="39.4029990" lon="3.2022640">
        <ele>97.2</ele>
        <time>2021-06-20T14:25:29Z</time>
      </trkpt>
      <trkpt lat="39.4026660" lon="3.2025280">
        <ele>96.7</ele>
        <time>2021-06-20T14:25:34Z</time>
      </trkpt>
      <trkpt lat="39.4024170" lon="3.2027300">
        <ele>96.4</ele>
        <time>2021-06-20T14:25:38Z</time>
      </trkpt>
      <trkpt lat="39.4019970" lon="3.2030520">
        <ele>96.1</ele>
        <time>2021-06-20T14:25:45Z</time>
      </trkpt>
      <trkpt lat="39.4016150" lon="3.2033550">
        <ele>95.5</ele>
        <time>2021-06-20T14:25:52Z</time>
      </trkpt>
      <trkpt lat="39.4012330" lon="3.2036460">
        <ele>94.4</ele>
        <time>2021-06-20T14:25:59Z</time>
      </trkpt>
      <trkpt lat="39.4011940" lon="3.2036710">
        <ele>94.3</ele>
        <time>2021-06-20T14:26:00Z</time>
      </trkpt>
      <trkpt lat="39.4011210" lon="3.2037030">
        <ele>94.1</ele>
        <time>2021-06-20T14:26:02Z</time>
      </trkpt>
      <trkpt lat="39.4008190" lon="3.2038290">
        <ele>93.3</ele>
        <time>2021-06-20T14:26:09Z</time>
      </trkpt>
      <trkpt lat="39.4006120" lon="3.2039270">
        <ele>92.9</ele>
        <time>2021-06-20T14:26:13Z</time>
      </trkpt>
      <trkpt lat="39.4005620" lon="3.2039320">
        <ele>92.9</ele>
        <time>2021-06-20T14:26:14Z</time>
      </trkpt>
      <trkpt lat="39.4005330" lon="3.2039130">
        <ele>92.8</ele>
        <time>2021-06-20T14:26:15Z</time>
      </trkpt>
      <trkpt lat="39.4004750" lon="3.2038050">
        <ele>92.5</ele>
        <time>2021-06-20T14:26:17Z</time>
      </trkpt>
      <trkpt lat="39.4004430" lon="3.2036950">
        <ele>92.4</ele>
        <time>2021-06-20T14:26:19Z</time>
      </trkpt>
      <trkpt lat="39.4004060" lon="3.2035770">
        <ele>92.4</ele>
        <time>2021-06-20T14:26:21Z</time>
      </trkpt>
      <trkpt lat="39.4003620" lon="3.2034560">
        <ele>92.4</ele>
        <time>2021-06-20T14:26:23Z</time>
      </trkpt>
      <trkpt lat="39.4002170" lon="3.2029380">
        <ele>92.5</ele>
        <time>2021-06-20T14:26:31Z</time>
      </trkpt>
      <trkpt lat="39.4001010" lon="3.2024970">
        <ele>92.5</ele>
        <time>2021-06-20T14:26:37Z</time>
      </trkpt>
      <trkpt lat="39.3999480" lon="3.2019300">
        <ele>92.4</ele>
        <time>2021-06-20T14:26:45Z</time>
      </trkpt>
      <trkpt lat="39.3997900" lon="3.2013560">
        <ele>92.5</ele>
        <time>2021-06-20T14:26:53Z</time>
      </trkpt>
      <trkpt lat="39.3997480" lon="3.2012180">
        <ele>92.6</ele>
        <time>2021-06-20T14:26:55Z</time>
      </trkpt>
      <trkpt lat="39.3996510" lon="3.2008590">
        <ele>92.8</ele>
        <time>2021-06-20T14:27:00Z</time>
      </trkpt>
      <trkpt lat="39.3995940" lon="3.2006450">
        <ele>93.1</ele>
        <time>2021-06-20T14:27:03Z</time>
      </trkpt>
      <trkpt lat="39.3994880" lon="3.2002300">
        <ele>93.8</ele>
        <time>2021-06-20T14:27:09Z</time>
      </trkpt>
      <trkpt lat="39.3994350" lon="3.1997540">
        <ele>94.1</ele>
        <time>2021-06-20T14:27:16Z</time>
      </trkpt>
      <trkpt lat="39.3994200" lon="3.1996150">
        <ele>94.0</ele>
        <time>2021-06-20T14:27:18Z</time>
      </trkpt>
      <trkpt lat="39.3994020" lon="3.1994710">
        <ele>93.9</ele>
        <time>2021-06-20T14:27:20Z</time>
      </trkpt>
      <trkpt lat="39.3993850" lon="3.1993140">
        <ele>93.7</ele>
        <time>2021-06-20T14:27:22Z</time>
      </trkpt>
      <trkpt lat="39.3993500" lon="3.1990570">
        <ele>93.3</ele>
        <time>2021-06-20T14:27:25Z</time>
      </trkpt>
      <trkpt lat="39.3992930" lon="3.1987880">
        <ele>92.7</ele>
        <time>2021-06-20T14:27:28Z</time>
      </trkpt>
      <trkpt lat="39.3992270" lon="3.1986170">
        <ele>91.8</ele>
        <time>2021-06-20T14:27:30Z</time>
      </trkpt>
      <trkpt lat="39.3991010" lon="3.1983350">
        <ele>89.9</ele>
        <time>2021-06-20T14:27:33Z</time>
      </trkpt>
      <trkpt lat="39.3990120" lon="3.1981600">
        <ele>88.6</ele>
        <time>2021-06-20T14:27:35Z</time>
      </trkpt>
      <trkpt lat="39.3988030" lon="3.1977550">
        <ele>85.6</ele>
        <time>2021-06-20T14:27:39Z</time>
      </trkpt>
      <trkpt lat="39.3986430" lon="3.1974290">
        <ele>83.4</ele>
        <time>2021-06-20T14:27:42Z</time>
      </trkpt>
      <trkpt lat="39.3984160" lon="3.1969560">
        <ele>81.0</ele>
        <time>2021-06-20T14:27:46Z</time>
      </trkpt>
      <trkpt lat="39.3983710" lon="3.1968300">
        <ele>80.2</ele>
        <time>2021-06-20T14:27:47Z</time>
      </trkpt>
      <trkpt lat="39.3981900" lon="3.1961610">
        <ele>76.9</ele>
        <time>2021-06-20T14:27:52Z</time>
      </trkpt>
      <trkpt lat="39.3981550" lon="3.1960320">
        <ele>76.3</ele>
        <time>2021-06-20T14:27:53Z</time>
      </trkpt>
      <trkpt lat="39.3979770" lon="3.1955720">
        <ele>73.4</ele>
        <time>2021-06-20T14:27:57Z</time>
      </trkpt>
      <trkpt lat="39.3979020" lon="3.1954520">
        <ele>72.4</ele>
        <time>2021-06-20T14:27:58Z</time>
      </trkpt>
      <trkpt lat="39.3977670" lon="3.1952950">
        <ele>70.9</ele>
        <time>2021-06-20T14:28:00Z</time>
      </trkpt>
      <trkpt lat="39.3973070" lon="3.1949340">
        <ele>67.2</ele>
        <time>2021-06-20T14:28:05Z</time>
      </trkpt>
      <trkpt lat="39.3968900" lon="3.1946470">
        <ele>64.4</ele>
        <time>2021-06-20T14:28:09Z</time>
      </trkpt>
      <trkpt lat="39.3966520" lon="3.1944830">
        <ele>63.5</ele>
        <time>2021-06-20T14:28:11Z</time>
      </trkpt>
      <trkpt lat="39.3963330" lon="3.1942630">
        <ele>62.6</ele>
        <time>2021-06-20T14:28:14Z</time>
      </trkpt>
      <trkpt lat="39.3960280" lon="3.1940600">
        <ele>62.1</ele>
        <time>2021-06-20T14:28:17Z</time>
      </trkpt>
      <trkpt lat="39.3959310" lon="3.1939950">
        <ele>61.9</ele>
        <time>2021-06-20T14:28:18Z</time>
      </trkpt>
      <trkpt lat="39.3954810" lon="3.1936830">
        <ele>61.5</ele>
        <time>2021-06-20T14:28:23Z</time>
      </trkpt>
      <trkpt lat="39.3953960" lon="3.1936230">
        <ele>61.5</ele>
        <time>2021-06-20T14:28:24Z</time>
      </trkpt>
      <trkpt lat="39.3952320" lon="3.1935020">
        <ele>61.3</ele>
        <time>2021-06-20T14:28:26Z</time>
      </trkpt>
      <trkpt lat="39.3947540" lon="3.1931490">
        <ele>60.1</ele>
        <time>2021-06-20T14:28:32Z</time>
      </trkpt>
      <trkpt lat="39.3946300" lon="3.1930200">
        <ele>59.9</ele>
        <time>2021-06-20T14:28:34Z</time>
      </trkpt>
      <trkpt lat="39.3945670" lon="3.1929420">
        <ele>59.7</ele>
        <time>2021-06-20T14:28:35Z</time>
      </trkpt>
      <trkpt lat="39.3944980" lon="3.1928360">
        <ele>59.6</ele>
        <time>2021-06-20T14:28:36Z</time>
      </trkpt>
      <trkpt lat="39.3941940" lon="3.1921940">
        <ele>58.8</ele>
        <time>2021-06-20T14:28:43Z</time>
      </trkpt>
      <trkpt lat="39.3941520" lon="3.1921000">
        <ele>58.8</ele>
        <time>2021-06-20T14:28:44Z</time>
      </trkpt>
      <trkpt lat="39.3938550" lon="3.1915000">
        <ele>58.7</ele>
        <time>2021-06-20T14:28:51Z</time>
      </trkpt>
      <trkpt lat="39.3936650" lon="3.1912220">
        <ele>58.8</ele>
        <time>2021-06-20T14:28:55Z</time>
      </trkpt>
      <trkpt lat="39.3935570" lon="3.1911040">
        <ele>58.8</ele>
        <time>2021-06-20T14:28:57Z</time>
      </trkpt>
      <trkpt lat="39.3932680" lon="3.1908260">
        <ele>59.0</ele>
        <time>2021-06-20T14:29:02Z</time>
      </trkpt>
      <trkpt lat="39.3931460" lon="3.1907310">
        <ele>59.1</ele>
        <time>2021-06-20T14:29:04Z</time>
      </trkpt>
      <trkpt lat="39.3927510" lon="3.1905290">
        <ele>59.3</ele>
        <time>2021-06-20T14:29:10Z</time>
      </trkpt>
      <trkpt lat="39.3922040" lon="3.1902950">
        <ele>58.9</ele>
        <time>2021-06-20T14:29:18Z</time>
      </trkpt>
      <trkpt lat="39.3921380" lon="3.1902490">
        <ele>58.8</ele>
        <time>2021-06-20T14:29:19Z</time>
      </trkpt>
      <trkpt lat="39.3919630" lon="3.1900850">
        <ele>58.6</ele>
        <time>2021-06-20T14:29:22Z</time>
      </trkpt>
      <trkpt lat="39.3918620" lon="3.1899540">
        <ele>58.4</ele>
        <time>2021-06-20T14:29:24Z</time>
      </trkpt>
      <trkpt lat="39.3918180" lon="3.1898820">
        <ele>58.4</ele>
        <time>2021-06-20T14:29:25Z</time>
      </trkpt>
      <trkpt lat="39.3916740" lon="3.1895700">
        <ele>58.1</ele>
        <time>2021-06-20T14:29:29Z</time>
      </trkpt>
      <trkpt lat="39.3914360" lon="3.1889780">
        <ele>57.6</ele>
        <time>2021-06-20T14:29:36Z</time>
      </trkpt>
      <trkpt lat="39.3913670" lon="3.1888130">
        <ele>57.3</ele>
        <time>2021-06-20T14:29:38Z</time>
      </trkpt>
      <trkpt lat="39.3912630" lon="3.1885590">
        <ele>57.0</ele>
        <time>2021-06-20T14:29:41Z</time>
      </trkpt>
      <trkpt lat="39.3911960" lon="3.1883900">
        <ele>56.8</ele>
        <time>2021-06-20T14:29:43Z</time>
      </trkpt>
      <trkpt lat="39.3910480" lon="3.1880490">
        <ele>56.3</ele>
        <time>2021-06-20T14:29:47Z</time>
      </trkpt>
      <trkpt lat="39.3907510" lon="3.1874040">
        <ele>55.9</ele>
        <time>2021-06-20T14:29:55Z</time>
      </trkpt>
      <trkpt lat="39.3907150" lon="3.1873230">
        <ele>55.8</ele>
        <time>2021-06-20T14:29:56Z</time>
      </trkpt>
      <trkpt lat="39.3903960" lon="3.1866810">
        <ele>55.0</ele>
        <time>2021-06-20T14:30:04Z</time>
      </trkpt>
      <trkpt lat="39.3903540" lon="3.1866010">
        <ele>54.9</ele>
        <time>2021-06-20T14:30:05Z</time>
      </trkpt>
      <trkpt lat="39.3902310" lon="3.1863630">
        <ele>54.6</ele>
        <time>2021-06-20T14:30:08Z</time>
      </trkpt>
      <trkpt lat="39.3900800" lon="3.1860390">
        <ele>54.7</ele>
        <time>2021-06-20T14:30:12Z</time>
      </trkpt>
      <trkpt lat="39.3900220" lon="3.1858740">
        <ele>54.8</ele>
        <time>2021-06-20T14:30:14Z</time>
      </trkpt>
      <trkpt lat="39.3899300" lon="3.1855530">
        <ele>55.0</ele>
        <time>2021-06-20T14:30:18Z</time>
      </trkpt>
      <trkpt lat="39.3898290" lon="3.1851870">
        <ele>55.5</ele>
        <time>2021-06-20T14:30:23Z</time>
      </trkpt>
      <trkpt lat="39.3898090" lon="3.1851140">
        <ele>55.6</ele>
        <time>2021-06-20T14:30:24Z</time>
      </trkpt>
      <trkpt lat="39.3896950" lon="3.1847070">
        <ele>56.5</ele>
        <time>2021-06-20T14:30:30Z</time>
      </trkpt>
      <trkpt lat="39.3896010" lon="3.1843130">
        <ele>57.8</ele>
        <time>2021-06-20T14:30:36Z</time>
      </trkpt>
      <trkpt lat="39.3895800" lon="3.1841880">
        <ele>58.2</ele>
        <time>2021-06-20T14:30:38Z</time>
      </trkpt>
      <trkpt lat="39.3895540" lon="3.1839230">
        <ele>59.0</ele>
        <time>2021-06-20T14:30:42Z</time>
      </trkpt>
      <trkpt lat="39.3895410" lon="3.1837910">
        <ele>59.5</ele>
        <time>2021-06-20T14:30:44Z</time>
      </trkpt>
      <trkpt lat="39.3895200" lon="3.1835970">
        <ele>60.1</ele>
        <time>2021-06-20T14:30:47Z</time>
      </trkpt>
      <trkpt lat="39.3895090" lon="3.1834710">
        <ele>60.5</ele>
        <time>2021-06-20T14:30:49Z</time>
      </trkpt>
      <trkpt lat="39.3894860" lon="3.1832820">
        <ele>61.0</ele>
        <time>2021-06-20T14:30:52Z</time>
      </trkpt>
      <trkpt lat="39.3894560" lon="3.1831000">
        <ele>61.4</ele>
        <time>2021-06-20T14:30:55Z</time>
      </trkpt>
      <trkpt lat="39.3894210" lon="3.1829880">
        <ele>61.7</ele>
        <time>2021-06-20T14:30:57Z</time>
      </trkpt>
      <trkpt lat="39.3893850" lon="3.1828790">
        <ele>61.9</ele>
        <time>2021-06-20T14:30:59Z</time>
      </trkpt>
      <trkpt lat="39.3891910" lon="3.1824000">
        <ele>63.2</ele>
        <time>2021-06-20T14:31:08Z</time>
      </trkpt>
      <trkpt lat="39.3891110" lon="3.1822280">
        <ele>63.7</ele>
        <time>2021-06-20T14:31:11Z</time>
      </trkpt>
      <trkpt lat="39.3890630" lon="3.1821250">
        <ele>64.0</ele>
        <time>2021-06-20T14:31:13Z</time>
      </trkpt>
      <trkpt lat="39.3890200" lon="3.1820220">
        <ele>64.3</ele>
        <time>2021-06-20T14:31:15Z</time>
      </trkpt>
      <trkpt lat="39.3889990" lon="3.1819710">
        <ele>64.5</ele>
        <time>2021-06-20T14:31:16Z</time>
      </trkpt>
      <trkpt lat="39.3889580" lon="3.1818710">
        <ele>64.8</ele>
        <time>2021-06-20T14:31:18Z</time>
      </trkpt>
      <trkpt lat="39.3887710" lon="3.1813920">
        <ele>65.9</ele>
        <time>2021-06-20T14:31:27Z</time>
      </trkpt>
      <trkpt lat="39.3886300" lon="3.1808860">
        <ele>66.8</ele>
        <time>2021-06-20T14:31:36Z</time>
      </trkpt>
      <trkpt lat="39.3885690" lon="3.1805730">
        <ele>67.2</ele>
        <time>2021-06-20T14:31:42Z</time>
      </trkpt>
      <trkpt lat="39.3885740" lon="3.1804510">
        <ele>67.4</ele>
        <time>2021-06-20T14:31:44Z</time>
      </trkpt>
      <trkpt lat="39.3885990" lon="3.1803410">
        <ele>67.6</ele>
        <time>2021-06-20T14:31:46Z</time>
      </trkpt>
      <trkpt lat="39.3886170" lon="3.1802280">
        <ele>67.8</ele>
        <time>2021-06-20T14:31:48Z</time>
      </trkpt>
      <trkpt lat="39.3886170" lon="3.1801800">
        <ele>68.0</ele>
        <time>2021-06-20T14:31:49Z</time>
      </trkpt>
      <trkpt lat="39.3886060" lon="3.1801150">
        <ele>68.2</ele>
        <time>2021-06-20T14:31:50Z</time>
      </trkpt>
      <trkpt lat="39.3885520" lon="3.1800510">
        <ele>68.6</ele>
        <time>2021-06-20T14:31:52Z</time>
      </trkpt>
      <trkpt lat="39.3884690" lon="3.1800420">
        <ele>69.1</ele>
        <time>2021-06-20T14:31:54Z</time>
      </trkpt>
      <trkpt lat="39.3884280" lon="3.1800610">
        <ele>69.2</ele>
        <time>2021-06-20T14:31:55Z</time>
      </trkpt>
      <trkpt lat="39.3883940" lon="3.1800940">
        <ele>69.3</ele>
        <time>2021-06-20T14:31:56Z</time>
      </trkpt>
      <trkpt lat="39.3883390" lon="3.1801970">
        <ele>69.2</ele>
        <time>2021-06-20T14:31:58Z</time>
      </trkpt>
      <trkpt lat="39.3882820" lon="3.1803360">
        <ele>68.4</ele>
        <time>2021-06-20T14:32:00Z</time>
      </trkpt>
      <trkpt lat="39.3882120" lon="3.1804350">
        <ele>67.8</ele>
        <time>2021-06-20T14:32:02Z</time>
      </trkpt>
      <trkpt lat="39.3879610" lon="3.1807150">
        <ele>66.8</ele>
        <time>2021-06-20T14:32:07Z</time>
      </trkpt>
      <trkpt lat="39.3879050" lon="3.1807700">
        <ele>66.7</ele>
        <time>2021-06-20T14:32:08Z</time>
      </trkpt>
      <trkpt lat="39.3876900" lon="3.1809880">
        <ele>66.2</ele>
        <time>2021-06-20T14:32:12Z</time>
      </trkpt>
      <trkpt lat="39.3875790" lon="3.1811020">
        <ele>66.0</ele>
        <time>2021-06-20T14:32:14Z</time>
      </trkpt>
      <trkpt lat="39.3874930" lon="3.1811950">
        <ele>65.9</ele>
        <time>2021-06-20T14:32:16Z</time>
      </trkpt>
      <trkpt lat="39.3871980" lon="3.1815290">
        <ele>65.9</ele>
        <time>2021-06-20T14:32:22Z</time>
      </trkpt>
      <trkpt lat="39.3870940" lon="3.1816580">
        <ele>66.0</ele>
        <time>2021-06-20T14:32:24Z</time>
      </trkpt>
      <trkpt lat="39.3867690" lon="3.1819990">
        <ele>66.2</ele>
        <time>2021-06-20T14:32:31Z</time>
      </trkpt>
      <trkpt lat="39.3866650" lon="3.1821120">
        <ele>66.3</ele>
        <time>2021-06-20T14:32:33Z</time>
      </trkpt>
      <trkpt lat="39.3865120" lon="3.1822640">
        <ele>66.4</ele>
        <time>2021-06-20T14:32:36Z</time>
      </trkpt>
      <trkpt lat="39.3861970" lon="3.1826090">
        <ele>66.7</ele>
        <time>2021-06-20T14:32:43Z</time>
      </trkpt>
      <trkpt lat="39.3861500" lon="3.1826610">
        <ele>66.7</ele>
        <time>2021-06-20T14:32:44Z</time>
      </trkpt>
      <trkpt lat="39.3859980" lon="3.1828150">
        <ele>66.9</ele>
        <time>2021-06-20T14:32:47Z</time>
      </trkpt>
      <trkpt lat="39.3856030" lon="3.1831480">
        <ele>66.5</ele>
        <time>2021-06-20T14:32:54Z</time>
      </trkpt>
      <trkpt lat="39.3851740" lon="3.1835110">
        <ele>65.3</ele>
        <time>2021-06-20T14:33:01Z</time>
      </trkpt>
      <trkpt lat="39.3849180" lon="3.1837620">
        <ele>64.6</ele>
        <time>2021-06-20T14:33:05Z</time>
      </trkpt>
      <trkpt lat="39.3848460" lon="3.1838100">
        <ele>64.5</ele>
        <time>2021-06-20T14:33:06Z</time>
      </trkpt>
      <trkpt lat="39.3843060" lon="3.1840740">
        <ele>63.4</ele>
        <time>2021-06-20T14:33:13Z</time>
      </trkpt>
      <trkpt lat="39.3837230" lon="3.1843760">
        <ele>62.6</ele>
        <time>2021-06-20T14:33:20Z</time>
      </trkpt>
      <trkpt lat="39.3835660" lon="3.1844670">
        <ele>62.4</ele>
        <time>2021-06-20T14:33:22Z</time>
      </trkpt>
      <trkpt lat="39.3830440" lon="3.1847690">
        <ele>61.6</ele>
        <time>2021-06-20T14:33:29Z</time>
      </trkpt>
      <trkpt lat="39.3829680" lon="3.1848000">
        <ele>61.6</ele>
        <time>2021-06-20T14:33:30Z</time>
      </trkpt>
      <trkpt lat="39.3828920" lon="3.1848230">
        <ele>61.5</ele>
        <time>2021-06-20T14:33:31Z</time>
      </trkpt>
      <trkpt lat="39.3827420" lon="3.1848810">
        <ele>61.2</ele>
        <time>2021-06-20T14:33:33Z</time>
      </trkpt>
      <trkpt lat="39.3825940" lon="3.1849750">
        <ele>60.8</ele>
        <time>2021-06-20T14:33:35Z</time>
      </trkpt>
      <trkpt lat="39.3820670" lon="3.1853630">
        <ele>59.6</ele>
        <time>2021-06-20T14:33:42Z</time>
      </trkpt>
      <trkpt lat="39.3819990" lon="3.1854160">
        <ele>59.4</ele>
        <time>2021-06-20T14:33:43Z</time>
      </trkpt>
      <trkpt lat="39.3816520" lon="3.1856760">
        <ele>58.5</ele>
        <time>2021-06-20T14:33:48Z</time>
      </trkpt>
      <trkpt lat="39.3815310" lon="3.1857730">
        <ele>58.3</ele>
        <time>2021-06-20T14:33:50Z</time>
      </trkpt>
      <trkpt lat="39.3813280" lon="3.1859290">
        <ele>58.0</ele>
        <time>2021-06-20T14:33:53Z</time>
      </trkpt>
      <trkpt lat="39.3812680" lon="3.1859650">
        <ele>58.0</ele>
        <time>2021-06-20T14:33:54Z</time>
      </trkpt>
      <trkpt lat="39.3811780" lon="3.1859970">
        <ele>58.1</ele>
        <time>2021-06-20T14:33:56Z</time>
      </trkpt>
      <trkpt lat="39.3810350" lon="3.1860340">
        <ele>57.8</ele>
        <time>2021-06-20T14:34:00Z</time>
      </trkpt>
      <trkpt lat="39.3809980" lon="3.1860620">
        <ele>57.8</ele>
        <time>2021-06-20T14:34:01Z</time>
      </trkpt>
      <trkpt lat="39.3809180" lon="3.1861430">
        <ele>57.6</ele>
        <time>2021-06-20T14:34:03Z</time>
      </trkpt>
      <trkpt lat="39.3808480" lon="3.1862310">
        <ele>57.5</ele>
        <time>2021-06-20T14:34:05Z</time>
      </trkpt>
      <trkpt lat="39.3808130" lon="3.1862810">
        <ele>57.4</ele>
        <time>2021-06-20T14:34:06Z</time>
      </trkpt>
      <trkpt lat="39.3806720" lon="3.1865030">
        <ele>57.1</ele>
        <time>2021-06-20T14:34:10Z</time>
      </trkpt>
      <trkpt lat="39.3804620" lon="3.1868150">
        <ele>56.7</ele>
        <time>2021-06-20T14:34:15Z</time>
      </trkpt>
      <trkpt lat="39.3803450" lon="3.1869970">
        <ele>56.6</ele>
        <time>2021-06-20T14:34:18Z</time>
      </trkpt>
      <trkpt lat="39.3802040" lon="3.1872110">
        <ele>56.5</ele>
        <time>2021-06-20T14:34:21Z</time>
      </trkpt>
      <trkpt lat="39.3800280" lon="3.1874810">
        <ele>56.5</ele>
        <time>2021-06-20T14:34:25Z</time>
      </trkpt>
      <trkpt lat="39.3797520" lon="3.1878990">
        <ele>56.6</ele>
        <time>2021-06-20T14:34:31Z</time>
      </trkpt>
      <trkpt lat="39.3794010" lon="3.1884450">
        <ele>56.3</ele>
        <time>2021-06-20T14:34:39Z</time>
      </trkpt>
      <trkpt lat="39.3792550" lon="3.1886720">
        <ele>56.3</ele>
        <time>2021-06-20T14:34:42Z</time>
      </trkpt>
      <trkpt lat="39.3789970" lon="3.1890730">
        <ele>56.1</ele>
        <time>2021-06-20T14:34:48Z</time>
      </trkpt>
      <trkpt lat="39.3789170" lon="3.1891940">
        <ele>55.9</ele>
        <time>2021-06-20T14:34:50Z</time>
      </trkpt>
      <trkpt lat="39.3785440" lon="3.1897630">
        <ele>55.3</ele>
        <time>2021-06-20T14:34:58Z</time>
      </trkpt>
      <trkpt lat="39.3785040" lon="3.1898330">
        <ele>55.2</ele>
        <time>2021-06-20T14:34:59Z</time>
      </trkpt>
      <trkpt lat="39.3782750" lon="3.1903330">
        <ele>54.9</ele>
        <time>2021-06-20T14:35:06Z</time>
      </trkpt>
      <trkpt lat="39.3782050" lon="3.1905490">
        <ele>54.7</ele>
        <time>2021-06-20T14:35:09Z</time>
      </trkpt>
      <trkpt lat="39.3781880" lon="3.1906100">
        <ele>54.6</ele>
        <time>2021-06-20T14:35:10Z</time>
      </trkpt>
      <trkpt lat="39.3781410" lon="3.1907800">
        <ele>54.5</ele>
        <time>2021-06-20T14:35:12Z</time>
      </trkpt>
      <trkpt lat="39.3780980" lon="3.1909220">
        <ele>54.3</ele>
        <time>2021-06-20T14:35:14Z</time>
      </trkpt>
      <trkpt lat="39.3780700" lon="3.1910010">
        <ele>54.1</ele>
        <time>2021-06-20T14:35:15Z</time>
      </trkpt>
      <trkpt lat="39.3779830" lon="3.1912730">
        <ele>53.6</ele>
        <time>2021-06-20T14:35:18Z</time>
      </trkpt>
      <trkpt lat="39.3779000" lon="3.1915320">
        <ele>53.2</ele>
        <time>2021-06-20T14:35:21Z</time>
      </trkpt>
      <trkpt lat="39.3776420" lon="3.1921660">
        <ele>52.1</ele>
        <time>2021-06-20T14:35:28Z</time>
      </trkpt>
      <trkpt lat="39.3775570" lon="3.1923450">
        <ele>51.8</ele>
        <time>2021-06-20T14:35:30Z</time>
      </trkpt>
      <trkpt lat="39.3774420" lon="3.1925710">
        <ele>51.4</ele>
        <time>2021-06-20T14:35:32Z</time>
      </trkpt>
      <trkpt lat="39.3773850" lon="3.1926770">
        <ele>51.2</ele>
        <time>2021-06-20T14:35:33Z</time>
      </trkpt>
      <trkpt lat="39.3770170" lon="3.1932900">
        <ele>50.4</ele>
        <time>2021-06-20T14:35:39Z</time>
      </trkpt>
      <trkpt lat="39.3769620" lon="3.1933620">
        <ele>50.4</ele>
        <time>2021-06-20T14:35:40Z</time>
      </trkpt>
      <trkpt lat="39.3768090" lon="3.1935620">
        <ele>50.1</ele>
        <time>2021-06-20T14:35:42Z</time>
      </trkpt>
      <trkpt lat="39.3763710" lon="3.1940990">
        <ele>48.7</ele>
        <time>2021-06-20T14:35:48Z</time>
      </trkpt>
      <trkpt lat="39.3761460" lon="3.1943760">
        <ele>47.9</ele>
        <time>2021-06-20T14:35:51Z</time>
      </trkpt>
      <trkpt lat="39.3759410" lon="3.1946280">
        <ele>47.4</ele>
        <time>2021-06-20T14:35:54Z</time>
      </trkpt>
      <trkpt lat="39.3756350" lon="3.1950040">
        <ele>46.1</ele>
        <time>2021-06-20T14:35:58Z</time>
      </trkpt>
      <trkpt lat="39.3753840" lon="3.1953200">
        <ele>45.0</ele>
        <time>2021-06-20T14:36:01Z</time>
      </trkpt>
      <trkpt lat="39.3749840" lon="3.1958130">
        <ele>43.4</ele>
        <time>2021-06-20T14:36:06Z</time>
      </trkpt>
      <trkpt lat="39.3745140" lon="3.1963910">
        <ele>42.7</ele>
        <time>2021-06-20T14:36:12Z</time>
      </trkpt>
      <trkpt lat="39.3741190" lon="3.1968320">
        <ele>42.1</ele>
        <time>2021-06-20T14:36:17Z</time>
      </trkpt>
      <trkpt lat="39.3740330" lon="3.1969080">
        <ele>41.8</ele>
        <time>2021-06-20T14:36:18Z</time>
      </trkpt>
      <trkpt lat="39.3735580" lon="3.1972130">
        <ele>40.5</ele>
        <time>2021-06-20T14:36:23Z</time>
      </trkpt>
      <trkpt lat="39.3732440" lon="3.1973200">
        <ele>39.2</ele>
        <time>2021-06-20T14:36:26Z</time>
      </trkpt>
      <trkpt lat="39.3731390" lon="3.1973370">
        <ele>38.8</ele>
        <time>2021-06-20T14:36:27Z</time>
      </trkpt>
      <trkpt lat="39.3724970" lon="3.1973680">
        <ele>36.3</ele>
        <time>2021-06-20T14:36:33Z</time>
      </trkpt>
      <trkpt lat="39.3722840" lon="3.1973740">
        <ele>35.4</ele>
        <time>2021-06-20T14:36:35Z</time>
      </trkpt>
      <trkpt lat="39.3718610" lon="3.1974530">
        <ele>33.3</ele>
        <time>2021-06-20T14:36:39Z</time>
      </trkpt>
      <trkpt lat="39.3717540" lon="3.1974950">
        <ele>32.8</ele>
        <time>2021-06-20T14:36:40Z</time>
      </trkpt>
      <trkpt lat="39.3713440" lon="3.1977460">
        <ele>31.1</ele>
        <time>2021-06-20T14:36:44Z</time>
      </trkpt>
      <trkpt lat="39.3708870" lon="3.1981920">
        <ele>28.8</ele>
        <time>2021-06-20T14:36:49Z</time>
      </trkpt>
      <trkpt lat="39.3705030" lon="3.1987730">
        <ele>26.3</ele>
        <time>2021-06-20T14:36:54Z</time>
      </trkpt>
      <trkpt lat="39.3702950" lon="3.1991280">
        <ele>25.1</ele>
        <time>2021-06-20T14:36:57Z</time>
      </trkpt>
      <trkpt lat="39.3701280" lon="3.1994040">
        <ele>24.1</ele>
        <time>2021-06-20T14:36:59Z</time>
      </trkpt>
      <trkpt lat="39.3699770" lon="3.1996120">
        <ele>23.3</ele>
        <time>2021-06-20T14:37:01Z</time>
      </trkpt>
      <trkpt lat="39.3695220" lon="3.2001190">
        <ele>19.9</ele>
        <time>2021-06-20T14:37:06Z</time>
      </trkpt>
      <trkpt lat="39.3694300" lon="3.2002160">
        <ele>19.0</ele>
        <time>2021-06-20T14:37:07Z</time>
      </trkpt>
      <trkpt lat="39.3690430" lon="3.2006170">
        <ele>16.0</ele>
        <time>2021-06-20T14:37:11Z</time>
      </trkpt>
      <trkpt lat="39.3686590" lon="3.2010140">
        <ele>13.9</ele>
        <time>2021-06-20T14:37:15Z</time>
      </trkpt>
      <trkpt lat="39.3682090" lon="3.2014890">
        <ele>13.0</ele>
        <time>2021-06-20T14:37:20Z</time>
      </trkpt>
      <trkpt lat="39.3681250" lon="3.2015740">
        <ele>13.0</ele>
        <time>2021-06-20T14:37:21Z</time>
      </trkpt>
      <trkpt lat="39.3678150" lon="3.2018820">
        <ele>13.4</ele>
        <time>2021-06-20T14:37:25Z</time>
      </trkpt>
      <trkpt lat="39.3677390" lon="3.2019470">
        <ele>13.4</ele>
        <time>2021-06-20T14:37:26Z</time>
      </trkpt>
      <trkpt lat="39.3675880" lon="3.2020560">
        <ele>13.5</ele>
        <time>2021-06-20T14:37:28Z</time>
      </trkpt>
      <trkpt lat="39.3674390" lon="3.2021130">
        <ele>13.7</ele>
        <time>2021-06-20T14:37:30Z</time>
      </trkpt>
      <trkpt lat="39.3671580" lon="3.2020980">
        <ele>14.2</ele>
        <time>2021-06-20T14:37:34Z</time>
      </trkpt>
      <trkpt lat="39.3670710" lon="3.2020890">
        <ele>14.5</ele>
        <time>2021-06-20T14:37:36Z</time>
      </trkpt>
      <trkpt lat="39.3669820" lon="3.2020850">
        <ele>14.9</ele>
        <time>2021-06-20T14:37:38Z</time>
      </trkpt>
      <trkpt lat="39.3669010" lon="3.2020510">
        <ele>15.3</ele>
        <time>2021-06-20T14:37:40Z</time>
      </trkpt>
      <trkpt lat="39.3668660" lon="3.2020330">
        <ele>15.5</ele>
        <time>2021-06-20T14:37:41Z</time>
      </trkpt>
      <trkpt lat="39.3667960" lon="3.2020000">
        <ele>15.9</ele>
        <time>2021-06-20T14:37:43Z</time>
      </trkpt>
      <trkpt lat="39.3667470" lon="3.2019620">
        <ele>16.1</ele>
        <time>2021-06-20T14:37:45Z</time>
      </trkpt>
      <trkpt lat="39.3667000" lon="3.2019400">
        <ele>16.3</ele>
        <time>2021-06-20T14:37:47Z</time>
      </trkpt>
      <trkpt lat="39.3666670" lon="3.2019290">
        <ele>16.5</ele>
        <time>2021-06-20T14:37:48Z</time>
      </trkpt>
      <trkpt lat="39.3665420" lon="3.2018880">
        <ele>17.1</ele>
        <time>2021-06-20T14:37:53Z</time>
      </trkpt>
      <trkpt lat="39.3663300" lon="3.2018810">
        <ele>18.1</ele>
        <time>2021-06-20T14:38:00Z</time>
      </trkpt>
      <trkpt lat="39.3663010" lon="3.2018810">
        <ele>18.3</ele>
        <time>2021-06-20T14:38:01Z</time>
      </trkpt>
      <trkpt lat="39.3662780" lon="3.2018850">
        <ele>18.4</ele>
        <time>2021-06-20T14:38:02Z</time>
      </trkpt>
      <trkpt lat="39.3662120" lon="3.2018870">
        <ele>18.8</ele>
        <time>2021-06-20T14:38:05Z</time>
      </trkpt>
      <trkpt lat="39.3658790" lon="3.2019040">
        <ele>20.8</ele>
        <time>2021-06-20T14:38:15Z</time>
      </trkpt>
      <trkpt lat="39.3655240" lon="3.2019480">
        <ele>23.0</ele>
        <time>2021-06-20T14:38:25Z</time>
      </trkpt>
      <trkpt lat="39.3651670" lon="3.2019300">
        <ele>25.3</ele>
        <time>2021-06-20T14:38:35Z</time>
      </trkpt>
      <trkpt lat="39.3650610" lon="3.2019020">
        <ele>26.0</ele>
        <time>2021-06-20T14:38:38Z</time>
      </trkpt>
      <trkpt lat="39.3649900" lon="3.2018780">
        <ele>26.3</ele>
        <time>2021-06-20T14:38:40Z</time>
      </trkpt>
      <trkpt lat="39.3649170" lon="3.2018630">
        <ele>26.7</ele>
        <time>2021-06-20T14:38:42Z</time>
      </trkpt>
      <trkpt lat="39.3648340" lon="3.2018400">
        <ele>27.0</ele>
        <time>2021-06-20T14:38:44Z</time>
      </trkpt>
      <trkpt lat="39.3648040" lon="3.2018290">
        <ele>27.1</ele>
        <time>2021-06-20T14:38:45Z</time>
      </trkpt>
      <trkpt lat="39.3647250" lon="3.2018010">
        <ele>27.4</ele>
        <time>2021-06-20T14:38:47Z</time>
      </trkpt>
      <trkpt lat="39.3646590" lon="3.2017750">
        <ele>27.7</ele>
        <time>2021-06-20T14:38:49Z</time>
      </trkpt>
      <trkpt lat="39.3645810" lon="3.2017410">
        <ele>27.9</ele>
        <time>2021-06-20T14:38:51Z</time>
      </trkpt>
      <trkpt lat="39.3643850" lon="3.2016610">
        <ele>28.5</ele>
        <time>2021-06-20T14:38:56Z</time>
      </trkpt>
      <trkpt lat="39.3640590" lon="3.2015180">
        <ele>28.9</ele>
        <time>2021-06-20T14:39:04Z</time>
      </trkpt>
      <trkpt lat="39.3636520" lon="3.2013590">
        <ele>28.9</ele>
        <time>2021-06-20T14:39:13Z</time>
      </trkpt>
      <trkpt lat="39.3634980" lon="3.2012960">
        <ele>28.7</ele>
        <time>2021-06-20T14:39:16Z</time>
      </trkpt>
      <trkpt lat="39.3633970" lon="3.2012530">
        <ele>28.4</ele>
        <time>2021-06-20T14:39:18Z</time>
      </trkpt>
      <trkpt lat="39.3631930" lon="3.2011770">
        <ele>27.9</ele>
        <time>2021-06-20T14:39:22Z</time>
      </trkpt>
      <trkpt lat="39.3630290" lon="3.2011340">
        <ele>27.4</ele>
        <time>2021-06-20T14:39:25Z</time>
      </trkpt>
      <trkpt lat="39.3626570" lon="3.2010570">
        <ele>26.0</ele>
        <time>2021-06-20T14:39:31Z</time>
      </trkpt>
      <trkpt lat="39.3621970" lon="3.2010690">
        <ele>23.8</ele>
        <time>2021-06-20T14:39:38Z</time>
      </trkpt>
      <trkpt lat="39.3617610" lon="3.2011840">
        <ele>21.8</ele>
        <time>2021-06-20T14:39:44Z</time>
      </trkpt>
      <trkpt lat="39.3612330" lon="3.2014110">
        <ele>20.1</ele>
        <time>2021-06-20T14:39:51Z</time>
      </trkpt>
      <trkpt lat="39.3610720" lon="3.2014050">
        <ele>19.9</ele>
        <time>2021-06-20T14:39:53Z</time>
      </trkpt>
      <trkpt lat="39.3609990" lon="3.2013800">
        <ele>20.0</ele>
        <time>2021-06-20T14:39:54Z</time>
      </trkpt>
      <trkpt lat="39.3608630" lon="3.2013200">
        <ele>20.2</ele>
        <time>2021-06-20T14:39:56Z</time>
      </trkpt>
      <trkpt lat="39.3607990" lon="3.2012810">
        <ele>20.4</ele>
        <time>2021-06-20T14:39:57Z</time>
      </trkpt>
      <trkpt lat="39.3607430" lon="3.2012350">
        <ele>20.5</ele>
        <time>2021-06-20T14:39:58Z</time>
      </trkpt>
      <trkpt lat="39.3606670" lon="3.2011120">
        <ele>21.0</ele>
        <time>2021-06-20T14:40:00Z</time>
      </trkpt>
      <trkpt lat="39.3606370" lon="3.2010520">
        <ele>21.3</ele>
        <time>2021-06-20T14:40:01Z</time>
      </trkpt>
      <trkpt lat="39.3606110" lon="3.2009960">
        <ele>21.6</ele>
        <time>2021-06-20T14:40:02Z</time>
      </trkpt>
      <trkpt lat="39.3605330" lon="3.2008000">
        <ele>22.6</ele>
        <time>2021-06-20T14:40:06Z</time>
      </trkpt>
      <trkpt lat="39.3604640" lon="3.2006790">
        <ele>23.2</ele>
        <time>2021-06-20T14:40:09Z</time>
      </trkpt>
      <trkpt lat="39.3604000" lon="3.2005520">
        <ele>23.7</ele>
        <time>2021-06-20T14:40:12Z</time>
      </trkpt>
      <trkpt lat="39.3602790" lon="3.2003490">
        <ele>24.2</ele>
        <time>2021-06-20T14:40:17Z</time>
      </trkpt>
      <trkpt lat="39.3601530" lon="3.2001370">
        <ele>24.5</ele>
        <time>2021-06-20T14:40:22Z</time>
      </trkpt>
      <trkpt lat="39.3599660" lon="3.1998520">
        <ele>24.5</ele>
        <time>2021-06-20T14:40:28Z</time>
      </trkpt>
      <trkpt lat="39.3599300" lon="3.1998000">
        <ele>24.5</ele>
        <time>2021-06-20T14:40:29Z</time>
      </trkpt>
      <trkpt lat="39.3597880" lon="3.1995940">
        <ele>24.5</ele>
        <time>2021-06-20T14:40:33Z</time>
      </trkpt>
      <trkpt lat="39.3596710" lon="3.1994430">
        <ele>24.4</ele>
        <time>2021-06-20T14:40:36Z</time>
      </trkpt>
      <trkpt lat="39.3596000" lon="3.1993460">
        <ele>24.3</ele>
        <time>2021-06-20T14:40:38Z</time>
      </trkpt>
      <trkpt lat="39.3594660" lon="3.1991380">
        <ele>24.1</ele>
        <time>2021-06-20T14:40:42Z</time>
      </trkpt>
      <trkpt lat="39.3593340" lon="3.1989340">
        <ele>24.0</ele>
        <time>2021-06-20T14:40:46Z</time>
      </trkpt>
      <trkpt lat="39.3592310" lon="3.1987860">
        <ele>24.1</ele>
        <time>2021-06-20T14:40:49Z</time>
      </trkpt>
      <trkpt lat="39.3591950" lon="3.1987450">
        <ele>24.1</ele>
        <time>2021-06-20T14:40:50Z</time>
      </trkpt>
      <trkpt lat="39.3591600" lon="3.1987130">
        <ele>24.2</ele>
        <time>2021-06-20T14:40:53Z</time>
      </trkpt>
      <trkpt lat="39.3591450" lon="3.1987100">
        <ele>24.1</ele>
        <time>2021-06-20T14:40:54Z</time>
      </trkpt>
      <trkpt lat="39.3590610" lon="3.1987630">
        <ele>23.9</ele>
        <time>2021-06-20T14:40:57Z</time>
      </trkpt>
      <trkpt lat="39.3588700" lon="3.1989740">
        <ele>23.4</ele>
        <time>2021-06-20T14:41:02Z</time>
      </trkpt>
      <trkpt lat="39.3585680" lon="3.1993310">
        <ele>23.5</ele>
        <time>2021-06-20T14:41:09Z</time>
      </trkpt>
      <trkpt lat="39.3584830" lon="3.1994300">
        <ele>23.7</ele>
        <time>2021-06-20T14:41:11Z</time>
      </trkpt>
      <trkpt lat="39.3581900" lon="3.1997630">
        <ele>24.6</ele>
        <time>2021-06-20T14:41:18Z</time>
      </trkpt>
      <trkpt lat="39.3579760" lon="3.2000070">
        <ele>25.2</ele>
        <time>2021-06-20T14:41:23Z</time>
      </trkpt>
      <trkpt lat="39.3579380" lon="3.2000540">
        <ele>25.3</ele>
        <time>2021-06-20T14:41:24Z</time>
      </trkpt>
      <trkpt lat="39.3578620" lon="3.2001410">
        <ele>25.5</ele>
        <time>2021-06-20T14:41:26Z</time>
      </trkpt>
      <trkpt lat="39.3577850" lon="3.2002210">
        <ele>25.6</ele>
        <time>2021-06-20T14:41:28Z</time>
      </trkpt>
      <trkpt lat="39.3576440" lon="3.2003550">
        <ele>25.7</ele>
        <time>2021-06-20T14:41:31Z</time>
      </trkpt>
      <trkpt lat="39.3576090" lon="3.2003950">
        <ele>25.7</ele>
        <time>2021-06-20T14:41:32Z</time>
      </trkpt>
      <trkpt lat="39.3575170" lon="3.2004980">
        <ele>25.6</ele>
        <time>2021-06-20T14:41:34Z</time>
      </trkpt>
      <trkpt lat="39.3573520" lon="3.2006950">
        <ele>25.3</ele>
        <time>2021-06-20T14:41:38Z</time>
      </trkpt>
      <trkpt lat="39.3573130" lon="3.2007260">
        <ele>25.3</ele>
        <time>2021-06-20T14:41:39Z</time>
      </trkpt>
      <trkpt lat="39.3572650" lon="3.2007410">
        <ele>25.1</ele>
        <time>2021-06-20T14:41:40Z</time>
      </trkpt>
      <trkpt lat="39.3572200" lon="3.2007250">
        <ele>25.1</ele>
        <time>2021-06-20T14:41:41Z</time>
      </trkpt>
      <trkpt lat="39.3571880" lon="3.2006810">
        <ele>25.1</ele>
        <time>2021-06-20T14:41:42Z</time>
      </trkpt>
      <trkpt lat="39.3571590" lon="3.2005570">
        <ele>25.1</ele>
        <time>2021-06-20T14:41:44Z</time>
      </trkpt>
      <trkpt lat="39.3571380" lon="3.2000070">
        <ele>25.1</ele>
        <time>2021-06-20T14:41:52Z</time>
      </trkpt>
      <trkpt lat="39.3571030" lon="3.1996080">
        <ele>25.0</ele>
        <time>2021-06-20T14:41:57Z</time>
      </trkpt>
      <trkpt lat="39.3570400" lon="3.1990610">
        <ele>25.0</ele>
        <time>2021-06-20T14:42:04Z</time>
      </trkpt>
      <trkpt lat="39.3570140" lon="3.1988330">
        <ele>25.1</ele>
        <time>2021-06-20T14:42:07Z</time>
      </trkpt>
      <trkpt lat="39.3569820" lon="3.1986030">
        <ele>25.1</ele>
        <time>2021-06-20T14:42:10Z</time>
      </trkpt>
      <trkpt lat="39.3569540" lon="3.1984580">
        <ele>25.2</ele>
        <time>2021-06-20T14:42:12Z</time>
      </trkpt>
      <trkpt lat="39.3569070" lon="3.1982410">
        <ele>25.3</ele>
        <time>2021-06-20T14:42:15Z</time>
      </trkpt>
      <trkpt lat="39.3568740" lon="3.1981000">
        <ele>25.4</ele>
        <time>2021-06-20T14:42:17Z</time>
      </trkpt>
      <trkpt lat="39.3568570" lon="3.1980290">
        <ele>25.4</ele>
        <time>2021-06-20T14:42:18Z</time>
      </trkpt>
      <trkpt lat="39.3568240" lon="3.1978920">
        <ele>25.4</ele>
        <time>2021-06-20T14:42:20Z</time>
      </trkpt>
      <trkpt lat="39.3567510" lon="3.1975450">
        <ele>24.9</ele>
        <time>2021-06-20T14:42:25Z</time>
      </trkpt>
      <trkpt lat="39.3566760" lon="3.1970660">
        <ele>24.0</ele>
        <time>2021-06-20T14:42:32Z</time>
      </trkpt>
      <trkpt lat="39.3566560" lon="3.1969900">
        <ele>23.9</ele>
        <time>2021-06-20T14:42:33Z</time>
      </trkpt>
      <trkpt lat="39.3566060" lon="3.1968530">
        <ele>23.9</ele>
        <time>2021-06-20T14:42:35Z</time>
      </trkpt>
      <trkpt lat="39.3565780" lon="3.1967890">
        <ele>24.0</ele>
        <time>2021-06-20T14:42:36Z</time>
      </trkpt>
      <trkpt lat="39.3564020" lon="3.1964000">
        <ele>25.3</ele>
        <time>2021-06-20T14:42:43Z</time>
      </trkpt>
      <trkpt lat="39.3562580" lon="3.1960740">
        <ele>26.7</ele>
        <time>2021-06-20T14:42:50Z</time>
      </trkpt>
      <trkpt lat="39.3562060" lon="3.1958590">
        <ele>27.2</ele>
        <time>2021-06-20T14:42:54Z</time>
      </trkpt>
      <trkpt lat="39.3562020" lon="3.1957470">
        <ele>27.4</ele>
        <time>2021-06-20T14:42:56Z</time>
      </trkpt>
      <trkpt lat="39.3562100" lon="3.1956940">
        <ele>27.4</ele>
        <time>2021-06-20T14:42:57Z</time>
      </trkpt>
      <trkpt lat="39.3562750" lon="3.1954630">
        <ele>27.7</ele>
        <time>2021-06-20T14:43:01Z</time>
      </trkpt>
      <trkpt lat="39.3563880" lon="3.1950670">
        <ele>28.3</ele>
        <time>2021-06-20T14:43:08Z</time>
      </trkpt>
      <trkpt lat="39.3564280" lon="3.1949560">
        <ele>28.5</ele>
        <time>2021-06-20T14:43:10Z</time>
      </trkpt>
      <trkpt lat="39.3566710" lon="3.1942820">
        <ele>30.1</ele>
        <time>2021-06-20T14:43:22Z</time>
      </trkpt>
      <trkpt lat="39.3568060" lon="3.1939070">
        <ele>30.4</ele>
        <time>2021-06-20T14:43:29Z</time>
      </trkpt>
      <trkpt lat="39.3568470" lon="3.1938040">
        <ele>30.4</ele>
        <time>2021-06-20T14:43:31Z</time>
      </trkpt>
      <trkpt lat="39.3569050" lon="3.1936400">
        <ele>30.4</ele>
        <time>2021-06-20T14:43:34Z</time>
      </trkpt>
      <trkpt lat="39.3570180" lon="3.1933620">
        <ele>30.3</ele>
        <time>2021-06-20T14:43:39Z</time>
      </trkpt>
      <trkpt lat="39.3570360" lon="3.1933010">
        <ele>30.3</ele>
        <time>2021-06-20T14:43:40Z</time>
      </trkpt>
      <trkpt lat="39.3570680" lon="3.1931770">
        <ele>30.2</ele>
        <time>2021-06-20T14:43:42Z</time>
      </trkpt>
      <trkpt lat="39.3571010" lon="3.1930480">
        <ele>30.2</ele>
        <time>2021-06-20T14:43:44Z</time>
      </trkpt>
      <trkpt lat="39.3571140" lon="3.1929820">
        <ele>30.1</ele>
        <time>2021-06-20T14:43:45Z</time>
      </trkpt>
      <trkpt lat="39.3571220" lon="3.1929210">
        <ele>30.1</ele>
        <time>2021-06-20T14:43:46Z</time>
      </trkpt>
      <trkpt lat="39.3571190" lon="3.1927960">
        <ele>29.9</ele>
        <time>2021-06-20T14:43:48Z</time>
      </trkpt>
      <trkpt lat="39.3570370" lon="3.1922680">
        <ele>29.2</ele>
        <time>2021-06-20T14:43:56Z</time>
      </trkpt>
      <trkpt lat="39.3568850" lon="3.1917570">
        <ele>28.6</ele>
        <time>2021-06-20T14:44:04Z</time>
      </trkpt>
      <trkpt lat="39.3568020" lon="3.1915890">
        <ele>28.3</ele>
        <time>2021-06-20T14:44:07Z</time>
      </trkpt>
      <trkpt lat="39.3566790" lon="3.1913730">
        <ele>27.9</ele>
        <time>2021-06-20T14:44:11Z</time>
      </trkpt>
      <trkpt lat="39.3563990" lon="3.1909600">
        <ele>27.1</ele>
        <time>2021-06-20T14:44:19Z</time>
      </trkpt>
      <trkpt lat="39.3562800" lon="3.1908360">
        <ele>26.7</ele>
        <time>2021-06-20T14:44:22Z</time>
      </trkpt>
      <trkpt lat="39.3562040" lon="3.1907490">
        <ele>26.3</ele>
        <time>2021-06-20T14:44:24Z</time>
      </trkpt>
      <trkpt lat="39.3561290" lon="3.1906520">
        <ele>25.8</ele>
        <time>2021-06-20T14:44:26Z</time>
      </trkpt>
      <trkpt lat="39.3560100" lon="3.1905000">
        <ele>24.9</ele>
        <time>2021-06-20T14:44:29Z</time>
      </trkpt>
      <trkpt lat="39.3558560" lon="3.1903390">
        <ele>23.6</ele>
        <time>2021-06-20T14:44:32Z</time>
      </trkpt>
      <trkpt lat="39.3554610" lon="3.1899850">
        <ele>20.7</ele>
        <time>2021-06-20T14:44:39Z</time>
      </trkpt>
      <trkpt lat="39.3553550" lon="3.1899320">
        <ele>20.1</ele>
        <time>2021-06-20T14:44:41Z</time>
      </trkpt>
      <trkpt lat="39.3552670" lon="3.1898910">
        <ele>19.6</ele>
        <time>2021-06-20T14:44:43Z</time>
      </trkpt>
      <trkpt lat="39.3551520" lon="3.1898290">
        <ele>18.8</ele>
        <time>2021-06-20T14:44:47Z</time>
      </trkpt>
      <trkpt lat="39.3550970" lon="3.1897900">
        <ele>18.4</ele>
        <time>2021-06-20T14:44:52Z</time>
      </trkpt>
      <trkpt lat="39.3551030" lon="3.1897860">
        <ele>18.4</ele>
        <time>2021-06-20T14:45:01Z</time>
      </trkpt>
      <trkpt lat="39.3551010" lon="3.1897860">
        <ele>18.4</ele>
        <time>2021-06-20T14:45:22Z</time>
      </trkpt>
      <trkpt lat="39.3550300" lon="3.1897500">
        <ele>17.9</ele>
        <time>2021-06-20T14:45:25Z</time>
      </trkpt>
      <trkpt lat="39.3549100" lon="3.1897000">
        <ele>17.3</ele>
        <time>2021-06-20T14:45:28Z</time>
      </trkpt>
      <trkpt lat="39.3548600" lon="3.1896880">
        <ele>17.1</ele>
        <time>2021-06-20T14:45:29Z</time>
      </trkpt>
      <trkpt lat="39.3547020" lon="3.1896720">
        <ele>16.5</ele>
        <time>2021-06-20T14:45:32Z</time>
      </trkpt>
      <trkpt lat="39.3545400" lon="3.1896710">
        <ele>16.0</ele>
        <time>2021-06-20T14:45:35Z</time>
      </trkpt>
      <trkpt lat="39.3541850" lon="3.1896970">
        <ele>15.1</ele>
        <time>2021-06-20T14:45:41Z</time>
      </trkpt>
      <trkpt lat="39.3537820" lon="3.1898140">
        <ele>14.3</ele>
        <time>2021-06-20T14:45:48Z</time>
      </trkpt>
      <trkpt lat="39.3537010" lon="3.1898460">
        <ele>14.2</ele>
        <time>2021-06-20T14:45:50Z</time>
      </trkpt>
      <trkpt lat="39.3536670" lon="3.1898780">
        <ele>14.1</ele>
        <time>2021-06-20T14:45:52Z</time>
      </trkpt>
      <trkpt lat="39.3536650" lon="3.1898820">
        <ele>14.1</ele>
        <time>2021-06-20T14:45:55Z</time>
      </trkpt>
      <trkpt lat="39.3536650" lon="3.1898820">
        <ele>14.1</ele>
        <time>2021-06-20T14:45:58Z</time>
      </trkpt>
      <trkpt lat="39.3540800" lon="3.1898450">
        <ele>14.8</ele>
        <time>2021-06-21T07:54:25Z</time>
      </trkpt>
      <trkpt lat="39.3540760" lon="3.1898410">
        <ele>14.9</ele>
        <time>2021-06-21T07:54:26Z</time>
      </trkpt>
      <trkpt lat="39.3540730" lon="3.1898380">
        <ele>14.9</ele>
        <time>2021-06-21T07:54:33Z</time>
      </trkpt>
      <trkpt lat="39.3540610" lon="3.1898200">
        <ele>14.9</ele>
        <time>2021-06-21T07:54:39Z</time>
      </trkpt>
      <trkpt lat="39.3540610" lon="3.1898200">
        <ele>14.9</ele>
        <time>2021-06-21T07:54:43Z</time>
      </trkpt>
      <trkpt lat="39.3540760" lon="3.1898180">
        <ele>14.9</ele>
        <time>2021-06-21T07:54:57Z</time>
      </trkpt>
      <trkpt lat="39.3541730" lon="3.1897700">
        <ele>15.1</ele>
        <time>2021-06-21T07:55:02Z</time>
      </trkpt>
      <trkpt lat="39.3543000" lon="3.1897310">
        <ele>15.4</ele>
        <time>2021-06-21T07:55:08Z</time>
      </trkpt>
      <trkpt lat="39.3544820" lon="3.1896840">
        <ele>15.9</ele>
        <time>2021-06-21T07:55:14Z</time>
      </trkpt>
      <trkpt lat="39.3545520" lon="3.1896540">
        <ele>16.1</ele>
        <time>2021-06-21T07:55:17Z</time>
      </trkpt>
      <trkpt lat="39.3546230" lon="3.1896330">
        <ele>16.4</ele>
        <time>2021-06-21T07:55:20Z</time>
      </trkpt>
      <trkpt lat="39.3546480" lon="3.1896390">
        <ele>16.4</ele>
        <time>2021-06-21T07:55:21Z</time>
      </trkpt>
      <trkpt lat="39.3548130" lon="3.1896340">
        <ele>17.0</ele>
        <time>2021-06-21T07:55:27Z</time>
      </trkpt>
      <trkpt lat="39.3548600" lon="3.1896340">
        <ele>17.1</ele>
        <time>2021-06-21T07:55:29Z</time>
      </trkpt>
      <trkpt lat="39.3548800" lon="3.1896330">
        <ele>17.2</ele>
        <time>2021-06-21T07:55:30Z</time>
      </trkpt>
      <trkpt lat="39.3551140" lon="3.1896620">
        <ele>18.4</ele>
        <time>2021-06-21T07:55:39Z</time>
      </trkpt>
      <trkpt lat="39.3552170" lon="3.1897230">
        <ele>19.1</ele>
        <time>2021-06-21T07:55:43Z</time>
      </trkpt>
      <trkpt lat="39.3552790" lon="3.1897650">
        <ele>19.5</ele>
        <time>2021-06-21T07:55:46Z</time>
      </trkpt>
      <trkpt lat="39.3553800" lon="3.1898300">
        <ele>20.1</ele>
        <time>2021-06-21T07:55:52Z</time>
      </trkpt>
      <trkpt lat="39.3554290" lon="3.1898630">
        <ele>20.4</ele>
        <time>2021-06-21T07:55:57Z</time>
      </trkpt>
      <trkpt lat="39.3554520" lon="3.1898840">
        <ele>20.5</ele>
        <time>2021-06-21T07:55:58Z</time>
      </trkpt>
      <trkpt lat="39.3555050" lon="3.1899410">
        <ele>20.8</ele>
        <time>2021-06-21T07:56:00Z</time>
      </trkpt>
      <trkpt lat="39.3556320" lon="3.1900540">
        <ele>21.7</ele>
        <time>2021-06-21T07:56:05Z</time>
      </trkpt>
      <trkpt lat="39.3557470" lon="3.1901550">
        <ele>22.5</ele>
        <time>2021-06-21T07:56:12Z</time>
      </trkpt>
      <trkpt lat="39.3558460" lon="3.1902730">
        <ele>23.3</ele>
        <time>2021-06-21T07:56:18Z</time>
      </trkpt>
      <trkpt lat="39.3559870" lon="3.1904410">
        <ele>24.6</ele>
        <time>2021-06-21T07:56:24Z</time>
      </trkpt>
      <trkpt lat="39.3560480" lon="3.1905130">
        <ele>25.1</ele>
        <time>2021-06-21T07:56:27Z</time>
      </trkpt>
      <trkpt lat="39.3561430" lon="3.1906170">
        <ele>25.8</ele>
        <time>2021-06-21T07:56:31Z</time>
      </trkpt>
      <trkpt lat="39.3562120" lon="3.1906980">
        <ele>26.2</ele>
        <time>2021-06-21T07:56:34Z</time>
      </trkpt>
      <trkpt lat="39.3562900" lon="3.1907970">
        <ele>26.7</ele>
        <time>2021-06-21T07:56:39Z</time>
      </trkpt>
      <trkpt lat="39.3563560" lon="3.1908630">
        <ele>26.9</ele>
        <time>2021-06-21T07:56:43Z</time>
      </trkpt>
      <trkpt lat="39.3563970" lon="3.1908960">
        <ele>27.0</ele>
        <time>2021-06-21T07:56:45Z</time>
      </trkpt>
      <trkpt lat="39.3564800" lon="3.1909400">
        <ele>27.2</ele>
        <time>2021-06-21T07:56:51Z</time>
      </trkpt>
      <trkpt lat="39.3564850" lon="3.1909540">
        <ele>27.2</ele>
        <time>2021-06-21T07:56:52Z</time>
      </trkpt>
      <trkpt lat="39.3565130" lon="3.1910430">
        <ele>27.4</ele>
        <time>2021-06-21T07:56:56Z</time>
      </trkpt>
      <trkpt lat="39.3565250" lon="3.1910650">
        <ele>27.4</ele>
        <time>2021-06-21T07:56:57Z</time>
      </trkpt>
      <trkpt lat="39.3565710" lon="3.1911170">
        <ele>27.5</ele>
        <time>2021-06-21T07:57:00Z</time>
      </trkpt>
      <trkpt lat="39.3566060" lon="3.1911690">
        <ele>27.6</ele>
        <time>2021-06-21T07:57:02Z</time>
      </trkpt>
      <trkpt lat="39.3566600" lon="3.1912580">
        <ele>27.8</ele>
        <time>2021-06-21T07:57:05Z</time>
      </trkpt>
      <trkpt lat="39.3567060" lon="3.1913300">
        <ele>27.9</ele>
        <time>2021-06-21T07:57:08Z</time>
      </trkpt>
      <trkpt lat="39.3567940" lon="3.1914880">
        <ele>28.2</ele>
        <time>2021-06-21T07:57:14Z</time>
      </trkpt>
      <trkpt lat="39.3568870" lon="3.1916680">
        <ele>28.5</ele>
        <time>2021-06-21T07:57:20Z</time>
      </trkpt>
      <trkpt lat="39.3570030" lon="3.1918960">
        <ele>28.8</ele>
        <time>2021-06-21T07:57:27Z</time>
      </trkpt>
      <trkpt lat="39.3570170" lon="3.1919420">
        <ele>28.8</ele>
        <time>2021-06-21T07:57:29Z</time>
      </trkpt>
      <trkpt lat="39.3570420" lon="3.1920540">
        <ele>28.9</ele>
        <time>2021-06-21T07:57:32Z</time>
      </trkpt>
      <trkpt lat="39.3570720" lon="3.1922560">
        <ele>29.2</ele>
        <time>2021-06-21T07:57:37Z</time>
      </trkpt>
      <trkpt lat="39.3570820" lon="3.1923760">
        <ele>29.3</ele>
        <time>2021-06-21T07:57:40Z</time>
      </trkpt>
      <trkpt lat="39.3571210" lon="3.1926830">
        <ele>29.8</ele>
        <time>2021-06-21T07:57:47Z</time>
      </trkpt>
      <trkpt lat="39.3571300" lon="3.1929350">
        <ele>30.1</ele>
        <time>2021-06-21T07:57:54Z</time>
      </trkpt>
      <trkpt lat="39.3570820" lon="3.1931240">
        <ele>30.2</ele>
        <time>2021-06-21T07:57:59Z</time>
      </trkpt>
      <trkpt lat="39.3570570" lon="3.1932000">
        <ele>30.3</ele>
        <time>2021-06-21T07:58:01Z</time>
      </trkpt>
      <trkpt lat="39.3569210" lon="3.1935210">
        <ele>30.4</ele>
        <time>2021-06-21T07:58:09Z</time>
      </trkpt>
      <trkpt lat="39.3568650" lon="3.1936740">
        <ele>30.4</ele>
        <time>2021-06-21T07:58:13Z</time>
      </trkpt>
      <trkpt lat="39.3568030" lon="3.1938380">
        <ele>30.4</ele>
        <time>2021-06-21T07:58:17Z</time>
      </trkpt>
      <trkpt lat="39.3567700" lon="3.1939200">
        <ele>30.4</ele>
        <time>2021-06-21T07:58:19Z</time>
      </trkpt>
      <trkpt lat="39.3565920" lon="3.1943860">
        <ele>29.8</ele>
        <time>2021-06-21T07:58:29Z</time>
      </trkpt>
      <trkpt lat="39.3565470" lon="3.1944920">
        <ele>29.6</ele>
        <time>2021-06-21T07:58:31Z</time>
      </trkpt>
      <trkpt lat="39.3564580" lon="3.1947330">
        <ele>29.0</ele>
        <time>2021-06-21T07:58:35Z</time>
      </trkpt>
      <trkpt lat="39.3564370" lon="3.1947970">
        <ele>28.8</ele>
        <time>2021-06-21T07:58:36Z</time>
      </trkpt>
      <trkpt lat="39.3563530" lon="3.1950820">
        <ele>28.3</ele>
        <time>2021-06-21T07:58:40Z</time>
      </trkpt>
      <trkpt lat="39.3561990" lon="3.1956010">
        <ele>27.6</ele>
        <time>2021-06-21T07:58:47Z</time>
      </trkpt>
      <trkpt lat="39.3561840" lon="3.1956750">
        <ele>27.5</ele>
        <time>2021-06-21T07:58:48Z</time>
      </trkpt>
      <trkpt lat="39.3561870" lon="3.1959060">
        <ele>27.1</ele>
        <time>2021-06-21T07:58:51Z</time>
      </trkpt>
      <trkpt lat="39.3561990" lon="3.1959810">
        <ele>27.0</ele>
        <time>2021-06-21T07:58:52Z</time>
      </trkpt>
      <trkpt lat="39.3562790" lon="3.1962110">
        <ele>26.2</ele>
        <time>2021-06-21T07:58:55Z</time>
      </trkpt>
      <trkpt lat="39.3564720" lon="3.1966650">
        <ele>24.3</ele>
        <time>2021-06-21T07:59:00Z</time>
      </trkpt>
      <trkpt lat="39.3566360" lon="3.1970660">
        <ele>24.0</ele>
        <time>2021-06-21T07:59:04Z</time>
      </trkpt>
      <trkpt lat="39.3566780" lon="3.1972660">
        <ele>24.2</ele>
        <time>2021-06-21T07:59:06Z</time>
      </trkpt>
      <trkpt lat="39.3567360" lon="3.1975720">
        <ele>25.0</ele>
        <time>2021-06-21T07:59:10Z</time>
      </trkpt>
      <trkpt lat="39.3568150" lon="3.1979610">
        <ele>25.5</ele>
        <time>2021-06-21T07:59:16Z</time>
      </trkpt>
      <trkpt lat="39.3569160" lon="3.1983900">
        <ele>25.2</ele>
        <time>2021-06-21T07:59:24Z</time>
      </trkpt>
      <trkpt lat="39.3569980" lon="3.1989520">
        <ele>25.0</ele>
        <time>2021-06-21T07:59:33Z</time>
      </trkpt>
      <trkpt lat="39.3570550" lon="3.1993570">
        <ele>25.0</ele>
        <time>2021-06-21T07:59:39Z</time>
      </trkpt>
      <trkpt lat="39.3570720" lon="3.1994870">
        <ele>25.0</ele>
        <time>2021-06-21T07:59:41Z</time>
      </trkpt>
      <trkpt lat="39.3570860" lon="3.1996140">
        <ele>25.0</ele>
        <time>2021-06-21T07:59:43Z</time>
      </trkpt>
      <trkpt lat="39.3571060" lon="3.1997390">
        <ele>25.0</ele>
        <time>2021-06-21T07:59:45Z</time>
      </trkpt>
      <trkpt lat="39.3571390" lon="3.2000270">
        <ele>25.2</ele>
        <time>2021-06-21T07:59:50Z</time>
      </trkpt>
      <trkpt lat="39.3571600" lon="3.2002090">
        <ele>25.2</ele>
        <time>2021-06-21T07:59:53Z</time>
      </trkpt>
      <trkpt lat="39.3571900" lon="3.2005350">
        <ele>25.1</ele>
        <time>2021-06-21T07:59:58Z</time>
      </trkpt>
      <trkpt lat="39.3572030" lon="3.2006530">
        <ele>25.1</ele>
        <time>2021-06-21T08:00:00Z</time>
      </trkpt>
      <trkpt lat="39.3572090" lon="3.2006980">
        <ele>25.1</ele>
        <time>2021-06-21T08:00:01Z</time>
      </trkpt>
      <trkpt lat="39.3572160" lon="3.2007380">
        <ele>25.1</ele>
        <time>2021-06-21T08:00:02Z</time>
      </trkpt>
      <trkpt lat="39.3572350" lon="3.2008180">
        <ele>25.1</ele>
        <time>2021-06-21T08:00:04Z</time>
      </trkpt>
      <trkpt lat="39.3572520" lon="3.2008260">
        <ele>25.2</ele>
        <time>2021-06-21T08:00:06Z</time>
      </trkpt>
      <trkpt lat="39.3572720" lon="3.2008250">
        <ele>25.2</ele>
        <time>2021-06-21T08:00:07Z</time>
      </trkpt>
      <trkpt lat="39.3573500" lon="3.2007490">
        <ele>25.3</ele>
        <time>2021-06-21T08:00:10Z</time>
      </trkpt>
      <trkpt lat="39.3574770" lon="3.2006150">
        <ele>25.5</ele>
        <time>2021-06-21T08:00:14Z</time>
      </trkpt>
      <trkpt lat="39.3576660" lon="3.2004120">
        <ele>25.7</ele>
        <time>2021-06-21T08:00:20Z</time>
      </trkpt>
      <trkpt lat="39.3577890" lon="3.2002760">
        <ele>25.7</ele>
        <time>2021-06-21T08:00:24Z</time>
      </trkpt>
      <trkpt lat="39.3580500" lon="3.1999670">
        <ele>25.1</ele>
        <time>2021-06-21T08:00:32Z</time>
      </trkpt>
      <trkpt lat="39.3583630" lon="3.1996120">
        <ele>24.1</ele>
        <time>2021-06-21T08:00:40Z</time>
      </trkpt>
      <trkpt lat="39.3585260" lon="3.1994090">
        <ele>23.6</ele>
        <time>2021-06-21T08:00:44Z</time>
      </trkpt>
      <trkpt lat="39.3587460" lon="3.1991640">
        <ele>23.3</ele>
        <time>2021-06-21T08:00:49Z</time>
      </trkpt>
      <trkpt lat="39.3590280" lon="3.1988600">
        <ele>23.7</ele>
        <time>2021-06-21T08:00:56Z</time>
      </trkpt>
      <trkpt lat="39.3591050" lon="3.1987770">
        <ele>24.0</ele>
        <time>2021-06-21T08:00:58Z</time>
      </trkpt>
      <trkpt lat="39.3592730" lon="3.1985850">
        <ele>24.3</ele>
        <time>2021-06-21T08:01:03Z</time>
      </trkpt>
      <trkpt lat="39.3593360" lon="3.1985170">
        <ele>24.4</ele>
        <time>2021-06-21T08:01:05Z</time>
      </trkpt>
      <trkpt lat="39.3593850" lon="3.1984420">
        <ele>24.6</ele>
        <time>2021-06-21T08:01:07Z</time>
      </trkpt>
      <trkpt lat="39.3594110" lon="3.1984080">
        <ele>24.7</ele>
        <time>2021-06-21T08:01:08Z</time>
      </trkpt>
      <trkpt lat="39.3595760" lon="3.1982600">
        <ele>25.4</ele>
        <time>2021-06-21T08:01:14Z</time>
      </trkpt>
      <trkpt lat="39.3597620" lon="3.1980560">
        <ele>26.5</ele>
        <time>2021-06-21T08:01:21Z</time>
      </trkpt>
      <trkpt lat="39.3598050" lon="3.1979930">
        <ele>26.8</ele>
        <time>2021-06-21T08:01:23Z</time>
      </trkpt>
      <trkpt lat="39.3598270" lon="3.1979630">
        <ele>26.9</ele>
        <time>2021-06-21T08:01:24Z</time>
      </trkpt>
      <trkpt lat="39.3598740" lon="3.1978950">
        <ele>27.2</ele>
        <time>2021-06-21T08:01:26Z</time>
      </trkpt>
      <trkpt lat="39.3598960" lon="3.1978630">
        <ele>27.4</ele>
        <time>2021-06-21T08:01:27Z</time>
      </trkpt>
      <trkpt lat="39.3599590" lon="3.1977970">
        <ele>27.8</ele>
        <time>2021-06-21T08:01:30Z</time>
      </trkpt>
      <trkpt lat="39.3599980" lon="3.1977420">
        <ele>28.0</ele>
        <time>2021-06-21T08:01:32Z</time>
      </trkpt>
      <trkpt lat="39.3600980" lon="3.1976400">
        <ele>28.5</ele>
        <time>2021-06-21T08:01:36Z</time>
      </trkpt>
      <trkpt lat="39.3601740" lon="3.1975600">
        <ele>28.9</ele>
        <time>2021-06-21T08:01:39Z</time>
      </trkpt>
      <trkpt lat="39.3603300" lon="3.1973740">
        <ele>29.5</ele>
        <time>2021-06-21T08:01:45Z</time>
      </trkpt>
      <trkpt lat="39.3604300" lon="3.1972330">
        <ele>29.8</ele>
        <time>2021-06-21T08:01:49Z</time>
      </trkpt>
      <trkpt lat="39.3605680" lon="3.1969390">
        <ele>30.1</ele>
        <time>2021-06-21T08:01:56Z</time>
      </trkpt>
      <trkpt lat="39.3606410" lon="3.1967840">
        <ele>30.2</ele>
        <time>2021-06-21T08:02:01Z</time>
      </trkpt>
      <trkpt lat="39.3606660" lon="3.1967210">
        <ele>30.2</ele>
        <time>2021-06-21T08:02:03Z</time>
      </trkpt>
      <trkpt lat="39.3607260" lon="3.1966050">
        <ele>30.2</ele>
        <time>2021-06-21T08:02:07Z</time>
      </trkpt>
      <trkpt lat="39.3607460" lon="3.1965660">
        <ele>30.2</ele>
        <time>2021-06-21T08:02:09Z</time>
      </trkpt>
      <trkpt lat="39.3607480" lon="3.1965590">
        <ele>30.3</ele>
        <time>2021-06-21T08:02:11Z</time>
      </trkpt>
      <trkpt lat="39.3607480" lon="3.1965590">
        <ele>30.3</ele>
        <time>2021-06-21T08:02:14Z</time>
      </trkpt>
      <trkpt lat="39.3607580" lon="3.1965380">
        <ele>30.3</ele>
        <time>2021-06-21T08:02:17Z</time>
      </trkpt>
      <trkpt lat="39.3607650" lon="3.1965210">
        <ele>30.3</ele>
        <time>2021-06-21T08:02:18Z</time>
      </trkpt>
      <trkpt lat="39.3607890" lon="3.1964750">
        <ele>30.3</ele>
        <time>2021-06-21T08:02:20Z</time>
      </trkpt>
      <trkpt lat="39.3608340" lon="3.1963860">
        <ele>30.3</ele>
        <time>2021-06-21T08:02:23Z</time>
      </trkpt>
      <trkpt lat="39.3608930" lon="3.1962760">
        <ele>30.4</ele>
        <time>2021-06-21T08:02:26Z</time>
      </trkpt>
      <trkpt lat="39.3609530" lon="3.1961640">
        <ele>30.5</ele>
        <time>2021-06-21T08:02:29Z</time>
      </trkpt>
      <trkpt lat="39.3610360" lon="3.1959960">
        <ele>30.6</ele>
        <time>2021-06-21T08:02:33Z</time>
      </trkpt>
      <trkpt lat="39.3610780" lon="3.1959060">
        <ele>30.7</ele>
        <time>2021-06-21T08:02:35Z</time>
      </trkpt>
      <trkpt lat="39.3612270" lon="3.1957010">
        <ele>31.0</ele>
        <time>2021-06-21T08:02:41Z</time>
      </trkpt>
      <trkpt lat="39.3613730" lon="3.1955290">
        <ele>31.3</ele>
        <time>2021-06-21T08:02:46Z</time>
      </trkpt>
      <trkpt lat="39.3615270" lon="3.1953610">
        <ele>31.6</ele>
        <time>2021-06-21T08:02:51Z</time>
      </trkpt>
      <trkpt lat="39.3617510" lon="3.1951310">
        <ele>32.0</ele>
        <time>2021-06-21T08:02:58Z</time>
      </trkpt>
      <trkpt lat="39.3618170" lon="3.1950660">
        <ele>32.2</ele>
        <time>2021-06-21T08:03:00Z</time>
      </trkpt>
      <trkpt lat="39.3619110" lon="3.1949810">
        <ele>32.4</ele>
        <time>2021-06-21T08:03:02Z</time>
      </trkpt>
      <trkpt lat="39.3619110" lon="3.1949810">
        <ele>32.4</ele>
        <time>2021-06-21T08:03:03Z</time>
      </trkpt>
      <trkpt lat="39.3620110" lon="3.1948700">
        <ele>32.6</ele>
        <time>2021-06-21T08:03:06Z</time>
      </trkpt>
      <trkpt lat="39.3621090" lon="3.1947800">
        <ele>32.9</ele>
        <time>2021-06-21T08:03:09Z</time>
      </trkpt>
      <trkpt lat="39.3622150" lon="3.1946690">
        <ele>33.1</ele>
        <time>2021-06-21T08:03:12Z</time>
      </trkpt>
      <trkpt lat="39.3624130" lon="3.1944640">
        <ele>33.6</ele>
        <time>2021-06-21T08:03:18Z</time>
      </trkpt>
      <trkpt lat="39.3624880" lon="3.1943860">
        <ele>33.7</ele>
        <time>2021-06-21T08:03:20Z</time>
      </trkpt>
      <trkpt lat="39.3625930" lon="3.1942750">
        <ele>34.0</ele>
        <time>2021-06-21T08:03:23Z</time>
      </trkpt>
      <trkpt lat="39.3628760" lon="3.1939740">
        <ele>34.7</ele>
        <time>2021-06-21T08:03:31Z</time>
      </trkpt>
      <trkpt lat="39.3632430" lon="3.1935840">
        <ele>35.3</ele>
        <time>2021-06-21T08:03:41Z</time>
      </trkpt>
      <trkpt lat="39.3635230" lon="3.1933310">
        <ele>35.5</ele>
        <time>2021-06-21T08:03:48Z</time>
      </trkpt>
      <trkpt lat="39.3638440" lon="3.1930630">
        <ele>35.3</ele>
        <time>2021-06-21T08:03:56Z</time>
      </trkpt>
      <trkpt lat="39.3638930" lon="3.1930210">
        <ele>35.3</ele>
        <time>2021-06-21T08:03:57Z</time>
      </trkpt>
      <trkpt lat="39.3641260" lon="3.1928060">
        <ele>35.2</ele>
        <time>2021-06-21T08:04:02Z</time>
      </trkpt>
      <trkpt lat="39.3644350" lon="3.1925230">
        <ele>35.1</ele>
        <time>2021-06-21T08:04:11Z</time>
      </trkpt>
      <trkpt lat="39.3645190" lon="3.1924530">
        <ele>35.1</ele>
        <time>2021-06-21T08:04:13Z</time>
      </trkpt>
      <trkpt lat="39.3646090" lon="3.1923820">
        <ele>35.1</ele>
        <time>2021-06-21T08:04:15Z</time>
      </trkpt>
      <trkpt lat="39.3646980" lon="3.1923020">
        <ele>35.1</ele>
        <time>2021-06-21T08:04:17Z</time>
      </trkpt>
      <trkpt lat="39.3648650" lon="3.1921350">
        <ele>35.3</ele>
        <time>2021-06-21T08:04:21Z</time>
      </trkpt>
      <trkpt lat="39.3649350" lon="3.1920610">
        <ele>35.4</ele>
        <time>2021-06-21T08:04:23Z</time>
      </trkpt>
      <trkpt lat="39.3650520" lon="3.1918660">
        <ele>35.6</ele>
        <time>2021-06-21T08:04:27Z</time>
      </trkpt>
      <trkpt lat="39.3652580" lon="3.1914590">
        <ele>35.8</ele>
        <time>2021-06-21T08:04:34Z</time>
      </trkpt>
      <trkpt lat="39.3653110" lon="3.1913450">
        <ele>35.8</ele>
        <time>2021-06-21T08:04:36Z</time>
      </trkpt>
      <trkpt lat="39.3653730" lon="3.1911600">
        <ele>35.9</ele>
        <time>2021-06-21T08:04:39Z</time>
      </trkpt>
      <trkpt lat="39.3654060" lon="3.1910310">
        <ele>36.0</ele>
        <time>2021-06-21T08:04:41Z</time>
      </trkpt>
      <trkpt lat="39.3655230" lon="3.1903640">
        <ele>37.1</ele>
        <time>2021-06-21T08:04:52Z</time>
      </trkpt>
      <trkpt lat="39.3655320" lon="3.1903050">
        <ele>37.2</ele>
        <time>2021-06-21T08:04:53Z</time>
      </trkpt>
      <trkpt lat="39.3656090" lon="3.1899150">
        <ele>38.1</ele>
        <time>2021-06-21T08:05:00Z</time>
      </trkpt>
      <trkpt lat="39.3656470" lon="3.1897060">
        <ele>38.5</ele>
        <time>2021-06-21T08:05:04Z</time>
      </trkpt>
      <trkpt lat="39.3657150" lon="3.1893640">
        <ele>39.0</ele>
        <time>2021-06-21T08:05:10Z</time>
      </trkpt>
      <trkpt lat="39.3657500" lon="3.1892550">
        <ele>39.2</ele>
        <time>2021-06-21T08:05:12Z</time>
      </trkpt>
      <trkpt lat="39.3658700" lon="3.1889730">
        <ele>39.4</ele>
        <time>2021-06-21T08:05:17Z</time>
      </trkpt>
      <trkpt lat="39.3660600" lon="3.1885690">
        <ele>39.6</ele>
        <time>2021-06-21T08:05:24Z</time>
      </trkpt>
      <trkpt lat="39.3662300" lon="3.1882160">
        <ele>39.9</ele>
        <time>2021-06-21T08:05:31Z</time>
      </trkpt>
      <trkpt lat="39.3662590" lon="3.1881710">
        <ele>40.0</ele>
        <time>2021-06-21T08:05:32Z</time>
      </trkpt>
      <trkpt lat="39.3662980" lon="3.1881210">
        <ele>40.0</ele>
        <time>2021-06-21T08:05:33Z</time>
      </trkpt>
      <trkpt lat="39.3663660" lon="3.1880460">
        <ele>40.1</ele>
        <time>2021-06-21T08:05:35Z</time>
      </trkpt>
      <trkpt lat="39.3664230" lon="3.1879910">
        <ele>40.2</ele>
        <time>2021-06-21T08:05:37Z</time>
      </trkpt>
      <trkpt lat="39.3666970" lon="3.1877360">
        <ele>40.7</ele>
        <time>2021-06-21T08:05:45Z</time>
      </trkpt>
      <trkpt lat="39.3667930" lon="3.1876450">
        <ele>41.2</ele>
        <time>2021-06-21T08:05:48Z</time>
      </trkpt>
      <trkpt lat="39.3668650" lon="3.1875740">
        <ele>41.6</ele>
        <time>2021-06-21T08:05:50Z</time>
      </trkpt>
      <trkpt lat="39.3668900" lon="3.1875460">
        <ele>41.7</ele>
        <time>2021-06-21T08:05:51Z</time>
      </trkpt>
      <trkpt lat="39.3670980" lon="3.1873390">
        <ele>42.9</ele>
        <time>2021-06-21T08:05:58Z</time>
      </trkpt>
      <trkpt lat="39.3674140" lon="3.1870270">
        <ele>44.6</ele>
        <time>2021-06-21T08:06:07Z</time>
      </trkpt>
      <trkpt lat="39.3675190" lon="3.1869170">
        <ele>45.2</ele>
        <time>2021-06-21T08:06:10Z</time>
      </trkpt>
      <trkpt lat="39.3676820" lon="3.1867200">
        <ele>46.1</ele>
        <time>2021-06-21T08:06:15Z</time>
      </trkpt>
      <trkpt lat="39.3677140" lon="3.1866820">
        <ele>46.3</ele>
        <time>2021-06-21T08:06:16Z</time>
      </trkpt>
      <trkpt lat="39.3677990" lon="3.1865850">
        <ele>46.7</ele>
        <time>2021-06-21T08:06:19Z</time>
      </trkpt>
      <trkpt lat="39.3679580" lon="3.1863890">
        <ele>47.2</ele>
        <time>2021-06-21T08:06:24Z</time>
      </trkpt>
      <trkpt lat="39.3681460" lon="3.1860700">
        <ele>47.6</ele>
        <time>2021-06-21T08:06:31Z</time>
      </trkpt>
      <trkpt lat="39.3682950" lon="3.1858720">
        <ele>47.6</ele>
        <time>2021-06-21T08:06:37Z</time>
      </trkpt>
      <trkpt lat="39.3683640" lon="3.1858310">
        <ele>47.5</ele>
        <time>2021-06-21T08:06:39Z</time>
      </trkpt>
      <trkpt lat="39.3684310" lon="3.1858050">
        <ele>47.4</ele>
        <time>2021-06-21T08:06:41Z</time>
      </trkpt>
      <trkpt lat="39.3685780" lon="3.1857550">
        <ele>47.1</ele>
        <time>2021-06-21T08:06:44Z</time>
      </trkpt>
      <trkpt lat="39.3686200" lon="3.1857440">
        <ele>47.0</ele>
        <time>2021-06-21T08:06:45Z</time>
      </trkpt>
      <trkpt lat="39.3688250" lon="3.1857050">
        <ele>46.7</ele>
        <time>2021-06-21T08:06:49Z</time>
      </trkpt>
      <trkpt lat="39.3689650" lon="3.1857020">
        <ele>46.6</ele>
        <time>2021-06-21T08:06:52Z</time>
      </trkpt>
      <trkpt lat="39.3690220" lon="3.1856970">
        <ele>46.5</ele>
        <time>2021-06-21T08:06:53Z</time>
      </trkpt>
      <trkpt lat="39.3690740" lon="3.1856860">
        <ele>46.5</ele>
        <time>2021-06-21T08:06:54Z</time>
      </trkpt>
      <trkpt lat="39.3691640" lon="3.1856510">
        <ele>46.5</ele>
        <time>2021-06-21T08:06:56Z</time>
      </trkpt>
      <trkpt lat="39.3694670" lon="3.1855340">
        <ele>46.6</ele>
        <time>2021-06-21T08:07:02Z</time>
      </trkpt>
      <trkpt lat="39.3696450" lon="3.1854790">
        <ele>46.8</ele>
        <time>2021-06-21T08:07:05Z</time>
      </trkpt>
      <trkpt lat="39.3697420" lon="3.1854320">
        <ele>46.9</ele>
        <time>2021-06-21T08:07:07Z</time>
      </trkpt>
      <trkpt lat="39.3700010" lon="3.1852600">
        <ele>47.6</ele>
        <time>2021-06-21T08:07:12Z</time>
      </trkpt>
      <trkpt lat="39.3702760" lon="3.1850460">
        <ele>48.1</ele>
        <time>2021-06-21T08:07:18Z</time>
      </trkpt>
      <trkpt lat="39.3703790" lon="3.1849570">
        <ele>48.1</ele>
        <time>2021-06-21T08:07:20Z</time>
      </trkpt>
      <trkpt lat="39.3704270" lon="3.1849180">
        <ele>48.1</ele>
        <time>2021-06-21T08:07:21Z</time>
      </trkpt>
      <trkpt lat="39.3708540" lon="3.1845510">
        <ele>48.0</ele>
        <time>2021-06-21T08:07:30Z</time>
      </trkpt>
      <trkpt lat="39.3713030" lon="3.1842040">
        <ele>47.7</ele>
        <time>2021-06-21T08:07:39Z</time>
      </trkpt>
      <trkpt lat="39.3713490" lon="3.1841610">
        <ele>47.6</ele>
        <time>2021-06-21T08:07:40Z</time>
      </trkpt>
      <trkpt lat="39.3715040" lon="3.1839740">
        <ele>47.3</ele>
        <time>2021-06-21T08:07:44Z</time>
      </trkpt>
      <trkpt lat="39.3716470" lon="3.1837100">
        <ele>46.9</ele>
        <time>2021-06-21T08:07:48Z</time>
      </trkpt>
      <trkpt lat="39.3716720" lon="3.1836340">
        <ele>46.8</ele>
        <time>2021-06-21T08:07:49Z</time>
      </trkpt>
      <trkpt lat="39.3716860" lon="3.1835540">
        <ele>46.6</ele>
        <time>2021-06-21T08:07:50Z</time>
      </trkpt>
      <trkpt lat="39.3716910" lon="3.1834700">
        <ele>46.4</ele>
        <time>2021-06-21T08:07:51Z</time>
      </trkpt>
      <trkpt lat="39.3716860" lon="3.1833840">
        <ele>46.2</ele>
        <time>2021-06-21T08:07:52Z</time>
      </trkpt>
      <trkpt lat="39.3716490" lon="3.1831260">
        <ele>45.6</ele>
        <time>2021-06-21T08:07:55Z</time>
      </trkpt>
      <trkpt lat="39.3715710" lon="3.1827950">
        <ele>45.3</ele>
        <time>2021-06-21T08:07:59Z</time>
      </trkpt>
      <trkpt lat="39.3715270" lon="3.1824960">
        <ele>45.2</ele>
        <time>2021-06-21T08:08:02Z</time>
      </trkpt>
      <trkpt lat="39.3715290" lon="3.1824280">
        <ele>45.2</ele>
        <time>2021-06-21T08:08:04Z</time>
      </trkpt>
      <trkpt lat="39.3715410" lon="3.1822350">
        <ele>45.0</ele>
        <time>2021-06-21T08:08:07Z</time>
      </trkpt>
      <trkpt lat="39.3715440" lon="3.1820440">
        <ele>44.8</ele>
        <time>2021-06-21T08:08:10Z</time>
      </trkpt>
      <trkpt lat="39.3715470" lon="3.1817800">
        <ele>44.6</ele>
        <time>2021-06-21T08:08:14Z</time>
      </trkpt>
      <trkpt lat="39.3715430" lon="3.1816460">
        <ele>44.7</ele>
        <time>2021-06-21T08:08:16Z</time>
      </trkpt>
      <trkpt lat="39.3715560" lon="3.1812030">
        <ele>45.5</ele>
        <time>2021-06-21T08:08:23Z</time>
      </trkpt>
      <trkpt lat="39.3715690" lon="3.1810100">
        <ele>45.8</ele>
        <time>2021-06-21T08:08:26Z</time>
      </trkpt>
      <trkpt lat="39.3715860" lon="3.1808770">
        <ele>45.8</ele>
        <time>2021-06-21T08:08:28Z</time>
      </trkpt>
      <trkpt lat="39.3716600" lon="3.1806810">
        <ele>45.4</ele>
        <time>2021-06-21T08:08:31Z</time>
      </trkpt>
      <trkpt lat="39.3718300" lon="3.1803450">
        <ele>43.9</ele>
        <time>2021-06-21T08:08:36Z</time>
      </trkpt>
      <trkpt lat="39.3720320" lon="3.1799410">
        <ele>41.6</ele>
        <time>2021-06-21T08:08:41Z</time>
      </trkpt>
      <trkpt lat="39.3722320" lon="3.1795010">
        <ele>40.4</ele>
        <time>2021-06-21T08:08:46Z</time>
      </trkpt>
      <trkpt lat="39.3723050" lon="3.1793370">
        <ele>40.4</ele>
        <time>2021-06-21T08:08:48Z</time>
      </trkpt>
      <trkpt lat="39.3723800" lon="3.1792080">
        <ele>40.5</ele>
        <time>2021-06-21T08:08:50Z</time>
      </trkpt>
      <trkpt lat="39.3724980" lon="3.1791140">
        <ele>40.9</ele>
        <time>2021-06-21T08:08:52Z</time>
      </trkpt>
      <trkpt lat="39.3727660" lon="3.1790640">
        <ele>42.3</ele>
        <time>2021-06-21T08:08:57Z</time>
      </trkpt>
      <trkpt lat="39.3729930" lon="3.1790290">
        <ele>43.8</ele>
        <time>2021-06-21T08:09:02Z</time>
      </trkpt>
      <trkpt lat="39.3730350" lon="3.1790150">
        <ele>44.1</ele>
        <time>2021-06-21T08:09:03Z</time>
      </trkpt>
      <trkpt lat="39.3731140" lon="3.1789790">
        <ele>44.7</ele>
        <time>2021-06-21T08:09:05Z</time>
      </trkpt>
      <trkpt lat="39.3731820" lon="3.1789280">
        <ele>45.4</ele>
        <time>2021-06-21T08:09:07Z</time>
      </trkpt>
      <trkpt lat="39.3732110" lon="3.1788960">
        <ele>45.7</ele>
        <time>2021-06-21T08:09:08Z</time>
      </trkpt>
      <trkpt lat="39.3732930" lon="3.1787760">
        <ele>46.6</ele>
        <time>2021-06-21T08:09:11Z</time>
      </trkpt>
      <trkpt lat="39.3733360" lon="3.1786870">
        <ele>47.1</ele>
        <time>2021-06-21T08:09:13Z</time>
      </trkpt>
      <trkpt lat="39.3733550" lon="3.1786400">
        <ele>47.3</ele>
        <time>2021-06-21T08:09:14Z</time>
      </trkpt>
      <trkpt lat="39.3734570" lon="3.1784010">
        <ele>48.5</ele>
        <time>2021-06-21T08:09:19Z</time>
      </trkpt>
      <trkpt lat="39.3734790" lon="3.1783560">
        <ele>48.7</ele>
        <time>2021-06-21T08:09:20Z</time>
      </trkpt>
      <trkpt lat="39.3735600" lon="3.1782180">
        <ele>49.2</ele>
        <time>2021-06-21T08:09:23Z</time>
      </trkpt>
      <trkpt lat="39.3737580" lon="3.1778920">
        <ele>50.2</ele>
        <time>2021-06-21T08:09:30Z</time>
      </trkpt>
      <trkpt lat="39.3738500" lon="3.1777630">
        <ele>50.6</ele>
        <time>2021-06-21T08:09:33Z</time>
      </trkpt>
      <trkpt lat="39.3741140" lon="3.1774250">
        <ele>51.6</ele>
        <time>2021-06-21T08:09:41Z</time>
      </trkpt>
      <trkpt lat="39.3744270" lon="3.1770110">
        <ele>52.8</ele>
        <time>2021-06-21T08:09:51Z</time>
      </trkpt>
      <trkpt lat="39.3747290" lon="3.1766300">
        <ele>53.3</ele>
        <time>2021-06-21T08:10:00Z</time>
      </trkpt>
      <trkpt lat="39.3749210" lon="3.1763560">
        <ele>53.6</ele>
        <time>2021-06-21T08:10:06Z</time>
      </trkpt>
      <trkpt lat="39.3749510" lon="3.1762610">
        <ele>53.6</ele>
        <time>2021-06-21T08:10:08Z</time>
      </trkpt>
      <trkpt lat="39.3748910" lon="3.1761170">
        <ele>53.4</ele>
        <time>2021-06-21T08:10:11Z</time>
      </trkpt>
      <trkpt lat="39.3748100" lon="3.1760420">
        <ele>53.1</ele>
        <time>2021-06-21T08:10:13Z</time>
      </trkpt>
      <trkpt lat="39.3746730" lon="3.1759280">
        <ele>52.7</ele>
        <time>2021-06-21T08:10:16Z</time>
      </trkpt>
      <trkpt lat="39.3744710" lon="3.1757720">
        <ele>52.0</ele>
        <time>2021-06-21T08:10:20Z</time>
      </trkpt>
      <trkpt lat="39.3743140" lon="3.1756370">
        <ele>51.2</ele>
        <time>2021-06-21T08:10:23Z</time>
      </trkpt>
      <trkpt lat="39.3740310" lon="3.1753890">
        <ele>49.7</ele>
        <time>2021-06-21T08:10:28Z</time>
      </trkpt>
      <trkpt lat="39.3738610" lon="3.1752450">
        <ele>49.0</ele>
        <time>2021-06-21T08:10:31Z</time>
      </trkpt>
      <trkpt lat="39.3734830" lon="3.1749310">
        <ele>49.4</ele>
        <time>2021-06-21T08:10:37Z</time>
      </trkpt>
      <trkpt lat="39.3734300" lon="3.1748860">
        <ele>49.7</ele>
        <time>2021-06-21T08:10:38Z</time>
      </trkpt>
      <trkpt lat="39.3733780" lon="3.1748470">
        <ele>49.9</ele>
        <time>2021-06-21T08:10:39Z</time>
      </trkpt>
      <trkpt lat="39.3733300" lon="3.1748100">
        <ele>50.1</ele>
        <time>2021-06-21T08:10:40Z</time>
      </trkpt>
      <trkpt lat="39.3732820" lon="3.1747760">
        <ele>50.3</ele>
        <time>2021-06-21T08:10:41Z</time>
      </trkpt>
      <trkpt lat="39.3732340" lon="3.1747450">
        <ele>50.5</ele>
        <time>2021-06-21T08:10:42Z</time>
      </trkpt>
      <trkpt lat="39.3731900" lon="3.1747230">
        <ele>50.7</ele>
        <time>2021-06-21T08:10:43Z</time>
      </trkpt>
      <trkpt lat="39.3730970" lon="3.1746870">
        <ele>51.1</ele>
        <time>2021-06-21T08:10:45Z</time>
      </trkpt>
      <trkpt lat="39.3728230" lon="3.1746190">
        <ele>51.9</ele>
        <time>2021-06-21T08:10:51Z</time>
      </trkpt>
      <trkpt lat="39.3727400" lon="3.1745660">
        <ele>52.4</ele>
        <time>2021-06-21T08:10:53Z</time>
      </trkpt>
      <trkpt lat="39.3726010" lon="3.1744010">
        <ele>53.3</ele>
        <time>2021-06-21T08:10:57Z</time>
      </trkpt>
      <trkpt lat="39.3725210" lon="3.1742790">
        <ele>53.9</ele>
        <time>2021-06-21T08:11:00Z</time>
      </trkpt>
      <trkpt lat="39.3723380" lon="3.1740140">
        <ele>55.0</ele>
        <time>2021-06-21T08:11:06Z</time>
      </trkpt>
      <trkpt lat="39.3722860" lon="3.1739350">
        <ele>55.2</ele>
        <time>2021-06-21T08:11:08Z</time>
      </trkpt>
      <trkpt lat="39.3720070" lon="3.1734410">
        <ele>55.4</ele>
        <time>2021-06-21T08:11:18Z</time>
      </trkpt>
      <trkpt lat="39.3717910" lon="3.1730980">
        <ele>55.2</ele>
        <time>2021-06-21T08:11:25Z</time>
      </trkpt>
      <trkpt lat="39.3716640" lon="3.1728950">
        <ele>55.2</ele>
        <time>2021-06-21T08:11:29Z</time>
      </trkpt>
      <trkpt lat="39.3714990" lon="3.1726210">
        <ele>55.5</ele>
        <time>2021-06-21T08:11:34Z</time>
      </trkpt>
      <trkpt lat="39.3713740" lon="3.1723360">
        <ele>55.9</ele>
        <time>2021-06-21T08:11:39Z</time>
      </trkpt>
      <trkpt lat="39.3713650" lon="3.1722880">
        <ele>56.0</ele>
        <time>2021-06-21T08:11:40Z</time>
      </trkpt>
      <trkpt lat="39.3713530" lon="3.1721570">
        <ele>56.2</ele>
        <time>2021-06-21T08:11:42Z</time>
      </trkpt>
      <trkpt lat="39.3713490" lon="3.1720040">
        <ele>56.5</ele>
        <time>2021-06-21T08:11:45Z</time>
      </trkpt>
      <trkpt lat="39.3713530" lon="3.1715850">
        <ele>57.2</ele>
        <time>2021-06-21T08:11:52Z</time>
      </trkpt>
      <trkpt lat="39.3713580" lon="3.1714470">
        <ele>57.4</ele>
        <time>2021-06-21T08:11:54Z</time>
      </trkpt>
      <trkpt lat="39.3713760" lon="3.1711950">
        <ele>57.9</ele>
        <time>2021-06-21T08:11:57Z</time>
      </trkpt>
      <trkpt lat="39.3713760" lon="3.1711950">
        <ele>57.9</ele>
        <time>2021-06-21T08:11:58Z</time>
      </trkpt>
      <trkpt lat="39.3714090" lon="3.1707000">
        <ele>58.9</ele>
        <time>2021-06-21T08:12:06Z</time>
      </trkpt>
      <trkpt lat="39.3714190" lon="3.1704500">
        <ele>59.3</ele>
        <time>2021-06-21T08:12:10Z</time>
      </trkpt>
      <trkpt lat="39.3714140" lon="3.1702600">
        <ele>59.4</ele>
        <time>2021-06-21T08:12:13Z</time>
      </trkpt>
      <trkpt lat="39.3714030" lon="3.1697760">
        <ele>59.2</ele>
        <time>2021-06-21T08:12:21Z</time>
      </trkpt>
      <trkpt lat="39.3714000" lon="3.1696480">
        <ele>59.0</ele>
        <time>2021-06-21T08:12:23Z</time>
      </trkpt>
      <trkpt lat="39.3713990" lon="3.1694390">
        <ele>58.9</ele>
        <time>2021-06-21T08:12:26Z</time>
      </trkpt>
      <trkpt lat="39.3713800" lon="3.1691570">
        <ele>58.8</ele>
        <time>2021-06-21T08:12:30Z</time>
      </trkpt>
      <trkpt lat="39.3713560" lon="3.1687360">
        <ele>58.6</ele>
        <time>2021-06-21T08:12:36Z</time>
      </trkpt>
      <trkpt lat="39.3713470" lon="3.1685960">
        <ele>58.6</ele>
        <time>2021-06-21T08:12:38Z</time>
      </trkpt>
      <trkpt lat="39.3713270" lon="3.1681080">
        <ele>58.5</ele>
        <time>2021-06-21T08:12:45Z</time>
      </trkpt>
      <trkpt lat="39.3713260" lon="3.1680380">
        <ele>58.5</ele>
        <time>2021-06-21T08:12:46Z</time>
      </trkpt>
      <trkpt lat="39.3713060" lon="3.1676130">
        <ele>58.6</ele>
        <time>2021-06-21T08:12:52Z</time>
      </trkpt>
      <trkpt lat="39.3713000" lon="3.1674690">
        <ele>58.6</ele>
        <time>2021-06-21T08:12:54Z</time>
      </trkpt>
      <trkpt lat="39.3712770" lon="3.1669450">
        <ele>58.9</ele>
        <time>2021-06-21T08:13:01Z</time>
      </trkpt>
      <trkpt lat="39.3712480" lon="3.1665810">
        <ele>59.2</ele>
        <time>2021-06-21T08:13:06Z</time>
      </trkpt>
      <trkpt lat="39.3712090" lon="3.1664510">
        <ele>59.4</ele>
        <time>2021-06-21T08:13:08Z</time>
      </trkpt>
      <trkpt lat="39.3710290" lon="3.1658890">
        <ele>59.8</ele>
        <time>2021-06-21T08:13:17Z</time>
      </trkpt>
      <trkpt lat="39.3708380" lon="3.1653060">
        <ele>60.0</ele>
        <time>2021-06-21T08:13:26Z</time>
      </trkpt>
      <trkpt lat="39.3706350" lon="3.1646780">
        <ele>60.1</ele>
        <time>2021-06-21T08:13:35Z</time>
      </trkpt>
      <trkpt lat="39.3704510" lon="3.1640910">
        <ele>60.0</ele>
        <time>2021-06-21T08:13:43Z</time>
      </trkpt>
      <trkpt lat="39.3702760" lon="3.1635740">
        <ele>59.7</ele>
        <time>2021-06-21T08:13:50Z</time>
      </trkpt>
      <trkpt lat="39.3700440" lon="3.1629120">
        <ele>58.8</ele>
        <time>2021-06-21T08:13:59Z</time>
      </trkpt>
      <trkpt lat="39.3699540" lon="3.1626860">
        <ele>58.5</ele>
        <time>2021-06-21T08:14:02Z</time>
      </trkpt>
      <trkpt lat="39.3697020" lon="3.1621160">
        <ele>57.8</ele>
        <time>2021-06-21T08:14:09Z</time>
      </trkpt>
      <trkpt lat="39.3694370" lon="3.1614760">
        <ele>57.6</ele>
        <time>2021-06-21T08:14:17Z</time>
      </trkpt>
      <trkpt lat="39.3693360" lon="3.1612470">
        <ele>57.7</ele>
        <time>2021-06-21T08:14:20Z</time>
      </trkpt>
      <trkpt lat="39.3690630" lon="3.1605640">
        <ele>58.2</ele>
        <time>2021-06-21T08:14:29Z</time>
      </trkpt>
      <trkpt lat="39.3690400" lon="3.1604880">
        <ele>58.3</ele>
        <time>2021-06-21T08:14:30Z</time>
      </trkpt>
      <trkpt lat="39.3688790" lon="3.1600910">
        <ele>58.7</ele>
        <time>2021-06-21T08:14:36Z</time>
      </trkpt>
      <trkpt lat="39.3686730" lon="3.1597150">
        <ele>58.7</ele>
        <time>2021-06-21T08:14:42Z</time>
      </trkpt>
      <trkpt lat="39.3685190" lon="3.1594560">
        <ele>58.5</ele>
        <time>2021-06-21T08:14:46Z</time>
      </trkpt>
      <trkpt lat="39.3683700" lon="3.1591680">
        <ele>58.1</ele>
        <time>2021-06-21T08:14:50Z</time>
      </trkpt>
      <trkpt lat="39.3683330" lon="3.1590940">
        <ele>58.0</ele>
        <time>2021-06-21T08:14:51Z</time>
      </trkpt>
      <trkpt lat="39.3680370" lon="3.1584980">
        <ele>57.7</ele>
        <time>2021-06-21T08:14:59Z</time>
      </trkpt>
      <trkpt lat="39.3677530" lon="3.1579200">
        <ele>57.7</ele>
        <time>2021-06-21T08:15:07Z</time>
      </trkpt>
      <trkpt lat="39.3675430" lon="3.1573940">
        <ele>57.6</ele>
        <time>2021-06-21T08:15:14Z</time>
      </trkpt>
      <trkpt lat="39.3674660" lon="3.1571680">
        <ele>57.5</ele>
        <time>2021-06-21T08:15:17Z</time>
      </trkpt>
      <trkpt lat="39.3674450" lon="3.1570040">
        <ele>57.4</ele>
        <time>2021-06-21T08:15:19Z</time>
      </trkpt>
      <trkpt lat="39.3674450" lon="3.1566710">
        <ele>57.1</ele>
        <time>2021-06-21T08:15:23Z</time>
      </trkpt>
      <trkpt lat="39.3674350" lon="3.1565850">
        <ele>57.0</ele>
        <time>2021-06-21T08:15:24Z</time>
      </trkpt>
      <trkpt lat="39.3674160" lon="3.1564970">
        <ele>56.8</ele>
        <time>2021-06-21T08:15:25Z</time>
      </trkpt>
      <trkpt lat="39.3673390" lon="3.1562110">
        <ele>56.4</ele>
        <time>2021-06-21T08:15:28Z</time>
      </trkpt>
      <trkpt lat="39.3671530" lon="3.1554620">
        <ele>56.1</ele>
        <time>2021-06-21T08:15:36Z</time>
      </trkpt>
      <trkpt lat="39.3670070" lon="3.1548570">
        <ele>54.6</ele>
        <time>2021-06-21T08:15:43Z</time>
      </trkpt>
      <trkpt lat="39.3669830" lon="3.1547760">
        <ele>54.3</ele>
        <time>2021-06-21T08:15:44Z</time>
      </trkpt>
      <trkpt lat="39.3669520" lon="3.1546940">
        <ele>53.9</ele>
        <time>2021-06-21T08:15:45Z</time>
      </trkpt>
      <trkpt lat="39.3668640" lon="3.1545480">
        <ele>53.0</ele>
        <time>2021-06-21T08:15:47Z</time>
      </trkpt>
      <trkpt lat="39.3668100" lon="3.1544750">
        <ele>52.6</ele>
        <time>2021-06-21T08:15:48Z</time>
      </trkpt>
      <trkpt lat="39.3666410" lon="3.1542310">
        <ele>51.5</ele>
        <time>2021-06-21T08:15:51Z</time>
      </trkpt>
      <trkpt lat="39.3665610" lon="3.1540720">
        <ele>51.5</ele>
        <time>2021-06-21T08:15:53Z</time>
      </trkpt>
      <trkpt lat="39.3664600" lon="3.1539000">
        <ele>51.8</ele>
        <time>2021-06-21T08:15:55Z</time>
      </trkpt>
      <trkpt lat="39.3663580" lon="3.1537610">
        <ele>52.3</ele>
        <time>2021-06-21T08:15:57Z</time>
      </trkpt>
      <trkpt lat="39.3662900" lon="3.1536090">
        <ele>52.9</ele>
        <time>2021-06-21T08:15:59Z</time>
      </trkpt>
      <trkpt lat="39.3662510" lon="3.1534630">
        <ele>53.4</ele>
        <time>2021-06-21T08:16:01Z</time>
      </trkpt>
      <trkpt lat="39.3661600" lon="3.1530560">
        <ele>54.7</ele>
        <time>2021-06-21T08:16:07Z</time>
      </trkpt>
      <trkpt lat="39.3661020" lon="3.1527950">
        <ele>55.6</ele>
        <time>2021-06-21T08:16:11Z</time>
      </trkpt>
      <trkpt lat="39.3660730" lon="3.1525760">
        <ele>56.3</ele>
        <time>2021-06-21T08:16:14Z</time>
      </trkpt>
      <trkpt lat="39.3660680" lon="3.1525060">
        <ele>56.5</ele>
        <time>2021-06-21T08:16:15Z</time>
      </trkpt>
      <trkpt lat="39.3660720" lon="3.1522280">
        <ele>57.2</ele>
        <time>2021-06-21T08:16:19Z</time>
      </trkpt>
      <trkpt lat="39.3661050" lon="3.1520290">
        <ele>57.5</ele>
        <time>2021-06-21T08:16:22Z</time>
      </trkpt>
      <trkpt lat="39.3662140" lon="3.1515110">
        <ele>57.6</ele>
        <time>2021-06-21T08:16:29Z</time>
      </trkpt>
      <trkpt lat="39.3662560" lon="3.1513000">
        <ele>57.7</ele>
        <time>2021-06-21T08:16:32Z</time>
      </trkpt>
      <trkpt lat="39.3662850" lon="3.1511420">
        <ele>57.8</ele>
        <time>2021-06-21T08:16:34Z</time>
      </trkpt>
      <trkpt lat="39.3662680" lon="3.1510020">
        <ele>57.9</ele>
        <time>2021-06-21T08:16:36Z</time>
      </trkpt>
      <trkpt lat="39.3662050" lon="3.1508970">
        <ele>58.1</ele>
        <time>2021-06-21T08:16:38Z</time>
      </trkpt>
      <trkpt lat="39.3661480" lon="3.1508670">
        <ele>58.1</ele>
        <time>2021-06-21T08:16:39Z</time>
      </trkpt>
      <trkpt lat="39.3659300" lon="3.1507800">
        <ele>58.5</ele>
        <time>2021-06-21T08:16:43Z</time>
      </trkpt>
      <trkpt lat="39.3657970" lon="3.1506710">
        <ele>58.7</ele>
        <time>2021-06-21T08:16:46Z</time>
      </trkpt>
      <trkpt lat="39.3655480" lon="3.1503980">
        <ele>59.1</ele>
        <time>2021-06-21T08:16:53Z</time>
      </trkpt>
      <trkpt lat="39.3655100" lon="3.1502900">
        <ele>59.2</ele>
        <time>2021-06-21T08:16:55Z</time>
      </trkpt>
      <trkpt lat="39.3654960" lon="3.1502320">
        <ele>59.3</ele>
        <time>2021-06-21T08:16:56Z</time>
      </trkpt>
      <trkpt lat="39.3654950" lon="3.1501810">
        <ele>59.3</ele>
        <time>2021-06-21T08:16:57Z</time>
      </trkpt>
      <trkpt lat="39.3655150" lon="3.1500790">
        <ele>59.3</ele>
        <time>2021-06-21T08:16:59Z</time>
      </trkpt>
      <trkpt lat="39.3655340" lon="3.1500250">
        <ele>59.4</ele>
        <time>2021-06-21T08:17:00Z</time>
      </trkpt>
      <trkpt lat="39.3655540" lon="3.1499670">
        <ele>59.4</ele>
        <time>2021-06-21T08:17:01Z</time>
      </trkpt>
      <trkpt lat="39.3656630" lon="3.1496820">
        <ele>59.7</ele>
        <time>2021-06-21T08:17:06Z</time>
      </trkpt>
      <trkpt lat="39.3658720" lon="3.1490740">
        <ele>60.6</ele>
        <time>2021-06-21T08:17:16Z</time>
      </trkpt>
      <trkpt lat="39.3660430" lon="3.1485660">
        <ele>61.1</ele>
        <time>2021-06-21T08:17:24Z</time>
      </trkpt>
      <trkpt lat="39.3660880" lon="3.1484340">
        <ele>61.2</ele>
        <time>2021-06-21T08:17:26Z</time>
      </trkpt>
      <trkpt lat="39.3662990" lon="3.1479620">
        <ele>61.6</ele>
        <time>2021-06-21T08:17:33Z</time>
      </trkpt>
      <trkpt lat="39.3666320" lon="3.1474660">
        <ele>62.0</ele>
        <time>2021-06-21T08:17:42Z</time>
      </trkpt>
      <trkpt lat="39.3667110" lon="3.1473540">
        <ele>62.1</ele>
        <time>2021-06-21T08:17:44Z</time>
      </trkpt>
      <trkpt lat="39.3668370" lon="3.1471960">
        <ele>62.3</ele>
        <time>2021-06-21T08:17:47Z</time>
      </trkpt>
      <trkpt lat="39.3668810" lon="3.1471490">
        <ele>62.4</ele>
        <time>2021-06-21T08:17:48Z</time>
      </trkpt>
      <trkpt lat="39.3671810" lon="3.1468250">
        <ele>63.0</ele>
        <time>2021-06-21T08:17:55Z</time>
      </trkpt>
      <trkpt lat="39.3674490" lon="3.1464750">
        <ele>63.6</ele>
        <time>2021-06-21T08:18:02Z</time>
      </trkpt>
      <trkpt lat="39.3675180" lon="3.1462920">
        <ele>63.6</ele>
        <time>2021-06-21T08:18:05Z</time>
      </trkpt>
      <trkpt lat="39.3675670" lon="3.1460960">
        <ele>63.6</ele>
        <time>2021-06-21T08:18:08Z</time>
      </trkpt>
      <trkpt lat="39.3677140" lon="3.1454970">
        <ele>63.7</ele>
        <time>2021-06-21T08:18:17Z</time>
      </trkpt>
      <trkpt lat="39.3677930" lon="3.1451480">
        <ele>63.9</ele>
        <time>2021-06-21T08:18:23Z</time>
      </trkpt>
      <trkpt lat="39.3678060" lon="3.1450980">
        <ele>63.9</ele>
        <time>2021-06-21T08:18:24Z</time>
      </trkpt>
      <trkpt lat="39.3678330" lon="3.1450040">
        <ele>64.0</ele>
        <time>2021-06-21T08:18:26Z</time>
      </trkpt>
      <trkpt lat="39.3678770" lon="3.1448570">
        <ele>64.1</ele>
        <time>2021-06-21T08:18:29Z</time>
      </trkpt>
      <trkpt lat="39.3679520" lon="3.1445660">
        <ele>64.4</ele>
        <time>2021-06-21T08:18:35Z</time>
      </trkpt>
      <trkpt lat="39.3679570" lon="3.1445460">
        <ele>64.4</ele>
        <time>2021-06-21T08:18:36Z</time>
      </trkpt>
      <trkpt lat="39.3679570" lon="3.1445410">
        <ele>64.4</ele>
        <time>2021-06-21T08:18:38Z</time>
      </trkpt>
      <trkpt lat="39.3679570" lon="3.1445410">
        <ele>64.4</ele>
        <time>2021-06-21T08:18:39Z</time>
      </trkpt>
      <trkpt lat="39.3679570" lon="3.1445410">
        <ele>64.4</ele>
        <time>2021-06-21T08:18:40Z</time>
      </trkpt>
      <trkpt lat="39.3679570" lon="3.1445410">
        <ele>64.4</ele>
        <time>2021-06-21T08:18:41Z</time>
      </trkpt>
      <trkpt lat="39.3679570" lon="3.1445410">
        <ele>64.4</ele>
        <time>2021-06-21T08:18:51Z</time>
      </trkpt>
      <trkpt lat="39.3679580" lon="3.1445390">
        <ele>64.4</ele>
        <time>2021-06-21T08:18:54Z</time>
      </trkpt>
      <trkpt lat="39.3679680" lon="3.1444570">
        <ele>64.5</ele>
        <time>2021-06-21T08:18:57Z</time>
      </trkpt>
      <trkpt lat="39.3679530" lon="3.1444190">
        <ele>64.5</ele>
        <time>2021-06-21T08:18:58Z</time>
      </trkpt>
      <trkpt lat="39.3679000" lon="3.1443450">
        <ele>64.4</ele>
        <time>2021-06-21T08:19:00Z</time>
      </trkpt>
      <trkpt lat="39.3678710" lon="3.1443060">
        <ele>64.4</ele>
        <time>2021-06-21T08:19:01Z</time>
      </trkpt>
      <trkpt lat="39.3677070" lon="3.1440640">
        <ele>64.3</ele>
        <time>2021-06-21T08:19:06Z</time>
      </trkpt>
      <trkpt lat="39.3674790" lon="3.1437050">
        <ele>64.0</ele>
        <time>2021-06-21T08:19:12Z</time>
      </trkpt>
      <trkpt lat="39.3674030" lon="3.1435800">
        <ele>63.8</ele>
        <time>2021-06-21T08:19:14Z</time>
      </trkpt>
      <trkpt lat="39.3670430" lon="3.1429800">
        <ele>63.1</ele>
        <time>2021-06-21T08:19:23Z</time>
      </trkpt>
      <trkpt lat="39.3667000" lon="3.1424020">
        <ele>62.4</ele>
        <time>2021-06-21T08:19:31Z</time>
      </trkpt>
      <trkpt lat="39.3664140" lon="3.1419290">
        <ele>61.9</ele>
        <time>2021-06-21T08:19:37Z</time>
      </trkpt>
      <trkpt lat="39.3663200" lon="3.1417660">
        <ele>61.8</ele>
        <time>2021-06-21T08:19:39Z</time>
      </trkpt>
      <trkpt lat="39.3659560" lon="3.1411330">
        <ele>61.3</ele>
        <time>2021-06-21T08:19:47Z</time>
      </trkpt>
      <trkpt lat="39.3657650" lon="3.1408200">
        <ele>61.0</ele>
        <time>2021-06-21T08:19:51Z</time>
      </trkpt>
      <trkpt lat="39.3654000" lon="3.1403000">
        <ele>60.6</ele>
        <time>2021-06-21T08:19:58Z</time>
      </trkpt>
      <trkpt lat="39.3652370" lon="3.1400990">
        <ele>60.4</ele>
        <time>2021-06-21T08:20:01Z</time>
      </trkpt>
      <trkpt lat="39.3648190" lon="3.1395870">
        <ele>59.9</ele>
        <time>2021-06-21T08:20:08Z</time>
      </trkpt>
      <trkpt lat="39.3646010" lon="3.1393130">
        <ele>59.5</ele>
        <time>2021-06-21T08:20:12Z</time>
      </trkpt>
      <trkpt lat="39.3641600" lon="3.1387640">
        <ele>58.7</ele>
        <time>2021-06-21T08:20:20Z</time>
      </trkpt>
      <trkpt lat="39.3641010" lon="3.1387000">
        <ele>58.7</ele>
        <time>2021-06-21T08:20:21Z</time>
      </trkpt>
      <trkpt lat="39.3637080" lon="3.1383790">
        <ele>58.0</ele>
        <time>2021-06-21T08:20:27Z</time>
      </trkpt>
      <trkpt lat="39.3631820" lon="3.1381060">
        <ele>57.3</ele>
        <time>2021-06-21T08:20:34Z</time>
      </trkpt>
      <trkpt lat="39.3626840" lon="3.1377900">
        <ele>56.9</ele>
        <time>2021-06-21T08:20:41Z</time>
      </trkpt>
      <trkpt lat="39.3621740" lon="3.1373420">
        <ele>56.5</ele>
        <time>2021-06-21T08:20:49Z</time>
      </trkpt>
      <trkpt lat="39.3620510" lon="3.1372340">
        <ele>56.5</ele>
        <time>2021-06-21T08:20:51Z</time>
      </trkpt>
      <trkpt lat="39.3615560" lon="3.1368020">
        <ele>56.4</ele>
        <time>2021-06-21T08:20:59Z</time>
      </trkpt>
      <trkpt lat="39.3613120" lon="3.1365930">
        <ele>56.3</ele>
        <time>2021-06-21T08:21:03Z</time>
      </trkpt>
      <trkpt lat="39.3608360" lon="3.1361700">
        <ele>56.1</ele>
        <time>2021-06-21T08:21:11Z</time>
      </trkpt>
      <trkpt lat="39.3607020" lon="3.1360490">
        <ele>56.1</ele>
        <time>2021-06-21T08:21:13Z</time>
      </trkpt>
      <trkpt lat="39.3602690" lon="3.1356510">
        <ele>56.3</ele>
        <time>2021-06-21T08:21:20Z</time>
      </trkpt>
      <trkpt lat="39.3599650" lon="3.1352960">
        <ele>56.3</ele>
        <time>2021-06-21T08:21:26Z</time>
      </trkpt>
      <trkpt lat="39.3597100" lon="3.1349530">
        <ele>56.4</ele>
        <time>2021-06-21T08:21:32Z</time>
      </trkpt>
      <trkpt lat="39.3596810" lon="3.1348950">
        <ele>56.4</ele>
        <time>2021-06-21T08:21:33Z</time>
      </trkpt>
      <trkpt lat="39.3596280" lon="3.1347160">
        <ele>56.5</ele>
        <time>2021-06-21T08:21:36Z</time>
      </trkpt>
      <trkpt lat="39.3595990" lon="3.1346430">
        <ele>56.6</ele>
        <time>2021-06-21T08:21:37Z</time>
      </trkpt>
      <trkpt lat="39.3595330" lon="3.1345500">
        <ele>57.0</ele>
        <time>2021-06-21T08:21:39Z</time>
      </trkpt>
      <trkpt lat="39.3594930" lon="3.1345150">
        <ele>57.2</ele>
        <time>2021-06-21T08:21:40Z</time>
      </trkpt>
      <trkpt lat="39.3594520" lon="3.1344930">
        <ele>57.4</ele>
        <time>2021-06-21T08:21:41Z</time>
      </trkpt>
      <trkpt lat="39.3593410" lon="3.1344310">
        <ele>57.3</ele>
        <time>2021-06-21T08:21:43Z</time>
      </trkpt>
      <trkpt lat="39.3592650" lon="3.1343590">
        <ele>57.2</ele>
        <time>2021-06-21T08:21:45Z</time>
      </trkpt>
      <trkpt lat="39.3588860" lon="3.1339570">
        <ele>57.4</ele>
        <time>2021-06-21T08:21:54Z</time>
      </trkpt>
      <trkpt lat="39.3588530" lon="3.1339220">
        <ele>57.5</ele>
        <time>2021-06-21T08:21:55Z</time>
      </trkpt>
      <trkpt lat="39.3585380" lon="3.1335800">
        <ele>58.3</ele>
        <time>2021-06-21T08:22:03Z</time>
      </trkpt>
      <trkpt lat="39.3582730" lon="3.1332620">
        <ele>58.7</ele>
        <time>2021-06-21T08:22:10Z</time>
      </trkpt>
      <trkpt lat="39.3578800" lon="3.1328180">
        <ele>58.9</ele>
        <time>2021-06-21T08:22:19Z</time>
      </trkpt>
      <trkpt lat="39.3577850" lon="3.1327450">
        <ele>58.9</ele>
        <time>2021-06-21T08:22:21Z</time>
      </trkpt>
      <trkpt lat="39.3576920" lon="3.1326890">
        <ele>58.9</ele>
        <time>2021-06-21T08:22:23Z</time>
      </trkpt>
      <trkpt lat="39.3576500" lon="3.1326630">
        <ele>59.0</ele>
        <time>2021-06-21T08:22:24Z</time>
      </trkpt>
      <trkpt lat="39.3574100" lon="3.1324950">
        <ele>59.0</ele>
        <time>2021-06-21T08:22:29Z</time>
      </trkpt>
      <trkpt lat="39.3574100" lon="3.1324950">
        <ele>59.0</ele>
        <time>2021-06-21T08:22:30Z</time>
      </trkpt>
      <trkpt lat="39.3573390" lon="3.1324380">
        <ele>59.0</ele>
        <time>2021-06-21T08:22:32Z</time>
      </trkpt>
      <trkpt lat="39.3573040" lon="3.1323990">
        <ele>58.9</ele>
        <time>2021-06-21T08:22:33Z</time>
      </trkpt>
      <trkpt lat="39.3572070" lon="3.1322720">
        <ele>58.9</ele>
        <time>2021-06-21T08:22:36Z</time>
      </trkpt>
      <trkpt lat="39.3568960" lon="3.1318150">
        <ele>59.2</ele>
        <time>2021-06-21T08:22:46Z</time>
      </trkpt>
      <trkpt lat="39.3567460" lon="3.1315680">
        <ele>59.5</ele>
        <time>2021-06-21T08:22:52Z</time>
      </trkpt>
      <trkpt lat="39.3566930" lon="3.1314850">
        <ele>59.6</ele>
        <time>2021-06-21T08:22:54Z</time>
      </trkpt>
      <trkpt lat="39.3566660" lon="3.1314500">
        <ele>59.7</ele>
        <time>2021-06-21T08:22:55Z</time>
      </trkpt>
      <trkpt lat="39.3566120" lon="3.1313320">
        <ele>59.7</ele>
        <time>2021-06-21T08:22:58Z</time>
      </trkpt>
      <trkpt lat="39.3564970" lon="3.1309230">
        <ele>60.0</ele>
        <time>2021-06-21T08:23:06Z</time>
      </trkpt>
      <trkpt lat="39.3563580" lon="3.1304660">
        <ele>60.4</ele>
        <time>2021-06-21T08:23:15Z</time>
      </trkpt>
      <trkpt lat="39.3562390" lon="3.1300920">
        <ele>60.6</ele>
        <time>2021-06-21T08:23:23Z</time>
      </trkpt>
      <trkpt lat="39.3562270" lon="3.1300540">
        <ele>60.6</ele>
        <time>2021-06-21T08:23:24Z</time>
      </trkpt>
      <trkpt lat="39.3562150" lon="3.1300170">
        <ele>60.7</ele>
        <time>2021-06-21T08:23:25Z</time>
      </trkpt>
      <trkpt lat="39.3561740" lon="3.1299430">
        <ele>60.7</ele>
        <time>2021-06-21T08:23:27Z</time>
      </trkpt>
      <trkpt lat="39.3561470" lon="3.1299030">
        <ele>60.8</ele>
        <time>2021-06-21T08:23:28Z</time>
      </trkpt>
      <trkpt lat="39.3561200" lon="3.1298590">
        <ele>60.8</ele>
        <time>2021-06-21T08:23:29Z</time>
      </trkpt>
      <trkpt lat="39.3560570" lon="3.1297370">
        <ele>60.9</ele>
        <time>2021-06-21T08:23:32Z</time>
      </trkpt>
      <trkpt lat="39.3559700" lon="3.1296280">
        <ele>61.0</ele>
        <time>2021-06-21T08:23:35Z</time>
      </trkpt>
      <trkpt lat="39.3559380" lon="3.1295840">
        <ele>61.0</ele>
        <time>2021-06-21T08:23:36Z</time>
      </trkpt>
      <trkpt lat="39.3559110" lon="3.1295430">
        <ele>61.0</ele>
        <time>2021-06-21T08:23:37Z</time>
      </trkpt>
      <trkpt lat="39.3557090" lon="3.1292730">
        <ele>61.3</ele>
        <time>2021-06-21T08:23:44Z</time>
      </trkpt>
      <trkpt lat="39.3555610" lon="3.1290940">
        <ele>61.4</ele>
        <time>2021-06-21T08:23:50Z</time>
      </trkpt>
      <trkpt lat="39.3555290" lon="3.1290270">
        <ele>61.4</ele>
        <time>2021-06-21T08:23:52Z</time>
      </trkpt>
      <trkpt lat="39.3555090" lon="3.1290140">
        <ele>61.4</ele>
        <time>2021-06-21T08:23:53Z</time>
      </trkpt>
      <trkpt lat="39.3554820" lon="3.1290120">
        <ele>61.5</ele>
        <time>2021-06-21T08:23:55Z</time>
      </trkpt>
      <trkpt lat="39.3554770" lon="3.1290290">
        <ele>61.5</ele>
        <time>2021-06-21T08:23:57Z</time>
      </trkpt>
      <trkpt lat="39.3554820" lon="3.1290420">
        <ele>61.5</ele>
        <time>2021-06-21T08:24:05Z</time>
      </trkpt>
      <trkpt lat="39.3554820" lon="3.1290420">
        <ele>61.5</ele>
        <time>2021-06-21T08:24:09Z</time>
      </trkpt>
      <trkpt lat="39.3554820" lon="3.1290420">
        <ele>61.5</ele>
        <time>2021-06-21T08:24:11Z</time>
      </trkpt>
      <trkpt lat="39.3554820" lon="3.1290420">
        <ele>61.5</ele>
        <time>2021-06-21T08:24:14Z</time>
      </trkpt>
      <trkpt lat="39.3554820" lon="3.1290420">
        <ele>61.5</ele>
        <time>2021-06-21T08:24:17Z</time>
      </trkpt>
      <trkpt lat="39.3554820" lon="3.1290420">
        <ele>61.5</ele>
        <time>2021-06-21T08:24:19Z</time>
      </trkpt>
      <trkpt lat="39.3554820" lon="3.1290420">
        <ele>61.5</ele>
        <time>2021-06-21T08:24:28Z</time>
      </trkpt>
      <trkpt lat="39.3554780" lon="3.1290410">
        <ele>61.5</ele>
        <time>2021-06-21T08:24:32Z</time>
      </trkpt>
      <trkpt lat="39.3554780" lon="3.1290400">
        <ele>61.5</ele>
        <time>2021-06-21T08:24:34Z</time>
      </trkpt>
      <trkpt lat="39.3554780" lon="3.1290400">
        <ele>61.5</ele>
        <time>2021-06-21T08:24:37Z</time>
      </trkpt>
      <trkpt lat="39.3554760" lon="3.1290390">
        <ele>61.5</ele>
        <time>2021-06-21T08:24:39Z</time>
      </trkpt>
      <trkpt lat="39.3554760" lon="3.1290390">
        <ele>61.5</ele>
        <time>2021-06-21T08:24:41Z</time>
      </trkpt>
      <trkpt lat="39.3554760" lon="3.1290390">
        <ele>61.5</ele>
        <time>2021-06-21T08:24:44Z</time>
      </trkpt>
      <trkpt lat="39.3554760" lon="3.1290390">
        <ele>61.5</ele>
        <time>2021-06-21T08:24:46Z</time>
      </trkpt>
      <trkpt lat="39.3554760" lon="3.1290390">
        <ele>61.5</ele>
        <time>2021-06-21T08:24:50Z</time>
      </trkpt>
      <trkpt lat="39.3554760" lon="3.1290390">
        <ele>61.5</ele>
        <time>2021-06-21T08:24:51Z</time>
      </trkpt>
      <trkpt lat="39.3554760" lon="3.1290390">
        <ele>61.5</ele>
        <time>2021-06-21T08:24:53Z</time>
      </trkpt>
      <trkpt lat="39.3554760" lon="3.1290390">
        <ele>61.5</ele>
        <time>2021-06-21T08:24:54Z</time>
      </trkpt>
      <trkpt lat="39.3554760" lon="3.1290390">
        <ele>61.5</ele>
        <time>2021-06-21T08:24:55Z</time>
      </trkpt>
      <trkpt lat="39.3554760" lon="3.1290390">
        <ele>61.5</ele>
        <time>2021-06-21T08:24:56Z</time>
      </trkpt>
      <trkpt lat="39.3554760" lon="3.1290390">
        <ele>61.5</ele>
        <time>2021-06-21T08:24:58Z</time>
      </trkpt>
      <trkpt lat="39.3554760" lon="3.1290390">
        <ele>61.5</ele>
        <time>2021-06-21T08:24:59Z</time>
      </trkpt>
      <trkpt lat="39.3554760" lon="3.1290390">
        <ele>61.5</ele>
        <time>2021-06-21T08:25:01Z</time>
      </trkpt>
      <trkpt lat="39.3554760" lon="3.1290390">
        <ele>61.5</ele>
        <time>2021-06-21T08:25:02Z</time>
      </trkpt>
      <trkpt lat="39.3554760" lon="3.1290390">
        <ele>61.5</ele>
        <time>2021-06-21T08:25:05Z</time>
      </trkpt>
      <trkpt lat="39.3554760" lon="3.1290390">
        <ele>61.5</ele>
        <time>2021-06-21T08:25:06Z</time>
      </trkpt>
      <trkpt lat="39.3554760" lon="3.1290390">
        <ele>61.5</ele>
        <time>2021-06-21T08:25:09Z</time>
      </trkpt>
      <trkpt lat="39.3554760" lon="3.1290390">
        <ele>61.5</ele>
        <time>2021-06-21T08:25:11Z</time>
      </trkpt>
      <trkpt lat="39.3554760" lon="3.1290390">
        <ele>61.5</ele>
        <time>2021-06-21T08:25:15Z</time>
      </trkpt>
      <trkpt lat="39.3554760" lon="3.1290390">
        <ele>61.5</ele>
        <time>2021-06-21T08:25:17Z</time>
      </trkpt>
      <trkpt lat="39.3554760" lon="3.1290390">
        <ele>61.5</ele>
        <time>2021-06-21T08:25:20Z</time>
      </trkpt>
      <trkpt lat="39.3554530" lon="3.1289900">
        <ele>61.5</ele>
        <time>2021-06-21T08:25:27Z</time>
      </trkpt>
      <trkpt lat="39.3554960" lon="3.1290080">
        <ele>61.5</ele>
        <time>2021-06-21T08:25:37Z</time>
      </trkpt>
      <trkpt lat="39.3555590" lon="3.1289960">
        <ele>61.6</ele>
        <time>2021-06-21T08:25:48Z</time>
      </trkpt>
      <trkpt lat="39.3555630" lon="3.1290030">
        <ele>61.6</ele>
        <time>2021-06-21T08:25:49Z</time>
      </trkpt>
      <trkpt lat="39.3555630" lon="3.1290030">
        <ele>61.6</ele>
        <time>2021-06-21T08:25:59Z</time>
      </trkpt>
      <trkpt lat="39.3555630" lon="3.1290030">
        <ele>61.6</ele>
        <time>2021-06-21T08:26:03Z</time>
      </trkpt>
      <trkpt lat="39.3555630" lon="3.1290030">
        <ele>61.6</ele>
        <time>2021-06-21T08:26:06Z</time>
      </trkpt>
      <trkpt lat="39.3555630" lon="3.1290030">
        <ele>61.6</ele>
        <time>2021-06-21T08:26:14Z</time>
      </trkpt>
      <trkpt lat="39.3555600" lon="3.1290030">
        <ele>61.6</ele>
        <time>2021-06-21T08:26:19Z</time>
      </trkpt>
      <trkpt lat="39.3555530" lon="3.1290020">
        <ele>61.6</ele>
        <time>2021-06-21T08:26:23Z</time>
      </trkpt>
      <trkpt lat="39.3555530" lon="3.1290020">
        <ele>61.6</ele>
        <time>2021-06-21T08:26:24Z</time>
      </trkpt>
      <trkpt lat="39.3555180" lon="3.1289860">
        <ele>61.6</ele>
        <time>2021-06-21T08:26:40Z</time>
      </trkpt>
      <trkpt lat="39.3555180" lon="3.1289860">
        <ele>61.6</ele>
        <time>2021-06-21T08:26:44Z</time>
      </trkpt>
      <trkpt lat="39.3555180" lon="3.1289860">
        <ele>61.6</ele>
        <time>2021-06-21T08:26:48Z</time>
      </trkpt>
      <trkpt lat="39.3555180" lon="3.1289860">
        <ele>61.6</ele>
        <time>2021-06-21T08:26:56Z</time>
      </trkpt>
      <trkpt lat="39.3555180" lon="3.1289860">
        <ele>61.6</ele>
        <time>2021-06-21T08:27:06Z</time>
      </trkpt>
      <trkpt lat="39.3555180" lon="3.1289860">
        <ele>61.6</ele>
        <time>2021-06-21T08:27:14Z</time>
      </trkpt>
      <trkpt lat="39.3555180" lon="3.1289870">
        <ele>61.6</ele>
        <time>2021-06-21T08:27:26Z</time>
      </trkpt>
      <trkpt lat="39.3555170" lon="3.1289850">
        <ele>61.6</ele>
        <time>2021-06-21T08:27:31Z</time>
      </trkpt>
      <trkpt lat="39.3555170" lon="3.1289850">
        <ele>61.6</ele>
        <time>2021-06-21T08:27:34Z</time>
      </trkpt>
      <trkpt lat="39.3555170" lon="3.1289850">
        <ele>61.6</ele>
        <time>2021-06-21T08:27:38Z</time>
      </trkpt>
      <trkpt lat="39.3555170" lon="3.1289820">
        <ele>61.6</ele>
        <time>2021-06-21T08:27:41Z</time>
      </trkpt>
      <trkpt lat="39.3555060" lon="3.1289760">
        <ele>61.7</ele>
        <time>2021-06-21T08:27:49Z</time>
      </trkpt>
      <trkpt lat="39.3555060" lon="3.1289760">
        <ele>61.7</ele>
        <time>2021-06-21T08:27:55Z</time>
      </trkpt>
      <trkpt lat="39.3555060" lon="3.1289760">
        <ele>61.7</ele>
        <time>2021-06-21T08:28:09Z</time>
      </trkpt>
      <trkpt lat="39.3555180" lon="3.1289610">
        <ele>61.7</ele>
        <time>2021-06-21T08:28:18Z</time>
      </trkpt>
      <trkpt lat="39.3555150" lon="3.1289350">
        <ele>61.7</ele>
        <time>2021-06-21T08:28:19Z</time>
      </trkpt>
      <trkpt lat="39.3554730" lon="3.1287940">
        <ele>61.7</ele>
        <time>2021-06-21T08:28:25Z</time>
      </trkpt>
      <trkpt lat="39.3554440" lon="3.1286450">
        <ele>61.7</ele>
        <time>2021-06-21T08:28:31Z</time>
      </trkpt>
      <trkpt lat="39.3553630" lon="3.1284350">
        <ele>61.7</ele>
        <time>2021-06-21T08:28:36Z</time>
      </trkpt>
      <trkpt lat="39.3553480" lon="3.1283970">
        <ele>61.7</ele>
        <time>2021-06-21T08:28:37Z</time>
      </trkpt>
      <trkpt lat="39.3552930" lon="3.1282520">
        <ele>61.7</ele>
        <time>2021-06-21T08:28:41Z</time>
      </trkpt>
      <trkpt lat="39.3552600" lon="3.1281340">
        <ele>61.7</ele>
        <time>2021-06-21T08:28:44Z</time>
      </trkpt>
      <trkpt lat="39.3551480" lon="3.1279280">
        <ele>61.5</ele>
        <time>2021-06-21T08:28:49Z</time>
      </trkpt>
      <trkpt lat="39.3550400" lon="3.1277690">
        <ele>61.1</ele>
        <time>2021-06-21T08:28:54Z</time>
      </trkpt>
      <trkpt lat="39.3549290" lon="3.1277260">
        <ele>60.6</ele>
        <time>2021-06-21T08:28:57Z</time>
      </trkpt>
      <trkpt lat="39.3548400" lon="3.1276970">
        <ele>60.2</ele>
        <time>2021-06-21T08:28:59Z</time>
      </trkpt>
      <trkpt lat="39.3547920" lon="3.1276640">
        <ele>59.8</ele>
        <time>2021-06-21T08:29:00Z</time>
      </trkpt>
      <trkpt lat="39.3546360" lon="3.1275480">
        <ele>58.6</ele>
        <time>2021-06-21T08:29:03Z</time>
      </trkpt>
      <trkpt lat="39.3545230" lon="3.1274540">
        <ele>57.7</ele>
        <time>2021-06-21T08:29:05Z</time>
      </trkpt>
      <trkpt lat="39.3543250" lon="3.1273120">
        <ele>56.2</ele>
        <time>2021-06-21T08:29:08Z</time>
      </trkpt>
      <trkpt lat="39.3538910" lon="3.1270010">
        <ele>53.7</ele>
        <time>2021-06-21T08:29:15Z</time>
      </trkpt>
      <trkpt lat="39.3535180" lon="3.1266990">
        <ele>52.2</ele>
        <time>2021-06-21T08:29:21Z</time>
      </trkpt>
      <trkpt lat="39.3532680" lon="3.1264980">
        <ele>51.4</ele>
        <time>2021-06-21T08:29:25Z</time>
      </trkpt>
      <trkpt lat="39.3531070" lon="3.1263340">
        <ele>51.1</ele>
        <time>2021-06-21T08:29:28Z</time>
      </trkpt>
      <trkpt lat="39.3527700" lon="3.1259390">
        <ele>50.5</ele>
        <time>2021-06-21T08:29:35Z</time>
      </trkpt>
      <trkpt lat="39.3526470" lon="3.1257900">
        <ele>50.3</ele>
        <time>2021-06-21T08:29:38Z</time>
      </trkpt>
      <trkpt lat="39.3525510" lon="3.1257200">
        <ele>50.2</ele>
        <time>2021-06-21T08:29:40Z</time>
      </trkpt>
      <trkpt lat="39.3525020" lon="3.1256940">
        <ele>50.1</ele>
        <time>2021-06-21T08:29:41Z</time>
      </trkpt>
      <trkpt lat="39.3523580" lon="3.1256350">
        <ele>49.9</ele>
        <time>2021-06-21T08:29:44Z</time>
      </trkpt>
      <trkpt lat="39.3523130" lon="3.1256060">
        <ele>49.8</ele>
        <time>2021-06-21T08:29:45Z</time>
      </trkpt>
      <trkpt lat="39.3522740" lon="3.1255670">
        <ele>49.8</ele>
        <time>2021-06-21T08:29:46Z</time>
      </trkpt>
      <trkpt lat="39.3521870" lon="3.1254210">
        <ele>49.4</ele>
        <time>2021-06-21T08:29:49Z</time>
      </trkpt>
      <trkpt lat="39.3519620" lon="3.1251060">
        <ele>48.5</ele>
        <time>2021-06-21T08:29:55Z</time>
      </trkpt>
      <trkpt lat="39.3516540" lon="3.1246210">
        <ele>47.5</ele>
        <time>2021-06-21T08:30:03Z</time>
      </trkpt>
      <trkpt lat="39.3512680" lon="3.1240520">
        <ele>46.7</ele>
        <time>2021-06-21T08:30:13Z</time>
      </trkpt>
      <trkpt lat="39.3510280" lon="3.1236750">
        <ele>46.4</ele>
        <time>2021-06-21T08:30:20Z</time>
      </trkpt>
      <trkpt lat="39.3509030" lon="3.1234670">
        <ele>46.3</ele>
        <time>2021-06-21T08:30:25Z</time>
      </trkpt>
      <trkpt lat="39.3506060" lon="3.1230760">
        <ele>45.9</ele>
        <time>2021-06-21T08:30:33Z</time>
      </trkpt>
      <trkpt lat="39.3505240" lon="3.1229710">
        <ele>45.9</ele>
        <time>2021-06-21T08:30:35Z</time>
      </trkpt>
      <trkpt lat="39.3504440" lon="3.1228680">
        <ele>45.9</ele>
        <time>2021-06-21T08:30:37Z</time>
      </trkpt>
      <trkpt lat="39.3503730" lon="3.1227610">
        <ele>45.8</ele>
        <time>2021-06-21T08:30:39Z</time>
      </trkpt>
      <trkpt lat="39.3503380" lon="3.1227070">
        <ele>45.8</ele>
        <time>2021-06-21T08:30:40Z</time>
      </trkpt>
      <trkpt lat="39.3502680" lon="3.1226000">
        <ele>45.7</ele>
        <time>2021-06-21T08:30:42Z</time>
      </trkpt>
      <trkpt lat="39.3499820" lon="3.1221680">
        <ele>45.6</ele>
        <time>2021-06-21T08:30:50Z</time>
      </trkpt>
      <trkpt lat="39.3498140" lon="3.1219240">
        <ele>45.6</ele>
        <time>2021-06-21T08:30:54Z</time>
      </trkpt>
      <trkpt lat="39.3496600" lon="3.1217000">
        <ele>45.5</ele>
        <time>2021-06-21T08:30:58Z</time>
      </trkpt>
      <trkpt lat="39.3495320" lon="3.1215130">
        <ele>45.5</ele>
        <time>2021-06-21T08:31:01Z</time>
      </trkpt>
      <trkpt lat="39.3494090" lon="3.1213360">
        <ele>45.5</ele>
        <time>2021-06-21T08:31:04Z</time>
      </trkpt>
      <trkpt lat="39.3493250" lon="3.1212120">
        <ele>45.4</ele>
        <time>2021-06-21T08:31:06Z</time>
      </trkpt>
      <trkpt lat="39.3490010" lon="3.1207240">
        <ele>45.1</ele>
        <time>2021-06-21T08:31:14Z</time>
      </trkpt>
      <trkpt lat="39.3486400" lon="3.1201990">
        <ele>45.1</ele>
        <time>2021-06-21T08:31:23Z</time>
      </trkpt>
      <trkpt lat="39.3486030" lon="3.1201430">
        <ele>45.1</ele>
        <time>2021-06-21T08:31:24Z</time>
      </trkpt>
      <trkpt lat="39.3484330" lon="3.1199070">
        <ele>45.1</ele>
        <time>2021-06-21T08:31:28Z</time>
      </trkpt>
      <trkpt lat="39.3483390" lon="3.1198170">
        <ele>45.1</ele>
        <time>2021-06-21T08:31:30Z</time>
      </trkpt>
      <trkpt lat="39.3482320" lon="3.1197520">
        <ele>45.1</ele>
        <time>2021-06-21T08:31:32Z</time>
      </trkpt>
      <trkpt lat="39.3481260" lon="3.1197250">
        <ele>45.2</ele>
        <time>2021-06-21T08:31:34Z</time>
      </trkpt>
      <trkpt lat="39.3478670" lon="3.1196830">
        <ele>45.3</ele>
        <time>2021-06-21T08:31:38Z</time>
      </trkpt>
      <trkpt lat="39.3475530" lon="3.1196250">
        <ele>45.6</ele>
        <time>2021-06-21T08:31:43Z</time>
      </trkpt>
      <trkpt lat="39.3473050" lon="3.1195780">
        <ele>45.8</ele>
        <time>2021-06-21T08:31:47Z</time>
      </trkpt>
      <trkpt lat="39.3471890" lon="3.1195590">
        <ele>45.9</ele>
        <time>2021-06-21T08:31:49Z</time>
      </trkpt>
      <trkpt lat="39.3469340" lon="3.1195160">
        <ele>46.2</ele>
        <time>2021-06-21T08:31:53Z</time>
      </trkpt>
      <trkpt lat="39.3463620" lon="3.1194110">
        <ele>47.4</ele>
        <time>2021-06-21T08:32:03Z</time>
      </trkpt>
      <trkpt lat="39.3462490" lon="3.1193370">
        <ele>47.8</ele>
        <time>2021-06-21T08:32:05Z</time>
      </trkpt>
      <trkpt lat="39.3461580" lon="3.1192500">
        <ele>48.1</ele>
        <time>2021-06-21T08:32:07Z</time>
      </trkpt>
      <trkpt lat="39.3461240" lon="3.1192080">
        <ele>48.1</ele>
        <time>2021-06-21T08:32:08Z</time>
      </trkpt>
      <trkpt lat="39.3460470" lon="3.1190790">
        <ele>48.3</ele>
        <time>2021-06-21T08:32:10Z</time>
      </trkpt>
      <trkpt lat="39.3460200" lon="3.1190160">
        <ele>48.4</ele>
        <time>2021-06-21T08:32:11Z</time>
      </trkpt>
      <trkpt lat="39.3459740" lon="3.1188980">
        <ele>48.5</ele>
        <time>2021-06-21T08:32:13Z</time>
      </trkpt>
      <trkpt lat="39.3458860" lon="3.1186810">
        <ele>48.7</ele>
        <time>2021-06-21T08:32:16Z</time>
      </trkpt>
      <trkpt lat="39.3457420" lon="3.1182720">
        <ele>49.5</ele>
        <time>2021-06-21T08:32:22Z</time>
      </trkpt>
      <trkpt lat="39.3454780" lon="3.1176040">
        <ele>51.1</ele>
        <time>2021-06-21T08:32:32Z</time>
      </trkpt>
      <trkpt lat="39.3453460" lon="3.1172890">
        <ele>52.0</ele>
        <time>2021-06-21T08:32:37Z</time>
      </trkpt>
      <trkpt lat="39.3452550" lon="3.1171240">
        <ele>52.6</ele>
        <time>2021-06-21T08:32:40Z</time>
      </trkpt>
      <trkpt lat="39.3450190" lon="3.1168190">
        <ele>54.0</ele>
        <time>2021-06-21T08:32:47Z</time>
      </trkpt>
      <trkpt lat="39.3448660" lon="3.1166700">
        <ele>54.9</ele>
        <time>2021-06-21T08:32:51Z</time>
      </trkpt>
      <trkpt lat="39.3447490" lon="3.1165500">
        <ele>55.6</ele>
        <time>2021-06-21T08:32:54Z</time>
      </trkpt>
      <trkpt lat="39.3445340" lon="3.1162810">
        <ele>56.6</ele>
        <time>2021-06-21T08:33:00Z</time>
      </trkpt>
      <trkpt lat="39.3444690" lon="3.1161980">
        <ele>56.9</ele>
        <time>2021-06-21T08:33:02Z</time>
      </trkpt>
      <trkpt lat="39.3441120" lon="3.1157570">
        <ele>58.0</ele>
        <time>2021-06-21T08:33:11Z</time>
      </trkpt>
      <trkpt lat="39.3438050" lon="3.1153190">
        <ele>58.9</ele>
        <time>2021-06-21T08:33:19Z</time>
      </trkpt>
      <trkpt lat="39.3434820" lon="3.1147340">
        <ele>60.0</ele>
        <time>2021-06-21T08:33:29Z</time>
      </trkpt>
      <trkpt lat="39.3431360" lon="3.1141350">
        <ele>60.5</ele>
        <time>2021-06-21T08:33:39Z</time>
      </trkpt>
      <trkpt lat="39.3430640" lon="3.1140310">
        <ele>60.5</ele>
        <time>2021-06-21T08:33:41Z</time>
      </trkpt>
      <trkpt lat="39.3426790" lon="3.1135030">
        <ele>60.5</ele>
        <time>2021-06-21T08:33:50Z</time>
      </trkpt>
      <trkpt lat="39.3426380" lon="3.1134450">
        <ele>60.5</ele>
        <time>2021-06-21T08:33:51Z</time>
      </trkpt>
      <trkpt lat="39.3425950" lon="3.1133690">
        <ele>60.6</ele>
        <time>2021-06-21T08:33:52Z</time>
      </trkpt>
      <trkpt lat="39.3425590" lon="3.1132470">
        <ele>60.6</ele>
        <time>2021-06-21T08:33:54Z</time>
      </trkpt>
      <trkpt lat="39.3425320" lon="3.1130810">
        <ele>60.6</ele>
        <time>2021-06-21T08:33:56Z</time>
      </trkpt>
      <trkpt lat="39.3424680" lon="3.1129350">
        <ele>60.5</ele>
        <time>2021-06-21T08:33:58Z</time>
      </trkpt>
      <trkpt lat="39.3423430" lon="3.1127600">
        <ele>60.2</ele>
        <time>2021-06-21T08:34:01Z</time>
      </trkpt>
      <trkpt lat="39.3422900" lon="3.1126260">
        <ele>59.9</ele>
        <time>2021-06-21T08:34:03Z</time>
      </trkpt>
      <trkpt lat="39.3422670" lon="3.1124130">
        <ele>59.7</ele>
        <time>2021-06-21T08:34:06Z</time>
      </trkpt>
      <trkpt lat="39.3422570" lon="3.1122860">
        <ele>59.6</ele>
        <time>2021-06-21T08:34:08Z</time>
      </trkpt>
      <trkpt lat="39.3422440" lon="3.1121440">
        <ele>59.5</ele>
        <time>2021-06-21T08:34:10Z</time>
      </trkpt>
      <trkpt lat="39.3422310" lon="3.1119990">
        <ele>59.5</ele>
        <time>2021-06-21T08:34:12Z</time>
      </trkpt>
      <trkpt lat="39.3422250" lon="3.1118850">
        <ele>59.4</ele>
        <time>2021-06-21T08:34:14Z</time>
      </trkpt>
      <trkpt lat="39.3422090" lon="3.1117510">
        <ele>59.3</ele>
        <time>2021-06-21T08:34:16Z</time>
      </trkpt>
      <trkpt lat="39.3422010" lon="3.1116940">
        <ele>59.2</ele>
        <time>2021-06-21T08:34:17Z</time>
      </trkpt>
      <trkpt lat="39.3421480" lon="3.1113710">
        <ele>58.9</ele>
        <time>2021-06-21T08:34:23Z</time>
      </trkpt>
      <trkpt lat="39.3421400" lon="3.1113100">
        <ele>58.8</ele>
        <time>2021-06-21T08:34:24Z</time>
      </trkpt>
      <trkpt lat="39.3420780" lon="3.1107940">
        <ele>58.3</ele>
        <time>2021-06-21T08:34:33Z</time>
      </trkpt>
      <trkpt lat="39.3420700" lon="3.1107350">
        <ele>58.3</ele>
        <time>2021-06-21T08:34:34Z</time>
      </trkpt>
      <trkpt lat="39.3420620" lon="3.1106600">
        <ele>58.2</ele>
        <time>2021-06-21T08:34:35Z</time>
      </trkpt>
      <trkpt lat="39.3420080" lon="3.1100560">
        <ele>57.8</ele>
        <time>2021-06-21T08:34:45Z</time>
      </trkpt>
      <trkpt lat="39.3419550" lon="3.1096060">
        <ele>57.5</ele>
        <time>2021-06-21T08:34:52Z</time>
      </trkpt>
      <trkpt lat="39.3418950" lon="3.1089970">
        <ele>57.5</ele>
        <time>2021-06-21T08:34:59Z</time>
      </trkpt>
      <trkpt lat="39.3418620" lon="3.1086620">
        <ele>57.7</ele>
        <time>2021-06-21T08:35:03Z</time>
      </trkpt>
      <trkpt lat="39.3418530" lon="3.1085820">
        <ele>57.7</ele>
        <time>2021-06-21T08:35:04Z</time>
      </trkpt>
      <trkpt lat="39.3418450" lon="3.1085010">
        <ele>57.7</ele>
        <time>2021-06-21T08:35:05Z</time>
      </trkpt>
      <trkpt lat="39.3418280" lon="3.1083350">
        <ele>57.7</ele>
        <time>2021-06-21T08:35:07Z</time>
      </trkpt>
      <trkpt lat="39.3418130" lon="3.1081870">
        <ele>57.8</ele>
        <time>2021-06-21T08:35:09Z</time>
      </trkpt>
      <trkpt lat="39.3417420" lon="3.1074610">
        <ele>58.4</ele>
        <time>2021-06-21T08:35:18Z</time>
      </trkpt>
      <trkpt lat="39.3417180" lon="3.1072360">
        <ele>58.8</ele>
        <time>2021-06-21T08:35:21Z</time>
      </trkpt>
      <trkpt lat="39.3416700" lon="3.1069360">
        <ele>59.5</ele>
        <time>2021-06-21T08:35:25Z</time>
      </trkpt>
      <trkpt lat="39.3416270" lon="3.1067090">
        <ele>59.9</ele>
        <time>2021-06-21T08:35:28Z</time>
      </trkpt>
      <trkpt lat="39.3415970" lon="3.1065580">
        <ele>60.2</ele>
        <time>2021-06-21T08:35:30Z</time>
      </trkpt>
      <trkpt lat="39.3415100" lon="3.1061100">
        <ele>61.2</ele>
        <time>2021-06-21T08:35:36Z</time>
      </trkpt>
      <trkpt lat="39.3414460" lon="3.1057220">
        <ele>61.7</ele>
        <time>2021-06-21T08:35:41Z</time>
      </trkpt>
      <trkpt lat="39.3414450" lon="3.1054110">
        <ele>61.8</ele>
        <time>2021-06-21T08:35:45Z</time>
      </trkpt>
      <trkpt lat="39.3414550" lon="3.1053320">
        <ele>61.8</ele>
        <time>2021-06-21T08:35:46Z</time>
      </trkpt>
      <trkpt lat="39.3416020" lon="3.1045870">
        <ele>60.9</ele>
        <time>2021-06-21T08:35:55Z</time>
      </trkpt>
      <trkpt lat="39.3416180" lon="3.1044970">
        <ele>60.8</ele>
        <time>2021-06-21T08:35:56Z</time>
      </trkpt>
      <trkpt lat="39.3417190" lon="3.1039480">
        <ele>60.1</ele>
        <time>2021-06-21T08:36:02Z</time>
      </trkpt>
      <trkpt lat="39.3417520" lon="3.1037580">
        <ele>59.9</ele>
        <time>2021-06-21T08:36:04Z</time>
      </trkpt>
      <trkpt lat="39.3418710" lon="3.1030750">
        <ele>59.2</ele>
        <time>2021-06-21T08:36:11Z</time>
      </trkpt>
      <trkpt lat="39.3419200" lon="3.1027820">
        <ele>58.9</ele>
        <time>2021-06-21T08:36:14Z</time>
      </trkpt>
      <trkpt lat="39.3419830" lon="3.1023900">
        <ele>58.6</ele>
        <time>2021-06-21T08:36:18Z</time>
      </trkpt>
      <trkpt lat="39.3420410" lon="3.1019040">
        <ele>58.0</ele>
        <time>2021-06-21T08:36:23Z</time>
      </trkpt>
      <trkpt lat="39.3419690" lon="3.1015140">
        <ele>57.5</ele>
        <time>2021-06-21T08:36:27Z</time>
      </trkpt>
      <trkpt lat="39.3417920" lon="3.1008220">
        <ele>56.6</ele>
        <time>2021-06-21T08:36:34Z</time>
      </trkpt>
      <trkpt lat="39.3417180" lon="3.1005200">
        <ele>56.2</ele>
        <time>2021-06-21T08:36:37Z</time>
      </trkpt>
      <trkpt lat="39.3415970" lon="3.1001370">
        <ele>55.8</ele>
        <time>2021-06-21T08:36:41Z</time>
      </trkpt>
      <trkpt lat="39.3415120" lon="3.0999580">
        <ele>55.7</ele>
        <time>2021-06-21T08:36:43Z</time>
      </trkpt>
      <trkpt lat="39.3412400" lon="3.0993150">
        <ele>55.5</ele>
        <time>2021-06-21T08:36:50Z</time>
      </trkpt>
      <trkpt lat="39.3412110" lon="3.0992250">
        <ele>55.6</ele>
        <time>2021-06-21T08:36:51Z</time>
      </trkpt>
      <trkpt lat="39.3411070" lon="3.0988150">
        <ele>55.9</ele>
        <time>2021-06-21T08:36:56Z</time>
      </trkpt>
      <trkpt lat="39.3411230" lon="3.0986690">
        <ele>56.0</ele>
        <time>2021-06-21T08:36:58Z</time>
      </trkpt>
      <trkpt lat="39.3411430" lon="3.0985970">
        <ele>56.0</ele>
        <time>2021-06-21T08:36:59Z</time>
      </trkpt>
      <trkpt lat="39.3412900" lon="3.0981150">
        <ele>56.7</ele>
        <time>2021-06-21T08:37:06Z</time>
      </trkpt>
      <trkpt lat="39.3413060" lon="3.0980500">
        <ele>56.8</ele>
        <time>2021-06-21T08:37:07Z</time>
      </trkpt>
      <trkpt lat="39.3413450" lon="3.0978010">
        <ele>57.0</ele>
        <time>2021-06-21T08:37:11Z</time>
      </trkpt>
      <trkpt lat="39.3413350" lon="3.0977440">
        <ele>57.1</ele>
        <time>2021-06-21T08:37:12Z</time>
      </trkpt>
      <trkpt lat="39.3413150" lon="3.0976930">
        <ele>57.1</ele>
        <time>2021-06-21T08:37:13Z</time>
      </trkpt>
      <trkpt lat="39.3412370" lon="3.0975510">
        <ele>57.1</ele>
        <time>2021-06-21T08:37:16Z</time>
      </trkpt>
      <trkpt lat="39.3411620" lon="3.0974360">
        <ele>57.1</ele>
        <time>2021-06-21T08:37:19Z</time>
      </trkpt>
      <trkpt lat="39.3410810" lon="3.0973790">
        <ele>57.0</ele>
        <time>2021-06-21T08:37:21Z</time>
      </trkpt>
      <trkpt lat="39.3409790" lon="3.0973420">
        <ele>57.0</ele>
        <time>2021-06-21T08:37:23Z</time>
      </trkpt>
      <trkpt lat="39.3408640" lon="3.0973350">
        <ele>56.9</ele>
        <time>2021-06-21T08:37:25Z</time>
      </trkpt>
      <trkpt lat="39.3407560" lon="3.0972990">
        <ele>56.7</ele>
        <time>2021-06-21T08:37:27Z</time>
      </trkpt>
      <trkpt lat="39.3407260" lon="3.0972450">
        <ele>56.6</ele>
        <time>2021-06-21T08:37:28Z</time>
      </trkpt>
      <trkpt lat="39.3407100" lon="3.0971740">
        <ele>56.5</ele>
        <time>2021-06-21T08:37:29Z</time>
      </trkpt>
      <trkpt lat="39.3406600" lon="3.0969470">
        <ele>56.3</ele>
        <time>2021-06-21T08:37:32Z</time>
      </trkpt>
      <trkpt lat="39.3404930" lon="3.0963540">
        <ele>55.4</ele>
        <time>2021-06-21T08:37:40Z</time>
      </trkpt>
      <trkpt lat="39.3403260" lon="3.0960280">
        <ele>54.6</ele>
        <time>2021-06-21T08:37:45Z</time>
      </trkpt>
      <trkpt lat="39.3402440" lon="3.0959160">
        <ele>54.3</ele>
        <time>2021-06-21T08:37:47Z</time>
      </trkpt>
      <trkpt lat="39.3400940" lon="3.0957770">
        <ele>54.0</ele>
        <time>2021-06-21T08:37:50Z</time>
      </trkpt>
      <trkpt lat="39.3399730" lon="3.0956870">
        <ele>53.6</ele>
        <time>2021-06-21T08:37:52Z</time>
      </trkpt>
      <trkpt lat="39.3397090" lon="3.0954900">
        <ele>52.8</ele>
        <time>2021-06-21T08:37:56Z</time>
      </trkpt>
      <trkpt lat="39.3392190" lon="3.0951210">
        <ele>51.8</ele>
        <time>2021-06-21T08:38:03Z</time>
      </trkpt>
      <trkpt lat="39.3389440" lon="3.0949040">
        <ele>51.6</ele>
        <time>2021-06-21T08:38:07Z</time>
      </trkpt>
      <trkpt lat="39.3384700" lon="3.0945380">
        <ele>51.3</ele>
        <time>2021-06-21T08:38:14Z</time>
      </trkpt>
      <trkpt lat="39.3379430" lon="3.0941310">
        <ele>51.3</ele>
        <time>2021-06-21T08:38:22Z</time>
      </trkpt>
      <trkpt lat="39.3378770" lon="3.0940790">
        <ele>51.3</ele>
        <time>2021-06-21T08:38:23Z</time>
      </trkpt>
      <trkpt lat="39.3373860" lon="3.0936890">
        <ele>51.5</ele>
        <time>2021-06-21T08:38:31Z</time>
      </trkpt>
      <trkpt lat="39.3373310" lon="3.0936320">
        <ele>51.6</ele>
        <time>2021-06-21T08:38:32Z</time>
      </trkpt>
      <trkpt lat="39.3372810" lon="3.0935650">
        <ele>51.6</ele>
        <time>2021-06-21T08:38:33Z</time>
      </trkpt>
      <trkpt lat="39.3371700" lon="3.0933280">
        <ele>51.7</ele>
        <time>2021-06-21T08:38:36Z</time>
      </trkpt>
      <trkpt lat="39.3371320" lon="3.0931570">
        <ele>51.8</ele>
        <time>2021-06-21T08:38:38Z</time>
      </trkpt>
      <trkpt lat="39.3371210" lon="3.0929720">
        <ele>51.9</ele>
        <time>2021-06-21T08:38:40Z</time>
      </trkpt>
      <trkpt lat="39.3371820" lon="3.0925260">
        <ele>52.2</ele>
        <time>2021-06-21T08:38:45Z</time>
      </trkpt>
      <trkpt lat="39.3372730" lon="3.0918900">
        <ele>52.6</ele>
        <time>2021-06-21T08:38:52Z</time>
      </trkpt>
      <trkpt lat="39.3372890" lon="3.0918060">
        <ele>52.6</ele>
        <time>2021-06-21T08:38:53Z</time>
      </trkpt>
      <trkpt lat="39.3373490" lon="3.0914730">
        <ele>52.8</ele>
        <time>2021-06-21T08:38:57Z</time>
      </trkpt>
      <trkpt lat="39.3374010" lon="3.0911540">
        <ele>53.0</ele>
        <time>2021-06-21T08:39:01Z</time>
      </trkpt>
      <trkpt lat="39.3374280" lon="3.0909930">
        <ele>53.1</ele>
        <time>2021-06-21T08:39:03Z</time>
      </trkpt>
      <trkpt lat="39.3375340" lon="3.0903080">
        <ele>53.6</ele>
        <time>2021-06-21T08:39:12Z</time>
      </trkpt>
      <trkpt lat="39.3375670" lon="3.0900850">
        <ele>53.7</ele>
        <time>2021-06-21T08:39:15Z</time>
      </trkpt>
      <trkpt lat="39.3376790" lon="3.0893340">
        <ele>54.2</ele>
        <time>2021-06-21T08:39:25Z</time>
      </trkpt>
      <trkpt lat="39.3377780" lon="3.0886380">
        <ele>54.7</ele>
        <time>2021-06-21T08:39:34Z</time>
      </trkpt>
      <trkpt lat="39.3377900" lon="3.0885620">
        <ele>54.7</ele>
        <time>2021-06-21T08:39:35Z</time>
      </trkpt>
      <trkpt lat="39.3379030" lon="3.0878760">
        <ele>55.3</ele>
        <time>2021-06-21T08:39:44Z</time>
      </trkpt>
      <trkpt lat="39.3379150" lon="3.0878010">
        <ele>55.4</ele>
        <time>2021-06-21T08:39:45Z</time>
      </trkpt>
      <trkpt lat="39.3380090" lon="3.0872010">
        <ele>56.1</ele>
        <time>2021-06-21T08:39:53Z</time>
      </trkpt>
      <trkpt lat="39.3381170" lon="3.0864820">
        <ele>57.0</ele>
        <time>2021-06-21T08:40:03Z</time>
      </trkpt>
      <trkpt lat="39.3381250" lon="3.0864140">
        <ele>57.2</ele>
        <time>2021-06-21T08:40:04Z</time>
      </trkpt>
      <trkpt lat="39.3382160" lon="3.0858760">
        <ele>58.2</ele>
        <time>2021-06-21T08:40:12Z</time>
      </trkpt>
      <trkpt lat="39.3383380" lon="3.0851530">
        <ele>59.5</ele>
        <time>2021-06-21T08:40:23Z</time>
      </trkpt>
      <trkpt lat="39.3384330" lon="3.0845860">
        <ele>60.4</ele>
        <time>2021-06-21T08:40:32Z</time>
      </trkpt>
      <trkpt lat="39.3384650" lon="3.0840920">
        <ele>60.6</ele>
        <time>2021-06-21T08:40:40Z</time>
      </trkpt>
      <trkpt lat="39.3384190" lon="3.0836040">
        <ele>60.1</ele>
        <time>2021-06-21T08:40:47Z</time>
      </trkpt>
      <trkpt lat="39.3383760" lon="3.0832230">
        <ele>59.4</ele>
        <time>2021-06-21T08:40:52Z</time>
      </trkpt>
      <trkpt lat="39.3383510" lon="3.0830550">
        <ele>59.1</ele>
        <time>2021-06-21T08:40:54Z</time>
      </trkpt>
      <trkpt lat="39.3382690" lon="3.0823490">
        <ele>57.8</ele>
        <time>2021-06-21T08:41:02Z</time>
      </trkpt>
      <trkpt lat="39.3382210" lon="3.0819210">
        <ele>57.5</ele>
        <time>2021-06-21T08:41:07Z</time>
      </trkpt>
      <trkpt lat="39.3381930" lon="3.0816620">
        <ele>57.4</ele>
        <time>2021-06-21T08:41:10Z</time>
      </trkpt>
      <trkpt lat="39.3381920" lon="3.0815750">
        <ele>57.3</ele>
        <time>2021-06-21T08:41:11Z</time>
      </trkpt>
      <trkpt lat="39.3382010" lon="3.0814860">
        <ele>57.2</ele>
        <time>2021-06-21T08:41:12Z</time>
      </trkpt>
      <trkpt lat="39.3382450" lon="3.0813120">
        <ele>57.0</ele>
        <time>2021-06-21T08:41:14Z</time>
      </trkpt>
      <trkpt lat="39.3384970" lon="3.0806270">
        <ele>56.2</ele>
        <time>2021-06-21T08:41:22Z</time>
      </trkpt>
      <trkpt lat="39.3387530" lon="3.0799390">
        <ele>55.4</ele>
        <time>2021-06-21T08:41:30Z</time>
      </trkpt>
      <trkpt lat="39.3388860" lon="3.0795750">
        <ele>54.8</ele>
        <time>2021-06-21T08:41:34Z</time>
      </trkpt>
      <trkpt lat="39.3391280" lon="3.0789090">
        <ele>53.7</ele>
        <time>2021-06-21T08:41:41Z</time>
      </trkpt>
      <trkpt lat="39.3391640" lon="3.0788120">
        <ele>53.6</ele>
        <time>2021-06-21T08:41:42Z</time>
      </trkpt>
      <trkpt lat="39.3394190" lon="3.0781350">
        <ele>53.2</ele>
        <time>2021-06-21T08:41:49Z</time>
      </trkpt>
      <trkpt lat="39.3395270" lon="3.0778440">
        <ele>53.0</ele>
        <time>2021-06-21T08:41:52Z</time>
      </trkpt>
      <trkpt lat="39.3397750" lon="3.0771860">
        <ele>52.7</ele>
        <time>2021-06-21T08:41:59Z</time>
      </trkpt>
      <trkpt lat="39.3398840" lon="3.0768970">
        <ele>52.5</ele>
        <time>2021-06-21T08:42:02Z</time>
      </trkpt>
      <trkpt lat="39.3400620" lon="3.0764240">
        <ele>52.1</ele>
        <time>2021-06-21T08:42:07Z</time>
      </trkpt>
      <trkpt lat="39.3402500" lon="3.0759220">
        <ele>51.6</ele>
        <time>2021-06-21T08:42:12Z</time>
      </trkpt>
      <trkpt lat="39.3403480" lon="3.0756130">
        <ele>51.3</ele>
        <time>2021-06-21T08:42:15Z</time>
      </trkpt>
      <trkpt lat="39.3403650" lon="3.0755060">
        <ele>51.3</ele>
        <time>2021-06-21T08:42:16Z</time>
      </trkpt>
      <trkpt lat="39.3404070" lon="3.0748370">
        <ele>50.4</ele>
        <time>2021-06-21T08:42:22Z</time>
      </trkpt>
      <trkpt lat="39.3404560" lon="3.0740540">
        <ele>48.8</ele>
        <time>2021-06-21T08:42:29Z</time>
      </trkpt>
      <trkpt lat="39.3404740" lon="3.0737190">
        <ele>47.9</ele>
        <time>2021-06-21T08:42:32Z</time>
      </trkpt>
      <trkpt lat="39.3405010" lon="3.0731190">
        <ele>45.7</ele>
        <time>2021-06-21T08:42:37Z</time>
      </trkpt>
      <trkpt lat="39.3405230" lon="3.0726400">
        <ele>44.3</ele>
        <time>2021-06-21T08:42:41Z</time>
      </trkpt>
      <trkpt lat="39.3405360" lon="3.0724000">
        <ele>43.8</ele>
        <time>2021-06-21T08:42:43Z</time>
      </trkpt>
      <trkpt lat="39.3405460" lon="3.0721750">
        <ele>43.5</ele>
        <time>2021-06-21T08:42:45Z</time>
      </trkpt>
      <trkpt lat="39.3405650" lon="3.0718400">
        <ele>43.1</ele>
        <time>2021-06-21T08:42:48Z</time>
      </trkpt>
      <trkpt lat="39.3405760" lon="3.0716270">
        <ele>43.1</ele>
        <time>2021-06-21T08:42:50Z</time>
      </trkpt>
      <trkpt lat="39.3405940" lon="3.0711210">
        <ele>43.1</ele>
        <time>2021-06-21T08:42:55Z</time>
      </trkpt>
      <trkpt lat="39.3405980" lon="3.0710250">
        <ele>43.2</ele>
        <time>2021-06-21T08:42:56Z</time>
      </trkpt>
      <trkpt lat="39.3406190" lon="3.0706600">
        <ele>43.3</ele>
        <time>2021-06-21T08:43:00Z</time>
      </trkpt>
      <trkpt lat="39.3406250" lon="3.0705690">
        <ele>43.3</ele>
        <time>2021-06-21T08:43:01Z</time>
      </trkpt>
      <trkpt lat="39.3406460" lon="3.0701200">
        <ele>43.4</ele>
        <time>2021-06-21T08:43:06Z</time>
      </trkpt>
      <trkpt lat="39.3406670" lon="3.0696670">
        <ele>43.6</ele>
        <time>2021-06-21T08:43:11Z</time>
      </trkpt>
      <trkpt lat="39.3406980" lon="3.0691260">
        <ele>43.3</ele>
        <time>2021-06-21T08:43:17Z</time>
      </trkpt>
      <trkpt lat="39.3407110" lon="3.0688540">
        <ele>42.9</ele>
        <time>2021-06-21T08:43:20Z</time>
      </trkpt>
      <trkpt lat="39.3407270" lon="3.0682960">
        <ele>42.1</ele>
        <time>2021-06-21T08:43:26Z</time>
      </trkpt>
      <trkpt lat="39.3407120" lon="3.0682010">
        <ele>41.9</ele>
        <time>2021-06-21T08:43:27Z</time>
      </trkpt>
      <trkpt lat="39.3405570" lon="3.0676420">
        <ele>41.2</ele>
        <time>2021-06-21T08:43:33Z</time>
      </trkpt>
      <trkpt lat="39.3403530" lon="3.0669870">
        <ele>40.3</ele>
        <time>2021-06-21T08:43:40Z</time>
      </trkpt>
      <trkpt lat="39.3402940" lon="3.0668090">
        <ele>40.1</ele>
        <time>2021-06-21T08:43:42Z</time>
      </trkpt>
      <trkpt lat="39.3400560" lon="3.0661030">
        <ele>39.7</ele>
        <time>2021-06-21T08:43:50Z</time>
      </trkpt>
      <trkpt lat="39.3400270" lon="3.0660130">
        <ele>39.7</ele>
        <time>2021-06-21T08:43:51Z</time>
      </trkpt>
      <trkpt lat="39.3398460" lon="3.0653900">
        <ele>39.6</ele>
        <time>2021-06-21T08:43:58Z</time>
      </trkpt>
      <trkpt lat="39.3397760" lon="3.0648340">
        <ele>39.7</ele>
        <time>2021-06-21T08:44:04Z</time>
      </trkpt>
      <trkpt lat="39.3397660" lon="3.0647390">
        <ele>39.8</ele>
        <time>2021-06-21T08:44:05Z</time>
      </trkpt>
      <trkpt lat="39.3397600" lon="3.0645470">
        <ele>39.8</ele>
        <time>2021-06-21T08:44:07Z</time>
      </trkpt>
      <trkpt lat="39.3397790" lon="3.0643550">
        <ele>39.9</ele>
        <time>2021-06-21T08:44:09Z</time>
      </trkpt>
      <trkpt lat="39.3399250" lon="3.0639250">
        <ele>40.2</ele>
        <time>2021-06-21T08:44:14Z</time>
      </trkpt>
      <trkpt lat="39.3401440" lon="3.0633430">
        <ele>40.3</ele>
        <time>2021-06-21T08:44:21Z</time>
      </trkpt>
      <trkpt lat="39.3402590" lon="3.0627460">
        <ele>40.5</ele>
        <time>2021-06-21T08:44:28Z</time>
      </trkpt>
      <trkpt lat="39.3403290" lon="3.0623440">
        <ele>40.6</ele>
        <time>2021-06-21T08:44:33Z</time>
      </trkpt>
      <trkpt lat="39.3403730" lon="3.0620230">
        <ele>40.9</ele>
        <time>2021-06-21T08:44:37Z</time>
      </trkpt>
      <trkpt lat="39.3404170" lon="3.0614930">
        <ele>41.4</ele>
        <time>2021-06-21T08:44:44Z</time>
      </trkpt>
      <trkpt lat="39.3404390" lon="3.0610420">
        <ele>41.3</ele>
        <time>2021-06-21T08:44:50Z</time>
      </trkpt>
      <trkpt lat="39.3404900" lon="3.0607400">
        <ele>41.3</ele>
        <time>2021-06-21T08:44:54Z</time>
      </trkpt>
      <trkpt lat="39.3405240" lon="3.0605870">
        <ele>41.3</ele>
        <time>2021-06-21T08:44:56Z</time>
      </trkpt>
      <trkpt lat="39.3406340" lon="3.0600810">
        <ele>41.5</ele>
        <time>2021-06-21T08:45:03Z</time>
      </trkpt>
      <trkpt lat="39.3406540" lon="3.0600010">
        <ele>41.5</ele>
        <time>2021-06-21T08:45:04Z</time>
      </trkpt>
      <trkpt lat="39.3407810" lon="3.0594400">
        <ele>42.1</ele>
        <time>2021-06-21T08:45:12Z</time>
      </trkpt>
      <trkpt lat="39.3408090" lon="3.0592920">
        <ele>42.3</ele>
        <time>2021-06-21T08:45:14Z</time>
      </trkpt>
      <trkpt lat="39.3408650" lon="3.0589840">
        <ele>42.6</ele>
        <time>2021-06-21T08:45:18Z</time>
      </trkpt>
      <trkpt lat="39.3408820" lon="3.0589080">
        <ele>42.7</ele>
        <time>2021-06-21T08:45:19Z</time>
      </trkpt>
      <trkpt lat="39.3410150" lon="3.0582730">
        <ele>43.2</ele>
        <time>2021-06-21T08:45:28Z</time>
      </trkpt>
      <trkpt lat="39.3410810" lon="3.0579820">
        <ele>43.4</ele>
        <time>2021-06-21T08:45:33Z</time>
      </trkpt>
      <trkpt lat="39.3410840" lon="3.0579300">
        <ele>43.4</ele>
        <time>2021-06-21T08:45:34Z</time>
      </trkpt>
      <trkpt lat="39.3410790" lon="3.0578770">
        <ele>43.4</ele>
        <time>2021-06-21T08:45:35Z</time>
      </trkpt>
      <trkpt lat="39.3410450" lon="3.0577950">
        <ele>43.4</ele>
        <time>2021-06-21T08:45:37Z</time>
      </trkpt>
      <trkpt lat="39.3410130" lon="3.0577750">
        <ele>43.4</ele>
        <time>2021-06-21T08:45:38Z</time>
      </trkpt>
      <trkpt lat="39.3408650" lon="3.0577530">
        <ele>43.5</ele>
        <time>2021-06-21T08:45:42Z</time>
      </trkpt>
      <trkpt lat="39.3408340" lon="3.0577260">
        <ele>43.5</ele>
        <time>2021-06-21T08:45:43Z</time>
      </trkpt>
      <trkpt lat="39.3407040" lon="3.0575900">
        <ele>43.4</ele>
        <time>2021-06-21T08:45:47Z</time>
      </trkpt>
      <trkpt lat="39.3406370" lon="3.0575080">
        <ele>43.4</ele>
        <time>2021-06-21T08:45:49Z</time>
      </trkpt>
      <trkpt lat="39.3406020" lon="3.0574630">
        <ele>43.3</ele>
        <time>2021-06-21T08:45:50Z</time>
      </trkpt>
      <trkpt lat="39.3405240" lon="3.0573800">
        <ele>43.3</ele>
        <time>2021-06-21T08:45:52Z</time>
      </trkpt>
      <trkpt lat="39.3404470" lon="3.0572990">
        <ele>43.3</ele>
        <time>2021-06-21T08:45:54Z</time>
      </trkpt>
      <trkpt lat="39.3403780" lon="3.0572210">
        <ele>43.2</ele>
        <time>2021-06-21T08:45:56Z</time>
      </trkpt>
      <trkpt lat="39.3403380" lon="3.0571790">
        <ele>43.2</ele>
        <time>2021-06-21T08:45:57Z</time>
      </trkpt>
      <trkpt lat="39.3402250" lon="3.0570460">
        <ele>43.2</ele>
        <time>2021-06-21T08:46:00Z</time>
      </trkpt>
      <trkpt lat="39.3400400" lon="3.0568270">
        <ele>43.1</ele>
        <time>2021-06-21T08:46:05Z</time>
      </trkpt>
      <trkpt lat="39.3398520" lon="3.0566020">
        <ele>43.0</ele>
        <time>2021-06-21T08:46:10Z</time>
      </trkpt>
      <trkpt lat="39.3397050" lon="3.0564230">
        <ele>42.9</ele>
        <time>2021-06-21T08:46:14Z</time>
      </trkpt>
      <trkpt lat="39.3393300" lon="3.0560020">
        <ele>42.9</ele>
        <time>2021-06-21T08:46:23Z</time>
      </trkpt>
      <trkpt lat="39.3391500" lon="3.0557640">
        <ele>42.7</ele>
        <time>2021-06-21T08:46:28Z</time>
      </trkpt>
      <trkpt lat="39.3390490" lon="3.0556180">
        <ele>42.6</ele>
        <time>2021-06-21T08:46:31Z</time>
      </trkpt>
      <trkpt lat="39.3389260" lon="3.0553070">
        <ele>42.3</ele>
        <time>2021-06-21T08:46:36Z</time>
      </trkpt>
      <trkpt lat="39.3388880" lon="3.0551660">
        <ele>42.2</ele>
        <time>2021-06-21T08:46:38Z</time>
      </trkpt>
      <trkpt lat="39.3388460" lon="3.0549340">
        <ele>42.0</ele>
        <time>2021-06-21T08:46:41Z</time>
      </trkpt>
      <trkpt lat="39.3387350" lon="3.0543510">
        <ele>41.7</ele>
        <time>2021-06-21T08:46:49Z</time>
      </trkpt>
      <trkpt lat="39.3386510" lon="3.0539190">
        <ele>41.7</ele>
        <time>2021-06-21T08:46:55Z</time>
      </trkpt>
      <trkpt lat="39.3385610" lon="3.0534460">
        <ele>41.7</ele>
        <time>2021-06-21T08:47:02Z</time>
      </trkpt>
      <trkpt lat="39.3384410" lon="3.0528970">
        <ele>41.7</ele>
        <time>2021-06-21T08:47:10Z</time>
      </trkpt>
      <trkpt lat="39.3384310" lon="3.0528220">
        <ele>41.7</ele>
        <time>2021-06-21T08:47:11Z</time>
      </trkpt>
      <trkpt lat="39.3384580" lon="3.0526750">
        <ele>41.7</ele>
        <time>2021-06-21T08:47:13Z</time>
      </trkpt>
      <trkpt lat="39.3385430" lon="3.0523930">
        <ele>41.7</ele>
        <time>2021-06-21T08:47:17Z</time>
      </trkpt>
      <trkpt lat="39.3386120" lon="3.0521880">
        <ele>41.8</ele>
        <time>2021-06-21T08:47:20Z</time>
      </trkpt>
      <trkpt lat="39.3387450" lon="3.0517000">
        <ele>41.8</ele>
        <time>2021-06-21T08:47:27Z</time>
      </trkpt>
      <trkpt lat="39.3389200" lon="3.0510700">
        <ele>42.2</ele>
        <time>2021-06-21T08:47:36Z</time>
      </trkpt>
      <trkpt lat="39.3390270" lon="3.0507990">
        <ele>42.5</ele>
        <time>2021-06-21T08:47:41Z</time>
      </trkpt>
      <trkpt lat="39.3391720" lon="3.0504470">
        <ele>42.8</ele>
        <time>2021-06-21T08:47:48Z</time>
      </trkpt>
      <trkpt lat="39.3392660" lon="3.0503030">
        <ele>42.9</ele>
        <time>2021-06-21T08:47:51Z</time>
      </trkpt>
      <trkpt lat="39.3393540" lon="3.0501490">
        <ele>43.1</ele>
        <time>2021-06-21T08:47:54Z</time>
      </trkpt>
      <trkpt lat="39.3396360" lon="3.0496580">
        <ele>43.6</ele>
        <time>2021-06-21T08:48:03Z</time>
      </trkpt>
      <trkpt lat="39.3397330" lon="3.0494900">
        <ele>43.9</ele>
        <time>2021-06-21T08:48:06Z</time>
      </trkpt>
      <trkpt lat="39.3399130" lon="3.0491570">
        <ele>44.3</ele>
        <time>2021-06-21T08:48:12Z</time>
      </trkpt>
      <trkpt lat="39.3399470" lon="3.0491040">
        <ele>44.4</ele>
        <time>2021-06-21T08:48:13Z</time>
      </trkpt>
      <trkpt lat="39.3402070" lon="3.0486620">
        <ele>44.9</ele>
        <time>2021-06-21T08:48:21Z</time>
      </trkpt>
      <trkpt lat="39.3404490" lon="3.0482040">
        <ele>45.6</ele>
        <time>2021-06-21T08:48:29Z</time>
      </trkpt>
      <trkpt lat="39.3407040" lon="3.0477610">
        <ele>46.3</ele>
        <time>2021-06-21T08:48:37Z</time>
      </trkpt>
      <trkpt lat="39.3409600" lon="3.0473110">
        <ele>46.9</ele>
        <time>2021-06-21T08:48:45Z</time>
      </trkpt>
      <trkpt lat="39.3412470" lon="3.0467940">
        <ele>47.6</ele>
        <time>2021-06-21T08:48:54Z</time>
      </trkpt>
      <trkpt lat="39.3412740" lon="3.0467350">
        <ele>47.7</ele>
        <time>2021-06-21T08:48:55Z</time>
      </trkpt>
      <trkpt lat="39.3414970" lon="3.0463620">
        <ele>48.0</ele>
        <time>2021-06-21T08:49:02Z</time>
      </trkpt>
      <trkpt lat="39.3416680" lon="3.0462220">
        <ele>48.2</ele>
        <time>2021-06-21T08:49:06Z</time>
      </trkpt>
      <trkpt lat="39.3417360" lon="3.0461270">
        <ele>48.3</ele>
        <time>2021-06-21T08:49:08Z</time>
      </trkpt>
      <trkpt lat="39.3417660" lon="3.0460020">
        <ele>48.2</ele>
        <time>2021-06-21T08:49:10Z</time>
      </trkpt>
      <trkpt lat="39.3417820" lon="3.0458730">
        <ele>47.8</ele>
        <time>2021-06-21T08:49:12Z</time>
      </trkpt>
      <trkpt lat="39.3418470" lon="3.0456920">
        <ele>47.3</ele>
        <time>2021-06-21T08:49:15Z</time>
      </trkpt>
      <trkpt lat="39.3420100" lon="3.0453680">
        <ele>46.6</ele>
        <time>2021-06-21T08:49:20Z</time>
      </trkpt>
      <trkpt lat="39.3420440" lon="3.0453000">
        <ele>46.4</ele>
        <time>2021-06-21T08:49:21Z</time>
      </trkpt>
      <trkpt lat="39.3422340" lon="3.0449420">
        <ele>45.3</ele>
        <time>2021-06-21T08:49:26Z</time>
      </trkpt>
      <trkpt lat="39.3422770" lon="3.0448650">
        <ele>45.1</ele>
        <time>2021-06-21T08:49:27Z</time>
      </trkpt>
      <trkpt lat="39.3425140" lon="3.0444630">
        <ele>44.2</ele>
        <time>2021-06-21T08:49:32Z</time>
      </trkpt>
      <trkpt lat="39.3426260" lon="3.0443050">
        <ele>43.8</ele>
        <time>2021-06-21T08:49:34Z</time>
      </trkpt>
      <trkpt lat="39.3429910" lon="3.0438390">
        <ele>42.8</ele>
        <time>2021-06-21T08:49:40Z</time>
      </trkpt>
      <trkpt lat="39.3431140" lon="3.0436830">
        <ele>42.5</ele>
        <time>2021-06-21T08:49:42Z</time>
      </trkpt>
      <trkpt lat="39.3435040" lon="3.0431920">
        <ele>41.5</ele>
        <time>2021-06-21T08:49:48Z</time>
      </trkpt>
      <trkpt lat="39.3436450" lon="3.0430180">
        <ele>41.1</ele>
        <time>2021-06-21T08:49:50Z</time>
      </trkpt>
      <trkpt lat="39.3440540" lon="3.0425010">
        <ele>40.0</ele>
        <time>2021-06-21T08:49:56Z</time>
      </trkpt>
      <trkpt lat="39.3441220" lon="3.0424150">
        <ele>39.8</ele>
        <time>2021-06-21T08:49:57Z</time>
      </trkpt>
      <trkpt lat="39.3445460" lon="3.0418930">
        <ele>38.6</ele>
        <time>2021-06-21T08:50:03Z</time>
      </trkpt>
      <trkpt lat="39.3446890" lon="3.0417200">
        <ele>38.2</ele>
        <time>2021-06-21T08:50:05Z</time>
      </trkpt>
      <trkpt lat="39.3451180" lon="3.0411800">
        <ele>37.1</ele>
        <time>2021-06-21T08:50:11Z</time>
      </trkpt>
      <trkpt lat="39.3454210" lon="3.0408490">
        <ele>36.4</ele>
        <time>2021-06-21T08:50:15Z</time>
      </trkpt>
      <trkpt lat="39.3459200" lon="3.0404760">
        <ele>35.7</ele>
        <time>2021-06-21T08:50:21Z</time>
      </trkpt>
      <trkpt lat="39.3460890" lon="3.0403540">
        <ele>35.6</ele>
        <time>2021-06-21T08:50:23Z</time>
      </trkpt>
      <trkpt lat="39.3465670" lon="3.0400080">
        <ele>35.7</ele>
        <time>2021-06-21T08:50:29Z</time>
      </trkpt>
      <trkpt lat="39.3467980" lon="3.0398360">
        <ele>36.0</ele>
        <time>2021-06-21T08:50:32Z</time>
      </trkpt>
      <trkpt lat="39.3472260" lon="3.0395250">
        <ele>36.9</ele>
        <time>2021-06-21T08:50:38Z</time>
      </trkpt>
      <trkpt lat="39.3475030" lon="3.0393260">
        <ele>37.2</ele>
        <time>2021-06-21T08:50:42Z</time>
      </trkpt>
      <trkpt lat="39.3477110" lon="3.0391820">
        <ele>37.3</ele>
        <time>2021-06-21T08:50:45Z</time>
      </trkpt>
      <trkpt lat="39.3479780" lon="3.0389790">
        <ele>37.6</ele>
        <time>2021-06-21T08:50:49Z</time>
      </trkpt>
      <trkpt lat="39.3480960" lon="3.0388560">
        <ele>37.7</ele>
        <time>2021-06-21T08:50:51Z</time>
      </trkpt>
      <trkpt lat="39.3484960" lon="3.0383690">
        <ele>37.7</ele>
        <time>2021-06-21T08:50:58Z</time>
      </trkpt>
      <trkpt lat="39.3485530" lon="3.0383010">
        <ele>37.6</ele>
        <time>2021-06-21T08:50:59Z</time>
      </trkpt>
      <trkpt lat="39.3489800" lon="3.0377860">
        <ele>36.8</ele>
        <time>2021-06-21T08:51:06Z</time>
      </trkpt>
      <trkpt lat="39.3490430" lon="3.0377070">
        <ele>36.7</ele>
        <time>2021-06-21T08:51:07Z</time>
      </trkpt>
      <trkpt lat="39.3494460" lon="3.0372300">
        <ele>35.7</ele>
        <time>2021-06-21T08:51:13Z</time>
      </trkpt>
      <trkpt lat="39.3496410" lon="3.0369890">
        <ele>35.2</ele>
        <time>2021-06-21T08:51:16Z</time>
      </trkpt>
      <trkpt lat="39.3500390" lon="3.0365080">
        <ele>34.5</ele>
        <time>2021-06-21T08:51:22Z</time>
      </trkpt>
      <trkpt lat="39.3502360" lon="3.0362690">
        <ele>34.3</ele>
        <time>2021-06-21T08:51:25Z</time>
      </trkpt>
      <trkpt lat="39.3506920" lon="3.0357180">
        <ele>34.1</ele>
        <time>2021-06-21T08:51:32Z</time>
      </trkpt>
      <trkpt lat="39.3509440" lon="3.0354030">
        <ele>33.9</ele>
        <time>2021-06-21T08:51:36Z</time>
      </trkpt>
      <trkpt lat="39.3513940" lon="3.0348580">
        <ele>33.5</ele>
        <time>2021-06-21T08:51:43Z</time>
      </trkpt>
      <trkpt lat="39.3515910" lon="3.0346290">
        <ele>33.3</ele>
        <time>2021-06-21T08:51:46Z</time>
      </trkpt>
      <trkpt lat="39.3520480" lon="3.0340730">
        <ele>32.1</ele>
        <time>2021-06-21T08:51:53Z</time>
      </trkpt>
      <trkpt lat="39.3521830" lon="3.0339090">
        <ele>31.8</ele>
        <time>2021-06-21T08:51:55Z</time>
      </trkpt>
      <trkpt lat="39.3524850" lon="3.0334500">
        <ele>30.5</ele>
        <time>2021-06-21T08:52:00Z</time>
      </trkpt>
      <trkpt lat="39.3527300" lon="3.0327720">
        <ele>28.5</ele>
        <time>2021-06-21T08:52:06Z</time>
      </trkpt>
      <trkpt lat="39.3527670" lon="3.0326550">
        <ele>28.1</ele>
        <time>2021-06-21T08:52:07Z</time>
      </trkpt>
      <trkpt lat="39.3529160" lon="3.0321890">
        <ele>26.8</ele>
        <time>2021-06-21T08:52:11Z</time>
      </trkpt>
      <trkpt lat="39.3530760" lon="3.0317350">
        <ele>25.6</ele>
        <time>2021-06-21T08:52:15Z</time>
      </trkpt>
      <trkpt lat="39.3532260" lon="3.0312800">
        <ele>24.6</ele>
        <time>2021-06-21T08:52:19Z</time>
      </trkpt>
      <trkpt lat="39.3533690" lon="3.0308470">
        <ele>23.9</ele>
        <time>2021-06-21T08:52:23Z</time>
      </trkpt>
      <trkpt lat="39.3534850" lon="3.0305320">
        <ele>23.4</ele>
        <time>2021-06-21T08:52:26Z</time>
      </trkpt>
      <trkpt lat="39.3535330" lon="3.0304350">
        <ele>23.1</ele>
        <time>2021-06-21T08:52:27Z</time>
      </trkpt>
      <trkpt lat="39.3537330" lon="3.0302020">
        <ele>22.7</ele>
        <time>2021-06-21T08:52:29Z</time>
      </trkpt>
      <trkpt lat="39.3541560" lon="3.0299370">
        <ele>22.1</ele>
        <time>2021-06-21T08:52:35Z</time>
      </trkpt>
      <trkpt lat="39.3546910" lon="3.0296400">
        <ele>21.5</ele>
        <time>2021-06-21T08:52:41Z</time>
      </trkpt>
      <trkpt lat="39.3552190" lon="3.0293350">
        <ele>21.0</ele>
        <time>2021-06-21T08:52:47Z</time>
      </trkpt>
      <trkpt lat="39.3555660" lon="3.0291370">
        <ele>20.3</ele>
        <time>2021-06-21T08:52:51Z</time>
      </trkpt>
      <trkpt lat="39.3561270" lon="3.0288190">
        <ele>18.2</ele>
        <time>2021-06-21T08:52:57Z</time>
      </trkpt>
      <trkpt lat="39.3562250" lon="3.0287610">
        <ele>17.9</ele>
        <time>2021-06-21T08:52:58Z</time>
      </trkpt>
      <trkpt lat="39.3567980" lon="3.0284310">
        <ele>16.4</ele>
        <time>2021-06-21T08:53:04Z</time>
      </trkpt>
      <trkpt lat="39.3569870" lon="3.0283200">
        <ele>16.0</ele>
        <time>2021-06-21T08:53:06Z</time>
      </trkpt>
      <trkpt lat="39.3570820" lon="3.0282650">
        <ele>15.7</ele>
        <time>2021-06-21T08:53:07Z</time>
      </trkpt>
      <trkpt lat="39.3571760" lon="3.0282120">
        <ele>15.5</ele>
        <time>2021-06-21T08:53:08Z</time>
      </trkpt>
      <trkpt lat="39.3572720" lon="3.0281560">
        <ele>15.3</ele>
        <time>2021-06-21T08:53:09Z</time>
      </trkpt>
      <trkpt lat="39.3573670" lon="3.0281010">
        <ele>15.1</ele>
        <time>2021-06-21T08:53:10Z</time>
      </trkpt>
      <trkpt lat="39.3576560" lon="3.0279460">
        <ele>14.7</ele>
        <time>2021-06-21T08:53:13Z</time>
      </trkpt>
      <trkpt lat="39.3582170" lon="3.0276280">
        <ele>13.9</ele>
        <time>2021-06-21T08:53:19Z</time>
      </trkpt>
      <trkpt lat="39.3586880" lon="3.0273700">
        <ele>13.3</ele>
        <time>2021-06-21T08:53:24Z</time>
      </trkpt>
      <trkpt lat="39.3587790" lon="3.0273210">
        <ele>13.2</ele>
        <time>2021-06-21T08:53:25Z</time>
      </trkpt>
      <trkpt lat="39.3592330" lon="3.0270710">
        <ele>12.4</ele>
        <time>2021-06-21T08:53:30Z</time>
      </trkpt>
      <trkpt lat="39.3596060" lon="3.0268650">
        <ele>12.1</ele>
        <time>2021-06-21T08:53:34Z</time>
      </trkpt>
      <trkpt lat="39.3601400" lon="3.0265830">
        <ele>11.3</ele>
        <time>2021-06-21T08:53:40Z</time>
      </trkpt>
      <trkpt lat="39.3602250" lon="3.0265360">
        <ele>11.2</ele>
        <time>2021-06-21T08:53:41Z</time>
      </trkpt>
      <trkpt lat="39.3606540" lon="3.0263040">
        <ele>10.6</ele>
        <time>2021-06-21T08:53:46Z</time>
      </trkpt>
      <trkpt lat="39.3609980" lon="3.0261190">
        <ele>10.0</ele>
        <time>2021-06-21T08:53:50Z</time>
      </trkpt>
      <trkpt lat="39.3614150" lon="3.0258110">
        <ele>9.4</ele>
        <time>2021-06-21T08:53:55Z</time>
      </trkpt>
      <trkpt lat="39.3618390" lon="3.0253580">
        <ele>8.8</ele>
        <time>2021-06-21T08:54:01Z</time>
      </trkpt>
      <trkpt lat="39.3619060" lon="3.0252780">
        <ele>8.7</ele>
        <time>2021-06-21T08:54:02Z</time>
      </trkpt>
      <trkpt lat="39.3623500" lon="3.0247590">
        <ele>8.3</ele>
        <time>2021-06-21T08:54:09Z</time>
      </trkpt>
      <trkpt lat="39.3625390" lon="3.0245480">
        <ele>8.3</ele>
        <time>2021-06-21T08:54:12Z</time>
      </trkpt>
      <trkpt lat="39.3629570" lon="3.0240680">
        <ele>8.2</ele>
        <time>2021-06-21T08:54:19Z</time>
      </trkpt>
      <trkpt lat="39.3631390" lon="3.0238600">
        <ele>8.1</ele>
        <time>2021-06-21T08:54:22Z</time>
      </trkpt>
      <trkpt lat="39.3635560" lon="3.0233780">
        <ele>8.1</ele>
        <time>2021-06-21T08:54:29Z</time>
      </trkpt>
      <trkpt lat="39.3637840" lon="3.0230970">
        <ele>8.1</ele>
        <time>2021-06-21T08:54:33Z</time>
      </trkpt>
      <trkpt lat="39.3641790" lon="3.0226040">
        <ele>7.8</ele>
        <time>2021-06-21T08:54:40Z</time>
      </trkpt>
      <trkpt lat="39.3642960" lon="3.0224500">
        <ele>7.6</ele>
        <time>2021-06-21T08:54:42Z</time>
      </trkpt>
      <trkpt lat="39.3647120" lon="3.0219270">
        <ele>6.6</ele>
        <time>2021-06-21T08:54:49Z</time>
      </trkpt>
      <trkpt lat="39.3649010" lon="3.0217000">
        <ele>6.0</ele>
        <time>2021-06-21T08:54:52Z</time>
      </trkpt>
      <trkpt lat="39.3651070" lon="3.0214870">
        <ele>5.5</ele>
        <time>2021-06-21T08:54:55Z</time>
      </trkpt>
      <trkpt lat="39.3652560" lon="3.0213730">
        <ele>5.3</ele>
        <time>2021-06-21T08:54:57Z</time>
      </trkpt>
      <trkpt lat="39.3654760" lon="3.0212230">
        <ele>5.1</ele>
        <time>2021-06-21T08:55:00Z</time>
      </trkpt>
      <trkpt lat="39.3656790" lon="3.0210930">
        <ele>5.0</ele>
        <time>2021-06-21T08:55:03Z</time>
      </trkpt>
      <trkpt lat="39.3657990" lon="3.0210000">
        <ele>5.1</ele>
        <time>2021-06-21T08:55:05Z</time>
      </trkpt>
      <trkpt lat="39.3659660" lon="3.0208610">
        <ele>5.2</ele>
        <time>2021-06-21T08:55:08Z</time>
      </trkpt>
      <trkpt lat="39.3660560" lon="3.0207380">
        <ele>5.1</ele>
        <time>2021-06-21T08:55:10Z</time>
      </trkpt>
      <trkpt lat="39.3660800" lon="3.0206680">
        <ele>5.0</ele>
        <time>2021-06-21T08:55:11Z</time>
      </trkpt>
      <trkpt lat="39.3660800" lon="3.0205870">
        <ele>4.9</ele>
        <time>2021-06-21T08:55:12Z</time>
      </trkpt>
      <trkpt lat="39.3660560" lon="3.0204050">
        <ele>4.6</ele>
        <time>2021-06-21T08:55:14Z</time>
      </trkpt>
      <trkpt lat="39.3660850" lon="3.0201290">
        <ele>4.2</ele>
        <time>2021-06-21T08:55:17Z</time>
      </trkpt>
      <trkpt lat="39.3661090" lon="3.0200450">
        <ele>4.1</ele>
        <time>2021-06-21T08:55:18Z</time>
      </trkpt>
      <trkpt lat="39.3661670" lon="3.0198920">
        <ele>3.9</ele>
        <time>2021-06-21T08:55:20Z</time>
      </trkpt>
      <trkpt lat="39.3662740" lon="3.0196910">
        <ele>3.8</ele>
        <time>2021-06-21T08:55:23Z</time>
      </trkpt>
      <trkpt lat="39.3664770" lon="3.0193360">
        <ele>3.5</ele>
        <time>2021-06-21T08:55:28Z</time>
      </trkpt>
      <trkpt lat="39.3665680" lon="3.0191760">
        <ele>3.4</ele>
        <time>2021-06-21T08:55:30Z</time>
      </trkpt>
      <trkpt lat="39.3668340" lon="3.0186870">
        <ele>3.1</ele>
        <time>2021-06-21T08:55:36Z</time>
      </trkpt>
      <trkpt lat="39.3669660" lon="3.0184670">
        <ele>3.0</ele>
        <time>2021-06-21T08:55:39Z</time>
      </trkpt>
      <trkpt lat="39.3670510" lon="3.0183170">
        <ele>3.0</ele>
        <time>2021-06-21T08:55:41Z</time>
      </trkpt>
      <trkpt lat="39.3671380" lon="3.0181630">
        <ele>3.0</ele>
        <time>2021-06-21T08:55:43Z</time>
      </trkpt>
      <trkpt lat="39.3672270" lon="3.0180050">
        <ele>3.0</ele>
        <time>2021-06-21T08:55:45Z</time>
      </trkpt>
      <trkpt lat="39.3675790" lon="3.0173650">
        <ele>2.9</ele>
        <time>2021-06-21T08:55:53Z</time>
      </trkpt>
      <trkpt lat="39.3677100" lon="3.0171270">
        <ele>3.0</ele>
        <time>2021-06-21T08:55:56Z</time>
      </trkpt>
      <trkpt lat="39.3680520" lon="3.0165100">
        <ele>3.0</ele>
        <time>2021-06-21T08:56:04Z</time>
      </trkpt>
      <trkpt lat="39.3681010" lon="3.0164370">
        <ele>3.0</ele>
        <time>2021-06-21T08:56:05Z</time>
      </trkpt>
      <trkpt lat="39.3685950" lon="3.0158480">
        <ele>3.0</ele>
        <time>2021-06-21T08:56:13Z</time>
      </trkpt>
      <trkpt lat="39.3688250" lon="3.0155830">
        <ele>3.0</ele>
        <time>2021-06-21T08:56:18Z</time>
      </trkpt>
      <trkpt lat="39.3691580" lon="3.0151770">
        <ele>3.1</ele>
        <time>2021-06-21T08:56:24Z</time>
      </trkpt>
      <trkpt lat="39.3696010" lon="3.0146370">
        <ele>3.2</ele>
        <time>2021-06-21T08:56:32Z</time>
      </trkpt>
      <trkpt lat="39.3696560" lon="3.0145700">
        <ele>3.2</ele>
        <time>2021-06-21T08:56:33Z</time>
      </trkpt>
      <trkpt lat="39.3700980" lon="3.0140370">
        <ele>3.3</ele>
        <time>2021-06-21T08:56:41Z</time>
      </trkpt>
      <trkpt lat="39.3701540" lon="3.0139720">
        <ele>3.3</ele>
        <time>2021-06-21T08:56:42Z</time>
      </trkpt>
      <trkpt lat="39.3705940" lon="3.0134480">
        <ele>3.3</ele>
        <time>2021-06-21T08:56:50Z</time>
      </trkpt>
      <trkpt lat="39.3707070" lon="3.0133190">
        <ele>3.3</ele>
        <time>2021-06-21T08:56:52Z</time>
      </trkpt>
      <trkpt lat="39.3711020" lon="3.0128610">
        <ele>3.3</ele>
        <time>2021-06-21T08:56:59Z</time>
      </trkpt>
      <trkpt lat="39.3715160" lon="3.0123000">
        <ele>3.4</ele>
        <time>2021-06-21T08:57:07Z</time>
      </trkpt>
      <trkpt lat="39.3715690" lon="3.0122290">
        <ele>3.4</ele>
        <time>2021-06-21T08:57:08Z</time>
      </trkpt>
      <trkpt lat="39.3719980" lon="3.0116630">
        <ele>3.4</ele>
        <time>2021-06-21T08:57:16Z</time>
      </trkpt>
      <trkpt lat="39.3720490" lon="3.0115910">
        <ele>3.4</ele>
        <time>2021-06-21T08:57:17Z</time>
      </trkpt>
      <trkpt lat="39.3724660" lon="3.0110180">
        <ele>3.5</ele>
        <time>2021-06-21T08:57:25Z</time>
      </trkpt>
      <trkpt lat="39.3726120" lon="3.0108020">
        <ele>3.5</ele>
        <time>2021-06-21T08:57:28Z</time>
      </trkpt>
      <trkpt lat="39.3729430" lon="3.0102940">
        <ele>3.6</ele>
        <time>2021-06-21T08:57:35Z</time>
      </trkpt>
      <trkpt lat="39.3733470" lon="3.0097820">
        <ele>3.7</ele>
        <time>2021-06-21T08:57:43Z</time>
      </trkpt>
      <trkpt lat="39.3737340" lon="3.0092780">
        <ele>3.9</ele>
        <time>2021-06-21T08:57:51Z</time>
      </trkpt>
      <trkpt lat="39.3738820" lon="3.0090730">
        <ele>3.8</ele>
        <time>2021-06-21T08:57:54Z</time>
      </trkpt>
      <trkpt lat="39.3742310" lon="3.0086080">
        <ele>3.8</ele>
        <time>2021-06-21T08:58:01Z</time>
      </trkpt>
      <trkpt lat="39.3746280" lon="3.0082080">
        <ele>3.9</ele>
        <time>2021-06-21T08:58:08Z</time>
      </trkpt>
      <trkpt lat="39.3749580" lon="3.0078820">
        <ele>4.0</ele>
        <time>2021-06-21T08:58:15Z</time>
      </trkpt>
      <trkpt lat="39.3750020" lon="3.0078370">
        <ele>4.0</ele>
        <time>2021-06-21T08:58:16Z</time>
      </trkpt>
      <trkpt lat="39.3752400" lon="3.0076070">
        <ele>4.1</ele>
        <time>2021-06-21T08:58:21Z</time>
      </trkpt>
      <trkpt lat="39.3753830" lon="3.0074680">
        <ele>4.1</ele>
        <time>2021-06-21T08:58:24Z</time>
      </trkpt>
      <trkpt lat="39.3755850" lon="3.0072690">
        <ele>4.1</ele>
        <time>2021-06-21T08:58:28Z</time>
      </trkpt>
      <trkpt lat="39.3758490" lon="3.0070070">
        <ele>4.2</ele>
        <time>2021-06-21T08:58:34Z</time>
      </trkpt>
      <trkpt lat="39.3759530" lon="3.0069080">
        <ele>4.2</ele>
        <time>2021-06-21T08:58:36Z</time>
      </trkpt>
      <trkpt lat="39.3762630" lon="3.0066120">
        <ele>4.3</ele>
        <time>2021-06-21T08:58:42Z</time>
      </trkpt>
      <trkpt lat="39.3765840" lon="3.0063070">
        <ele>4.4</ele>
        <time>2021-06-21T08:58:48Z</time>
      </trkpt>
      <trkpt lat="39.3766930" lon="3.0062030">
        <ele>4.3</ele>
        <time>2021-06-21T08:58:50Z</time>
      </trkpt>
      <trkpt lat="39.3768060" lon="3.0060970">
        <ele>4.3</ele>
        <time>2021-06-21T08:58:52Z</time>
      </trkpt>
      <trkpt lat="39.3769190" lon="3.0059870">
        <ele>4.2</ele>
        <time>2021-06-21T08:58:54Z</time>
      </trkpt>
      <trkpt lat="39.3772040" lon="3.0057040">
        <ele>4.2</ele>
        <time>2021-06-21T08:58:59Z</time>
      </trkpt>
      <trkpt lat="39.3772590" lon="3.0056440">
        <ele>4.2</ele>
        <time>2021-06-21T08:59:00Z</time>
      </trkpt>
      <trkpt lat="39.3775420" lon="3.0053560">
        <ele>4.3</ele>
        <time>2021-06-21T08:59:05Z</time>
      </trkpt>
      <trkpt lat="39.3777690" lon="3.0051290">
        <ele>4.4</ele>
        <time>2021-06-21T08:59:09Z</time>
      </trkpt>
      <trkpt lat="39.3782260" lon="3.0047000">
        <ele>4.7</ele>
        <time>2021-06-21T08:59:17Z</time>
      </trkpt>
      <trkpt lat="39.3784620" lon="3.0044930">
        <ele>4.8</ele>
        <time>2021-06-21T08:59:21Z</time>
      </trkpt>
      <trkpt lat="39.3789020" lon="3.0040470">
        <ele>5.0</ele>
        <time>2021-06-21T08:59:29Z</time>
      </trkpt>
      <trkpt lat="39.3790050" lon="3.0039160">
        <ele>5.0</ele>
        <time>2021-06-21T08:59:31Z</time>
      </trkpt>
      <trkpt lat="39.3793970" lon="3.0033980">
        <ele>5.1</ele>
        <time>2021-06-21T08:59:39Z</time>
      </trkpt>
      <trkpt lat="39.3794930" lon="3.0032710">
        <ele>5.1</ele>
        <time>2021-06-21T08:59:41Z</time>
      </trkpt>
      <trkpt lat="39.3798780" lon="3.0027800">
        <ele>5.2</ele>
        <time>2021-06-21T08:59:49Z</time>
      </trkpt>
      <trkpt lat="39.3802930" lon="3.0022660">
        <ele>5.4</ele>
        <time>2021-06-21T08:59:57Z</time>
      </trkpt>
      <trkpt lat="39.3806500" lon="3.0019150">
        <ele>5.5</ele>
        <time>2021-06-21T09:00:03Z</time>
      </trkpt>
      <trkpt lat="39.3811400" lon="3.0015060">
        <ele>5.7</ele>
        <time>2021-06-21T09:00:11Z</time>
      </trkpt>
      <trkpt lat="39.3815650" lon="3.0010180">
        <ele>5.9</ele>
        <time>2021-06-21T09:00:19Z</time>
      </trkpt>
      <trkpt lat="39.3818960" lon="3.0006260">
        <ele>6.2</ele>
        <time>2021-06-21T09:00:25Z</time>
      </trkpt>
      <trkpt lat="39.3820590" lon="3.0004330">
        <ele>6.3</ele>
        <time>2021-06-21T09:00:28Z</time>
      </trkpt>
      <trkpt lat="39.3825020" lon="2.9998970">
        <ele>6.4</ele>
        <time>2021-06-21T09:00:36Z</time>
      </trkpt>
      <trkpt lat="39.3826110" lon="2.9997560">
        <ele>6.4</ele>
        <time>2021-06-21T09:00:38Z</time>
      </trkpt>
      <trkpt lat="39.3827200" lon="2.9996190">
        <ele>6.5</ele>
        <time>2021-06-21T09:00:40Z</time>
      </trkpt>
      <trkpt lat="39.3830440" lon="2.9991840">
        <ele>6.6</ele>
        <time>2021-06-21T09:00:46Z</time>
      </trkpt>
      <trkpt lat="39.3833970" lon="2.9986940">
        <ele>6.7</ele>
        <time>2021-06-21T09:00:53Z</time>
      </trkpt>
      <trkpt lat="39.3837960" lon="2.9981330">
        <ele>6.8</ele>
        <time>2021-06-21T09:01:01Z</time>
      </trkpt>
      <trkpt lat="39.3838430" lon="2.9980640">
        <ele>6.8</ele>
        <time>2021-06-21T09:01:02Z</time>
      </trkpt>
      <trkpt lat="39.3842180" lon="2.9975470">
        <ele>7.0</ele>
        <time>2021-06-21T09:01:10Z</time>
      </trkpt>
      <trkpt lat="39.3842630" lon="2.9974820">
        <ele>7.0</ele>
        <time>2021-06-21T09:01:11Z</time>
      </trkpt>
      <trkpt lat="39.3846670" lon="2.9969060">
        <ele>7.4</ele>
        <time>2021-06-21T09:01:20Z</time>
      </trkpt>
      <trkpt lat="39.3847100" lon="2.9968430">
        <ele>7.4</ele>
        <time>2021-06-21T09:01:21Z</time>
      </trkpt>
      <trkpt lat="39.3850910" lon="2.9962510">
        <ele>7.7</ele>
        <time>2021-06-21T09:01:30Z</time>
      </trkpt>
      <trkpt lat="39.3851770" lon="2.9961200">
        <ele>7.7</ele>
        <time>2021-06-21T09:01:32Z</time>
      </trkpt>
      <trkpt lat="39.3855500" lon="2.9955180">
        <ele>7.9</ele>
        <time>2021-06-21T09:01:41Z</time>
      </trkpt>
      <trkpt lat="39.3857180" lon="2.9952510">
        <ele>7.9</ele>
        <time>2021-06-21T09:01:45Z</time>
      </trkpt>
      <trkpt lat="39.3860640" lon="2.9946810">
        <ele>8.1</ele>
        <time>2021-06-21T09:01:53Z</time>
      </trkpt>
      <trkpt lat="39.3861080" lon="2.9946100">
        <ele>8.1</ele>
        <time>2021-06-21T09:01:54Z</time>
      </trkpt>
      <trkpt lat="39.3864430" lon="2.9940410">
        <ele>8.3</ele>
        <time>2021-06-21T09:02:02Z</time>
      </trkpt>
      <trkpt lat="39.3865880" lon="2.9938090">
        <ele>8.4</ele>
        <time>2021-06-21T09:02:05Z</time>
      </trkpt>
      <trkpt lat="39.3869280" lon="2.9932300">
        <ele>8.7</ele>
        <time>2021-06-21T09:02:13Z</time>
      </trkpt>
      <trkpt lat="39.3872620" lon="2.9926810">
        <ele>9.2</ele>
        <time>2021-06-21T09:02:21Z</time>
      </trkpt>
      <trkpt lat="39.3876390" lon="2.9921580">
        <ele>9.5</ele>
        <time>2021-06-21T09:02:29Z</time>
      </trkpt>
      <trkpt lat="39.3876930" lon="2.9920810">
        <ele>9.6</ele>
        <time>2021-06-21T09:02:30Z</time>
      </trkpt>
      <trkpt lat="39.3880720" lon="2.9915730">
        <ele>9.8</ele>
        <time>2021-06-21T09:02:38Z</time>
      </trkpt>
      <trkpt lat="39.3882100" lon="2.9913840">
        <ele>9.9</ele>
        <time>2021-06-21T09:02:41Z</time>
      </trkpt>
      <trkpt lat="39.3885250" lon="2.9909660">
        <ele>10.1</ele>
        <time>2021-06-21T09:02:48Z</time>
      </trkpt>
      <trkpt lat="39.3888440" lon="2.9905470">
        <ele>10.2</ele>
        <time>2021-06-21T09:02:55Z</time>
      </trkpt>
      <trkpt lat="39.3891340" lon="2.9901430">
        <ele>10.3</ele>
        <time>2021-06-21T09:03:01Z</time>
      </trkpt>
      <trkpt lat="39.3895180" lon="2.9896170">
        <ele>10.5</ele>
        <time>2021-06-21T09:03:09Z</time>
      </trkpt>
      <trkpt lat="39.3895660" lon="2.9895560">
        <ele>10.5</ele>
        <time>2021-06-21T09:03:10Z</time>
      </trkpt>
      <trkpt lat="39.3897610" lon="2.9892940">
        <ele>10.5</ele>
        <time>2021-06-21T09:03:14Z</time>
      </trkpt>
      <trkpt lat="39.3899540" lon="2.9890270">
        <ele>10.7</ele>
        <time>2021-06-21T09:03:18Z</time>
      </trkpt>
      <trkpt lat="39.3903350" lon="2.9885170">
        <ele>10.8</ele>
        <time>2021-06-21T09:03:26Z</time>
      </trkpt>
      <trkpt lat="39.3904780" lon="2.9883290">
        <ele>10.8</ele>
        <time>2021-06-21T09:03:29Z</time>
      </trkpt>
      <trkpt lat="39.3908620" lon="2.9878050">
        <ele>11.0</ele>
        <time>2021-06-21T09:03:37Z</time>
      </trkpt>
      <trkpt lat="39.3912530" lon="2.9872800">
        <ele>11.2</ele>
        <time>2021-06-21T09:03:45Z</time>
      </trkpt>
      <trkpt lat="39.3913530" lon="2.9871520">
        <ele>11.3</ele>
        <time>2021-06-21T09:03:47Z</time>
      </trkpt>
      <trkpt lat="39.3917410" lon="2.9866330">
        <ele>11.6</ele>
        <time>2021-06-21T09:03:55Z</time>
      </trkpt>
      <trkpt lat="39.3918880" lon="2.9864350">
        <ele>11.7</ele>
        <time>2021-06-21T09:03:58Z</time>
      </trkpt>
      <trkpt lat="39.3922810" lon="2.9859040">
        <ele>12.1</ele>
        <time>2021-06-21T09:04:06Z</time>
      </trkpt>
      <trkpt lat="39.3923280" lon="2.9858410">
        <ele>12.2</ele>
        <time>2021-06-21T09:04:07Z</time>
      </trkpt>
      <trkpt lat="39.3926970" lon="2.9853250">
        <ele>12.5</ele>
        <time>2021-06-21T09:04:15Z</time>
      </trkpt>
      <trkpt lat="39.3927910" lon="2.9851920">
        <ele>12.6</ele>
        <time>2021-06-21T09:04:17Z</time>
      </trkpt>
      <trkpt lat="39.3931470" lon="2.9846560">
        <ele>13.0</ele>
        <time>2021-06-21T09:04:25Z</time>
      </trkpt>
      <trkpt lat="39.3933290" lon="2.9843900">
        <ele>13.2</ele>
        <time>2021-06-21T09:04:29Z</time>
      </trkpt>
      <trkpt lat="39.3937360" lon="2.9838080">
        <ele>13.7</ele>
        <time>2021-06-21T09:04:38Z</time>
      </trkpt>
      <trkpt lat="39.3939440" lon="2.9835010">
        <ele>14.0</ele>
        <time>2021-06-21T09:04:43Z</time>
      </trkpt>
      <trkpt lat="39.3940330" lon="2.9833780">
        <ele>14.2</ele>
        <time>2021-06-21T09:04:45Z</time>
      </trkpt>
      <trkpt lat="39.3943770" lon="2.9828720">
        <ele>14.9</ele>
        <time>2021-06-21T09:04:53Z</time>
      </trkpt>
      <trkpt lat="39.3945400" lon="2.9824360">
        <ele>15.2</ele>
        <time>2021-06-21T09:04:59Z</time>
      </trkpt>
      <trkpt lat="39.3946570" lon="2.9822090">
        <ele>15.6</ele>
        <time>2021-06-21T09:05:03Z</time>
      </trkpt>
      <trkpt lat="39.3946880" lon="2.9821770">
        <ele>15.9</ele>
        <time>2021-06-21T09:05:04Z</time>
      </trkpt>
      <trkpt lat="39.3947780" lon="2.9820590">
        <ele>16.0</ele>
        <time>2021-06-21T09:05:07Z</time>
      </trkpt>
      <trkpt lat="39.3948220" lon="2.9819600">
        <ele>16.1</ele>
        <time>2021-06-21T09:05:09Z</time>
      </trkpt>
      <trkpt lat="39.3949110" lon="2.9816350">
        <ele>16.1</ele>
        <time>2021-06-21T09:05:14Z</time>
      </trkpt>
      <trkpt lat="39.3950670" lon="2.9813030">
        <ele>16.0</ele>
        <time>2021-06-21T09:05:20Z</time>
      </trkpt>
      <trkpt lat="39.3950900" lon="2.9812460">
        <ele>15.9</ele>
        <time>2021-06-21T09:05:21Z</time>
      </trkpt>
      <trkpt lat="39.3951480" lon="2.9810620">
        <ele>15.9</ele>
        <time>2021-06-21T09:05:24Z</time>
      </trkpt>
      <trkpt lat="39.3951640" lon="2.9809980">
        <ele>15.9</ele>
        <time>2021-06-21T09:05:25Z</time>
      </trkpt>
      <trkpt lat="39.3952490" lon="2.9806440">
        <ele>16.1</ele>
        <time>2021-06-21T09:05:31Z</time>
      </trkpt>
      <trkpt lat="39.3952820" lon="2.9805300">
        <ele>16.1</ele>
        <time>2021-06-21T09:05:33Z</time>
      </trkpt>
      <trkpt lat="39.3953940" lon="2.9800930">
        <ele>16.4</ele>
        <time>2021-06-21T09:05:40Z</time>
      </trkpt>
      <trkpt lat="39.3954830" lon="2.9795430">
        <ele>16.9</ele>
        <time>2021-06-21T09:05:48Z</time>
      </trkpt>
      <trkpt lat="39.3955530" lon="2.9789060">
        <ele>17.3</ele>
        <time>2021-06-21T09:05:57Z</time>
      </trkpt>
      <trkpt lat="39.3956190" lon="2.9781700">
        <ele>17.6</ele>
        <time>2021-06-21T09:06:07Z</time>
      </trkpt>
      <trkpt lat="39.3956380" lon="2.9780240">
        <ele>17.7</ele>
        <time>2021-06-21T09:06:09Z</time>
      </trkpt>
      <trkpt lat="39.3956860" lon="2.9776090">
        <ele>17.9</ele>
        <time>2021-06-21T09:06:15Z</time>
      </trkpt>
      <trkpt lat="39.3957180" lon="2.9773240">
        <ele>18.2</ele>
        <time>2021-06-21T09:06:19Z</time>
      </trkpt>
      <trkpt lat="39.3957870" lon="2.9766040">
        <ele>18.5</ele>
        <time>2021-06-21T09:06:29Z</time>
      </trkpt>
      <trkpt lat="39.3958560" lon="2.9758890">
        <ele>18.8</ele>
        <time>2021-06-21T09:06:39Z</time>
      </trkpt>
      <trkpt lat="39.3958630" lon="2.9757480">
        <ele>18.9</ele>
        <time>2021-06-21T09:06:41Z</time>
      </trkpt>
      <trkpt lat="39.3958620" lon="2.9750880">
        <ele>19.2</ele>
        <time>2021-06-21T09:06:51Z</time>
      </trkpt>
      <trkpt lat="39.3958400" lon="2.9744320">
        <ele>19.4</ele>
        <time>2021-06-21T09:07:01Z</time>
      </trkpt>
      <trkpt lat="39.3958420" lon="2.9742960">
        <ele>19.5</ele>
        <time>2021-06-21T09:07:03Z</time>
      </trkpt>
      <trkpt lat="39.3958380" lon="2.9738390">
        <ele>19.6</ele>
        <time>2021-06-21T09:07:10Z</time>
      </trkpt>
      <trkpt lat="39.3958160" lon="2.9732370">
        <ele>20.0</ele>
        <time>2021-06-21T09:07:19Z</time>
      </trkpt>
      <trkpt lat="39.3957920" lon="2.9725100">
        <ele>20.1</ele>
        <time>2021-06-21T09:07:29Z</time>
      </trkpt>
      <trkpt lat="39.3957900" lon="2.9724370">
        <ele>20.1</ele>
        <time>2021-06-21T09:07:30Z</time>
      </trkpt>
      <trkpt lat="39.3957790" lon="2.9719910">
        <ele>20.4</ele>
        <time>2021-06-21T09:07:36Z</time>
      </trkpt>
      <trkpt lat="39.3957680" lon="2.9716150">
        <ele>20.6</ele>
        <time>2021-06-21T09:07:41Z</time>
      </trkpt>
      <trkpt lat="39.3957580" lon="2.9708460">
        <ele>20.9</ele>
        <time>2021-06-21T09:07:51Z</time>
      </trkpt>
      <trkpt lat="39.3957880" lon="2.9705280">
        <ele>21.1</ele>
        <time>2021-06-21T09:07:55Z</time>
      </trkpt>
      <trkpt lat="39.3958260" lon="2.9703710">
        <ele>21.2</ele>
        <time>2021-06-21T09:07:57Z</time>
      </trkpt>
      <trkpt lat="39.3959470" lon="2.9700080">
        <ele>21.6</ele>
        <time>2021-06-21T09:08:02Z</time>
      </trkpt>
      <trkpt lat="39.3959740" lon="2.9699390">
        <ele>21.7</ele>
        <time>2021-06-21T09:08:03Z</time>
      </trkpt>
      <trkpt lat="39.3960170" lon="2.9698190">
        <ele>21.8</ele>
        <time>2021-06-21T09:08:05Z</time>
      </trkpt>
      <trkpt lat="39.3960580" lon="2.9697780">
        <ele>21.9</ele>
        <time>2021-06-21T09:08:07Z</time>
      </trkpt>
      <trkpt lat="39.3961880" lon="2.9698080">
        <ele>22.0</ele>
        <time>2021-06-21T09:08:13Z</time>
      </trkpt>
      <trkpt lat="39.3962810" lon="2.9697910">
        <ele>22.0</ele>
        <time>2021-06-21T09:08:18Z</time>
      </trkpt>
      <trkpt lat="39.3962860" lon="2.9697900">
        <ele>22.0</ele>
        <time>2021-06-21T09:08:24Z</time>
      </trkpt>
      <trkpt lat="39.3962860" lon="2.9697900">
        <ele>22.0</ele>
        <time>2021-06-21T09:08:25Z</time>
      </trkpt>
      <trkpt lat="39.3962860" lon="2.9697900">
        <ele>22.0</ele>
        <time>2021-06-21T09:08:34Z</time>
      </trkpt>
      <trkpt lat="39.3962860" lon="2.9697900">
        <ele>22.0</ele>
        <time>2021-06-21T09:08:37Z</time>
      </trkpt>
      <trkpt lat="39.3962860" lon="2.9697900">
        <ele>22.0</ele>
        <time>2021-06-21T09:08:40Z</time>
      </trkpt>
      <trkpt lat="39.3962860" lon="2.9697900">
        <ele>22.0</ele>
        <time>2021-06-21T09:08:43Z</time>
      </trkpt>
      <trkpt lat="39.3962840" lon="2.9697920">
        <ele>22.0</ele>
        <time>2021-06-21T09:08:47Z</time>
      </trkpt>
      <trkpt lat="39.3962800" lon="2.9697950">
        <ele>22.0</ele>
        <time>2021-06-21T09:08:53Z</time>
      </trkpt>
      <trkpt lat="39.3962800" lon="2.9697950">
        <ele>22.0</ele>
        <time>2021-06-21T09:09:05Z</time>
      </trkpt>
      <trkpt lat="39.3962800" lon="2.9697950">
        <ele>22.0</ele>
        <time>2021-06-21T09:09:29Z</time>
      </trkpt>
      <trkpt lat="39.3962800" lon="2.9697950">
        <ele>22.0</ele>
        <time>2021-06-21T09:09:31Z</time>
      </trkpt>
      <trkpt lat="39.3962800" lon="2.9697960">
        <ele>22.0</ele>
        <time>2021-06-21T09:09:52Z</time>
      </trkpt>
      <trkpt lat="39.3962880" lon="2.9698070">
        <ele>22.0</ele>
        <time>2021-06-21T09:10:10Z</time>
      </trkpt>
      <trkpt lat="39.3962880" lon="2.9698070">
        <ele>22.0</ele>
        <time>2021-06-21T09:10:19Z</time>
      </trkpt>
      <trkpt lat="39.3962950" lon="2.9698140">
        <ele>22.0</ele>
        <time>2021-06-21T09:10:23Z</time>
      </trkpt>
      <trkpt lat="39.3962940" lon="2.9698150">
        <ele>22.0</ele>
        <time>2021-06-21T09:10:41Z</time>
      </trkpt>
      <trkpt lat="39.3962940" lon="2.9698140">
        <ele>22.0</ele>
        <time>2021-06-21T09:10:52Z</time>
      </trkpt>
      <trkpt lat="39.3963030" lon="2.9697960">
        <ele>22.1</ele>
        <time>2021-06-21T09:10:54Z</time>
      </trkpt>
      <trkpt lat="39.3963030" lon="2.9697960">
        <ele>22.1</ele>
        <time>2021-06-21T09:11:00Z</time>
      </trkpt>
      <trkpt lat="39.3963010" lon="2.9697960">
        <ele>22.1</ele>
        <time>2021-06-21T09:11:04Z</time>
      </trkpt>
      <trkpt lat="39.3963010" lon="2.9697960">
        <ele>22.1</ele>
        <time>2021-06-21T09:11:06Z</time>
      </trkpt>
      <trkpt lat="39.3963010" lon="2.9697940">
        <ele>22.1</ele>
        <time>2021-06-21T09:11:08Z</time>
      </trkpt>
      <trkpt lat="39.3963010" lon="2.9697880">
        <ele>22.1</ele>
        <time>2021-06-21T09:11:12Z</time>
      </trkpt>
      <trkpt lat="39.3963010" lon="2.9697880">
        <ele>22.1</ele>
        <time>2021-06-21T09:11:20Z</time>
      </trkpt>
      <trkpt lat="39.3962910" lon="2.9697970">
        <ele>22.1</ele>
        <time>2021-06-21T09:11:26Z</time>
      </trkpt>
      <trkpt lat="39.3962880" lon="2.9698020">
        <ele>22.1</ele>
        <time>2021-06-21T09:11:34Z</time>
      </trkpt>
      <trkpt lat="39.3962850" lon="2.9698120">
        <ele>22.1</ele>
        <time>2021-06-21T09:11:46Z</time>
      </trkpt>
      <trkpt lat="39.3962870" lon="2.9698140">
        <ele>22.1</ele>
        <time>2021-06-21T09:12:02Z</time>
      </trkpt>
      <trkpt lat="39.3963470" lon="2.9697960">
        <ele>22.1</ele>
        <time>2021-06-21T09:12:06Z</time>
      </trkpt>
      <trkpt lat="39.3965090" lon="2.9697650">
        <ele>22.1</ele>
        <time>2021-06-21T09:12:11Z</time>
      </trkpt>
      <trkpt lat="39.3966590" lon="2.9697340">
        <ele>22.2</ele>
        <time>2021-06-21T09:12:15Z</time>
      </trkpt>
      <trkpt lat="39.3967790" lon="2.9697150">
        <ele>22.2</ele>
        <time>2021-06-21T09:12:18Z</time>
      </trkpt>
      <trkpt lat="39.3970990" lon="2.9696350">
        <ele>22.5</ele>
        <time>2021-06-21T09:12:26Z</time>
      </trkpt>
      <trkpt lat="39.3972460" lon="2.9695990">
        <ele>22.6</ele>
        <time>2021-06-21T09:12:30Z</time>
      </trkpt>
      <trkpt lat="39.3973430" lon="2.9695760">
        <ele>22.7</ele>
        <time>2021-06-21T09:12:33Z</time>
      </trkpt>
      <trkpt lat="39.3974720" lon="2.9695480">
        <ele>22.7</ele>
        <time>2021-06-21T09:12:37Z</time>
      </trkpt>
      <trkpt lat="39.3976340" lon="2.9695210">
        <ele>22.8</ele>
        <time>2021-06-21T09:12:42Z</time>
      </trkpt>
      <trkpt lat="39.3977180" lon="2.9695010">
        <ele>22.9</ele>
        <time>2021-06-21T09:12:44Z</time>
      </trkpt>
      <trkpt lat="39.3977950" lon="2.9694610">
        <ele>22.9</ele>
        <time>2021-06-21T09:12:46Z</time>
      </trkpt>
      <trkpt lat="39.3978350" lon="2.9694320">
        <ele>22.9</ele>
        <time>2021-06-21T09:12:47Z</time>
      </trkpt>
      <trkpt lat="39.3980180" lon="2.9692420">
        <ele>23.0</ele>
        <time>2021-06-21T09:12:52Z</time>
      </trkpt>
      <trkpt lat="39.3980530" lon="2.9692050">
        <ele>23.0</ele>
        <time>2021-06-21T09:12:53Z</time>
      </trkpt>
      <trkpt lat="39.3981440" lon="2.9690910">
        <ele>23.1</ele>
        <time>2021-06-21T09:12:56Z</time>
      </trkpt>
      <trkpt lat="39.3982610" lon="2.9689380">
        <ele>23.2</ele>
        <time>2021-06-21T09:13:00Z</time>
      </trkpt>
      <trkpt lat="39.3985650" lon="2.9686120">
        <ele>23.4</ele>
        <time>2021-06-21T09:13:08Z</time>
      </trkpt>
      <trkpt lat="39.3986890" lon="2.9684730">
        <ele>23.6</ele>
        <time>2021-06-21T09:13:11Z</time>
      </trkpt>
      <trkpt lat="39.3989110" lon="2.9682280">
        <ele>23.8</ele>
        <time>2021-06-21T09:13:16Z</time>
      </trkpt>
      <trkpt lat="39.3991890" lon="2.9679410">
        <ele>24.2</ele>
        <time>2021-06-21T09:13:22Z</time>
      </trkpt>
      <trkpt lat="39.3993300" lon="2.9677940">
        <ele>24.6</ele>
        <time>2021-06-21T09:13:25Z</time>
      </trkpt>
      <trkpt lat="39.3993770" lon="2.9677490">
        <ele>24.8</ele>
        <time>2021-06-21T09:13:26Z</time>
      </trkpt>
      <trkpt lat="39.3996900" lon="2.9675340">
        <ele>25.5</ele>
        <time>2021-06-21T09:13:32Z</time>
      </trkpt>
      <trkpt lat="39.3998390" lon="2.9674430">
        <ele>25.7</ele>
        <time>2021-06-21T09:13:35Z</time>
      </trkpt>
      <trkpt lat="39.3999480" lon="2.9674270">
        <ele>25.9</ele>
        <time>2021-06-21T09:13:37Z</time>
      </trkpt>
      <trkpt lat="39.4000500" lon="2.9674780">
        <ele>26.1</ele>
        <time>2021-06-21T09:13:39Z</time>
      </trkpt>
      <trkpt lat="39.4000990" lon="2.9675190">
        <ele>26.1</ele>
        <time>2021-06-21T09:13:40Z</time>
      </trkpt>
      <trkpt lat="39.4001430" lon="2.9675680">
        <ele>26.1</ele>
        <time>2021-06-21T09:13:41Z</time>
      </trkpt>
      <trkpt lat="39.4002510" lon="2.9677400">
        <ele>26.2</ele>
        <time>2021-06-21T09:13:44Z</time>
      </trkpt>
      <trkpt lat="39.4005440" lon="2.9681820">
        <ele>25.4</ele>
        <time>2021-06-21T09:13:51Z</time>
      </trkpt>
      <trkpt lat="39.4005950" lon="2.9682470">
        <ele>25.3</ele>
        <time>2021-06-21T09:13:52Z</time>
      </trkpt>
      <trkpt lat="39.4008800" lon="2.9685550">
        <ele>24.8</ele>
        <time>2021-06-21T09:13:57Z</time>
      </trkpt>
      <trkpt lat="39.4009440" lon="2.9687210">
        <ele>24.8</ele>
        <time>2021-06-21T09:13:59Z</time>
      </trkpt>
      <trkpt lat="39.4009570" lon="2.9688130">
        <ele>24.7</ele>
        <time>2021-06-21T09:14:00Z</time>
      </trkpt>
      <trkpt lat="39.4009940" lon="2.9689970">
        <ele>24.6</ele>
        <time>2021-06-21T09:14:02Z</time>
      </trkpt>
      <trkpt lat="39.4010800" lon="2.9692660">
        <ele>24.5</ele>
        <time>2021-06-21T09:14:05Z</time>
      </trkpt>
      <trkpt lat="39.4011150" lon="2.9693510">
        <ele>24.5</ele>
        <time>2021-06-21T09:14:06Z</time>
      </trkpt>
      <trkpt lat="39.4012940" lon="2.9696500">
        <ele>24.5</ele>
        <time>2021-06-21T09:14:10Z</time>
      </trkpt>
      <trkpt lat="39.4016560" lon="2.9701270">
        <ele>24.1</ele>
        <time>2021-06-21T09:14:17Z</time>
      </trkpt>
      <trkpt lat="39.4020460" lon="2.9706300">
        <ele>23.9</ele>
        <time>2021-06-21T09:14:24Z</time>
      </trkpt>
      <trkpt lat="39.4022120" lon="2.9708390">
        <ele>23.9</ele>
        <time>2021-06-21T09:14:27Z</time>
      </trkpt>
      <trkpt lat="39.4024430" lon="2.9711470">
        <ele>24.1</ele>
        <time>2021-06-21T09:14:32Z</time>
      </trkpt>
      <trkpt lat="39.4025400" lon="2.9711450">
        <ele>23.8</ele>
        <time>2021-06-21T09:14:34Z</time>
      </trkpt>
      <trkpt lat="39.4025820" lon="2.9711050">
        <ele>23.6</ele>
        <time>2021-06-21T09:14:35Z</time>
      </trkpt>
      <trkpt lat="39.4026220" lon="2.9710490">
        <ele>23.2</ele>
        <time>2021-06-21T09:14:36Z</time>
      </trkpt>
      <trkpt lat="39.4027020" lon="2.9709270">
        <ele>22.7</ele>
        <time>2021-06-21T09:14:38Z</time>
      </trkpt>
      <trkpt lat="39.4027850" lon="2.9708100">
        <ele>22.4</ele>
        <time>2021-06-21T09:14:40Z</time>
      </trkpt>
      <trkpt lat="39.4029870" lon="2.9704790">
        <ele>22.0</ele>
        <time>2021-06-21T09:14:45Z</time>
      </trkpt>
      <trkpt lat="39.4030240" lon="2.9704080">
        <ele>21.9</ele>
        <time>2021-06-21T09:14:46Z</time>
      </trkpt>
      <trkpt lat="39.4032890" lon="2.9699740">
        <ele>21.9</ele>
        <time>2021-06-21T09:14:52Z</time>
      </trkpt>
      <trkpt lat="39.4033340" lon="2.9699020">
        <ele>21.9</ele>
        <time>2021-06-21T09:14:53Z</time>
      </trkpt>
      <trkpt lat="39.4034180" lon="2.9697440">
        <ele>22.0</ele>
        <time>2021-06-21T09:14:55Z</time>
      </trkpt>
      <trkpt lat="39.4037340" lon="2.9692320">
        <ele>22.3</ele>
        <time>2021-06-21T09:15:02Z</time>
      </trkpt>
      <trkpt lat="39.4038330" lon="2.9690750">
        <ele>22.6</ele>
        <time>2021-06-21T09:15:04Z</time>
      </trkpt>
      <trkpt lat="39.4040490" lon="2.9686430">
        <ele>23.4</ele>
        <time>2021-06-21T09:15:10Z</time>
      </trkpt>
      <trkpt lat="39.4042550" lon="2.9681800">
        <ele>24.0</ele>
        <time>2021-06-21T09:15:16Z</time>
      </trkpt>
      <trkpt lat="39.4043380" lon="2.9680370">
        <ele>24.1</ele>
        <time>2021-06-21T09:15:18Z</time>
      </trkpt>
      <trkpt lat="39.4043890" lon="2.9679490">
        <ele>24.2</ele>
        <time>2021-06-21T09:15:19Z</time>
      </trkpt>
      <trkpt lat="39.4045850" lon="2.9676910">
        <ele>24.5</ele>
        <time>2021-06-21T09:15:23Z</time>
      </trkpt>
      <trkpt lat="39.4048470" lon="2.9674010">
        <ele>25.0</ele>
        <time>2021-06-21T09:15:28Z</time>
      </trkpt>
      <trkpt lat="39.4049770" lon="2.9673260">
        <ele>25.2</ele>
        <time>2021-06-21T09:15:30Z</time>
      </trkpt>
      <trkpt lat="39.4052230" lon="2.9672160">
        <ele>25.5</ele>
        <time>2021-06-21T09:15:34Z</time>
      </trkpt>
      <trkpt lat="39.4052790" lon="2.9671720">
        <ele>25.6</ele>
        <time>2021-06-21T09:15:35Z</time>
      </trkpt>
      <trkpt lat="39.4056430" lon="2.9669130">
        <ele>25.8</ele>
        <time>2021-06-21T09:15:41Z</time>
      </trkpt>
      <trkpt lat="39.4061420" lon="2.9665650">
        <ele>26.3</ele>
        <time>2021-06-21T09:15:49Z</time>
      </trkpt>
      <trkpt lat="39.4061910" lon="2.9665320">
        <ele>26.4</ele>
        <time>2021-06-21T09:15:50Z</time>
      </trkpt>
      <trkpt lat="39.4063290" lon="2.9664480">
        <ele>26.5</ele>
        <time>2021-06-21T09:15:52Z</time>
      </trkpt>
      <trkpt lat="39.4068180" lon="2.9661240">
        <ele>27.0</ele>
        <time>2021-06-21T09:16:00Z</time>
      </trkpt>
      <trkpt lat="39.4068910" lon="2.9660730">
        <ele>27.0</ele>
        <time>2021-06-21T09:16:01Z</time>
      </trkpt>
      <trkpt lat="39.4074950" lon="2.9656540">
        <ele>27.8</ele>
        <time>2021-06-21T09:16:10Z</time>
      </trkpt>
      <trkpt lat="39.4079810" lon="2.9653410">
        <ele>28.5</ele>
        <time>2021-06-21T09:16:19Z</time>
      </trkpt>
      <trkpt lat="39.4080280" lon="2.9653080">
        <ele>28.6</ele>
        <time>2021-06-21T09:16:20Z</time>
      </trkpt>
      <trkpt lat="39.4085260" lon="2.9649510">
        <ele>29.3</ele>
        <time>2021-06-21T09:16:28Z</time>
      </trkpt>
      <trkpt lat="39.4086940" lon="2.9648340">
        <ele>29.6</ele>
        <time>2021-06-21T09:16:31Z</time>
      </trkpt>
      <trkpt lat="39.4090750" lon="2.9644570">
        <ele>30.0</ele>
        <time>2021-06-21T09:16:38Z</time>
      </trkpt>
      <trkpt lat="39.4094870" lon="2.9640120">
        <ele>30.4</ele>
        <time>2021-06-21T09:16:46Z</time>
      </trkpt>
      <trkpt lat="39.4098330" lon="2.9636480">
        <ele>30.7</ele>
        <time>2021-06-21T09:16:53Z</time>
      </trkpt>
      <trkpt lat="39.4098970" lon="2.9635840">
        <ele>30.7</ele>
        <time>2021-06-21T09:16:54Z</time>
      </trkpt>
      <trkpt lat="39.4103220" lon="2.9631360">
        <ele>31.1</ele>
        <time>2021-06-21T09:17:02Z</time>
      </trkpt>
      <trkpt lat="39.4103770" lon="2.9630770">
        <ele>31.1</ele>
        <time>2021-06-21T09:17:03Z</time>
      </trkpt>
      <trkpt lat="39.4108140" lon="2.9626200">
        <ele>31.4</ele>
        <time>2021-06-21T09:17:11Z</time>
      </trkpt>
      <trkpt lat="39.4108740" lon="2.9625460">
        <ele>31.5</ele>
        <time>2021-06-21T09:17:12Z</time>
      </trkpt>
      <trkpt lat="39.4112350" lon="2.9620190">
        <ele>32.1</ele>
        <time>2021-06-21T09:17:20Z</time>
      </trkpt>
      <trkpt lat="39.4113560" lon="2.9617950">
        <ele>32.3</ele>
        <time>2021-06-21T09:17:23Z</time>
      </trkpt>
      <trkpt lat="39.4116430" lon="2.9611520">
        <ele>33.0</ele>
        <time>2021-06-21T09:17:31Z</time>
      </trkpt>
      <trkpt lat="39.4116850" lon="2.9610780">
        <ele>33.1</ele>
        <time>2021-06-21T09:17:32Z</time>
      </trkpt>
      <trkpt lat="39.4118470" lon="2.9608830">
        <ele>33.4</ele>
        <time>2021-06-21T09:17:35Z</time>
      </trkpt>
      <trkpt lat="39.4123130" lon="2.9603520">
        <ele>34.3</ele>
        <time>2021-06-21T09:17:44Z</time>
      </trkpt>
      <trkpt lat="39.4127290" lon="2.9599030">
        <ele>35.0</ele>
        <time>2021-06-21T09:17:52Z</time>
      </trkpt>
      <trkpt lat="39.4131490" lon="2.9595620">
        <ele>35.5</ele>
        <time>2021-06-21T09:17:59Z</time>
      </trkpt>
      <trkpt lat="39.4134950" lon="2.9594540">
        <ele>36.1</ele>
        <time>2021-06-21T09:18:04Z</time>
      </trkpt>
      <trkpt lat="39.4140220" lon="2.9592660">
        <ele>36.5</ele>
        <time>2021-06-21T09:18:12Z</time>
      </trkpt>
      <trkpt lat="39.4141550" lon="2.9592070">
        <ele>36.6</ele>
        <time>2021-06-21T09:18:14Z</time>
      </trkpt>
      <trkpt lat="39.4142360" lon="2.9591750">
        <ele>36.7</ele>
        <time>2021-06-21T09:18:15Z</time>
      </trkpt>
      <trkpt lat="39.4145130" lon="2.9590880">
        <ele>37.0</ele>
        <time>2021-06-21T09:18:19Z</time>
      </trkpt>
      <trkpt lat="39.4149730" lon="2.9589310">
        <ele>37.5</ele>
        <time>2021-06-21T09:18:26Z</time>
      </trkpt>
      <trkpt lat="39.4154310" lon="2.9587500">
        <ele>37.9</ele>
        <time>2021-06-21T09:18:33Z</time>
      </trkpt>
      <trkpt lat="39.4159560" lon="2.9585590">
        <ele>38.5</ele>
        <time>2021-06-21T09:18:41Z</time>
      </trkpt>
      <trkpt lat="39.4161560" lon="2.9584940">
        <ele>38.7</ele>
        <time>2021-06-21T09:18:44Z</time>
      </trkpt>
      <trkpt lat="39.4166470" lon="2.9582690">
        <ele>39.3</ele>
        <time>2021-06-21T09:18:52Z</time>
      </trkpt>
      <trkpt lat="39.4169610" lon="2.9578920">
        <ele>39.7</ele>
        <time>2021-06-21T09:18:58Z</time>
      </trkpt>
      <trkpt lat="39.4171540" lon="2.9576540">
        <ele>39.8</ele>
        <time>2021-06-21T09:19:02Z</time>
      </trkpt>
      <trkpt lat="39.4174670" lon="2.9572850">
        <ele>40.0</ele>
        <time>2021-06-21T09:19:08Z</time>
      </trkpt>
      <trkpt lat="39.4178030" lon="2.9567970">
        <ele>40.4</ele>
        <time>2021-06-21T09:19:15Z</time>
      </trkpt>
      <trkpt lat="39.4180720" lon="2.9561630">
        <ele>40.8</ele>
        <time>2021-06-21T09:19:23Z</time>
      </trkpt>
      <trkpt lat="39.4180990" lon="2.9561020">
        <ele>40.8</ele>
        <time>2021-06-21T09:19:24Z</time>
      </trkpt>
      <trkpt lat="39.4182940" lon="2.9556370">
        <ele>41.1</ele>
        <time>2021-06-21T09:19:30Z</time>
      </trkpt>
      <trkpt lat="39.4185670" lon="2.9551160">
        <ele>41.6</ele>
        <time>2021-06-21T09:19:37Z</time>
      </trkpt>
      <trkpt lat="39.4189120" lon="2.9545440">
        <ele>42.2</ele>
        <time>2021-06-21T09:19:45Z</time>
      </trkpt>
      <trkpt lat="39.4189650" lon="2.9544580">
        <ele>42.3</ele>
        <time>2021-06-21T09:19:46Z</time>
      </trkpt>
      <trkpt lat="39.4193200" lon="2.9540300">
        <ele>42.7</ele>
        <time>2021-06-21T09:19:53Z</time>
      </trkpt>
      <trkpt lat="39.4197550" lon="2.9535620">
        <ele>43.3</ele>
        <time>2021-06-21T09:20:01Z</time>
      </trkpt>
      <trkpt lat="39.4199150" lon="2.9533870">
        <ele>43.6</ele>
        <time>2021-06-21T09:20:04Z</time>
      </trkpt>
      <trkpt lat="39.4203500" lon="2.9529110">
        <ele>44.3</ele>
        <time>2021-06-21T09:20:12Z</time>
      </trkpt>
      <trkpt lat="39.4203920" lon="2.9528670">
        <ele>44.4</ele>
        <time>2021-06-21T09:20:13Z</time>
      </trkpt>
      <trkpt lat="39.4206760" lon="2.9525680">
        <ele>44.8</ele>
        <time>2021-06-21T09:20:18Z</time>
      </trkpt>
      <trkpt lat="39.4208460" lon="2.9524440">
        <ele>45.1</ele>
        <time>2021-06-21T09:20:21Z</time>
      </trkpt>
      <trkpt lat="39.4214000" lon="2.9521180">
        <ele>46.5</ele>
        <time>2021-06-21T09:20:30Z</time>
      </trkpt>
      <trkpt lat="39.4217980" lon="2.9518570">
        <ele>47.4</ele>
        <time>2021-06-21T09:20:37Z</time>
      </trkpt>
      <trkpt lat="39.4221090" lon="2.9516490">
        <ele>47.7</ele>
        <time>2021-06-21T09:20:42Z</time>
      </trkpt>
      <trkpt lat="39.4222950" lon="2.9515280">
        <ele>47.9</ele>
        <time>2021-06-21T09:20:45Z</time>
      </trkpt>
      <trkpt lat="39.4225490" lon="2.9513210">
        <ele>48.3</ele>
        <time>2021-06-21T09:20:50Z</time>
      </trkpt>
      <trkpt lat="39.4226490" lon="2.9512220">
        <ele>48.4</ele>
        <time>2021-06-21T09:20:52Z</time>
      </trkpt>
      <trkpt lat="39.4230940" lon="2.9507980">
        <ele>49.0</ele>
        <time>2021-06-21T09:21:00Z</time>
      </trkpt>
      <trkpt lat="39.4235450" lon="2.9504240">
        <ele>49.5</ele>
        <time>2021-06-21T09:21:08Z</time>
      </trkpt>
      <trkpt lat="39.4237190" lon="2.9502780">
        <ele>49.6</ele>
        <time>2021-06-21T09:21:11Z</time>
      </trkpt>
      <trkpt lat="39.4242520" lon="2.9499430">
        <ele>49.8</ele>
        <time>2021-06-21T09:21:19Z</time>
      </trkpt>
      <trkpt lat="39.4247530" lon="2.9496240">
        <ele>50.1</ele>
        <time>2021-06-21T09:21:27Z</time>
      </trkpt>
      <trkpt lat="39.4252710" lon="2.9492980">
        <ele>50.6</ele>
        <time>2021-06-21T09:21:35Z</time>
      </trkpt>
      <trkpt lat="39.4253940" lon="2.9492150">
        <ele>50.8</ele>
        <time>2021-06-21T09:21:37Z</time>
      </trkpt>
      <trkpt lat="39.4259110" lon="2.9488960">
        <ele>51.3</ele>
        <time>2021-06-21T09:21:45Z</time>
      </trkpt>
      <trkpt lat="39.4259730" lon="2.9488540">
        <ele>51.3</ele>
        <time>2021-06-21T09:21:46Z</time>
      </trkpt>
      <trkpt lat="39.4264770" lon="2.9485190">
        <ele>52.0</ele>
        <time>2021-06-21T09:21:54Z</time>
      </trkpt>
      <trkpt lat="39.4265270" lon="2.9484870">
        <ele>52.0</ele>
        <time>2021-06-21T09:21:55Z</time>
      </trkpt>
      <trkpt lat="39.4269060" lon="2.9482500">
        <ele>52.6</ele>
        <time>2021-06-21T09:22:01Z</time>
      </trkpt>
      <trkpt lat="39.4271590" lon="2.9481060">
        <ele>53.0</ele>
        <time>2021-06-21T09:22:05Z</time>
      </trkpt>
      <trkpt lat="39.4274170" lon="2.9479490">
        <ele>53.3</ele>
        <time>2021-06-21T09:22:09Z</time>
      </trkpt>
      <trkpt lat="39.4276740" lon="2.9477690">
        <ele>53.5</ele>
        <time>2021-06-21T09:22:13Z</time>
      </trkpt>
      <trkpt lat="39.4281770" lon="2.9473660">
        <ele>54.0</ele>
        <time>2021-06-21T09:22:21Z</time>
      </trkpt>
      <trkpt lat="39.4286510" lon="2.9469840">
        <ele>54.6</ele>
        <time>2021-06-21T09:22:29Z</time>
      </trkpt>
      <trkpt lat="39.4288110" lon="2.9468580">
        <ele>55.0</ele>
        <time>2021-06-21T09:22:32Z</time>
      </trkpt>
      <trkpt lat="39.4292860" lon="2.9464890">
        <ele>55.5</ele>
        <time>2021-06-21T09:22:40Z</time>
      </trkpt>
      <trkpt lat="39.4294090" lon="2.9464110">
        <ele>55.6</ele>
        <time>2021-06-21T09:22:42Z</time>
      </trkpt>
      <trkpt lat="39.4298310" lon="2.9461360">
        <ele>55.9</ele>
        <time>2021-06-21T09:22:49Z</time>
      </trkpt>
      <trkpt lat="39.4299060" lon="2.9460960">
        <ele>55.9</ele>
        <time>2021-06-21T09:22:50Z</time>
      </trkpt>
      <trkpt lat="39.4302140" lon="2.9459300">
        <ele>56.0</ele>
        <time>2021-06-21T09:22:55Z</time>
      </trkpt>
      <trkpt lat="39.4304990" lon="2.9457440">
        <ele>56.1</ele>
        <time>2021-06-21T09:23:00Z</time>
      </trkpt>
      <trkpt lat="39.4309650" lon="2.9453740">
        <ele>56.2</ele>
        <time>2021-06-21T09:23:08Z</time>
      </trkpt>
      <trkpt lat="39.4313290" lon="2.9451260">
        <ele>56.4</ele>
        <time>2021-06-21T09:23:14Z</time>
      </trkpt>
      <trkpt lat="39.4314430" lon="2.9450700">
        <ele>56.5</ele>
        <time>2021-06-21T09:23:16Z</time>
      </trkpt>
      <trkpt lat="39.4315650" lon="2.9450110">
        <ele>56.6</ele>
        <time>2021-06-21T09:23:18Z</time>
      </trkpt>
      <trkpt lat="39.4317320" lon="2.9448660">
        <ele>56.8</ele>
        <time>2021-06-21T09:23:21Z</time>
      </trkpt>
      <trkpt lat="39.4320380" lon="2.9445150">
        <ele>57.2</ele>
        <time>2021-06-21T09:23:27Z</time>
      </trkpt>
      <trkpt lat="39.4320760" lon="2.9444660">
        <ele>57.3</ele>
        <time>2021-06-21T09:23:28Z</time>
      </trkpt>
      <trkpt lat="39.4324470" lon="2.9439840">
        <ele>58.3</ele>
        <time>2021-06-21T09:23:36Z</time>
      </trkpt>
      <trkpt lat="39.4328630" lon="2.9435240">
        <ele>60.0</ele>
        <time>2021-06-21T09:23:45Z</time>
      </trkpt>
      <trkpt lat="39.4332770" lon="2.9431510">
        <ele>61.4</ele>
        <time>2021-06-21T09:23:54Z</time>
      </trkpt>
      <trkpt lat="39.4337790" lon="2.9427760">
        <ele>62.7</ele>
        <time>2021-06-21T09:24:04Z</time>
      </trkpt>
      <trkpt lat="39.4341750" lon="2.9425370">
        <ele>64.1</ele>
        <time>2021-06-21T09:24:12Z</time>
      </trkpt>
      <trkpt lat="39.4345310" lon="2.9424010">
        <ele>65.0</ele>
        <time>2021-06-21T09:24:19Z</time>
      </trkpt>
      <trkpt lat="39.4349100" lon="2.9422800">
        <ele>65.4</ele>
        <time>2021-06-21T09:24:26Z</time>
      </trkpt>
      <trkpt lat="39.4353680" lon="2.9420500">
        <ele>65.8</ele>
        <time>2021-06-21T09:24:34Z</time>
      </trkpt>
      <trkpt lat="39.4357870" lon="2.9419810">
        <ele>66.0</ele>
        <time>2021-06-21T09:24:41Z</time>
      </trkpt>
      <trkpt lat="39.4360500" lon="2.9419030">
        <ele>66.0</ele>
        <time>2021-06-21T09:24:45Z</time>
      </trkpt>
      <trkpt lat="39.4361550" lon="2.9418400">
        <ele>66.0</ele>
        <time>2021-06-21T09:24:47Z</time>
      </trkpt>
      <trkpt lat="39.4365990" lon="2.9414960">
        <ele>66.3</ele>
        <time>2021-06-21T09:24:55Z</time>
      </trkpt>
      <trkpt lat="39.4369910" lon="2.9411910">
        <ele>66.6</ele>
        <time>2021-06-21T09:25:02Z</time>
      </trkpt>
      <trkpt lat="39.4372820" lon="2.9409750">
        <ele>67.0</ele>
        <time>2021-06-21T09:25:07Z</time>
      </trkpt>
      <trkpt lat="39.4376740" lon="2.9406800">
        <ele>68.6</ele>
        <time>2021-06-21T09:25:15Z</time>
      </trkpt>
      <trkpt lat="39.4380220" lon="2.9404400">
        <ele>69.7</ele>
        <time>2021-06-21T09:25:22Z</time>
      </trkpt>
      <trkpt lat="39.4384960" lon="2.9401050">
        <ele>70.7</ele>
        <time>2021-06-21T09:25:32Z</time>
      </trkpt>
      <trkpt lat="39.4390070" lon="2.9397250">
        <ele>71.4</ele>
        <time>2021-06-21T09:25:42Z</time>
      </trkpt>
      <trkpt lat="39.4395280" lon="2.9393750">
        <ele>72.1</ele>
        <time>2021-06-21T09:25:52Z</time>
      </trkpt>
      <trkpt lat="39.4397470" lon="2.9392340">
        <ele>72.8</ele>
        <time>2021-06-21T09:25:56Z</time>
      </trkpt>
      <trkpt lat="39.4401800" lon="2.9389520">
        <ele>74.3</ele>
        <time>2021-06-21T09:26:05Z</time>
      </trkpt>
      <trkpt lat="39.4404800" lon="2.9387660">
        <ele>75.8</ele>
        <time>2021-06-21T09:26:12Z</time>
      </trkpt>
      <trkpt lat="39.4409360" lon="2.9384650">
        <ele>78.2</ele>
        <time>2021-06-21T09:26:23Z</time>
      </trkpt>
      <trkpt lat="39.4412900" lon="2.9382240">
        <ele>79.8</ele>
        <time>2021-06-21T09:26:32Z</time>
      </trkpt>
      <trkpt lat="39.4413560" lon="2.9381580">
        <ele>79.7</ele>
        <time>2021-06-21T09:26:34Z</time>
      </trkpt>
      <trkpt lat="39.4414550" lon="2.9380080">
        <ele>79.5</ele>
        <time>2021-06-21T09:26:37Z</time>
      </trkpt>
      <trkpt lat="39.4416480" lon="2.9376680">
        <ele>78.5</ele>
        <time>2021-06-21T09:26:43Z</time>
      </trkpt>
      <trkpt lat="39.4418680" lon="2.9372660">
        <ele>76.7</ele>
        <time>2021-06-21T09:26:48Z</time>
      </trkpt>
      <trkpt lat="39.4422180" lon="2.9366940">
        <ele>75.5</ele>
        <time>2021-06-21T09:26:55Z</time>
      </trkpt>
      <trkpt lat="39.4424400" lon="2.9363380">
        <ele>75.4</ele>
        <time>2021-06-21T09:26:59Z</time>
      </trkpt>
      <trkpt lat="39.4426430" lon="2.9360210">
        <ele>75.7</ele>
        <time>2021-06-21T09:27:03Z</time>
      </trkpt>
      <trkpt lat="39.4428430" lon="2.9357030">
        <ele>76.5</ele>
        <time>2021-06-21T09:27:07Z</time>
      </trkpt>
      <trkpt lat="39.4429810" lon="2.9354870">
        <ele>77.1</ele>
        <time>2021-06-21T09:27:10Z</time>
      </trkpt>
      <trkpt lat="39.4432870" lon="2.9349970">
        <ele>78.4</ele>
        <time>2021-06-21T09:27:17Z</time>
      </trkpt>
      <trkpt lat="39.4435310" lon="2.9345950">
        <ele>79.4</ele>
        <time>2021-06-21T09:27:24Z</time>
      </trkpt>
      <trkpt lat="39.4438990" lon="2.9340250">
        <ele>80.3</ele>
        <time>2021-06-21T09:27:34Z</time>
      </trkpt>
      <trkpt lat="39.4441790" lon="2.9336110">
        <ele>80.7</ele>
        <time>2021-06-21T09:27:41Z</time>
      </trkpt>
      <trkpt lat="39.4444330" lon="2.9332080">
        <ele>81.2</ele>
        <time>2021-06-21T09:27:48Z</time>
      </trkpt>
      <trkpt lat="39.4448150" lon="2.9326210">
        <ele>82.2</ele>
        <time>2021-06-21T09:27:58Z</time>
      </trkpt>
      <trkpt lat="39.4449260" lon="2.9324460">
        <ele>82.5</ele>
        <time>2021-06-21T09:28:01Z</time>
      </trkpt>
      <trkpt lat="39.4453070" lon="2.9318530">
        <ele>83.7</ele>
        <time>2021-06-21T09:28:11Z</time>
      </trkpt>
      <trkpt lat="39.4455210" lon="2.9315110">
        <ele>84.5</ele>
        <time>2021-06-21T09:28:17Z</time>
      </trkpt>
      <trkpt lat="39.4458660" lon="2.9309830">
        <ele>85.9</ele>
        <time>2021-06-21T09:28:27Z</time>
      </trkpt>
      <trkpt lat="39.4461520" lon="2.9305300">
        <ele>86.8</ele>
        <time>2021-06-21T09:28:36Z</time>
      </trkpt>
      <trkpt lat="39.4465030" lon="2.9299810">
        <ele>87.1</ele>
        <time>2021-06-21T09:28:46Z</time>
      </trkpt>
      <trkpt lat="39.4468420" lon="2.9294290">
        <ele>87.4</ele>
        <time>2021-06-21T09:28:55Z</time>
      </trkpt>
      <trkpt lat="39.4470810" lon="2.9290300">
        <ele>87.7</ele>
        <time>2021-06-21T09:29:02Z</time>
      </trkpt>
      <trkpt lat="39.4471510" lon="2.9289210">
        <ele>87.8</ele>
        <time>2021-06-21T09:29:04Z</time>
      </trkpt>
      <trkpt lat="39.4474280" lon="2.9285140">
        <ele>87.8</ele>
        <time>2021-06-21T09:29:11Z</time>
      </trkpt>
      <trkpt lat="39.4478320" lon="2.9281260">
        <ele>87.9</ele>
        <time>2021-06-21T09:29:19Z</time>
      </trkpt>
      <trkpt lat="39.4483260" lon="2.9277060">
        <ele>88.1</ele>
        <time>2021-06-21T09:29:28Z</time>
      </trkpt>
      <trkpt lat="39.4483820" lon="2.9276630">
        <ele>88.1</ele>
        <time>2021-06-21T09:29:29Z</time>
      </trkpt>
      <trkpt lat="39.4487160" lon="2.9274040">
        <ele>88.4</ele>
        <time>2021-06-21T09:29:35Z</time>
      </trkpt>
      <trkpt lat="39.4488280" lon="2.9273150">
        <ele>88.5</ele>
        <time>2021-06-21T09:29:37Z</time>
      </trkpt>
      <trkpt lat="39.4492160" lon="2.9270140">
        <ele>89.0</ele>
        <time>2021-06-21T09:29:44Z</time>
      </trkpt>
      <trkpt lat="39.4497100" lon="2.9266330">
        <ele>89.9</ele>
        <time>2021-06-21T09:29:53Z</time>
      </trkpt>
      <trkpt lat="39.4498170" lon="2.9265490">
        <ele>90.1</ele>
        <time>2021-06-21T09:29:55Z</time>
      </trkpt>
      <trkpt lat="39.4503060" lon="2.9261870">
        <ele>90.8</ele>
        <time>2021-06-21T09:30:04Z</time>
      </trkpt>
      <trkpt lat="39.4503640" lon="2.9261470">
        <ele>90.9</ele>
        <time>2021-06-21T09:30:05Z</time>
      </trkpt>
      <trkpt lat="39.4508380" lon="2.9257990">
        <ele>91.1</ele>
        <time>2021-06-21T09:30:13Z</time>
      </trkpt>
      <trkpt lat="39.4512470" lon="2.9255460">
        <ele>91.6</ele>
        <time>2021-06-21T09:30:20Z</time>
      </trkpt>
      <trkpt lat="39.4517630" lon="2.9251560">
        <ele>92.5</ele>
        <time>2021-06-21T09:30:29Z</time>
      </trkpt>
      <trkpt lat="39.4521780" lon="2.9246650">
        <ele>93.4</ele>
        <time>2021-06-21T09:30:38Z</time>
      </trkpt>
      <trkpt lat="39.4522620" lon="2.9245470">
        <ele>93.5</ele>
        <time>2021-06-21T09:30:40Z</time>
      </trkpt>
      <trkpt lat="39.4526260" lon="2.9239530">
        <ele>94.1</ele>
        <time>2021-06-21T09:30:49Z</time>
      </trkpt>
      <trkpt lat="39.4528550" lon="2.9234790">
        <ele>94.5</ele>
        <time>2021-06-21T09:30:56Z</time>
      </trkpt>
      <trkpt lat="39.4531500" lon="2.9228610">
        <ele>95.1</ele>
        <time>2021-06-21T09:31:05Z</time>
      </trkpt>
      <trkpt lat="39.4534940" lon="2.9222450">
        <ele>95.5</ele>
        <time>2021-06-21T09:31:14Z</time>
      </trkpt>
      <trkpt lat="39.4536470" lon="2.9219610">
        <ele>95.6</ele>
        <time>2021-06-21T09:31:18Z</time>
      </trkpt>
      <trkpt lat="39.4538890" lon="2.9215500">
        <ele>95.9</ele>
        <time>2021-06-21T09:31:24Z</time>
      </trkpt>
      <trkpt lat="39.4539880" lon="2.9214140">
        <ele>95.9</ele>
        <time>2021-06-21T09:31:26Z</time>
      </trkpt>
      <trkpt lat="39.4542620" lon="2.9212040">
        <ele>96.0</ele>
        <time>2021-06-21T09:31:31Z</time>
      </trkpt>
      <trkpt lat="39.4545010" lon="2.9209420">
        <ele>96.0</ele>
        <time>2021-06-21T09:31:36Z</time>
      </trkpt>
      <trkpt lat="39.4548730" lon="2.9204300">
        <ele>96.2</ele>
        <time>2021-06-21T09:31:44Z</time>
      </trkpt>
      <trkpt lat="39.4549220" lon="2.9203640">
        <ele>96.2</ele>
        <time>2021-06-21T09:31:45Z</time>
      </trkpt>
      <trkpt lat="39.4553360" lon="2.9198650">
        <ele>96.6</ele>
        <time>2021-06-21T09:31:53Z</time>
      </trkpt>
      <trkpt lat="39.4556210" lon="2.9196470">
        <ele>96.8</ele>
        <time>2021-06-21T09:31:57Z</time>
      </trkpt>
      <trkpt lat="39.4556960" lon="2.9196030">
        <ele>96.9</ele>
        <time>2021-06-21T09:31:59Z</time>
      </trkpt>
      <trkpt lat="39.4561510" lon="2.9192670">
        <ele>97.7</ele>
        <time>2021-06-21T09:32:07Z</time>
      </trkpt>
      <trkpt lat="39.4564850" lon="2.9189890">
        <ele>98.2</ele>
        <time>2021-06-21T09:32:13Z</time>
      </trkpt>
      <trkpt lat="39.4566400" lon="2.9188240">
        <ele>98.4</ele>
        <time>2021-06-21T09:32:16Z</time>
      </trkpt>
      <trkpt lat="39.4569740" lon="2.9183960">
        <ele>99.3</ele>
        <time>2021-06-21T09:32:23Z</time>
      </trkpt>
      <trkpt lat="39.4572640" lon="2.9179670">
        <ele>100.1</ele>
        <time>2021-06-21T09:32:30Z</time>
      </trkpt>
      <trkpt lat="39.4574550" lon="2.9176130">
        <ele>100.7</ele>
        <time>2021-06-21T09:32:35Z</time>
      </trkpt>
      <trkpt lat="39.4574930" lon="2.9175680">
        <ele>100.8</ele>
        <time>2021-06-21T09:32:36Z</time>
      </trkpt>
      <trkpt lat="39.4579270" lon="2.9170670">
        <ele>101.8</ele>
        <time>2021-06-21T09:32:45Z</time>
      </trkpt>
      <trkpt lat="39.4580210" lon="2.9169570">
        <ele>102.0</ele>
        <time>2021-06-21T09:32:47Z</time>
      </trkpt>
      <trkpt lat="39.4582800" lon="2.9165590">
        <ele>102.3</ele>
        <time>2021-06-21T09:32:53Z</time>
      </trkpt>
      <trkpt lat="39.4586180" lon="2.9159550">
        <ele>103.0</ele>
        <time>2021-06-21T09:33:02Z</time>
      </trkpt>
      <trkpt lat="39.4586590" lon="2.9158820">
        <ele>103.1</ele>
        <time>2021-06-21T09:33:03Z</time>
      </trkpt>
      <trkpt lat="39.4589140" lon="2.9153600">
        <ele>103.4</ele>
        <time>2021-06-21T09:33:10Z</time>
      </trkpt>
      <trkpt lat="39.4591220" lon="2.9149070">
        <ele>104.1</ele>
        <time>2021-06-21T09:33:16Z</time>
      </trkpt>
      <trkpt lat="39.4594420" lon="2.9142710">
        <ele>105.1</ele>
        <time>2021-06-21T09:33:25Z</time>
      </trkpt>
      <trkpt lat="39.4597610" lon="2.9136170">
        <ele>106.2</ele>
        <time>2021-06-21T09:33:34Z</time>
      </trkpt>
      <trkpt lat="39.4598020" lon="2.9135300">
        <ele>106.3</ele>
        <time>2021-06-21T09:33:35Z</time>
      </trkpt>
      <trkpt lat="39.4600970" lon="2.9129680">
        <ele>107.0</ele>
        <time>2021-06-21T09:33:43Z</time>
      </trkpt>
      <trkpt lat="39.4603610" lon="2.9124410">
        <ele>107.7</ele>
        <time>2021-06-21T09:33:50Z</time>
      </trkpt>
      <trkpt lat="39.4606880" lon="2.9117840">
        <ele>109.0</ele>
        <time>2021-06-21T09:33:59Z</time>
      </trkpt>
      <trkpt lat="39.4609230" lon="2.9113510">
        <ele>109.2</ele>
        <time>2021-06-21T09:34:05Z</time>
      </trkpt>
      <trkpt lat="39.4612770" lon="2.9107950">
        <ele>109.0</ele>
        <time>2021-06-21T09:34:13Z</time>
      </trkpt>
      <trkpt lat="39.4613660" lon="2.9106460">
        <ele>108.9</ele>
        <time>2021-06-21T09:34:15Z</time>
      </trkpt>
      <trkpt lat="39.4615920" lon="2.9101300">
        <ele>108.5</ele>
        <time>2021-06-21T09:34:21Z</time>
      </trkpt>
      <trkpt lat="39.4616690" lon="2.9098870">
        <ele>108.5</ele>
        <time>2021-06-21T09:34:24Z</time>
      </trkpt>
      <trkpt lat="39.4617770" lon="2.9095510">
        <ele>108.5</ele>
        <time>2021-06-21T09:34:28Z</time>
      </trkpt>
      <trkpt lat="39.4619050" lon="2.9091410">
        <ele>108.7</ele>
        <time>2021-06-21T09:34:33Z</time>
      </trkpt>
      <trkpt lat="39.4619810" lon="2.9089040">
        <ele>109.0</ele>
        <time>2021-06-21T09:34:36Z</time>
      </trkpt>
      <trkpt lat="39.4621760" lon="2.9082660">
        <ele>110.0</ele>
        <time>2021-06-21T09:34:44Z</time>
      </trkpt>
      <trkpt lat="39.4623990" lon="2.9077210">
        <ele>110.6</ele>
        <time>2021-06-21T09:34:51Z</time>
      </trkpt>
      <trkpt lat="39.4624330" lon="2.9076460">
        <ele>110.6</ele>
        <time>2021-06-21T09:34:52Z</time>
      </trkpt>
      <trkpt lat="39.4626860" lon="2.9070860">
        <ele>110.4</ele>
        <time>2021-06-21T09:34:59Z</time>
      </trkpt>
      <trkpt lat="39.4629850" lon="2.9064150">
        <ele>109.8</ele>
        <time>2021-06-21T09:35:07Z</time>
      </trkpt>
      <trkpt lat="39.4631320" lon="2.9060880">
        <ele>109.8</ele>
        <time>2021-06-21T09:35:11Z</time>
      </trkpt>
      <trkpt lat="39.4633900" lon="2.9055290">
        <ele>109.7</ele>
        <time>2021-06-21T09:35:18Z</time>
      </trkpt>
      <trkpt lat="39.4636600" lon="2.9048720">
        <ele>109.8</ele>
        <time>2021-06-21T09:35:26Z</time>
      </trkpt>
      <trkpt lat="39.4637240" lon="2.9047070">
        <ele>109.8</ele>
        <time>2021-06-21T09:35:28Z</time>
      </trkpt>
      <trkpt lat="39.4639840" lon="2.9040240">
        <ele>109.7</ele>
        <time>2021-06-21T09:35:36Z</time>
      </trkpt>
      <trkpt lat="39.4640390" lon="2.9038740">
        <ele>109.8</ele>
        <time>2021-06-21T09:35:38Z</time>
      </trkpt>
      <trkpt lat="39.4642730" lon="2.9032100">
        <ele>110.2</ele>
        <time>2021-06-21T09:35:46Z</time>
      </trkpt>
      <trkpt lat="39.4643770" lon="2.9028970">
        <ele>110.5</ele>
        <time>2021-06-21T09:35:50Z</time>
      </trkpt>
      <trkpt lat="39.4644200" lon="2.9027420">
        <ele>110.8</ele>
        <time>2021-06-21T09:35:52Z</time>
      </trkpt>
      <trkpt lat="39.4644970" lon="2.9024760">
        <ele>111.4</ele>
        <time>2021-06-21T09:35:56Z</time>
      </trkpt>
      <trkpt lat="39.4645420" lon="2.9022770">
        <ele>112.0</ele>
        <time>2021-06-21T09:36:00Z</time>
      </trkpt>
      <trkpt lat="39.4645440" lon="2.9021490">
        <ele>112.5</ele>
        <time>2021-06-21T09:36:04Z</time>
      </trkpt>
      <trkpt lat="39.4646260" lon="2.9020210">
        <ele>112.7</ele>
        <time>2021-06-21T09:36:08Z</time>
      </trkpt>
      <trkpt lat="39.4646800" lon="2.9019400">
        <ele>112.8</ele>
        <time>2021-06-21T09:36:10Z</time>
      </trkpt>
      <trkpt lat="39.4647350" lon="2.9018380">
        <ele>112.9</ele>
        <time>2021-06-21T09:36:12Z</time>
      </trkpt>
      <trkpt lat="39.4648590" lon="2.9015590">
        <ele>113.3</ele>
        <time>2021-06-21T09:36:17Z</time>
      </trkpt>
      <trkpt lat="39.4649330" lon="2.9013700">
        <ele>113.6</ele>
        <time>2021-06-21T09:36:20Z</time>
      </trkpt>
      <trkpt lat="39.4650730" lon="2.9009530">
        <ele>114.0</ele>
        <time>2021-06-21T09:36:28Z</time>
      </trkpt>
      <trkpt lat="39.4651580" lon="2.9006910">
        <ele>114.2</ele>
        <time>2021-06-21T09:36:33Z</time>
      </trkpt>
      <trkpt lat="39.4652070" lon="2.9005790">
        <ele>114.3</ele>
        <time>2021-06-21T09:36:35Z</time>
      </trkpt>
      <trkpt lat="39.4653250" lon="2.9003370">
        <ele>114.6</ele>
        <time>2021-06-21T09:36:40Z</time>
      </trkpt>
      <trkpt lat="39.4653460" lon="2.9002200">
        <ele>114.6</ele>
        <time>2021-06-21T09:36:42Z</time>
      </trkpt>
      <trkpt lat="39.4653670" lon="2.9001150">
        <ele>114.6</ele>
        <time>2021-06-21T09:36:44Z</time>
      </trkpt>
      <trkpt lat="39.4654360" lon="2.8998860">
        <ele>114.6</ele>
        <time>2021-06-21T09:36:48Z</time>
      </trkpt>
      <trkpt lat="39.4655130" lon="2.8996180">
        <ele>114.7</ele>
        <time>2021-06-21T09:36:53Z</time>
      </trkpt>
      <trkpt lat="39.4655520" lon="2.8994960">
        <ele>114.7</ele>
        <time>2021-06-21T09:36:55Z</time>
      </trkpt>
      <trkpt lat="39.4656430" lon="2.8992480">
        <ele>114.7</ele>
        <time>2021-06-21T09:36:59Z</time>
      </trkpt>
      <trkpt lat="39.4656910" lon="2.8991380">
        <ele>114.8</ele>
        <time>2021-06-21T09:37:01Z</time>
      </trkpt>
      <trkpt lat="39.4657610" lon="2.8989430">
        <ele>114.9</ele>
        <time>2021-06-21T09:37:04Z</time>
      </trkpt>
      <trkpt lat="39.4658870" lon="2.8986130">
        <ele>115.1</ele>
        <time>2021-06-21T09:37:09Z</time>
      </trkpt>
      <trkpt lat="39.4659150" lon="2.8985450">
        <ele>115.1</ele>
        <time>2021-06-21T09:37:10Z</time>
      </trkpt>
      <trkpt lat="39.4661180" lon="2.8979680">
        <ele>115.4</ele>
        <time>2021-06-21T09:37:18Z</time>
      </trkpt>
      <trkpt lat="39.4662970" lon="2.8973300">
        <ele>115.6</ele>
        <time>2021-06-21T09:37:26Z</time>
      </trkpt>
      <trkpt lat="39.4664620" lon="2.8967550">
        <ele>115.9</ele>
        <time>2021-06-21T09:37:34Z</time>
      </trkpt>
      <trkpt lat="39.4665710" lon="2.8963850">
        <ele>115.9</ele>
        <time>2021-06-21T09:37:40Z</time>
      </trkpt>
      <trkpt lat="39.4665880" lon="2.8963360">
        <ele>115.9</ele>
        <time>2021-06-21T09:37:41Z</time>
      </trkpt>
      <trkpt lat="39.4666580" lon="2.8961010">
        <ele>115.9</ele>
        <time>2021-06-21T09:37:46Z</time>
      </trkpt>
      <trkpt lat="39.4666720" lon="2.8960740">
        <ele>115.9</ele>
        <time>2021-06-21T09:37:48Z</time>
      </trkpt>
      <trkpt lat="39.4666820" lon="2.8960360">
        <ele>115.9</ele>
        <time>2021-06-21T09:37:50Z</time>
      </trkpt>
      <trkpt lat="39.4667160" lon="2.8959280">
        <ele>115.9</ele>
        <time>2021-06-21T09:37:53Z</time>
      </trkpt>
      <trkpt lat="39.4667280" lon="2.8958790">
        <ele>115.9</ele>
        <time>2021-06-21T09:37:54Z</time>
      </trkpt>
      <trkpt lat="39.4667450" lon="2.8958140">
        <ele>115.9</ele>
        <time>2021-06-21T09:37:55Z</time>
      </trkpt>
      <trkpt lat="39.4668240" lon="2.8955890">
        <ele>115.9</ele>
        <time>2021-06-21T09:37:59Z</time>
      </trkpt>
      <trkpt lat="39.4668450" lon="2.8955270">
        <ele>115.9</ele>
        <time>2021-06-21T09:38:00Z</time>
      </trkpt>
      <trkpt lat="39.4668650" lon="2.8954540">
        <ele>115.9</ele>
        <time>2021-06-21T09:38:01Z</time>
      </trkpt>
      <trkpt lat="39.4668780" lon="2.8954040">
        <ele>115.9</ele>
        <time>2021-06-21T09:38:02Z</time>
      </trkpt>
      <trkpt lat="39.4669260" lon="2.8952570">
        <ele>115.9</ele>
        <time>2021-06-21T09:38:04Z</time>
      </trkpt>
      <trkpt lat="39.4670290" lon="2.8949270">
        <ele>115.8</ele>
        <time>2021-06-21T09:38:09Z</time>
      </trkpt>
      <trkpt lat="39.4670690" lon="2.8947950">
        <ele>115.8</ele>
        <time>2021-06-21T09:38:11Z</time>
      </trkpt>
      <trkpt lat="39.4671130" lon="2.8946600">
        <ele>115.8</ele>
        <time>2021-06-21T09:38:13Z</time>
      </trkpt>
      <trkpt lat="39.4671990" lon="2.8943830">
        <ele>115.8</ele>
        <time>2021-06-21T09:38:17Z</time>
      </trkpt>
      <trkpt lat="39.4672290" lon="2.8942350">
        <ele>115.7</ele>
        <time>2021-06-21T09:38:19Z</time>
      </trkpt>
      <trkpt lat="39.4672530" lon="2.8940060">
        <ele>115.6</ele>
        <time>2021-06-21T09:38:22Z</time>
      </trkpt>
      <trkpt lat="39.4673060" lon="2.8937560">
        <ele>115.4</ele>
        <time>2021-06-21T09:38:25Z</time>
      </trkpt>
      <trkpt lat="39.4673690" lon="2.8936040">
        <ele>115.2</ele>
        <time>2021-06-21T09:38:27Z</time>
      </trkpt>
      <trkpt lat="39.4676130" lon="2.8929330">
        <ele>114.0</ele>
        <time>2021-06-21T09:38:35Z</time>
      </trkpt>
      <trkpt lat="39.4677770" lon="2.8925390">
        <ele>113.9</ele>
        <time>2021-06-21T09:38:40Z</time>
      </trkpt>
      <trkpt lat="39.4681470" lon="2.8920150">
        <ele>115.0</ele>
        <time>2021-06-21T09:38:48Z</time>
      </trkpt>
      <trkpt lat="39.4683130" lon="2.8918180">
        <ele>115.5</ele>
        <time>2021-06-21T09:38:52Z</time>
      </trkpt>
      <trkpt lat="39.4683800" lon="2.8916960">
        <ele>115.7</ele>
        <time>2021-06-21T09:38:54Z</time>
      </trkpt>
      <trkpt lat="39.4684100" lon="2.8916360">
        <ele>115.7</ele>
        <time>2021-06-21T09:38:55Z</time>
      </trkpt>
      <trkpt lat="39.4684670" lon="2.8914280">
        <ele>115.9</ele>
        <time>2021-06-21T09:38:58Z</time>
      </trkpt>
      <trkpt lat="39.4685450" lon="2.8910770">
        <ele>116.2</ele>
        <time>2021-06-21T09:39:03Z</time>
      </trkpt>
      <trkpt lat="39.4685700" lon="2.8909280">
        <ele>116.3</ele>
        <time>2021-06-21T09:39:05Z</time>
      </trkpt>
      <trkpt lat="39.4687300" lon="2.8901920">
        <ele>116.6</ele>
        <time>2021-06-21T09:39:15Z</time>
      </trkpt>
      <trkpt lat="39.4688980" lon="2.8897590">
        <ele>117.0</ele>
        <time>2021-06-21T09:39:21Z</time>
      </trkpt>
      <trkpt lat="39.4691830" lon="2.8892250">
        <ele>117.6</ele>
        <time>2021-06-21T09:39:30Z</time>
      </trkpt>
      <trkpt lat="39.4694720" lon="2.8886360">
        <ele>118.5</ele>
        <time>2021-06-21T09:39:39Z</time>
      </trkpt>
      <trkpt lat="39.4696270" lon="2.8883250">
        <ele>119.0</ele>
        <time>2021-06-21T09:39:44Z</time>
      </trkpt>
      <trkpt lat="39.4697330" lon="2.8881120">
        <ele>119.0</ele>
        <time>2021-06-21T09:39:47Z</time>
      </trkpt>
      <trkpt lat="39.4699690" lon="2.8876590">
        <ele>119.1</ele>
        <time>2021-06-21T09:39:54Z</time>
      </trkpt>
      <trkpt lat="39.4702550" lon="2.8870920">
        <ele>118.9</ele>
        <time>2021-06-21T09:40:02Z</time>
      </trkpt>
      <trkpt lat="39.4702960" lon="2.8870240">
        <ele>118.9</ele>
        <time>2021-06-21T09:40:03Z</time>
      </trkpt>
      <trkpt lat="39.4704460" lon="2.8868540">
        <ele>118.8</ele>
        <time>2021-06-21T09:40:06Z</time>
      </trkpt>
      <trkpt lat="39.4708730" lon="2.8863750">
        <ele>118.6</ele>
        <time>2021-06-21T09:40:14Z</time>
      </trkpt>
      <trkpt lat="39.4711110" lon="2.8860990">
        <ele>119.0</ele>
        <time>2021-06-21T09:40:19Z</time>
      </trkpt>
      <trkpt lat="39.4712760" lon="2.8858960">
        <ele>119.5</ele>
        <time>2021-06-21T09:40:23Z</time>
      </trkpt>
      <trkpt lat="39.4712770" lon="2.8858340">
        <ele>119.4</ele>
        <time>2021-06-21T09:40:24Z</time>
      </trkpt>
      <trkpt lat="39.4712630" lon="2.8857660">
        <ele>119.3</ele>
        <time>2021-06-21T09:40:25Z</time>
      </trkpt>
      <trkpt lat="39.4712040" lon="2.8854720">
        <ele>118.6</ele>
        <time>2021-06-21T09:40:29Z</time>
      </trkpt>
      <trkpt lat="39.4711990" lon="2.8853900">
        <ele>118.5</ele>
        <time>2021-06-21T09:40:30Z</time>
      </trkpt>
      <trkpt lat="39.4711980" lon="2.8851400">
        <ele>118.2</ele>
        <time>2021-06-21T09:40:33Z</time>
      </trkpt>
      <trkpt lat="39.4712050" lon="2.8850570">
        <ele>118.2</ele>
        <time>2021-06-21T09:40:34Z</time>
      </trkpt>
      <trkpt lat="39.4712940" lon="2.8843010">
        <ele>118.4</ele>
        <time>2021-06-21T09:40:43Z</time>
      </trkpt>
      <trkpt lat="39.4713180" lon="2.8840900">
        <ele>118.9</ele>
        <time>2021-06-21T09:40:46Z</time>
      </trkpt>
      <trkpt lat="39.4713270" lon="2.8840120">
        <ele>119.0</ele>
        <time>2021-06-21T09:40:48Z</time>
      </trkpt>
      <trkpt lat="39.4713320" lon="2.8838760">
        <ele>118.7</ele>
        <time>2021-06-21T09:40:51Z</time>
      </trkpt>
      <trkpt lat="39.4713560" lon="2.8837070">
        <ele>118.2</ele>
        <time>2021-06-21T09:40:54Z</time>
      </trkpt>
      <trkpt lat="39.4713960" lon="2.8833660">
        <ele>117.5</ele>
        <time>2021-06-21T09:40:59Z</time>
      </trkpt>
      <trkpt lat="39.4714540" lon="2.8828570">
        <ele>117.1</ele>
        <time>2021-06-21T09:41:06Z</time>
      </trkpt>
      <trkpt lat="39.4714880" lon="2.8826170">
        <ele>117.0</ele>
        <time>2021-06-21T09:41:09Z</time>
      </trkpt>
      <trkpt lat="39.4715170" lon="2.8824810">
        <ele>116.9</ele>
        <time>2021-06-21T09:41:11Z</time>
      </trkpt>
      <trkpt lat="39.4715560" lon="2.8823250">
        <ele>116.8</ele>
        <time>2021-06-21T09:41:13Z</time>
      </trkpt>
      <trkpt lat="39.4717020" lon="2.8819240">
        <ele>116.6</ele>
        <time>2021-06-21T09:41:19Z</time>
      </trkpt>
      <trkpt lat="39.4717880" lon="2.8817160">
        <ele>116.5</ele>
        <time>2021-06-21T09:41:22Z</time>
      </trkpt>
      <trkpt lat="39.4720650" lon="2.8810560">
        <ele>116.3</ele>
        <time>2021-06-21T09:41:31Z</time>
      </trkpt>
      <trkpt lat="39.4720910" lon="2.8809950">
        <ele>116.3</ele>
        <time>2021-06-21T09:41:32Z</time>
      </trkpt>
      <trkpt lat="39.4722900" lon="2.8803600">
        <ele>116.3</ele>
        <time>2021-06-21T09:41:40Z</time>
      </trkpt>
      <trkpt lat="39.4723900" lon="2.8796940">
        <ele>116.0</ele>
        <time>2021-06-21T09:41:48Z</time>
      </trkpt>
      <trkpt lat="39.4724500" lon="2.8789750">
        <ele>115.6</ele>
        <time>2021-06-21T09:41:56Z</time>
      </trkpt>
      <trkpt lat="39.4724740" lon="2.8787010">
        <ele>115.4</ele>
        <time>2021-06-21T09:41:59Z</time>
      </trkpt>
      <trkpt lat="39.4725410" lon="2.8780010">
        <ele>115.2</ele>
        <time>2021-06-21T09:42:07Z</time>
      </trkpt>
      <trkpt lat="39.4726750" lon="2.8772650">
        <ele>115.8</ele>
        <time>2021-06-21T09:42:16Z</time>
      </trkpt>
      <trkpt lat="39.4727560" lon="2.8768410">
        <ele>116.6</ele>
        <time>2021-06-21T09:42:22Z</time>
      </trkpt>
      <trkpt lat="39.4728030" lon="2.8765900">
        <ele>117.3</ele>
        <time>2021-06-21T09:42:26Z</time>
      </trkpt>
      <trkpt lat="39.4728220" lon="2.8765140">
        <ele>117.6</ele>
        <time>2021-06-21T09:42:28Z</time>
      </trkpt>
      <trkpt lat="39.4728290" lon="2.8764600">
        <ele>117.6</ele>
        <time>2021-06-21T09:42:31Z</time>
      </trkpt>
      <trkpt lat="39.4728280" lon="2.8764350">
        <ele>117.6</ele>
        <time>2021-06-21T09:42:32Z</time>
      </trkpt>
      <trkpt lat="39.4728530" lon="2.8763290">
        <ele>117.2</ele>
        <time>2021-06-21T09:42:35Z</time>
      </trkpt>
      <trkpt lat="39.4728640" lon="2.8762800">
        <ele>117.1</ele>
        <time>2021-06-21T09:42:36Z</time>
      </trkpt>
      <trkpt lat="39.4728770" lon="2.8762270">
        <ele>117.0</ele>
        <time>2021-06-21T09:42:37Z</time>
      </trkpt>
      <trkpt lat="39.4729170" lon="2.8760670">
        <ele>116.7</ele>
        <time>2021-06-21T09:42:40Z</time>
      </trkpt>
      <trkpt lat="39.4729300" lon="2.8760050">
        <ele>116.6</ele>
        <time>2021-06-21T09:42:41Z</time>
      </trkpt>
      <trkpt lat="39.4729820" lon="2.8758080">
        <ele>116.4</ele>
        <time>2021-06-21T09:42:45Z</time>
      </trkpt>
      <trkpt lat="39.4730190" lon="2.8756200">
        <ele>116.4</ele>
        <time>2021-06-21T09:42:48Z</time>
      </trkpt>
      <trkpt lat="39.4730920" lon="2.8752800">
        <ele>116.3</ele>
        <time>2021-06-21T09:42:53Z</time>
      </trkpt>
      <trkpt lat="39.4731040" lon="2.8752050">
        <ele>116.3</ele>
        <time>2021-06-21T09:42:54Z</time>
      </trkpt>
      <trkpt lat="39.4731470" lon="2.8748960">
        <ele>116.3</ele>
        <time>2021-06-21T09:42:58Z</time>
      </trkpt>
      <trkpt lat="39.4731690" lon="2.8746610">
        <ele>116.3</ele>
        <time>2021-06-21T09:43:01Z</time>
      </trkpt>
      <trkpt lat="39.4731660" lon="2.8740920">
        <ele>116.4</ele>
        <time>2021-06-21T09:43:08Z</time>
      </trkpt>
      <trkpt lat="39.4731600" lon="2.8740170">
        <ele>116.4</ele>
        <time>2021-06-21T09:43:09Z</time>
      </trkpt>
      <trkpt lat="39.4730990" lon="2.8733200">
        <ele>116.4</ele>
        <time>2021-06-21T09:43:17Z</time>
      </trkpt>
      <trkpt lat="39.4730820" lon="2.8731620">
        <ele>116.5</ele>
        <time>2021-06-21T09:43:20Z</time>
      </trkpt>
      <trkpt lat="39.4730560" lon="2.8725450">
        <ele>117.1</ele>
        <time>2021-06-21T09:43:28Z</time>
      </trkpt>
      <trkpt lat="39.4730640" lon="2.8724710">
        <ele>117.2</ele>
        <time>2021-06-21T09:43:29Z</time>
      </trkpt>
      <trkpt lat="39.4730960" lon="2.8722770">
        <ele>117.2</ele>
        <time>2021-06-21T09:43:32Z</time>
      </trkpt>
      <trkpt lat="39.4731090" lon="2.8721550">
        <ele>117.1</ele>
        <time>2021-06-21T09:43:34Z</time>
      </trkpt>
      <trkpt lat="39.4731010" lon="2.8720170">
        <ele>117.0</ele>
        <time>2021-06-21T09:43:36Z</time>
      </trkpt>
      <trkpt lat="39.4730590" lon="2.8716070">
        <ele>116.8</ele>
        <time>2021-06-21T09:43:42Z</time>
      </trkpt>
      <trkpt lat="39.4730470" lon="2.8714650">
        <ele>116.8</ele>
        <time>2021-06-21T09:43:44Z</time>
      </trkpt>
      <trkpt lat="39.4729840" lon="2.8710220">
        <ele>116.7</ele>
        <time>2021-06-21T09:43:50Z</time>
      </trkpt>
      <trkpt lat="39.4729700" lon="2.8709450">
        <ele>116.6</ele>
        <time>2021-06-21T09:43:51Z</time>
      </trkpt>
      <trkpt lat="39.4729560" lon="2.8708650">
        <ele>116.6</ele>
        <time>2021-06-21T09:43:52Z</time>
      </trkpt>
      <trkpt lat="39.4729370" lon="2.8707050">
        <ele>116.5</ele>
        <time>2021-06-21T09:43:54Z</time>
      </trkpt>
      <trkpt lat="39.4728710" lon="2.8702240">
        <ele>116.5</ele>
        <time>2021-06-21T09:44:00Z</time>
      </trkpt>
      <trkpt lat="39.4727900" lon="2.8694660">
        <ele>116.5</ele>
        <time>2021-06-21T09:44:09Z</time>
      </trkpt>
      <trkpt lat="39.4727830" lon="2.8691120">
        <ele>116.4</ele>
        <time>2021-06-21T09:44:13Z</time>
      </trkpt>
      <trkpt lat="39.4727830" lon="2.8690180">
        <ele>116.4</ele>
        <time>2021-06-21T09:44:14Z</time>
      </trkpt>
      <trkpt lat="39.4728040" lon="2.8683650">
        <ele>116.3</ele>
        <time>2021-06-21T09:44:21Z</time>
      </trkpt>
      <trkpt lat="39.4728350" lon="2.8676100">
        <ele>116.2</ele>
        <time>2021-06-21T09:44:29Z</time>
      </trkpt>
      <trkpt lat="39.4728770" lon="2.8669570">
        <ele>116.4</ele>
        <time>2021-06-21T09:44:36Z</time>
      </trkpt>
      <trkpt lat="39.4729790" lon="2.8663260">
        <ele>116.7</ele>
        <time>2021-06-21T09:44:43Z</time>
      </trkpt>
      <trkpt lat="39.4731550" lon="2.8656200">
        <ele>116.4</ele>
        <time>2021-06-21T09:44:51Z</time>
      </trkpt>
      <trkpt lat="39.4733990" lon="2.8649580">
        <ele>116.3</ele>
        <time>2021-06-21T09:44:59Z</time>
      </trkpt>
      <trkpt lat="39.4734680" lon="2.8647850">
        <ele>116.3</ele>
        <time>2021-06-21T09:45:01Z</time>
      </trkpt>
      <trkpt lat="39.4737300" lon="2.8642080">
        <ele>116.3</ele>
        <time>2021-06-21T09:45:08Z</time>
      </trkpt>
      <trkpt lat="39.4740390" lon="2.8635590">
        <ele>116.4</ele>
        <time>2021-06-21T09:45:16Z</time>
      </trkpt>
      <trkpt lat="39.4740750" lon="2.8634770">
        <ele>116.5</ele>
        <time>2021-06-21T09:45:17Z</time>
      </trkpt>
      <trkpt lat="39.4743580" lon="2.8628410">
        <ele>116.6</ele>
        <time>2021-06-21T09:45:25Z</time>
      </trkpt>
      <trkpt lat="39.4743930" lon="2.8627610">
        <ele>116.6</ele>
        <time>2021-06-21T09:45:26Z</time>
      </trkpt>
      <trkpt lat="39.4746810" lon="2.8620980">
        <ele>116.7</ele>
        <time>2021-06-21T09:45:34Z</time>
      </trkpt>
      <trkpt lat="39.4747500" lon="2.8619240">
        <ele>116.7</ele>
        <time>2021-06-21T09:45:36Z</time>
      </trkpt>
      <trkpt lat="39.4749970" lon="2.8613210">
        <ele>116.7</ele>
        <time>2021-06-21T09:45:43Z</time>
      </trkpt>
      <trkpt lat="39.4752810" lon="2.8606600">
        <ele>116.7</ele>
        <time>2021-06-21T09:45:51Z</time>
      </trkpt>
      <trkpt lat="39.4754700" lon="2.8600070">
        <ele>116.7</ele>
        <time>2021-06-21T09:45:58Z</time>
      </trkpt>
      <trkpt lat="39.4756180" lon="2.8593140">
        <ele>116.8</ele>
        <time>2021-06-21T09:46:06Z</time>
      </trkpt>
      <trkpt lat="39.4757340" lon="2.8586740">
        <ele>117.1</ele>
        <time>2021-06-21T09:46:13Z</time>
      </trkpt>
      <trkpt lat="39.4757970" lon="2.8579420">
        <ele>117.5</ele>
        <time>2021-06-21T09:46:21Z</time>
      </trkpt>
      <trkpt lat="39.4759000" lon="2.8574060">
        <ele>117.8</ele>
        <time>2021-06-21T09:46:27Z</time>
      </trkpt>
      <trkpt lat="39.4760820" lon="2.8566930">
        <ele>117.8</ele>
        <time>2021-06-21T09:46:35Z</time>
      </trkpt>
      <trkpt lat="39.4761190" lon="2.8566110">
        <ele>117.8</ele>
        <time>2021-06-21T09:46:36Z</time>
      </trkpt>
      <trkpt lat="39.4763000" lon="2.8563090">
        <ele>117.7</ele>
        <time>2021-06-21T09:46:40Z</time>
      </trkpt>
      <trkpt lat="39.4766830" lon="2.8558480">
        <ele>117.4</ele>
        <time>2021-06-21T09:46:47Z</time>
      </trkpt>
      <trkpt lat="39.4771220" lon="2.8553170">
        <ele>116.9</ele>
        <time>2021-06-21T09:46:55Z</time>
      </trkpt>
      <trkpt lat="39.4772630" lon="2.8551210">
        <ele>116.8</ele>
        <time>2021-06-21T09:46:58Z</time>
      </trkpt>
      <trkpt lat="39.4773810" lon="2.8549190">
        <ele>116.7</ele>
        <time>2021-06-21T09:47:01Z</time>
      </trkpt>
      <trkpt lat="39.4776130" lon="2.8545560">
        <ele>115.8</ele>
        <time>2021-06-21T09:47:07Z</time>
      </trkpt>
      <trkpt lat="39.4777780" lon="2.8542580">
        <ele>114.1</ele>
        <time>2021-06-21T09:47:12Z</time>
      </trkpt>
      <trkpt lat="39.4779000" lon="2.8540080">
        <ele>113.5</ele>
        <time>2021-06-21T09:47:16Z</time>
      </trkpt>
      <trkpt lat="39.4779440" lon="2.8539210">
        <ele>113.5</ele>
        <time>2021-06-21T09:47:18Z</time>
      </trkpt>
      <trkpt lat="39.4779910" lon="2.8538410">
        <ele>113.6</ele>
        <time>2021-06-21T09:47:21Z</time>
      </trkpt>
      <trkpt lat="39.4780850" lon="2.8536360">
        <ele>113.6</ele>
        <time>2021-06-21T09:47:26Z</time>
      </trkpt>
      <trkpt lat="39.4782110" lon="2.8533570">
        <ele>114.4</ele>
        <time>2021-06-21T09:47:32Z</time>
      </trkpt>
      <trkpt lat="39.4782330" lon="2.8533140">
        <ele>114.6</ele>
        <time>2021-06-21T09:47:33Z</time>
      </trkpt>
      <trkpt lat="39.4782550" lon="2.8532620">
        <ele>114.8</ele>
        <time>2021-06-21T09:47:34Z</time>
      </trkpt>
      <trkpt lat="39.4784190" lon="2.8529150">
        <ele>115.8</ele>
        <time>2021-06-21T09:47:42Z</time>
      </trkpt>
      <trkpt lat="39.4784840" lon="2.8527730">
        <ele>116.0</ele>
        <time>2021-06-21T09:47:45Z</time>
      </trkpt>
      <trkpt lat="39.4785940" lon="2.8525550">
        <ele>116.2</ele>
        <time>2021-06-21T09:47:50Z</time>
      </trkpt>
      <trkpt lat="39.4787620" lon="2.8521750">
        <ele>116.5</ele>
        <time>2021-06-21T09:47:57Z</time>
      </trkpt>
      <trkpt lat="39.4789120" lon="2.8517270">
        <ele>116.9</ele>
        <time>2021-06-21T09:48:05Z</time>
      </trkpt>
      <trkpt lat="39.4790140" lon="2.8514470">
        <ele>117.1</ele>
        <time>2021-06-21T09:48:10Z</time>
      </trkpt>
      <trkpt lat="39.4791020" lon="2.8511560">
        <ele>117.1</ele>
        <time>2021-06-21T09:48:15Z</time>
      </trkpt>
      <trkpt lat="39.4791590" lon="2.8509960">
        <ele>117.1</ele>
        <time>2021-06-21T09:48:18Z</time>
      </trkpt>
      <trkpt lat="39.4792110" lon="2.8508300">
        <ele>117.1</ele>
        <time>2021-06-21T09:48:21Z</time>
      </trkpt>
      <trkpt lat="39.4792850" lon="2.8505650">
        <ele>117.1</ele>
        <time>2021-06-21T09:48:25Z</time>
      </trkpt>
      <trkpt lat="39.4793370" lon="2.8503660">
        <ele>117.2</ele>
        <time>2021-06-21T09:48:28Z</time>
      </trkpt>
      <trkpt lat="39.4793950" lon="2.8501630">
        <ele>117.2</ele>
        <time>2021-06-21T09:48:31Z</time>
      </trkpt>
      <trkpt lat="39.4794430" lon="2.8500290">
        <ele>117.3</ele>
        <time>2021-06-21T09:48:33Z</time>
      </trkpt>
      <trkpt lat="39.4796110" lon="2.8496380">
        <ele>117.3</ele>
        <time>2021-06-21T09:48:39Z</time>
      </trkpt>
      <trkpt lat="39.4799140" lon="2.8490300">
        <ele>117.3</ele>
        <time>2021-06-21T09:48:48Z</time>
      </trkpt>
      <trkpt lat="39.4799480" lon="2.8489600">
        <ele>117.4</ele>
        <time>2021-06-21T09:48:49Z</time>
      </trkpt>
      <trkpt lat="39.4800120" lon="2.8488180">
        <ele>117.4</ele>
        <time>2021-06-21T09:48:51Z</time>
      </trkpt>
      <trkpt lat="39.4802240" lon="2.8483920">
        <ele>117.5</ele>
        <time>2021-06-21T09:48:57Z</time>
      </trkpt>
      <trkpt lat="39.4805830" lon="2.8476610">
        <ele>117.8</ele>
        <time>2021-06-21T09:49:06Z</time>
      </trkpt>
      <trkpt lat="39.4806200" lon="2.8475880">
        <ele>117.9</ele>
        <time>2021-06-21T09:49:08Z</time>
      </trkpt>
      <trkpt lat="39.4809210" lon="2.8469930">
        <ele>118.0</ele>
        <time>2021-06-21T09:49:16Z</time>
      </trkpt>
      <trkpt lat="39.4810030" lon="2.8468320">
        <ele>118.1</ele>
        <time>2021-06-21T09:49:18Z</time>
      </trkpt>
      <trkpt lat="39.4811140" lon="2.8464590">
        <ele>118.1</ele>
        <time>2021-06-21T09:49:23Z</time>
      </trkpt>
      <trkpt lat="39.4811970" lon="2.8457830">
        <ele>118.1</ele>
        <time>2021-06-21T09:49:31Z</time>
      </trkpt>
      <trkpt lat="39.4812480" lon="2.8450840">
        <ele>118.1</ele>
        <time>2021-06-21T09:49:39Z</time>
      </trkpt>
      <trkpt lat="39.4812600" lon="2.8449040">
        <ele>118.1</ele>
        <time>2021-06-21T09:49:41Z</time>
      </trkpt>
      <trkpt lat="39.4813230" lon="2.8441970">
        <ele>118.1</ele>
        <time>2021-06-21T09:49:49Z</time>
      </trkpt>
      <trkpt lat="39.4813340" lon="2.8441090">
        <ele>118.1</ele>
        <time>2021-06-21T09:49:50Z</time>
      </trkpt>
      <trkpt lat="39.4814510" lon="2.8434600">
        <ele>118.5</ele>
        <time>2021-06-21T09:49:58Z</time>
      </trkpt>
      <trkpt lat="39.4815370" lon="2.8428530">
        <ele>118.9</ele>
        <time>2021-06-21T09:50:06Z</time>
      </trkpt>
      <trkpt lat="39.4816090" lon="2.8422500">
        <ele>119.3</ele>
        <time>2021-06-21T09:50:14Z</time>
      </trkpt>
      <trkpt lat="39.4816950" lon="2.8415400">
        <ele>119.3</ele>
        <time>2021-06-21T09:50:23Z</time>
      </trkpt>
      <trkpt lat="39.4817200" lon="2.8413770">
        <ele>119.3</ele>
        <time>2021-06-21T09:50:25Z</time>
      </trkpt>
      <trkpt lat="39.4818150" lon="2.8407810">
        <ele>119.1</ele>
        <time>2021-06-21T09:50:32Z</time>
      </trkpt>
      <trkpt lat="39.4818290" lon="2.8406950">
        <ele>119.1</ele>
        <time>2021-06-21T09:50:33Z</time>
      </trkpt>
      <trkpt lat="39.4819350" lon="2.8400050">
        <ele>119.1</ele>
        <time>2021-06-21T09:50:41Z</time>
      </trkpt>
      <trkpt lat="39.4819500" lon="2.8399180">
        <ele>119.1</ele>
        <time>2021-06-21T09:50:42Z</time>
      </trkpt>
      <trkpt lat="39.4820580" lon="2.8393130">
        <ele>119.8</ele>
        <time>2021-06-21T09:50:49Z</time>
      </trkpt>
      <trkpt lat="39.4821060" lon="2.8390630">
        <ele>120.3</ele>
        <time>2021-06-21T09:50:52Z</time>
      </trkpt>
      <trkpt lat="39.4821400" lon="2.8389150">
        <ele>120.5</ele>
        <time>2021-06-21T09:50:54Z</time>
      </trkpt>
      <trkpt lat="39.4822450" lon="2.8383300">
        <ele>120.0</ele>
        <time>2021-06-21T09:51:01Z</time>
      </trkpt>
      <trkpt lat="39.4823600" lon="2.8376980">
        <ele>119.9</ele>
        <time>2021-06-21T09:51:08Z</time>
      </trkpt>
      <trkpt lat="39.4825090" lon="2.8369810">
        <ele>120.2</ele>
        <time>2021-06-21T09:51:16Z</time>
      </trkpt>
      <trkpt lat="39.4825280" lon="2.8368900">
        <ele>120.2</ele>
        <time>2021-06-21T09:51:17Z</time>
      </trkpt>
      <trkpt lat="39.4826910" lon="2.8361910">
        <ele>120.7</ele>
        <time>2021-06-21T09:51:25Z</time>
      </trkpt>
      <trkpt lat="39.4827300" lon="2.8360180">
        <ele>120.9</ele>
        <time>2021-06-21T09:51:27Z</time>
      </trkpt>
      <trkpt lat="39.4829010" lon="2.8353130">
        <ele>121.2</ele>
        <time>2021-06-21T09:51:35Z</time>
      </trkpt>
      <trkpt lat="39.4829790" lon="2.8349460">
        <ele>121.2</ele>
        <time>2021-06-21T09:51:39Z</time>
      </trkpt>
      <trkpt lat="39.4831320" lon="2.8343240">
        <ele>121.3</ele>
        <time>2021-06-21T09:51:46Z</time>
      </trkpt>
      <trkpt lat="39.4833160" lon="2.8336250">
        <ele>121.9</ele>
        <time>2021-06-21T09:51:54Z</time>
      </trkpt>
      <trkpt lat="39.4835150" lon="2.8329170">
        <ele>122.6</ele>
        <time>2021-06-21T09:52:02Z</time>
      </trkpt>
      <trkpt lat="39.4835950" lon="2.8326540">
        <ele>122.9</ele>
        <time>2021-06-21T09:52:05Z</time>
      </trkpt>
      <trkpt lat="39.4837840" lon="2.8320590">
        <ele>123.7</ele>
        <time>2021-06-21T09:52:12Z</time>
      </trkpt>
      <trkpt lat="39.4838110" lon="2.8319740">
        <ele>123.8</ele>
        <time>2021-06-21T09:52:13Z</time>
      </trkpt>
      <trkpt lat="39.4840690" lon="2.8313130">
        <ele>124.6</ele>
        <time>2021-06-21T09:52:21Z</time>
      </trkpt>
      <trkpt lat="39.4841020" lon="2.8312320">
        <ele>124.7</ele>
        <time>2021-06-21T09:52:22Z</time>
      </trkpt>
      <trkpt lat="39.4843680" lon="2.8306080">
        <ele>125.7</ele>
        <time>2021-06-21T09:52:30Z</time>
      </trkpt>
      <trkpt lat="39.4843980" lon="2.8305340">
        <ele>125.8</ele>
        <time>2021-06-21T09:52:31Z</time>
      </trkpt>
      <trkpt lat="39.4846830" lon="2.8299150">
        <ele>126.4</ele>
        <time>2021-06-21T09:52:40Z</time>
      </trkpt>
      <trkpt lat="39.4850160" lon="2.8292830">
        <ele>127.3</ele>
        <time>2021-06-21T09:52:50Z</time>
      </trkpt>
      <trkpt lat="39.4851160" lon="2.8291000">
        <ele>127.6</ele>
        <time>2021-06-21T09:52:53Z</time>
      </trkpt>
      <trkpt lat="39.4852390" lon="2.8288310">
        <ele>127.8</ele>
        <time>2021-06-21T09:52:57Z</time>
      </trkpt>
      <trkpt lat="39.4854080" lon="2.8283950">
        <ele>128.4</ele>
        <time>2021-06-21T09:53:04Z</time>
      </trkpt>
      <trkpt lat="39.4854230" lon="2.8283270">
        <ele>128.4</ele>
        <time>2021-06-21T09:53:05Z</time>
      </trkpt>
      <trkpt lat="39.4854610" lon="2.8279090">
        <ele>128.8</ele>
        <time>2021-06-21T09:53:11Z</time>
      </trkpt>
      <trkpt lat="39.4854480" lon="2.8277690">
        <ele>128.9</ele>
        <time>2021-06-21T09:53:13Z</time>
      </trkpt>
      <trkpt lat="39.4854030" lon="2.8274980">
        <ele>129.4</ele>
        <time>2021-06-21T09:53:17Z</time>
      </trkpt>
      <trkpt lat="39.4853500" lon="2.8273060">
        <ele>130.0</ele>
        <time>2021-06-21T09:53:20Z</time>
      </trkpt>
      <trkpt lat="39.4853390" lon="2.8271770">
        <ele>130.6</ele>
        <time>2021-06-21T09:53:22Z</time>
      </trkpt>
      <trkpt lat="39.4853560" lon="2.8270640">
        <ele>131.0</ele>
        <time>2021-06-21T09:53:24Z</time>
      </trkpt>
      <trkpt lat="39.4853740" lon="2.8270200">
        <ele>131.2</ele>
        <time>2021-06-21T09:53:25Z</time>
      </trkpt>
      <trkpt lat="39.4854370" lon="2.8269460">
        <ele>131.6</ele>
        <time>2021-06-21T09:53:28Z</time>
      </trkpt>
      <trkpt lat="39.4854660" lon="2.8269420">
        <ele>131.7</ele>
        <time>2021-06-21T09:53:29Z</time>
      </trkpt>
      <trkpt lat="39.4856050" lon="2.8269740">
        <ele>132.3</ele>
        <time>2021-06-21T09:53:33Z</time>
      </trkpt>
      <trkpt lat="39.4857510" lon="2.8269170">
        <ele>133.3</ele>
        <time>2021-06-21T09:53:38Z</time>
      </trkpt>
      <trkpt lat="39.4857680" lon="2.8267560">
        <ele>133.9</ele>
        <time>2021-06-21T09:53:42Z</time>
      </trkpt>
      <trkpt lat="39.4857120" lon="2.8266040">
        <ele>132.5</ele>
        <time>2021-06-21T09:53:45Z</time>
      </trkpt>
      <trkpt lat="39.4857090" lon="2.8264810">
        <ele>132.0</ele>
        <time>2021-06-21T09:53:47Z</time>
      </trkpt>
      <trkpt lat="39.4857880" lon="2.8263790">
        <ele>131.5</ele>
        <time>2021-06-21T09:53:49Z</time>
      </trkpt>
      <trkpt lat="39.4858480" lon="2.8263410">
        <ele>131.2</ele>
        <time>2021-06-21T09:53:50Z</time>
      </trkpt>
      <trkpt lat="39.4859150" lon="2.8263200">
        <ele>130.9</ele>
        <time>2021-06-21T09:53:51Z</time>
      </trkpt>
      <trkpt lat="39.4861320" lon="2.8262940">
        <ele>130.4</ele>
        <time>2021-06-21T09:53:54Z</time>
      </trkpt>
      <trkpt lat="39.4862720" lon="2.8262700">
        <ele>130.2</ele>
        <time>2021-06-21T09:53:56Z</time>
      </trkpt>
      <trkpt lat="39.4863990" lon="2.8262150">
        <ele>130.1</ele>
        <time>2021-06-21T09:53:58Z</time>
      </trkpt>
      <trkpt lat="39.4865750" lon="2.8260930">
        <ele>129.7</ele>
        <time>2021-06-21T09:54:01Z</time>
      </trkpt>
      <trkpt lat="39.4866300" lon="2.8260420">
        <ele>129.6</ele>
        <time>2021-06-21T09:54:02Z</time>
      </trkpt>
      <trkpt lat="39.4866810" lon="2.8259850">
        <ele>129.5</ele>
        <time>2021-06-21T09:54:03Z</time>
      </trkpt>
      <trkpt lat="39.4868600" lon="2.8257380">
        <ele>129.0</ele>
        <time>2021-06-21T09:54:07Z</time>
      </trkpt>
      <trkpt lat="39.4869450" lon="2.8256080">
        <ele>128.7</ele>
        <time>2021-06-21T09:54:09Z</time>
      </trkpt>
      <trkpt lat="39.4871420" lon="2.8252210">
        <ele>128.1</ele>
        <time>2021-06-21T09:54:14Z</time>
      </trkpt>
      <trkpt lat="39.4872130" lon="2.8250440">
        <ele>128.0</ele>
        <time>2021-06-21T09:54:16Z</time>
      </trkpt>
      <trkpt lat="39.4873540" lon="2.8246320">
        <ele>127.8</ele>
        <time>2021-06-21T09:54:21Z</time>
      </trkpt>
      <trkpt lat="39.4875370" lon="2.8239760">
        <ele>127.7</ele>
        <time>2021-06-21T09:54:29Z</time>
      </trkpt>
      <trkpt lat="39.4876010" lon="2.8237170">
        <ele>127.6</ele>
        <time>2021-06-21T09:54:32Z</time>
      </trkpt>
      <trkpt lat="39.4877320" lon="2.8230990">
        <ele>127.4</ele>
        <time>2021-06-21T09:54:39Z</time>
      </trkpt>
      <trkpt lat="39.4878320" lon="2.8223840">
        <ele>127.3</ele>
        <time>2021-06-21T09:54:47Z</time>
      </trkpt>
      <trkpt lat="39.4878430" lon="2.8222940">
        <ele>127.3</ele>
        <time>2021-06-21T09:54:48Z</time>
      </trkpt>
      <trkpt lat="39.4879050" lon="2.8215740">
        <ele>127.2</ele>
        <time>2021-06-21T09:54:56Z</time>
      </trkpt>
      <trkpt lat="39.4879120" lon="2.8213960">
        <ele>127.2</ele>
        <time>2021-06-21T09:54:58Z</time>
      </trkpt>
      <trkpt lat="39.4879170" lon="2.8211280">
        <ele>127.1</ele>
        <time>2021-06-21T09:55:01Z</time>
      </trkpt>
      <trkpt lat="39.4879150" lon="2.8208600">
        <ele>127.0</ele>
        <time>2021-06-21T09:55:04Z</time>
      </trkpt>
      <trkpt lat="39.4879050" lon="2.8204020">
        <ele>126.7</ele>
        <time>2021-06-21T09:55:09Z</time>
      </trkpt>
      <trkpt lat="39.4878900" lon="2.8196270">
        <ele>126.3</ele>
        <time>2021-06-21T09:55:17Z</time>
      </trkpt>
      <trkpt lat="39.4878900" lon="2.8195280">
        <ele>126.2</ele>
        <time>2021-06-21T09:55:18Z</time>
      </trkpt>
      <trkpt lat="39.4878980" lon="2.8188220">
        <ele>125.9</ele>
        <time>2021-06-21T09:55:25Z</time>
      </trkpt>
      <trkpt lat="39.4879080" lon="2.8186210">
        <ele>125.8</ele>
        <time>2021-06-21T09:55:27Z</time>
      </trkpt>
      <trkpt lat="39.4879480" lon="2.8179080">
        <ele>125.7</ele>
        <time>2021-06-21T09:55:34Z</time>
      </trkpt>
      <trkpt lat="39.4879690" lon="2.8176310">
        <ele>125.7</ele>
        <time>2021-06-21T09:55:37Z</time>
      </trkpt>
      <trkpt lat="39.4880110" lon="2.8169230">
        <ele>125.6</ele>
        <time>2021-06-21T09:55:44Z</time>
      </trkpt>
      <trkpt lat="39.4880220" lon="2.8167310">
        <ele>125.6</ele>
        <time>2021-06-21T09:55:46Z</time>
      </trkpt>
      <trkpt lat="39.4880640" lon="2.8160770">
        <ele>125.7</ele>
        <time>2021-06-21T09:55:53Z</time>
      </trkpt>
      <trkpt lat="39.4880990" lon="2.8154490">
        <ele>125.8</ele>
        <time>2021-06-21T09:56:00Z</time>
      </trkpt>
      <trkpt lat="39.4881520" lon="2.8149120">
        <ele>126.0</ele>
        <time>2021-06-21T09:56:06Z</time>
      </trkpt>
      <trkpt lat="39.4881790" lon="2.8142010">
        <ele>125.8</ele>
        <time>2021-06-21T09:56:14Z</time>
      </trkpt>
      <trkpt lat="39.4881870" lon="2.8134690">
        <ele>125.3</ele>
        <time>2021-06-21T09:56:22Z</time>
      </trkpt>
      <trkpt lat="39.4881880" lon="2.8131780">
        <ele>125.2</ele>
        <time>2021-06-21T09:56:25Z</time>
      </trkpt>
      <trkpt lat="39.4882140" lon="2.8125000">
        <ele>125.2</ele>
        <time>2021-06-21T09:56:32Z</time>
      </trkpt>
      <trkpt lat="39.4882510" lon="2.8117410">
        <ele>125.7</ele>
        <time>2021-06-21T09:56:40Z</time>
      </trkpt>
      <trkpt lat="39.4882550" lon="2.8116490">
        <ele>125.8</ele>
        <time>2021-06-21T09:56:41Z</time>
      </trkpt>
      <trkpt lat="39.4883160" lon="2.8109450">
        <ele>126.4</ele>
        <time>2021-06-21T09:56:49Z</time>
      </trkpt>
      <trkpt lat="39.4883590" lon="2.8102150">
        <ele>126.5</ele>
        <time>2021-06-21T09:56:57Z</time>
      </trkpt>
      <trkpt lat="39.4883610" lon="2.8101170">
        <ele>126.5</ele>
        <time>2021-06-21T09:56:58Z</time>
      </trkpt>
      <trkpt lat="39.4883580" lon="2.8093610">
        <ele>126.6</ele>
        <time>2021-06-21T09:57:06Z</time>
      </trkpt>
      <trkpt lat="39.4883500" lon="2.8086350">
        <ele>126.5</ele>
        <time>2021-06-21T09:57:13Z</time>
      </trkpt>
      <trkpt lat="39.4883560" lon="2.8084260">
        <ele>126.5</ele>
        <time>2021-06-21T09:57:15Z</time>
      </trkpt>
      <trkpt lat="39.4884190" lon="2.8077100">
        <ele>126.3</ele>
        <time>2021-06-21T09:57:22Z</time>
      </trkpt>
      <trkpt lat="39.4884330" lon="2.8076080">
        <ele>126.3</ele>
        <time>2021-06-21T09:57:23Z</time>
      </trkpt>
      <trkpt lat="39.4885680" lon="2.8068990">
        <ele>126.2</ele>
        <time>2021-06-21T09:57:30Z</time>
      </trkpt>
      <trkpt lat="39.4886140" lon="2.8066960">
        <ele>126.1</ele>
        <time>2021-06-21T09:57:32Z</time>
      </trkpt>
      <trkpt lat="39.4887910" lon="2.8059520">
        <ele>125.8</ele>
        <time>2021-06-21T09:57:40Z</time>
      </trkpt>
      <trkpt lat="39.4887970" lon="2.8058790">
        <ele>125.6</ele>
        <time>2021-06-21T09:57:41Z</time>
      </trkpt>
      <trkpt lat="39.4887840" lon="2.8057350">
        <ele>125.2</ele>
        <time>2021-06-21T09:57:43Z</time>
      </trkpt>
      <trkpt lat="39.4887400" lon="2.8055810">
        <ele>124.7</ele>
        <time>2021-06-21T09:57:45Z</time>
      </trkpt>
      <trkpt lat="39.4886960" lon="2.8054140">
        <ele>124.1</ele>
        <time>2021-06-21T09:57:47Z</time>
      </trkpt>
      <trkpt lat="39.4887150" lon="2.8052500">
        <ele>123.5</ele>
        <time>2021-06-21T09:57:49Z</time>
      </trkpt>
      <trkpt lat="39.4887500" lon="2.8051450">
        <ele>123.2</ele>
        <time>2021-06-21T09:57:50Z</time>
      </trkpt>
      <trkpt lat="39.4889450" lon="2.8046960">
        <ele>122.9</ele>
        <time>2021-06-21T09:57:55Z</time>
      </trkpt>
      <trkpt lat="39.4890540" lon="2.8044920">
        <ele>123.3</ele>
        <time>2021-06-21T09:57:58Z</time>
      </trkpt>
      <trkpt lat="39.4890910" lon="2.8044400">
        <ele>123.5</ele>
        <time>2021-06-21T09:57:59Z</time>
      </trkpt>
      <trkpt lat="39.4891700" lon="2.8043630">
        <ele>123.9</ele>
        <time>2021-06-21T09:58:01Z</time>
      </trkpt>
      <trkpt lat="39.4892690" lon="2.8043270">
        <ele>124.2</ele>
        <time>2021-06-21T09:58:03Z</time>
      </trkpt>
      <trkpt lat="39.4893770" lon="2.8043150">
        <ele>124.6</ele>
        <time>2021-06-21T09:58:05Z</time>
      </trkpt>
      <trkpt lat="39.4894790" lon="2.8043050">
        <ele>124.9</ele>
        <time>2021-06-21T09:58:07Z</time>
      </trkpt>
      <trkpt lat="39.4895280" lon="2.8042960">
        <ele>125.1</ele>
        <time>2021-06-21T09:58:08Z</time>
      </trkpt>
      <trkpt lat="39.4895710" lon="2.8042800">
        <ele>125.1</ele>
        <time>2021-06-21T09:58:09Z</time>
      </trkpt>
      <trkpt lat="39.4896500" lon="2.8042220">
        <ele>125.3</ele>
        <time>2021-06-21T09:58:11Z</time>
      </trkpt>
      <trkpt lat="39.4897250" lon="2.8041340">
        <ele>125.3</ele>
        <time>2021-06-21T09:58:13Z</time>
      </trkpt>
      <trkpt lat="39.4898710" lon="2.8038970">
        <ele>125.2</ele>
        <time>2021-06-21T09:58:18Z</time>
      </trkpt>
      <trkpt lat="39.4899220" lon="2.8037960">
        <ele>125.2</ele>
        <time>2021-06-21T09:58:20Z</time>
      </trkpt>
      <trkpt lat="39.4900790" lon="2.8035410">
        <ele>125.0</ele>
        <time>2021-06-21T09:58:25Z</time>
      </trkpt>
      <trkpt lat="39.4901340" lon="2.8034320">
        <ele>124.9</ele>
        <time>2021-06-21T09:58:27Z</time>
      </trkpt>
      <trkpt lat="39.4903330" lon="2.8030630">
        <ele>124.4</ele>
        <time>2021-06-21T09:58:33Z</time>
      </trkpt>
      <trkpt lat="39.4905490" lon="2.8026300">
        <ele>123.9</ele>
        <time>2021-06-21T09:58:39Z</time>
      </trkpt>
      <trkpt lat="39.4908180" lon="2.8019970">
        <ele>123.0</ele>
        <time>2021-06-21T09:58:47Z</time>
      </trkpt>
      <trkpt lat="39.4908520" lon="2.8019160">
        <ele>122.9</ele>
        <time>2021-06-21T09:58:48Z</time>
      </trkpt>
      <trkpt lat="39.4910720" lon="2.8013560">
        <ele>122.1</ele>
        <time>2021-06-21T09:58:55Z</time>
      </trkpt>
      <trkpt lat="39.4911800" lon="2.8010680">
        <ele>121.6</ele>
        <time>2021-06-21T09:58:59Z</time>
      </trkpt>
      <trkpt lat="39.4912840" lon="2.8007820">
        <ele>121.2</ele>
        <time>2021-06-21T09:59:03Z</time>
      </trkpt>
      <trkpt lat="39.4914420" lon="2.8003150">
        <ele>120.5</ele>
        <time>2021-06-21T09:59:09Z</time>
      </trkpt>
      <trkpt lat="39.4915290" lon="2.8000650">
        <ele>120.1</ele>
        <time>2021-06-21T09:59:12Z</time>
      </trkpt>
      <trkpt lat="39.4916900" lon="2.7994280">
        <ele>119.0</ele>
        <time>2021-06-21T09:59:19Z</time>
      </trkpt>
      <trkpt lat="39.4918510" lon="2.7987410">
        <ele>117.5</ele>
        <time>2021-06-21T09:59:26Z</time>
      </trkpt>
      <trkpt lat="39.4918760" lon="2.7986400">
        <ele>117.3</ele>
        <time>2021-06-21T09:59:27Z</time>
      </trkpt>
      <trkpt lat="39.4920450" lon="2.7979110">
        <ele>115.6</ele>
        <time>2021-06-21T09:59:34Z</time>
      </trkpt>
      <trkpt lat="39.4921360" lon="2.7975040">
        <ele>114.6</ele>
        <time>2021-06-21T09:59:38Z</time>
      </trkpt>
      <trkpt lat="39.4923130" lon="2.7967710">
        <ele>112.4</ele>
        <time>2021-06-21T09:59:45Z</time>
      </trkpt>
      <trkpt lat="39.4923880" lon="2.7964640">
        <ele>111.4</ele>
        <time>2021-06-21T09:59:48Z</time>
      </trkpt>
      <trkpt lat="39.4924680" lon="2.7961050">
        <ele>110.0</ele>
        <time>2021-06-21T09:59:51Z</time>
      </trkpt>
      <trkpt lat="39.4925750" lon="2.7956390">
        <ele>108.0</ele>
        <time>2021-06-21T09:59:55Z</time>
      </trkpt>
      <trkpt lat="39.4927470" lon="2.7948760">
        <ele>105.1</ele>
        <time>2021-06-21T10:00:01Z</time>
      </trkpt>
      <trkpt lat="39.4928610" lon="2.7943750">
        <ele>103.5</ele>
        <time>2021-06-21T10:00:05Z</time>
      </trkpt>
      <trkpt lat="39.4929850" lon="2.7938320">
        <ele>102.1</ele>
        <time>2021-06-21T10:00:09Z</time>
      </trkpt>
      <trkpt lat="39.4931640" lon="2.7930400">
        <ele>99.7</ele>
        <time>2021-06-21T10:00:15Z</time>
      </trkpt>
      <trkpt lat="39.4932170" lon="2.7927980">
        <ele>98.7</ele>
        <time>2021-06-21T10:00:17Z</time>
      </trkpt>
      <trkpt lat="39.4933840" lon="2.7920930">
        <ele>96.5</ele>
        <time>2021-06-21T10:00:22Z</time>
      </trkpt>
      <trkpt lat="39.4934990" lon="2.7915720">
        <ele>95.1</ele>
        <time>2021-06-21T10:00:26Z</time>
      </trkpt>
      <trkpt lat="39.4935760" lon="2.7912160">
        <ele>93.7</ele>
        <time>2021-06-21T10:00:29Z</time>
      </trkpt>
      <trkpt lat="39.4936540" lon="2.7908770">
        <ele>92.1</ele>
        <time>2021-06-21T10:00:32Z</time>
      </trkpt>
      <trkpt lat="39.4937610" lon="2.7903820">
        <ele>89.3</ele>
        <time>2021-06-21T10:00:36Z</time>
      </trkpt>
      <trkpt lat="39.4937850" lon="2.7902570">
        <ele>88.6</ele>
        <time>2021-06-21T10:00:37Z</time>
      </trkpt>
      <trkpt lat="39.4938650" lon="2.7896410">
        <ele>86.1</ele>
        <time>2021-06-21T10:00:42Z</time>
      </trkpt>
      <trkpt lat="39.4938830" lon="2.7895280">
        <ele>85.8</ele>
        <time>2021-06-21T10:00:43Z</time>
      </trkpt>
      <trkpt lat="39.4939080" lon="2.7894200">
        <ele>85.5</ele>
        <time>2021-06-21T10:00:44Z</time>
      </trkpt>
      <trkpt lat="39.4939600" lon="2.7892260">
        <ele>85.1</ele>
        <time>2021-06-21T10:00:46Z</time>
      </trkpt>
      <trkpt lat="39.4941260" lon="2.7887850">
        <ele>83.7</ele>
        <time>2021-06-21T10:00:50Z</time>
      </trkpt>
      <trkpt lat="39.4941900" lon="2.7885600">
        <ele>82.8</ele>
        <time>2021-06-21T10:00:52Z</time>
      </trkpt>
      <trkpt lat="39.4942570" lon="2.7883360">
        <ele>82.0</ele>
        <time>2021-06-21T10:00:54Z</time>
      </trkpt>
      <trkpt lat="39.4943420" lon="2.7880060">
        <ele>81.1</ele>
        <time>2021-06-21T10:00:57Z</time>
      </trkpt>
      <trkpt lat="39.4945050" lon="2.7873180">
        <ele>79.3</ele>
        <time>2021-06-21T10:01:03Z</time>
      </trkpt>
      <trkpt lat="39.4946200" lon="2.7868550">
        <ele>78.6</ele>
        <time>2021-06-21T10:01:07Z</time>
      </trkpt>
      <trkpt lat="39.4947780" lon="2.7861490">
        <ele>77.8</ele>
        <time>2021-06-21T10:01:13Z</time>
      </trkpt>
      <trkpt lat="39.4949150" lon="2.7855730">
        <ele>77.1</ele>
        <time>2021-06-21T10:01:18Z</time>
      </trkpt>
      <trkpt lat="39.4950220" lon="2.7851000">
        <ele>76.2</ele>
        <time>2021-06-21T10:01:22Z</time>
      </trkpt>
      <trkpt lat="39.4951100" lon="2.7847370">
        <ele>75.8</ele>
        <time>2021-06-21T10:01:25Z</time>
      </trkpt>
      <trkpt lat="39.4951630" lon="2.7844960">
        <ele>75.6</ele>
        <time>2021-06-21T10:01:27Z</time>
      </trkpt>
      <trkpt lat="39.4953280" lon="2.7837720">
        <ele>75.3</ele>
        <time>2021-06-21T10:01:33Z</time>
      </trkpt>
      <trkpt lat="39.4954620" lon="2.7831820">
        <ele>74.4</ele>
        <time>2021-06-21T10:01:38Z</time>
      </trkpt>
      <trkpt lat="39.4955420" lon="2.7828220">
        <ele>73.1</ele>
        <time>2021-06-21T10:01:41Z</time>
      </trkpt>
      <trkpt lat="39.4956650" lon="2.7823080">
        <ele>71.1</ele>
        <time>2021-06-21T10:01:45Z</time>
      </trkpt>
      <trkpt lat="39.4958130" lon="2.7817940">
        <ele>69.7</ele>
        <time>2021-06-21T10:01:49Z</time>
      </trkpt>
      <trkpt lat="39.4958960" lon="2.7815500">
        <ele>69.3</ele>
        <time>2021-06-21T10:01:51Z</time>
      </trkpt>
      <trkpt lat="39.4961200" lon="2.7807840">
        <ele>68.3</ele>
        <time>2021-06-21T10:01:57Z</time>
      </trkpt>
      <trkpt lat="39.4961820" lon="2.7805270">
        <ele>67.9</ele>
        <time>2021-06-21T10:01:59Z</time>
      </trkpt>
      <trkpt lat="39.4962950" lon="2.7800160">
        <ele>67.1</ele>
        <time>2021-06-21T10:02:03Z</time>
      </trkpt>
      <trkpt lat="39.4964570" lon="2.7792810">
        <ele>65.4</ele>
        <time>2021-06-21T10:02:09Z</time>
      </trkpt>
      <trkpt lat="39.4965380" lon="2.7787970">
        <ele>64.7</ele>
        <time>2021-06-21T10:02:13Z</time>
      </trkpt>
      <trkpt lat="39.4965610" lon="2.7785820">
        <ele>64.5</ele>
        <time>2021-06-21T10:02:15Z</time>
      </trkpt>
      <trkpt lat="39.4965600" lon="2.7784840">
        <ele>64.5</ele>
        <time>2021-06-21T10:02:16Z</time>
      </trkpt>
      <trkpt lat="39.4965500" lon="2.7783300">
        <ele>64.5</ele>
        <time>2021-06-21T10:02:18Z</time>
      </trkpt>
      <trkpt lat="39.4965360" lon="2.7781480">
        <ele>64.6</ele>
        <time>2021-06-21T10:02:21Z</time>
      </trkpt>
      <trkpt lat="39.4965210" lon="2.7780460">
        <ele>64.8</ele>
        <time>2021-06-21T10:02:23Z</time>
      </trkpt>
      <trkpt lat="39.4965230" lon="2.7779520">
        <ele>64.9</ele>
        <time>2021-06-21T10:02:25Z</time>
      </trkpt>
      <trkpt lat="39.4965690" lon="2.7778610">
        <ele>65.1</ele>
        <time>2021-06-21T10:02:27Z</time>
      </trkpt>
      <trkpt lat="39.4966370" lon="2.7778530">
        <ele>65.3</ele>
        <time>2021-06-21T10:02:29Z</time>
      </trkpt>
      <trkpt lat="39.4966730" lon="2.7778770">
        <ele>65.4</ele>
        <time>2021-06-21T10:02:30Z</time>
      </trkpt>
      <trkpt lat="39.4968630" lon="2.7779430">
        <ele>66.0</ele>
        <time>2021-06-21T10:02:35Z</time>
      </trkpt>
      <trkpt lat="39.4969470" lon="2.7779140">
        <ele>66.4</ele>
        <time>2021-06-21T10:02:37Z</time>
      </trkpt>
      <trkpt lat="39.4970110" lon="2.7778490">
        <ele>67.6</ele>
        <time>2021-06-21T10:02:39Z</time>
      </trkpt>
      <trkpt lat="39.4970380" lon="2.7777450">
        <ele>68.0</ele>
        <time>2021-06-21T10:02:41Z</time>
      </trkpt>
      <trkpt lat="39.4970390" lon="2.7776840">
        <ele>67.9</ele>
        <time>2021-06-21T10:02:42Z</time>
      </trkpt>
      <trkpt lat="39.4969990" lon="2.7773410">
        <ele>66.9</ele>
        <time>2021-06-21T10:02:47Z</time>
      </trkpt>
      <trkpt lat="39.4970080" lon="2.7771880">
        <ele>66.4</ele>
        <time>2021-06-21T10:02:49Z</time>
      </trkpt>
      <trkpt lat="39.4970420" lon="2.7770320">
        <ele>65.9</ele>
        <time>2021-06-21T10:02:51Z</time>
      </trkpt>
      <trkpt lat="39.4971070" lon="2.7766940">
        <ele>65.1</ele>
        <time>2021-06-21T10:02:55Z</time>
      </trkpt>
      <trkpt lat="39.4971070" lon="2.7766110">
        <ele>65.0</ele>
        <time>2021-06-21T10:02:56Z</time>
      </trkpt>
      <trkpt lat="39.4970940" lon="2.7764640">
        <ele>64.8</ele>
        <time>2021-06-21T10:02:58Z</time>
      </trkpt>
      <trkpt lat="39.4970950" lon="2.7763960">
        <ele>64.8</ele>
        <time>2021-06-21T10:02:59Z</time>
      </trkpt>
      <trkpt lat="39.4971120" lon="2.7762540">
        <ele>64.7</ele>
        <time>2021-06-21T10:03:01Z</time>
      </trkpt>
      <trkpt lat="39.4972060" lon="2.7758240">
        <ele>64.3</ele>
        <time>2021-06-21T10:03:07Z</time>
      </trkpt>
      <trkpt lat="39.4973230" lon="2.7753330">
        <ele>63.7</ele>
        <time>2021-06-21T10:03:13Z</time>
      </trkpt>
      <trkpt lat="39.4974870" lon="2.7746060">
        <ele>63.3</ele>
        <time>2021-06-21T10:03:21Z</time>
      </trkpt>
      <trkpt lat="39.4975740" lon="2.7742290">
        <ele>63.1</ele>
        <time>2021-06-21T10:03:25Z</time>
      </trkpt>
      <trkpt lat="39.4976400" lon="2.7739430">
        <ele>63.1</ele>
        <time>2021-06-21T10:03:28Z</time>
      </trkpt>
      <trkpt lat="39.4977040" lon="2.7736510">
        <ele>63.1</ele>
        <time>2021-06-21T10:03:31Z</time>
      </trkpt>
      <trkpt lat="39.4977680" lon="2.7733550">
        <ele>63.2</ele>
        <time>2021-06-21T10:03:34Z</time>
      </trkpt>
      <trkpt lat="39.4978730" lon="2.7728690">
        <ele>63.4</ele>
        <time>2021-06-21T10:03:39Z</time>
      </trkpt>
      <trkpt lat="39.4980220" lon="2.7721010">
        <ele>63.8</ele>
        <time>2021-06-21T10:03:47Z</time>
      </trkpt>
      <trkpt lat="39.4980380" lon="2.7720090">
        <ele>63.7</ele>
        <time>2021-06-21T10:03:48Z</time>
      </trkpt>
      <trkpt lat="39.4981700" lon="2.7714430">
        <ele>61.7</ele>
        <time>2021-06-21T10:03:54Z</time>
      </trkpt>
      <trkpt lat="39.4982800" lon="2.7709980">
        <ele>59.8</ele>
        <time>2021-06-21T10:03:58Z</time>
      </trkpt>
      <trkpt lat="39.4983360" lon="2.7707650">
        <ele>59.2</ele>
        <time>2021-06-21T10:04:00Z</time>
      </trkpt>
      <trkpt lat="39.4984810" lon="2.7701990">
        <ele>57.7</ele>
        <time>2021-06-21T10:04:05Z</time>
      </trkpt>
      <trkpt lat="39.4985520" lon="2.7699770">
        <ele>57.3</ele>
        <time>2021-06-21T10:04:07Z</time>
      </trkpt>
      <trkpt lat="39.4986420" lon="2.7696430">
        <ele>57.1</ele>
        <time>2021-06-21T10:04:10Z</time>
      </trkpt>
      <trkpt lat="39.4986910" lon="2.7694300">
        <ele>57.1</ele>
        <time>2021-06-21T10:04:12Z</time>
      </trkpt>
      <trkpt lat="39.4987090" lon="2.7693260">
        <ele>57.0</ele>
        <time>2021-06-21T10:04:13Z</time>
      </trkpt>
      <trkpt lat="39.4987260" lon="2.7691250">
        <ele>56.5</ele>
        <time>2021-06-21T10:04:15Z</time>
      </trkpt>
      <trkpt lat="39.4987330" lon="2.7690250">
        <ele>56.1</ele>
        <time>2021-06-21T10:04:16Z</time>
      </trkpt>
      <trkpt lat="39.4987500" lon="2.7689290">
        <ele>55.5</ele>
        <time>2021-06-21T10:04:17Z</time>
      </trkpt>
      <trkpt lat="39.4988310" lon="2.7686290">
        <ele>53.3</ele>
        <time>2021-06-21T10:04:20Z</time>
      </trkpt>
      <trkpt lat="39.4990090" lon="2.7680340">
        <ele>50.8</ele>
        <time>2021-06-21T10:04:25Z</time>
      </trkpt>
      <trkpt lat="39.4990550" lon="2.7677860">
        <ele>50.0</ele>
        <time>2021-06-21T10:04:27Z</time>
      </trkpt>
      <trkpt lat="39.4991970" lon="2.7671770">
        <ele>48.3</ele>
        <time>2021-06-21T10:04:32Z</time>
      </trkpt>
      <trkpt lat="39.4992520" lon="2.7669400">
        <ele>47.7</ele>
        <time>2021-06-21T10:04:34Z</time>
      </trkpt>
      <trkpt lat="39.4992830" lon="2.7668210">
        <ele>47.4</ele>
        <time>2021-06-21T10:04:35Z</time>
      </trkpt>
      <trkpt lat="39.4993130" lon="2.7667020">
        <ele>47.0</ele>
        <time>2021-06-21T10:04:36Z</time>
      </trkpt>
      <trkpt lat="39.4994270" lon="2.7662370">
        <ele>45.2</ele>
        <time>2021-06-21T10:04:40Z</time>
      </trkpt>
      <trkpt lat="39.4994830" lon="2.7660130">
        <ele>44.1</ele>
        <time>2021-06-21T10:04:42Z</time>
      </trkpt>
      <trkpt lat="39.4995160" lon="2.7658970">
        <ele>43.6</ele>
        <time>2021-06-21T10:04:43Z</time>
      </trkpt>
      <trkpt lat="39.4995480" lon="2.7657760">
        <ele>43.0</ele>
        <time>2021-06-21T10:04:44Z</time>
      </trkpt>
      <trkpt lat="39.4995810" lon="2.7656530">
        <ele>42.6</ele>
        <time>2021-06-21T10:04:45Z</time>
      </trkpt>
      <trkpt lat="39.4996140" lon="2.7655280">
        <ele>42.2</ele>
        <time>2021-06-21T10:04:46Z</time>
      </trkpt>
      <trkpt lat="39.4998080" lon="2.7648150">
        <ele>40.7</ele>
        <time>2021-06-21T10:04:52Z</time>
      </trkpt>
      <trkpt lat="39.4998670" lon="2.7644690">
        <ele>40.5</ele>
        <time>2021-06-21T10:04:55Z</time>
      </trkpt>
      <trkpt lat="39.4999420" lon="2.7641570">
        <ele>40.3</ele>
        <time>2021-06-21T10:04:58Z</time>
      </trkpt>
      <trkpt lat="39.5000910" lon="2.7635590">
        <ele>39.9</ele>
        <time>2021-06-21T10:05:04Z</time>
      </trkpt>
      <trkpt lat="39.5002310" lon="2.7630000">
        <ele>39.6</ele>
        <time>2021-06-21T10:05:10Z</time>
      </trkpt>
      <trkpt lat="39.5003710" lon="2.7624990">
        <ele>38.1</ele>
        <time>2021-06-21T10:05:16Z</time>
      </trkpt>
      <trkpt lat="39.5004890" lon="2.7620350">
        <ele>36.0</ele>
        <time>2021-06-21T10:05:21Z</time>
      </trkpt>
      <trkpt lat="39.5005540" lon="2.7618380">
        <ele>35.5</ele>
        <time>2021-06-21T10:05:23Z</time>
      </trkpt>
      <trkpt lat="39.5005840" lon="2.7617410">
        <ele>35.3</ele>
        <time>2021-06-21T10:05:24Z</time>
      </trkpt>
      <trkpt lat="39.5006070" lon="2.7615310">
        <ele>34.9</ele>
        <time>2021-06-21T10:05:26Z</time>
      </trkpt>
      <trkpt lat="39.5005930" lon="2.7613300">
        <ele>34.5</ele>
        <time>2021-06-21T10:05:28Z</time>
      </trkpt>
      <trkpt lat="39.5005300" lon="2.7611560">
        <ele>34.3</ele>
        <time>2021-06-21T10:05:30Z</time>
      </trkpt>
      <trkpt lat="39.5003850" lon="2.7609690">
        <ele>34.1</ele>
        <time>2021-06-21T10:05:33Z</time>
      </trkpt>
      <trkpt lat="39.5002900" lon="2.7608830">
        <ele>34.1</ele>
        <time>2021-06-21T10:05:35Z</time>
      </trkpt>
      <trkpt lat="39.5001590" lon="2.7607990">
        <ele>34.2</ele>
        <time>2021-06-21T10:05:38Z</time>
      </trkpt>
      <trkpt lat="39.5000860" lon="2.7607560">
        <ele>34.3</ele>
        <time>2021-06-21T10:05:40Z</time>
      </trkpt>
      <trkpt lat="39.4999820" lon="2.7606900">
        <ele>34.3</ele>
        <time>2021-06-21T10:05:43Z</time>
      </trkpt>
      <trkpt lat="39.4999100" lon="2.7606470">
        <ele>34.4</ele>
        <time>2021-06-21T10:05:45Z</time>
      </trkpt>
      <trkpt lat="39.4998510" lon="2.7606190">
        <ele>34.4</ele>
        <time>2021-06-21T10:05:48Z</time>
      </trkpt>
      <trkpt lat="39.4998510" lon="2.7606190">
        <ele>34.4</ele>
        <time>2021-06-21T10:05:51Z</time>
      </trkpt>
      <trkpt lat="39.4998510" lon="2.7606190">
        <ele>34.4</ele>
        <time>2021-06-21T10:05:53Z</time>
      </trkpt>
      <trkpt lat="39.4998510" lon="2.7606190">
        <ele>34.4</ele>
        <time>2021-06-21T10:05:56Z</time>
      </trkpt>
      <trkpt lat="39.4998510" lon="2.7606190">
        <ele>34.4</ele>
        <time>2021-06-21T10:06:01Z</time>
      </trkpt>
      <trkpt lat="39.4998510" lon="2.7606190">
        <ele>34.4</ele>
        <time>2021-06-21T10:06:07Z</time>
      </trkpt>
      <trkpt lat="39.4998510" lon="2.7606190">
        <ele>34.4</ele>
        <time>2021-06-21T10:06:18Z</time>
      </trkpt>
      <trkpt lat="39.4998510" lon="2.7606190">
        <ele>34.4</ele>
        <time>2021-06-21T10:06:31Z</time>
      </trkpt>
      <trkpt lat="39.4998290" lon="2.7606070">
        <ele>34.4</ele>
        <time>2021-06-21T10:06:33Z</time>
      </trkpt>
      <trkpt lat="39.4997760" lon="2.7605840">
        <ele>34.4</ele>
        <time>2021-06-21T10:06:35Z</time>
      </trkpt>
      <trkpt lat="39.4996110" lon="2.7605230">
        <ele>34.4</ele>
        <time>2021-06-21T10:06:39Z</time>
      </trkpt>
      <trkpt lat="39.4995600" lon="2.7604980">
        <ele>34.4</ele>
        <time>2021-06-21T10:06:40Z</time>
      </trkpt>
      <trkpt lat="39.4992510" lon="2.7603470">
        <ele>34.5</ele>
        <time>2021-06-21T10:06:46Z</time>
      </trkpt>
      <trkpt lat="39.4990900" lon="2.7602720">
        <ele>34.5</ele>
        <time>2021-06-21T10:06:49Z</time>
      </trkpt>
      <trkpt lat="39.4988750" lon="2.7601690">
        <ele>34.5</ele>
        <time>2021-06-21T10:06:53Z</time>
      </trkpt>
      <trkpt lat="39.4987680" lon="2.7601170">
        <ele>34.5</ele>
        <time>2021-06-21T10:06:55Z</time>
      </trkpt>
      <trkpt lat="39.4985790" lon="2.7600270">
        <ele>34.6</ele>
        <time>2021-06-21T10:06:59Z</time>
      </trkpt>
      <trkpt lat="39.4985330" lon="2.7600070">
        <ele>34.6</ele>
        <time>2021-06-21T10:07:00Z</time>
      </trkpt>
      <trkpt lat="39.4984100" lon="2.7599480">
        <ele>34.7</ele>
        <time>2021-06-21T10:07:03Z</time>
      </trkpt>
      <trkpt lat="39.4982630" lon="2.7598750">
        <ele>34.7</ele>
        <time>2021-06-21T10:07:07Z</time>
      </trkpt>
      <trkpt lat="39.4981150" lon="2.7598030">
        <ele>34.8</ele>
        <time>2021-06-21T10:07:12Z</time>
      </trkpt>
      <trkpt lat="39.4981100" lon="2.7597970">
        <ele>34.8</ele>
        <time>2021-06-21T10:07:13Z</time>
      </trkpt>
      <trkpt lat="39.4981100" lon="2.7597970">
        <ele>34.8</ele>
        <time>2021-06-21T10:07:17Z</time>
      </trkpt>
      <trkpt lat="39.4981370" lon="2.7597730">
        <ele>34.7</ele>
        <time>2021-06-21T10:07:20Z</time>
      </trkpt>
      <trkpt lat="39.4981590" lon="2.7597720">
        <ele>34.7</ele>
        <time>2021-06-21T10:07:21Z</time>
      </trkpt>
      <trkpt lat="39.4982410" lon="2.7598180">
        <ele>34.6</ele>
        <time>2021-06-21T10:07:24Z</time>
      </trkpt>
      <trkpt lat="39.4983460" lon="2.7598960">
        <ele>34.6</ele>
        <time>2021-06-21T10:07:27Z</time>
      </trkpt>
      <trkpt lat="39.4984430" lon="2.7599490">
        <ele>34.5</ele>
        <time>2021-06-21T10:07:29Z</time>
      </trkpt>
      <trkpt lat="39.4988500" lon="2.7601500">
        <ele>34.4</ele>
        <time>2021-06-21T10:07:36Z</time>
      </trkpt>
      <trkpt lat="39.4993750" lon="2.7603940">
        <ele>34.3</ele>
        <time>2021-06-21T10:07:44Z</time>
      </trkpt>
      <trkpt lat="39.4994430" lon="2.7604210">
        <ele>34.2</ele>
        <time>2021-06-21T10:07:45Z</time>
      </trkpt>
      <trkpt lat="39.4999280" lon="2.7606260">
        <ele>34.3</ele>
        <time>2021-06-21T10:07:52Z</time>
      </trkpt>
      <trkpt lat="39.4999990" lon="2.7606580">
        <ele>34.3</ele>
        <time>2021-06-21T10:07:53Z</time>
      </trkpt>
      <trkpt lat="39.5004350" lon="2.7609000">
        <ele>33.9</ele>
        <time>2021-06-21T10:07:59Z</time>
      </trkpt>
      <trkpt lat="39.5004850" lon="2.7609440">
        <ele>33.8</ele>
        <time>2021-06-21T10:08:00Z</time>
      </trkpt>
      <trkpt lat="39.5007200" lon="2.7611560">
        <ele>34.0</ele>
        <time>2021-06-21T10:08:04Z</time>
      </trkpt>
      <trkpt lat="39.5007850" lon="2.7611910">
        <ele>34.1</ele>
        <time>2021-06-21T10:08:05Z</time>
      </trkpt>
      <trkpt lat="39.5008540" lon="2.7612100">
        <ele>34.1</ele>
        <time>2021-06-21T10:08:06Z</time>
      </trkpt>
      <trkpt lat="39.5009860" lon="2.7611930">
        <ele>34.2</ele>
        <time>2021-06-21T10:08:08Z</time>
      </trkpt>
      <trkpt lat="39.5010850" lon="2.7610950">
        <ele>34.1</ele>
        <time>2021-06-21T10:08:10Z</time>
      </trkpt>
      <trkpt lat="39.5011110" lon="2.7610100">
        <ele>33.9</ele>
        <time>2021-06-21T10:08:11Z</time>
      </trkpt>
      <trkpt lat="39.5011150" lon="2.7608940">
        <ele>33.8</ele>
        <time>2021-06-21T10:08:12Z</time>
      </trkpt>
      <trkpt lat="39.5010840" lon="2.7607180">
        <ele>33.7</ele>
        <time>2021-06-21T10:08:14Z</time>
      </trkpt>
      <trkpt lat="39.5010540" lon="2.7605230">
        <ele>33.5</ele>
        <time>2021-06-21T10:08:16Z</time>
      </trkpt>
      <trkpt lat="39.5010670" lon="2.7603210">
        <ele>33.3</ele>
        <time>2021-06-21T10:08:18Z</time>
      </trkpt>
      <trkpt lat="39.5012040" lon="2.7596290">
        <ele>33.0</ele>
        <time>2021-06-21T10:08:25Z</time>
      </trkpt>
      <trkpt lat="39.5012280" lon="2.7595340">
        <ele>33.0</ele>
        <time>2021-06-21T10:08:26Z</time>
      </trkpt>
      <trkpt lat="39.5013870" lon="2.7588430">
        <ele>33.1</ele>
        <time>2021-06-21T10:08:33Z</time>
      </trkpt>
      <trkpt lat="39.5014060" lon="2.7587520">
        <ele>33.1</ele>
        <time>2021-06-21T10:08:34Z</time>
      </trkpt>
      <trkpt lat="39.5014960" lon="2.7584180">
        <ele>33.0</ele>
        <time>2021-06-21T10:08:38Z</time>
      </trkpt>
      <trkpt lat="39.5015170" lon="2.7583470">
        <ele>32.9</ele>
        <time>2021-06-21T10:08:39Z</time>
      </trkpt>
      <trkpt lat="39.5015320" lon="2.7582240">
        <ele>32.8</ele>
        <time>2021-06-21T10:08:42Z</time>
      </trkpt>
      <trkpt lat="39.5015580" lon="2.7581360">
        <ele>32.8</ele>
        <time>2021-06-21T10:08:47Z</time>
      </trkpt>
      <trkpt lat="39.5016200" lon="2.7578890">
        <ele>32.5</ele>
        <time>2021-06-21T10:08:53Z</time>
      </trkpt>
      <trkpt lat="39.5016620" lon="2.7576860">
        <ele>32.2</ele>
        <time>2021-06-21T10:08:56Z</time>
      </trkpt>
      <trkpt lat="39.5017080" lon="2.7575440">
        <ele>32.0</ele>
        <time>2021-06-21T10:08:58Z</time>
      </trkpt>
      <trkpt lat="39.5018230" lon="2.7570080">
        <ele>29.7</ele>
        <time>2021-06-21T10:09:04Z</time>
      </trkpt>
      <trkpt lat="39.5019250" lon="2.7565660">
        <ele>27.9</ele>
        <time>2021-06-21T10:09:09Z</time>
      </trkpt>
      <trkpt lat="39.5019450" lon="2.7564710">
        <ele>27.6</ele>
        <time>2021-06-21T10:09:10Z</time>
      </trkpt>
      <trkpt lat="39.5019850" lon="2.7562830">
        <ele>27.0</ele>
        <time>2021-06-21T10:09:12Z</time>
      </trkpt>
      <trkpt lat="39.5020680" lon="2.7558940">
        <ele>25.7</ele>
        <time>2021-06-21T10:09:16Z</time>
      </trkpt>
      <trkpt lat="39.5021470" lon="2.7555140">
        <ele>24.7</ele>
        <time>2021-06-21T10:09:20Z</time>
      </trkpt>
      <trkpt lat="39.5022440" lon="2.7550260">
        <ele>23.3</ele>
        <time>2021-06-21T10:09:25Z</time>
      </trkpt>
      <trkpt lat="39.5022900" lon="2.7548340">
        <ele>22.4</ele>
        <time>2021-06-21T10:09:27Z</time>
      </trkpt>
      <trkpt lat="39.5023700" lon="2.7544740">
        <ele>20.4</ele>
        <time>2021-06-21T10:09:31Z</time>
      </trkpt>
      <trkpt lat="39.5024040" lon="2.7543260">
        <ele>19.3</ele>
        <time>2021-06-21T10:09:33Z</time>
      </trkpt>
      <trkpt lat="39.5024770" lon="2.7540080">
        <ele>16.7</ele>
        <time>2021-06-21T10:09:37Z</time>
      </trkpt>
      <trkpt lat="39.5025500" lon="2.7536910">
        <ele>14.0</ele>
        <time>2021-06-21T10:09:41Z</time>
      </trkpt>
      <trkpt lat="39.5026120" lon="2.7533580">
        <ele>11.7</ele>
        <time>2021-06-21T10:09:45Z</time>
      </trkpt>
      <trkpt lat="39.5026230" lon="2.7532480">
        <ele>11.1</ele>
        <time>2021-06-21T10:09:46Z</time>
      </trkpt>
      <trkpt lat="39.5026600" lon="2.7530880">
        <ele>10.2</ele>
        <time>2021-06-21T10:09:48Z</time>
      </trkpt>
      <trkpt lat="39.5027120" lon="2.7528550">
        <ele>9.2</ele>
        <time>2021-06-21T10:09:51Z</time>
      </trkpt>
      <trkpt lat="39.5027260" lon="2.7527090">
        <ele>8.4</ele>
        <time>2021-06-21T10:09:53Z</time>
      </trkpt>
      <trkpt lat="39.5027630" lon="2.7525800">
        <ele>7.6</ele>
        <time>2021-06-21T10:09:55Z</time>
      </trkpt>
      <trkpt lat="39.5027810" lon="2.7525180">
        <ele>7.3</ele>
        <time>2021-06-21T10:09:56Z</time>
      </trkpt>
      <trkpt lat="39.5028220" lon="2.7523610">
        <ele>6.6</ele>
        <time>2021-06-21T10:09:58Z</time>
      </trkpt>
      <trkpt lat="39.5028390" lon="2.7521840">
        <ele>5.9</ele>
        <time>2021-06-21T10:10:00Z</time>
      </trkpt>
      <trkpt lat="39.5028590" lon="2.7520140">
        <ele>5.4</ele>
        <time>2021-06-21T10:10:02Z</time>
      </trkpt>
      <trkpt lat="39.5028940" lon="2.7518530">
        <ele>5.0</ele>
        <time>2021-06-21T10:10:04Z</time>
      </trkpt>
      <trkpt lat="39.5029300" lon="2.7517400">
        <ele>4.8</ele>
        <time>2021-06-21T10:10:06Z</time>
      </trkpt>
      <trkpt lat="39.5028880" lon="2.7517060">
        <ele>4.6</ele>
        <time>2021-06-21T10:10:07Z</time>
      </trkpt>
      <trkpt lat="39.5028940" lon="2.7516440">
        <ele>4.4</ele>
        <time>2021-06-21T10:10:11Z</time>
      </trkpt>
      <trkpt lat="39.5029070" lon="2.7516140">
        <ele>4.2</ele>
        <time>2021-06-21T10:10:15Z</time>
      </trkpt>
      <trkpt lat="39.5029070" lon="2.7515910">
        <ele>4.1</ele>
        <time>2021-06-21T10:10:17Z</time>
      </trkpt>
      <trkpt lat="39.5029110" lon="2.7515670">
        <ele>4.3</ele>
        <time>2021-06-21T10:10:19Z</time>
      </trkpt>
      <trkpt lat="39.5029500" lon="2.7514610">
        <ele>4.1</ele>
        <time>2021-06-21T10:10:22Z</time>
      </trkpt>
      <trkpt lat="39.5029550" lon="2.7513860">
        <ele>3.9</ele>
        <time>2021-06-21T10:10:25Z</time>
      </trkpt>
      <trkpt lat="39.5029540" lon="2.7513820">
        <ele>4.0</ele>
        <time>2021-06-21T10:10:26Z</time>
      </trkpt>
      <trkpt lat="39.5029570" lon="2.7513750">
        <ele>4.1</ele>
        <time>2021-06-21T10:10:28Z</time>
      </trkpt>
      <trkpt lat="39.5029520" lon="2.7513640">
        <ele>4.2</ele>
        <time>2021-06-21T10:10:30Z</time>
      </trkpt>
      <trkpt lat="39.5029720" lon="2.7513210">
        <ele>4.2</ele>
        <time>2021-06-21T10:10:34Z</time>
      </trkpt>
      <trkpt lat="39.5029810" lon="2.7513080">
        <ele>4.3</ele>
        <time>2021-06-21T10:10:35Z</time>
      </trkpt>
      <trkpt lat="39.5030130" lon="2.7512740">
        <ele>4.3</ele>
        <time>2021-06-21T10:10:38Z</time>
      </trkpt>
      <trkpt lat="39.5030350" lon="2.7512540">
        <ele>4.3</ele>
        <time>2021-06-21T10:10:40Z</time>
      </trkpt>
      <trkpt lat="39.5030520" lon="2.7512320">
        <ele>4.4</ele>
        <time>2021-06-21T10:10:42Z</time>
      </trkpt>
      <trkpt lat="39.5030510" lon="2.7512170">
        <ele>4.4</ele>
        <time>2021-06-21T10:10:45Z</time>
      </trkpt>
      <trkpt lat="39.5030520" lon="2.7512220">
        <ele>4.4</ele>
        <time>2021-06-21T10:10:50Z</time>
      </trkpt>
      <trkpt lat="39.5030520" lon="2.7512220">
        <ele>4.4</ele>
        <time>2021-06-21T10:10:52Z</time>
      </trkpt>
      <trkpt lat="39.5030520" lon="2.7512220">
        <ele>4.4</ele>
        <time>2021-06-21T10:10:53Z</time>
      </trkpt>
      <trkpt lat="39.5030520" lon="2.7512220">
        <ele>4.4</ele>
        <time>2021-06-21T10:10:56Z</time>
      </trkpt>
      <trkpt lat="39.5030520" lon="2.7512220">
        <ele>4.4</ele>
        <time>2021-06-21T10:10:57Z</time>
      </trkpt>
      <trkpt lat="39.5246720" lon="2.7356460">
        <ele>4.4</ele>
        <time>2021-06-21T10:20:22Z</time>
      </trkpt>
      <trkpt lat="39.5247300" lon="2.7355850">
        <ele>4.4</ele>
        <time>2021-06-21T10:20:23Z</time>
      </trkpt>
      <trkpt lat="39.5251120" lon="2.7351350">
        <ele>4.4</ele>
        <time>2021-06-21T10:20:30Z</time>
      </trkpt>
      <trkpt lat="39.5254750" lon="2.7346830">
        <ele>4.3</ele>
        <time>2021-06-21T10:20:37Z</time>
      </trkpt>
      <trkpt lat="39.5256610" lon="2.7344780">
        <ele>4.3</ele>
        <time>2021-06-21T10:20:41Z</time>
      </trkpt>
      <trkpt lat="39.5257570" lon="2.7343670">
        <ele>4.3</ele>
        <time>2021-06-21T10:20:43Z</time>
      </trkpt>
      <trkpt lat="39.5258430" lon="2.7342460">
        <ele>4.3</ele>
        <time>2021-06-21T10:20:45Z</time>
      </trkpt>
      <trkpt lat="39.5260810" lon="2.7339620">
        <ele>4.3</ele>
        <time>2021-06-21T10:20:50Z</time>
      </trkpt>
      <trkpt lat="39.5264480" lon="2.7335370">
        <ele>4.3</ele>
        <time>2021-06-21T10:20:57Z</time>
      </trkpt>
      <trkpt lat="39.5266650" lon="2.7332640">
        <ele>4.3</ele>
        <time>2021-06-21T10:21:01Z</time>
      </trkpt>
      <trkpt lat="39.5268280" lon="2.7330530">
        <ele>4.3</ele>
        <time>2021-06-21T10:21:04Z</time>
      </trkpt>
      <trkpt lat="39.5271820" lon="2.7326460">
        <ele>4.4</ele>
        <time>2021-06-21T10:21:11Z</time>
      </trkpt>
      <trkpt lat="39.5273060" lon="2.7324720">
        <ele>4.4</ele>
        <time>2021-06-21T10:21:14Z</time>
      </trkpt>
      <trkpt lat="39.5274070" lon="2.7323630">
        <ele>4.4</ele>
        <time>2021-06-21T10:21:16Z</time>
      </trkpt>
      <trkpt lat="39.5275640" lon="2.7321870">
        <ele>4.4</ele>
        <time>2021-06-21T10:21:19Z</time>
      </trkpt>
      <trkpt lat="39.5277840" lon="2.7319440">
        <ele>4.4</ele>
        <time>2021-06-21T10:21:23Z</time>
      </trkpt>
      <trkpt lat="39.5281620" lon="2.7315310">
        <ele>4.5</ele>
        <time>2021-06-21T10:21:30Z</time>
      </trkpt>
      <trkpt lat="39.5282690" lon="2.7314030">
        <ele>4.5</ele>
        <time>2021-06-21T10:21:32Z</time>
      </trkpt>
      <trkpt lat="39.5286660" lon="2.7309100">
        <ele>4.6</ele>
        <time>2021-06-21T10:21:40Z</time>
      </trkpt>
      <trkpt lat="39.5287180" lon="2.7308490">
        <ele>4.6</ele>
        <time>2021-06-21T10:21:41Z</time>
      </trkpt>
      <trkpt lat="39.5290440" lon="2.7304950">
        <ele>4.8</ele>
        <time>2021-06-21T10:21:47Z</time>
      </trkpt>
      <trkpt lat="39.5291910" lon="2.7303140">
        <ele>4.9</ele>
        <time>2021-06-21T10:21:50Z</time>
      </trkpt>
      <trkpt lat="39.5295750" lon="2.7298160">
        <ele>5.1</ele>
        <time>2021-06-21T10:21:58Z</time>
      </trkpt>
      <trkpt lat="39.5296240" lon="2.7297530">
        <ele>5.1</ele>
        <time>2021-06-21T10:21:59Z</time>
      </trkpt>
      <trkpt lat="39.5300130" lon="2.7292370">
        <ele>5.4</ele>
        <time>2021-06-21T10:22:07Z</time>
      </trkpt>
      <trkpt lat="39.5301070" lon="2.7291040">
        <ele>5.4</ele>
        <time>2021-06-21T10:22:09Z</time>
      </trkpt>
      <trkpt lat="39.5302080" lon="2.7289700">
        <ele>5.4</ele>
        <time>2021-06-21T10:22:11Z</time>
      </trkpt>
      <trkpt lat="39.5303560" lon="2.7287620">
        <ele>5.3</ele>
        <time>2021-06-21T10:22:14Z</time>
      </trkpt>
      <trkpt lat="39.5305410" lon="2.7284670">
        <ele>5.3</ele>
        <time>2021-06-21T10:22:18Z</time>
      </trkpt>
      <trkpt lat="39.5308900" lon="2.7278580">
        <ele>5.1</ele>
        <time>2021-06-21T10:22:26Z</time>
      </trkpt>
      <trkpt lat="39.5310130" lon="2.7276280">
        <ele>5.1</ele>
        <time>2021-06-21T10:22:29Z</time>
      </trkpt>
      <trkpt lat="39.5313490" lon="2.7270100">
        <ele>5.0</ele>
        <time>2021-06-21T10:22:37Z</time>
      </trkpt>
      <trkpt lat="39.5314330" lon="2.7268560">
        <ele>5.0</ele>
        <time>2021-06-21T10:22:39Z</time>
      </trkpt>
      <trkpt lat="39.5315970" lon="2.7265560">
        <ele>4.9</ele>
        <time>2021-06-21T10:22:43Z</time>
      </trkpt>
      <trkpt lat="39.5317440" lon="2.7262820">
        <ele>4.9</ele>
        <time>2021-06-21T10:22:47Z</time>
      </trkpt>
      <trkpt lat="39.5320060" lon="2.7257870">
        <ele>4.8</ele>
        <time>2021-06-21T10:22:54Z</time>
      </trkpt>
      <trkpt lat="39.5320450" lon="2.7257180">
        <ele>4.8</ele>
        <time>2021-06-21T10:22:55Z</time>
      </trkpt>
      <trkpt lat="39.5322710" lon="2.7252870">
        <ele>4.8</ele>
        <time>2021-06-21T10:23:01Z</time>
      </trkpt>
      <trkpt lat="39.5325410" lon="2.7247890">
        <ele>4.8</ele>
        <time>2021-06-21T10:23:08Z</time>
      </trkpt>
      <trkpt lat="39.5328160" lon="2.7242990">
        <ele>4.9</ele>
        <time>2021-06-21T10:23:15Z</time>
      </trkpt>
      <trkpt lat="39.5330300" lon="2.7239210">
        <ele>4.9</ele>
        <time>2021-06-21T10:23:20Z</time>
      </trkpt>
      <trkpt lat="39.5331030" lon="2.7237860">
        <ele>4.9</ele>
        <time>2021-06-21T10:23:22Z</time>
      </trkpt>
      <trkpt lat="39.5334220" lon="2.7231970">
        <ele>4.9</ele>
        <time>2021-06-21T10:23:30Z</time>
      </trkpt>
      <trkpt lat="39.5337330" lon="2.7226240">
        <ele>4.9</ele>
        <time>2021-06-21T10:23:38Z</time>
      </trkpt>
      <trkpt lat="39.5338090" lon="2.7224890">
        <ele>4.9</ele>
        <time>2021-06-21T10:23:40Z</time>
      </trkpt>
      <trkpt lat="39.5339140" lon="2.7222920">
        <ele>4.9</ele>
        <time>2021-06-21T10:23:43Z</time>
      </trkpt>
      <trkpt lat="39.5340570" lon="2.7220200">
        <ele>5.0</ele>
        <time>2021-06-21T10:23:47Z</time>
      </trkpt>
      <trkpt lat="39.5341910" lon="2.7217570">
        <ele>5.1</ele>
        <time>2021-06-21T10:23:51Z</time>
      </trkpt>
      <trkpt lat="39.5342530" lon="2.7216320">
        <ele>5.1</ele>
        <time>2021-06-21T10:23:53Z</time>
      </trkpt>
      <trkpt lat="39.5344460" lon="2.7213440">
        <ele>5.2</ele>
        <time>2021-06-21T10:23:59Z</time>
      </trkpt>
      <trkpt lat="39.5345300" lon="2.7212180">
        <ele>5.3</ele>
        <time>2021-06-21T10:24:02Z</time>
      </trkpt>
      <trkpt lat="39.5345830" lon="2.7211410">
        <ele>5.3</ele>
        <time>2021-06-21T10:24:04Z</time>
      </trkpt>
      <trkpt lat="39.5346340" lon="2.7210780">
        <ele>5.3</ele>
        <time>2021-06-21T10:24:06Z</time>
      </trkpt>
      <trkpt lat="39.5347390" lon="2.7209480">
        <ele>5.4</ele>
        <time>2021-06-21T10:24:10Z</time>
      </trkpt>
      <trkpt lat="39.5347820" lon="2.7208900">
        <ele>5.4</ele>
        <time>2021-06-21T10:24:12Z</time>
      </trkpt>
      <trkpt lat="39.5348020" lon="2.7208530">
        <ele>5.4</ele>
        <time>2021-06-21T10:24:13Z</time>
      </trkpt>
      <trkpt lat="39.5348460" lon="2.7207880">
        <ele>5.4</ele>
        <time>2021-06-21T10:24:15Z</time>
      </trkpt>
      <trkpt lat="39.5348960" lon="2.7207230">
        <ele>5.4</ele>
        <time>2021-06-21T10:24:17Z</time>
      </trkpt>
      <trkpt lat="39.5350030" lon="2.7205550">
        <ele>5.4</ele>
        <time>2021-06-21T10:24:22Z</time>
      </trkpt>
      <trkpt lat="39.5351290" lon="2.7201900">
        <ele>5.3</ele>
        <time>2021-06-21T10:24:30Z</time>
      </trkpt>
      <trkpt lat="39.5351570" lon="2.7200940">
        <ele>5.3</ele>
        <time>2021-06-21T10:24:32Z</time>
      </trkpt>
      <trkpt lat="39.5352080" lon="2.7198520">
        <ele>5.4</ele>
        <time>2021-06-21T10:24:37Z</time>
      </trkpt>
      <trkpt lat="39.5352470" lon="2.7197110">
        <ele>5.5</ele>
        <time>2021-06-21T10:24:40Z</time>
      </trkpt>
      <trkpt lat="39.5353090" lon="2.7194610">
        <ele>5.5</ele>
        <time>2021-06-21T10:24:45Z</time>
      </trkpt>
      <trkpt lat="39.5353530" lon="2.7192790">
        <ele>5.5</ele>
        <time>2021-06-21T10:24:49Z</time>
      </trkpt>
      <trkpt lat="39.5353900" lon="2.7191610">
        <ele>5.6</ele>
        <time>2021-06-21T10:24:52Z</time>
      </trkpt>
      <trkpt lat="39.5353940" lon="2.7190770">
        <ele>5.7</ele>
        <time>2021-06-21T10:24:54Z</time>
      </trkpt>
      <trkpt lat="39.5353570" lon="2.7190080">
        <ele>5.7</ele>
        <time>2021-06-21T10:24:56Z</time>
      </trkpt>
      <trkpt lat="39.5353250" lon="2.7189880">
        <ele>5.7</ele>
        <time>2021-06-21T10:24:57Z</time>
      </trkpt>
      <trkpt lat="39.5352460" lon="2.7189780">
        <ele>5.6</ele>
        <time>2021-06-21T10:24:59Z</time>
      </trkpt>
      <trkpt lat="39.5352040" lon="2.7189630">
        <ele>5.6</ele>
        <time>2021-06-21T10:25:00Z</time>
      </trkpt>
      <trkpt lat="39.5351230" lon="2.7189010">
        <ele>5.5</ele>
        <time>2021-06-21T10:25:02Z</time>
      </trkpt>
      <trkpt lat="39.5350870" lon="2.7188590">
        <ele>5.5</ele>
        <time>2021-06-21T10:25:03Z</time>
      </trkpt>
      <trkpt lat="39.5349470" lon="2.7186860">
        <ele>5.5</ele>
        <time>2021-06-21T10:25:07Z</time>
      </trkpt>
      <trkpt lat="39.5348780" lon="2.7186020">
        <ele>5.5</ele>
        <time>2021-06-21T10:25:09Z</time>
      </trkpt>
      <trkpt lat="39.5348420" lon="2.7185580">
        <ele>5.6</ele>
        <time>2021-06-21T10:25:10Z</time>
      </trkpt>
      <trkpt lat="39.5348100" lon="2.7185160">
        <ele>5.6</ele>
        <time>2021-06-21T10:25:11Z</time>
      </trkpt>
      <trkpt lat="39.5347600" lon="2.7184110">
        <ele>5.6</ele>
        <time>2021-06-21T10:25:13Z</time>
      </trkpt>
      <trkpt lat="39.5347400" lon="2.7182880">
        <ele>5.7</ele>
        <time>2021-06-21T10:25:15Z</time>
      </trkpt>
      <trkpt lat="39.5347620" lon="2.7178920">
        <ele>5.8</ele>
        <time>2021-06-21T10:25:21Z</time>
      </trkpt>
      <trkpt lat="39.5347670" lon="2.7174010">
        <ele>6.1</ele>
        <time>2021-06-21T10:25:28Z</time>
      </trkpt>
      <trkpt lat="39.5347670" lon="2.7173480">
        <ele>6.1</ele>
        <time>2021-06-21T10:25:29Z</time>
      </trkpt>
      <trkpt lat="39.5347130" lon="2.7168000">
        <ele>6.4</ele>
        <time>2021-06-21T10:25:37Z</time>
      </trkpt>
      <trkpt lat="39.5346820" lon="2.7165310">
        <ele>6.5</ele>
        <time>2021-06-21T10:25:41Z</time>
      </trkpt>
      <trkpt lat="39.5346920" lon="2.7163990">
        <ele>6.5</ele>
        <time>2021-06-21T10:25:43Z</time>
      </trkpt>
      <trkpt lat="39.5347020" lon="2.7163330">
        <ele>6.5</ele>
        <time>2021-06-21T10:25:44Z</time>
      </trkpt>
      <trkpt lat="39.5347640" lon="2.7161330">
        <ele>6.5</ele>
        <time>2021-06-21T10:25:47Z</time>
      </trkpt>
      <trkpt lat="39.5347790" lon="2.7160820">
        <ele>6.5</ele>
        <time>2021-06-21T10:25:48Z</time>
      </trkpt>
      <trkpt lat="39.5348170" lon="2.7159490">
        <ele>6.4</ele>
        <time>2021-06-21T10:25:50Z</time>
      </trkpt>
      <trkpt lat="39.5348420" lon="2.7157480">
        <ele>6.3</ele>
        <time>2021-06-21T10:25:53Z</time>
      </trkpt>
      <trkpt lat="39.5348230" lon="2.7156150">
        <ele>6.2</ele>
        <time>2021-06-21T10:25:55Z</time>
      </trkpt>
      <trkpt lat="39.5347700" lon="2.7154220">
        <ele>6.0</ele>
        <time>2021-06-21T10:25:58Z</time>
      </trkpt>
      <trkpt lat="39.5347030" lon="2.7152340">
        <ele>5.8</ele>
        <time>2021-06-21T10:26:01Z</time>
      </trkpt>
      <trkpt lat="39.5346510" lon="2.7151150">
        <ele>5.6</ele>
        <time>2021-06-21T10:26:03Z</time>
      </trkpt>
      <trkpt lat="39.5345830" lon="2.7150180">
        <ele>5.5</ele>
        <time>2021-06-21T10:26:05Z</time>
      </trkpt>
      <trkpt lat="39.5344660" lon="2.7148820">
        <ele>5.2</ele>
        <time>2021-06-21T10:26:08Z</time>
      </trkpt>
      <trkpt lat="39.5343020" lon="2.7147130">
        <ele>4.9</ele>
        <time>2021-06-21T10:26:12Z</time>
      </trkpt>
      <trkpt lat="39.5342610" lon="2.7146790">
        <ele>4.8</ele>
        <time>2021-06-21T10:26:13Z</time>
      </trkpt>
      <trkpt lat="39.5341980" lon="2.7145910">
        <ele>4.7</ele>
        <time>2021-06-21T10:26:15Z</time>
      </trkpt>
      <trkpt lat="39.5341910" lon="2.7145330">
        <ele>4.7</ele>
        <time>2021-06-21T10:26:16Z</time>
      </trkpt>
      <trkpt lat="39.5342020" lon="2.7144730">
        <ele>4.6</ele>
        <time>2021-06-21T10:26:17Z</time>
      </trkpt>
      <trkpt lat="39.5342510" lon="2.7143620">
        <ele>4.6</ele>
        <time>2021-06-21T10:26:19Z</time>
      </trkpt>
      <trkpt lat="39.5343360" lon="2.7142040">
        <ele>4.7</ele>
        <time>2021-06-21T10:26:22Z</time>
      </trkpt>
      <trkpt lat="39.5344040" lon="2.7141070">
        <ele>4.7</ele>
        <time>2021-06-21T10:26:24Z</time>
      </trkpt>
      <trkpt lat="39.5344800" lon="2.7140200">
        <ele>4.7</ele>
        <time>2021-06-21T10:26:26Z</time>
      </trkpt>
      <trkpt lat="39.5346660" lon="2.7137640">
        <ele>4.8</ele>
        <time>2021-06-21T10:26:31Z</time>
      </trkpt>
      <trkpt lat="39.5347750" lon="2.7136070">
        <ele>4.9</ele>
        <time>2021-06-21T10:26:34Z</time>
      </trkpt>
      <trkpt lat="39.5349700" lon="2.7132500">
        <ele>5.1</ele>
        <time>2021-06-21T10:26:40Z</time>
      </trkpt>
      <trkpt lat="39.5350070" lon="2.7131100">
        <ele>5.3</ele>
        <time>2021-06-21T10:26:42Z</time>
      </trkpt>
      <trkpt lat="39.5350560" lon="2.7126070">
        <ele>5.7</ele>
        <time>2021-06-21T10:26:49Z</time>
      </trkpt>
      <trkpt lat="39.5350260" lon="2.7120820">
        <ele>6.4</ele>
        <time>2021-06-21T10:26:56Z</time>
      </trkpt>
      <trkpt lat="39.5350410" lon="2.7119400">
        <ele>6.5</ele>
        <time>2021-06-21T10:26:58Z</time>
      </trkpt>
      <trkpt lat="39.5350380" lon="2.7118760">
        <ele>6.5</ele>
        <time>2021-06-21T10:26:59Z</time>
      </trkpt>
      <trkpt lat="39.5350240" lon="2.7118170">
        <ele>6.5</ele>
        <time>2021-06-21T10:27:00Z</time>
      </trkpt>
      <trkpt lat="39.5349580" lon="2.7117170">
        <ele>6.4</ele>
        <time>2021-06-21T10:27:02Z</time>
      </trkpt>
      <trkpt lat="39.5345170" lon="2.7112430">
        <ele>6.5</ele>
        <time>2021-06-21T10:27:12Z</time>
      </trkpt>
      <trkpt lat="39.5344380" lon="2.7111450">
        <ele>6.6</ele>
        <time>2021-06-21T10:27:14Z</time>
      </trkpt>
      <trkpt lat="39.5344160" lon="2.7110160">
        <ele>6.6</ele>
        <time>2021-06-21T10:27:16Z</time>
      </trkpt>
      <trkpt lat="39.5344670" lon="2.7108900">
        <ele>6.5</ele>
        <time>2021-06-21T10:27:18Z</time>
      </trkpt>
      <trkpt lat="39.5345090" lon="2.7108390">
        <ele>6.5</ele>
        <time>2021-06-21T10:27:19Z</time>
      </trkpt>
      <trkpt lat="39.5349400" lon="2.7103470">
        <ele>6.0</ele>
        <time>2021-06-21T10:27:28Z</time>
      </trkpt>
      <trkpt lat="39.5351300" lon="2.7101480">
        <ele>5.7</ele>
        <time>2021-06-21T10:27:32Z</time>
      </trkpt>
      <trkpt lat="39.5351820" lon="2.7101340">
        <ele>5.6</ele>
        <time>2021-06-21T10:27:33Z</time>
      </trkpt>
      <trkpt lat="39.5352380" lon="2.7101430">
        <ele>5.5</ele>
        <time>2021-06-21T10:27:34Z</time>
      </trkpt>
      <trkpt lat="39.5354090" lon="2.7102340">
        <ele>5.3</ele>
        <time>2021-06-21T10:27:37Z</time>
      </trkpt>
      <trkpt lat="39.5357760" lon="2.7104760">
        <ele>5.1</ele>
        <time>2021-06-21T10:27:43Z</time>
      </trkpt>
      <trkpt lat="39.5360230" lon="2.7107480">
        <ele>5.0</ele>
        <time>2021-06-21T10:27:48Z</time>
      </trkpt>
      <trkpt lat="39.5361330" lon="2.7108240">
        <ele>5.0</ele>
        <time>2021-06-21T10:27:50Z</time>
      </trkpt>
      <trkpt lat="39.5361930" lon="2.7108350">
        <ele>4.9</ele>
        <time>2021-06-21T10:27:51Z</time>
      </trkpt>
      <trkpt lat="39.5362560" lon="2.7108270">
        <ele>4.9</ele>
        <time>2021-06-21T10:27:52Z</time>
      </trkpt>
      <trkpt lat="39.5363640" lon="2.7107560">
        <ele>4.8</ele>
        <time>2021-06-21T10:27:54Z</time>
      </trkpt>
      <trkpt lat="39.5364570" lon="2.7106470">
        <ele>4.8</ele>
        <time>2021-06-21T10:27:56Z</time>
      </trkpt>
      <trkpt lat="39.5365290" lon="2.7105160">
        <ele>4.8</ele>
        <time>2021-06-21T10:27:58Z</time>
      </trkpt>
      <trkpt lat="39.5365870" lon="2.7103760">
        <ele>4.7</ele>
        <time>2021-06-21T10:28:00Z</time>
      </trkpt>
      <trkpt lat="39.5366510" lon="2.7101800">
        <ele>4.7</ele>
        <time>2021-06-21T10:28:03Z</time>
      </trkpt>
      <trkpt lat="39.5366930" lon="2.7100450">
        <ele>4.8</ele>
        <time>2021-06-21T10:28:05Z</time>
      </trkpt>
      <trkpt lat="39.5367010" lon="2.7098980">
        <ele>4.8</ele>
        <time>2021-06-21T10:28:07Z</time>
      </trkpt>
      <trkpt lat="39.5366470" lon="2.7094640">
        <ele>5.1</ele>
        <time>2021-06-21T10:28:13Z</time>
      </trkpt>
      <trkpt lat="39.5366480" lon="2.7093170">
        <ele>5.3</ele>
        <time>2021-06-21T10:28:15Z</time>
      </trkpt>
      <trkpt lat="39.5366890" lon="2.7090960">
        <ele>5.7</ele>
        <time>2021-06-21T10:28:18Z</time>
      </trkpt>
      <trkpt lat="39.5367110" lon="2.7090240">
        <ele>5.7</ele>
        <time>2021-06-21T10:28:19Z</time>
      </trkpt>
      <trkpt lat="39.5368480" lon="2.7087640">
        <ele>5.9</ele>
        <time>2021-06-21T10:28:23Z</time>
      </trkpt>
      <trkpt lat="39.5370920" lon="2.7085110">
        <ele>6.1</ele>
        <time>2021-06-21T10:28:28Z</time>
      </trkpt>
      <trkpt lat="39.5374510" lon="2.7083460">
        <ele>6.1</ele>
        <time>2021-06-21T10:28:34Z</time>
      </trkpt>
      <trkpt lat="39.5376900" lon="2.7083210">
        <ele>6.1</ele>
        <time>2021-06-21T10:28:38Z</time>
      </trkpt>
      <trkpt lat="39.5377840" lon="2.7082610">
        <ele>6.0</ele>
        <time>2021-06-21T10:28:40Z</time>
      </trkpt>
      <trkpt lat="39.5378860" lon="2.7081850">
        <ele>5.7</ele>
        <time>2021-06-21T10:28:42Z</time>
      </trkpt>
      <trkpt lat="39.5381920" lon="2.7079900">
        <ele>5.7</ele>
        <time>2021-06-21T10:28:47Z</time>
      </trkpt>
      <trkpt lat="39.5382550" lon="2.7079490">
        <ele>5.7</ele>
        <time>2021-06-21T10:28:48Z</time>
      </trkpt>
      <trkpt lat="39.5383800" lon="2.7078830">
        <ele>6.1</ele>
        <time>2021-06-21T10:28:50Z</time>
      </trkpt>
      <trkpt lat="39.5385040" lon="2.7078590">
        <ele>6.4</ele>
        <time>2021-06-21T10:28:52Z</time>
      </trkpt>
      <trkpt lat="39.5385610" lon="2.7078460">
        <ele>6.6</ele>
        <time>2021-06-21T10:28:53Z</time>
      </trkpt>
      <trkpt lat="39.5386550" lon="2.7077730">
        <ele>7.0</ele>
        <time>2021-06-21T10:28:55Z</time>
      </trkpt>
      <trkpt lat="39.5388120" lon="2.7074820">
        <ele>7.9</ele>
        <time>2021-06-21T10:29:00Z</time>
      </trkpt>
      <trkpt lat="39.5388730" lon="2.7073060">
        <ele>8.4</ele>
        <time>2021-06-21T10:29:03Z</time>
      </trkpt>
      <trkpt lat="39.5389000" lon="2.7071890">
        <ele>8.6</ele>
        <time>2021-06-21T10:29:05Z</time>
      </trkpt>
      <trkpt lat="39.5389170" lon="2.7069330">
        <ele>8.8</ele>
        <time>2021-06-21T10:29:09Z</time>
      </trkpt>
      <trkpt lat="39.5389470" lon="2.7068160">
        <ele>8.9</ele>
        <time>2021-06-21T10:29:11Z</time>
      </trkpt>
      <trkpt lat="39.5390200" lon="2.7066430">
        <ele>8.8</ele>
        <time>2021-06-21T10:29:14Z</time>
      </trkpt>
      <trkpt lat="39.5391340" lon="2.7065180">
        <ele>8.7</ele>
        <time>2021-06-21T10:29:17Z</time>
      </trkpt>
      <trkpt lat="39.5392550" lon="2.7064120">
        <ele>8.5</ele>
        <time>2021-06-21T10:29:20Z</time>
      </trkpt>
      <trkpt lat="39.5393310" lon="2.7063630">
        <ele>8.4</ele>
        <time>2021-06-21T10:29:22Z</time>
      </trkpt>
      <trkpt lat="39.5394660" lon="2.7061780">
        <ele>7.6</ele>
        <time>2021-06-21T10:29:27Z</time>
      </trkpt>
      <trkpt lat="39.5395710" lon="2.7061180">
        <ele>7.0</ele>
        <time>2021-06-21T10:29:29Z</time>
      </trkpt>
      <trkpt lat="39.5396400" lon="2.7061050">
        <ele>6.6</ele>
        <time>2021-06-21T10:29:30Z</time>
      </trkpt>
      <trkpt lat="39.5399550" lon="2.7060510">
        <ele>5.4</ele>
        <time>2021-06-21T10:29:34Z</time>
      </trkpt>
      <trkpt lat="39.5400350" lon="2.7060200">
        <ele>5.3</ele>
        <time>2021-06-21T10:29:35Z</time>
      </trkpt>
      <trkpt lat="39.5402520" lon="2.7058900">
        <ele>5.2</ele>
        <time>2021-06-21T10:29:38Z</time>
      </trkpt>
      <trkpt lat="39.5403110" lon="2.7058300">
        <ele>5.2</ele>
        <time>2021-06-21T10:29:39Z</time>
      </trkpt>
      <trkpt lat="39.5403650" lon="2.7057670">
        <ele>5.2</ele>
        <time>2021-06-21T10:29:40Z</time>
      </trkpt>
      <trkpt lat="39.5405500" lon="2.7054950">
        <ele>5.2</ele>
        <time>2021-06-21T10:29:44Z</time>
      </trkpt>
      <trkpt lat="39.5408360" lon="2.7051400">
        <ele>5.2</ele>
        <time>2021-06-21T10:29:50Z</time>
      </trkpt>
      <trkpt lat="39.5410900" lon="2.7049270">
        <ele>5.3</ele>
        <time>2021-06-21T10:29:55Z</time>
      </trkpt>
      <trkpt lat="39.5411920" lon="2.7048300">
        <ele>5.4</ele>
        <time>2021-06-21T10:29:57Z</time>
      </trkpt>
      <trkpt lat="39.5412590" lon="2.7047050">
        <ele>5.4</ele>
        <time>2021-06-21T10:29:59Z</time>
      </trkpt>
      <trkpt lat="39.5414290" lon="2.7042130">
        <ele>5.8</ele>
        <time>2021-06-21T10:30:06Z</time>
      </trkpt>
      <trkpt lat="39.5414440" lon="2.7040780">
        <ele>5.8</ele>
        <time>2021-06-21T10:30:08Z</time>
      </trkpt>
      <trkpt lat="39.5414840" lon="2.7039560">
        <ele>5.9</ele>
        <time>2021-06-21T10:30:10Z</time>
      </trkpt>
      <trkpt lat="39.5415500" lon="2.7038540">
        <ele>5.9</ele>
        <time>2021-06-21T10:30:12Z</time>
      </trkpt>
      <trkpt lat="39.5416370" lon="2.7037780">
        <ele>6.0</ele>
        <time>2021-06-21T10:30:14Z</time>
      </trkpt>
      <trkpt lat="39.5417330" lon="2.7037220">
        <ele>6.0</ele>
        <time>2021-06-21T10:30:16Z</time>
      </trkpt>
      <trkpt lat="39.5418080" lon="2.7036300">
        <ele>5.9</ele>
        <time>2021-06-21T10:30:18Z</time>
      </trkpt>
      <trkpt lat="39.5418540" lon="2.7035100">
        <ele>5.9</ele>
        <time>2021-06-21T10:30:20Z</time>
      </trkpt>
      <trkpt lat="39.5418780" lon="2.7033640">
        <ele>5.8</ele>
        <time>2021-06-21T10:30:22Z</time>
      </trkpt>
      <trkpt lat="39.5419360" lon="2.7029920">
        <ele>5.6</ele>
        <time>2021-06-21T10:30:27Z</time>
      </trkpt>
      <trkpt lat="39.5419910" lon="2.7028540">
        <ele>5.5</ele>
        <time>2021-06-21T10:30:29Z</time>
      </trkpt>
      <trkpt lat="39.5421370" lon="2.7026060">
        <ele>5.5</ele>
        <time>2021-06-21T10:30:33Z</time>
      </trkpt>
      <trkpt lat="39.5422570" lon="2.7024340">
        <ele>5.5</ele>
        <time>2021-06-21T10:30:36Z</time>
      </trkpt>
      <trkpt lat="39.5424220" lon="2.7022050">
        <ele>5.5</ele>
        <time>2021-06-21T10:30:40Z</time>
      </trkpt>
      <trkpt lat="39.5424810" lon="2.7020710">
        <ele>5.5</ele>
        <time>2021-06-21T10:30:42Z</time>
      </trkpt>
      <trkpt lat="39.5425130" lon="2.7018540">
        <ele>5.5</ele>
        <time>2021-06-21T10:30:45Z</time>
      </trkpt>
      <trkpt lat="39.5425190" lon="2.7017830">
        <ele>5.5</ele>
        <time>2021-06-21T10:30:46Z</time>
      </trkpt>
      <trkpt lat="39.5425270" lon="2.7017110">
        <ele>5.5</ele>
        <time>2021-06-21T10:30:47Z</time>
      </trkpt>
      <trkpt lat="39.5425760" lon="2.7015780">
        <ele>5.5</ele>
        <time>2021-06-21T10:30:49Z</time>
      </trkpt>
      <trkpt lat="39.5427160" lon="2.7013350">
        <ele>5.6</ele>
        <time>2021-06-21T10:30:53Z</time>
      </trkpt>
      <trkpt lat="39.5428160" lon="2.7011430">
        <ele>5.8</ele>
        <time>2021-06-21T10:30:56Z</time>
      </trkpt>
      <trkpt lat="39.5429030" lon="2.7010410">
        <ele>5.8</ele>
        <time>2021-06-21T10:30:58Z</time>
      </trkpt>
      <trkpt lat="39.5430630" lon="2.7009440">
        <ele>5.8</ele>
        <time>2021-06-21T10:31:01Z</time>
      </trkpt>
      <trkpt lat="39.5431760" lon="2.7008890">
        <ele>5.8</ele>
        <time>2021-06-21T10:31:03Z</time>
      </trkpt>
      <trkpt lat="39.5432970" lon="2.7008950">
        <ele>5.8</ele>
        <time>2021-06-21T10:31:05Z</time>
      </trkpt>
      <trkpt lat="39.5434110" lon="2.7009130">
        <ele>5.9</ele>
        <time>2021-06-21T10:31:07Z</time>
      </trkpt>
      <trkpt lat="39.5435220" lon="2.7008780">
        <ele>6.0</ele>
        <time>2021-06-21T10:31:09Z</time>
      </trkpt>
      <trkpt lat="39.5436880" lon="2.7007790">
        <ele>6.0</ele>
        <time>2021-06-21T10:31:12Z</time>
      </trkpt>
      <trkpt lat="39.5437830" lon="2.7006830">
        <ele>6.1</ele>
        <time>2021-06-21T10:31:14Z</time>
      </trkpt>
      <trkpt lat="39.5438270" lon="2.7006300">
        <ele>6.1</ele>
        <time>2021-06-21T10:31:15Z</time>
      </trkpt>
      <trkpt lat="39.5438890" lon="2.7004970">
        <ele>6.0</ele>
        <time>2021-06-21T10:31:17Z</time>
      </trkpt>
      <trkpt lat="39.5439130" lon="2.7004230">
        <ele>6.0</ele>
        <time>2021-06-21T10:31:18Z</time>
      </trkpt>
      <trkpt lat="39.5440210" lon="2.6999680">
        <ele>6.0</ele>
        <time>2021-06-21T10:31:24Z</time>
      </trkpt>
      <trkpt lat="39.5440280" lon="2.6998280">
        <ele>6.0</ele>
        <time>2021-06-21T10:31:26Z</time>
      </trkpt>
      <trkpt lat="39.5440170" lon="2.6997100">
        <ele>6.0</ele>
        <time>2021-06-21T10:31:28Z</time>
      </trkpt>
      <trkpt lat="39.5439640" lon="2.6995230">
        <ele>6.1</ele>
        <time>2021-06-21T10:31:31Z</time>
      </trkpt>
      <trkpt lat="39.5438100" lon="2.6990760">
        <ele>6.5</ele>
        <time>2021-06-21T10:31:38Z</time>
      </trkpt>
      <trkpt lat="39.5437930" lon="2.6990140">
        <ele>6.6</ele>
        <time>2021-06-21T10:31:39Z</time>
      </trkpt>
      <trkpt lat="39.5438050" lon="2.6988930">
        <ele>6.6</ele>
        <time>2021-06-21T10:31:41Z</time>
      </trkpt>
      <trkpt lat="39.5439550" lon="2.6986850">
        <ele>6.4</ele>
        <time>2021-06-21T10:31:45Z</time>
      </trkpt>
      <trkpt lat="39.5440490" lon="2.6985160">
        <ele>6.2</ele>
        <time>2021-06-21T10:31:48Z</time>
      </trkpt>
      <trkpt lat="39.5440500" lon="2.6984420">
        <ele>6.1</ele>
        <time>2021-06-21T10:31:49Z</time>
      </trkpt>
      <trkpt lat="39.5439940" lon="2.6979220">
        <ele>5.7</ele>
        <time>2021-06-21T10:31:56Z</time>
      </trkpt>
      <trkpt lat="39.5439930" lon="2.6978520">
        <ele>5.6</ele>
        <time>2021-06-21T10:31:57Z</time>
      </trkpt>
      <trkpt lat="39.5440190" lon="2.6977180">
        <ele>5.6</ele>
        <time>2021-06-21T10:31:59Z</time>
      </trkpt>
      <trkpt lat="39.5440540" lon="2.6976640">
        <ele>5.5</ele>
        <time>2021-06-21T10:32:00Z</time>
      </trkpt>
      <trkpt lat="39.5441430" lon="2.6975770">
        <ele>5.5</ele>
        <time>2021-06-21T10:32:02Z</time>
      </trkpt>
      <trkpt lat="39.5442780" lon="2.6974470">
        <ele>5.5</ele>
        <time>2021-06-21T10:32:05Z</time>
      </trkpt>
      <trkpt lat="39.5443880" lon="2.6974040">
        <ele>5.5</ele>
        <time>2021-06-21T10:32:07Z</time>
      </trkpt>
      <trkpt lat="39.5444990" lon="2.6974550">
        <ele>5.6</ele>
        <time>2021-06-21T10:32:09Z</time>
      </trkpt>
      <trkpt lat="39.5445470" lon="2.6975050">
        <ele>5.6</ele>
        <time>2021-06-21T10:32:10Z</time>
      </trkpt>
      <trkpt lat="39.5448790" lon="2.6979290">
        <ele>5.9</ele>
        <time>2021-06-21T10:32:18Z</time>
      </trkpt>
      <trkpt lat="39.5450200" lon="2.6980520">
        <ele>5.7</ele>
        <time>2021-06-21T10:32:20Z</time>
      </trkpt>
      <trkpt lat="39.5451280" lon="2.6981030">
        <ele>5.4</ele>
        <time>2021-06-21T10:32:23Z</time>
      </trkpt>
      <trkpt lat="39.5454420" lon="2.6982640">
        <ele>4.6</ele>
        <time>2021-06-21T10:32:28Z</time>
      </trkpt>
      <trkpt lat="39.5455120" lon="2.6982870">
        <ele>4.5</ele>
        <time>2021-06-21T10:32:29Z</time>
      </trkpt>
      <trkpt lat="39.5456560" lon="2.6982690">
        <ele>4.4</ele>
        <time>2021-06-21T10:32:31Z</time>
      </trkpt>
      <trkpt lat="39.5457230" lon="2.6982490">
        <ele>4.3</ele>
        <time>2021-06-21T10:32:32Z</time>
      </trkpt>
      <trkpt lat="39.5461180" lon="2.6981290">
        <ele>4.3</ele>
        <time>2021-06-21T10:32:38Z</time>
      </trkpt>
      <trkpt lat="39.5461780" lon="2.6981050">
        <ele>4.2</ele>
        <time>2021-06-21T10:32:39Z</time>
      </trkpt>
      <trkpt lat="39.5466220" lon="2.6978930">
        <ele>4.2</ele>
        <time>2021-06-21T10:32:46Z</time>
      </trkpt>
      <trkpt lat="39.5466780" lon="2.6978540">
        <ele>4.2</ele>
        <time>2021-06-21T10:32:47Z</time>
      </trkpt>
      <trkpt lat="39.5470570" lon="2.6975070">
        <ele>4.0</ele>
        <time>2021-06-21T10:32:54Z</time>
      </trkpt>
      <trkpt lat="39.5473190" lon="2.6971810">
        <ele>3.8</ele>
        <time>2021-06-21T10:32:59Z</time>
      </trkpt>
      <trkpt lat="39.5476960" lon="2.6966510">
        <ele>3.9</ele>
        <time>2021-06-21T10:33:07Z</time>
      </trkpt>
      <trkpt lat="39.5477900" lon="2.6965270">
        <ele>4.0</ele>
        <time>2021-06-21T10:33:09Z</time>
      </trkpt>
      <trkpt lat="39.5479950" lon="2.6962110">
        <ele>4.3</ele>
        <time>2021-06-21T10:33:14Z</time>
      </trkpt>
      <trkpt lat="39.5480320" lon="2.6961480">
        <ele>4.4</ele>
        <time>2021-06-21T10:33:15Z</time>
      </trkpt>
      <trkpt lat="39.5480940" lon="2.6960220">
        <ele>4.4</ele>
        <time>2021-06-21T10:33:17Z</time>
      </trkpt>
      <trkpt lat="39.5481200" lon="2.6958860">
        <ele>4.5</ele>
        <time>2021-06-21T10:33:19Z</time>
      </trkpt>
      <trkpt lat="39.5482170" lon="2.6954520">
        <ele>4.7</ele>
        <time>2021-06-21T10:33:25Z</time>
      </trkpt>
      <trkpt lat="39.5482830" lon="2.6951220">
        <ele>4.9</ele>
        <time>2021-06-21T10:33:30Z</time>
      </trkpt>
      <trkpt lat="39.5482760" lon="2.6949930">
        <ele>4.9</ele>
        <time>2021-06-21T10:33:32Z</time>
      </trkpt>
      <trkpt lat="39.5482680" lon="2.6949250">
        <ele>4.9</ele>
        <time>2021-06-21T10:33:33Z</time>
      </trkpt>
      <trkpt lat="39.5482230" lon="2.6947320">
        <ele>5.0</ele>
        <time>2021-06-21T10:33:36Z</time>
      </trkpt>
      <trkpt lat="39.5481710" lon="2.6946040">
        <ele>5.1</ele>
        <time>2021-06-21T10:33:38Z</time>
      </trkpt>
      <trkpt lat="39.5481120" lon="2.6944730">
        <ele>5.1</ele>
        <time>2021-06-21T10:33:40Z</time>
      </trkpt>
      <trkpt lat="39.5479860" lon="2.6941030">
        <ele>5.4</ele>
        <time>2021-06-21T10:33:46Z</time>
      </trkpt>
      <trkpt lat="39.5478980" lon="2.6936430">
        <ele>5.7</ele>
        <time>2021-06-21T10:33:53Z</time>
      </trkpt>
      <trkpt lat="39.5478940" lon="2.6935740">
        <ele>5.7</ele>
        <time>2021-06-21T10:33:54Z</time>
      </trkpt>
      <trkpt lat="39.5478820" lon="2.6934160">
        <ele>5.9</ele>
        <time>2021-06-21T10:33:56Z</time>
      </trkpt>
      <trkpt lat="39.5478760" lon="2.6933510">
        <ele>6.0</ele>
        <time>2021-06-21T10:33:57Z</time>
      </trkpt>
      <trkpt lat="39.5478570" lon="2.6933060">
        <ele>6.1</ele>
        <time>2021-06-21T10:33:58Z</time>
      </trkpt>
      <trkpt lat="39.5477730" lon="2.6932250">
        <ele>6.2</ele>
        <time>2021-06-21T10:34:00Z</time>
      </trkpt>
      <trkpt lat="39.5476240" lon="2.6931000">
        <ele>6.4</ele>
        <time>2021-06-21T10:34:04Z</time>
      </trkpt>
      <trkpt lat="39.5475640" lon="2.6930020">
        <ele>6.4</ele>
        <time>2021-06-21T10:34:06Z</time>
      </trkpt>
      <trkpt lat="39.5475360" lon="2.6929070">
        <ele>6.5</ele>
        <time>2021-06-21T10:34:08Z</time>
      </trkpt>
      <trkpt lat="39.5475430" lon="2.6927950">
        <ele>6.5</ele>
        <time>2021-06-21T10:34:10Z</time>
      </trkpt>
      <trkpt lat="39.5476530" lon="2.6926660">
        <ele>6.7</ele>
        <time>2021-06-21T10:34:14Z</time>
      </trkpt>
      <trkpt lat="39.5477550" lon="2.6925430">
        <ele>6.9</ele>
        <time>2021-06-21T10:34:17Z</time>
      </trkpt>
      <trkpt lat="39.5478590" lon="2.6924350">
        <ele>7.0</ele>
        <time>2021-06-21T10:34:20Z</time>
      </trkpt>
      <trkpt lat="39.5478850" lon="2.6923900">
        <ele>7.0</ele>
        <time>2021-06-21T10:34:21Z</time>
      </trkpt>
      <trkpt lat="39.5479010" lon="2.6923380">
        <ele>7.0</ele>
        <time>2021-06-21T10:34:22Z</time>
      </trkpt>
      <trkpt lat="39.5479020" lon="2.6922310">
        <ele>7.1</ele>
        <time>2021-06-21T10:34:23Z</time>
      </trkpt>
      <trkpt lat="39.5478940" lon="2.6921940">
        <ele>7.1</ele>
        <time>2021-06-21T10:34:24Z</time>
      </trkpt>
      <trkpt lat="39.5478850" lon="2.6921570">
        <ele>7.1</ele>
        <time>2021-06-21T10:34:25Z</time>
      </trkpt>
      <trkpt lat="39.5478490" lon="2.6920340">
        <ele>7.1</ele>
        <time>2021-06-21T10:34:27Z</time>
      </trkpt>
      <trkpt lat="39.5478360" lon="2.6919870">
        <ele>7.1</ele>
        <time>2021-06-21T10:34:28Z</time>
      </trkpt>
      <trkpt lat="39.5478190" lon="2.6919310">
        <ele>7.1</ele>
        <time>2021-06-21T10:34:29Z</time>
      </trkpt>
      <trkpt lat="39.5477840" lon="2.6918040">
        <ele>7.0</ele>
        <time>2021-06-21T10:34:31Z</time>
      </trkpt>
      <trkpt lat="39.5477770" lon="2.6917600">
        <ele>6.9</ele>
        <time>2021-06-21T10:34:32Z</time>
      </trkpt>
      <trkpt lat="39.5478130" lon="2.6916870">
        <ele>6.8</ele>
        <time>2021-06-21T10:34:34Z</time>
      </trkpt>
      <trkpt lat="39.5480080" lon="2.6915010">
        <ele>6.2</ele>
        <time>2021-06-21T10:34:40Z</time>
      </trkpt>
      <trkpt lat="39.5480910" lon="2.6914340">
        <ele>6.0</ele>
        <time>2021-06-21T10:34:43Z</time>
      </trkpt>
      <trkpt lat="39.5481440" lon="2.6913940">
        <ele>5.8</ele>
        <time>2021-06-21T10:34:45Z</time>
      </trkpt>
      <trkpt lat="39.5482670" lon="2.6914830">
        <ele>5.5</ele>
        <time>2021-06-21T10:34:49Z</time>
      </trkpt>
      <trkpt lat="39.5483120" lon="2.6915110">
        <ele>5.4</ele>
        <time>2021-06-21T10:34:50Z</time>
      </trkpt>
      <trkpt lat="39.5484520" lon="2.6916060">
        <ele>5.6</ele>
        <time>2021-06-21T10:34:53Z</time>
      </trkpt>
      <trkpt lat="39.5485870" lon="2.6916780">
        <ele>5.9</ele>
        <time>2021-06-21T10:34:56Z</time>
      </trkpt>
      <trkpt lat="39.5486760" lon="2.6917220">
        <ele>6.1</ele>
        <time>2021-06-21T10:34:58Z</time>
      </trkpt>
      <trkpt lat="39.5488500" lon="2.6917990">
        <ele>6.2</ele>
        <time>2021-06-21T10:35:02Z</time>
      </trkpt>
      <trkpt lat="39.5490430" lon="2.6917540">
        <ele>6.0</ele>
        <time>2021-06-21T10:35:06Z</time>
      </trkpt>
      <trkpt lat="39.5490860" lon="2.6917280">
        <ele>5.9</ele>
        <time>2021-06-21T10:35:07Z</time>
      </trkpt>
      <trkpt lat="39.5491220" lon="2.6917010">
        <ele>5.9</ele>
        <time>2021-06-21T10:35:08Z</time>
      </trkpt>
      <trkpt lat="39.5491660" lon="2.6916280">
        <ele>5.8</ele>
        <time>2021-06-21T10:35:10Z</time>
      </trkpt>
      <trkpt lat="39.5492180" lon="2.6914950">
        <ele>5.6</ele>
        <time>2021-06-21T10:35:13Z</time>
      </trkpt>
      <trkpt lat="39.5492830" lon="2.6914480">
        <ele>5.5</ele>
        <time>2021-06-21T10:35:15Z</time>
      </trkpt>
      <trkpt lat="39.5495030" lon="2.6914890">
        <ele>5.2</ele>
        <time>2021-06-21T10:35:20Z</time>
      </trkpt>
      <trkpt lat="39.5497060" lon="2.6915350">
        <ele>5.0</ele>
        <time>2021-06-21T10:35:24Z</time>
      </trkpt>
      <trkpt lat="39.5497880" lon="2.6915180">
        <ele>5.0</ele>
        <time>2021-06-21T10:35:26Z</time>
      </trkpt>
      <trkpt lat="39.5498330" lon="2.6914900">
        <ele>5.0</ele>
        <time>2021-06-21T10:35:29Z</time>
      </trkpt>
      <trkpt lat="39.5498290" lon="2.6914890">
        <ele>5.0</ele>
        <time>2021-06-21T10:35:32Z</time>
      </trkpt>
      <trkpt lat="39.5498290" lon="2.6914870">
        <ele>5.0</ele>
        <time>2021-06-21T10:35:41Z</time>
      </trkpt>
      <trkpt lat="39.5498280" lon="2.6914850">
        <ele>5.0</ele>
        <time>2021-06-21T10:35:49Z</time>
      </trkpt>
      <trkpt lat="39.5498280" lon="2.6914890">
        <ele>5.0</ele>
        <time>2021-06-21T10:35:56Z</time>
      </trkpt>
      <trkpt lat="39.5498250" lon="2.6914960">
        <ele>5.0</ele>
        <time>2021-06-21T10:36:06Z</time>
      </trkpt>
      <trkpt lat="39.5498100" lon="2.6915130">
        <ele>5.0</ele>
        <time>2021-06-21T10:36:15Z</time>
      </trkpt>
      <trkpt lat="39.5498100" lon="2.6915140">
        <ele>5.0</ele>
        <time>2021-06-21T10:36:20Z</time>
      </trkpt>
      <trkpt lat="39.5498100" lon="2.6915140">
        <ele>5.0</ele>
        <time>2021-06-21T10:36:22Z</time>
      </trkpt>
      <trkpt lat="39.5498100" lon="2.6915140">
        <ele>5.0</ele>
        <time>2021-06-21T10:36:23Z</time>
      </trkpt>
      <trkpt lat="39.5498100" lon="2.6915140">
        <ele>5.0</ele>
        <time>2021-06-21T10:36:24Z</time>
      </trkpt>
      <trkpt lat="39.5498100" lon="2.6915140">
        <ele>5.0</ele>
        <time>2021-06-21T10:36:26Z</time>
      </trkpt>
      <trkpt lat="39.5498100" lon="2.6915140">
        <ele>5.0</ele>
        <time>2021-06-21T10:36:30Z</time>
      </trkpt>
      <trkpt lat="39.5498040" lon="2.6915090">
        <ele>5.0</ele>
        <time>2021-06-21T10:36:35Z</time>
      </trkpt>
      <trkpt lat="39.5498020" lon="2.6915090">
        <ele>5.0</ele>
        <time>2021-06-21T10:36:38Z</time>
      </trkpt>
      <trkpt lat="39.5498020" lon="2.6915090">
        <ele>5.0</ele>
        <time>2021-06-21T10:36:41Z</time>
      </trkpt>
      <trkpt lat="39.5497970" lon="2.6915090">
        <ele>5.0</ele>
        <time>2021-06-21T10:36:50Z</time>
      </trkpt>
      <trkpt lat="39.5497890" lon="2.6915070">
        <ele>5.0</ele>
        <time>2021-06-21T10:36:54Z</time>
      </trkpt>
      <trkpt lat="39.5497890" lon="2.6915070">
        <ele>5.0</ele>
        <time>2021-06-21T10:36:56Z</time>
      </trkpt>
      <trkpt lat="39.5497890" lon="2.6915070">
        <ele>5.0</ele>
        <time>2021-06-21T10:37:00Z</time>
      </trkpt>
      <trkpt lat="39.5497880" lon="2.6915060">
        <ele>5.0</ele>
        <time>2021-06-21T10:37:12Z</time>
      </trkpt>
      <trkpt lat="39.5497890" lon="2.6914970">
        <ele>5.0</ele>
        <time>2021-06-21T10:37:28Z</time>
      </trkpt>
      <trkpt lat="39.5497890" lon="2.6914970">
        <ele>5.0</ele>
        <time>2021-06-21T10:37:32Z</time>
      </trkpt>
      <trkpt lat="39.5498030" lon="2.6914970">
        <ele>5.0</ele>
        <time>2021-06-21T10:37:40Z</time>
      </trkpt>
      <trkpt lat="39.5498630" lon="2.6915070">
        <ele>5.0</ele>
        <time>2021-06-21T10:37:43Z</time>
      </trkpt>
      <trkpt lat="39.5500040" lon="2.6914780">
        <ele>5.1</ele>
        <time>2021-06-21T10:37:48Z</time>
      </trkpt>
      <trkpt lat="39.5501920" lon="2.6914060">
        <ele>5.2</ele>
        <time>2021-06-21T10:37:53Z</time>
      </trkpt>
      <trkpt lat="39.5502310" lon="2.6913810">
        <ele>5.2</ele>
        <time>2021-06-21T10:37:54Z</time>
      </trkpt>
      <trkpt lat="39.5504260" lon="2.6912500">
        <ele>5.1</ele>
        <time>2021-06-21T10:37:59Z</time>
      </trkpt>
      <trkpt lat="39.5505180" lon="2.6912040">
        <ele>5.0</ele>
        <time>2021-06-21T10:38:01Z</time>
      </trkpt>
      <trkpt lat="39.5507040" lon="2.6910800">
        <ele>4.9</ele>
        <time>2021-06-21T10:38:05Z</time>
      </trkpt>
      <trkpt lat="39.5507560" lon="2.6910730">
        <ele>4.9</ele>
        <time>2021-06-21T10:38:06Z</time>
      </trkpt>
      <trkpt lat="39.5508070" lon="2.6910940">
        <ele>4.8</ele>
        <time>2021-06-21T10:38:07Z</time>
      </trkpt>
      <trkpt lat="39.5508920" lon="2.6911690">
        <ele>4.8</ele>
        <time>2021-06-21T10:38:09Z</time>
      </trkpt>
      <trkpt lat="39.5509380" lon="2.6911950">
        <ele>4.8</ele>
        <time>2021-06-21T10:38:10Z</time>
      </trkpt>
      <trkpt lat="39.5510350" lon="2.6911810">
        <ele>4.8</ele>
        <time>2021-06-21T10:38:12Z</time>
      </trkpt>
      <trkpt lat="39.5512630" lon="2.6909720">
        <ele>4.4</ele>
        <time>2021-06-21T10:38:17Z</time>
      </trkpt>
      <trkpt lat="39.5514130" lon="2.6908230">
        <ele>4.3</ele>
        <time>2021-06-21T10:38:20Z</time>
      </trkpt>
      <trkpt lat="39.5516220" lon="2.6906290">
        <ele>4.2</ele>
        <time>2021-06-21T10:38:24Z</time>
      </trkpt>
      <trkpt lat="39.5517780" lon="2.6904870">
        <ele>4.2</ele>
        <time>2021-06-21T10:38:27Z</time>
      </trkpt>
      <trkpt lat="39.5518310" lon="2.6904410">
        <ele>4.1</ele>
        <time>2021-06-21T10:38:28Z</time>
      </trkpt>
      <trkpt lat="39.5519500" lon="2.6903830">
        <ele>4.2</ele>
        <time>2021-06-21T10:38:30Z</time>
      </trkpt>
      <trkpt lat="39.5522490" lon="2.6902990">
        <ele>4.4</ele>
        <time>2021-06-21T10:38:35Z</time>
      </trkpt>
      <trkpt lat="39.5523690" lon="2.6902130">
        <ele>4.5</ele>
        <time>2021-06-21T10:38:37Z</time>
      </trkpt>
      <trkpt lat="39.5526570" lon="2.6898320">
        <ele>4.5</ele>
        <time>2021-06-21T10:38:43Z</time>
      </trkpt>
      <trkpt lat="39.5529660" lon="2.6893550">
        <ele>4.5</ele>
        <time>2021-06-21T10:38:50Z</time>
      </trkpt>
      <trkpt lat="39.5531180" lon="2.6891240">
        <ele>4.5</ele>
        <time>2021-06-21T10:38:54Z</time>
      </trkpt>
      <trkpt lat="39.5531520" lon="2.6889780">
        <ele>4.4</ele>
        <time>2021-06-21T10:38:56Z</time>
      </trkpt>
      <trkpt lat="39.5531690" lon="2.6887030">
        <ele>4.3</ele>
        <time>2021-06-21T10:39:00Z</time>
      </trkpt>
      <trkpt lat="39.5532120" lon="2.6885490">
        <ele>4.2</ele>
        <time>2021-06-21T10:39:02Z</time>
      </trkpt>
      <trkpt lat="39.5532610" lon="2.6884280">
        <ele>4.1</ele>
        <time>2021-06-21T10:39:04Z</time>
      </trkpt>
      <trkpt lat="39.5533170" lon="2.6882850">
        <ele>4.1</ele>
        <time>2021-06-21T10:39:06Z</time>
      </trkpt>
      <trkpt lat="39.5533350" lon="2.6882160">
        <ele>4.1</ele>
        <time>2021-06-21T10:39:07Z</time>
      </trkpt>
      <trkpt lat="39.5533610" lon="2.6881500">
        <ele>4.1</ele>
        <time>2021-06-21T10:39:08Z</time>
      </trkpt>
      <trkpt lat="39.5534890" lon="2.6878810">
        <ele>4.1</ele>
        <time>2021-06-21T10:39:12Z</time>
      </trkpt>
      <trkpt lat="39.5536640" lon="2.6875560">
        <ele>4.2</ele>
        <time>2021-06-21T10:39:17Z</time>
      </trkpt>
      <trkpt lat="39.5538320" lon="2.6871990">
        <ele>4.8</ele>
        <time>2021-06-21T10:39:22Z</time>
      </trkpt>
      <trkpt lat="39.5539550" lon="2.6867490">
        <ele>4.8</ele>
        <time>2021-06-21T10:39:28Z</time>
      </trkpt>
      <trkpt lat="39.5540660" lon="2.6861900">
        <ele>4.6</ele>
        <time>2021-06-21T10:39:35Z</time>
      </trkpt>
      <trkpt lat="39.5541050" lon="2.6860070">
        <ele>4.5</ele>
        <time>2021-06-21T10:39:37Z</time>
      </trkpt>
      <trkpt lat="39.5541760" lon="2.6856800">
        <ele>4.3</ele>
        <time>2021-06-21T10:39:41Z</time>
      </trkpt>
      <trkpt lat="39.5542560" lon="2.6854090">
        <ele>4.3</ele>
        <time>2021-06-21T10:39:44Z</time>
      </trkpt>
      <trkpt lat="39.5544230" lon="2.6850000">
        <ele>4.2</ele>
        <time>2021-06-21T10:39:49Z</time>
      </trkpt>
      <trkpt lat="39.5545420" lon="2.6847610">
        <ele>4.2</ele>
        <time>2021-06-21T10:39:52Z</time>
      </trkpt>
      <trkpt lat="39.5547150" lon="2.6843470">
        <ele>4.2</ele>
        <time>2021-06-21T10:39:56Z</time>
      </trkpt>
      <trkpt lat="39.5548060" lon="2.6841030">
        <ele>4.1</ele>
        <time>2021-06-21T10:40:00Z</time>
      </trkpt>
      <trkpt lat="39.5550830" lon="2.6834410">
        <ele>4.0</ele>
        <time>2021-06-21T10:40:08Z</time>
      </trkpt>
      <trkpt lat="39.5551190" lon="2.6833590">
        <ele>4.0</ele>
        <time>2021-06-21T10:40:09Z</time>
      </trkpt>
      <trkpt lat="39.5552310" lon="2.6831140">
        <ele>3.9</ele>
        <time>2021-06-21T10:40:12Z</time>
      </trkpt>
      <trkpt lat="39.5553830" lon="2.6827750">
        <ele>3.8</ele>
        <time>2021-06-21T10:40:16Z</time>
      </trkpt>
      <trkpt lat="39.5556750" lon="2.6820830">
        <ele>3.8</ele>
        <time>2021-06-21T10:40:24Z</time>
      </trkpt>
      <trkpt lat="39.5559580" lon="2.6814020">
        <ele>3.8</ele>
        <time>2021-06-21T10:40:32Z</time>
      </trkpt>
      <trkpt lat="39.5562090" lon="2.6807950">
        <ele>3.8</ele>
        <time>2021-06-21T10:40:39Z</time>
      </trkpt>
      <trkpt lat="39.5562430" lon="2.6807060">
        <ele>3.8</ele>
        <time>2021-06-21T10:40:40Z</time>
      </trkpt>
      <trkpt lat="39.5565070" lon="2.6800110">
        <ele>3.8</ele>
        <time>2021-06-21T10:40:48Z</time>
      </trkpt>
      <trkpt lat="39.5565390" lon="2.6799240">
        <ele>3.8</ele>
        <time>2021-06-21T10:40:49Z</time>
      </trkpt>
      <trkpt lat="39.5568050" lon="2.6792040">
        <ele>3.8</ele>
        <time>2021-06-21T10:40:57Z</time>
      </trkpt>
      <trkpt lat="39.5569050" lon="2.6789420">
        <ele>3.8</ele>
        <time>2021-06-21T10:41:00Z</time>
      </trkpt>
      <trkpt lat="39.5571680" lon="2.6782440">
        <ele>3.8</ele>
        <time>2021-06-21T10:41:08Z</time>
      </trkpt>
      <trkpt lat="39.5573890" lon="2.6776310">
        <ele>3.8</ele>
        <time>2021-06-21T10:41:15Z</time>
      </trkpt>
      <trkpt lat="39.5575450" lon="2.6771460">
        <ele>3.8</ele>
        <time>2021-06-21T10:41:21Z</time>
      </trkpt>
      <trkpt lat="39.5575730" lon="2.6770820">
        <ele>3.8</ele>
        <time>2021-06-21T10:41:22Z</time>
      </trkpt>
      <trkpt lat="39.5576840" lon="2.6767100">
        <ele>3.8</ele>
        <time>2021-06-21T10:41:27Z</time>
      </trkpt>
      <trkpt lat="39.5577160" lon="2.6766220">
        <ele>3.8</ele>
        <time>2021-06-21T10:41:28Z</time>
      </trkpt>
      <trkpt lat="39.5578580" lon="2.6763720">
        <ele>3.8</ele>
        <time>2021-06-21T10:41:32Z</time>
      </trkpt>
      <trkpt lat="39.5579930" lon="2.6761830">
        <ele>3.8</ele>
        <time>2021-06-21T10:41:35Z</time>
      </trkpt>
      <trkpt lat="39.5580870" lon="2.6760490">
        <ele>3.8</ele>
        <time>2021-06-21T10:41:37Z</time>
      </trkpt>
      <trkpt lat="39.5581950" lon="2.6759340">
        <ele>3.8</ele>
        <time>2021-06-21T10:41:39Z</time>
      </trkpt>
      <trkpt lat="39.5584220" lon="2.6757190">
        <ele>3.7</ele>
        <time>2021-06-21T10:41:43Z</time>
      </trkpt>
      <trkpt lat="39.5585900" lon="2.6755560">
        <ele>3.7</ele>
        <time>2021-06-21T10:41:46Z</time>
      </trkpt>
      <trkpt lat="39.5587020" lon="2.6753310">
        <ele>3.8</ele>
        <time>2021-06-21T10:41:49Z</time>
      </trkpt>
      <trkpt lat="39.5587200" lon="2.6752440">
        <ele>3.8</ele>
        <time>2021-06-21T10:41:50Z</time>
      </trkpt>
      <trkpt lat="39.5587250" lon="2.6751550">
        <ele>3.8</ele>
        <time>2021-06-21T10:41:51Z</time>
      </trkpt>
      <trkpt lat="39.5587060" lon="2.6749750">
        <ele>3.7</ele>
        <time>2021-06-21T10:41:53Z</time>
      </trkpt>
      <trkpt lat="39.5586150" lon="2.6743830">
        <ele>3.9</ele>
        <time>2021-06-21T10:41:59Z</time>
      </trkpt>
      <trkpt lat="39.5586150" lon="2.6743830">
        <ele>3.9</ele>
        <time>2021-06-21T10:42:00Z</time>
      </trkpt>
      <trkpt lat="39.5586020" lon="2.6738290">
        <ele>4.3</ele>
        <time>2021-06-21T10:42:07Z</time>
      </trkpt>
      <trkpt lat="39.5586150" lon="2.6735890">
        <ele>4.4</ele>
        <time>2021-06-21T10:42:10Z</time>
      </trkpt>
      <trkpt lat="39.5586570" lon="2.6734320">
        <ele>4.3</ele>
        <time>2021-06-21T10:42:12Z</time>
      </trkpt>
      <trkpt lat="39.5588290" lon="2.6729720">
        <ele>4.1</ele>
        <time>2021-06-21T10:42:18Z</time>
      </trkpt>
      <trkpt lat="39.5589060" lon="2.6728340">
        <ele>4.1</ele>
        <time>2021-06-21T10:42:20Z</time>
      </trkpt>
      <trkpt lat="39.5590070" lon="2.6727340">
        <ele>4.2</ele>
        <time>2021-06-21T10:42:22Z</time>
      </trkpt>
      <trkpt lat="39.5591210" lon="2.6726690">
        <ele>4.2</ele>
        <time>2021-06-21T10:42:24Z</time>
      </trkpt>
      <trkpt lat="39.5592530" lon="2.6726440">
        <ele>4.3</ele>
        <time>2021-06-21T10:42:26Z</time>
      </trkpt>
      <trkpt lat="39.5593750" lon="2.6727060">
        <ele>4.4</ele>
        <time>2021-06-21T10:42:28Z</time>
      </trkpt>
      <trkpt lat="39.5594190" lon="2.6727600">
        <ele>4.4</ele>
        <time>2021-06-21T10:42:29Z</time>
      </trkpt>
      <trkpt lat="39.5594640" lon="2.6728160">
        <ele>4.4</ele>
        <time>2021-06-21T10:42:30Z</time>
      </trkpt>
      <trkpt lat="39.5595740" lon="2.6729100">
        <ele>4.5</ele>
        <time>2021-06-21T10:42:32Z</time>
      </trkpt>
      <trkpt lat="39.5596350" lon="2.6729490">
        <ele>4.5</ele>
        <time>2021-06-21T10:42:33Z</time>
      </trkpt>
      <trkpt lat="39.5596980" lon="2.6729790">
        <ele>4.5</ele>
        <time>2021-06-21T10:42:34Z</time>
      </trkpt>
      <trkpt lat="39.5598280" lon="2.6729840">
        <ele>4.5</ele>
        <time>2021-06-21T10:42:36Z</time>
      </trkpt>
      <trkpt lat="39.5599610" lon="2.6729510">
        <ele>4.5</ele>
        <time>2021-06-21T10:42:38Z</time>
      </trkpt>
      <trkpt lat="39.5600800" lon="2.6728720">
        <ele>4.5</ele>
        <time>2021-06-21T10:42:40Z</time>
      </trkpt>
      <trkpt lat="39.5602450" lon="2.6726030">
        <ele>4.5</ele>
        <time>2021-06-21T10:42:44Z</time>
      </trkpt>
      <trkpt lat="39.5604310" lon="2.6719600">
        <ele>4.5</ele>
        <time>2021-06-21T10:42:52Z</time>
      </trkpt>
      <trkpt lat="39.5604420" lon="2.6718850">
        <ele>4.5</ele>
        <time>2021-06-21T10:42:53Z</time>
      </trkpt>
      <trkpt lat="39.5604440" lon="2.6717190">
        <ele>4.4</ele>
        <time>2021-06-21T10:42:55Z</time>
      </trkpt>
      <trkpt lat="39.5604350" lon="2.6716350">
        <ele>4.4</ele>
        <time>2021-06-21T10:42:56Z</time>
      </trkpt>
      <trkpt lat="39.5604170" lon="2.6715550">
        <ele>4.3</ele>
        <time>2021-06-21T10:42:57Z</time>
      </trkpt>
      <trkpt lat="39.5603590" lon="2.6713150">
        <ele>4.1</ele>
        <time>2021-06-21T10:43:00Z</time>
      </trkpt>
      <trkpt lat="39.5603460" lon="2.6712300">
        <ele>4.0</ele>
        <time>2021-06-21T10:43:01Z</time>
      </trkpt>
      <trkpt lat="39.5603280" lon="2.6709090">
        <ele>4.0</ele>
        <time>2021-06-21T10:43:05Z</time>
      </trkpt>
      <trkpt lat="39.5603450" lon="2.6708370">
        <ele>3.9</ele>
        <time>2021-06-21T10:43:06Z</time>
      </trkpt>
      <trkpt lat="39.5603850" lon="2.6707710">
        <ele>3.9</ele>
        <time>2021-06-21T10:43:07Z</time>
      </trkpt>
      <trkpt lat="39.5604270" lon="2.6707470">
        <ele>3.9</ele>
        <time>2021-06-21T10:43:08Z</time>
      </trkpt>
      <trkpt lat="39.5604800" lon="2.6707270">
        <ele>3.9</ele>
        <time>2021-06-21T10:43:09Z</time>
      </trkpt>
      <trkpt lat="39.5605910" lon="2.6707070">
        <ele>3.9</ele>
        <time>2021-06-21T10:43:11Z</time>
      </trkpt>
      <trkpt lat="39.5606530" lon="2.6707110">
        <ele>3.9</ele>
        <time>2021-06-21T10:43:12Z</time>
      </trkpt>
      <trkpt lat="39.5610410" lon="2.6707420">
        <ele>4.0</ele>
        <time>2021-06-21T10:43:18Z</time>
      </trkpt>
      <trkpt lat="39.5613620" lon="2.6707860">
        <ele>4.1</ele>
        <time>2021-06-21T10:43:23Z</time>
      </trkpt>
      <trkpt lat="39.5614250" lon="2.6707870">
        <ele>4.2</ele>
        <time>2021-06-21T10:43:24Z</time>
      </trkpt>
      <trkpt lat="39.5614870" lon="2.6707810">
        <ele>4.2</ele>
        <time>2021-06-21T10:43:25Z</time>
      </trkpt>
      <trkpt lat="39.5616550" lon="2.6707280">
        <ele>4.3</ele>
        <time>2021-06-21T10:43:28Z</time>
      </trkpt>
      <trkpt lat="39.5617060" lon="2.6706960">
        <ele>4.3</ele>
        <time>2021-06-21T10:43:29Z</time>
      </trkpt>
      <trkpt lat="39.5618490" lon="2.6705700">
        <ele>4.5</ele>
        <time>2021-06-21T10:43:32Z</time>
      </trkpt>
      <trkpt lat="39.5620590" lon="2.6703580">
        <ele>4.8</ele>
        <time>2021-06-21T10:43:36Z</time>
      </trkpt>
      <trkpt lat="39.5622100" lon="2.6701970">
        <ele>4.9</ele>
        <time>2021-06-21T10:43:39Z</time>
      </trkpt>
      <trkpt lat="39.5623530" lon="2.6700450">
        <ele>5.1</ele>
        <time>2021-06-21T10:43:42Z</time>
      </trkpt>
      <trkpt lat="39.5624450" lon="2.6699480">
        <ele>5.1</ele>
        <time>2021-06-21T10:43:44Z</time>
      </trkpt>
      <trkpt lat="39.5626670" lon="2.6696340">
        <ele>5.2</ele>
        <time>2021-06-21T10:43:49Z</time>
      </trkpt>
      <trkpt lat="39.5627500" lon="2.6694990">
        <ele>5.3</ele>
        <time>2021-06-21T10:43:51Z</time>
      </trkpt>
      <trkpt lat="39.5627930" lon="2.6693490">
        <ele>5.3</ele>
        <time>2021-06-21T10:43:53Z</time>
      </trkpt>
      <trkpt lat="39.5628190" lon="2.6690960">
        <ele>5.5</ele>
        <time>2021-06-21T10:43:56Z</time>
      </trkpt>
      <trkpt lat="39.5628080" lon="2.6689300">
        <ele>5.6</ele>
        <time>2021-06-21T10:43:58Z</time>
      </trkpt>
      <trkpt lat="39.5626900" lon="2.6684530">
        <ele>5.7</ele>
        <time>2021-06-21T10:44:04Z</time>
      </trkpt>
      <trkpt lat="39.5624780" lon="2.6681360">
        <ele>5.5</ele>
        <time>2021-06-21T10:44:09Z</time>
      </trkpt>
      <trkpt lat="39.5621510" lon="2.6678910">
        <ele>5.3</ele>
        <time>2021-06-21T10:44:15Z</time>
      </trkpt>
      <trkpt lat="39.5619910" lon="2.6677810">
        <ele>5.3</ele>
        <time>2021-06-21T10:44:18Z</time>
      </trkpt>
      <trkpt lat="39.5619050" lon="2.6676550">
        <ele>5.2</ele>
        <time>2021-06-21T10:44:20Z</time>
      </trkpt>
      <trkpt lat="39.5618510" lon="2.6675100">
        <ele>5.2</ele>
        <time>2021-06-21T10:44:22Z</time>
      </trkpt>
      <trkpt lat="39.5618100" lon="2.6673750">
        <ele>5.1</ele>
        <time>2021-06-21T10:44:24Z</time>
      </trkpt>
      <trkpt lat="39.5617720" lon="2.6673220">
        <ele>5.0</ele>
        <time>2021-06-21T10:44:25Z</time>
      </trkpt>
      <trkpt lat="39.5617260" lon="2.6672800">
        <ele>5.0</ele>
        <time>2021-06-21T10:44:26Z</time>
      </trkpt>
      <trkpt lat="39.5615740" lon="2.6672040">
        <ele>4.9</ele>
        <time>2021-06-21T10:44:29Z</time>
      </trkpt>
      <trkpt lat="39.5613760" lon="2.6670940">
        <ele>4.9</ele>
        <time>2021-06-21T10:44:33Z</time>
      </trkpt>
      <trkpt lat="39.5612710" lon="2.6670610">
        <ele>4.9</ele>
        <time>2021-06-21T10:44:35Z</time>
      </trkpt>
      <trkpt lat="39.5612190" lon="2.6670360">
        <ele>4.9</ele>
        <time>2021-06-21T10:44:36Z</time>
      </trkpt>
      <trkpt lat="39.5611270" lon="2.6669630">
        <ele>4.9</ele>
        <time>2021-06-21T10:44:38Z</time>
      </trkpt>
      <trkpt lat="39.5610860" lon="2.6669220">
        <ele>4.9</ele>
        <time>2021-06-21T10:44:39Z</time>
      </trkpt>
      <trkpt lat="39.5610410" lon="2.6668830">
        <ele>4.9</ele>
        <time>2021-06-21T10:44:40Z</time>
      </trkpt>
      <trkpt lat="39.5609550" lon="2.6668160">
        <ele>4.8</ele>
        <time>2021-06-21T10:44:42Z</time>
      </trkpt>
      <trkpt lat="39.5609380" lon="2.6667630">
        <ele>4.8</ele>
        <time>2021-06-21T10:44:43Z</time>
      </trkpt>
      <trkpt lat="39.5609380" lon="2.6667020">
        <ele>4.9</ele>
        <time>2021-06-21T10:44:44Z</time>
      </trkpt>
      <trkpt lat="39.5609730" lon="2.6665710">
        <ele>4.9</ele>
        <time>2021-06-21T10:44:46Z</time>
      </trkpt>
      <trkpt lat="39.5610690" lon="2.6663400">
        <ele>4.9</ele>
        <time>2021-06-21T10:44:50Z</time>
      </trkpt>
      <trkpt lat="39.5611380" lon="2.6661520">
        <ele>5.0</ele>
        <time>2021-06-21T10:44:53Z</time>
      </trkpt>
      <trkpt lat="39.5612060" lon="2.6659570">
        <ele>5.0</ele>
        <time>2021-06-21T10:44:56Z</time>
      </trkpt>
      <trkpt lat="39.5612280" lon="2.6658980">
        <ele>5.0</ele>
        <time>2021-06-21T10:44:57Z</time>
      </trkpt>
      <trkpt lat="39.5612770" lon="2.6657750">
        <ele>5.0</ele>
        <time>2021-06-21T10:44:59Z</time>
      </trkpt>
      <trkpt lat="39.5615060" lon="2.6650760">
        <ele>5.5</ele>
        <time>2021-06-21T10:45:09Z</time>
      </trkpt>
      <trkpt lat="39.5615300" lon="2.6650050">
        <ele>5.6</ele>
        <time>2021-06-21T10:45:10Z</time>
      </trkpt>
      <trkpt lat="39.5617330" lon="2.6645080">
        <ele>5.9</ele>
        <time>2021-06-21T10:45:17Z</time>
      </trkpt>
      <trkpt lat="39.5619920" lon="2.6638260">
        <ele>6.5</ele>
        <time>2021-06-21T10:45:26Z</time>
      </trkpt>
      <trkpt lat="39.5620470" lon="2.6636750">
        <ele>6.8</ele>
        <time>2021-06-21T10:45:28Z</time>
      </trkpt>
      <trkpt lat="39.5623260" lon="2.6630460">
        <ele>7.5</ele>
        <time>2021-06-21T10:45:37Z</time>
      </trkpt>
      <trkpt lat="39.5626270" lon="2.6624160">
        <ele>7.7</ele>
        <time>2021-06-21T10:45:46Z</time>
      </trkpt>
      <trkpt lat="39.5628010" lon="2.6618910">
        <ele>7.9</ele>
        <time>2021-06-21T10:45:54Z</time>
      </trkpt>
      <trkpt lat="39.5628270" lon="2.6617900">
        <ele>7.9</ele>
        <time>2021-06-21T10:45:56Z</time>
      </trkpt>
      <trkpt lat="39.5628780" lon="2.6615950">
        <ele>7.9</ele>
        <time>2021-06-21T10:46:00Z</time>
      </trkpt>
      <trkpt lat="39.5628900" lon="2.6615440">
        <ele>7.9</ele>
        <time>2021-06-21T10:46:01Z</time>
      </trkpt>
      <trkpt lat="39.5629440" lon="2.6613620">
        <ele>7.8</ele>
        <time>2021-06-21T10:46:05Z</time>
      </trkpt>
      <trkpt lat="39.5629720" lon="2.6613380">
        <ele>7.8</ele>
        <time>2021-06-21T10:46:07Z</time>
      </trkpt>
      <trkpt lat="39.5629700" lon="2.6613190">
        <ele>7.8</ele>
        <time>2021-06-21T10:46:10Z</time>
      </trkpt>
      <trkpt lat="39.5629710" lon="2.6613110">
        <ele>7.8</ele>
        <time>2021-06-21T10:46:11Z</time>
      </trkpt>
      <trkpt lat="39.5629710" lon="2.6613110">
        <ele>7.8</ele>
        <time>2021-06-21T10:46:15Z</time>
      </trkpt>
      <trkpt lat="39.5629620" lon="2.6613280">
        <ele>7.8</ele>
        <time>2021-06-21T10:46:18Z</time>
      </trkpt>
      <trkpt lat="39.5629580" lon="2.6613320">
        <ele>7.7</ele>
        <time>2021-06-21T10:46:19Z</time>
      </trkpt>
      <trkpt lat="39.5629540" lon="2.6613380">
        <ele>7.7</ele>
        <time>2021-06-21T10:46:23Z</time>
      </trkpt>
      <trkpt lat="39.5629540" lon="2.6613380">
        <ele>7.7</ele>
        <time>2021-06-21T10:46:25Z</time>
      </trkpt>
      <trkpt lat="39.5629620" lon="2.6613260">
        <ele>7.7</ele>
        <time>2021-06-21T10:46:35Z</time>
      </trkpt>
      <trkpt lat="39.5629710" lon="2.6613140">
        <ele>7.7</ele>
        <time>2021-06-21T10:46:38Z</time>
      </trkpt>
      <trkpt lat="39.5629710" lon="2.6613140">
        <ele>7.7</ele>
        <time>2021-06-21T10:46:42Z</time>
      </trkpt>
      <trkpt lat="39.5629710" lon="2.6613140">
        <ele>7.7</ele>
        <time>2021-06-21T10:46:49Z</time>
      </trkpt>
      <trkpt lat="39.5629730" lon="2.6613070">
        <ele>7.7</ele>
        <time>2021-06-21T10:46:52Z</time>
      </trkpt>
      <trkpt lat="39.5629730" lon="2.6613070">
        <ele>7.7</ele>
        <time>2021-06-21T10:46:57Z</time>
      </trkpt>
      <trkpt lat="39.5629790" lon="2.6612810">
        <ele>7.7</ele>
        <time>2021-06-21T10:46:59Z</time>
      </trkpt>
      <trkpt lat="39.5629910" lon="2.6612270">
        <ele>7.7</ele>
        <time>2021-06-21T10:47:01Z</time>
      </trkpt>
      <trkpt lat="39.5630550" lon="2.6610280">
        <ele>7.6</ele>
        <time>2021-06-21T10:47:06Z</time>
      </trkpt>
      <trkpt lat="39.5631910" lon="2.6606620">
        <ele>7.4</ele>
        <time>2021-06-21T10:47:13Z</time>
      </trkpt>
      <trkpt lat="39.5633090" lon="2.6603150">
        <ele>7.3</ele>
        <time>2021-06-21T10:47:19Z</time>
      </trkpt>
      <trkpt lat="39.5633500" lon="2.6601920">
        <ele>7.2</ele>
        <time>2021-06-21T10:47:21Z</time>
      </trkpt>
      <trkpt lat="39.5635390" lon="2.6596550">
        <ele>7.1</ele>
        <time>2021-06-21T10:47:29Z</time>
      </trkpt>
      <trkpt lat="39.5635880" lon="2.6595100">
        <ele>7.0</ele>
        <time>2021-06-21T10:47:31Z</time>
      </trkpt>
      <trkpt lat="39.5638090" lon="2.6588670">
        <ele>7.0</ele>
        <time>2021-06-21T10:47:40Z</time>
      </trkpt>
      <trkpt lat="39.5638530" lon="2.6587280">
        <ele>7.1</ele>
        <time>2021-06-21T10:47:42Z</time>
      </trkpt>
      <trkpt lat="39.5638900" lon="2.6585800">
        <ele>7.1</ele>
        <time>2021-06-21T10:47:44Z</time>
      </trkpt>
      <trkpt lat="39.5639130" lon="2.6585090">
        <ele>7.2</ele>
        <time>2021-06-21T10:47:45Z</time>
      </trkpt>
      <trkpt lat="39.5641330" lon="2.6578410">
        <ele>7.3</ele>
        <time>2021-06-21T10:47:54Z</time>
      </trkpt>
      <trkpt lat="39.5641490" lon="2.6577650">
        <ele>7.3</ele>
        <time>2021-06-21T10:47:55Z</time>
      </trkpt>
      <trkpt lat="39.5641870" lon="2.6574660">
        <ele>7.2</ele>
        <time>2021-06-21T10:47:59Z</time>
      </trkpt>
      <trkpt lat="39.5641930" lon="2.6573230">
        <ele>7.2</ele>
        <time>2021-06-21T10:48:01Z</time>
      </trkpt>
      <trkpt lat="39.5641930" lon="2.6569950">
        <ele>7.2</ele>
        <time>2021-06-21T10:48:06Z</time>
      </trkpt>
      <trkpt lat="39.5641860" lon="2.6564490">
        <ele>7.3</ele>
        <time>2021-06-21T10:48:14Z</time>
      </trkpt>
      <trkpt lat="39.5641890" lon="2.6559500">
        <ele>7.4</ele>
        <time>2021-06-21T10:48:21Z</time>
      </trkpt>
      <trkpt lat="39.5641940" lon="2.6558850">
        <ele>7.4</ele>
        <time>2021-06-21T10:48:22Z</time>
      </trkpt>
      <trkpt lat="39.5642070" lon="2.6558230">
        <ele>7.4</ele>
        <time>2021-06-21T10:48:23Z</time>
      </trkpt>
      <trkpt lat="39.5642340" lon="2.6557120">
        <ele>7.5</ele>
        <time>2021-06-21T10:48:25Z</time>
      </trkpt>
      <trkpt lat="39.5642350" lon="2.6556560">
        <ele>7.6</ele>
        <time>2021-06-21T10:48:26Z</time>
      </trkpt>
      <trkpt lat="39.5642300" lon="2.6552340">
        <ele>7.8</ele>
        <time>2021-06-21T10:48:32Z</time>
      </trkpt>
      <trkpt lat="39.5642140" lon="2.6545460">
        <ele>7.4</ele>
        <time>2021-06-21T10:48:41Z</time>
      </trkpt>
      <trkpt lat="39.5642130" lon="2.6543960">
        <ele>7.4</ele>
        <time>2021-06-21T10:48:43Z</time>
      </trkpt>
      <trkpt lat="39.5642050" lon="2.6539260">
        <ele>7.4</ele>
        <time>2021-06-21T10:48:49Z</time>
      </trkpt>
      <trkpt lat="39.5642060" lon="2.6538460">
        <ele>7.4</ele>
        <time>2021-06-21T10:48:50Z</time>
      </trkpt>
      <trkpt lat="39.5642110" lon="2.6531470">
        <ele>7.4</ele>
        <time>2021-06-21T10:48:59Z</time>
      </trkpt>
      <trkpt lat="39.5642190" lon="2.6530780">
        <ele>7.4</ele>
        <time>2021-06-21T10:49:00Z</time>
      </trkpt>
      <trkpt lat="39.5642670" lon="2.6523350">
        <ele>7.5</ele>
        <time>2021-06-21T10:49:10Z</time>
      </trkpt>
      <trkpt lat="39.5643200" lon="2.6516200">
        <ele>7.6</ele>
        <time>2021-06-21T10:49:20Z</time>
      </trkpt>
      <trkpt lat="39.5643260" lon="2.6515450">
        <ele>7.6</ele>
        <time>2021-06-21T10:49:21Z</time>
      </trkpt>
      <trkpt lat="39.5643510" lon="2.6513280">
        <ele>7.6</ele>
        <time>2021-06-21T10:49:24Z</time>
      </trkpt>
      <trkpt lat="39.5644010" lon="2.6509680">
        <ele>7.6</ele>
        <time>2021-06-21T10:49:29Z</time>
      </trkpt>
      <trkpt lat="39.5644430" lon="2.6505780">
        <ele>7.8</ele>
        <time>2021-06-21T10:49:35Z</time>
      </trkpt>
      <trkpt lat="39.5644520" lon="2.6505160">
        <ele>7.8</ele>
        <time>2021-06-21T10:49:36Z</time>
      </trkpt>
      <trkpt lat="39.5644880" lon="2.6503200">
        <ele>7.8</ele>
        <time>2021-06-21T10:49:39Z</time>
      </trkpt>
      <trkpt lat="39.5645220" lon="2.6501210">
        <ele>7.8</ele>
        <time>2021-06-21T10:49:42Z</time>
      </trkpt>
      <trkpt lat="39.5645490" lon="2.6499380">
        <ele>7.8</ele>
        <time>2021-06-21T10:49:45Z</time>
      </trkpt>
      <trkpt lat="39.5645690" lon="2.6498530">
        <ele>7.8</ele>
        <time>2021-06-21T10:49:47Z</time>
      </trkpt>
      <trkpt lat="39.5645810" lon="2.6498270">
        <ele>7.8</ele>
        <time>2021-06-21T10:49:48Z</time>
      </trkpt>
      <trkpt lat="39.5645950" lon="2.6498090">
        <ele>8.0</ele>
        <time>2021-06-21T10:49:49Z</time>
      </trkpt>
      <trkpt lat="39.5646600" lon="2.6498070">
        <ele>8.1</ele>
        <time>2021-06-21T10:49:52Z</time>
      </trkpt>
      <trkpt lat="39.5647580" lon="2.6498370">
        <ele>7.8</ele>
        <time>2021-06-21T10:49:58Z</time>
      </trkpt>
      <trkpt lat="39.5647580" lon="2.6498370">
        <ele>7.8</ele>
        <time>2021-06-21T10:50:06Z</time>
      </trkpt>
      <trkpt lat="39.5647580" lon="2.6498370">
        <ele>7.8</ele>
        <time>2021-06-21T10:50:08Z</time>
      </trkpt>
      <trkpt lat="39.5647580" lon="2.6498370">
        <ele>7.8</ele>
        <time>2021-06-21T10:50:14Z</time>
      </trkpt>
      <trkpt lat="39.5647580" lon="2.6498370">
        <ele>7.8</ele>
        <time>2021-06-21T10:50:16Z</time>
      </trkpt>
      <trkpt lat="39.5647580" lon="2.6498370">
        <ele>7.8</ele>
        <time>2021-06-21T10:50:18Z</time>
      </trkpt>
      <trkpt lat="39.5647580" lon="2.6498370">
        <ele>7.8</ele>
        <time>2021-06-21T10:50:22Z</time>
      </trkpt>
      <trkpt lat="39.5647580" lon="2.6498370">
        <ele>7.8</ele>
        <time>2021-06-21T10:50:26Z</time>
      </trkpt>
      <trkpt lat="39.5647580" lon="2.6498370">
        <ele>7.8</ele>
        <time>2021-06-21T10:50:33Z</time>
      </trkpt>
      <trkpt lat="39.5647750" lon="2.6498440">
        <ele>7.8</ele>
        <time>2021-06-21T10:50:39Z</time>
      </trkpt>
      <trkpt lat="39.5648170" lon="2.6498630">
        <ele>7.6</ele>
        <time>2021-06-21T10:50:41Z</time>
      </trkpt>
      <trkpt lat="39.5648970" lon="2.6498900">
        <ele>7.8</ele>
        <time>2021-06-21T10:50:45Z</time>
      </trkpt>
      <trkpt lat="39.5649310" lon="2.6498640">
        <ele>7.8</ele>
        <time>2021-06-21T10:50:47Z</time>
      </trkpt>
      <trkpt lat="39.5649590" lon="2.6498360">
        <ele>7.7</ele>
        <time>2021-06-21T10:50:53Z</time>
      </trkpt>
      <trkpt lat="39.5649710" lon="2.6498390">
        <ele>7.7</ele>
        <time>2021-06-21T10:50:55Z</time>
      </trkpt>
      <trkpt lat="39.5650220" lon="2.6498630">
        <ele>7.7</ele>
        <time>2021-06-21T10:50:59Z</time>
      </trkpt>
      <trkpt lat="39.5650540" lon="2.6498680">
        <ele>7.6</ele>
        <time>2021-06-21T10:51:02Z</time>
      </trkpt>
      <trkpt lat="39.5650590" lon="2.6498670">
        <ele>7.6</ele>
        <time>2021-06-21T10:51:07Z</time>
      </trkpt>
      <trkpt lat="39.5650520" lon="2.6498660">
        <ele>7.6</ele>
        <time>2021-06-21T10:51:14Z</time>
      </trkpt>
      <trkpt lat="39.5650520" lon="2.6498670">
        <ele>7.6</ele>
        <time>2021-06-21T10:51:21Z</time>
      </trkpt>
      <trkpt lat="39.5650490" lon="2.6498680">
        <ele>7.6</ele>
        <time>2021-06-21T10:51:31Z</time>
      </trkpt>
      <trkpt lat="39.5650490" lon="2.6498680">
        <ele>7.6</ele>
        <time>2021-06-21T10:51:33Z</time>
      </trkpt>
      <trkpt lat="39.5650500" lon="2.6498680">
        <ele>7.6</ele>
        <time>2021-06-21T10:51:36Z</time>
      </trkpt>
      <trkpt lat="39.5650470" lon="2.6498730">
        <ele>7.6</ele>
        <time>2021-06-21T10:51:41Z</time>
      </trkpt>
      <trkpt lat="39.5650470" lon="2.6498730">
        <ele>7.6</ele>
        <time>2021-06-21T10:51:47Z</time>
      </trkpt>
      <trkpt lat="39.5650470" lon="2.6498730">
        <ele>7.6</ele>
        <time>2021-06-21T10:51:48Z</time>
      </trkpt>
      <trkpt lat="39.5650420" lon="2.6498800">
        <ele>7.6</ele>
        <time>2021-06-21T10:51:54Z</time>
      </trkpt>
      <trkpt lat="39.5650400" lon="2.6498860">
        <ele>7.6</ele>
        <time>2021-06-21T10:51:57Z</time>
      </trkpt>
      <trkpt lat="39.5650410" lon="2.6498860">
        <ele>7.6</ele>
        <time>2021-06-21T10:51:59Z</time>
      </trkpt>
      <trkpt lat="39.5650600" lon="2.6498820">
        <ele>7.6</ele>
        <time>2021-06-21T10:52:01Z</time>
      </trkpt>
      <trkpt lat="39.5650600" lon="2.6498820">
        <ele>7.6</ele>
        <time>2021-06-21T10:52:03Z</time>
      </trkpt>
      <trkpt lat="39.5650610" lon="2.6498800">
        <ele>7.6</ele>
        <time>2021-06-21T10:52:09Z</time>
      </trkpt>
      <trkpt lat="39.5650940" lon="2.6498000">
        <ele>7.5</ele>
        <time>2021-06-21T10:52:12Z</time>
      </trkpt>
      <trkpt lat="39.5652340" lon="2.6496300">
        <ele>6.7</ele>
        <time>2021-06-21T10:52:17Z</time>
      </trkpt>
      <trkpt lat="39.5654130" lon="2.6493730">
        <ele>5.5</ele>
        <time>2021-06-21T10:52:22Z</time>
      </trkpt>
      <trkpt lat="39.5654420" lon="2.6493100">
        <ele>5.3</ele>
        <time>2021-06-21T10:52:23Z</time>
      </trkpt>
      <trkpt lat="39.5654960" lon="2.6491070">
        <ele>5.0</ele>
        <time>2021-06-21T10:52:26Z</time>
      </trkpt>
      <trkpt lat="39.5655820" lon="2.6486930">
        <ele>4.7</ele>
        <time>2021-06-21T10:52:33Z</time>
      </trkpt>
      <trkpt lat="39.5656220" lon="2.6485920">
        <ele>4.7</ele>
        <time>2021-06-21T10:52:35Z</time>
      </trkpt>
      <trkpt lat="39.5656820" lon="2.6483980">
        <ele>4.7</ele>
        <time>2021-06-21T10:52:39Z</time>
      </trkpt>
      <trkpt lat="39.5657730" lon="2.6479750">
        <ele>4.6</ele>
        <time>2021-06-21T10:52:47Z</time>
      </trkpt>
      <trkpt lat="39.5657910" lon="2.6478650">
        <ele>4.6</ele>
        <time>2021-06-21T10:52:49Z</time>
      </trkpt>
      <trkpt lat="39.5658270" lon="2.6477170">
        <ele>4.6</ele>
        <time>2021-06-21T10:52:52Z</time>
      </trkpt>
      <trkpt lat="39.5658760" lon="2.6476410">
        <ele>4.6</ele>
        <time>2021-06-21T10:52:54Z</time>
      </trkpt>
      <trkpt lat="39.5659590" lon="2.6474650">
        <ele>4.6</ele>
        <time>2021-06-21T10:52:58Z</time>
      </trkpt>
      <trkpt lat="39.5659990" lon="2.6473770">
        <ele>4.6</ele>
        <time>2021-06-21T10:53:00Z</time>
      </trkpt>
      <trkpt lat="39.5661100" lon="2.6471390">
        <ele>4.6</ele>
        <time>2021-06-21T10:53:06Z</time>
      </trkpt>
      <trkpt lat="39.5661570" lon="2.6469540">
        <ele>4.6</ele>
        <time>2021-06-21T10:53:11Z</time>
      </trkpt>
      <trkpt lat="39.5662840" lon="2.6467890">
        <ele>4.8</ele>
        <time>2021-06-21T10:53:18Z</time>
      </trkpt>
      <trkpt lat="39.5663450" lon="2.6467140">
        <ele>4.8</ele>
        <time>2021-06-21T10:53:22Z</time>
      </trkpt>
      <trkpt lat="39.5663750" lon="2.6466830">
        <ele>4.9</ele>
        <time>2021-06-21T10:53:24Z</time>
      </trkpt>
      <trkpt lat="39.5663860" lon="2.6466640">
        <ele>4.9</ele>
        <time>2021-06-21T10:53:25Z</time>
      </trkpt>
      <trkpt lat="39.5665200" lon="2.6464910">
        <ele>5.1</ele>
        <time>2021-06-21T10:53:34Z</time>
      </trkpt>
      <trkpt lat="39.5665510" lon="2.6464360">
        <ele>5.2</ele>
        <time>2021-06-21T10:53:36Z</time>
      </trkpt>
      <trkpt lat="39.5665790" lon="2.6463350">
        <ele>5.4</ele>
        <time>2021-06-21T10:53:39Z</time>
      </trkpt>
      <trkpt lat="39.5665960" lon="2.6463040">
        <ele>5.4</ele>
        <time>2021-06-21T10:53:40Z</time>
      </trkpt>
      <trkpt lat="39.5666490" lon="2.6462140">
        <ele>5.6</ele>
        <time>2021-06-21T10:53:43Z</time>
      </trkpt>
      <trkpt lat="39.5667160" lon="2.6461490">
        <ele>5.8</ele>
        <time>2021-06-21T10:53:46Z</time>
      </trkpt>
      <trkpt lat="39.5667390" lon="2.6461300">
        <ele>5.8</ele>
        <time>2021-06-21T10:53:47Z</time>
      </trkpt>
      <trkpt lat="39.5667680" lon="2.6460960">
        <ele>6.2</ele>
        <time>2021-06-21T10:53:51Z</time>
      </trkpt>
      <trkpt lat="39.5667680" lon="2.6460960">
        <ele>6.2</ele>
        <time>2021-06-21T10:53:58Z</time>
      </trkpt>
      <trkpt lat="39.5667680" lon="2.6460960">
        <ele>6.2</ele>
        <time>2021-06-21T10:54:03Z</time>
      </trkpt>
      <trkpt lat="39.5667680" lon="2.6460960">
        <ele>6.2</ele>
        <time>2021-06-21T10:54:09Z</time>
      </trkpt>
      <trkpt lat="39.5667680" lon="2.6460960">
        <ele>6.2</ele>
        <time>2021-06-21T10:54:14Z</time>
      </trkpt>
      <trkpt lat="39.5667700" lon="2.6460930">
        <ele>6.2</ele>
        <time>2021-06-21T10:54:19Z</time>
      </trkpt>
      <trkpt lat="39.5667780" lon="2.6460410">
        <ele>6.4</ele>
        <time>2021-06-21T10:54:21Z</time>
      </trkpt>
      <trkpt lat="39.5668000" lon="2.6459540">
        <ele>6.9</ele>
        <time>2021-06-21T10:54:23Z</time>
      </trkpt>
      <trkpt lat="39.5668290" lon="2.6459190">
        <ele>7.0</ele>
        <time>2021-06-21T10:54:24Z</time>
      </trkpt>
      <trkpt lat="39.5669850" lon="2.6458710">
        <ele>7.0</ele>
        <time>2021-06-21T10:54:28Z</time>
      </trkpt>
      <trkpt lat="39.5671190" lon="2.6457850">
        <ele>7.1</ele>
        <time>2021-06-21T10:54:32Z</time>
      </trkpt>
      <trkpt lat="39.5672280" lon="2.6457400">
        <ele>7.3</ele>
        <time>2021-06-21T10:54:35Z</time>
      </trkpt>
      <trkpt lat="39.5672890" lon="2.6457010">
        <ele>7.4</ele>
        <time>2021-06-21T10:54:38Z</time>
      </trkpt>
      <trkpt lat="39.5672950" lon="2.6456950">
        <ele>7.4</ele>
        <time>2021-06-21T10:54:39Z</time>
      </trkpt>
      <trkpt lat="39.5673130" lon="2.6456840">
        <ele>7.6</ele>
        <time>2021-06-21T10:54:41Z</time>
      </trkpt>
      <trkpt lat="39.5673720" lon="2.6456050">
        <ele>7.5</ele>
        <time>2021-06-21T10:54:46Z</time>
      </trkpt>
      <trkpt lat="39.5673960" lon="2.6455690">
        <ele>7.5</ele>
        <time>2021-06-21T10:54:48Z</time>
      </trkpt>
      <trkpt lat="39.5675260" lon="2.6455820">
        <ele>7.6</ele>
        <time>2021-06-21T10:54:52Z</time>
      </trkpt>
      <trkpt lat="39.5677130" lon="2.6457230">
        <ele>7.8</ele>
        <time>2021-06-21T10:54:57Z</time>
      </trkpt>
      <trkpt lat="39.5678830" lon="2.6458650">
        <ele>8.1</ele>
        <time>2021-06-21T10:55:02Z</time>
      </trkpt>
      <trkpt lat="39.5679400" lon="2.6459010">
        <ele>8.1</ele>
        <time>2021-06-21T10:55:04Z</time>
      </trkpt>
      <trkpt lat="39.5680120" lon="2.6459330">
        <ele>8.2</ele>
        <time>2021-06-21T10:55:08Z</time>
      </trkpt>
      <trkpt lat="39.5680120" lon="2.6459330">
        <ele>8.2</ele>
        <time>2021-06-21T10:55:13Z</time>
      </trkpt>
      <trkpt lat="39.5680390" lon="2.6459180">
        <ele>8.3</ele>
        <time>2021-06-21T10:55:21Z</time>
      </trkpt>
      <trkpt lat="39.5680670" lon="2.6458830">
        <ele>8.3</ele>
        <time>2021-06-21T10:55:23Z</time>
      </trkpt>
      <trkpt lat="39.5681110" lon="2.6458070">
        <ele>8.3</ele>
        <time>2021-06-21T10:55:25Z</time>
      </trkpt>
      <trkpt lat="39.5681960" lon="2.6456240">
        <ele>8.4</ele>
        <time>2021-06-21T10:55:30Z</time>
      </trkpt>
      <trkpt lat="39.5682160" lon="2.6455510">
        <ele>8.5</ele>
        <time>2021-06-21T10:55:34Z</time>
      </trkpt>
      <trkpt lat="39.5682440" lon="2.6455790">
        <ele>8.5</ele>
        <time>2021-06-21T10:55:36Z</time>
      </trkpt>
      <trkpt lat="39.5682690" lon="2.6456050">
        <ele>8.5</ele>
        <time>2021-06-21T10:55:37Z</time>
      </trkpt>
      <trkpt lat="39.5683190" lon="2.6456370">
        <ele>8.6</ele>
        <time>2021-06-21T10:55:39Z</time>
      </trkpt>
      <trkpt lat="39.5683220" lon="2.6456320">
        <ele>8.6</ele>
        <time>2021-06-21T10:55:41Z</time>
      </trkpt>
      <trkpt lat="39.5683040" lon="2.6456920">
        <ele>8.6</ele>
        <time>2021-06-21T10:55:47Z</time>
      </trkpt>
      <trkpt lat="39.5682490" lon="2.6457670">
        <ele>8.7</ele>
        <time>2021-06-21T10:55:54Z</time>
      </trkpt>
      <trkpt lat="39.5682520" lon="2.6457420">
        <ele>8.7</ele>
        <time>2021-06-21T10:55:55Z</time>
      </trkpt>
      <trkpt lat="39.5682600" lon="2.6457220">
        <ele>8.7</ele>
        <time>2021-06-21T10:55:57Z</time>
      </trkpt>
      <trkpt lat="39.5682720" lon="2.6457010">
        <ele>8.7</ele>
        <time>2021-06-21T10:55:59Z</time>
      </trkpt>
      <trkpt lat="39.5682660" lon="2.6457310">
        <ele>8.7</ele>
        <time>2021-06-21T10:56:02Z</time>
      </trkpt>
      <trkpt lat="39.5682660" lon="2.6457310">
        <ele>8.7</ele>
        <time>2021-06-21T10:56:07Z</time>
      </trkpt>
      <trkpt lat="39.5682770" lon="2.6457110">
        <ele>8.8</ele>
        <time>2021-06-21T10:56:21Z</time>
      </trkpt>
    </trkseg>
  </trk>
</gpx>
